<?xml version="1.0" encoding="UTF-8" standalone="no" ?>
<gpx xmlns="http://www.topografix.com/GPX/1/1" xmlns:xsi="http://www.w3.org/2001/XMLSchema-instance" xsi:schemaLocation="http://www.topografix.com/GPX/1/1 http://www.topografix.com/GPX/1/1/gpx.xsd" version="1.1" creator="VisuGPX - https://www.visugpx.com">
  <metadata>
    <name>Blangy tronville Randonnée dans l'après-midi</name>
  </metadata>
  <trk>
    <name><![CDATA[Blangy tronville Randonnée dans l'après-midi_1]]></name>
    <trkseg>
      <trkpt lat="49.87472" lon="2.39812">
        <ele>57.1</ele>
        <time>2022-01-05T12:57:39Z</time>
      </trkpt>
      <trkpt lat="49.87473" lon="2.39805">
        <ele>57.1</ele>
        <time>2022-01-05T12:57:40Z</time>
      </trkpt>
      <trkpt lat="49.87476" lon="2.39801">
        <ele>57.1</ele>
        <time>2022-01-05T12:57:41Z</time>
      </trkpt>
      <trkpt lat="49.87473" lon="2.39804">
        <ele>57.1</ele>
        <time>2022-01-05T12:57:42Z</time>
      </trkpt>
      <trkpt lat="49.87474" lon="2.39806">
        <ele>57.1</ele>
        <time>2022-01-05T12:57:44Z</time>
      </trkpt>
      <trkpt lat="49.87474" lon="2.39806">
        <ele>57.1</ele>
        <time>2022-01-05T12:57:46Z</time>
      </trkpt>
      <trkpt lat="49.87474" lon="2.39806">
        <ele>57.1</ele>
        <time>2022-01-05T12:57:47Z</time>
      </trkpt>
      <trkpt lat="49.87474" lon="2.39806">
        <ele>57.1</ele>
        <time>2022-01-05T12:57:48Z</time>
      </trkpt>
      <trkpt lat="49.87474" lon="2.39806">
        <ele>57.1</ele>
        <time>2022-01-05T12:57:50Z</time>
      </trkpt>
      <trkpt lat="49.87474" lon="2.39806">
        <ele>57.1</ele>
        <time>2022-01-05T12:57:51Z</time>
      </trkpt>
      <trkpt lat="49.87474" lon="2.39806">
        <ele>57.1</ele>
        <time>2022-01-05T12:57:53Z</time>
      </trkpt>
      <trkpt lat="49.87474" lon="2.39806">
        <ele>57.1</ele>
        <time>2022-01-05T12:57:55Z</time>
      </trkpt>
      <trkpt lat="49.87474" lon="2.39807">
        <ele>57.1</ele>
        <time>2022-01-05T12:57:57Z</time>
      </trkpt>
      <trkpt lat="49.87474" lon="2.39807">
        <ele>57.1</ele>
        <time>2022-01-05T12:57:59Z</time>
      </trkpt>
      <trkpt lat="49.87474" lon="2.39807">
        <ele>57.1</ele>
        <time>2022-01-05T12:58:00Z</time>
      </trkpt>
      <trkpt lat="49.87474" lon="2.39807">
        <ele>57.1</ele>
        <time>2022-01-05T12:58:01Z</time>
      </trkpt>
      <trkpt lat="49.87474" lon="2.39807">
        <ele>57.1</ele>
        <time>2022-01-05T12:58:02Z</time>
      </trkpt>
      <trkpt lat="49.87474" lon="2.39807">
        <ele>57.1</ele>
        <time>2022-01-05T12:58:04Z</time>
      </trkpt>
      <trkpt lat="49.87474" lon="2.39807">
        <ele>57.1</ele>
        <time>2022-01-05T12:58:05Z</time>
      </trkpt>
      <trkpt lat="49.87474" lon="2.39807">
        <ele>57.1</ele>
        <time>2022-01-05T12:58:07Z</time>
      </trkpt>
      <trkpt lat="49.87474" lon="2.39807">
        <ele>57.1</ele>
        <time>2022-01-05T12:58:08Z</time>
      </trkpt>
      <trkpt lat="49.87474" lon="2.39807">
        <ele>57.1</ele>
        <time>2022-01-05T12:58:09Z</time>
      </trkpt>
      <trkpt lat="49.87474" lon="2.39807">
        <ele>57.1</ele>
        <time>2022-01-05T12:58:11Z</time>
      </trkpt>
      <trkpt lat="49.87474" lon="2.39807">
        <ele>57.1</ele>
        <time>2022-01-05T12:58:12Z</time>
      </trkpt>
      <trkpt lat="49.87474" lon="2.39807">
        <ele>57.1</ele>
        <time>2022-01-05T12:58:13Z</time>
      </trkpt>
      <trkpt lat="49.87474" lon="2.39807">
        <ele>57.1</ele>
        <time>2022-01-05T12:58:15Z</time>
      </trkpt>
      <trkpt lat="49.87474" lon="2.39807">
        <ele>57.1</ele>
        <time>2022-01-05T12:58:16Z</time>
      </trkpt>
      <trkpt lat="49.87474" lon="2.39807">
        <ele>57.1</ele>
        <time>2022-01-05T12:58:17Z</time>
      </trkpt>
      <trkpt lat="49.87474" lon="2.39807">
        <ele>57.1</ele>
        <time>2022-01-05T12:58:19Z</time>
      </trkpt>
      <trkpt lat="49.87474" lon="2.39807">
        <ele>57.1</ele>
        <time>2022-01-05T12:58:21Z</time>
      </trkpt>
      <trkpt lat="49.87474" lon="2.39807">
        <ele>57.1</ele>
        <time>2022-01-05T12:58:23Z</time>
      </trkpt>
      <trkpt lat="49.87474" lon="2.39807">
        <ele>57.1</ele>
        <time>2022-01-05T12:58:24Z</time>
      </trkpt>
      <trkpt lat="49.87475" lon="2.39807">
        <ele>57.1</ele>
        <time>2022-01-05T12:58:26Z</time>
      </trkpt>
      <trkpt lat="49.87475" lon="2.39807">
        <ele>57.1</ele>
        <time>2022-01-05T12:58:28Z</time>
      </trkpt>
      <trkpt lat="49.87475" lon="2.39807">
        <ele>57.1</ele>
        <time>2022-01-05T12:58:29Z</time>
      </trkpt>
      <trkpt lat="49.87475" lon="2.39807">
        <ele>57.1</ele>
        <time>2022-01-05T12:58:31Z</time>
      </trkpt>
      <trkpt lat="49.87475" lon="2.39807">
        <ele>57.1</ele>
        <time>2022-01-05T12:58:33Z</time>
      </trkpt>
      <trkpt lat="49.87475" lon="2.39807">
        <ele>57.1</ele>
        <time>2022-01-05T12:58:35Z</time>
      </trkpt>
      <trkpt lat="49.87475" lon="2.39807">
        <ele>57.1</ele>
        <time>2022-01-05T12:58:36Z</time>
      </trkpt>
      <trkpt lat="49.87475" lon="2.39807">
        <ele>57.1</ele>
        <time>2022-01-05T12:58:38Z</time>
      </trkpt>
      <trkpt lat="49.87475" lon="2.39807">
        <ele>57.1</ele>
        <time>2022-01-05T12:58:40Z</time>
      </trkpt>
      <trkpt lat="49.87475" lon="2.39807">
        <ele>57.1</ele>
        <time>2022-01-05T12:58:42Z</time>
      </trkpt>
      <trkpt lat="49.87475" lon="2.39807">
        <ele>57.1</ele>
        <time>2022-01-05T12:58:44Z</time>
      </trkpt>
      <trkpt lat="49.87475" lon="2.39807">
        <ele>57.1</ele>
        <time>2022-01-05T12:58:45Z</time>
      </trkpt>
      <trkpt lat="49.87475" lon="2.39807">
        <ele>57.1</ele>
        <time>2022-01-05T12:58:46Z</time>
      </trkpt>
      <trkpt lat="49.87475" lon="2.39808">
        <ele>57.1</ele>
        <time>2022-01-05T12:58:47Z</time>
      </trkpt>
      <trkpt lat="49.87475" lon="2.39808">
        <ele>57.1</ele>
        <time>2022-01-05T12:58:48Z</time>
      </trkpt>
      <trkpt lat="49.87475" lon="2.39808">
        <ele>57.1</ele>
        <time>2022-01-05T12:58:49Z</time>
      </trkpt>
      <trkpt lat="49.87475" lon="2.39808">
        <ele>57.1</ele>
        <time>2022-01-05T12:58:51Z</time>
      </trkpt>
      <trkpt lat="49.87475" lon="2.39808">
        <ele>57.1</ele>
        <time>2022-01-05T12:58:53Z</time>
      </trkpt>
      <trkpt lat="49.87475" lon="2.39808">
        <ele>57.1</ele>
        <time>2022-01-05T12:58:55Z</time>
      </trkpt>
      <trkpt lat="49.87475" lon="2.39808">
        <ele>57.1</ele>
        <time>2022-01-05T12:58:57Z</time>
      </trkpt>
      <trkpt lat="49.87475" lon="2.39808">
        <ele>57.1</ele>
        <time>2022-01-05T12:58:58Z</time>
      </trkpt>
      <trkpt lat="49.87475" lon="2.39808">
        <ele>57.1</ele>
        <time>2022-01-05T12:58:59Z</time>
      </trkpt>
      <trkpt lat="49.87475" lon="2.39808">
        <ele>57.1</ele>
        <time>2022-01-05T12:59:00Z</time>
      </trkpt>
      <trkpt lat="49.87475" lon="2.39808">
        <ele>57.1</ele>
        <time>2022-01-05T12:59:02Z</time>
      </trkpt>
      <trkpt lat="49.87475" lon="2.39808">
        <ele>57.1</ele>
        <time>2022-01-05T12:59:03Z</time>
      </trkpt>
      <trkpt lat="49.87475" lon="2.39808">
        <ele>57.1</ele>
        <time>2022-01-05T12:59:04Z</time>
      </trkpt>
      <trkpt lat="49.87475" lon="2.39808">
        <ele>57.1</ele>
        <time>2022-01-05T12:59:06Z</time>
      </trkpt>
      <trkpt lat="49.87475" lon="2.39808">
        <ele>57.1</ele>
        <time>2022-01-05T12:59:08Z</time>
      </trkpt>
      <trkpt lat="49.87475" lon="2.39808">
        <ele>57.1</ele>
        <time>2022-01-05T12:59:09Z</time>
      </trkpt>
      <trkpt lat="49.87475" lon="2.39808">
        <ele>57.1</ele>
        <time>2022-01-05T12:59:11Z</time>
      </trkpt>
      <trkpt lat="49.87475" lon="2.39808">
        <ele>57.1</ele>
        <time>2022-01-05T12:59:12Z</time>
      </trkpt>
      <trkpt lat="49.87476" lon="2.39808">
        <ele>57.1</ele>
        <time>2022-01-05T12:59:14Z</time>
      </trkpt>
      <trkpt lat="49.87476" lon="2.39808">
        <ele>57.1</ele>
        <time>2022-01-05T12:59:15Z</time>
      </trkpt>
      <trkpt lat="49.87476" lon="2.39808">
        <ele>57.1</ele>
        <time>2022-01-05T12:59:17Z</time>
      </trkpt>
      <trkpt lat="49.87476" lon="2.39808">
        <ele>57.1</ele>
        <time>2022-01-05T12:59:19Z</time>
      </trkpt>
      <trkpt lat="49.87476" lon="2.39808">
        <ele>57.1</ele>
        <time>2022-01-05T12:59:20Z</time>
      </trkpt>
      <trkpt lat="49.87476" lon="2.39808">
        <ele>57.1</ele>
        <time>2022-01-05T12:59:21Z</time>
      </trkpt>
      <trkpt lat="49.87476" lon="2.39808">
        <ele>57.1</ele>
        <time>2022-01-05T12:59:22Z</time>
      </trkpt>
      <trkpt lat="49.87476" lon="2.39808">
        <ele>57.1</ele>
        <time>2022-01-05T12:59:24Z</time>
      </trkpt>
      <trkpt lat="49.87476" lon="2.39808">
        <ele>57.1</ele>
        <time>2022-01-05T12:59:25Z</time>
      </trkpt>
      <trkpt lat="49.87476" lon="2.39808">
        <ele>57.1</ele>
        <time>2022-01-05T12:59:27Z</time>
      </trkpt>
      <trkpt lat="49.87476" lon="2.39808">
        <ele>57.1</ele>
        <time>2022-01-05T12:59:28Z</time>
      </trkpt>
      <trkpt lat="49.87476" lon="2.39808">
        <ele>57.1</ele>
        <time>2022-01-05T12:59:29Z</time>
      </trkpt>
      <trkpt lat="49.87476" lon="2.39808">
        <ele>57.1</ele>
        <time>2022-01-05T12:59:30Z</time>
      </trkpt>
      <trkpt lat="49.87476" lon="2.39808">
        <ele>57.1</ele>
        <time>2022-01-05T12:59:32Z</time>
      </trkpt>
      <trkpt lat="49.87476" lon="2.39808">
        <ele>57.1</ele>
        <time>2022-01-05T12:59:33Z</time>
      </trkpt>
      <trkpt lat="49.87476" lon="2.39809">
        <ele>57.1</ele>
        <time>2022-01-05T12:59:34Z</time>
      </trkpt>
      <trkpt lat="49.87476" lon="2.39809">
        <ele>57.1</ele>
        <time>2022-01-05T12:59:35Z</time>
      </trkpt>
      <trkpt lat="49.87476" lon="2.39809">
        <ele>57.1</ele>
        <time>2022-01-05T12:59:37Z</time>
      </trkpt>
      <trkpt lat="49.87476" lon="2.39809">
        <ele>57.1</ele>
        <time>2022-01-05T12:59:39Z</time>
      </trkpt>
      <trkpt lat="49.87476" lon="2.39809">
        <ele>57.1</ele>
        <time>2022-01-05T12:59:40Z</time>
      </trkpt>
      <trkpt lat="49.87476" lon="2.39809">
        <ele>57.1</ele>
        <time>2022-01-05T12:59:41Z</time>
      </trkpt>
      <trkpt lat="49.87476" lon="2.39809">
        <ele>57.1</ele>
        <time>2022-01-05T12:59:43Z</time>
      </trkpt>
      <trkpt lat="49.87476" lon="2.39809">
        <ele>57.1</ele>
        <time>2022-01-05T12:59:45Z</time>
      </trkpt>
      <trkpt lat="49.87476" lon="2.39809">
        <ele>57.1</ele>
        <time>2022-01-05T12:59:46Z</time>
      </trkpt>
      <trkpt lat="49.87476" lon="2.39809">
        <ele>57.1</ele>
        <time>2022-01-05T12:59:48Z</time>
      </trkpt>
      <trkpt lat="49.87476" lon="2.39809">
        <ele>57.1</ele>
        <time>2022-01-05T12:59:49Z</time>
      </trkpt>
      <trkpt lat="49.87476" lon="2.39809">
        <ele>57.1</ele>
        <time>2022-01-05T12:59:50Z</time>
      </trkpt>
      <trkpt lat="49.87476" lon="2.39809">
        <ele>57.1</ele>
        <time>2022-01-05T12:59:52Z</time>
      </trkpt>
      <trkpt lat="49.87476" lon="2.39809">
        <ele>57.1</ele>
        <time>2022-01-05T12:59:53Z</time>
      </trkpt>
      <trkpt lat="49.87476" lon="2.39809">
        <ele>57.1</ele>
        <time>2022-01-05T12:59:55Z</time>
      </trkpt>
      <trkpt lat="49.87477" lon="2.39809">
        <ele>57.1</ele>
        <time>2022-01-05T12:59:56Z</time>
      </trkpt>
      <trkpt lat="49.87477" lon="2.39809">
        <ele>57.1</ele>
        <time>2022-01-05T12:59:57Z</time>
      </trkpt>
      <trkpt lat="49.87477" lon="2.39809">
        <ele>57.1</ele>
        <time>2022-01-05T12:59:59Z</time>
      </trkpt>
      <trkpt lat="49.87477" lon="2.39809">
        <ele>57.1</ele>
        <time>2022-01-05T13:00:01Z</time>
      </trkpt>
      <trkpt lat="49.87477" lon="2.39809">
        <ele>57.1</ele>
        <time>2022-01-05T13:00:03Z</time>
      </trkpt>
      <trkpt lat="49.87477" lon="2.39809">
        <ele>57.1</ele>
        <time>2022-01-05T13:00:05Z</time>
      </trkpt>
      <trkpt lat="49.87477" lon="2.39809">
        <ele>57.1</ele>
        <time>2022-01-05T13:00:06Z</time>
      </trkpt>
      <trkpt lat="49.87477" lon="2.39809">
        <ele>57.1</ele>
        <time>2022-01-05T13:00:07Z</time>
      </trkpt>
      <trkpt lat="49.87477" lon="2.39809">
        <ele>57.1</ele>
        <time>2022-01-05T13:00:08Z</time>
      </trkpt>
      <trkpt lat="49.87477" lon="2.39809">
        <ele>57.1</ele>
        <time>2022-01-05T13:00:10Z</time>
      </trkpt>
      <trkpt lat="49.87477" lon="2.39809">
        <ele>57.1</ele>
        <time>2022-01-05T13:00:11Z</time>
      </trkpt>
      <trkpt lat="49.87477" lon="2.39809">
        <ele>57.1</ele>
        <time>2022-01-05T13:00:12Z</time>
      </trkpt>
      <trkpt lat="49.87477" lon="2.39809">
        <ele>57.1</ele>
        <time>2022-01-05T13:00:13Z</time>
      </trkpt>
      <trkpt lat="49.87477" lon="2.39809">
        <ele>57.1</ele>
        <time>2022-01-05T13:00:15Z</time>
      </trkpt>
      <trkpt lat="49.87477" lon="2.39809">
        <ele>57.1</ele>
        <time>2022-01-05T13:00:17Z</time>
      </trkpt>
      <trkpt lat="49.87477" lon="2.39809">
        <ele>57.1</ele>
        <time>2022-01-05T13:00:18Z</time>
      </trkpt>
      <trkpt lat="49.87477" lon="2.39809">
        <ele>57.1</ele>
        <time>2022-01-05T13:00:20Z</time>
      </trkpt>
      <trkpt lat="49.87477" lon="2.39809">
        <ele>57.1</ele>
        <time>2022-01-05T13:00:22Z</time>
      </trkpt>
      <trkpt lat="49.87477" lon="2.3981">
        <ele>57.1</ele>
        <time>2022-01-05T13:00:24Z</time>
      </trkpt>
      <trkpt lat="49.87477" lon="2.3981">
        <ele>57.1</ele>
        <time>2022-01-05T13:00:25Z</time>
      </trkpt>
      <trkpt lat="49.87477" lon="2.3981">
        <ele>57.1</ele>
        <time>2022-01-05T13:00:27Z</time>
      </trkpt>
      <trkpt lat="49.87477" lon="2.3981">
        <ele>57.1</ele>
        <time>2022-01-05T13:00:28Z</time>
      </trkpt>
      <trkpt lat="49.87477" lon="2.3981">
        <ele>57.1</ele>
        <time>2022-01-05T13:00:29Z</time>
      </trkpt>
      <trkpt lat="49.87477" lon="2.3981">
        <ele>57.1</ele>
        <time>2022-01-05T13:00:31Z</time>
      </trkpt>
      <trkpt lat="49.87477" lon="2.3981">
        <ele>57.1</ele>
        <time>2022-01-05T13:00:32Z</time>
      </trkpt>
      <trkpt lat="49.87477" lon="2.3981">
        <ele>57.1</ele>
        <time>2022-01-05T13:00:33Z</time>
      </trkpt>
      <trkpt lat="49.87477" lon="2.3981">
        <ele>57.1</ele>
        <time>2022-01-05T13:00:35Z</time>
      </trkpt>
      <trkpt lat="49.87477" lon="2.3981">
        <ele>57.1</ele>
        <time>2022-01-05T13:00:36Z</time>
      </trkpt>
      <trkpt lat="49.87477" lon="2.3981">
        <ele>57.1</ele>
        <time>2022-01-05T13:00:37Z</time>
      </trkpt>
      <trkpt lat="49.87477" lon="2.3981">
        <ele>57.1</ele>
        <time>2022-01-05T13:00:39Z</time>
      </trkpt>
      <trkpt lat="49.87478" lon="2.3981">
        <ele>57.1</ele>
        <time>2022-01-05T13:00:40Z</time>
      </trkpt>
      <trkpt lat="49.87478" lon="2.3981">
        <ele>57.1</ele>
        <time>2022-01-05T13:00:41Z</time>
      </trkpt>
      <trkpt lat="49.87478" lon="2.3981">
        <ele>57.1</ele>
        <time>2022-01-05T13:00:43Z</time>
      </trkpt>
      <trkpt lat="49.87478" lon="2.3981">
        <ele>57.1</ele>
        <time>2022-01-05T13:00:45Z</time>
      </trkpt>
      <trkpt lat="49.87478" lon="2.3981">
        <ele>57.1</ele>
        <time>2022-01-05T13:00:46Z</time>
      </trkpt>
      <trkpt lat="49.87478" lon="2.3981">
        <ele>57.1</ele>
        <time>2022-01-05T13:00:48Z</time>
      </trkpt>
      <trkpt lat="49.87478" lon="2.3981">
        <ele>57.1</ele>
        <time>2022-01-05T13:00:50Z</time>
      </trkpt>
      <trkpt lat="49.87478" lon="2.3981">
        <ele>57.1</ele>
        <time>2022-01-05T13:00:51Z</time>
      </trkpt>
      <trkpt lat="49.87478" lon="2.3981">
        <ele>57.1</ele>
        <time>2022-01-05T13:00:52Z</time>
      </trkpt>
      <trkpt lat="49.87478" lon="2.3981">
        <ele>57.1</ele>
        <time>2022-01-05T13:00:54Z</time>
      </trkpt>
      <trkpt lat="49.87478" lon="2.3981">
        <ele>57.1</ele>
        <time>2022-01-05T13:00:56Z</time>
      </trkpt>
      <trkpt lat="49.87478" lon="2.3981">
        <ele>57.1</ele>
        <time>2022-01-05T13:00:58Z</time>
      </trkpt>
      <trkpt lat="49.87478" lon="2.3981">
        <ele>57.1</ele>
        <time>2022-01-05T13:00:59Z</time>
      </trkpt>
      <trkpt lat="49.87478" lon="2.3981">
        <ele>57.1</ele>
        <time>2022-01-05T13:01:01Z</time>
      </trkpt>
      <trkpt lat="49.87478" lon="2.3981">
        <ele>57.1</ele>
        <time>2022-01-05T13:01:03Z</time>
      </trkpt>
      <trkpt lat="49.87478" lon="2.3981">
        <ele>57.1</ele>
        <time>2022-01-05T13:01:04Z</time>
      </trkpt>
      <trkpt lat="49.87478" lon="2.3981">
        <ele>57.1</ele>
        <time>2022-01-05T13:01:05Z</time>
      </trkpt>
      <trkpt lat="49.87478" lon="2.3981">
        <ele>57.1</ele>
        <time>2022-01-05T13:01:07Z</time>
      </trkpt>
      <trkpt lat="49.87478" lon="2.3981">
        <ele>57.1</ele>
        <time>2022-01-05T13:01:08Z</time>
      </trkpt>
      <trkpt lat="49.87478" lon="2.3981">
        <ele>57.1</ele>
        <time>2022-01-05T13:01:09Z</time>
      </trkpt>
      <trkpt lat="49.87478" lon="2.3981">
        <ele>57.1</ele>
        <time>2022-01-05T13:01:11Z</time>
      </trkpt>
      <trkpt lat="49.87478" lon="2.39811">
        <ele>57.1</ele>
        <time>2022-01-05T13:01:12Z</time>
      </trkpt>
      <trkpt lat="49.87478" lon="2.39811">
        <ele>57.1</ele>
        <time>2022-01-05T13:01:13Z</time>
      </trkpt>
      <trkpt lat="49.87478" lon="2.39811">
        <ele>57.1</ele>
        <time>2022-01-05T13:01:14Z</time>
      </trkpt>
      <trkpt lat="49.87481" lon="2.39811">
        <ele>57.1</ele>
        <time>2022-01-05T13:01:16Z</time>
      </trkpt>
      <trkpt lat="49.87483" lon="2.39811">
        <ele>57.1</ele>
        <time>2022-01-05T13:01:17Z</time>
      </trkpt>
      <trkpt lat="49.87484" lon="2.39811">
        <ele>57.1</ele>
        <time>2022-01-05T13:01:18Z</time>
      </trkpt>
      <trkpt lat="49.87486" lon="2.39812">
        <ele>57.1</ele>
        <time>2022-01-05T13:01:19Z</time>
      </trkpt>
      <trkpt lat="49.87487" lon="2.39812">
        <ele>57</ele>
        <time>2022-01-05T13:01:20Z</time>
      </trkpt>
      <trkpt lat="49.87489" lon="2.39813">
        <ele>57</ele>
        <time>2022-01-05T13:01:22Z</time>
      </trkpt>
      <trkpt lat="49.87491" lon="2.39813">
        <ele>57</ele>
        <time>2022-01-05T13:01:23Z</time>
      </trkpt>
      <trkpt lat="49.87492" lon="2.39814">
        <ele>57</ele>
        <time>2022-01-05T13:01:24Z</time>
      </trkpt>
      <trkpt lat="49.87494" lon="2.39815">
        <ele>57</ele>
        <time>2022-01-05T13:01:25Z</time>
      </trkpt>
      <trkpt lat="49.87495" lon="2.39816">
        <ele>57</ele>
        <time>2022-01-05T13:01:26Z</time>
      </trkpt>
      <trkpt lat="49.87497" lon="2.39816">
        <ele>57</ele>
        <time>2022-01-05T13:01:27Z</time>
      </trkpt>
      <trkpt lat="49.87499" lon="2.39816">
        <ele>57</ele>
        <time>2022-01-05T13:01:28Z</time>
      </trkpt>
      <trkpt lat="49.875" lon="2.39816">
        <ele>57</ele>
        <time>2022-01-05T13:01:30Z</time>
      </trkpt>
      <trkpt lat="49.87501" lon="2.39815">
        <ele>57</ele>
        <time>2022-01-05T13:01:31Z</time>
      </trkpt>
      <trkpt lat="49.87502" lon="2.39814">
        <ele>57</ele>
        <time>2022-01-05T13:01:32Z</time>
      </trkpt>
      <trkpt lat="49.87503" lon="2.39814">
        <ele>57</ele>
        <time>2022-01-05T13:01:33Z</time>
      </trkpt>
      <trkpt lat="49.87505" lon="2.39811">
        <ele>57</ele>
        <time>2022-01-05T13:01:34Z</time>
      </trkpt>
      <trkpt lat="49.87505" lon="2.3981">
        <ele>57.1</ele>
        <time>2022-01-05T13:01:35Z</time>
      </trkpt>
      <trkpt lat="49.87506" lon="2.39809">
        <ele>57.1</ele>
        <time>2022-01-05T13:01:36Z</time>
      </trkpt>
      <trkpt lat="49.87507" lon="2.39808">
        <ele>57.1</ele>
        <time>2022-01-05T13:01:38Z</time>
      </trkpt>
      <trkpt lat="49.87508" lon="2.39806">
        <ele>57.1</ele>
        <time>2022-01-05T13:01:39Z</time>
      </trkpt>
      <trkpt lat="49.87509" lon="2.39804">
        <ele>57.1</ele>
        <time>2022-01-05T13:01:40Z</time>
      </trkpt>
      <trkpt lat="49.8751" lon="2.39802">
        <ele>57.1</ele>
        <time>2022-01-05T13:01:41Z</time>
      </trkpt>
      <trkpt lat="49.87511" lon="2.398">
        <ele>57.1</ele>
        <time>2022-01-05T13:01:42Z</time>
      </trkpt>
      <trkpt lat="49.87513" lon="2.39798">
        <ele>57.1</ele>
        <time>2022-01-05T13:01:44Z</time>
      </trkpt>
      <trkpt lat="49.87516" lon="2.39797">
        <ele>57.2</ele>
        <time>2022-01-05T13:01:45Z</time>
      </trkpt>
      <trkpt lat="49.87517" lon="2.39796">
        <ele>57.2</ele>
        <time>2022-01-05T13:01:46Z</time>
      </trkpt>
      <trkpt lat="49.87519" lon="2.39796">
        <ele>57.2</ele>
        <time>2022-01-05T13:01:48Z</time>
      </trkpt>
      <trkpt lat="49.8752" lon="2.39796">
        <ele>57.2</ele>
        <time>2022-01-05T13:01:49Z</time>
      </trkpt>
      <trkpt lat="49.87521" lon="2.39796">
        <ele>57.3</ele>
        <time>2022-01-05T13:01:50Z</time>
      </trkpt>
      <trkpt lat="49.87522" lon="2.39796">
        <ele>57.3</ele>
        <time>2022-01-05T13:01:51Z</time>
      </trkpt>
      <trkpt lat="49.87525" lon="2.39796">
        <ele>57.3</ele>
        <time>2022-01-05T13:01:53Z</time>
      </trkpt>
      <trkpt lat="49.87525" lon="2.39796">
        <ele>57.3</ele>
        <time>2022-01-05T13:01:54Z</time>
      </trkpt>
      <trkpt lat="49.87526" lon="2.39796">
        <ele>57.3</ele>
        <time>2022-01-05T13:01:55Z</time>
      </trkpt>
      <trkpt lat="49.87527" lon="2.39797">
        <ele>57.3</ele>
        <time>2022-01-05T13:01:56Z</time>
      </trkpt>
      <trkpt lat="49.87528" lon="2.39798">
        <ele>57.3</ele>
        <time>2022-01-05T13:01:58Z</time>
      </trkpt>
      <trkpt lat="49.8753" lon="2.39798">
        <ele>57.3</ele>
        <time>2022-01-05T13:02:00Z</time>
      </trkpt>
      <trkpt lat="49.87531" lon="2.39799">
        <ele>57.3</ele>
        <time>2022-01-05T13:02:01Z</time>
      </trkpt>
      <trkpt lat="49.87532" lon="2.398">
        <ele>57.3</ele>
        <time>2022-01-05T13:02:02Z</time>
      </trkpt>
      <trkpt lat="49.87533" lon="2.398">
        <ele>57.3</ele>
        <time>2022-01-05T13:02:03Z</time>
      </trkpt>
      <trkpt lat="49.87534" lon="2.39801">
        <ele>57.3</ele>
        <time>2022-01-05T13:02:04Z</time>
      </trkpt>
      <trkpt lat="49.87535" lon="2.39801">
        <ele>57.3</ele>
        <time>2022-01-05T13:02:05Z</time>
      </trkpt>
      <trkpt lat="49.87536" lon="2.39802">
        <ele>57.3</ele>
        <time>2022-01-05T13:02:07Z</time>
      </trkpt>
      <trkpt lat="49.87537" lon="2.39803">
        <ele>57.3</ele>
        <time>2022-01-05T13:02:08Z</time>
      </trkpt>
      <trkpt lat="49.87539" lon="2.39804">
        <ele>57.3</ele>
        <time>2022-01-05T13:02:10Z</time>
      </trkpt>
      <trkpt lat="49.87539" lon="2.39805">
        <ele>57.3</ele>
        <time>2022-01-05T13:02:11Z</time>
      </trkpt>
      <trkpt lat="49.87541" lon="2.39808">
        <ele>57.4</ele>
        <time>2022-01-05T13:02:13Z</time>
      </trkpt>
      <trkpt lat="49.87542" lon="2.39809">
        <ele>57.4</ele>
        <time>2022-01-05T13:02:14Z</time>
      </trkpt>
      <trkpt lat="49.87543" lon="2.39811">
        <ele>57.4</ele>
        <time>2022-01-05T13:02:15Z</time>
      </trkpt>
      <trkpt lat="49.87544" lon="2.39813">
        <ele>57.4</ele>
        <time>2022-01-05T13:02:17Z</time>
      </trkpt>
      <trkpt lat="49.87544" lon="2.39815">
        <ele>57.2</ele>
        <time>2022-01-05T13:02:18Z</time>
      </trkpt>
      <trkpt lat="49.87545" lon="2.39818">
        <ele>57.1</ele>
        <time>2022-01-05T13:02:19Z</time>
      </trkpt>
      <trkpt lat="49.87545" lon="2.3982">
        <ele>57</ele>
        <time>2022-01-05T13:02:20Z</time>
      </trkpt>
      <trkpt lat="49.87545" lon="2.39823">
        <ele>57</ele>
        <time>2022-01-05T13:02:21Z</time>
      </trkpt>
      <trkpt lat="49.87545" lon="2.39825">
        <ele>56.9</ele>
        <time>2022-01-05T13:02:23Z</time>
      </trkpt>
      <trkpt lat="49.87544" lon="2.39827">
        <ele>56.8</ele>
        <time>2022-01-05T13:02:24Z</time>
      </trkpt>
      <trkpt lat="49.87544" lon="2.3983">
        <ele>56.7</ele>
        <time>2022-01-05T13:02:26Z</time>
      </trkpt>
      <trkpt lat="49.87542" lon="2.39833">
        <ele>56.6</ele>
        <time>2022-01-05T13:02:27Z</time>
      </trkpt>
      <trkpt lat="49.87541" lon="2.39835">
        <ele>56.6</ele>
        <time>2022-01-05T13:02:29Z</time>
      </trkpt>
      <trkpt lat="49.8754" lon="2.39837">
        <ele>56.5</ele>
        <time>2022-01-05T13:02:30Z</time>
      </trkpt>
      <trkpt lat="49.87539" lon="2.39838">
        <ele>56.5</ele>
        <time>2022-01-05T13:02:31Z</time>
      </trkpt>
      <trkpt lat="49.87537" lon="2.39841">
        <ele>56.4</ele>
        <time>2022-01-05T13:02:32Z</time>
      </trkpt>
      <trkpt lat="49.87536" lon="2.39841">
        <ele>56.4</ele>
        <time>2022-01-05T13:02:33Z</time>
      </trkpt>
      <trkpt lat="49.87535" lon="2.39844">
        <ele>56.3</ele>
        <time>2022-01-05T13:02:34Z</time>
      </trkpt>
      <trkpt lat="49.87534" lon="2.39845">
        <ele>56.3</ele>
        <time>2022-01-05T13:02:35Z</time>
      </trkpt>
      <trkpt lat="49.87534" lon="2.39846">
        <ele>56.2</ele>
        <time>2022-01-05T13:02:36Z</time>
      </trkpt>
      <trkpt lat="49.87533" lon="2.39848">
        <ele>56.2</ele>
        <time>2022-01-05T13:02:38Z</time>
      </trkpt>
      <trkpt lat="49.87533" lon="2.3985">
        <ele>56.1</ele>
        <time>2022-01-05T13:02:39Z</time>
      </trkpt>
      <trkpt lat="49.87531" lon="2.39854">
        <ele>56</ele>
        <time>2022-01-05T13:02:41Z</time>
      </trkpt>
      <trkpt lat="49.87531" lon="2.39856">
        <ele>56</ele>
        <time>2022-01-05T13:02:42Z</time>
      </trkpt>
      <trkpt lat="49.87531" lon="2.39859">
        <ele>56</ele>
        <time>2022-01-05T13:02:44Z</time>
      </trkpt>
      <trkpt lat="49.8753" lon="2.39861">
        <ele>55.9</ele>
        <time>2022-01-05T13:02:45Z</time>
      </trkpt>
      <trkpt lat="49.8753" lon="2.39863">
        <ele>55.9</ele>
        <time>2022-01-05T13:02:46Z</time>
      </trkpt>
      <trkpt lat="49.8753" lon="2.39864">
        <ele>55.8</ele>
        <time>2022-01-05T13:02:47Z</time>
      </trkpt>
      <trkpt lat="49.87529" lon="2.39868">
        <ele>55.8</ele>
        <time>2022-01-05T13:02:49Z</time>
      </trkpt>
      <trkpt lat="49.87528" lon="2.3987">
        <ele>55.7</ele>
        <time>2022-01-05T13:02:50Z</time>
      </trkpt>
      <trkpt lat="49.87528" lon="2.39872">
        <ele>55.7</ele>
        <time>2022-01-05T13:02:51Z</time>
      </trkpt>
      <trkpt lat="49.87527" lon="2.39875">
        <ele>55.7</ele>
        <time>2022-01-05T13:02:53Z</time>
      </trkpt>
      <trkpt lat="49.87527" lon="2.39877">
        <ele>55.6</ele>
        <time>2022-01-05T13:02:54Z</time>
      </trkpt>
      <trkpt lat="49.87526" lon="2.39882">
        <ele>55.5</ele>
        <time>2022-01-05T13:02:56Z</time>
      </trkpt>
      <trkpt lat="49.87526" lon="2.39883">
        <ele>55.5</ele>
        <time>2022-01-05T13:02:57Z</time>
      </trkpt>
      <trkpt lat="49.87526" lon="2.39885">
        <ele>55.5</ele>
        <time>2022-01-05T13:02:58Z</time>
      </trkpt>
      <trkpt lat="49.87525" lon="2.39888">
        <ele>55.4</ele>
        <time>2022-01-05T13:03:00Z</time>
      </trkpt>
      <trkpt lat="49.87525" lon="2.3989">
        <ele>55.4</ele>
        <time>2022-01-05T13:03:01Z</time>
      </trkpt>
      <trkpt lat="49.87525" lon="2.39892">
        <ele>55.4</ele>
        <time>2022-01-05T13:03:02Z</time>
      </trkpt>
      <trkpt lat="49.87524" lon="2.39894">
        <ele>55.3</ele>
        <time>2022-01-05T13:03:03Z</time>
      </trkpt>
      <trkpt lat="49.87524" lon="2.39897">
        <ele>55.3</ele>
        <time>2022-01-05T13:03:05Z</time>
      </trkpt>
      <trkpt lat="49.87523" lon="2.39899">
        <ele>55.3</ele>
        <time>2022-01-05T13:03:06Z</time>
      </trkpt>
      <trkpt lat="49.87523" lon="2.39901">
        <ele>55.2</ele>
        <time>2022-01-05T13:03:07Z</time>
      </trkpt>
      <trkpt lat="49.87522" lon="2.39904">
        <ele>55.2</ele>
        <time>2022-01-05T13:03:08Z</time>
      </trkpt>
      <trkpt lat="49.87522" lon="2.39905">
        <ele>55.2</ele>
        <time>2022-01-05T13:03:10Z</time>
      </trkpt>
      <trkpt lat="49.87521" lon="2.39906">
        <ele>55.2</ele>
        <time>2022-01-05T13:03:11Z</time>
      </trkpt>
      <trkpt lat="49.87521" lon="2.39909">
        <ele>55.1</ele>
        <time>2022-01-05T13:03:12Z</time>
      </trkpt>
      <trkpt lat="49.8752" lon="2.39911">
        <ele>55.1</ele>
        <time>2022-01-05T13:03:13Z</time>
      </trkpt>
      <trkpt lat="49.87519" lon="2.39913">
        <ele>55.1</ele>
        <time>2022-01-05T13:03:14Z</time>
      </trkpt>
      <trkpt lat="49.87519" lon="2.39917">
        <ele>55</ele>
        <time>2022-01-05T13:03:16Z</time>
      </trkpt>
      <trkpt lat="49.87518" lon="2.39923">
        <ele>54.9</ele>
        <time>2022-01-05T13:03:19Z</time>
      </trkpt>
      <trkpt lat="49.87518" lon="2.39925">
        <ele>54.9</ele>
        <time>2022-01-05T13:03:20Z</time>
      </trkpt>
      <trkpt lat="49.87517" lon="2.39927">
        <ele>54.9</ele>
        <time>2022-01-05T13:03:22Z</time>
      </trkpt>
      <trkpt lat="49.87517" lon="2.39929">
        <ele>54.9</ele>
        <time>2022-01-05T13:03:23Z</time>
      </trkpt>
      <trkpt lat="49.87517" lon="2.39931">
        <ele>54.8</ele>
        <time>2022-01-05T13:03:24Z</time>
      </trkpt>
      <trkpt lat="49.87517" lon="2.39933">
        <ele>54.8</ele>
        <time>2022-01-05T13:03:25Z</time>
      </trkpt>
      <trkpt lat="49.87517" lon="2.39935">
        <ele>54.8</ele>
        <time>2022-01-05T13:03:27Z</time>
      </trkpt>
      <trkpt lat="49.87516" lon="2.39939">
        <ele>54.7</ele>
        <time>2022-01-05T13:03:29Z</time>
      </trkpt>
      <trkpt lat="49.87515" lon="2.39941">
        <ele>54.7</ele>
        <time>2022-01-05T13:03:30Z</time>
      </trkpt>
      <trkpt lat="49.87515" lon="2.39945">
        <ele>54.6</ele>
        <time>2022-01-05T13:03:32Z</time>
      </trkpt>
      <trkpt lat="49.87515" lon="2.39947">
        <ele>54.6</ele>
        <time>2022-01-05T13:03:33Z</time>
      </trkpt>
      <trkpt lat="49.87515" lon="2.39949">
        <ele>54.6</ele>
        <time>2022-01-05T13:03:34Z</time>
      </trkpt>
      <trkpt lat="49.87515" lon="2.39951">
        <ele>54.6</ele>
        <time>2022-01-05T13:03:35Z</time>
      </trkpt>
      <trkpt lat="49.87514" lon="2.39955">
        <ele>54.5</ele>
        <time>2022-01-05T13:03:37Z</time>
      </trkpt>
      <trkpt lat="49.87514" lon="2.39959">
        <ele>54.5</ele>
        <time>2022-01-05T13:03:38Z</time>
      </trkpt>
      <trkpt lat="49.87513" lon="2.3996">
        <ele>54.5</ele>
        <time>2022-01-05T13:03:39Z</time>
      </trkpt>
      <trkpt lat="49.87513" lon="2.39962">
        <ele>54.4</ele>
        <time>2022-01-05T13:03:40Z</time>
      </trkpt>
      <trkpt lat="49.87513" lon="2.39966">
        <ele>54.4</ele>
        <time>2022-01-05T13:03:42Z</time>
      </trkpt>
      <trkpt lat="49.87512" lon="2.39968">
        <ele>54.4</ele>
        <time>2022-01-05T13:03:43Z</time>
      </trkpt>
      <trkpt lat="49.87512" lon="2.3997">
        <ele>54.4</ele>
        <time>2022-01-05T13:03:44Z</time>
      </trkpt>
      <trkpt lat="49.87512" lon="2.39972">
        <ele>54.3</ele>
        <time>2022-01-05T13:03:45Z</time>
      </trkpt>
      <trkpt lat="49.87512" lon="2.39975">
        <ele>54.3</ele>
        <time>2022-01-05T13:03:47Z</time>
      </trkpt>
      <trkpt lat="49.87511" lon="2.39978">
        <ele>54.3</ele>
        <time>2022-01-05T13:03:48Z</time>
      </trkpt>
      <trkpt lat="49.87511" lon="2.39981">
        <ele>54.3</ele>
        <time>2022-01-05T13:03:50Z</time>
      </trkpt>
      <trkpt lat="49.87511" lon="2.39985">
        <ele>54.2</ele>
        <time>2022-01-05T13:03:51Z</time>
      </trkpt>
      <trkpt lat="49.87511" lon="2.39987">
        <ele>54.2</ele>
        <time>2022-01-05T13:03:52Z</time>
      </trkpt>
      <trkpt lat="49.8751" lon="2.39989">
        <ele>54.1</ele>
        <time>2022-01-05T13:03:54Z</time>
      </trkpt>
      <trkpt lat="49.8751" lon="2.39992">
        <ele>54.1</ele>
        <time>2022-01-05T13:03:55Z</time>
      </trkpt>
      <trkpt lat="49.8751" lon="2.39997">
        <ele>54</ele>
        <time>2022-01-05T13:03:57Z</time>
      </trkpt>
      <trkpt lat="49.8751" lon="2.39998">
        <ele>54</ele>
        <time>2022-01-05T13:03:58Z</time>
      </trkpt>
      <trkpt lat="49.8751" lon="2.4">
        <ele>54</ele>
        <time>2022-01-05T13:03:59Z</time>
      </trkpt>
      <trkpt lat="49.87509" lon="2.40003">
        <ele>53.9</ele>
        <time>2022-01-05T13:04:00Z</time>
      </trkpt>
      <trkpt lat="49.87509" lon="2.40005">
        <ele>53.9</ele>
        <time>2022-01-05T13:04:01Z</time>
      </trkpt>
      <trkpt lat="49.87509" lon="2.40008">
        <ele>53.9</ele>
        <time>2022-01-05T13:04:03Z</time>
      </trkpt>
      <trkpt lat="49.87509" lon="2.40011">
        <ele>53.8</ele>
        <time>2022-01-05T13:04:05Z</time>
      </trkpt>
      <trkpt lat="49.87509" lon="2.40013">
        <ele>53.8</ele>
        <time>2022-01-05T13:04:06Z</time>
      </trkpt>
      <trkpt lat="49.87509" lon="2.40015">
        <ele>53.8</ele>
        <time>2022-01-05T13:04:07Z</time>
      </trkpt>
      <trkpt lat="49.87509" lon="2.40017">
        <ele>53.7</ele>
        <time>2022-01-05T13:04:08Z</time>
      </trkpt>
      <trkpt lat="49.87509" lon="2.4002">
        <ele>53.7</ele>
        <time>2022-01-05T13:04:10Z</time>
      </trkpt>
      <trkpt lat="49.87509" lon="2.40021">
        <ele>53.7</ele>
        <time>2022-01-05T13:04:11Z</time>
      </trkpt>
      <trkpt lat="49.87509" lon="2.40025">
        <ele>53.6</ele>
        <time>2022-01-05T13:04:13Z</time>
      </trkpt>
      <trkpt lat="49.87509" lon="2.40027">
        <ele>53.6</ele>
        <time>2022-01-05T13:04:14Z</time>
      </trkpt>
      <trkpt lat="49.87509" lon="2.40031">
        <ele>53.5</ele>
        <time>2022-01-05T13:04:16Z</time>
      </trkpt>
      <trkpt lat="49.87509" lon="2.40034">
        <ele>53.5</ele>
        <time>2022-01-05T13:04:17Z</time>
      </trkpt>
      <trkpt lat="49.87509" lon="2.40036">
        <ele>53.5</ele>
        <time>2022-01-05T13:04:18Z</time>
      </trkpt>
      <trkpt lat="49.87509" lon="2.40038">
        <ele>53.4</ele>
        <time>2022-01-05T13:04:19Z</time>
      </trkpt>
      <trkpt lat="49.87508" lon="2.40041">
        <ele>53.4</ele>
        <time>2022-01-05T13:04:20Z</time>
      </trkpt>
      <trkpt lat="49.87509" lon="2.40043">
        <ele>53.3</ele>
        <time>2022-01-05T13:04:21Z</time>
      </trkpt>
      <trkpt lat="49.87509" lon="2.40046">
        <ele>53.3</ele>
        <time>2022-01-05T13:04:22Z</time>
      </trkpt>
      <trkpt lat="49.87508" lon="2.40049">
        <ele>53.3</ele>
        <time>2022-01-05T13:04:24Z</time>
      </trkpt>
      <trkpt lat="49.87508" lon="2.40051">
        <ele>53.2</ele>
        <time>2022-01-05T13:04:25Z</time>
      </trkpt>
      <trkpt lat="49.87509" lon="2.40053">
        <ele>53.2</ele>
        <time>2022-01-05T13:04:26Z</time>
      </trkpt>
      <trkpt lat="49.87509" lon="2.40055">
        <ele>53.2</ele>
        <time>2022-01-05T13:04:28Z</time>
      </trkpt>
      <trkpt lat="49.87509" lon="2.40057">
        <ele>53.1</ele>
        <time>2022-01-05T13:04:29Z</time>
      </trkpt>
      <trkpt lat="49.87509" lon="2.4006">
        <ele>53.1</ele>
        <time>2022-01-05T13:04:30Z</time>
      </trkpt>
      <trkpt lat="49.87509" lon="2.40063">
        <ele>53</ele>
        <time>2022-01-05T13:04:32Z</time>
      </trkpt>
      <trkpt lat="49.87509" lon="2.40066">
        <ele>53</ele>
        <time>2022-01-05T13:04:33Z</time>
      </trkpt>
      <trkpt lat="49.87508" lon="2.40068">
        <ele>53</ele>
        <time>2022-01-05T13:04:34Z</time>
      </trkpt>
      <trkpt lat="49.87508" lon="2.4007">
        <ele>52.9</ele>
        <time>2022-01-05T13:04:35Z</time>
      </trkpt>
      <trkpt lat="49.87508" lon="2.40073">
        <ele>52.9</ele>
        <time>2022-01-05T13:04:36Z</time>
      </trkpt>
      <trkpt lat="49.87508" lon="2.40077">
        <ele>52.8</ele>
        <time>2022-01-05T13:04:38Z</time>
      </trkpt>
      <trkpt lat="49.87508" lon="2.40079">
        <ele>52.8</ele>
        <time>2022-01-05T13:04:39Z</time>
      </trkpt>
      <trkpt lat="49.87508" lon="2.40081">
        <ele>52.8</ele>
        <time>2022-01-05T13:04:40Z</time>
      </trkpt>
      <trkpt lat="49.87508" lon="2.40083">
        <ele>52.7</ele>
        <time>2022-01-05T13:04:41Z</time>
      </trkpt>
      <trkpt lat="49.87508" lon="2.40086">
        <ele>52.7</ele>
        <time>2022-01-05T13:04:43Z</time>
      </trkpt>
      <trkpt lat="49.87507" lon="2.40088">
        <ele>52.7</ele>
        <time>2022-01-05T13:04:44Z</time>
      </trkpt>
      <trkpt lat="49.87507" lon="2.4009">
        <ele>52.6</ele>
        <time>2022-01-05T13:04:45Z</time>
      </trkpt>
      <trkpt lat="49.87507" lon="2.40093">
        <ele>52.6</ele>
        <time>2022-01-05T13:04:46Z</time>
      </trkpt>
      <trkpt lat="49.87507" lon="2.40095">
        <ele>52.6</ele>
        <time>2022-01-05T13:04:47Z</time>
      </trkpt>
      <trkpt lat="49.87507" lon="2.40099">
        <ele>52.5</ele>
        <time>2022-01-05T13:04:49Z</time>
      </trkpt>
      <trkpt lat="49.87507" lon="2.40101">
        <ele>52.5</ele>
        <time>2022-01-05T13:04:51Z</time>
      </trkpt>
      <trkpt lat="49.87506" lon="2.40103">
        <ele>52.5</ele>
        <time>2022-01-05T13:04:52Z</time>
      </trkpt>
      <trkpt lat="49.87506" lon="2.40107">
        <ele>52.4</ele>
        <time>2022-01-05T13:04:53Z</time>
      </trkpt>
      <trkpt lat="49.87506" lon="2.40109">
        <ele>52.4</ele>
        <time>2022-01-05T13:04:55Z</time>
      </trkpt>
      <trkpt lat="49.87506" lon="2.40111">
        <ele>52.4</ele>
        <time>2022-01-05T13:04:56Z</time>
      </trkpt>
      <trkpt lat="49.87506" lon="2.40115">
        <ele>52.3</ele>
        <time>2022-01-05T13:04:58Z</time>
      </trkpt>
      <trkpt lat="49.87506" lon="2.40118">
        <ele>52.3</ele>
        <time>2022-01-05T13:04:59Z</time>
      </trkpt>
      <trkpt lat="49.87506" lon="2.4012">
        <ele>52.3</ele>
        <time>2022-01-05T13:05:01Z</time>
      </trkpt>
      <trkpt lat="49.87507" lon="2.40125">
        <ele>52.2</ele>
        <time>2022-01-05T13:05:03Z</time>
      </trkpt>
      <trkpt lat="49.87507" lon="2.40126">
        <ele>52.2</ele>
        <time>2022-01-05T13:05:04Z</time>
      </trkpt>
      <trkpt lat="49.87508" lon="2.40128">
        <ele>52.2</ele>
        <time>2022-01-05T13:05:05Z</time>
      </trkpt>
      <trkpt lat="49.87508" lon="2.40131">
        <ele>52.2</ele>
        <time>2022-01-05T13:05:06Z</time>
      </trkpt>
      <trkpt lat="49.87509" lon="2.40133">
        <ele>52.2</ele>
        <time>2022-01-05T13:05:07Z</time>
      </trkpt>
      <trkpt lat="49.8751" lon="2.40135">
        <ele>52.1</ele>
        <time>2022-01-05T13:05:09Z</time>
      </trkpt>
      <trkpt lat="49.8751" lon="2.40137">
        <ele>52.1</ele>
        <time>2022-01-05T13:05:10Z</time>
      </trkpt>
      <trkpt lat="49.8751" lon="2.4014">
        <ele>52.1</ele>
        <time>2022-01-05T13:05:11Z</time>
      </trkpt>
      <trkpt lat="49.87509" lon="2.40143">
        <ele>52</ele>
        <time>2022-01-05T13:05:12Z</time>
      </trkpt>
      <trkpt lat="49.87509" lon="2.40145">
        <ele>52</ele>
        <time>2022-01-05T13:05:14Z</time>
      </trkpt>
      <trkpt lat="49.87509" lon="2.40147">
        <ele>52</ele>
        <time>2022-01-05T13:05:15Z</time>
      </trkpt>
      <trkpt lat="49.87509" lon="2.40149">
        <ele>52</ele>
        <time>2022-01-05T13:05:16Z</time>
      </trkpt>
      <trkpt lat="49.87509" lon="2.40151">
        <ele>52</ele>
        <time>2022-01-05T13:05:17Z</time>
      </trkpt>
      <trkpt lat="49.87509" lon="2.40153">
        <ele>51.9</ele>
        <time>2022-01-05T13:05:19Z</time>
      </trkpt>
      <trkpt lat="49.87509" lon="2.40155">
        <ele>51.9</ele>
        <time>2022-01-05T13:05:20Z</time>
      </trkpt>
      <trkpt lat="49.8751" lon="2.40159">
        <ele>51.9</ele>
        <time>2022-01-05T13:05:22Z</time>
      </trkpt>
      <trkpt lat="49.87509" lon="2.40161">
        <ele>51.9</ele>
        <time>2022-01-05T13:05:23Z</time>
      </trkpt>
      <trkpt lat="49.87509" lon="2.40163">
        <ele>51.8</ele>
        <time>2022-01-05T13:05:24Z</time>
      </trkpt>
      <trkpt lat="49.87509" lon="2.40167">
        <ele>51.8</ele>
        <time>2022-01-05T13:05:26Z</time>
      </trkpt>
      <trkpt lat="49.87509" lon="2.40171">
        <ele>51.8</ele>
        <time>2022-01-05T13:05:28Z</time>
      </trkpt>
      <trkpt lat="49.87509" lon="2.40175">
        <ele>51.7</ele>
        <time>2022-01-05T13:05:30Z</time>
      </trkpt>
      <trkpt lat="49.87509" lon="2.40177">
        <ele>51.7</ele>
        <time>2022-01-05T13:05:31Z</time>
      </trkpt>
      <trkpt lat="49.87508" lon="2.40182">
        <ele>51.7</ele>
        <time>2022-01-05T13:05:33Z</time>
      </trkpt>
      <trkpt lat="49.87508" lon="2.40184">
        <ele>51.6</ele>
        <time>2022-01-05T13:05:34Z</time>
      </trkpt>
      <trkpt lat="49.87508" lon="2.40186">
        <ele>51.6</ele>
        <time>2022-01-05T13:05:35Z</time>
      </trkpt>
      <trkpt lat="49.87508" lon="2.40189">
        <ele>51.6</ele>
        <time>2022-01-05T13:05:37Z</time>
      </trkpt>
      <trkpt lat="49.87508" lon="2.40191">
        <ele>51.6</ele>
        <time>2022-01-05T13:05:38Z</time>
      </trkpt>
      <trkpt lat="49.87508" lon="2.40193">
        <ele>51.5</ele>
        <time>2022-01-05T13:05:39Z</time>
      </trkpt>
      <trkpt lat="49.87507" lon="2.40197">
        <ele>51.5</ele>
        <time>2022-01-05T13:05:41Z</time>
      </trkpt>
      <trkpt lat="49.87507" lon="2.402">
        <ele>51.5</ele>
        <time>2022-01-05T13:05:42Z</time>
      </trkpt>
      <trkpt lat="49.87507" lon="2.40204">
        <ele>51.5</ele>
        <time>2022-01-05T13:05:44Z</time>
      </trkpt>
      <trkpt lat="49.87507" lon="2.40205">
        <ele>51.4</ele>
        <time>2022-01-05T13:05:45Z</time>
      </trkpt>
      <trkpt lat="49.87507" lon="2.40207">
        <ele>51.4</ele>
        <time>2022-01-05T13:05:46Z</time>
      </trkpt>
      <trkpt lat="49.87507" lon="2.40209">
        <ele>51.4</ele>
        <time>2022-01-05T13:05:48Z</time>
      </trkpt>
      <trkpt lat="49.87507" lon="2.40211">
        <ele>51.4</ele>
        <time>2022-01-05T13:05:49Z</time>
      </trkpt>
      <trkpt lat="49.87506" lon="2.40214">
        <ele>51.4</ele>
        <time>2022-01-05T13:05:50Z</time>
      </trkpt>
      <trkpt lat="49.87506" lon="2.40219">
        <ele>51.4</ele>
        <time>2022-01-05T13:05:52Z</time>
      </trkpt>
      <trkpt lat="49.87506" lon="2.4022">
        <ele>51.4</ele>
        <time>2022-01-05T13:05:53Z</time>
      </trkpt>
      <trkpt lat="49.87505" lon="2.40224">
        <ele>51.3</ele>
        <time>2022-01-05T13:05:55Z</time>
      </trkpt>
      <trkpt lat="49.87505" lon="2.40226">
        <ele>51.3</ele>
        <time>2022-01-05T13:05:57Z</time>
      </trkpt>
      <trkpt lat="49.87505" lon="2.40228">
        <ele>51.3</ele>
        <time>2022-01-05T13:05:58Z</time>
      </trkpt>
      <trkpt lat="49.87504" lon="2.4023">
        <ele>51.3</ele>
        <time>2022-01-05T13:05:59Z</time>
      </trkpt>
      <trkpt lat="49.87504" lon="2.40235">
        <ele>51.3</ele>
        <time>2022-01-05T13:06:01Z</time>
      </trkpt>
      <trkpt lat="49.87504" lon="2.40236">
        <ele>51.3</ele>
        <time>2022-01-05T13:06:02Z</time>
      </trkpt>
      <trkpt lat="49.87504" lon="2.40238">
        <ele>51.3</ele>
        <time>2022-01-05T13:06:03Z</time>
      </trkpt>
      <trkpt lat="49.87503" lon="2.40241">
        <ele>51.3</ele>
        <time>2022-01-05T13:06:05Z</time>
      </trkpt>
      <trkpt lat="49.87503" lon="2.40245">
        <ele>51.3</ele>
        <time>2022-01-05T13:06:07Z</time>
      </trkpt>
      <trkpt lat="49.87503" lon="2.40246">
        <ele>51.3</ele>
        <time>2022-01-05T13:06:08Z</time>
      </trkpt>
      <trkpt lat="49.87502" lon="2.40249">
        <ele>51.2</ele>
        <time>2022-01-05T13:06:10Z</time>
      </trkpt>
      <trkpt lat="49.87502" lon="2.40251">
        <ele>51.2</ele>
        <time>2022-01-05T13:06:11Z</time>
      </trkpt>
      <trkpt lat="49.87502" lon="2.40253">
        <ele>51.2</ele>
        <time>2022-01-05T13:06:12Z</time>
      </trkpt>
      <trkpt lat="49.87502" lon="2.40256">
        <ele>51.2</ele>
        <time>2022-01-05T13:06:14Z</time>
      </trkpt>
      <trkpt lat="49.87501" lon="2.40258">
        <ele>51.2</ele>
        <time>2022-01-05T13:06:15Z</time>
      </trkpt>
      <trkpt lat="49.87501" lon="2.40261">
        <ele>51.2</ele>
        <time>2022-01-05T13:06:17Z</time>
      </trkpt>
      <trkpt lat="49.87501" lon="2.40263">
        <ele>51.2</ele>
        <time>2022-01-05T13:06:18Z</time>
      </trkpt>
      <trkpt lat="49.87501" lon="2.40265">
        <ele>51.2</ele>
        <time>2022-01-05T13:06:19Z</time>
      </trkpt>
      <trkpt lat="49.875" lon="2.40268">
        <ele>51.2</ele>
        <time>2022-01-05T13:06:20Z</time>
      </trkpt>
      <trkpt lat="49.875" lon="2.40269">
        <ele>51.2</ele>
        <time>2022-01-05T13:06:21Z</time>
      </trkpt>
      <trkpt lat="49.875" lon="2.4027">
        <ele>51.2</ele>
        <time>2022-01-05T13:06:22Z</time>
      </trkpt>
      <trkpt lat="49.875" lon="2.40271">
        <ele>51.2</ele>
        <time>2022-01-05T13:06:23Z</time>
      </trkpt>
      <trkpt lat="49.875" lon="2.40276">
        <ele>51.2</ele>
        <time>2022-01-05T13:06:25Z</time>
      </trkpt>
      <trkpt lat="49.875" lon="2.40277">
        <ele>51.2</ele>
        <time>2022-01-05T13:06:26Z</time>
      </trkpt>
      <trkpt lat="49.875" lon="2.40281">
        <ele>51.1</ele>
        <time>2022-01-05T13:06:28Z</time>
      </trkpt>
      <trkpt lat="49.875" lon="2.40284">
        <ele>51.1</ele>
        <time>2022-01-05T13:06:30Z</time>
      </trkpt>
      <trkpt lat="49.875" lon="2.40286">
        <ele>51.1</ele>
        <time>2022-01-05T13:06:31Z</time>
      </trkpt>
      <trkpt lat="49.875" lon="2.40288">
        <ele>51.1</ele>
        <time>2022-01-05T13:06:32Z</time>
      </trkpt>
      <trkpt lat="49.875" lon="2.40293">
        <ele>51.1</ele>
        <time>2022-01-05T13:06:34Z</time>
      </trkpt>
      <trkpt lat="49.875" lon="2.40294">
        <ele>51.1</ele>
        <time>2022-01-05T13:06:35Z</time>
      </trkpt>
      <trkpt lat="49.875" lon="2.40296">
        <ele>51.1</ele>
        <time>2022-01-05T13:06:36Z</time>
      </trkpt>
      <trkpt lat="49.875" lon="2.40299">
        <ele>51.1</ele>
        <time>2022-01-05T13:06:37Z</time>
      </trkpt>
      <trkpt lat="49.87501" lon="2.40302">
        <ele>51.1</ele>
        <time>2022-01-05T13:06:39Z</time>
      </trkpt>
      <trkpt lat="49.87501" lon="2.40304">
        <ele>51.1</ele>
        <time>2022-01-05T13:06:40Z</time>
      </trkpt>
      <trkpt lat="49.87501" lon="2.40309">
        <ele>51.1</ele>
        <time>2022-01-05T13:06:42Z</time>
      </trkpt>
      <trkpt lat="49.87501" lon="2.4031">
        <ele>51.1</ele>
        <time>2022-01-05T13:06:43Z</time>
      </trkpt>
      <trkpt lat="49.87501" lon="2.40315">
        <ele>51.1</ele>
        <time>2022-01-05T13:06:45Z</time>
      </trkpt>
      <trkpt lat="49.87501" lon="2.40316">
        <ele>51.1</ele>
        <time>2022-01-05T13:06:46Z</time>
      </trkpt>
      <trkpt lat="49.87501" lon="2.40317">
        <ele>51.1</ele>
        <time>2022-01-05T13:06:47Z</time>
      </trkpt>
      <trkpt lat="49.87501" lon="2.4032">
        <ele>51.1</ele>
        <time>2022-01-05T13:06:48Z</time>
      </trkpt>
      <trkpt lat="49.87501" lon="2.40323">
        <ele>51.1</ele>
        <time>2022-01-05T13:06:50Z</time>
      </trkpt>
      <trkpt lat="49.87501" lon="2.40325">
        <ele>51.1</ele>
        <time>2022-01-05T13:06:51Z</time>
      </trkpt>
      <trkpt lat="49.87501" lon="2.40328">
        <ele>51.1</ele>
        <time>2022-01-05T13:06:52Z</time>
      </trkpt>
      <trkpt lat="49.87502" lon="2.4033">
        <ele>51.1</ele>
        <time>2022-01-05T13:06:53Z</time>
      </trkpt>
      <trkpt lat="49.87502" lon="2.40331">
        <ele>51.1</ele>
        <time>2022-01-05T13:06:54Z</time>
      </trkpt>
      <trkpt lat="49.87502" lon="2.40334">
        <ele>51.1</ele>
        <time>2022-01-05T13:06:56Z</time>
      </trkpt>
      <trkpt lat="49.87503" lon="2.40337">
        <ele>51.1</ele>
        <time>2022-01-05T13:06:57Z</time>
      </trkpt>
      <trkpt lat="49.87503" lon="2.4034">
        <ele>51.1</ele>
        <time>2022-01-05T13:06:59Z</time>
      </trkpt>
      <trkpt lat="49.87504" lon="2.40344">
        <ele>51.1</ele>
        <time>2022-01-05T13:07:00Z</time>
      </trkpt>
      <trkpt lat="49.87504" lon="2.40346">
        <ele>51.2</ele>
        <time>2022-01-05T13:07:01Z</time>
      </trkpt>
      <trkpt lat="49.87504" lon="2.40347">
        <ele>51.2</ele>
        <time>2022-01-05T13:07:04Z</time>
      </trkpt>
      <trkpt lat="49.87505" lon="2.40349">
        <ele>51.2</ele>
        <time>2022-01-05T13:07:05Z</time>
      </trkpt>
      <trkpt lat="49.87505" lon="2.40351">
        <ele>51.2</ele>
        <time>2022-01-05T13:07:06Z</time>
      </trkpt>
      <trkpt lat="49.87505" lon="2.40353">
        <ele>51.2</ele>
        <time>2022-01-05T13:07:07Z</time>
      </trkpt>
      <trkpt lat="49.87505" lon="2.40355">
        <ele>51.2</ele>
        <time>2022-01-05T13:07:08Z</time>
      </trkpt>
      <trkpt lat="49.87505" lon="2.40357">
        <ele>51.2</ele>
        <time>2022-01-05T13:07:09Z</time>
      </trkpt>
      <trkpt lat="49.87506" lon="2.40359">
        <ele>51.2</ele>
        <time>2022-01-05T13:07:10Z</time>
      </trkpt>
      <trkpt lat="49.87506" lon="2.40362">
        <ele>51.2</ele>
        <time>2022-01-05T13:07:12Z</time>
      </trkpt>
      <trkpt lat="49.87507" lon="2.40364">
        <ele>51.2</ele>
        <time>2022-01-05T13:07:13Z</time>
      </trkpt>
      <trkpt lat="49.87507" lon="2.40368">
        <ele>51.3</ele>
        <time>2022-01-05T13:07:15Z</time>
      </trkpt>
      <trkpt lat="49.87508" lon="2.4037">
        <ele>51.3</ele>
        <time>2022-01-05T13:07:16Z</time>
      </trkpt>
      <trkpt lat="49.87508" lon="2.40372">
        <ele>51.3</ele>
        <time>2022-01-05T13:07:17Z</time>
      </trkpt>
      <trkpt lat="49.87508" lon="2.40374">
        <ele>51.3</ele>
        <time>2022-01-05T13:07:18Z</time>
      </trkpt>
      <trkpt lat="49.87509" lon="2.40377">
        <ele>51.4</ele>
        <time>2022-01-05T13:07:20Z</time>
      </trkpt>
      <trkpt lat="49.87509" lon="2.4038">
        <ele>51.4</ele>
        <time>2022-01-05T13:07:21Z</time>
      </trkpt>
      <trkpt lat="49.87509" lon="2.40382">
        <ele>51.5</ele>
        <time>2022-01-05T13:07:22Z</time>
      </trkpt>
      <trkpt lat="49.8751" lon="2.40386">
        <ele>51.5</ele>
        <time>2022-01-05T13:07:24Z</time>
      </trkpt>
      <trkpt lat="49.8751" lon="2.40387">
        <ele>51.6</ele>
        <time>2022-01-05T13:07:25Z</time>
      </trkpt>
      <trkpt lat="49.8751" lon="2.4039">
        <ele>51.6</ele>
        <time>2022-01-05T13:07:26Z</time>
      </trkpt>
      <trkpt lat="49.87511" lon="2.40392">
        <ele>51.7</ele>
        <time>2022-01-05T13:07:27Z</time>
      </trkpt>
      <trkpt lat="49.87511" lon="2.40394">
        <ele>51.7</ele>
        <time>2022-01-05T13:07:28Z</time>
      </trkpt>
      <trkpt lat="49.87511" lon="2.40396">
        <ele>51.8</ele>
        <time>2022-01-05T13:07:29Z</time>
      </trkpt>
      <trkpt lat="49.87512" lon="2.40399">
        <ele>51.8</ele>
        <time>2022-01-05T13:07:31Z</time>
      </trkpt>
      <trkpt lat="49.87512" lon="2.404">
        <ele>51.9</ele>
        <time>2022-01-05T13:07:32Z</time>
      </trkpt>
      <trkpt lat="49.87513" lon="2.40402">
        <ele>51.9</ele>
        <time>2022-01-05T13:07:33Z</time>
      </trkpt>
      <trkpt lat="49.87513" lon="2.40403">
        <ele>51.9</ele>
        <time>2022-01-05T13:07:34Z</time>
      </trkpt>
      <trkpt lat="49.87514" lon="2.40406">
        <ele>52</ele>
        <time>2022-01-05T13:07:35Z</time>
      </trkpt>
      <trkpt lat="49.87514" lon="2.40407">
        <ele>52</ele>
        <time>2022-01-05T13:07:36Z</time>
      </trkpt>
      <trkpt lat="49.87514" lon="2.40409">
        <ele>52.1</ele>
        <time>2022-01-05T13:07:38Z</time>
      </trkpt>
      <trkpt lat="49.87515" lon="2.40411">
        <ele>52.1</ele>
        <time>2022-01-05T13:07:39Z</time>
      </trkpt>
      <trkpt lat="49.87516" lon="2.40414">
        <ele>52.2</ele>
        <time>2022-01-05T13:07:40Z</time>
      </trkpt>
      <trkpt lat="49.87516" lon="2.40415">
        <ele>52.2</ele>
        <time>2022-01-05T13:07:41Z</time>
      </trkpt>
      <trkpt lat="49.87516" lon="2.40416">
        <ele>52.3</ele>
        <time>2022-01-05T13:07:42Z</time>
      </trkpt>
      <trkpt lat="49.87517" lon="2.40419">
        <ele>52.4</ele>
        <time>2022-01-05T13:07:43Z</time>
      </trkpt>
      <trkpt lat="49.87518" lon="2.40421">
        <ele>52.4</ele>
        <time>2022-01-05T13:07:44Z</time>
      </trkpt>
      <trkpt lat="49.87518" lon="2.40423">
        <ele>52.5</ele>
        <time>2022-01-05T13:07:46Z</time>
      </trkpt>
      <trkpt lat="49.87519" lon="2.40425">
        <ele>52.5</ele>
        <time>2022-01-05T13:07:47Z</time>
      </trkpt>
      <trkpt lat="49.8752" lon="2.40428">
        <ele>52.6</ele>
        <time>2022-01-05T13:07:48Z</time>
      </trkpt>
      <trkpt lat="49.87521" lon="2.40432">
        <ele>52.7</ele>
        <time>2022-01-05T13:07:50Z</time>
      </trkpt>
      <trkpt lat="49.87522" lon="2.40434">
        <ele>52.8</ele>
        <time>2022-01-05T13:07:51Z</time>
      </trkpt>
      <trkpt lat="49.87522" lon="2.40437">
        <ele>52.9</ele>
        <time>2022-01-05T13:07:52Z</time>
      </trkpt>
      <trkpt lat="49.87522" lon="2.40439">
        <ele>52.9</ele>
        <time>2022-01-05T13:07:54Z</time>
      </trkpt>
      <trkpt lat="49.87523" lon="2.40442">
        <ele>53</ele>
        <time>2022-01-05T13:07:55Z</time>
      </trkpt>
      <trkpt lat="49.87523" lon="2.40444">
        <ele>53.1</ele>
        <time>2022-01-05T13:07:56Z</time>
      </trkpt>
      <trkpt lat="49.87524" lon="2.40446">
        <ele>53.1</ele>
        <time>2022-01-05T13:07:57Z</time>
      </trkpt>
      <trkpt lat="49.87524" lon="2.40449">
        <ele>53.2</ele>
        <time>2022-01-05T13:07:58Z</time>
      </trkpt>
      <trkpt lat="49.87525" lon="2.40451">
        <ele>53.3</ele>
        <time>2022-01-05T13:07:59Z</time>
      </trkpt>
      <trkpt lat="49.87525" lon="2.40453">
        <ele>53.3</ele>
        <time>2022-01-05T13:08:00Z</time>
      </trkpt>
      <trkpt lat="49.87526" lon="2.40455">
        <ele>53.4</ele>
        <time>2022-01-05T13:08:01Z</time>
      </trkpt>
      <trkpt lat="49.87526" lon="2.40458">
        <ele>53.5</ele>
        <time>2022-01-05T13:08:02Z</time>
      </trkpt>
      <trkpt lat="49.87527" lon="2.40459">
        <ele>53.5</ele>
        <time>2022-01-05T13:08:03Z</time>
      </trkpt>
      <trkpt lat="49.87527" lon="2.40461">
        <ele>53.5</ele>
        <time>2022-01-05T13:08:04Z</time>
      </trkpt>
      <trkpt lat="49.87528" lon="2.40463">
        <ele>53.6</ele>
        <time>2022-01-05T13:08:06Z</time>
      </trkpt>
      <trkpt lat="49.87528" lon="2.40466">
        <ele>53.6</ele>
        <time>2022-01-05T13:08:07Z</time>
      </trkpt>
      <trkpt lat="49.87529" lon="2.40469">
        <ele>53.7</ele>
        <time>2022-01-05T13:08:08Z</time>
      </trkpt>
      <trkpt lat="49.87529" lon="2.40471">
        <ele>53.8</ele>
        <time>2022-01-05T13:08:09Z</time>
      </trkpt>
      <trkpt lat="49.87529" lon="2.40472">
        <ele>53.8</ele>
        <time>2022-01-05T13:08:10Z</time>
      </trkpt>
      <trkpt lat="49.8753" lon="2.40474">
        <ele>53.8</ele>
        <time>2022-01-05T13:08:11Z</time>
      </trkpt>
      <trkpt lat="49.8753" lon="2.40476">
        <ele>53.9</ele>
        <time>2022-01-05T13:08:12Z</time>
      </trkpt>
      <trkpt lat="49.87531" lon="2.4048">
        <ele>54</ele>
        <time>2022-01-05T13:08:13Z</time>
      </trkpt>
      <trkpt lat="49.87531" lon="2.40481">
        <ele>54</ele>
        <time>2022-01-05T13:08:15Z</time>
      </trkpt>
      <trkpt lat="49.87531" lon="2.40482">
        <ele>54</ele>
        <time>2022-01-05T13:08:16Z</time>
      </trkpt>
      <trkpt lat="49.87531" lon="2.40486">
        <ele>54.1</ele>
        <time>2022-01-05T13:08:17Z</time>
      </trkpt>
      <trkpt lat="49.87531" lon="2.40487">
        <ele>54.1</ele>
        <time>2022-01-05T13:08:18Z</time>
      </trkpt>
      <trkpt lat="49.87532" lon="2.40488">
        <ele>54.1</ele>
        <time>2022-01-05T13:08:19Z</time>
      </trkpt>
      <trkpt lat="49.87532" lon="2.40492">
        <ele>54.2</ele>
        <time>2022-01-05T13:08:20Z</time>
      </trkpt>
      <trkpt lat="49.87533" lon="2.40494">
        <ele>54.2</ele>
        <time>2022-01-05T13:08:22Z</time>
      </trkpt>
      <trkpt lat="49.87533" lon="2.40496">
        <ele>54.3</ele>
        <time>2022-01-05T13:08:24Z</time>
      </trkpt>
      <trkpt lat="49.87533" lon="2.40498">
        <ele>54.3</ele>
        <time>2022-01-05T13:08:25Z</time>
      </trkpt>
      <trkpt lat="49.87534" lon="2.40501">
        <ele>54.3</ele>
        <time>2022-01-05T13:08:27Z</time>
      </trkpt>
      <trkpt lat="49.87534" lon="2.40503">
        <ele>54.4</ele>
        <time>2022-01-05T13:08:28Z</time>
      </trkpt>
      <trkpt lat="49.87535" lon="2.40505">
        <ele>54.4</ele>
        <time>2022-01-05T13:08:29Z</time>
      </trkpt>
      <trkpt lat="49.87536" lon="2.40507">
        <ele>54.4</ele>
        <time>2022-01-05T13:08:30Z</time>
      </trkpt>
      <trkpt lat="49.87536" lon="2.40509">
        <ele>54.5</ele>
        <time>2022-01-05T13:08:31Z</time>
      </trkpt>
      <trkpt lat="49.87537" lon="2.40511">
        <ele>54.5</ele>
        <time>2022-01-05T13:08:32Z</time>
      </trkpt>
      <trkpt lat="49.87537" lon="2.40513">
        <ele>54.5</ele>
        <time>2022-01-05T13:08:34Z</time>
      </trkpt>
      <trkpt lat="49.87538" lon="2.40515">
        <ele>54.5</ele>
        <time>2022-01-05T13:08:35Z</time>
      </trkpt>
      <trkpt lat="49.87538" lon="2.40517">
        <ele>54.6</ele>
        <time>2022-01-05T13:08:36Z</time>
      </trkpt>
      <trkpt lat="49.87539" lon="2.4052">
        <ele>54.6</ele>
        <time>2022-01-05T13:08:38Z</time>
      </trkpt>
      <trkpt lat="49.8754" lon="2.40522">
        <ele>54.6</ele>
        <time>2022-01-05T13:08:39Z</time>
      </trkpt>
      <trkpt lat="49.87541" lon="2.40525">
        <ele>54.6</ele>
        <time>2022-01-05T13:08:41Z</time>
      </trkpt>
      <trkpt lat="49.87542" lon="2.40528">
        <ele>54.7</ele>
        <time>2022-01-05T13:08:42Z</time>
      </trkpt>
      <trkpt lat="49.87542" lon="2.4053">
        <ele>54.7</ele>
        <time>2022-01-05T13:08:43Z</time>
      </trkpt>
      <trkpt lat="49.87543" lon="2.40532">
        <ele>54.7</ele>
        <time>2022-01-05T13:08:45Z</time>
      </trkpt>
      <trkpt lat="49.87543" lon="2.40534">
        <ele>54.7</ele>
        <time>2022-01-05T13:08:46Z</time>
      </trkpt>
      <trkpt lat="49.87544" lon="2.40536">
        <ele>54.7</ele>
        <time>2022-01-05T13:08:47Z</time>
      </trkpt>
      <trkpt lat="49.87544" lon="2.40539">
        <ele>54.7</ele>
        <time>2022-01-05T13:08:48Z</time>
      </trkpt>
      <trkpt lat="49.87545" lon="2.40541">
        <ele>54.7</ele>
        <time>2022-01-05T13:08:50Z</time>
      </trkpt>
      <trkpt lat="49.87545" lon="2.40543">
        <ele>54.7</ele>
        <time>2022-01-05T13:08:51Z</time>
      </trkpt>
      <trkpt lat="49.87546" lon="2.40546">
        <ele>54.7</ele>
        <time>2022-01-05T13:08:53Z</time>
      </trkpt>
      <trkpt lat="49.87546" lon="2.40549">
        <ele>54.7</ele>
        <time>2022-01-05T13:08:54Z</time>
      </trkpt>
      <trkpt lat="49.87546" lon="2.4055">
        <ele>54.7</ele>
        <time>2022-01-05T13:08:55Z</time>
      </trkpt>
      <trkpt lat="49.87547" lon="2.40552">
        <ele>54.7</ele>
        <time>2022-01-05T13:08:56Z</time>
      </trkpt>
      <trkpt lat="49.87547" lon="2.40553">
        <ele>54.7</ele>
        <time>2022-01-05T13:08:57Z</time>
      </trkpt>
      <trkpt lat="49.87548" lon="2.40557">
        <ele>54.7</ele>
        <time>2022-01-05T13:08:59Z</time>
      </trkpt>
      <trkpt lat="49.87548" lon="2.40559">
        <ele>54.7</ele>
        <time>2022-01-05T13:09:00Z</time>
      </trkpt>
      <trkpt lat="49.87549" lon="2.40561">
        <ele>54.6</ele>
        <time>2022-01-05T13:09:01Z</time>
      </trkpt>
      <trkpt lat="49.8755" lon="2.40566">
        <ele>54.6</ele>
        <time>2022-01-05T13:09:03Z</time>
      </trkpt>
      <trkpt lat="49.8755" lon="2.40567">
        <ele>54.6</ele>
        <time>2022-01-05T13:09:04Z</time>
      </trkpt>
      <trkpt lat="49.8755" lon="2.40569">
        <ele>54.6</ele>
        <time>2022-01-05T13:09:05Z</time>
      </trkpt>
      <trkpt lat="49.87551" lon="2.40572">
        <ele>54.6</ele>
        <time>2022-01-05T13:09:07Z</time>
      </trkpt>
      <trkpt lat="49.87551" lon="2.40574">
        <ele>54.6</ele>
        <time>2022-01-05T13:09:08Z</time>
      </trkpt>
      <trkpt lat="49.87551" lon="2.40576">
        <ele>54.6</ele>
        <time>2022-01-05T13:09:09Z</time>
      </trkpt>
      <trkpt lat="49.8755" lon="2.40578">
        <ele>54.5</ele>
        <time>2022-01-05T13:09:11Z</time>
      </trkpt>
      <trkpt lat="49.8755" lon="2.4058">
        <ele>54.5</ele>
        <time>2022-01-05T13:09:12Z</time>
      </trkpt>
      <trkpt lat="49.8755" lon="2.40581">
        <ele>54.5</ele>
        <time>2022-01-05T13:09:13Z</time>
      </trkpt>
      <trkpt lat="49.8755" lon="2.40585">
        <ele>54.5</ele>
        <time>2022-01-05T13:09:14Z</time>
      </trkpt>
      <trkpt lat="49.8755" lon="2.40586">
        <ele>54.5</ele>
        <time>2022-01-05T13:09:15Z</time>
      </trkpt>
      <trkpt lat="49.8755" lon="2.40588">
        <ele>54.5</ele>
        <time>2022-01-05T13:09:16Z</time>
      </trkpt>
      <trkpt lat="49.8755" lon="2.40591">
        <ele>54.5</ele>
        <time>2022-01-05T13:09:17Z</time>
      </trkpt>
      <trkpt lat="49.8755" lon="2.40592">
        <ele>54.5</ele>
        <time>2022-01-05T13:09:18Z</time>
      </trkpt>
      <trkpt lat="49.8755" lon="2.40593">
        <ele>54.5</ele>
        <time>2022-01-05T13:09:19Z</time>
      </trkpt>
      <trkpt lat="49.8755" lon="2.40596">
        <ele>54.4</ele>
        <time>2022-01-05T13:09:21Z</time>
      </trkpt>
      <trkpt lat="49.8755" lon="2.40598">
        <ele>54.4</ele>
        <time>2022-01-05T13:09:22Z</time>
      </trkpt>
      <trkpt lat="49.8755" lon="2.40599">
        <ele>54.4</ele>
        <time>2022-01-05T13:09:23Z</time>
      </trkpt>
      <trkpt lat="49.87551" lon="2.40602">
        <ele>54.4</ele>
        <time>2022-01-05T13:09:24Z</time>
      </trkpt>
      <trkpt lat="49.87551" lon="2.40603">
        <ele>54.4</ele>
        <time>2022-01-05T13:09:26Z</time>
      </trkpt>
      <trkpt lat="49.87551" lon="2.40605">
        <ele>54.4</ele>
        <time>2022-01-05T13:09:27Z</time>
      </trkpt>
      <trkpt lat="49.87551" lon="2.40606">
        <ele>54.4</ele>
        <time>2022-01-05T13:09:28Z</time>
      </trkpt>
      <trkpt lat="49.87552" lon="2.40608">
        <ele>54.4</ele>
        <time>2022-01-05T13:09:29Z</time>
      </trkpt>
      <trkpt lat="49.87553" lon="2.40612">
        <ele>54.3</ele>
        <time>2022-01-05T13:09:31Z</time>
      </trkpt>
      <trkpt lat="49.87554" lon="2.40616">
        <ele>54.3</ele>
        <time>2022-01-05T13:09:33Z</time>
      </trkpt>
      <trkpt lat="49.87555" lon="2.40618">
        <ele>54.3</ele>
        <time>2022-01-05T13:09:34Z</time>
      </trkpt>
      <trkpt lat="49.87555" lon="2.40622">
        <ele>54.2</ele>
        <time>2022-01-05T13:09:36Z</time>
      </trkpt>
      <trkpt lat="49.87556" lon="2.40623">
        <ele>54.2</ele>
        <time>2022-01-05T13:09:37Z</time>
      </trkpt>
      <trkpt lat="49.87556" lon="2.40625">
        <ele>54.2</ele>
        <time>2022-01-05T13:09:38Z</time>
      </trkpt>
      <trkpt lat="49.87556" lon="2.40628">
        <ele>54.2</ele>
        <time>2022-01-05T13:09:40Z</time>
      </trkpt>
      <trkpt lat="49.87557" lon="2.4063">
        <ele>54.1</ele>
        <time>2022-01-05T13:09:41Z</time>
      </trkpt>
      <trkpt lat="49.87557" lon="2.40632">
        <ele>54.1</ele>
        <time>2022-01-05T13:09:42Z</time>
      </trkpt>
      <trkpt lat="49.87558" lon="2.40635">
        <ele>54.1</ele>
        <time>2022-01-05T13:09:43Z</time>
      </trkpt>
      <trkpt lat="49.87558" lon="2.40637">
        <ele>54.1</ele>
        <time>2022-01-05T13:09:44Z</time>
      </trkpt>
      <trkpt lat="49.87558" lon="2.40639">
        <ele>54.1</ele>
        <time>2022-01-05T13:09:45Z</time>
      </trkpt>
      <trkpt lat="49.87559" lon="2.40642">
        <ele>54</ele>
        <time>2022-01-05T13:09:47Z</time>
      </trkpt>
      <trkpt lat="49.87559" lon="2.40644">
        <ele>54</ele>
        <time>2022-01-05T13:09:48Z</time>
      </trkpt>
      <trkpt lat="49.8756" lon="2.40647">
        <ele>54</ele>
        <time>2022-01-05T13:09:50Z</time>
      </trkpt>
      <trkpt lat="49.8756" lon="2.40649">
        <ele>54</ele>
        <time>2022-01-05T13:09:51Z</time>
      </trkpt>
      <trkpt lat="49.8756" lon="2.40651">
        <ele>53.9</ele>
        <time>2022-01-05T13:09:52Z</time>
      </trkpt>
      <trkpt lat="49.8756" lon="2.40655">
        <ele>53.9</ele>
        <time>2022-01-05T13:09:54Z</time>
      </trkpt>
      <trkpt lat="49.87561" lon="2.40658">
        <ele>53.9</ele>
        <time>2022-01-05T13:09:55Z</time>
      </trkpt>
      <trkpt lat="49.87561" lon="2.40659">
        <ele>53.9</ele>
        <time>2022-01-05T13:09:56Z</time>
      </trkpt>
      <trkpt lat="49.87561" lon="2.40661">
        <ele>53.8</ele>
        <time>2022-01-05T13:09:57Z</time>
      </trkpt>
      <trkpt lat="49.87561" lon="2.40663">
        <ele>53.8</ele>
        <time>2022-01-05T13:09:58Z</time>
      </trkpt>
      <trkpt lat="49.87562" lon="2.40666">
        <ele>53.8</ele>
        <time>2022-01-05T13:10:00Z</time>
      </trkpt>
      <trkpt lat="49.87562" lon="2.40669">
        <ele>53.7</ele>
        <time>2022-01-05T13:10:01Z</time>
      </trkpt>
      <trkpt lat="49.87563" lon="2.40671">
        <ele>53.7</ele>
        <time>2022-01-05T13:10:02Z</time>
      </trkpt>
      <trkpt lat="49.87563" lon="2.40674">
        <ele>53.7</ele>
        <time>2022-01-05T13:10:03Z</time>
      </trkpt>
      <trkpt lat="49.87563" lon="2.40675">
        <ele>53.7</ele>
        <time>2022-01-05T13:10:04Z</time>
      </trkpt>
      <trkpt lat="49.87563" lon="2.40677">
        <ele>53.6</ele>
        <time>2022-01-05T13:10:05Z</time>
      </trkpt>
      <trkpt lat="49.87563" lon="2.40679">
        <ele>53.6</ele>
        <time>2022-01-05T13:10:06Z</time>
      </trkpt>
      <trkpt lat="49.87563" lon="2.40681">
        <ele>53.6</ele>
        <time>2022-01-05T13:10:07Z</time>
      </trkpt>
      <trkpt lat="49.87563" lon="2.40683">
        <ele>53.6</ele>
        <time>2022-01-05T13:10:08Z</time>
      </trkpt>
      <trkpt lat="49.87563" lon="2.40686">
        <ele>53.5</ele>
        <time>2022-01-05T13:10:10Z</time>
      </trkpt>
      <trkpt lat="49.87563" lon="2.40689">
        <ele>53.5</ele>
        <time>2022-01-05T13:10:11Z</time>
      </trkpt>
      <trkpt lat="49.87563" lon="2.40691">
        <ele>53.4</ele>
        <time>2022-01-05T13:10:12Z</time>
      </trkpt>
      <trkpt lat="49.87563" lon="2.40693">
        <ele>53.4</ele>
        <time>2022-01-05T13:10:14Z</time>
      </trkpt>
      <trkpt lat="49.87563" lon="2.40696">
        <ele>53.4</ele>
        <time>2022-01-05T13:10:15Z</time>
      </trkpt>
      <trkpt lat="49.87563" lon="2.40698">
        <ele>53.4</ele>
        <time>2022-01-05T13:10:16Z</time>
      </trkpt>
      <trkpt lat="49.87563" lon="2.40702">
        <ele>53.3</ele>
        <time>2022-01-05T13:10:19Z</time>
      </trkpt>
      <trkpt lat="49.87563" lon="2.40705">
        <ele>53.3</ele>
        <time>2022-01-05T13:10:20Z</time>
      </trkpt>
      <trkpt lat="49.87563" lon="2.40708">
        <ele>53.3</ele>
        <time>2022-01-05T13:10:21Z</time>
      </trkpt>
      <trkpt lat="49.87563" lon="2.4071">
        <ele>53.2</ele>
        <time>2022-01-05T13:10:23Z</time>
      </trkpt>
      <trkpt lat="49.87563" lon="2.40712">
        <ele>53.2</ele>
        <time>2022-01-05T13:10:24Z</time>
      </trkpt>
      <trkpt lat="49.87563" lon="2.40714">
        <ele>53.2</ele>
        <time>2022-01-05T13:10:25Z</time>
      </trkpt>
      <trkpt lat="49.87564" lon="2.40718">
        <ele>53.1</ele>
        <time>2022-01-05T13:10:27Z</time>
      </trkpt>
      <trkpt lat="49.87564" lon="2.4072">
        <ele>53.1</ele>
        <time>2022-01-05T13:10:28Z</time>
      </trkpt>
      <trkpt lat="49.87564" lon="2.40723">
        <ele>53.1</ele>
        <time>2022-01-05T13:10:29Z</time>
      </trkpt>
      <trkpt lat="49.87564" lon="2.40725">
        <ele>53.1</ele>
        <time>2022-01-05T13:10:30Z</time>
      </trkpt>
      <trkpt lat="49.87565" lon="2.40728">
        <ele>53</ele>
        <time>2022-01-05T13:10:32Z</time>
      </trkpt>
      <trkpt lat="49.87565" lon="2.4073">
        <ele>53</ele>
        <time>2022-01-05T13:10:33Z</time>
      </trkpt>
      <trkpt lat="49.87565" lon="2.40732">
        <ele>53</ele>
        <time>2022-01-05T13:10:34Z</time>
      </trkpt>
      <trkpt lat="49.87564" lon="2.40733">
        <ele>53</ele>
        <time>2022-01-05T13:10:36Z</time>
      </trkpt>
      <trkpt lat="49.87563" lon="2.40731">
        <ele>53</ele>
        <time>2022-01-05T13:10:38Z</time>
      </trkpt>
      <trkpt lat="49.87562" lon="2.4073">
        <ele>52.9</ele>
        <time>2022-01-05T13:10:40Z</time>
      </trkpt>
      <trkpt lat="49.87562" lon="2.40729">
        <ele>52.9</ele>
        <time>2022-01-05T13:10:42Z</time>
      </trkpt>
      <trkpt lat="49.87562" lon="2.40728">
        <ele>52.9</ele>
        <time>2022-01-05T13:10:44Z</time>
      </trkpt>
      <trkpt lat="49.87561" lon="2.40727">
        <ele>52.9</ele>
        <time>2022-01-05T13:10:45Z</time>
      </trkpt>
      <trkpt lat="49.87561" lon="2.40726">
        <ele>52.9</ele>
        <time>2022-01-05T13:10:47Z</time>
      </trkpt>
      <trkpt lat="49.87561" lon="2.40726">
        <ele>52.9</ele>
        <time>2022-01-05T13:10:49Z</time>
      </trkpt>
      <trkpt lat="49.87561" lon="2.40726">
        <ele>52.9</ele>
        <time>2022-01-05T13:10:50Z</time>
      </trkpt>
      <trkpt lat="49.87561" lon="2.40726">
        <ele>52.9</ele>
        <time>2022-01-05T13:10:51Z</time>
      </trkpt>
      <trkpt lat="49.87561" lon="2.40726">
        <ele>52.9</ele>
        <time>2022-01-05T13:10:53Z</time>
      </trkpt>
      <trkpt lat="49.87561" lon="2.40726">
        <ele>52.9</ele>
        <time>2022-01-05T13:10:54Z</time>
      </trkpt>
      <trkpt lat="49.87561" lon="2.40726">
        <ele>52.9</ele>
        <time>2022-01-05T13:10:56Z</time>
      </trkpt>
      <trkpt lat="49.87561" lon="2.40726">
        <ele>52.9</ele>
        <time>2022-01-05T13:10:57Z</time>
      </trkpt>
      <trkpt lat="49.87561" lon="2.40726">
        <ele>52.9</ele>
        <time>2022-01-05T13:10:59Z</time>
      </trkpt>
      <trkpt lat="49.87561" lon="2.40726">
        <ele>52.9</ele>
        <time>2022-01-05T13:11:01Z</time>
      </trkpt>
      <trkpt lat="49.87561" lon="2.40726">
        <ele>52.9</ele>
        <time>2022-01-05T13:11:02Z</time>
      </trkpt>
      <trkpt lat="49.87561" lon="2.40726">
        <ele>52.9</ele>
        <time>2022-01-05T13:11:04Z</time>
      </trkpt>
      <trkpt lat="49.87561" lon="2.40726">
        <ele>52.9</ele>
        <time>2022-01-05T13:11:05Z</time>
      </trkpt>
      <trkpt lat="49.87561" lon="2.40726">
        <ele>52.9</ele>
        <time>2022-01-05T13:11:07Z</time>
      </trkpt>
      <trkpt lat="49.87561" lon="2.40726">
        <ele>52.9</ele>
        <time>2022-01-05T13:11:09Z</time>
      </trkpt>
      <trkpt lat="49.87561" lon="2.40726">
        <ele>52.9</ele>
        <time>2022-01-05T13:11:11Z</time>
      </trkpt>
      <trkpt lat="49.87561" lon="2.40726">
        <ele>52.9</ele>
        <time>2022-01-05T13:11:13Z</time>
      </trkpt>
      <trkpt lat="49.87561" lon="2.40726">
        <ele>52.9</ele>
        <time>2022-01-05T13:11:14Z</time>
      </trkpt>
      <trkpt lat="49.87561" lon="2.40726">
        <ele>52.9</ele>
        <time>2022-01-05T13:11:16Z</time>
      </trkpt>
      <trkpt lat="49.87561" lon="2.40726">
        <ele>52.9</ele>
        <time>2022-01-05T13:11:18Z</time>
      </trkpt>
      <trkpt lat="49.87562" lon="2.40727">
        <ele>52.9</ele>
        <time>2022-01-05T13:11:20Z</time>
      </trkpt>
      <trkpt lat="49.87562" lon="2.40728">
        <ele>52.9</ele>
        <time>2022-01-05T13:11:21Z</time>
      </trkpt>
      <trkpt lat="49.87563" lon="2.40731">
        <ele>52.8</ele>
        <time>2022-01-05T13:11:23Z</time>
      </trkpt>
      <trkpt lat="49.87563" lon="2.40732">
        <ele>52.8</ele>
        <time>2022-01-05T13:11:24Z</time>
      </trkpt>
      <trkpt lat="49.87563" lon="2.40735">
        <ele>52.8</ele>
        <time>2022-01-05T13:11:26Z</time>
      </trkpt>
      <trkpt lat="49.87563" lon="2.40736">
        <ele>52.8</ele>
        <time>2022-01-05T13:11:28Z</time>
      </trkpt>
      <trkpt lat="49.87563" lon="2.40736">
        <ele>52.8</ele>
        <time>2022-01-05T13:11:30Z</time>
      </trkpt>
      <trkpt lat="49.87563" lon="2.40737">
        <ele>52.8</ele>
        <time>2022-01-05T13:11:31Z</time>
      </trkpt>
      <trkpt lat="49.87563" lon="2.40737">
        <ele>52.8</ele>
        <time>2022-01-05T13:11:33Z</time>
      </trkpt>
      <trkpt lat="49.87563" lon="2.40737">
        <ele>52.8</ele>
        <time>2022-01-05T13:11:34Z</time>
      </trkpt>
      <trkpt lat="49.87563" lon="2.40737">
        <ele>52.8</ele>
        <time>2022-01-05T13:11:35Z</time>
      </trkpt>
      <trkpt lat="49.87563" lon="2.40738">
        <ele>52.7</ele>
        <time>2022-01-05T13:11:38Z</time>
      </trkpt>
      <trkpt lat="49.87563" lon="2.40739">
        <ele>52.7</ele>
        <time>2022-01-05T13:11:39Z</time>
      </trkpt>
      <trkpt lat="49.87563" lon="2.4074">
        <ele>52.7</ele>
        <time>2022-01-05T13:11:40Z</time>
      </trkpt>
      <trkpt lat="49.87563" lon="2.40743">
        <ele>52.7</ele>
        <time>2022-01-05T13:11:42Z</time>
      </trkpt>
      <trkpt lat="49.87562" lon="2.40744">
        <ele>52.7</ele>
        <time>2022-01-05T13:11:43Z</time>
      </trkpt>
      <trkpt lat="49.87562" lon="2.40745">
        <ele>52.7</ele>
        <time>2022-01-05T13:11:45Z</time>
      </trkpt>
      <trkpt lat="49.87562" lon="2.40745">
        <ele>52.7</ele>
        <time>2022-01-05T13:11:46Z</time>
      </trkpt>
      <trkpt lat="49.87562" lon="2.40745">
        <ele>52.7</ele>
        <time>2022-01-05T13:11:47Z</time>
      </trkpt>
      <trkpt lat="49.87562" lon="2.40745">
        <ele>52.7</ele>
        <time>2022-01-05T13:11:49Z</time>
      </trkpt>
      <trkpt lat="49.87562" lon="2.40745">
        <ele>52.7</ele>
        <time>2022-01-05T13:11:51Z</time>
      </trkpt>
      <trkpt lat="49.87562" lon="2.40746">
        <ele>52.7</ele>
        <time>2022-01-05T13:11:53Z</time>
      </trkpt>
      <trkpt lat="49.87562" lon="2.40746">
        <ele>52.7</ele>
        <time>2022-01-05T13:11:55Z</time>
      </trkpt>
      <trkpt lat="49.87562" lon="2.40746">
        <ele>52.7</ele>
        <time>2022-01-05T13:11:56Z</time>
      </trkpt>
      <trkpt lat="49.87562" lon="2.40746">
        <ele>52.7</ele>
        <time>2022-01-05T13:11:57Z</time>
      </trkpt>
      <trkpt lat="49.87563" lon="2.40746">
        <ele>52.7</ele>
        <time>2022-01-05T13:11:59Z</time>
      </trkpt>
      <trkpt lat="49.87563" lon="2.40746">
        <ele>52.7</ele>
        <time>2022-01-05T13:12:00Z</time>
      </trkpt>
      <trkpt lat="49.87563" lon="2.40746">
        <ele>52.7</ele>
        <time>2022-01-05T13:12:01Z</time>
      </trkpt>
      <trkpt lat="49.87563" lon="2.40747">
        <ele>52.7</ele>
        <time>2022-01-05T13:12:03Z</time>
      </trkpt>
      <trkpt lat="49.87563" lon="2.40747">
        <ele>52.7</ele>
        <time>2022-01-05T13:12:04Z</time>
      </trkpt>
      <trkpt lat="49.87563" lon="2.40747">
        <ele>52.7</ele>
        <time>2022-01-05T13:12:05Z</time>
      </trkpt>
      <trkpt lat="49.87563" lon="2.40747">
        <ele>52.7</ele>
        <time>2022-01-05T13:12:07Z</time>
      </trkpt>
      <trkpt lat="49.87563" lon="2.40747">
        <ele>52.7</ele>
        <time>2022-01-05T13:12:09Z</time>
      </trkpt>
      <trkpt lat="49.87563" lon="2.40747">
        <ele>52.7</ele>
        <time>2022-01-05T13:12:10Z</time>
      </trkpt>
      <trkpt lat="49.87563" lon="2.40747">
        <ele>52.7</ele>
        <time>2022-01-05T13:12:12Z</time>
      </trkpt>
      <trkpt lat="49.87563" lon="2.40748">
        <ele>52.6</ele>
        <time>2022-01-05T13:12:14Z</time>
      </trkpt>
      <trkpt lat="49.87564" lon="2.40748">
        <ele>52.6</ele>
        <time>2022-01-05T13:12:16Z</time>
      </trkpt>
      <trkpt lat="49.87564" lon="2.40748">
        <ele>52.6</ele>
        <time>2022-01-05T13:12:17Z</time>
      </trkpt>
      <trkpt lat="49.87564" lon="2.40748">
        <ele>52.6</ele>
        <time>2022-01-05T13:12:19Z</time>
      </trkpt>
      <trkpt lat="49.87564" lon="2.40748">
        <ele>52.6</ele>
        <time>2022-01-05T13:12:20Z</time>
      </trkpt>
      <trkpt lat="49.87564" lon="2.40748">
        <ele>52.6</ele>
        <time>2022-01-05T13:12:22Z</time>
      </trkpt>
      <trkpt lat="49.87564" lon="2.40748">
        <ele>52.6</ele>
        <time>2022-01-05T13:12:23Z</time>
      </trkpt>
      <trkpt lat="49.87564" lon="2.40749">
        <ele>52.6</ele>
        <time>2022-01-05T13:12:24Z</time>
      </trkpt>
      <trkpt lat="49.87564" lon="2.40749">
        <ele>52.6</ele>
        <time>2022-01-05T13:12:25Z</time>
      </trkpt>
      <trkpt lat="49.87564" lon="2.40749">
        <ele>52.6</ele>
        <time>2022-01-05T13:12:27Z</time>
      </trkpt>
      <trkpt lat="49.87565" lon="2.40751">
        <ele>52.6</ele>
        <time>2022-01-05T13:12:29Z</time>
      </trkpt>
      <trkpt lat="49.87565" lon="2.40751">
        <ele>52.6</ele>
        <time>2022-01-05T13:12:30Z</time>
      </trkpt>
      <trkpt lat="49.87565" lon="2.40751">
        <ele>52.6</ele>
        <time>2022-01-05T13:12:31Z</time>
      </trkpt>
      <trkpt lat="49.87566" lon="2.40752">
        <ele>52.6</ele>
        <time>2022-01-05T13:12:33Z</time>
      </trkpt>
      <trkpt lat="49.87566" lon="2.40752">
        <ele>52.6</ele>
        <time>2022-01-05T13:12:34Z</time>
      </trkpt>
      <trkpt lat="49.87566" lon="2.40752">
        <ele>52.6</ele>
        <time>2022-01-05T13:12:36Z</time>
      </trkpt>
      <trkpt lat="49.87565" lon="2.40753">
        <ele>52.6</ele>
        <time>2022-01-05T13:12:38Z</time>
      </trkpt>
      <trkpt lat="49.87566" lon="2.40753">
        <ele>52.6</ele>
        <time>2022-01-05T13:12:40Z</time>
      </trkpt>
      <trkpt lat="49.87566" lon="2.40753">
        <ele>52.6</ele>
        <time>2022-01-05T13:12:41Z</time>
      </trkpt>
      <trkpt lat="49.87566" lon="2.40753">
        <ele>52.6</ele>
        <time>2022-01-05T13:12:43Z</time>
      </trkpt>
      <trkpt lat="49.87566" lon="2.40753">
        <ele>52.6</ele>
        <time>2022-01-05T13:12:45Z</time>
      </trkpt>
      <trkpt lat="49.87566" lon="2.40753">
        <ele>52.6</ele>
        <time>2022-01-05T13:12:46Z</time>
      </trkpt>
      <trkpt lat="49.87566" lon="2.40753">
        <ele>52.6</ele>
        <time>2022-01-05T13:12:47Z</time>
      </trkpt>
      <trkpt lat="49.87566" lon="2.40754">
        <ele>52.6</ele>
        <time>2022-01-05T13:12:48Z</time>
      </trkpt>
      <trkpt lat="49.87567" lon="2.40754">
        <ele>52.6</ele>
        <time>2022-01-05T13:12:50Z</time>
      </trkpt>
      <trkpt lat="49.87567" lon="2.40754">
        <ele>52.6</ele>
        <time>2022-01-05T13:12:51Z</time>
      </trkpt>
      <trkpt lat="49.87567" lon="2.40754">
        <ele>52.6</ele>
        <time>2022-01-05T13:12:53Z</time>
      </trkpt>
      <trkpt lat="49.87568" lon="2.40755">
        <ele>52.6</ele>
        <time>2022-01-05T13:12:54Z</time>
      </trkpt>
      <trkpt lat="49.87568" lon="2.40755">
        <ele>52.6</ele>
        <time>2022-01-05T13:12:55Z</time>
      </trkpt>
      <trkpt lat="49.87568" lon="2.40756">
        <ele>52.6</ele>
        <time>2022-01-05T13:12:56Z</time>
      </trkpt>
      <trkpt lat="49.87569" lon="2.40757">
        <ele>52.5</ele>
        <time>2022-01-05T13:12:57Z</time>
      </trkpt>
      <trkpt lat="49.87569" lon="2.40758">
        <ele>52.5</ele>
        <time>2022-01-05T13:12:59Z</time>
      </trkpt>
      <trkpt lat="49.87569" lon="2.40759">
        <ele>52.5</ele>
        <time>2022-01-05T13:13:00Z</time>
      </trkpt>
      <trkpt lat="49.87569" lon="2.4076">
        <ele>52.5</ele>
        <time>2022-01-05T13:13:01Z</time>
      </trkpt>
      <trkpt lat="49.8757" lon="2.40762">
        <ele>52.5</ele>
        <time>2022-01-05T13:13:03Z</time>
      </trkpt>
      <trkpt lat="49.8757" lon="2.40763">
        <ele>52.5</ele>
        <time>2022-01-05T13:13:04Z</time>
      </trkpt>
      <trkpt lat="49.8757" lon="2.40767">
        <ele>52.5</ele>
        <time>2022-01-05T13:13:05Z</time>
      </trkpt>
      <trkpt lat="49.8757" lon="2.40769">
        <ele>52.5</ele>
        <time>2022-01-05T13:13:06Z</time>
      </trkpt>
      <trkpt lat="49.8757" lon="2.40771">
        <ele>52.4</ele>
        <time>2022-01-05T13:13:07Z</time>
      </trkpt>
      <trkpt lat="49.8757" lon="2.40773">
        <ele>52.4</ele>
        <time>2022-01-05T13:13:09Z</time>
      </trkpt>
      <trkpt lat="49.87571" lon="2.40775">
        <ele>52.4</ele>
        <time>2022-01-05T13:13:10Z</time>
      </trkpt>
      <trkpt lat="49.87571" lon="2.40778">
        <ele>52.4</ele>
        <time>2022-01-05T13:13:11Z</time>
      </trkpt>
      <trkpt lat="49.8757" lon="2.4078">
        <ele>52.4</ele>
        <time>2022-01-05T13:13:12Z</time>
      </trkpt>
      <trkpt lat="49.8757" lon="2.40783">
        <ele>52.3</ele>
        <time>2022-01-05T13:13:13Z</time>
      </trkpt>
      <trkpt lat="49.8757" lon="2.40785">
        <ele>52.3</ele>
        <time>2022-01-05T13:13:14Z</time>
      </trkpt>
      <trkpt lat="49.8757" lon="2.40788">
        <ele>52.3</ele>
        <time>2022-01-05T13:13:16Z</time>
      </trkpt>
      <trkpt lat="49.8757" lon="2.4079">
        <ele>52.3</ele>
        <time>2022-01-05T13:13:17Z</time>
      </trkpt>
      <trkpt lat="49.8757" lon="2.40792">
        <ele>52.3</ele>
        <time>2022-01-05T13:13:18Z</time>
      </trkpt>
      <trkpt lat="49.8757" lon="2.40795">
        <ele>52.2</ele>
        <time>2022-01-05T13:13:19Z</time>
      </trkpt>
      <trkpt lat="49.87569" lon="2.40797">
        <ele>52.2</ele>
        <time>2022-01-05T13:13:20Z</time>
      </trkpt>
      <trkpt lat="49.87569" lon="2.40798">
        <ele>52.2</ele>
        <time>2022-01-05T13:13:21Z</time>
      </trkpt>
      <trkpt lat="49.87569" lon="2.408">
        <ele>52.2</ele>
        <time>2022-01-05T13:13:23Z</time>
      </trkpt>
      <trkpt lat="49.87569" lon="2.40802">
        <ele>52.2</ele>
        <time>2022-01-05T13:13:24Z</time>
      </trkpt>
      <trkpt lat="49.87568" lon="2.40805">
        <ele>52.2</ele>
        <time>2022-01-05T13:13:25Z</time>
      </trkpt>
      <trkpt lat="49.87568" lon="2.40808">
        <ele>52.1</ele>
        <time>2022-01-05T13:13:26Z</time>
      </trkpt>
      <trkpt lat="49.87568" lon="2.4081">
        <ele>52.1</ele>
        <time>2022-01-05T13:13:27Z</time>
      </trkpt>
      <trkpt lat="49.87568" lon="2.40811">
        <ele>52.1</ele>
        <time>2022-01-05T13:13:28Z</time>
      </trkpt>
      <trkpt lat="49.87568" lon="2.40814">
        <ele>52.1</ele>
        <time>2022-01-05T13:13:29Z</time>
      </trkpt>
      <trkpt lat="49.87568" lon="2.40815">
        <ele>52.1</ele>
        <time>2022-01-05T13:13:31Z</time>
      </trkpt>
      <trkpt lat="49.87568" lon="2.40816">
        <ele>52</ele>
        <time>2022-01-05T13:13:32Z</time>
      </trkpt>
      <trkpt lat="49.87568" lon="2.4082">
        <ele>52</ele>
        <time>2022-01-05T13:13:33Z</time>
      </trkpt>
      <trkpt lat="49.87568" lon="2.40821">
        <ele>52</ele>
        <time>2022-01-05T13:13:34Z</time>
      </trkpt>
      <trkpt lat="49.87568" lon="2.40822">
        <ele>52</ele>
        <time>2022-01-05T13:13:35Z</time>
      </trkpt>
      <trkpt lat="49.87568" lon="2.40826">
        <ele>52</ele>
        <time>2022-01-05T13:13:37Z</time>
      </trkpt>
      <trkpt lat="49.87568" lon="2.40827">
        <ele>51.9</ele>
        <time>2022-01-05T13:13:38Z</time>
      </trkpt>
      <trkpt lat="49.87568" lon="2.40828">
        <ele>51.9</ele>
        <time>2022-01-05T13:13:39Z</time>
      </trkpt>
      <trkpt lat="49.87568" lon="2.4083">
        <ele>51.9</ele>
        <time>2022-01-05T13:13:40Z</time>
      </trkpt>
      <trkpt lat="49.87568" lon="2.40832">
        <ele>51.9</ele>
        <time>2022-01-05T13:13:41Z</time>
      </trkpt>
      <trkpt lat="49.87568" lon="2.40834">
        <ele>51.9</ele>
        <time>2022-01-05T13:13:42Z</time>
      </trkpt>
      <trkpt lat="49.87568" lon="2.40837">
        <ele>51.9</ele>
        <time>2022-01-05T13:13:44Z</time>
      </trkpt>
      <trkpt lat="49.87568" lon="2.40838">
        <ele>51.8</ele>
        <time>2022-01-05T13:13:45Z</time>
      </trkpt>
      <trkpt lat="49.87568" lon="2.4084">
        <ele>51.8</ele>
        <time>2022-01-05T13:13:46Z</time>
      </trkpt>
      <trkpt lat="49.87568" lon="2.40842">
        <ele>51.8</ele>
        <time>2022-01-05T13:13:47Z</time>
      </trkpt>
      <trkpt lat="49.87569" lon="2.40845">
        <ele>51.8</ele>
        <time>2022-01-05T13:13:48Z</time>
      </trkpt>
      <trkpt lat="49.87569" lon="2.40847">
        <ele>51.8</ele>
        <time>2022-01-05T13:13:49Z</time>
      </trkpt>
      <trkpt lat="49.87569" lon="2.40848">
        <ele>51.8</ele>
        <time>2022-01-05T13:13:50Z</time>
      </trkpt>
      <trkpt lat="49.87569" lon="2.4085">
        <ele>51.7</ele>
        <time>2022-01-05T13:13:51Z</time>
      </trkpt>
      <trkpt lat="49.87569" lon="2.40852">
        <ele>51.7</ele>
        <time>2022-01-05T13:13:52Z</time>
      </trkpt>
      <trkpt lat="49.87569" lon="2.40853">
        <ele>51.7</ele>
        <time>2022-01-05T13:13:54Z</time>
      </trkpt>
      <trkpt lat="49.8757" lon="2.40855">
        <ele>51.7</ele>
        <time>2022-01-05T13:13:55Z</time>
      </trkpt>
      <trkpt lat="49.8757" lon="2.40857">
        <ele>51.7</ele>
        <time>2022-01-05T13:13:56Z</time>
      </trkpt>
      <trkpt lat="49.8757" lon="2.40858">
        <ele>51.6</ele>
        <time>2022-01-05T13:13:57Z</time>
      </trkpt>
      <trkpt lat="49.8757" lon="2.4086">
        <ele>51.6</ele>
        <time>2022-01-05T13:13:58Z</time>
      </trkpt>
      <trkpt lat="49.8757" lon="2.40862">
        <ele>51.6</ele>
        <time>2022-01-05T13:13:59Z</time>
      </trkpt>
      <trkpt lat="49.8757" lon="2.40864">
        <ele>51.6</ele>
        <time>2022-01-05T13:14:00Z</time>
      </trkpt>
      <trkpt lat="49.8757" lon="2.40866">
        <ele>51.6</ele>
        <time>2022-01-05T13:14:02Z</time>
      </trkpt>
      <trkpt lat="49.8757" lon="2.40868">
        <ele>51.5</ele>
        <time>2022-01-05T13:14:03Z</time>
      </trkpt>
      <trkpt lat="49.8757" lon="2.40869">
        <ele>51.5</ele>
        <time>2022-01-05T13:14:04Z</time>
      </trkpt>
      <trkpt lat="49.8757" lon="2.40872">
        <ele>51.5</ele>
        <time>2022-01-05T13:14:05Z</time>
      </trkpt>
      <trkpt lat="49.8757" lon="2.40874">
        <ele>51.5</ele>
        <time>2022-01-05T13:14:07Z</time>
      </trkpt>
      <trkpt lat="49.8757" lon="2.40875">
        <ele>51.4</ele>
        <time>2022-01-05T13:14:08Z</time>
      </trkpt>
      <trkpt lat="49.87571" lon="2.40878">
        <ele>51.4</ele>
        <time>2022-01-05T13:14:10Z</time>
      </trkpt>
      <trkpt lat="49.87571" lon="2.4088">
        <ele>51.4</ele>
        <time>2022-01-05T13:14:11Z</time>
      </trkpt>
      <trkpt lat="49.87571" lon="2.40883">
        <ele>51.4</ele>
        <time>2022-01-05T13:14:12Z</time>
      </trkpt>
      <trkpt lat="49.87572" lon="2.40886">
        <ele>51.3</ele>
        <time>2022-01-05T13:14:14Z</time>
      </trkpt>
      <trkpt lat="49.87572" lon="2.40889">
        <ele>51.3</ele>
        <time>2022-01-05T13:14:15Z</time>
      </trkpt>
      <trkpt lat="49.87572" lon="2.4089">
        <ele>51.3</ele>
        <time>2022-01-05T13:14:16Z</time>
      </trkpt>
      <trkpt lat="49.87572" lon="2.40892">
        <ele>51.2</ele>
        <time>2022-01-05T13:14:17Z</time>
      </trkpt>
      <trkpt lat="49.87572" lon="2.40894">
        <ele>51.2</ele>
        <time>2022-01-05T13:14:18Z</time>
      </trkpt>
      <trkpt lat="49.87572" lon="2.40896">
        <ele>51.2</ele>
        <time>2022-01-05T13:14:19Z</time>
      </trkpt>
      <trkpt lat="49.87572" lon="2.40899">
        <ele>51.2</ele>
        <time>2022-01-05T13:14:21Z</time>
      </trkpt>
      <trkpt lat="49.87573" lon="2.409">
        <ele>51.2</ele>
        <time>2022-01-05T13:14:22Z</time>
      </trkpt>
      <trkpt lat="49.87573" lon="2.40901">
        <ele>51.1</ele>
        <time>2022-01-05T13:14:23Z</time>
      </trkpt>
      <trkpt lat="49.87573" lon="2.40905">
        <ele>51.1</ele>
        <time>2022-01-05T13:14:24Z</time>
      </trkpt>
      <trkpt lat="49.87573" lon="2.40907">
        <ele>51.1</ele>
        <time>2022-01-05T13:14:25Z</time>
      </trkpt>
      <trkpt lat="49.87573" lon="2.40908">
        <ele>51</ele>
        <time>2022-01-05T13:14:26Z</time>
      </trkpt>
      <trkpt lat="49.87573" lon="2.4091">
        <ele>51</ele>
        <time>2022-01-05T13:14:27Z</time>
      </trkpt>
      <trkpt lat="49.87573" lon="2.40912">
        <ele>51</ele>
        <time>2022-01-05T13:14:28Z</time>
      </trkpt>
      <trkpt lat="49.87572" lon="2.40914">
        <ele>51</ele>
        <time>2022-01-05T13:14:29Z</time>
      </trkpt>
      <trkpt lat="49.87572" lon="2.40916">
        <ele>51</ele>
        <time>2022-01-05T13:14:31Z</time>
      </trkpt>
      <trkpt lat="49.87572" lon="2.40918">
        <ele>50.9</ele>
        <time>2022-01-05T13:14:32Z</time>
      </trkpt>
      <trkpt lat="49.87572" lon="2.4092">
        <ele>50.9</ele>
        <time>2022-01-05T13:14:33Z</time>
      </trkpt>
      <trkpt lat="49.87572" lon="2.40922">
        <ele>50.9</ele>
        <time>2022-01-05T13:14:34Z</time>
      </trkpt>
      <trkpt lat="49.87572" lon="2.40924">
        <ele>50.8</ele>
        <time>2022-01-05T13:14:35Z</time>
      </trkpt>
      <trkpt lat="49.87572" lon="2.40928">
        <ele>50.8</ele>
        <time>2022-01-05T13:14:37Z</time>
      </trkpt>
      <trkpt lat="49.87572" lon="2.4093">
        <ele>50.8</ele>
        <time>2022-01-05T13:14:38Z</time>
      </trkpt>
      <trkpt lat="49.87572" lon="2.40933">
        <ele>50.7</ele>
        <time>2022-01-05T13:14:40Z</time>
      </trkpt>
      <trkpt lat="49.87572" lon="2.40935">
        <ele>50.7</ele>
        <time>2022-01-05T13:14:41Z</time>
      </trkpt>
      <trkpt lat="49.87572" lon="2.40937">
        <ele>50.7</ele>
        <time>2022-01-05T13:14:42Z</time>
      </trkpt>
      <trkpt lat="49.87573" lon="2.40939">
        <ele>50.7</ele>
        <time>2022-01-05T13:14:43Z</time>
      </trkpt>
      <trkpt lat="49.87573" lon="2.40942">
        <ele>50.6</ele>
        <time>2022-01-05T13:14:45Z</time>
      </trkpt>
      <trkpt lat="49.87573" lon="2.40946">
        <ele>50.6</ele>
        <time>2022-01-05T13:14:47Z</time>
      </trkpt>
      <trkpt lat="49.87573" lon="2.40947">
        <ele>50.6</ele>
        <time>2022-01-05T13:14:48Z</time>
      </trkpt>
      <trkpt lat="49.87573" lon="2.40951">
        <ele>50.5</ele>
        <time>2022-01-05T13:14:49Z</time>
      </trkpt>
      <trkpt lat="49.87573" lon="2.40956">
        <ele>50.5</ele>
        <time>2022-01-05T13:14:52Z</time>
      </trkpt>
      <trkpt lat="49.87573" lon="2.40959">
        <ele>50.5</ele>
        <time>2022-01-05T13:14:54Z</time>
      </trkpt>
      <trkpt lat="49.87573" lon="2.40961">
        <ele>50.4</ele>
        <time>2022-01-05T13:14:55Z</time>
      </trkpt>
      <trkpt lat="49.87573" lon="2.40963">
        <ele>50.4</ele>
        <time>2022-01-05T13:14:56Z</time>
      </trkpt>
      <trkpt lat="49.87573" lon="2.40965">
        <ele>50.4</ele>
        <time>2022-01-05T13:14:57Z</time>
      </trkpt>
      <trkpt lat="49.87573" lon="2.40967">
        <ele>50.4</ele>
        <time>2022-01-05T13:14:58Z</time>
      </trkpt>
      <trkpt lat="49.87573" lon="2.4097">
        <ele>50.4</ele>
        <time>2022-01-05T13:14:59Z</time>
      </trkpt>
      <trkpt lat="49.87573" lon="2.40975">
        <ele>50.3</ele>
        <time>2022-01-05T13:15:01Z</time>
      </trkpt>
      <trkpt lat="49.87574" lon="2.40976">
        <ele>50.3</ele>
        <time>2022-01-05T13:15:02Z</time>
      </trkpt>
      <trkpt lat="49.87574" lon="2.40979">
        <ele>50.3</ele>
        <time>2022-01-05T13:15:04Z</time>
      </trkpt>
      <trkpt lat="49.87574" lon="2.40981">
        <ele>50.3</ele>
        <time>2022-01-05T13:15:05Z</time>
      </trkpt>
      <trkpt lat="49.87574" lon="2.40984">
        <ele>50.2</ele>
        <time>2022-01-05T13:15:06Z</time>
      </trkpt>
      <trkpt lat="49.87574" lon="2.40986">
        <ele>50.2</ele>
        <time>2022-01-05T13:15:07Z</time>
      </trkpt>
      <trkpt lat="49.87574" lon="2.40988">
        <ele>50.2</ele>
        <time>2022-01-05T13:15:09Z</time>
      </trkpt>
      <trkpt lat="49.87574" lon="2.40991">
        <ele>50.2</ele>
        <time>2022-01-05T13:15:10Z</time>
      </trkpt>
      <trkpt lat="49.87574" lon="2.40993">
        <ele>50.2</ele>
        <time>2022-01-05T13:15:11Z</time>
      </trkpt>
      <trkpt lat="49.87574" lon="2.40995">
        <ele>50.2</ele>
        <time>2022-01-05T13:15:12Z</time>
      </trkpt>
      <trkpt lat="49.87573" lon="2.40998">
        <ele>50.2</ele>
        <time>2022-01-05T13:15:14Z</time>
      </trkpt>
      <trkpt lat="49.87573" lon="2.41002">
        <ele>50.1</ele>
        <time>2022-01-05T13:15:15Z</time>
      </trkpt>
      <trkpt lat="49.87573" lon="2.41003">
        <ele>50.1</ele>
        <time>2022-01-05T13:15:16Z</time>
      </trkpt>
      <trkpt lat="49.87573" lon="2.41007">
        <ele>50.1</ele>
        <time>2022-01-05T13:15:17Z</time>
      </trkpt>
      <trkpt lat="49.87573" lon="2.41008">
        <ele>50.1</ele>
        <time>2022-01-05T13:15:19Z</time>
      </trkpt>
      <trkpt lat="49.87573" lon="2.41009">
        <ele>50.1</ele>
        <time>2022-01-05T13:15:20Z</time>
      </trkpt>
      <trkpt lat="49.87572" lon="2.41012">
        <ele>50.1</ele>
        <time>2022-01-05T13:15:21Z</time>
      </trkpt>
      <trkpt lat="49.87572" lon="2.41014">
        <ele>50.1</ele>
        <time>2022-01-05T13:15:22Z</time>
      </trkpt>
      <trkpt lat="49.87571" lon="2.41015">
        <ele>50.1</ele>
        <time>2022-01-05T13:15:23Z</time>
      </trkpt>
      <trkpt lat="49.87572" lon="2.41017">
        <ele>50.1</ele>
        <time>2022-01-05T13:15:24Z</time>
      </trkpt>
      <trkpt lat="49.87572" lon="2.4102">
        <ele>50.1</ele>
        <time>2022-01-05T13:15:25Z</time>
      </trkpt>
      <trkpt lat="49.87572" lon="2.41023">
        <ele>50.1</ele>
        <time>2022-01-05T13:15:27Z</time>
      </trkpt>
      <trkpt lat="49.87572" lon="2.41025">
        <ele>50.1</ele>
        <time>2022-01-05T13:15:28Z</time>
      </trkpt>
      <trkpt lat="49.87572" lon="2.41028">
        <ele>50.1</ele>
        <time>2022-01-05T13:15:30Z</time>
      </trkpt>
      <trkpt lat="49.87573" lon="2.4103">
        <ele>50.1</ele>
        <time>2022-01-05T13:15:31Z</time>
      </trkpt>
      <trkpt lat="49.87572" lon="2.41032">
        <ele>50.1</ele>
        <time>2022-01-05T13:15:32Z</time>
      </trkpt>
      <trkpt lat="49.87572" lon="2.41036">
        <ele>50.1</ele>
        <time>2022-01-05T13:15:34Z</time>
      </trkpt>
      <trkpt lat="49.87572" lon="2.41039">
        <ele>50.1</ele>
        <time>2022-01-05T13:15:35Z</time>
      </trkpt>
      <trkpt lat="49.87572" lon="2.41041">
        <ele>50.1</ele>
        <time>2022-01-05T13:15:36Z</time>
      </trkpt>
      <trkpt lat="49.87572" lon="2.41042">
        <ele>50.1</ele>
        <time>2022-01-05T13:15:37Z</time>
      </trkpt>
      <trkpt lat="49.87573" lon="2.41044">
        <ele>50.1</ele>
        <time>2022-01-05T13:15:38Z</time>
      </trkpt>
      <trkpt lat="49.87573" lon="2.41047">
        <ele>50.1</ele>
        <time>2022-01-05T13:15:40Z</time>
      </trkpt>
      <trkpt lat="49.87573" lon="2.41049">
        <ele>50.1</ele>
        <time>2022-01-05T13:15:42Z</time>
      </trkpt>
      <trkpt lat="49.87574" lon="2.41051">
        <ele>50.1</ele>
        <time>2022-01-05T13:15:43Z</time>
      </trkpt>
      <trkpt lat="49.87574" lon="2.41055">
        <ele>50.1</ele>
        <time>2022-01-05T13:15:45Z</time>
      </trkpt>
      <trkpt lat="49.87575" lon="2.41057">
        <ele>50.1</ele>
        <time>2022-01-05T13:15:46Z</time>
      </trkpt>
      <trkpt lat="49.87575" lon="2.41059">
        <ele>50.1</ele>
        <time>2022-01-05T13:15:47Z</time>
      </trkpt>
      <trkpt lat="49.87575" lon="2.41061">
        <ele>50.1</ele>
        <time>2022-01-05T13:15:48Z</time>
      </trkpt>
      <trkpt lat="49.87575" lon="2.41063">
        <ele>50.2</ele>
        <time>2022-01-05T13:15:49Z</time>
      </trkpt>
      <trkpt lat="49.87575" lon="2.41065">
        <ele>50.2</ele>
        <time>2022-01-05T13:15:50Z</time>
      </trkpt>
      <trkpt lat="49.87575" lon="2.41066">
        <ele>50.2</ele>
        <time>2022-01-05T13:15:52Z</time>
      </trkpt>
      <trkpt lat="49.87575" lon="2.4107">
        <ele>50.2</ele>
        <time>2022-01-05T13:15:54Z</time>
      </trkpt>
      <trkpt lat="49.87575" lon="2.41071">
        <ele>50.2</ele>
        <time>2022-01-05T13:15:55Z</time>
      </trkpt>
      <trkpt lat="49.87575" lon="2.41073">
        <ele>50.2</ele>
        <time>2022-01-05T13:15:56Z</time>
      </trkpt>
      <trkpt lat="49.87576" lon="2.41076">
        <ele>50.2</ele>
        <time>2022-01-05T13:15:58Z</time>
      </trkpt>
      <trkpt lat="49.87576" lon="2.41077">
        <ele>50.2</ele>
        <time>2022-01-05T13:15:59Z</time>
      </trkpt>
      <trkpt lat="49.87576" lon="2.41079">
        <ele>50.3</ele>
        <time>2022-01-05T13:16:00Z</time>
      </trkpt>
      <trkpt lat="49.87576" lon="2.41081">
        <ele>50.3</ele>
        <time>2022-01-05T13:16:01Z</time>
      </trkpt>
      <trkpt lat="49.87576" lon="2.41084">
        <ele>50.3</ele>
        <time>2022-01-05T13:16:03Z</time>
      </trkpt>
      <trkpt lat="49.87576" lon="2.41086">
        <ele>50.3</ele>
        <time>2022-01-05T13:16:04Z</time>
      </trkpt>
      <trkpt lat="49.87576" lon="2.41087">
        <ele>50.3</ele>
        <time>2022-01-05T13:16:05Z</time>
      </trkpt>
      <trkpt lat="49.87576" lon="2.41089">
        <ele>50.3</ele>
        <time>2022-01-05T13:16:06Z</time>
      </trkpt>
      <trkpt lat="49.87576" lon="2.41091">
        <ele>50.4</ele>
        <time>2022-01-05T13:16:07Z</time>
      </trkpt>
      <trkpt lat="49.87576" lon="2.41093">
        <ele>50.4</ele>
        <time>2022-01-05T13:16:08Z</time>
      </trkpt>
      <trkpt lat="49.87576" lon="2.41095">
        <ele>50.4</ele>
        <time>2022-01-05T13:16:09Z</time>
      </trkpt>
      <trkpt lat="49.87576" lon="2.41096">
        <ele>50.4</ele>
        <time>2022-01-05T13:16:10Z</time>
      </trkpt>
      <trkpt lat="49.87576" lon="2.411">
        <ele>50.5</ele>
        <time>2022-01-05T13:16:11Z</time>
      </trkpt>
      <trkpt lat="49.87577" lon="2.41101">
        <ele>50.5</ele>
        <time>2022-01-05T13:16:12Z</time>
      </trkpt>
      <trkpt lat="49.87577" lon="2.41102">
        <ele>50.5</ele>
        <time>2022-01-05T13:16:13Z</time>
      </trkpt>
      <trkpt lat="49.87576" lon="2.41106">
        <ele>50.6</ele>
        <time>2022-01-05T13:16:15Z</time>
      </trkpt>
      <trkpt lat="49.87576" lon="2.41107">
        <ele>50.6</ele>
        <time>2022-01-05T13:16:16Z</time>
      </trkpt>
      <trkpt lat="49.87576" lon="2.41109">
        <ele>50.6</ele>
        <time>2022-01-05T13:16:17Z</time>
      </trkpt>
      <trkpt lat="49.87576" lon="2.4111">
        <ele>50.6</ele>
        <time>2022-01-05T13:16:18Z</time>
      </trkpt>
      <trkpt lat="49.87576" lon="2.41112">
        <ele>50.7</ele>
        <time>2022-01-05T13:16:19Z</time>
      </trkpt>
      <trkpt lat="49.87576" lon="2.41116">
        <ele>50.7</ele>
        <time>2022-01-05T13:16:21Z</time>
      </trkpt>
      <trkpt lat="49.87575" lon="2.4112">
        <ele>50.8</ele>
        <time>2022-01-05T13:16:22Z</time>
      </trkpt>
      <trkpt lat="49.87575" lon="2.41121">
        <ele>50.8</ele>
        <time>2022-01-05T13:16:23Z</time>
      </trkpt>
      <trkpt lat="49.87575" lon="2.41123">
        <ele>50.9</ele>
        <time>2022-01-05T13:16:24Z</time>
      </trkpt>
      <trkpt lat="49.87575" lon="2.41125">
        <ele>50.9</ele>
        <time>2022-01-05T13:16:25Z</time>
      </trkpt>
      <trkpt lat="49.87575" lon="2.41128">
        <ele>51</ele>
        <time>2022-01-05T13:16:27Z</time>
      </trkpt>
      <trkpt lat="49.87574" lon="2.4113">
        <ele>51</ele>
        <time>2022-01-05T13:16:28Z</time>
      </trkpt>
      <trkpt lat="49.87574" lon="2.41132">
        <ele>51.1</ele>
        <time>2022-01-05T13:16:29Z</time>
      </trkpt>
      <trkpt lat="49.87574" lon="2.41134">
        <ele>51.1</ele>
        <time>2022-01-05T13:16:30Z</time>
      </trkpt>
      <trkpt lat="49.87574" lon="2.41136">
        <ele>51.2</ele>
        <time>2022-01-05T13:16:31Z</time>
      </trkpt>
      <trkpt lat="49.87573" lon="2.4114">
        <ele>51.3</ele>
        <time>2022-01-05T13:16:32Z</time>
      </trkpt>
      <trkpt lat="49.87573" lon="2.41142">
        <ele>51.3</ele>
        <time>2022-01-05T13:16:33Z</time>
      </trkpt>
      <trkpt lat="49.87573" lon="2.41143">
        <ele>51.3</ele>
        <time>2022-01-05T13:16:34Z</time>
      </trkpt>
      <trkpt lat="49.87572" lon="2.41145">
        <ele>51.4</ele>
        <time>2022-01-05T13:16:36Z</time>
      </trkpt>
      <trkpt lat="49.87572" lon="2.41147">
        <ele>51.4</ele>
        <time>2022-01-05T13:16:37Z</time>
      </trkpt>
      <trkpt lat="49.87571" lon="2.41149">
        <ele>51.5</ele>
        <time>2022-01-05T13:16:38Z</time>
      </trkpt>
      <trkpt lat="49.87571" lon="2.41152">
        <ele>51.5</ele>
        <time>2022-01-05T13:16:39Z</time>
      </trkpt>
      <trkpt lat="49.8757" lon="2.41154">
        <ele>51.6</ele>
        <time>2022-01-05T13:16:40Z</time>
      </trkpt>
      <trkpt lat="49.8757" lon="2.41156">
        <ele>51.7</ele>
        <time>2022-01-05T13:16:41Z</time>
      </trkpt>
      <trkpt lat="49.8757" lon="2.41161">
        <ele>51.8</ele>
        <time>2022-01-05T13:16:42Z</time>
      </trkpt>
      <trkpt lat="49.87569" lon="2.41162">
        <ele>51.8</ele>
        <time>2022-01-05T13:16:44Z</time>
      </trkpt>
      <trkpt lat="49.87569" lon="2.41164">
        <ele>51.9</ele>
        <time>2022-01-05T13:16:45Z</time>
      </trkpt>
      <trkpt lat="49.87569" lon="2.41166">
        <ele>51.9</ele>
        <time>2022-01-05T13:16:46Z</time>
      </trkpt>
      <trkpt lat="49.87569" lon="2.41168">
        <ele>52</ele>
        <time>2022-01-05T13:16:47Z</time>
      </trkpt>
      <trkpt lat="49.87568" lon="2.4117">
        <ele>52</ele>
        <time>2022-01-05T13:16:48Z</time>
      </trkpt>
      <trkpt lat="49.87568" lon="2.41173">
        <ele>52.1</ele>
        <time>2022-01-05T13:16:49Z</time>
      </trkpt>
      <trkpt lat="49.87567" lon="2.41176">
        <ele>52.2</ele>
        <time>2022-01-05T13:16:50Z</time>
      </trkpt>
      <trkpt lat="49.87567" lon="2.41177">
        <ele>52.2</ele>
        <time>2022-01-05T13:16:51Z</time>
      </trkpt>
      <trkpt lat="49.87567" lon="2.41179">
        <ele>52.2</ele>
        <time>2022-01-05T13:16:52Z</time>
      </trkpt>
      <trkpt lat="49.87567" lon="2.41182">
        <ele>52.3</ele>
        <time>2022-01-05T13:16:53Z</time>
      </trkpt>
      <trkpt lat="49.87567" lon="2.41183">
        <ele>52.3</ele>
        <time>2022-01-05T13:16:55Z</time>
      </trkpt>
      <trkpt lat="49.87567" lon="2.41185">
        <ele>52.4</ele>
        <time>2022-01-05T13:16:56Z</time>
      </trkpt>
      <trkpt lat="49.87567" lon="2.41188">
        <ele>52.5</ele>
        <time>2022-01-05T13:16:57Z</time>
      </trkpt>
      <trkpt lat="49.87567" lon="2.4119">
        <ele>52.5</ele>
        <time>2022-01-05T13:16:58Z</time>
      </trkpt>
      <trkpt lat="49.87567" lon="2.41191">
        <ele>52.5</ele>
        <time>2022-01-05T13:16:59Z</time>
      </trkpt>
      <trkpt lat="49.87566" lon="2.41194">
        <ele>52.6</ele>
        <time>2022-01-05T13:17:00Z</time>
      </trkpt>
      <trkpt lat="49.87566" lon="2.41195">
        <ele>52.6</ele>
        <time>2022-01-05T13:17:01Z</time>
      </trkpt>
      <trkpt lat="49.87566" lon="2.41197">
        <ele>52.7</ele>
        <time>2022-01-05T13:17:02Z</time>
      </trkpt>
      <trkpt lat="49.87566" lon="2.41199">
        <ele>52.7</ele>
        <time>2022-01-05T13:17:04Z</time>
      </trkpt>
      <trkpt lat="49.87566" lon="2.41201">
        <ele>52.8</ele>
        <time>2022-01-05T13:17:05Z</time>
      </trkpt>
      <trkpt lat="49.87566" lon="2.41203">
        <ele>52.8</ele>
        <time>2022-01-05T13:17:06Z</time>
      </trkpt>
      <trkpt lat="49.87566" lon="2.41205">
        <ele>52.8</ele>
        <time>2022-01-05T13:17:07Z</time>
      </trkpt>
      <trkpt lat="49.87566" lon="2.41207">
        <ele>52.9</ele>
        <time>2022-01-05T13:17:08Z</time>
      </trkpt>
      <trkpt lat="49.87567" lon="2.41208">
        <ele>52.9</ele>
        <time>2022-01-05T13:17:09Z</time>
      </trkpt>
      <trkpt lat="49.87567" lon="2.4121">
        <ele>53</ele>
        <time>2022-01-05T13:17:11Z</time>
      </trkpt>
      <trkpt lat="49.87567" lon="2.41212">
        <ele>53</ele>
        <time>2022-01-05T13:17:12Z</time>
      </trkpt>
      <trkpt lat="49.87566" lon="2.41214">
        <ele>53</ele>
        <time>2022-01-05T13:17:13Z</time>
      </trkpt>
      <trkpt lat="49.87566" lon="2.41216">
        <ele>53.1</ele>
        <time>2022-01-05T13:17:14Z</time>
      </trkpt>
      <trkpt lat="49.87567" lon="2.41219">
        <ele>53.1</ele>
        <time>2022-01-05T13:17:16Z</time>
      </trkpt>
      <trkpt lat="49.87566" lon="2.41222">
        <ele>53.2</ele>
        <time>2022-01-05T13:17:18Z</time>
      </trkpt>
      <trkpt lat="49.87566" lon="2.41225">
        <ele>53.2</ele>
        <time>2022-01-05T13:17:19Z</time>
      </trkpt>
      <trkpt lat="49.87566" lon="2.41226">
        <ele>53.3</ele>
        <time>2022-01-05T13:17:20Z</time>
      </trkpt>
      <trkpt lat="49.87566" lon="2.41228">
        <ele>53.3</ele>
        <time>2022-01-05T13:17:21Z</time>
      </trkpt>
      <trkpt lat="49.87567" lon="2.4123">
        <ele>53.3</ele>
        <time>2022-01-05T13:17:22Z</time>
      </trkpt>
      <trkpt lat="49.87567" lon="2.41234">
        <ele>53.4</ele>
        <time>2022-01-05T13:17:24Z</time>
      </trkpt>
      <trkpt lat="49.87567" lon="2.41235">
        <ele>53.4</ele>
        <time>2022-01-05T13:17:25Z</time>
      </trkpt>
      <trkpt lat="49.87567" lon="2.41237">
        <ele>53.4</ele>
        <time>2022-01-05T13:17:26Z</time>
      </trkpt>
      <trkpt lat="49.87566" lon="2.4124">
        <ele>53.5</ele>
        <time>2022-01-05T13:17:27Z</time>
      </trkpt>
      <trkpt lat="49.87566" lon="2.41241">
        <ele>53.5</ele>
        <time>2022-01-05T13:17:28Z</time>
      </trkpt>
      <trkpt lat="49.87566" lon="2.41243">
        <ele>53.5</ele>
        <time>2022-01-05T13:17:29Z</time>
      </trkpt>
      <trkpt lat="49.87566" lon="2.41244">
        <ele>53.6</ele>
        <time>2022-01-05T13:17:30Z</time>
      </trkpt>
      <trkpt lat="49.87565" lon="2.41246">
        <ele>53.6</ele>
        <time>2022-01-05T13:17:31Z</time>
      </trkpt>
      <trkpt lat="49.87565" lon="2.41248">
        <ele>53.6</ele>
        <time>2022-01-05T13:17:32Z</time>
      </trkpt>
      <trkpt lat="49.87565" lon="2.41251">
        <ele>53.7</ele>
        <time>2022-01-05T13:17:34Z</time>
      </trkpt>
      <trkpt lat="49.87565" lon="2.41252">
        <ele>53.7</ele>
        <time>2022-01-05T13:17:35Z</time>
      </trkpt>
      <trkpt lat="49.87565" lon="2.41254">
        <ele>53.7</ele>
        <time>2022-01-05T13:17:36Z</time>
      </trkpt>
      <trkpt lat="49.87564" lon="2.41257">
        <ele>53.8</ele>
        <time>2022-01-05T13:17:37Z</time>
      </trkpt>
      <trkpt lat="49.87564" lon="2.41258">
        <ele>53.8</ele>
        <time>2022-01-05T13:17:38Z</time>
      </trkpt>
      <trkpt lat="49.87564" lon="2.41259">
        <ele>53.9</ele>
        <time>2022-01-05T13:17:39Z</time>
      </trkpt>
      <trkpt lat="49.87563" lon="2.41262">
        <ele>53.9</ele>
        <time>2022-01-05T13:17:40Z</time>
      </trkpt>
      <trkpt lat="49.87563" lon="2.41265">
        <ele>54</ele>
        <time>2022-01-05T13:17:42Z</time>
      </trkpt>
      <trkpt lat="49.87563" lon="2.41267">
        <ele>54</ele>
        <time>2022-01-05T13:17:43Z</time>
      </trkpt>
      <trkpt lat="49.87563" lon="2.41269">
        <ele>54</ele>
        <time>2022-01-05T13:17:44Z</time>
      </trkpt>
      <trkpt lat="49.87563" lon="2.41271">
        <ele>54.1</ele>
        <time>2022-01-05T13:17:45Z</time>
      </trkpt>
      <trkpt lat="49.87562" lon="2.41273">
        <ele>54.1</ele>
        <time>2022-01-05T13:17:46Z</time>
      </trkpt>
      <trkpt lat="49.87562" lon="2.41275">
        <ele>54.1</ele>
        <time>2022-01-05T13:17:48Z</time>
      </trkpt>
      <trkpt lat="49.87562" lon="2.41277">
        <ele>54.2</ele>
        <time>2022-01-05T13:17:49Z</time>
      </trkpt>
      <trkpt lat="49.87562" lon="2.4128">
        <ele>54.2</ele>
        <time>2022-01-05T13:17:50Z</time>
      </trkpt>
      <trkpt lat="49.87562" lon="2.41282">
        <ele>54.3</ele>
        <time>2022-01-05T13:17:51Z</time>
      </trkpt>
      <trkpt lat="49.87561" lon="2.41287">
        <ele>54.3</ele>
        <time>2022-01-05T13:17:52Z</time>
      </trkpt>
      <trkpt lat="49.87561" lon="2.41289">
        <ele>54.4</ele>
        <time>2022-01-05T13:17:54Z</time>
      </trkpt>
      <trkpt lat="49.87561" lon="2.41291">
        <ele>54.4</ele>
        <time>2022-01-05T13:17:55Z</time>
      </trkpt>
      <trkpt lat="49.87561" lon="2.41293">
        <ele>54.4</ele>
        <time>2022-01-05T13:17:56Z</time>
      </trkpt>
      <trkpt lat="49.87561" lon="2.41295">
        <ele>54.5</ele>
        <time>2022-01-05T13:17:57Z</time>
      </trkpt>
      <trkpt lat="49.87561" lon="2.41297">
        <ele>54.5</ele>
        <time>2022-01-05T13:17:58Z</time>
      </trkpt>
      <trkpt lat="49.87561" lon="2.41298">
        <ele>54.5</ele>
        <time>2022-01-05T13:17:59Z</time>
      </trkpt>
      <trkpt lat="49.87561" lon="2.413">
        <ele>54.5</ele>
        <time>2022-01-05T13:18:00Z</time>
      </trkpt>
      <trkpt lat="49.87561" lon="2.41304">
        <ele>54.6</ele>
        <time>2022-01-05T13:18:02Z</time>
      </trkpt>
      <trkpt lat="49.87561" lon="2.41305">
        <ele>54.6</ele>
        <time>2022-01-05T13:18:03Z</time>
      </trkpt>
      <trkpt lat="49.87561" lon="2.41306">
        <ele>54.6</ele>
        <time>2022-01-05T13:18:04Z</time>
      </trkpt>
      <trkpt lat="49.8756" lon="2.41308">
        <ele>54.6</ele>
        <time>2022-01-05T13:18:05Z</time>
      </trkpt>
      <trkpt lat="49.8756" lon="2.41311">
        <ele>54.6</ele>
        <time>2022-01-05T13:18:06Z</time>
      </trkpt>
      <trkpt lat="49.8756" lon="2.41313">
        <ele>54.7</ele>
        <time>2022-01-05T13:18:07Z</time>
      </trkpt>
      <trkpt lat="49.8756" lon="2.41315">
        <ele>54.7</ele>
        <time>2022-01-05T13:18:08Z</time>
      </trkpt>
      <trkpt lat="49.8756" lon="2.41317">
        <ele>54.7</ele>
        <time>2022-01-05T13:18:09Z</time>
      </trkpt>
      <trkpt lat="49.8756" lon="2.41319">
        <ele>54.7</ele>
        <time>2022-01-05T13:18:10Z</time>
      </trkpt>
      <trkpt lat="49.8756" lon="2.41321">
        <ele>54.7</ele>
        <time>2022-01-05T13:18:11Z</time>
      </trkpt>
      <trkpt lat="49.8756" lon="2.41323">
        <ele>54.7</ele>
        <time>2022-01-05T13:18:12Z</time>
      </trkpt>
      <trkpt lat="49.8756" lon="2.41326">
        <ele>54.8</ele>
        <time>2022-01-05T13:18:14Z</time>
      </trkpt>
      <trkpt lat="49.8756" lon="2.41328">
        <ele>54.8</ele>
        <time>2022-01-05T13:18:15Z</time>
      </trkpt>
      <trkpt lat="49.8756" lon="2.4133">
        <ele>54.8</ele>
        <time>2022-01-05T13:18:16Z</time>
      </trkpt>
      <trkpt lat="49.8756" lon="2.41333">
        <ele>54.8</ele>
        <time>2022-01-05T13:18:18Z</time>
      </trkpt>
      <trkpt lat="49.8756" lon="2.41335">
        <ele>54.8</ele>
        <time>2022-01-05T13:18:19Z</time>
      </trkpt>
      <trkpt lat="49.8756" lon="2.41338">
        <ele>54.8</ele>
        <time>2022-01-05T13:18:20Z</time>
      </trkpt>
      <trkpt lat="49.8756" lon="2.4134">
        <ele>54.8</ele>
        <time>2022-01-05T13:18:21Z</time>
      </trkpt>
      <trkpt lat="49.8756" lon="2.41342">
        <ele>54.9</ele>
        <time>2022-01-05T13:18:22Z</time>
      </trkpt>
      <trkpt lat="49.8756" lon="2.41344">
        <ele>54.9</ele>
        <time>2022-01-05T13:18:24Z</time>
      </trkpt>
      <trkpt lat="49.8756" lon="2.41346">
        <ele>54.9</ele>
        <time>2022-01-05T13:18:25Z</time>
      </trkpt>
      <trkpt lat="49.8756" lon="2.41348">
        <ele>54.9</ele>
        <time>2022-01-05T13:18:26Z</time>
      </trkpt>
      <trkpt lat="49.87559" lon="2.41351">
        <ele>54.9</ele>
        <time>2022-01-05T13:18:27Z</time>
      </trkpt>
      <trkpt lat="49.87559" lon="2.41353">
        <ele>54.9</ele>
        <time>2022-01-05T13:18:28Z</time>
      </trkpt>
      <trkpt lat="49.87559" lon="2.41355">
        <ele>54.9</ele>
        <time>2022-01-05T13:18:29Z</time>
      </trkpt>
      <trkpt lat="49.87559" lon="2.41357">
        <ele>55</ele>
        <time>2022-01-05T13:18:31Z</time>
      </trkpt>
      <trkpt lat="49.8756" lon="2.41359">
        <ele>55</ele>
        <time>2022-01-05T13:18:32Z</time>
      </trkpt>
      <trkpt lat="49.8756" lon="2.4136">
        <ele>55</ele>
        <time>2022-01-05T13:18:33Z</time>
      </trkpt>
      <trkpt lat="49.8756" lon="2.41364">
        <ele>55</ele>
        <time>2022-01-05T13:18:35Z</time>
      </trkpt>
      <trkpt lat="49.8756" lon="2.41366">
        <ele>55</ele>
        <time>2022-01-05T13:18:36Z</time>
      </trkpt>
      <trkpt lat="49.87559" lon="2.4137">
        <ele>55.1</ele>
        <time>2022-01-05T13:18:38Z</time>
      </trkpt>
      <trkpt lat="49.87559" lon="2.41372">
        <ele>55.1</ele>
        <time>2022-01-05T13:18:39Z</time>
      </trkpt>
      <trkpt lat="49.87559" lon="2.41375">
        <ele>55.1</ele>
        <time>2022-01-05T13:18:41Z</time>
      </trkpt>
      <trkpt lat="49.87559" lon="2.41377">
        <ele>55.1</ele>
        <time>2022-01-05T13:18:42Z</time>
      </trkpt>
      <trkpt lat="49.87559" lon="2.41381">
        <ele>55.2</ele>
        <time>2022-01-05T13:18:43Z</time>
      </trkpt>
      <trkpt lat="49.87559" lon="2.41383">
        <ele>55.2</ele>
        <time>2022-01-05T13:18:45Z</time>
      </trkpt>
      <trkpt lat="49.87559" lon="2.41386">
        <ele>55.2</ele>
        <time>2022-01-05T13:18:46Z</time>
      </trkpt>
      <trkpt lat="49.87559" lon="2.41387">
        <ele>55.2</ele>
        <time>2022-01-05T13:18:47Z</time>
      </trkpt>
      <trkpt lat="49.87559" lon="2.4139">
        <ele>55.3</ele>
        <time>2022-01-05T13:18:49Z</time>
      </trkpt>
      <trkpt lat="49.87559" lon="2.41392">
        <ele>55.3</ele>
        <time>2022-01-05T13:18:50Z</time>
      </trkpt>
      <trkpt lat="49.87559" lon="2.41395">
        <ele>55.3</ele>
        <time>2022-01-05T13:18:51Z</time>
      </trkpt>
      <trkpt lat="49.87559" lon="2.41399">
        <ele>55.3</ele>
        <time>2022-01-05T13:18:52Z</time>
      </trkpt>
      <trkpt lat="49.87559" lon="2.41401">
        <ele>55.3</ele>
        <time>2022-01-05T13:18:54Z</time>
      </trkpt>
      <trkpt lat="49.8756" lon="2.41403">
        <ele>55.4</ele>
        <time>2022-01-05T13:18:56Z</time>
      </trkpt>
      <trkpt lat="49.8756" lon="2.41405">
        <ele>55.4</ele>
        <time>2022-01-05T13:18:57Z</time>
      </trkpt>
      <trkpt lat="49.8756" lon="2.41407">
        <ele>55.4</ele>
        <time>2022-01-05T13:18:58Z</time>
      </trkpt>
      <trkpt lat="49.8756" lon="2.41409">
        <ele>55.4</ele>
        <time>2022-01-05T13:18:59Z</time>
      </trkpt>
      <trkpt lat="49.8756" lon="2.41412">
        <ele>55.4</ele>
        <time>2022-01-05T13:19:00Z</time>
      </trkpt>
      <trkpt lat="49.8756" lon="2.41414">
        <ele>55.4</ele>
        <time>2022-01-05T13:19:01Z</time>
      </trkpt>
      <trkpt lat="49.8756" lon="2.41416">
        <ele>55.4</ele>
        <time>2022-01-05T13:19:03Z</time>
      </trkpt>
      <trkpt lat="49.8756" lon="2.41417">
        <ele>55.5</ele>
        <time>2022-01-05T13:19:04Z</time>
      </trkpt>
      <trkpt lat="49.8756" lon="2.4142">
        <ele>55.5</ele>
        <time>2022-01-05T13:19:06Z</time>
      </trkpt>
      <trkpt lat="49.8756" lon="2.41422">
        <ele>55.5</ele>
        <time>2022-01-05T13:19:07Z</time>
      </trkpt>
      <trkpt lat="49.8756" lon="2.41423">
        <ele>55.5</ele>
        <time>2022-01-05T13:19:08Z</time>
      </trkpt>
      <trkpt lat="49.8756" lon="2.41425">
        <ele>55.5</ele>
        <time>2022-01-05T13:19:09Z</time>
      </trkpt>
      <trkpt lat="49.8756" lon="2.41427">
        <ele>55.5</ele>
        <time>2022-01-05T13:19:10Z</time>
      </trkpt>
      <trkpt lat="49.8756" lon="2.4143">
        <ele>55.5</ele>
        <time>2022-01-05T13:19:12Z</time>
      </trkpt>
      <trkpt lat="49.87561" lon="2.41433">
        <ele>55.5</ele>
        <time>2022-01-05T13:19:13Z</time>
      </trkpt>
      <trkpt lat="49.87561" lon="2.41435">
        <ele>55.5</ele>
        <time>2022-01-05T13:19:14Z</time>
      </trkpt>
      <trkpt lat="49.87561" lon="2.41437">
        <ele>55.5</ele>
        <time>2022-01-05T13:19:15Z</time>
      </trkpt>
      <trkpt lat="49.87561" lon="2.41439">
        <ele>55.6</ele>
        <time>2022-01-05T13:19:17Z</time>
      </trkpt>
      <trkpt lat="49.87562" lon="2.41441">
        <ele>55.6</ele>
        <time>2022-01-05T13:19:18Z</time>
      </trkpt>
      <trkpt lat="49.87562" lon="2.41443">
        <ele>55.6</ele>
        <time>2022-01-05T13:19:19Z</time>
      </trkpt>
      <trkpt lat="49.87562" lon="2.41445">
        <ele>55.6</ele>
        <time>2022-01-05T13:19:20Z</time>
      </trkpt>
      <trkpt lat="49.87563" lon="2.41449">
        <ele>55.6</ele>
        <time>2022-01-05T13:19:22Z</time>
      </trkpt>
      <trkpt lat="49.87563" lon="2.4145">
        <ele>55.6</ele>
        <time>2022-01-05T13:19:23Z</time>
      </trkpt>
      <trkpt lat="49.87563" lon="2.41454">
        <ele>55.6</ele>
        <time>2022-01-05T13:19:24Z</time>
      </trkpt>
      <trkpt lat="49.87563" lon="2.41455">
        <ele>55.6</ele>
        <time>2022-01-05T13:19:25Z</time>
      </trkpt>
      <trkpt lat="49.87563" lon="2.41457">
        <ele>55.6</ele>
        <time>2022-01-05T13:19:26Z</time>
      </trkpt>
      <trkpt lat="49.87563" lon="2.41459">
        <ele>55.6</ele>
        <time>2022-01-05T13:19:27Z</time>
      </trkpt>
      <trkpt lat="49.87563" lon="2.41461">
        <ele>55.7</ele>
        <time>2022-01-05T13:19:28Z</time>
      </trkpt>
      <trkpt lat="49.87563" lon="2.41463">
        <ele>55.7</ele>
        <time>2022-01-05T13:19:30Z</time>
      </trkpt>
      <trkpt lat="49.87563" lon="2.41466">
        <ele>55.7</ele>
        <time>2022-01-05T13:19:31Z</time>
      </trkpt>
      <trkpt lat="49.87562" lon="2.41468">
        <ele>55.7</ele>
        <time>2022-01-05T13:19:32Z</time>
      </trkpt>
      <trkpt lat="49.87562" lon="2.41469">
        <ele>55.7</ele>
        <time>2022-01-05T13:19:33Z</time>
      </trkpt>
      <trkpt lat="49.87562" lon="2.41471">
        <ele>55.7</ele>
        <time>2022-01-05T13:19:35Z</time>
      </trkpt>
      <trkpt lat="49.87562" lon="2.41474">
        <ele>55.7</ele>
        <time>2022-01-05T13:19:36Z</time>
      </trkpt>
      <trkpt lat="49.87562" lon="2.41476">
        <ele>55.7</ele>
        <time>2022-01-05T13:19:37Z</time>
      </trkpt>
      <trkpt lat="49.87562" lon="2.41478">
        <ele>55.7</ele>
        <time>2022-01-05T13:19:38Z</time>
      </trkpt>
      <trkpt lat="49.87562" lon="2.4148">
        <ele>55.7</ele>
        <time>2022-01-05T13:19:39Z</time>
      </trkpt>
      <trkpt lat="49.87562" lon="2.41483">
        <ele>55.7</ele>
        <time>2022-01-05T13:19:40Z</time>
      </trkpt>
      <trkpt lat="49.87562" lon="2.41486">
        <ele>55.8</ele>
        <time>2022-01-05T13:19:42Z</time>
      </trkpt>
      <trkpt lat="49.87562" lon="2.41487">
        <ele>55.8</ele>
        <time>2022-01-05T13:19:43Z</time>
      </trkpt>
      <trkpt lat="49.87562" lon="2.41489">
        <ele>55.8</ele>
        <time>2022-01-05T13:19:44Z</time>
      </trkpt>
      <trkpt lat="49.87562" lon="2.41492">
        <ele>55.8</ele>
        <time>2022-01-05T13:19:45Z</time>
      </trkpt>
      <trkpt lat="49.87563" lon="2.41493">
        <ele>55.8</ele>
        <time>2022-01-05T13:19:46Z</time>
      </trkpt>
      <trkpt lat="49.87563" lon="2.41494">
        <ele>55.8</ele>
        <time>2022-01-05T13:19:47Z</time>
      </trkpt>
      <trkpt lat="49.87563" lon="2.41497">
        <ele>55.8</ele>
        <time>2022-01-05T13:19:48Z</time>
      </trkpt>
      <trkpt lat="49.87563" lon="2.415">
        <ele>55.8</ele>
        <time>2022-01-05T13:19:50Z</time>
      </trkpt>
      <trkpt lat="49.87563" lon="2.41503">
        <ele>55.8</ele>
        <time>2022-01-05T13:19:51Z</time>
      </trkpt>
      <trkpt lat="49.87563" lon="2.41505">
        <ele>55.8</ele>
        <time>2022-01-05T13:19:52Z</time>
      </trkpt>
      <trkpt lat="49.87563" lon="2.41508">
        <ele>55.8</ele>
        <time>2022-01-05T13:19:53Z</time>
      </trkpt>
      <trkpt lat="49.87564" lon="2.4151">
        <ele>55.8</ele>
        <time>2022-01-05T13:19:55Z</time>
      </trkpt>
      <trkpt lat="49.87564" lon="2.41514">
        <ele>55.8</ele>
        <time>2022-01-05T13:19:56Z</time>
      </trkpt>
      <trkpt lat="49.87564" lon="2.41516">
        <ele>55.8</ele>
        <time>2022-01-05T13:19:58Z</time>
      </trkpt>
      <trkpt lat="49.87564" lon="2.4152">
        <ele>55.8</ele>
        <time>2022-01-05T13:20:00Z</time>
      </trkpt>
      <trkpt lat="49.87564" lon="2.41523">
        <ele>55.8</ele>
        <time>2022-01-05T13:20:02Z</time>
      </trkpt>
      <trkpt lat="49.87565" lon="2.41527">
        <ele>55.8</ele>
        <time>2022-01-05T13:20:03Z</time>
      </trkpt>
      <trkpt lat="49.87565" lon="2.41528">
        <ele>55.8</ele>
        <time>2022-01-05T13:20:04Z</time>
      </trkpt>
      <trkpt lat="49.87565" lon="2.41529">
        <ele>55.8</ele>
        <time>2022-01-05T13:20:05Z</time>
      </trkpt>
      <trkpt lat="49.87566" lon="2.41533">
        <ele>55.8</ele>
        <time>2022-01-05T13:20:07Z</time>
      </trkpt>
      <trkpt lat="49.87566" lon="2.41534">
        <ele>55.8</ele>
        <time>2022-01-05T13:20:08Z</time>
      </trkpt>
      <trkpt lat="49.87566" lon="2.41538">
        <ele>55.7</ele>
        <time>2022-01-05T13:20:09Z</time>
      </trkpt>
      <trkpt lat="49.87566" lon="2.4154">
        <ele>55.7</ele>
        <time>2022-01-05T13:20:10Z</time>
      </trkpt>
      <trkpt lat="49.87566" lon="2.41542">
        <ele>55.7</ele>
        <time>2022-01-05T13:20:11Z</time>
      </trkpt>
      <trkpt lat="49.87567" lon="2.41545">
        <ele>55.7</ele>
        <time>2022-01-05T13:20:13Z</time>
      </trkpt>
      <trkpt lat="49.87567" lon="2.41547">
        <ele>55.7</ele>
        <time>2022-01-05T13:20:14Z</time>
      </trkpt>
      <trkpt lat="49.87567" lon="2.41551">
        <ele>55.7</ele>
        <time>2022-01-05T13:20:16Z</time>
      </trkpt>
      <trkpt lat="49.87567" lon="2.41552">
        <ele>55.7</ele>
        <time>2022-01-05T13:20:17Z</time>
      </trkpt>
      <trkpt lat="49.87568" lon="2.41554">
        <ele>55.7</ele>
        <time>2022-01-05T13:20:18Z</time>
      </trkpt>
      <trkpt lat="49.87568" lon="2.41556">
        <ele>55.7</ele>
        <time>2022-01-05T13:20:20Z</time>
      </trkpt>
      <trkpt lat="49.87568" lon="2.41559">
        <ele>55.7</ele>
        <time>2022-01-05T13:20:21Z</time>
      </trkpt>
      <trkpt lat="49.87569" lon="2.41561">
        <ele>55.7</ele>
        <time>2022-01-05T13:20:22Z</time>
      </trkpt>
      <trkpt lat="49.87569" lon="2.41564">
        <ele>55.6</ele>
        <time>2022-01-05T13:20:24Z</time>
      </trkpt>
      <trkpt lat="49.87569" lon="2.41566">
        <ele>55.6</ele>
        <time>2022-01-05T13:20:25Z</time>
      </trkpt>
      <trkpt lat="49.87569" lon="2.41569">
        <ele>55.6</ele>
        <time>2022-01-05T13:20:26Z</time>
      </trkpt>
      <trkpt lat="49.87569" lon="2.41572">
        <ele>55.6</ele>
        <time>2022-01-05T13:20:27Z</time>
      </trkpt>
      <trkpt lat="49.87569" lon="2.41574">
        <ele>55.6</ele>
        <time>2022-01-05T13:20:28Z</time>
      </trkpt>
      <trkpt lat="49.8757" lon="2.41576">
        <ele>55.6</ele>
        <time>2022-01-05T13:20:29Z</time>
      </trkpt>
      <trkpt lat="49.8757" lon="2.41578">
        <ele>55.6</ele>
        <time>2022-01-05T13:20:31Z</time>
      </trkpt>
      <trkpt lat="49.87571" lon="2.41582">
        <ele>55.6</ele>
        <time>2022-01-05T13:20:33Z</time>
      </trkpt>
      <trkpt lat="49.87571" lon="2.41583">
        <ele>55.6</ele>
        <time>2022-01-05T13:20:34Z</time>
      </trkpt>
      <trkpt lat="49.87572" lon="2.41588">
        <ele>55.6</ele>
        <time>2022-01-05T13:20:36Z</time>
      </trkpt>
      <trkpt lat="49.87572" lon="2.41589">
        <ele>55.6</ele>
        <time>2022-01-05T13:20:37Z</time>
      </trkpt>
      <trkpt lat="49.87573" lon="2.41592">
        <ele>55.6</ele>
        <time>2022-01-05T13:20:39Z</time>
      </trkpt>
      <trkpt lat="49.87574" lon="2.41594">
        <ele>55.6</ele>
        <time>2022-01-05T13:20:40Z</time>
      </trkpt>
      <trkpt lat="49.87574" lon="2.41596">
        <ele>55.6</ele>
        <time>2022-01-05T13:20:41Z</time>
      </trkpt>
      <trkpt lat="49.87574" lon="2.41599">
        <ele>55.6</ele>
        <time>2022-01-05T13:20:43Z</time>
      </trkpt>
      <trkpt lat="49.87574" lon="2.41601">
        <ele>55.6</ele>
        <time>2022-01-05T13:20:44Z</time>
      </trkpt>
      <trkpt lat="49.87574" lon="2.41604">
        <ele>55.6</ele>
        <time>2022-01-05T13:20:45Z</time>
      </trkpt>
      <trkpt lat="49.87574" lon="2.41606">
        <ele>55.6</ele>
        <time>2022-01-05T13:20:47Z</time>
      </trkpt>
      <trkpt lat="49.87574" lon="2.41608">
        <ele>55.6</ele>
        <time>2022-01-05T13:20:48Z</time>
      </trkpt>
      <trkpt lat="49.87574" lon="2.41609">
        <ele>55.6</ele>
        <time>2022-01-05T13:20:49Z</time>
      </trkpt>
      <trkpt lat="49.87575" lon="2.41611">
        <ele>55.6</ele>
        <time>2022-01-05T13:20:50Z</time>
      </trkpt>
      <trkpt lat="49.87575" lon="2.41613">
        <ele>55.6</ele>
        <time>2022-01-05T13:20:51Z</time>
      </trkpt>
      <trkpt lat="49.87575" lon="2.41614">
        <ele>55.6</ele>
        <time>2022-01-05T13:20:52Z</time>
      </trkpt>
      <trkpt lat="49.87576" lon="2.41616">
        <ele>55.6</ele>
        <time>2022-01-05T13:20:53Z</time>
      </trkpt>
      <trkpt lat="49.87576" lon="2.41618">
        <ele>55.6</ele>
        <time>2022-01-05T13:20:54Z</time>
      </trkpt>
      <trkpt lat="49.87576" lon="2.41619">
        <ele>55.6</ele>
        <time>2022-01-05T13:20:55Z</time>
      </trkpt>
      <trkpt lat="49.87577" lon="2.41622">
        <ele>55.6</ele>
        <time>2022-01-05T13:20:57Z</time>
      </trkpt>
      <trkpt lat="49.87577" lon="2.41625">
        <ele>55.6</ele>
        <time>2022-01-05T13:20:59Z</time>
      </trkpt>
      <trkpt lat="49.87578" lon="2.41628">
        <ele>55.6</ele>
        <time>2022-01-05T13:21:00Z</time>
      </trkpt>
      <trkpt lat="49.87578" lon="2.4163">
        <ele>55.6</ele>
        <time>2022-01-05T13:21:01Z</time>
      </trkpt>
      <trkpt lat="49.87578" lon="2.41631">
        <ele>55.6</ele>
        <time>2022-01-05T13:21:02Z</time>
      </trkpt>
      <trkpt lat="49.87579" lon="2.41634">
        <ele>55.6</ele>
        <time>2022-01-05T13:21:03Z</time>
      </trkpt>
      <trkpt lat="49.87579" lon="2.41636">
        <ele>55.6</ele>
        <time>2022-01-05T13:21:04Z</time>
      </trkpt>
      <trkpt lat="49.87579" lon="2.41637">
        <ele>55.6</ele>
        <time>2022-01-05T13:21:05Z</time>
      </trkpt>
      <trkpt lat="49.8758" lon="2.41641">
        <ele>55.6</ele>
        <time>2022-01-05T13:21:06Z</time>
      </trkpt>
      <trkpt lat="49.8758" lon="2.41643">
        <ele>55.6</ele>
        <time>2022-01-05T13:21:08Z</time>
      </trkpt>
      <trkpt lat="49.87581" lon="2.41645">
        <ele>55.6</ele>
        <time>2022-01-05T13:21:09Z</time>
      </trkpt>
      <trkpt lat="49.87581" lon="2.41647">
        <ele>55.6</ele>
        <time>2022-01-05T13:21:10Z</time>
      </trkpt>
      <trkpt lat="49.87581" lon="2.41648">
        <ele>55.6</ele>
        <time>2022-01-05T13:21:12Z</time>
      </trkpt>
      <trkpt lat="49.87582" lon="2.4165">
        <ele>55.6</ele>
        <time>2022-01-05T13:21:13Z</time>
      </trkpt>
      <trkpt lat="49.87582" lon="2.41651">
        <ele>55.6</ele>
        <time>2022-01-05T13:21:14Z</time>
      </trkpt>
      <trkpt lat="49.87583" lon="2.41653">
        <ele>55.6</ele>
        <time>2022-01-05T13:21:15Z</time>
      </trkpt>
      <trkpt lat="49.87583" lon="2.41655">
        <ele>55.6</ele>
        <time>2022-01-05T13:21:16Z</time>
      </trkpt>
      <trkpt lat="49.87583" lon="2.41657">
        <ele>55.6</ele>
        <time>2022-01-05T13:21:18Z</time>
      </trkpt>
      <trkpt lat="49.87584" lon="2.4166">
        <ele>55.6</ele>
        <time>2022-01-05T13:21:19Z</time>
      </trkpt>
      <trkpt lat="49.87585" lon="2.41662">
        <ele>55.6</ele>
        <time>2022-01-05T13:21:20Z</time>
      </trkpt>
      <trkpt lat="49.87585" lon="2.41663">
        <ele>55.6</ele>
        <time>2022-01-05T13:21:21Z</time>
      </trkpt>
      <trkpt lat="49.87585" lon="2.41665">
        <ele>55.6</ele>
        <time>2022-01-05T13:21:22Z</time>
      </trkpt>
      <trkpt lat="49.87586" lon="2.41667">
        <ele>55.6</ele>
        <time>2022-01-05T13:21:24Z</time>
      </trkpt>
      <trkpt lat="49.87586" lon="2.4167">
        <ele>55.6</ele>
        <time>2022-01-05T13:21:26Z</time>
      </trkpt>
      <trkpt lat="49.87587" lon="2.41672">
        <ele>55.6</ele>
        <time>2022-01-05T13:21:27Z</time>
      </trkpt>
      <trkpt lat="49.87588" lon="2.41675">
        <ele>55.6</ele>
        <time>2022-01-05T13:21:29Z</time>
      </trkpt>
      <trkpt lat="49.87588" lon="2.41676">
        <ele>55.6</ele>
        <time>2022-01-05T13:21:30Z</time>
      </trkpt>
      <trkpt lat="49.87588" lon="2.41678">
        <ele>55.6</ele>
        <time>2022-01-05T13:21:31Z</time>
      </trkpt>
      <trkpt lat="49.87589" lon="2.4168">
        <ele>55.6</ele>
        <time>2022-01-05T13:21:32Z</time>
      </trkpt>
      <trkpt lat="49.87589" lon="2.41682">
        <ele>55.6</ele>
        <time>2022-01-05T13:21:33Z</time>
      </trkpt>
      <trkpt lat="49.8759" lon="2.41686">
        <ele>55.6</ele>
        <time>2022-01-05T13:21:35Z</time>
      </trkpt>
      <trkpt lat="49.8759" lon="2.41687">
        <ele>55.6</ele>
        <time>2022-01-05T13:21:36Z</time>
      </trkpt>
      <trkpt lat="49.8759" lon="2.41689">
        <ele>55.6</ele>
        <time>2022-01-05T13:21:37Z</time>
      </trkpt>
      <trkpt lat="49.87591" lon="2.41691">
        <ele>55.6</ele>
        <time>2022-01-05T13:21:38Z</time>
      </trkpt>
      <trkpt lat="49.87593" lon="2.41696">
        <ele>55.6</ele>
        <time>2022-01-05T13:21:39Z</time>
      </trkpt>
      <trkpt lat="49.87593" lon="2.41697">
        <ele>55.6</ele>
        <time>2022-01-05T13:21:41Z</time>
      </trkpt>
      <trkpt lat="49.87594" lon="2.41699">
        <ele>55.6</ele>
        <time>2022-01-05T13:21:43Z</time>
      </trkpt>
      <trkpt lat="49.87595" lon="2.417">
        <ele>55.6</ele>
        <time>2022-01-05T13:21:44Z</time>
      </trkpt>
      <trkpt lat="49.87595" lon="2.41702">
        <ele>55.6</ele>
        <time>2022-01-05T13:21:45Z</time>
      </trkpt>
      <trkpt lat="49.87596" lon="2.41704">
        <ele>55.6</ele>
        <time>2022-01-05T13:21:46Z</time>
      </trkpt>
      <trkpt lat="49.87597" lon="2.41706">
        <ele>55.6</ele>
        <time>2022-01-05T13:21:48Z</time>
      </trkpt>
      <trkpt lat="49.87598" lon="2.41708">
        <ele>55.6</ele>
        <time>2022-01-05T13:21:49Z</time>
      </trkpt>
      <trkpt lat="49.87599" lon="2.4171">
        <ele>55.6</ele>
        <time>2022-01-05T13:21:50Z</time>
      </trkpt>
      <trkpt lat="49.876" lon="2.41713">
        <ele>55.6</ele>
        <time>2022-01-05T13:21:51Z</time>
      </trkpt>
      <trkpt lat="49.876" lon="2.41715">
        <ele>55.6</ele>
        <time>2022-01-05T13:21:53Z</time>
      </trkpt>
      <trkpt lat="49.87601" lon="2.41716">
        <ele>55.6</ele>
        <time>2022-01-05T13:21:54Z</time>
      </trkpt>
      <trkpt lat="49.87601" lon="2.41717">
        <ele>55.6</ele>
        <time>2022-01-05T13:21:55Z</time>
      </trkpt>
      <trkpt lat="49.87602" lon="2.41719">
        <ele>55.6</ele>
        <time>2022-01-05T13:21:56Z</time>
      </trkpt>
      <trkpt lat="49.87603" lon="2.41721">
        <ele>55.6</ele>
        <time>2022-01-05T13:21:57Z</time>
      </trkpt>
      <trkpt lat="49.87603" lon="2.41722">
        <ele>55.6</ele>
        <time>2022-01-05T13:21:58Z</time>
      </trkpt>
      <trkpt lat="49.87604" lon="2.41725">
        <ele>55.6</ele>
        <time>2022-01-05T13:22:00Z</time>
      </trkpt>
      <trkpt lat="49.87605" lon="2.41727">
        <ele>55.6</ele>
        <time>2022-01-05T13:22:01Z</time>
      </trkpt>
      <trkpt lat="49.87606" lon="2.41729">
        <ele>55.7</ele>
        <time>2022-01-05T13:22:02Z</time>
      </trkpt>
      <trkpt lat="49.87607" lon="2.41731">
        <ele>55.7</ele>
        <time>2022-01-05T13:22:03Z</time>
      </trkpt>
      <trkpt lat="49.87607" lon="2.41733">
        <ele>55.7</ele>
        <time>2022-01-05T13:22:04Z</time>
      </trkpt>
      <trkpt lat="49.87608" lon="2.41735">
        <ele>55.7</ele>
        <time>2022-01-05T13:22:05Z</time>
      </trkpt>
      <trkpt lat="49.87608" lon="2.41737">
        <ele>55.7</ele>
        <time>2022-01-05T13:22:06Z</time>
      </trkpt>
      <trkpt lat="49.87609" lon="2.41739">
        <ele>55.7</ele>
        <time>2022-01-05T13:22:08Z</time>
      </trkpt>
      <trkpt lat="49.8761" lon="2.41741">
        <ele>55.6</ele>
        <time>2022-01-05T13:22:09Z</time>
      </trkpt>
      <trkpt lat="49.87611" lon="2.41743">
        <ele>55.6</ele>
        <time>2022-01-05T13:22:10Z</time>
      </trkpt>
      <trkpt lat="49.87611" lon="2.41744">
        <ele>55.6</ele>
        <time>2022-01-05T13:22:11Z</time>
      </trkpt>
      <trkpt lat="49.87612" lon="2.41746">
        <ele>55.6</ele>
        <time>2022-01-05T13:22:12Z</time>
      </trkpt>
      <trkpt lat="49.87612" lon="2.41748">
        <ele>55.6</ele>
        <time>2022-01-05T13:22:13Z</time>
      </trkpt>
      <trkpt lat="49.87613" lon="2.41751">
        <ele>55.6</ele>
        <time>2022-01-05T13:22:14Z</time>
      </trkpt>
      <trkpt lat="49.87613" lon="2.41753">
        <ele>55.6</ele>
        <time>2022-01-05T13:22:16Z</time>
      </trkpt>
      <trkpt lat="49.87614" lon="2.41754">
        <ele>55.6</ele>
        <time>2022-01-05T13:22:17Z</time>
      </trkpt>
      <trkpt lat="49.87614" lon="2.41756">
        <ele>55.6</ele>
        <time>2022-01-05T13:22:18Z</time>
      </trkpt>
      <trkpt lat="49.87615" lon="2.41757">
        <ele>55.6</ele>
        <time>2022-01-05T13:22:19Z</time>
      </trkpt>
      <trkpt lat="49.87615" lon="2.41759">
        <ele>55.6</ele>
        <time>2022-01-05T13:22:20Z</time>
      </trkpt>
      <trkpt lat="49.87617" lon="2.41761">
        <ele>55.6</ele>
        <time>2022-01-05T13:22:21Z</time>
      </trkpt>
      <trkpt lat="49.87617" lon="2.41763">
        <ele>55.6</ele>
        <time>2022-01-05T13:22:23Z</time>
      </trkpt>
      <trkpt lat="49.87618" lon="2.41765">
        <ele>55.6</ele>
        <time>2022-01-05T13:22:24Z</time>
      </trkpt>
      <trkpt lat="49.87618" lon="2.41766">
        <ele>55.6</ele>
        <time>2022-01-05T13:22:25Z</time>
      </trkpt>
      <trkpt lat="49.87619" lon="2.41768">
        <ele>55.6</ele>
        <time>2022-01-05T13:22:26Z</time>
      </trkpt>
      <trkpt lat="49.8762" lon="2.41771">
        <ele>55.6</ele>
        <time>2022-01-05T13:22:28Z</time>
      </trkpt>
      <trkpt lat="49.87621" lon="2.41772">
        <ele>55.6</ele>
        <time>2022-01-05T13:22:29Z</time>
      </trkpt>
      <trkpt lat="49.87621" lon="2.41774">
        <ele>55.5</ele>
        <time>2022-01-05T13:22:30Z</time>
      </trkpt>
      <trkpt lat="49.87622" lon="2.41775">
        <ele>55.5</ele>
        <time>2022-01-05T13:22:31Z</time>
      </trkpt>
      <trkpt lat="49.87623" lon="2.41778">
        <ele>55.5</ele>
        <time>2022-01-05T13:22:32Z</time>
      </trkpt>
      <trkpt lat="49.87624" lon="2.41781">
        <ele>55.5</ele>
        <time>2022-01-05T13:22:34Z</time>
      </trkpt>
      <trkpt lat="49.87625" lon="2.41784">
        <ele>55.4</ele>
        <time>2022-01-05T13:22:35Z</time>
      </trkpt>
      <trkpt lat="49.87626" lon="2.41786">
        <ele>55.4</ele>
        <time>2022-01-05T13:22:37Z</time>
      </trkpt>
      <trkpt lat="49.87626" lon="2.41788">
        <ele>55.4</ele>
        <time>2022-01-05T13:22:39Z</time>
      </trkpt>
      <trkpt lat="49.87627" lon="2.4179">
        <ele>55.4</ele>
        <time>2022-01-05T13:22:40Z</time>
      </trkpt>
      <trkpt lat="49.87628" lon="2.41793">
        <ele>55.4</ele>
        <time>2022-01-05T13:22:41Z</time>
      </trkpt>
      <trkpt lat="49.87628" lon="2.41794">
        <ele>55.3</ele>
        <time>2022-01-05T13:22:42Z</time>
      </trkpt>
      <trkpt lat="49.87628" lon="2.41796">
        <ele>55.3</ele>
        <time>2022-01-05T13:22:43Z</time>
      </trkpt>
      <trkpt lat="49.87629" lon="2.41799">
        <ele>55.3</ele>
        <time>2022-01-05T13:22:45Z</time>
      </trkpt>
      <trkpt lat="49.8763" lon="2.41801">
        <ele>55.3</ele>
        <time>2022-01-05T13:22:46Z</time>
      </trkpt>
      <trkpt lat="49.87631" lon="2.41804">
        <ele>55.2</ele>
        <time>2022-01-05T13:22:47Z</time>
      </trkpt>
      <trkpt lat="49.87631" lon="2.41806">
        <ele>55.2</ele>
        <time>2022-01-05T13:22:49Z</time>
      </trkpt>
      <trkpt lat="49.87632" lon="2.41808">
        <ele>55.1</ele>
        <time>2022-01-05T13:22:50Z</time>
      </trkpt>
      <trkpt lat="49.87632" lon="2.4181">
        <ele>55.1</ele>
        <time>2022-01-05T13:22:51Z</time>
      </trkpt>
      <trkpt lat="49.87633" lon="2.41811">
        <ele>55.1</ele>
        <time>2022-01-05T13:22:52Z</time>
      </trkpt>
      <trkpt lat="49.87633" lon="2.41814">
        <ele>55.1</ele>
        <time>2022-01-05T13:22:53Z</time>
      </trkpt>
      <trkpt lat="49.87634" lon="2.41816">
        <ele>55</ele>
        <time>2022-01-05T13:22:54Z</time>
      </trkpt>
      <trkpt lat="49.87634" lon="2.41818">
        <ele>55</ele>
        <time>2022-01-05T13:22:55Z</time>
      </trkpt>
      <trkpt lat="49.87635" lon="2.41822">
        <ele>55</ele>
        <time>2022-01-05T13:22:57Z</time>
      </trkpt>
      <trkpt lat="49.87636" lon="2.41826">
        <ele>55</ele>
        <time>2022-01-05T13:22:58Z</time>
      </trkpt>
      <trkpt lat="49.87637" lon="2.41828">
        <ele>55</ele>
        <time>2022-01-05T13:23:00Z</time>
      </trkpt>
      <trkpt lat="49.87637" lon="2.4183">
        <ele>54.9</ele>
        <time>2022-01-05T13:23:01Z</time>
      </trkpt>
      <trkpt lat="49.87638" lon="2.41832">
        <ele>54.9</ele>
        <time>2022-01-05T13:23:03Z</time>
      </trkpt>
      <trkpt lat="49.87638" lon="2.41833">
        <ele>54.9</ele>
        <time>2022-01-05T13:23:04Z</time>
      </trkpt>
      <trkpt lat="49.87639" lon="2.41835">
        <ele>54.8</ele>
        <time>2022-01-05T13:23:05Z</time>
      </trkpt>
      <trkpt lat="49.87639" lon="2.41837">
        <ele>54.8</ele>
        <time>2022-01-05T13:23:06Z</time>
      </trkpt>
      <trkpt lat="49.8764" lon="2.4184">
        <ele>54.8</ele>
        <time>2022-01-05T13:23:08Z</time>
      </trkpt>
      <trkpt lat="49.8764" lon="2.41842">
        <ele>54.8</ele>
        <time>2022-01-05T13:23:09Z</time>
      </trkpt>
      <trkpt lat="49.8764" lon="2.41844">
        <ele>54.7</ele>
        <time>2022-01-05T13:23:10Z</time>
      </trkpt>
      <trkpt lat="49.87641" lon="2.41846">
        <ele>54.7</ele>
        <time>2022-01-05T13:23:11Z</time>
      </trkpt>
      <trkpt lat="49.87641" lon="2.4185">
        <ele>54.7</ele>
        <time>2022-01-05T13:23:12Z</time>
      </trkpt>
      <trkpt lat="49.87642" lon="2.41852">
        <ele>54.6</ele>
        <time>2022-01-05T13:23:14Z</time>
      </trkpt>
      <trkpt lat="49.87642" lon="2.41854">
        <ele>54.6</ele>
        <time>2022-01-05T13:23:15Z</time>
      </trkpt>
      <trkpt lat="49.87643" lon="2.41857">
        <ele>54.6</ele>
        <time>2022-01-05T13:23:16Z</time>
      </trkpt>
      <trkpt lat="49.87643" lon="2.4186">
        <ele>54.5</ele>
        <time>2022-01-05T13:23:18Z</time>
      </trkpt>
      <trkpt lat="49.87644" lon="2.41863">
        <ele>54.5</ele>
        <time>2022-01-05T13:23:20Z</time>
      </trkpt>
      <trkpt lat="49.87644" lon="2.41865">
        <ele>54.5</ele>
        <time>2022-01-05T13:23:21Z</time>
      </trkpt>
      <trkpt lat="49.87644" lon="2.41867">
        <ele>54.4</ele>
        <time>2022-01-05T13:23:22Z</time>
      </trkpt>
      <trkpt lat="49.87644" lon="2.41868">
        <ele>54.4</ele>
        <time>2022-01-05T13:23:23Z</time>
      </trkpt>
      <trkpt lat="49.87644" lon="2.41871">
        <ele>54.4</ele>
        <time>2022-01-05T13:23:25Z</time>
      </trkpt>
      <trkpt lat="49.87645" lon="2.41874">
        <ele>54.3</ele>
        <time>2022-01-05T13:23:26Z</time>
      </trkpt>
      <trkpt lat="49.87645" lon="2.41878">
        <ele>54.3</ele>
        <time>2022-01-05T13:23:27Z</time>
      </trkpt>
      <trkpt lat="49.87646" lon="2.4188">
        <ele>54.3</ele>
        <time>2022-01-05T13:23:29Z</time>
      </trkpt>
      <trkpt lat="49.87646" lon="2.41882">
        <ele>54.2</ele>
        <time>2022-01-05T13:23:30Z</time>
      </trkpt>
      <trkpt lat="49.87646" lon="2.41884">
        <ele>54.2</ele>
        <time>2022-01-05T13:23:31Z</time>
      </trkpt>
      <trkpt lat="49.87647" lon="2.41888">
        <ele>54.2</ele>
        <time>2022-01-05T13:23:32Z</time>
      </trkpt>
      <trkpt lat="49.87647" lon="2.41889">
        <ele>54.1</ele>
        <time>2022-01-05T13:23:33Z</time>
      </trkpt>
      <trkpt lat="49.87647" lon="2.4189">
        <ele>54.1</ele>
        <time>2022-01-05T13:23:34Z</time>
      </trkpt>
      <trkpt lat="49.87648" lon="2.41896">
        <ele>54</ele>
        <time>2022-01-05T13:23:36Z</time>
      </trkpt>
      <trkpt lat="49.87648" lon="2.41897">
        <ele>54</ele>
        <time>2022-01-05T13:23:38Z</time>
      </trkpt>
      <trkpt lat="49.87649" lon="2.41899">
        <ele>54</ele>
        <time>2022-01-05T13:23:39Z</time>
      </trkpt>
      <trkpt lat="49.87649" lon="2.419">
        <ele>54</ele>
        <time>2022-01-05T13:23:40Z</time>
      </trkpt>
      <trkpt lat="49.87649" lon="2.41903">
        <ele>53.9</ele>
        <time>2022-01-05T13:23:41Z</time>
      </trkpt>
      <trkpt lat="49.8765" lon="2.41906">
        <ele>53.9</ele>
        <time>2022-01-05T13:23:43Z</time>
      </trkpt>
      <trkpt lat="49.87651" lon="2.4191">
        <ele>53.8</ele>
        <time>2022-01-05T13:23:45Z</time>
      </trkpt>
      <trkpt lat="49.87651" lon="2.41911">
        <ele>53.8</ele>
        <time>2022-01-05T13:23:46Z</time>
      </trkpt>
      <trkpt lat="49.87651" lon="2.41914">
        <ele>53.7</ele>
        <time>2022-01-05T13:23:47Z</time>
      </trkpt>
      <trkpt lat="49.87652" lon="2.41916">
        <ele>53.7</ele>
        <time>2022-01-05T13:23:48Z</time>
      </trkpt>
      <trkpt lat="49.87652" lon="2.41918">
        <ele>53.6</ele>
        <time>2022-01-05T13:23:49Z</time>
      </trkpt>
      <trkpt lat="49.87653" lon="2.41922">
        <ele>53.6</ele>
        <time>2022-01-05T13:23:51Z</time>
      </trkpt>
      <trkpt lat="49.87653" lon="2.41925">
        <ele>53.5</ele>
        <time>2022-01-05T13:23:52Z</time>
      </trkpt>
      <trkpt lat="49.87654" lon="2.41928">
        <ele>53.4</ele>
        <time>2022-01-05T13:23:54Z</time>
      </trkpt>
      <trkpt lat="49.87654" lon="2.41931">
        <ele>53.4</ele>
        <time>2022-01-05T13:23:55Z</time>
      </trkpt>
      <trkpt lat="49.87654" lon="2.41934">
        <ele>53.3</ele>
        <time>2022-01-05T13:23:57Z</time>
      </trkpt>
      <trkpt lat="49.87654" lon="2.41937">
        <ele>53.3</ele>
        <time>2022-01-05T13:23:58Z</time>
      </trkpt>
      <trkpt lat="49.87655" lon="2.41939">
        <ele>53.2</ele>
        <time>2022-01-05T13:23:59Z</time>
      </trkpt>
      <trkpt lat="49.87655" lon="2.41944">
        <ele>53.1</ele>
        <time>2022-01-05T13:24:01Z</time>
      </trkpt>
      <trkpt lat="49.87654" lon="2.41945">
        <ele>53.1</ele>
        <time>2022-01-05T13:24:02Z</time>
      </trkpt>
      <trkpt lat="49.87654" lon="2.41947">
        <ele>53</ele>
        <time>2022-01-05T13:24:03Z</time>
      </trkpt>
      <trkpt lat="49.87655" lon="2.41949">
        <ele>53</ele>
        <time>2022-01-05T13:24:04Z</time>
      </trkpt>
      <trkpt lat="49.87655" lon="2.41952">
        <ele>53</ele>
        <time>2022-01-05T13:24:06Z</time>
      </trkpt>
      <trkpt lat="49.87655" lon="2.41954">
        <ele>52.9</ele>
        <time>2022-01-05T13:24:07Z</time>
      </trkpt>
      <trkpt lat="49.87656" lon="2.41957">
        <ele>52.9</ele>
        <time>2022-01-05T13:24:08Z</time>
      </trkpt>
      <trkpt lat="49.87657" lon="2.4196">
        <ele>52.8</ele>
        <time>2022-01-05T13:24:10Z</time>
      </trkpt>
      <trkpt lat="49.87657" lon="2.41962">
        <ele>52.7</ele>
        <time>2022-01-05T13:24:11Z</time>
      </trkpt>
      <trkpt lat="49.87658" lon="2.41964">
        <ele>52.7</ele>
        <time>2022-01-05T13:24:13Z</time>
      </trkpt>
      <trkpt lat="49.87659" lon="2.41968">
        <ele>52.6</ele>
        <time>2022-01-05T13:24:15Z</time>
      </trkpt>
      <trkpt lat="49.87659" lon="2.41971">
        <ele>52.6</ele>
        <time>2022-01-05T13:24:16Z</time>
      </trkpt>
      <trkpt lat="49.8766" lon="2.41972">
        <ele>52.5</ele>
        <time>2022-01-05T13:24:17Z</time>
      </trkpt>
      <trkpt lat="49.8766" lon="2.41973">
        <ele>52.5</ele>
        <time>2022-01-05T13:24:18Z</time>
      </trkpt>
      <trkpt lat="49.87661" lon="2.41976">
        <ele>52.5</ele>
        <time>2022-01-05T13:24:20Z</time>
      </trkpt>
      <trkpt lat="49.87661" lon="2.41978">
        <ele>52.4</ele>
        <time>2022-01-05T13:24:21Z</time>
      </trkpt>
      <trkpt lat="49.87663" lon="2.41981">
        <ele>52.1</ele>
        <time>2022-01-05T13:24:22Z</time>
      </trkpt>
      <trkpt lat="49.87663" lon="2.41982">
        <ele>52.1</ele>
        <time>2022-01-05T13:24:23Z</time>
      </trkpt>
      <trkpt lat="49.87664" lon="2.41983">
        <ele>52.1</ele>
        <time>2022-01-05T13:24:24Z</time>
      </trkpt>
      <trkpt lat="49.87665" lon="2.41984">
        <ele>52</ele>
        <time>2022-01-05T13:24:26Z</time>
      </trkpt>
      <trkpt lat="49.87666" lon="2.41985">
        <ele>51.9</ele>
        <time>2022-01-05T13:24:27Z</time>
      </trkpt>
      <trkpt lat="49.87668" lon="2.41986">
        <ele>51.9</ele>
        <time>2022-01-05T13:24:28Z</time>
      </trkpt>
      <trkpt lat="49.87669" lon="2.41987">
        <ele>51.8</ele>
        <time>2022-01-05T13:24:29Z</time>
      </trkpt>
      <trkpt lat="49.8767" lon="2.41987">
        <ele>51.8</ele>
        <time>2022-01-05T13:24:30Z</time>
      </trkpt>
      <trkpt lat="49.87672" lon="2.41987">
        <ele>51.7</ele>
        <time>2022-01-05T13:24:32Z</time>
      </trkpt>
      <trkpt lat="49.87673" lon="2.41988">
        <ele>51.6</ele>
        <time>2022-01-05T13:24:34Z</time>
      </trkpt>
      <trkpt lat="49.87674" lon="2.41988">
        <ele>51.6</ele>
        <time>2022-01-05T13:24:35Z</time>
      </trkpt>
      <trkpt lat="49.87676" lon="2.41989">
        <ele>51.5</ele>
        <time>2022-01-05T13:24:36Z</time>
      </trkpt>
      <trkpt lat="49.87678" lon="2.41989">
        <ele>51.5</ele>
        <time>2022-01-05T13:24:37Z</time>
      </trkpt>
      <trkpt lat="49.87679" lon="2.4199">
        <ele>51.4</ele>
        <time>2022-01-05T13:24:39Z</time>
      </trkpt>
      <trkpt lat="49.87681" lon="2.41991">
        <ele>51.3</ele>
        <time>2022-01-05T13:24:41Z</time>
      </trkpt>
      <trkpt lat="49.87684" lon="2.41992">
        <ele>51.2</ele>
        <time>2022-01-05T13:24:43Z</time>
      </trkpt>
      <trkpt lat="49.87685" lon="2.41992">
        <ele>51.1</ele>
        <time>2022-01-05T13:24:44Z</time>
      </trkpt>
      <trkpt lat="49.87687" lon="2.41994">
        <ele>51.1</ele>
        <time>2022-01-05T13:24:45Z</time>
      </trkpt>
      <trkpt lat="49.8769" lon="2.41996">
        <ele>50.9</ele>
        <time>2022-01-05T13:24:47Z</time>
      </trkpt>
      <trkpt lat="49.8769" lon="2.41996">
        <ele>50.9</ele>
        <time>2022-01-05T13:24:48Z</time>
      </trkpt>
      <trkpt lat="49.87692" lon="2.41997">
        <ele>50.9</ele>
        <time>2022-01-05T13:24:49Z</time>
      </trkpt>
      <trkpt lat="49.87693" lon="2.41998">
        <ele>50.8</ele>
        <time>2022-01-05T13:24:50Z</time>
      </trkpt>
      <trkpt lat="49.87695" lon="2.41999">
        <ele>50.7</ele>
        <time>2022-01-05T13:24:51Z</time>
      </trkpt>
      <trkpt lat="49.87696" lon="2.42">
        <ele>50.7</ele>
        <time>2022-01-05T13:24:52Z</time>
      </trkpt>
      <trkpt lat="49.87699" lon="2.42001">
        <ele>50.6</ele>
        <time>2022-01-05T13:24:53Z</time>
      </trkpt>
      <trkpt lat="49.877" lon="2.42002">
        <ele>50.5</ele>
        <time>2022-01-05T13:24:55Z</time>
      </trkpt>
      <trkpt lat="49.87701" lon="2.42003">
        <ele>50.5</ele>
        <time>2022-01-05T13:24:56Z</time>
      </trkpt>
      <trkpt lat="49.87702" lon="2.42004">
        <ele>50.5</ele>
        <time>2022-01-05T13:24:58Z</time>
      </trkpt>
      <trkpt lat="49.87704" lon="2.42005">
        <ele>50.4</ele>
        <time>2022-01-05T13:24:59Z</time>
      </trkpt>
      <trkpt lat="49.87705" lon="2.42006">
        <ele>50.4</ele>
        <time>2022-01-05T13:25:01Z</time>
      </trkpt>
      <trkpt lat="49.87706" lon="2.42007">
        <ele>50.3</ele>
        <time>2022-01-05T13:25:02Z</time>
      </trkpt>
      <trkpt lat="49.87707" lon="2.42008">
        <ele>50.3</ele>
        <time>2022-01-05T13:25:03Z</time>
      </trkpt>
      <trkpt lat="49.87708" lon="2.42008">
        <ele>50.3</ele>
        <time>2022-01-05T13:25:04Z</time>
      </trkpt>
      <trkpt lat="49.87709" lon="2.42009">
        <ele>50.2</ele>
        <time>2022-01-05T13:25:05Z</time>
      </trkpt>
      <trkpt lat="49.87711" lon="2.4201">
        <ele>50.2</ele>
        <time>2022-01-05T13:25:06Z</time>
      </trkpt>
      <trkpt lat="49.87712" lon="2.42011">
        <ele>50.2</ele>
        <time>2022-01-05T13:25:08Z</time>
      </trkpt>
      <trkpt lat="49.87714" lon="2.42012">
        <ele>50.1</ele>
        <time>2022-01-05T13:25:09Z</time>
      </trkpt>
      <trkpt lat="49.87715" lon="2.42013">
        <ele>50.1</ele>
        <time>2022-01-05T13:25:10Z</time>
      </trkpt>
      <trkpt lat="49.87715" lon="2.42014">
        <ele>50.1</ele>
        <time>2022-01-05T13:25:11Z</time>
      </trkpt>
      <trkpt lat="49.87717" lon="2.42015">
        <ele>50</ele>
        <time>2022-01-05T13:25:12Z</time>
      </trkpt>
      <trkpt lat="49.87718" lon="2.42016">
        <ele>50</ele>
        <time>2022-01-05T13:25:14Z</time>
      </trkpt>
      <trkpt lat="49.8772" lon="2.42017">
        <ele>50</ele>
        <time>2022-01-05T13:25:16Z</time>
      </trkpt>
      <trkpt lat="49.87721" lon="2.42018">
        <ele>50</ele>
        <time>2022-01-05T13:25:17Z</time>
      </trkpt>
      <trkpt lat="49.87722" lon="2.4202">
        <ele>50</ele>
        <time>2022-01-05T13:25:18Z</time>
      </trkpt>
      <trkpt lat="49.87724" lon="2.42021">
        <ele>49.9</ele>
        <time>2022-01-05T13:25:19Z</time>
      </trkpt>
      <trkpt lat="49.87725" lon="2.42022">
        <ele>49.9</ele>
        <time>2022-01-05T13:25:20Z</time>
      </trkpt>
      <trkpt lat="49.87726" lon="2.42023">
        <ele>49.9</ele>
        <time>2022-01-05T13:25:21Z</time>
      </trkpt>
      <trkpt lat="49.87728" lon="2.42025">
        <ele>49.9</ele>
        <time>2022-01-05T13:25:22Z</time>
      </trkpt>
      <trkpt lat="49.87729" lon="2.42025">
        <ele>49.9</ele>
        <time>2022-01-05T13:25:23Z</time>
      </trkpt>
      <trkpt lat="49.87729" lon="2.42026">
        <ele>49.9</ele>
        <time>2022-01-05T13:25:24Z</time>
      </trkpt>
      <trkpt lat="49.8773" lon="2.42027">
        <ele>49.9</ele>
        <time>2022-01-05T13:25:25Z</time>
      </trkpt>
      <trkpt lat="49.87731" lon="2.42027">
        <ele>49.9</ele>
        <time>2022-01-05T13:25:27Z</time>
      </trkpt>
      <trkpt lat="49.87732" lon="2.42028">
        <ele>49.9</ele>
        <time>2022-01-05T13:25:28Z</time>
      </trkpt>
      <trkpt lat="49.87733" lon="2.42029">
        <ele>49.9</ele>
        <time>2022-01-05T13:25:29Z</time>
      </trkpt>
      <trkpt lat="49.87734" lon="2.4203">
        <ele>49.8</ele>
        <time>2022-01-05T13:25:30Z</time>
      </trkpt>
      <trkpt lat="49.87735" lon="2.42031">
        <ele>49.8</ele>
        <time>2022-01-05T13:25:31Z</time>
      </trkpt>
      <trkpt lat="49.87737" lon="2.42032">
        <ele>49.8</ele>
        <time>2022-01-05T13:25:32Z</time>
      </trkpt>
      <trkpt lat="49.87737" lon="2.42034">
        <ele>49.8</ele>
        <time>2022-01-05T13:25:34Z</time>
      </trkpt>
      <trkpt lat="49.87738" lon="2.42035">
        <ele>49.8</ele>
        <time>2022-01-05T13:25:35Z</time>
      </trkpt>
      <trkpt lat="49.87739" lon="2.42036">
        <ele>49.8</ele>
        <time>2022-01-05T13:25:36Z</time>
      </trkpt>
      <trkpt lat="49.8774" lon="2.42037">
        <ele>49.8</ele>
        <time>2022-01-05T13:25:37Z</time>
      </trkpt>
      <trkpt lat="49.8774" lon="2.42038">
        <ele>49.7</ele>
        <time>2022-01-05T13:25:39Z</time>
      </trkpt>
      <trkpt lat="49.87741" lon="2.42039">
        <ele>49.7</ele>
        <time>2022-01-05T13:25:40Z</time>
      </trkpt>
      <trkpt lat="49.87742" lon="2.4204">
        <ele>49.7</ele>
        <time>2022-01-05T13:25:42Z</time>
      </trkpt>
      <trkpt lat="49.87742" lon="2.42041">
        <ele>49.7</ele>
        <time>2022-01-05T13:25:43Z</time>
      </trkpt>
      <trkpt lat="49.87742" lon="2.42041">
        <ele>49.7</ele>
        <time>2022-01-05T13:25:44Z</time>
      </trkpt>
      <trkpt lat="49.87742" lon="2.42042">
        <ele>49.7</ele>
        <time>2022-01-05T13:25:45Z</time>
      </trkpt>
      <trkpt lat="49.87742" lon="2.42042">
        <ele>49.7</ele>
        <time>2022-01-05T13:25:46Z</time>
      </trkpt>
      <trkpt lat="49.87742" lon="2.42042">
        <ele>49.7</ele>
        <time>2022-01-05T13:25:47Z</time>
      </trkpt>
      <trkpt lat="49.87742" lon="2.42042">
        <ele>49.7</ele>
        <time>2022-01-05T13:25:48Z</time>
      </trkpt>
      <trkpt lat="49.87742" lon="2.42042">
        <ele>49.7</ele>
        <time>2022-01-05T13:25:49Z</time>
      </trkpt>
      <trkpt lat="49.87742" lon="2.42042">
        <ele>49.7</ele>
        <time>2022-01-05T13:25:51Z</time>
      </trkpt>
      <trkpt lat="49.87742" lon="2.42042">
        <ele>49.7</ele>
        <time>2022-01-05T13:25:52Z</time>
      </trkpt>
      <trkpt lat="49.87742" lon="2.42042">
        <ele>49.7</ele>
        <time>2022-01-05T13:25:54Z</time>
      </trkpt>
      <trkpt lat="49.87742" lon="2.42042">
        <ele>49.7</ele>
        <time>2022-01-05T13:25:55Z</time>
      </trkpt>
      <trkpt lat="49.87742" lon="2.42042">
        <ele>49.7</ele>
        <time>2022-01-05T13:25:57Z</time>
      </trkpt>
      <trkpt lat="49.87742" lon="2.42042">
        <ele>49.7</ele>
        <time>2022-01-05T13:25:58Z</time>
      </trkpt>
      <trkpt lat="49.87743" lon="2.42042">
        <ele>49.7</ele>
        <time>2022-01-05T13:25:59Z</time>
      </trkpt>
      <trkpt lat="49.87743" lon="2.42042">
        <ele>49.7</ele>
        <time>2022-01-05T13:26:01Z</time>
      </trkpt>
      <trkpt lat="49.87743" lon="2.42042">
        <ele>49.7</ele>
        <time>2022-01-05T13:26:02Z</time>
      </trkpt>
      <trkpt lat="49.87743" lon="2.42042">
        <ele>49.7</ele>
        <time>2022-01-05T13:26:04Z</time>
      </trkpt>
      <trkpt lat="49.87743" lon="2.42042">
        <ele>49.7</ele>
        <time>2022-01-05T13:26:05Z</time>
      </trkpt>
      <trkpt lat="49.87743" lon="2.42042">
        <ele>49.7</ele>
        <time>2022-01-05T13:26:07Z</time>
      </trkpt>
      <trkpt lat="49.87743" lon="2.42042">
        <ele>49.7</ele>
        <time>2022-01-05T13:26:08Z</time>
      </trkpt>
      <trkpt lat="49.87743" lon="2.42042">
        <ele>49.7</ele>
        <time>2022-01-05T13:26:09Z</time>
      </trkpt>
      <trkpt lat="49.87743" lon="2.42042">
        <ele>49.7</ele>
        <time>2022-01-05T13:26:11Z</time>
      </trkpt>
      <trkpt lat="49.87743" lon="2.42042">
        <ele>49.7</ele>
        <time>2022-01-05T13:26:13Z</time>
      </trkpt>
      <trkpt lat="49.87743" lon="2.42042">
        <ele>49.7</ele>
        <time>2022-01-05T13:26:14Z</time>
      </trkpt>
      <trkpt lat="49.87743" lon="2.42042">
        <ele>49.7</ele>
        <time>2022-01-05T13:26:16Z</time>
      </trkpt>
      <trkpt lat="49.87743" lon="2.42042">
        <ele>49.7</ele>
        <time>2022-01-05T13:26:17Z</time>
      </trkpt>
      <trkpt lat="49.87743" lon="2.42042">
        <ele>49.7</ele>
        <time>2022-01-05T13:26:19Z</time>
      </trkpt>
      <trkpt lat="49.87743" lon="2.42042">
        <ele>49.7</ele>
        <time>2022-01-05T13:26:20Z</time>
      </trkpt>
      <trkpt lat="49.87743" lon="2.42042">
        <ele>49.7</ele>
        <time>2022-01-05T13:26:22Z</time>
      </trkpt>
      <trkpt lat="49.87743" lon="2.42042">
        <ele>49.7</ele>
        <time>2022-01-05T13:26:24Z</time>
      </trkpt>
      <trkpt lat="49.87743" lon="2.42042">
        <ele>49.7</ele>
        <time>2022-01-05T13:26:25Z</time>
      </trkpt>
      <trkpt lat="49.87744" lon="2.42042">
        <ele>49.7</ele>
        <time>2022-01-05T13:26:27Z</time>
      </trkpt>
      <trkpt lat="49.87744" lon="2.42042">
        <ele>49.7</ele>
        <time>2022-01-05T13:26:29Z</time>
      </trkpt>
      <trkpt lat="49.87744" lon="2.42042">
        <ele>49.7</ele>
        <time>2022-01-05T13:26:30Z</time>
      </trkpt>
      <trkpt lat="49.87744" lon="2.42042">
        <ele>49.7</ele>
        <time>2022-01-05T13:26:32Z</time>
      </trkpt>
      <trkpt lat="49.87744" lon="2.42042">
        <ele>49.7</ele>
        <time>2022-01-05T13:26:33Z</time>
      </trkpt>
      <trkpt lat="49.87744" lon="2.42042">
        <ele>49.7</ele>
        <time>2022-01-05T13:26:35Z</time>
      </trkpt>
      <trkpt lat="49.87744" lon="2.42042">
        <ele>49.7</ele>
        <time>2022-01-05T13:26:36Z</time>
      </trkpt>
      <trkpt lat="49.87744" lon="2.42042">
        <ele>49.7</ele>
        <time>2022-01-05T13:26:38Z</time>
      </trkpt>
      <trkpt lat="49.87744" lon="2.42041">
        <ele>49.7</ele>
        <time>2022-01-05T13:26:40Z</time>
      </trkpt>
      <trkpt lat="49.87744" lon="2.42041">
        <ele>49.6</ele>
        <time>2022-01-05T13:26:41Z</time>
      </trkpt>
      <trkpt lat="49.87744" lon="2.42041">
        <ele>49.6</ele>
        <time>2022-01-05T13:26:43Z</time>
      </trkpt>
      <trkpt lat="49.87744" lon="2.42041">
        <ele>49.6</ele>
        <time>2022-01-05T13:26:44Z</time>
      </trkpt>
      <trkpt lat="49.87744" lon="2.42041">
        <ele>49.6</ele>
        <time>2022-01-05T13:26:45Z</time>
      </trkpt>
      <trkpt lat="49.87744" lon="2.42041">
        <ele>49.6</ele>
        <time>2022-01-05T13:26:46Z</time>
      </trkpt>
      <trkpt lat="49.87744" lon="2.42041">
        <ele>49.6</ele>
        <time>2022-01-05T13:26:48Z</time>
      </trkpt>
      <trkpt lat="49.87744" lon="2.42041">
        <ele>49.6</ele>
        <time>2022-01-05T13:26:50Z</time>
      </trkpt>
      <trkpt lat="49.87744" lon="2.42041">
        <ele>49.6</ele>
        <time>2022-01-05T13:26:51Z</time>
      </trkpt>
      <trkpt lat="49.87744" lon="2.42041">
        <ele>49.6</ele>
        <time>2022-01-05T13:26:52Z</time>
      </trkpt>
      <trkpt lat="49.87745" lon="2.42041">
        <ele>49.6</ele>
        <time>2022-01-05T13:26:54Z</time>
      </trkpt>
      <trkpt lat="49.87745" lon="2.42041">
        <ele>49.6</ele>
        <time>2022-01-05T13:26:55Z</time>
      </trkpt>
      <trkpt lat="49.87745" lon="2.42041">
        <ele>49.6</ele>
        <time>2022-01-05T13:26:57Z</time>
      </trkpt>
      <trkpt lat="49.87745" lon="2.42041">
        <ele>49.6</ele>
        <time>2022-01-05T13:26:59Z</time>
      </trkpt>
      <trkpt lat="49.87745" lon="2.42041">
        <ele>49.6</ele>
        <time>2022-01-05T13:27:01Z</time>
      </trkpt>
      <trkpt lat="49.87745" lon="2.42041">
        <ele>49.6</ele>
        <time>2022-01-05T13:27:03Z</time>
      </trkpt>
      <trkpt lat="49.87745" lon="2.42041">
        <ele>49.6</ele>
        <time>2022-01-05T13:27:05Z</time>
      </trkpt>
      <trkpt lat="49.87745" lon="2.42041">
        <ele>49.6</ele>
        <time>2022-01-05T13:27:06Z</time>
      </trkpt>
      <trkpt lat="49.87745" lon="2.42041">
        <ele>49.6</ele>
        <time>2022-01-05T13:27:08Z</time>
      </trkpt>
      <trkpt lat="49.87745" lon="2.42041">
        <ele>49.6</ele>
        <time>2022-01-05T13:27:09Z</time>
      </trkpt>
      <trkpt lat="49.87745" lon="2.42041">
        <ele>49.6</ele>
        <time>2022-01-05T13:27:10Z</time>
      </trkpt>
      <trkpt lat="49.87745" lon="2.42041">
        <ele>49.6</ele>
        <time>2022-01-05T13:27:12Z</time>
      </trkpt>
      <trkpt lat="49.87745" lon="2.42041">
        <ele>49.6</ele>
        <time>2022-01-05T13:27:14Z</time>
      </trkpt>
      <trkpt lat="49.87745" lon="2.42041">
        <ele>49.6</ele>
        <time>2022-01-05T13:27:15Z</time>
      </trkpt>
      <trkpt lat="49.87745" lon="2.42041">
        <ele>49.6</ele>
        <time>2022-01-05T13:27:17Z</time>
      </trkpt>
      <trkpt lat="49.87745" lon="2.42041">
        <ele>49.6</ele>
        <time>2022-01-05T13:27:18Z</time>
      </trkpt>
      <trkpt lat="49.87745" lon="2.42041">
        <ele>49.6</ele>
        <time>2022-01-05T13:27:19Z</time>
      </trkpt>
      <trkpt lat="49.87745" lon="2.42041">
        <ele>49.6</ele>
        <time>2022-01-05T13:27:21Z</time>
      </trkpt>
      <trkpt lat="49.87745" lon="2.42041">
        <ele>49.6</ele>
        <time>2022-01-05T13:27:23Z</time>
      </trkpt>
      <trkpt lat="49.87746" lon="2.42041">
        <ele>49.6</ele>
        <time>2022-01-05T13:27:25Z</time>
      </trkpt>
      <trkpt lat="49.87746" lon="2.42041">
        <ele>49.6</ele>
        <time>2022-01-05T13:27:26Z</time>
      </trkpt>
      <trkpt lat="49.87746" lon="2.42041">
        <ele>49.6</ele>
        <time>2022-01-05T13:27:27Z</time>
      </trkpt>
      <trkpt lat="49.87746" lon="2.42041">
        <ele>49.6</ele>
        <time>2022-01-05T13:27:28Z</time>
      </trkpt>
      <trkpt lat="49.87746" lon="2.42041">
        <ele>49.6</ele>
        <time>2022-01-05T13:27:30Z</time>
      </trkpt>
      <trkpt lat="49.87746" lon="2.42041">
        <ele>49.6</ele>
        <time>2022-01-05T13:27:32Z</time>
      </trkpt>
      <trkpt lat="49.87746" lon="2.42041">
        <ele>49.6</ele>
        <time>2022-01-05T13:27:34Z</time>
      </trkpt>
      <trkpt lat="49.87746" lon="2.42041">
        <ele>49.6</ele>
        <time>2022-01-05T13:27:36Z</time>
      </trkpt>
      <trkpt lat="49.87746" lon="2.42041">
        <ele>49.6</ele>
        <time>2022-01-05T13:27:37Z</time>
      </trkpt>
      <trkpt lat="49.87746" lon="2.42041">
        <ele>49.6</ele>
        <time>2022-01-05T13:27:38Z</time>
      </trkpt>
      <trkpt lat="49.87746" lon="2.42041">
        <ele>49.6</ele>
        <time>2022-01-05T13:27:40Z</time>
      </trkpt>
      <trkpt lat="49.87746" lon="2.42041">
        <ele>49.6</ele>
        <time>2022-01-05T13:27:42Z</time>
      </trkpt>
      <trkpt lat="49.87746" lon="2.42041">
        <ele>49.6</ele>
        <time>2022-01-05T13:27:43Z</time>
      </trkpt>
      <trkpt lat="49.87746" lon="2.42041">
        <ele>49.6</ele>
        <time>2022-01-05T13:27:45Z</time>
      </trkpt>
      <trkpt lat="49.87746" lon="2.42041">
        <ele>49.6</ele>
        <time>2022-01-05T13:27:47Z</time>
      </trkpt>
      <trkpt lat="49.87746" lon="2.42041">
        <ele>49.6</ele>
        <time>2022-01-05T13:27:48Z</time>
      </trkpt>
      <trkpt lat="49.87746" lon="2.42041">
        <ele>49.6</ele>
        <time>2022-01-05T13:27:50Z</time>
      </trkpt>
      <trkpt lat="49.87746" lon="2.42041">
        <ele>49.6</ele>
        <time>2022-01-05T13:27:52Z</time>
      </trkpt>
      <trkpt lat="49.87747" lon="2.42041">
        <ele>49.6</ele>
        <time>2022-01-05T13:27:53Z</time>
      </trkpt>
      <trkpt lat="49.87747" lon="2.42041">
        <ele>49.6</ele>
        <time>2022-01-05T13:27:55Z</time>
      </trkpt>
      <trkpt lat="49.87747" lon="2.42041">
        <ele>49.6</ele>
        <time>2022-01-05T13:27:57Z</time>
      </trkpt>
      <trkpt lat="49.87747" lon="2.42041">
        <ele>49.6</ele>
        <time>2022-01-05T13:27:58Z</time>
      </trkpt>
      <trkpt lat="49.87747" lon="2.42041">
        <ele>49.6</ele>
        <time>2022-01-05T13:28:00Z</time>
      </trkpt>
      <trkpt lat="49.87747" lon="2.42041">
        <ele>49.6</ele>
        <time>2022-01-05T13:28:02Z</time>
      </trkpt>
      <trkpt lat="49.87747" lon="2.42041">
        <ele>49.6</ele>
        <time>2022-01-05T13:28:04Z</time>
      </trkpt>
      <trkpt lat="49.87747" lon="2.42041">
        <ele>49.6</ele>
        <time>2022-01-05T13:28:06Z</time>
      </trkpt>
      <trkpt lat="49.87747" lon="2.42041">
        <ele>49.6</ele>
        <time>2022-01-05T13:28:07Z</time>
      </trkpt>
      <trkpt lat="49.87747" lon="2.42041">
        <ele>49.6</ele>
        <time>2022-01-05T13:28:09Z</time>
      </trkpt>
      <trkpt lat="49.87747" lon="2.42041">
        <ele>49.6</ele>
        <time>2022-01-05T13:28:10Z</time>
      </trkpt>
      <trkpt lat="49.87747" lon="2.42041">
        <ele>49.6</ele>
        <time>2022-01-05T13:28:12Z</time>
      </trkpt>
      <trkpt lat="49.87747" lon="2.42041">
        <ele>49.6</ele>
        <time>2022-01-05T13:28:14Z</time>
      </trkpt>
      <trkpt lat="49.87747" lon="2.42041">
        <ele>49.6</ele>
        <time>2022-01-05T13:28:16Z</time>
      </trkpt>
      <trkpt lat="49.87747" lon="2.42041">
        <ele>49.6</ele>
        <time>2022-01-05T13:28:18Z</time>
      </trkpt>
      <trkpt lat="49.87747" lon="2.42041">
        <ele>49.6</ele>
        <time>2022-01-05T13:28:20Z</time>
      </trkpt>
      <trkpt lat="49.87747" lon="2.42041">
        <ele>49.6</ele>
        <time>2022-01-05T13:28:21Z</time>
      </trkpt>
      <trkpt lat="49.87747" lon="2.4204">
        <ele>49.6</ele>
        <time>2022-01-05T13:28:22Z</time>
      </trkpt>
      <trkpt lat="49.87748" lon="2.4204">
        <ele>49.6</ele>
        <time>2022-01-05T13:28:24Z</time>
      </trkpt>
      <trkpt lat="49.87748" lon="2.4204">
        <ele>49.6</ele>
        <time>2022-01-05T13:28:26Z</time>
      </trkpt>
      <trkpt lat="49.87748" lon="2.4204">
        <ele>49.6</ele>
        <time>2022-01-05T13:28:27Z</time>
      </trkpt>
      <trkpt lat="49.87748" lon="2.4204">
        <ele>49.6</ele>
        <time>2022-01-05T13:28:28Z</time>
      </trkpt>
      <trkpt lat="49.87748" lon="2.4204">
        <ele>49.6</ele>
        <time>2022-01-05T13:28:29Z</time>
      </trkpt>
      <trkpt lat="49.87748" lon="2.4204">
        <ele>49.6</ele>
        <time>2022-01-05T13:28:30Z</time>
      </trkpt>
      <trkpt lat="49.87748" lon="2.4204">
        <ele>49.6</ele>
        <time>2022-01-05T13:28:32Z</time>
      </trkpt>
      <trkpt lat="49.87748" lon="2.4204">
        <ele>49.6</ele>
        <time>2022-01-05T13:28:34Z</time>
      </trkpt>
      <trkpt lat="49.87748" lon="2.4204">
        <ele>49.6</ele>
        <time>2022-01-05T13:28:35Z</time>
      </trkpt>
      <trkpt lat="49.87748" lon="2.4204">
        <ele>49.6</ele>
        <time>2022-01-05T13:28:37Z</time>
      </trkpt>
      <trkpt lat="49.87748" lon="2.4204">
        <ele>49.6</ele>
        <time>2022-01-05T13:28:38Z</time>
      </trkpt>
      <trkpt lat="49.87748" lon="2.4204">
        <ele>49.6</ele>
        <time>2022-01-05T13:28:39Z</time>
      </trkpt>
      <trkpt lat="49.87748" lon="2.4204">
        <ele>49.6</ele>
        <time>2022-01-05T13:28:40Z</time>
      </trkpt>
      <trkpt lat="49.87748" lon="2.4204">
        <ele>49.6</ele>
        <time>2022-01-05T13:28:41Z</time>
      </trkpt>
      <trkpt lat="49.87748" lon="2.4204">
        <ele>49.6</ele>
        <time>2022-01-05T13:28:43Z</time>
      </trkpt>
      <trkpt lat="49.87748" lon="2.4204">
        <ele>49.6</ele>
        <time>2022-01-05T13:28:44Z</time>
      </trkpt>
      <trkpt lat="49.87748" lon="2.4204">
        <ele>49.6</ele>
        <time>2022-01-05T13:28:46Z</time>
      </trkpt>
      <trkpt lat="49.87748" lon="2.4204">
        <ele>49.6</ele>
        <time>2022-01-05T13:28:47Z</time>
      </trkpt>
      <trkpt lat="49.87748" lon="2.4204">
        <ele>49.6</ele>
        <time>2022-01-05T13:28:48Z</time>
      </trkpt>
      <trkpt lat="49.87749" lon="2.4204">
        <ele>49.6</ele>
        <time>2022-01-05T13:28:49Z</time>
      </trkpt>
      <trkpt lat="49.8775" lon="2.4204">
        <ele>49.5</ele>
        <time>2022-01-05T13:28:50Z</time>
      </trkpt>
      <trkpt lat="49.87751" lon="2.42041">
        <ele>49.5</ele>
        <time>2022-01-05T13:28:51Z</time>
      </trkpt>
      <trkpt lat="49.87752" lon="2.42041">
        <ele>49.5</ele>
        <time>2022-01-05T13:28:53Z</time>
      </trkpt>
      <trkpt lat="49.87754" lon="2.42041">
        <ele>49.4</ele>
        <time>2022-01-05T13:28:55Z</time>
      </trkpt>
      <trkpt lat="49.87756" lon="2.42042">
        <ele>49.4</ele>
        <time>2022-01-05T13:28:56Z</time>
      </trkpt>
      <trkpt lat="49.87757" lon="2.42042">
        <ele>49.4</ele>
        <time>2022-01-05T13:28:57Z</time>
      </trkpt>
      <trkpt lat="49.87758" lon="2.42043">
        <ele>49.3</ele>
        <time>2022-01-05T13:28:58Z</time>
      </trkpt>
      <trkpt lat="49.8776" lon="2.42043">
        <ele>49.3</ele>
        <time>2022-01-05T13:29:00Z</time>
      </trkpt>
      <trkpt lat="49.87761" lon="2.42044">
        <ele>49.2</ele>
        <time>2022-01-05T13:29:01Z</time>
      </trkpt>
      <trkpt lat="49.87763" lon="2.42044">
        <ele>49.2</ele>
        <time>2022-01-05T13:29:02Z</time>
      </trkpt>
      <trkpt lat="49.87765" lon="2.42045">
        <ele>49.1</ele>
        <time>2022-01-05T13:29:03Z</time>
      </trkpt>
      <trkpt lat="49.87766" lon="2.42045">
        <ele>49.1</ele>
        <time>2022-01-05T13:29:04Z</time>
      </trkpt>
      <trkpt lat="49.87766" lon="2.42045">
        <ele>49.1</ele>
        <time>2022-01-05T13:29:05Z</time>
      </trkpt>
      <trkpt lat="49.87768" lon="2.42045">
        <ele>49</ele>
        <time>2022-01-05T13:29:07Z</time>
      </trkpt>
      <trkpt lat="49.87769" lon="2.42046">
        <ele>49</ele>
        <time>2022-01-05T13:29:08Z</time>
      </trkpt>
      <trkpt lat="49.8777" lon="2.42046">
        <ele>48.9</ele>
        <time>2022-01-05T13:29:09Z</time>
      </trkpt>
      <trkpt lat="49.87772" lon="2.42046">
        <ele>48.9</ele>
        <time>2022-01-05T13:29:11Z</time>
      </trkpt>
      <trkpt lat="49.87773" lon="2.42047">
        <ele>48.8</ele>
        <time>2022-01-05T13:29:12Z</time>
      </trkpt>
      <trkpt lat="49.87775" lon="2.42048">
        <ele>48.7</ele>
        <time>2022-01-05T13:29:14Z</time>
      </trkpt>
      <trkpt lat="49.87776" lon="2.42048">
        <ele>48.7</ele>
        <time>2022-01-05T13:29:15Z</time>
      </trkpt>
      <trkpt lat="49.87777" lon="2.42049">
        <ele>48.7</ele>
        <time>2022-01-05T13:29:16Z</time>
      </trkpt>
      <trkpt lat="49.87778" lon="2.4205">
        <ele>48.6</ele>
        <time>2022-01-05T13:29:17Z</time>
      </trkpt>
      <trkpt lat="49.87779" lon="2.42051">
        <ele>48.5</ele>
        <time>2022-01-05T13:29:18Z</time>
      </trkpt>
      <trkpt lat="49.87781" lon="2.42053">
        <ele>48.4</ele>
        <time>2022-01-05T13:29:19Z</time>
      </trkpt>
      <trkpt lat="49.87782" lon="2.42053">
        <ele>48.4</ele>
        <time>2022-01-05T13:29:20Z</time>
      </trkpt>
      <trkpt lat="49.87782" lon="2.42054">
        <ele>48.4</ele>
        <time>2022-01-05T13:29:21Z</time>
      </trkpt>
      <trkpt lat="49.87784" lon="2.42056">
        <ele>48.3</ele>
        <time>2022-01-05T13:29:23Z</time>
      </trkpt>
      <trkpt lat="49.87785" lon="2.42057">
        <ele>48.3</ele>
        <time>2022-01-05T13:29:24Z</time>
      </trkpt>
      <trkpt lat="49.87785" lon="2.42058">
        <ele>48.2</ele>
        <time>2022-01-05T13:29:25Z</time>
      </trkpt>
      <trkpt lat="49.87786" lon="2.42059">
        <ele>48.2</ele>
        <time>2022-01-05T13:29:26Z</time>
      </trkpt>
      <trkpt lat="49.87787" lon="2.4206">
        <ele>48.1</ele>
        <time>2022-01-05T13:29:27Z</time>
      </trkpt>
      <trkpt lat="49.87788" lon="2.4206">
        <ele>48.1</ele>
        <time>2022-01-05T13:29:28Z</time>
      </trkpt>
      <trkpt lat="49.87789" lon="2.42061">
        <ele>48</ele>
        <time>2022-01-05T13:29:30Z</time>
      </trkpt>
      <trkpt lat="49.87791" lon="2.42063">
        <ele>47.9</ele>
        <time>2022-01-05T13:29:32Z</time>
      </trkpt>
      <trkpt lat="49.87791" lon="2.42064">
        <ele>47.9</ele>
        <time>2022-01-05T13:29:33Z</time>
      </trkpt>
      <trkpt lat="49.87792" lon="2.42065">
        <ele>47.9</ele>
        <time>2022-01-05T13:29:34Z</time>
      </trkpt>
      <trkpt lat="49.87793" lon="2.42065">
        <ele>47.8</ele>
        <time>2022-01-05T13:29:35Z</time>
      </trkpt>
      <trkpt lat="49.87794" lon="2.42066">
        <ele>47.8</ele>
        <time>2022-01-05T13:29:37Z</time>
      </trkpt>
      <trkpt lat="49.87795" lon="2.42067">
        <ele>47.7</ele>
        <time>2022-01-05T13:29:38Z</time>
      </trkpt>
      <trkpt lat="49.87796" lon="2.42068">
        <ele>47.7</ele>
        <time>2022-01-05T13:29:39Z</time>
      </trkpt>
      <trkpt lat="49.87797" lon="2.42068">
        <ele>47.6</ele>
        <time>2022-01-05T13:29:40Z</time>
      </trkpt>
      <trkpt lat="49.87798" lon="2.42069">
        <ele>47.6</ele>
        <time>2022-01-05T13:29:42Z</time>
      </trkpt>
      <trkpt lat="49.87799" lon="2.4207">
        <ele>47.5</ele>
        <time>2022-01-05T13:29:43Z</time>
      </trkpt>
      <trkpt lat="49.87801" lon="2.42071">
        <ele>47.4</ele>
        <time>2022-01-05T13:29:45Z</time>
      </trkpt>
      <trkpt lat="49.87801" lon="2.42071">
        <ele>47.4</ele>
        <time>2022-01-05T13:29:46Z</time>
      </trkpt>
      <trkpt lat="49.87802" lon="2.42072">
        <ele>47.4</ele>
        <time>2022-01-05T13:29:47Z</time>
      </trkpt>
      <trkpt lat="49.87803" lon="2.42072">
        <ele>47.3</ele>
        <time>2022-01-05T13:29:48Z</time>
      </trkpt>
      <trkpt lat="49.87804" lon="2.42073">
        <ele>47.3</ele>
        <time>2022-01-05T13:29:49Z</time>
      </trkpt>
      <trkpt lat="49.87805" lon="2.42074">
        <ele>47.2</ele>
        <time>2022-01-05T13:29:51Z</time>
      </trkpt>
      <trkpt lat="49.87806" lon="2.42074">
        <ele>47.2</ele>
        <time>2022-01-05T13:29:52Z</time>
      </trkpt>
      <trkpt lat="49.87807" lon="2.42075">
        <ele>47.1</ele>
        <time>2022-01-05T13:29:53Z</time>
      </trkpt>
      <trkpt lat="49.87808" lon="2.42076">
        <ele>47.1</ele>
        <time>2022-01-05T13:29:54Z</time>
      </trkpt>
      <trkpt lat="49.87811" lon="2.42078">
        <ele>46.9</ele>
        <time>2022-01-05T13:29:56Z</time>
      </trkpt>
      <trkpt lat="49.87812" lon="2.42078">
        <ele>46.9</ele>
        <time>2022-01-05T13:29:57Z</time>
      </trkpt>
      <trkpt lat="49.87813" lon="2.42079">
        <ele>46.9</ele>
        <time>2022-01-05T13:29:58Z</time>
      </trkpt>
      <trkpt lat="49.87814" lon="2.4208">
        <ele>46.8</ele>
        <time>2022-01-05T13:30:00Z</time>
      </trkpt>
      <trkpt lat="49.87815" lon="2.4208">
        <ele>46.8</ele>
        <time>2022-01-05T13:30:01Z</time>
      </trkpt>
      <trkpt lat="49.87816" lon="2.42081">
        <ele>46.7</ele>
        <time>2022-01-05T13:30:02Z</time>
      </trkpt>
      <trkpt lat="49.87817" lon="2.42082">
        <ele>46.7</ele>
        <time>2022-01-05T13:30:03Z</time>
      </trkpt>
      <trkpt lat="49.87819" lon="2.42083">
        <ele>46.6</ele>
        <time>2022-01-05T13:30:05Z</time>
      </trkpt>
      <trkpt lat="49.8782" lon="2.42084">
        <ele>46.5</ele>
        <time>2022-01-05T13:30:06Z</time>
      </trkpt>
      <trkpt lat="49.87822" lon="2.42084">
        <ele>46.5</ele>
        <time>2022-01-05T13:30:07Z</time>
      </trkpt>
      <trkpt lat="49.87823" lon="2.42084">
        <ele>46.4</ele>
        <time>2022-01-05T13:30:09Z</time>
      </trkpt>
      <trkpt lat="49.87824" lon="2.42085">
        <ele>46.4</ele>
        <time>2022-01-05T13:30:10Z</time>
      </trkpt>
      <trkpt lat="49.87825" lon="2.42085">
        <ele>46.3</ele>
        <time>2022-01-05T13:30:11Z</time>
      </trkpt>
      <trkpt lat="49.87826" lon="2.42085">
        <ele>46.3</ele>
        <time>2022-01-05T13:30:12Z</time>
      </trkpt>
      <trkpt lat="49.87828" lon="2.42086">
        <ele>46.2</ele>
        <time>2022-01-05T13:30:13Z</time>
      </trkpt>
      <trkpt lat="49.87829" lon="2.42087">
        <ele>46.2</ele>
        <time>2022-01-05T13:30:14Z</time>
      </trkpt>
      <trkpt lat="49.8783" lon="2.42087">
        <ele>46.2</ele>
        <time>2022-01-05T13:30:16Z</time>
      </trkpt>
      <trkpt lat="49.87832" lon="2.42088">
        <ele>46.1</ele>
        <time>2022-01-05T13:30:17Z</time>
      </trkpt>
      <trkpt lat="49.87833" lon="2.42088">
        <ele>46</ele>
        <time>2022-01-05T13:30:18Z</time>
      </trkpt>
      <trkpt lat="49.87833" lon="2.42089">
        <ele>46</ele>
        <time>2022-01-05T13:30:19Z</time>
      </trkpt>
      <trkpt lat="49.87835" lon="2.42089">
        <ele>45.9</ele>
        <time>2022-01-05T13:30:20Z</time>
      </trkpt>
      <trkpt lat="49.87836" lon="2.4209">
        <ele>45.9</ele>
        <time>2022-01-05T13:30:21Z</time>
      </trkpt>
      <trkpt lat="49.87837" lon="2.4209">
        <ele>45.9</ele>
        <time>2022-01-05T13:30:22Z</time>
      </trkpt>
      <trkpt lat="49.87839" lon="2.42091">
        <ele>45.8</ele>
        <time>2022-01-05T13:30:24Z</time>
      </trkpt>
      <trkpt lat="49.8784" lon="2.42092">
        <ele>45.8</ele>
        <time>2022-01-05T13:30:25Z</time>
      </trkpt>
      <trkpt lat="49.8784" lon="2.42092">
        <ele>45.7</ele>
        <time>2022-01-05T13:30:26Z</time>
      </trkpt>
      <trkpt lat="49.87842" lon="2.42093">
        <ele>45.7</ele>
        <time>2022-01-05T13:30:27Z</time>
      </trkpt>
      <trkpt lat="49.87843" lon="2.42093">
        <ele>45.6</ele>
        <time>2022-01-05T13:30:28Z</time>
      </trkpt>
      <trkpt lat="49.87845" lon="2.42094">
        <ele>45.5</ele>
        <time>2022-01-05T13:30:30Z</time>
      </trkpt>
      <trkpt lat="49.87846" lon="2.42094">
        <ele>45.5</ele>
        <time>2022-01-05T13:30:31Z</time>
      </trkpt>
      <trkpt lat="49.87848" lon="2.42094">
        <ele>45.4</ele>
        <time>2022-01-05T13:30:32Z</time>
      </trkpt>
      <trkpt lat="49.8785" lon="2.42096">
        <ele>45.3</ele>
        <time>2022-01-05T13:30:35Z</time>
      </trkpt>
      <trkpt lat="49.87852" lon="2.42097">
        <ele>45.2</ele>
        <time>2022-01-05T13:30:37Z</time>
      </trkpt>
      <trkpt lat="49.87853" lon="2.42098">
        <ele>45.1</ele>
        <time>2022-01-05T13:30:38Z</time>
      </trkpt>
      <trkpt lat="49.87854" lon="2.42098">
        <ele>45.1</ele>
        <time>2022-01-05T13:30:39Z</time>
      </trkpt>
      <trkpt lat="49.87855" lon="2.42099">
        <ele>45</ele>
        <time>2022-01-05T13:30:40Z</time>
      </trkpt>
      <trkpt lat="49.87856" lon="2.421">
        <ele>44.9</ele>
        <time>2022-01-05T13:30:41Z</time>
      </trkpt>
      <trkpt lat="49.87857" lon="2.42101">
        <ele>44.8</ele>
        <time>2022-01-05T13:30:43Z</time>
      </trkpt>
      <trkpt lat="49.87858" lon="2.42102">
        <ele>44.8</ele>
        <time>2022-01-05T13:30:44Z</time>
      </trkpt>
      <trkpt lat="49.87859" lon="2.42102">
        <ele>44.7</ele>
        <time>2022-01-05T13:30:45Z</time>
      </trkpt>
      <trkpt lat="49.8786" lon="2.42103">
        <ele>44.7</ele>
        <time>2022-01-05T13:30:46Z</time>
      </trkpt>
      <trkpt lat="49.87861" lon="2.42104">
        <ele>44.6</ele>
        <time>2022-01-05T13:30:47Z</time>
      </trkpt>
      <trkpt lat="49.87863" lon="2.42104">
        <ele>44.5</ele>
        <time>2022-01-05T13:30:48Z</time>
      </trkpt>
      <trkpt lat="49.87863" lon="2.42104">
        <ele>44.5</ele>
        <time>2022-01-05T13:30:49Z</time>
      </trkpt>
      <trkpt lat="49.87865" lon="2.42105">
        <ele>44.4</ele>
        <time>2022-01-05T13:30:50Z</time>
      </trkpt>
      <trkpt lat="49.87866" lon="2.42105">
        <ele>44.4</ele>
        <time>2022-01-05T13:30:52Z</time>
      </trkpt>
      <trkpt lat="49.87867" lon="2.42106">
        <ele>44.3</ele>
        <time>2022-01-05T13:30:53Z</time>
      </trkpt>
      <trkpt lat="49.87869" lon="2.42107">
        <ele>44.2</ele>
        <time>2022-01-05T13:30:54Z</time>
      </trkpt>
      <trkpt lat="49.8787" lon="2.42107">
        <ele>44.1</ele>
        <time>2022-01-05T13:30:56Z</time>
      </trkpt>
      <trkpt lat="49.87871" lon="2.42108">
        <ele>44.1</ele>
        <time>2022-01-05T13:30:57Z</time>
      </trkpt>
      <trkpt lat="49.87872" lon="2.42109">
        <ele>44</ele>
        <time>2022-01-05T13:30:58Z</time>
      </trkpt>
      <trkpt lat="49.87873" lon="2.42109">
        <ele>43.9</ele>
        <time>2022-01-05T13:30:59Z</time>
      </trkpt>
      <trkpt lat="49.87874" lon="2.4211">
        <ele>43.9</ele>
        <time>2022-01-05T13:31:00Z</time>
      </trkpt>
      <trkpt lat="49.87875" lon="2.42111">
        <ele>43.8</ele>
        <time>2022-01-05T13:31:02Z</time>
      </trkpt>
      <trkpt lat="49.87876" lon="2.42111">
        <ele>43.8</ele>
        <time>2022-01-05T13:31:03Z</time>
      </trkpt>
      <trkpt lat="49.87878" lon="2.42113">
        <ele>43.6</ele>
        <time>2022-01-05T13:31:05Z</time>
      </trkpt>
      <trkpt lat="49.87879" lon="2.42114">
        <ele>43.6</ele>
        <time>2022-01-05T13:31:06Z</time>
      </trkpt>
      <trkpt lat="49.8788" lon="2.42115">
        <ele>43.5</ele>
        <time>2022-01-05T13:31:07Z</time>
      </trkpt>
      <trkpt lat="49.87881" lon="2.42115">
        <ele>43.4</ele>
        <time>2022-01-05T13:31:08Z</time>
      </trkpt>
      <trkpt lat="49.87883" lon="2.42116">
        <ele>43.4</ele>
        <time>2022-01-05T13:31:10Z</time>
      </trkpt>
      <trkpt lat="49.87884" lon="2.42117">
        <ele>43.3</ele>
        <time>2022-01-05T13:31:11Z</time>
      </trkpt>
      <trkpt lat="49.87886" lon="2.42118">
        <ele>43.2</ele>
        <time>2022-01-05T13:31:13Z</time>
      </trkpt>
      <trkpt lat="49.87889" lon="2.4212">
        <ele>43</ele>
        <time>2022-01-05T13:31:14Z</time>
      </trkpt>
      <trkpt lat="49.8789" lon="2.42121">
        <ele>42.9</ele>
        <time>2022-01-05T13:31:15Z</time>
      </trkpt>
      <trkpt lat="49.87891" lon="2.42122">
        <ele>42.9</ele>
        <time>2022-01-05T13:31:16Z</time>
      </trkpt>
      <trkpt lat="49.87893" lon="2.42122">
        <ele>42.8</ele>
        <time>2022-01-05T13:31:18Z</time>
      </trkpt>
      <trkpt lat="49.87894" lon="2.42123">
        <ele>42.7</ele>
        <time>2022-01-05T13:31:19Z</time>
      </trkpt>
      <trkpt lat="49.87896" lon="2.42124">
        <ele>42.6</ele>
        <time>2022-01-05T13:31:21Z</time>
      </trkpt>
      <trkpt lat="49.87898" lon="2.42124">
        <ele>42.4</ele>
        <time>2022-01-05T13:31:22Z</time>
      </trkpt>
      <trkpt lat="49.879" lon="2.42125">
        <ele>42.3</ele>
        <time>2022-01-05T13:31:24Z</time>
      </trkpt>
      <trkpt lat="49.87903" lon="2.42126">
        <ele>42.1</ele>
        <time>2022-01-05T13:31:26Z</time>
      </trkpt>
      <trkpt lat="49.87904" lon="2.42126">
        <ele>42.1</ele>
        <time>2022-01-05T13:31:27Z</time>
      </trkpt>
      <trkpt lat="49.87905" lon="2.42127">
        <ele>42</ele>
        <time>2022-01-05T13:31:28Z</time>
      </trkpt>
      <trkpt lat="49.87907" lon="2.42127">
        <ele>41.9</ele>
        <time>2022-01-05T13:31:29Z</time>
      </trkpt>
      <trkpt lat="49.87909" lon="2.42129">
        <ele>41.8</ele>
        <time>2022-01-05T13:31:30Z</time>
      </trkpt>
      <trkpt lat="49.8791" lon="2.4213">
        <ele>41.7</ele>
        <time>2022-01-05T13:31:32Z</time>
      </trkpt>
      <trkpt lat="49.87912" lon="2.42131">
        <ele>41.6</ele>
        <time>2022-01-05T13:31:33Z</time>
      </trkpt>
      <trkpt lat="49.87914" lon="2.42132">
        <ele>41.5</ele>
        <time>2022-01-05T13:31:34Z</time>
      </trkpt>
      <trkpt lat="49.87917" lon="2.42135">
        <ele>41.3</ele>
        <time>2022-01-05T13:31:36Z</time>
      </trkpt>
      <trkpt lat="49.87917" lon="2.42135">
        <ele>41.2</ele>
        <time>2022-01-05T13:31:37Z</time>
      </trkpt>
      <trkpt lat="49.87919" lon="2.42136">
        <ele>41.1</ele>
        <time>2022-01-05T13:31:38Z</time>
      </trkpt>
      <trkpt lat="49.8792" lon="2.42138">
        <ele>41</ele>
        <time>2022-01-05T13:31:39Z</time>
      </trkpt>
      <trkpt lat="49.87924" lon="2.42141">
        <ele>40.7</ele>
        <time>2022-01-05T13:31:41Z</time>
      </trkpt>
      <trkpt lat="49.87925" lon="2.42142">
        <ele>40.6</ele>
        <time>2022-01-05T13:31:43Z</time>
      </trkpt>
      <trkpt lat="49.87926" lon="2.42143">
        <ele>40.5</ele>
        <time>2022-01-05T13:31:44Z</time>
      </trkpt>
      <trkpt lat="49.87928" lon="2.42144">
        <ele>40.4</ele>
        <time>2022-01-05T13:31:45Z</time>
      </trkpt>
      <trkpt lat="49.87929" lon="2.42145">
        <ele>40.3</ele>
        <time>2022-01-05T13:31:46Z</time>
      </trkpt>
      <trkpt lat="49.87931" lon="2.42148">
        <ele>40.1</ele>
        <time>2022-01-05T13:31:48Z</time>
      </trkpt>
      <trkpt lat="49.87932" lon="2.42149">
        <ele>40.1</ele>
        <time>2022-01-05T13:31:49Z</time>
      </trkpt>
      <trkpt lat="49.87933" lon="2.4215">
        <ele>40</ele>
        <time>2022-01-05T13:31:50Z</time>
      </trkpt>
      <trkpt lat="49.87935" lon="2.42151">
        <ele>39.8</ele>
        <time>2022-01-05T13:31:52Z</time>
      </trkpt>
      <trkpt lat="49.87937" lon="2.42153">
        <ele>39.6</ele>
        <time>2022-01-05T13:31:54Z</time>
      </trkpt>
      <trkpt lat="49.87938" lon="2.42154">
        <ele>39.5</ele>
        <time>2022-01-05T13:31:55Z</time>
      </trkpt>
      <trkpt lat="49.8794" lon="2.42155">
        <ele>39.4</ele>
        <time>2022-01-05T13:31:56Z</time>
      </trkpt>
      <trkpt lat="49.87942" lon="2.42157">
        <ele>39.2</ele>
        <time>2022-01-05T13:31:58Z</time>
      </trkpt>
      <trkpt lat="49.87943" lon="2.42158">
        <ele>39.1</ele>
        <time>2022-01-05T13:31:59Z</time>
      </trkpt>
      <trkpt lat="49.87944" lon="2.4216">
        <ele>39</ele>
        <time>2022-01-05T13:32:00Z</time>
      </trkpt>
      <trkpt lat="49.87946" lon="2.42161">
        <ele>38.9</ele>
        <time>2022-01-05T13:32:01Z</time>
      </trkpt>
      <trkpt lat="49.87947" lon="2.42162">
        <ele>38.8</ele>
        <time>2022-01-05T13:32:02Z</time>
      </trkpt>
      <trkpt lat="49.87949" lon="2.42163">
        <ele>38.7</ele>
        <time>2022-01-05T13:32:04Z</time>
      </trkpt>
      <trkpt lat="49.8795" lon="2.42165">
        <ele>38.6</ele>
        <time>2022-01-05T13:32:05Z</time>
      </trkpt>
      <trkpt lat="49.87952" lon="2.42166">
        <ele>38.4</ele>
        <time>2022-01-05T13:32:06Z</time>
      </trkpt>
      <trkpt lat="49.87953" lon="2.42167">
        <ele>38.3</ele>
        <time>2022-01-05T13:32:07Z</time>
      </trkpt>
      <trkpt lat="49.87954" lon="2.42169">
        <ele>38.2</ele>
        <time>2022-01-05T13:32:08Z</time>
      </trkpt>
      <trkpt lat="49.87955" lon="2.4217">
        <ele>38.1</ele>
        <time>2022-01-05T13:32:09Z</time>
      </trkpt>
      <trkpt lat="49.87957" lon="2.42171">
        <ele>37.9</ele>
        <time>2022-01-05T13:32:11Z</time>
      </trkpt>
      <trkpt lat="49.87958" lon="2.42172">
        <ele>37.8</ele>
        <time>2022-01-05T13:32:12Z</time>
      </trkpt>
      <trkpt lat="49.8796" lon="2.42173">
        <ele>37.7</ele>
        <time>2022-01-05T13:32:14Z</time>
      </trkpt>
      <trkpt lat="49.87961" lon="2.42174">
        <ele>37.6</ele>
        <time>2022-01-05T13:32:15Z</time>
      </trkpt>
      <trkpt lat="49.87963" lon="2.42175">
        <ele>37.5</ele>
        <time>2022-01-05T13:32:16Z</time>
      </trkpt>
      <trkpt lat="49.87965" lon="2.42177">
        <ele>37.3</ele>
        <time>2022-01-05T13:32:18Z</time>
      </trkpt>
      <trkpt lat="49.87967" lon="2.42178">
        <ele>37.1</ele>
        <time>2022-01-05T13:32:19Z</time>
      </trkpt>
      <trkpt lat="49.87968" lon="2.42179">
        <ele>37</ele>
        <time>2022-01-05T13:32:20Z</time>
      </trkpt>
      <trkpt lat="49.8797" lon="2.42181">
        <ele>36.9</ele>
        <time>2022-01-05T13:32:22Z</time>
      </trkpt>
      <trkpt lat="49.87971" lon="2.42182">
        <ele>36.7</ele>
        <time>2022-01-05T13:32:23Z</time>
      </trkpt>
      <trkpt lat="49.87973" lon="2.42183">
        <ele>36.6</ele>
        <time>2022-01-05T13:32:24Z</time>
      </trkpt>
      <trkpt lat="49.87974" lon="2.42184">
        <ele>36.4</ele>
        <time>2022-01-05T13:32:26Z</time>
      </trkpt>
      <trkpt lat="49.87977" lon="2.42187">
        <ele>36.1</ele>
        <time>2022-01-05T13:32:27Z</time>
      </trkpt>
      <trkpt lat="49.87978" lon="2.42188">
        <ele>36</ele>
        <time>2022-01-05T13:32:28Z</time>
      </trkpt>
      <trkpt lat="49.87979" lon="2.42189">
        <ele>35.9</ele>
        <time>2022-01-05T13:32:30Z</time>
      </trkpt>
      <trkpt lat="49.87981" lon="2.4219">
        <ele>35.7</ele>
        <time>2022-01-05T13:32:31Z</time>
      </trkpt>
      <trkpt lat="49.87982" lon="2.42191">
        <ele>35.5</ele>
        <time>2022-01-05T13:32:32Z</time>
      </trkpt>
      <trkpt lat="49.87984" lon="2.42192">
        <ele>35.4</ele>
        <time>2022-01-05T13:32:34Z</time>
      </trkpt>
      <trkpt lat="49.87985" lon="2.42194">
        <ele>35.2</ele>
        <time>2022-01-05T13:32:35Z</time>
      </trkpt>
      <trkpt lat="49.87987" lon="2.42195">
        <ele>35</ele>
        <time>2022-01-05T13:32:37Z</time>
      </trkpt>
      <trkpt lat="49.87989" lon="2.42196">
        <ele>34.9</ele>
        <time>2022-01-05T13:32:38Z</time>
      </trkpt>
      <trkpt lat="49.8799" lon="2.42197">
        <ele>34.8</ele>
        <time>2022-01-05T13:32:39Z</time>
      </trkpt>
      <trkpt lat="49.87993" lon="2.42199">
        <ele>34.5</ele>
        <time>2022-01-05T13:32:40Z</time>
      </trkpt>
      <trkpt lat="49.87994" lon="2.422">
        <ele>34.4</ele>
        <time>2022-01-05T13:32:41Z</time>
      </trkpt>
      <trkpt lat="49.87995" lon="2.42201">
        <ele>34.2</ele>
        <time>2022-01-05T13:32:42Z</time>
      </trkpt>
      <trkpt lat="49.87997" lon="2.42202">
        <ele>34</ele>
        <time>2022-01-05T13:32:44Z</time>
      </trkpt>
      <trkpt lat="49.87999" lon="2.42204">
        <ele>33.8</ele>
        <time>2022-01-05T13:32:45Z</time>
      </trkpt>
      <trkpt lat="49.88" lon="2.42205">
        <ele>33.7</ele>
        <time>2022-01-05T13:32:46Z</time>
      </trkpt>
      <trkpt lat="49.88002" lon="2.42207">
        <ele>33.5</ele>
        <time>2022-01-05T13:32:48Z</time>
      </trkpt>
      <trkpt lat="49.88003" lon="2.42207">
        <ele>33.4</ele>
        <time>2022-01-05T13:32:49Z</time>
      </trkpt>
      <trkpt lat="49.88005" lon="2.42208">
        <ele>33.2</ele>
        <time>2022-01-05T13:32:50Z</time>
      </trkpt>
      <trkpt lat="49.88006" lon="2.42209">
        <ele>33.1</ele>
        <time>2022-01-05T13:32:52Z</time>
      </trkpt>
      <trkpt lat="49.88007" lon="2.4221">
        <ele>33</ele>
        <time>2022-01-05T13:32:53Z</time>
      </trkpt>
      <trkpt lat="49.88009" lon="2.42212">
        <ele>32.8</ele>
        <time>2022-01-05T13:32:54Z</time>
      </trkpt>
      <trkpt lat="49.88011" lon="2.42214">
        <ele>32.6</ele>
        <time>2022-01-05T13:32:56Z</time>
      </trkpt>
      <trkpt lat="49.88012" lon="2.42215">
        <ele>32.5</ele>
        <time>2022-01-05T13:32:57Z</time>
      </trkpt>
      <trkpt lat="49.88013" lon="2.42217">
        <ele>32.4</ele>
        <time>2022-01-05T13:32:58Z</time>
      </trkpt>
      <trkpt lat="49.88014" lon="2.42219">
        <ele>32.3</ele>
        <time>2022-01-05T13:32:59Z</time>
      </trkpt>
      <trkpt lat="49.88015" lon="2.42221">
        <ele>32.2</ele>
        <time>2022-01-05T13:33:01Z</time>
      </trkpt>
      <trkpt lat="49.88017" lon="2.42224">
        <ele>32</ele>
        <time>2022-01-05T13:33:03Z</time>
      </trkpt>
      <trkpt lat="49.88017" lon="2.42227">
        <ele>31.9</ele>
        <time>2022-01-05T13:33:04Z</time>
      </trkpt>
      <trkpt lat="49.88017" lon="2.42229">
        <ele>31.8</ele>
        <time>2022-01-05T13:33:05Z</time>
      </trkpt>
      <trkpt lat="49.88018" lon="2.42233">
        <ele>31.7</ele>
        <time>2022-01-05T13:33:06Z</time>
      </trkpt>
      <trkpt lat="49.88018" lon="2.42234">
        <ele>31.6</ele>
        <time>2022-01-05T13:33:07Z</time>
      </trkpt>
      <trkpt lat="49.88018" lon="2.42235">
        <ele>31.5</ele>
        <time>2022-01-05T13:33:08Z</time>
      </trkpt>
      <trkpt lat="49.88018" lon="2.42238">
        <ele>31.4</ele>
        <time>2022-01-05T13:33:10Z</time>
      </trkpt>
      <trkpt lat="49.88018" lon="2.4224">
        <ele>31.4</ele>
        <time>2022-01-05T13:33:11Z</time>
      </trkpt>
      <trkpt lat="49.88018" lon="2.42245">
        <ele>31.2</ele>
        <time>2022-01-05T13:33:12Z</time>
      </trkpt>
      <trkpt lat="49.88018" lon="2.42246">
        <ele>31.2</ele>
        <time>2022-01-05T13:33:13Z</time>
      </trkpt>
      <trkpt lat="49.88018" lon="2.42248">
        <ele>31.1</ele>
        <time>2022-01-05T13:33:14Z</time>
      </trkpt>
      <trkpt lat="49.88017" lon="2.4225">
        <ele>31</ele>
        <time>2022-01-05T13:33:16Z</time>
      </trkpt>
      <trkpt lat="49.88017" lon="2.42253">
        <ele>31</ele>
        <time>2022-01-05T13:33:17Z</time>
      </trkpt>
      <trkpt lat="49.88017" lon="2.42256">
        <ele>30.9</ele>
        <time>2022-01-05T13:33:18Z</time>
      </trkpt>
      <trkpt lat="49.88017" lon="2.42258">
        <ele>30.8</ele>
        <time>2022-01-05T13:33:19Z</time>
      </trkpt>
      <trkpt lat="49.88017" lon="2.42261">
        <ele>30.8</ele>
        <time>2022-01-05T13:33:20Z</time>
      </trkpt>
      <trkpt lat="49.88017" lon="2.42263">
        <ele>30.7</ele>
        <time>2022-01-05T13:33:21Z</time>
      </trkpt>
      <trkpt lat="49.88017" lon="2.42265">
        <ele>30.7</ele>
        <time>2022-01-05T13:33:23Z</time>
      </trkpt>
      <trkpt lat="49.88016" lon="2.42268">
        <ele>30.6</ele>
        <time>2022-01-05T13:33:24Z</time>
      </trkpt>
      <trkpt lat="49.88016" lon="2.4227">
        <ele>30.6</ele>
        <time>2022-01-05T13:33:25Z</time>
      </trkpt>
      <trkpt lat="49.88016" lon="2.42276">
        <ele>30.5</ele>
        <time>2022-01-05T13:33:27Z</time>
      </trkpt>
      <trkpt lat="49.88016" lon="2.42278">
        <ele>30.4</ele>
        <time>2022-01-05T13:33:28Z</time>
      </trkpt>
      <trkpt lat="49.88015" lon="2.42283">
        <ele>30.4</ele>
        <time>2022-01-05T13:33:31Z</time>
      </trkpt>
      <trkpt lat="49.88014" lon="2.42285">
        <ele>30.3</ele>
        <time>2022-01-05T13:33:32Z</time>
      </trkpt>
      <trkpt lat="49.88013" lon="2.42287">
        <ele>30.3</ele>
        <time>2022-01-05T13:33:33Z</time>
      </trkpt>
      <trkpt lat="49.88013" lon="2.42289">
        <ele>30.3</ele>
        <time>2022-01-05T13:33:34Z</time>
      </trkpt>
      <trkpt lat="49.88012" lon="2.42292">
        <ele>30.2</ele>
        <time>2022-01-05T13:33:36Z</time>
      </trkpt>
      <trkpt lat="49.88012" lon="2.42294">
        <ele>30.2</ele>
        <time>2022-01-05T13:33:37Z</time>
      </trkpt>
      <trkpt lat="49.88011" lon="2.42297">
        <ele>30.2</ele>
        <time>2022-01-05T13:33:38Z</time>
      </trkpt>
      <trkpt lat="49.88011" lon="2.42299">
        <ele>30.1</ele>
        <time>2022-01-05T13:33:40Z</time>
      </trkpt>
      <trkpt lat="49.8801" lon="2.42302">
        <ele>30.1</ele>
        <time>2022-01-05T13:33:42Z</time>
      </trkpt>
      <trkpt lat="49.88009" lon="2.42304">
        <ele>30.1</ele>
        <time>2022-01-05T13:33:44Z</time>
      </trkpt>
      <trkpt lat="49.88009" lon="2.42304">
        <ele>30.1</ele>
        <time>2022-01-05T13:33:45Z</time>
      </trkpt>
      <trkpt lat="49.88008" lon="2.42305">
        <ele>30</ele>
        <time>2022-01-05T13:33:47Z</time>
      </trkpt>
      <trkpt lat="49.88007" lon="2.42305">
        <ele>30</ele>
        <time>2022-01-05T13:33:49Z</time>
      </trkpt>
      <trkpt lat="49.88007" lon="2.42304">
        <ele>30</ele>
        <time>2022-01-05T13:33:51Z</time>
      </trkpt>
      <trkpt lat="49.88006" lon="2.42304">
        <ele>30</ele>
        <time>2022-01-05T13:33:52Z</time>
      </trkpt>
      <trkpt lat="49.88006" lon="2.42304">
        <ele>30</ele>
        <time>2022-01-05T13:33:54Z</time>
      </trkpt>
      <trkpt lat="49.88006" lon="2.42304">
        <ele>30</ele>
        <time>2022-01-05T13:33:55Z</time>
      </trkpt>
      <trkpt lat="49.88006" lon="2.42304">
        <ele>30</ele>
        <time>2022-01-05T13:33:57Z</time>
      </trkpt>
      <trkpt lat="49.88006" lon="2.42304">
        <ele>30</ele>
        <time>2022-01-05T13:33:59Z</time>
      </trkpt>
      <trkpt lat="49.88006" lon="2.42304">
        <ele>30</ele>
        <time>2022-01-05T13:34:00Z</time>
      </trkpt>
      <trkpt lat="49.88006" lon="2.42303">
        <ele>30</ele>
        <time>2022-01-05T13:34:01Z</time>
      </trkpt>
      <trkpt lat="49.88006" lon="2.42303">
        <ele>30</ele>
        <time>2022-01-05T13:34:03Z</time>
      </trkpt>
      <trkpt lat="49.88006" lon="2.42303">
        <ele>30</ele>
        <time>2022-01-05T13:34:04Z</time>
      </trkpt>
      <trkpt lat="49.88006" lon="2.42303">
        <ele>30</ele>
        <time>2022-01-05T13:34:06Z</time>
      </trkpt>
      <trkpt lat="49.88006" lon="2.42303">
        <ele>30</ele>
        <time>2022-01-05T13:34:08Z</time>
      </trkpt>
      <trkpt lat="49.88006" lon="2.42303">
        <ele>30</ele>
        <time>2022-01-05T13:34:09Z</time>
      </trkpt>
      <trkpt lat="49.88006" lon="2.42303">
        <ele>30</ele>
        <time>2022-01-05T13:34:11Z</time>
      </trkpt>
      <trkpt lat="49.88006" lon="2.42303">
        <ele>30</ele>
        <time>2022-01-05T13:34:13Z</time>
      </trkpt>
      <trkpt lat="49.88007" lon="2.42303">
        <ele>30</ele>
        <time>2022-01-05T13:34:15Z</time>
      </trkpt>
      <trkpt lat="49.88007" lon="2.42302">
        <ele>30</ele>
        <time>2022-01-05T13:34:17Z</time>
      </trkpt>
      <trkpt lat="49.88007" lon="2.42302">
        <ele>30</ele>
        <time>2022-01-05T13:34:18Z</time>
      </trkpt>
      <trkpt lat="49.88007" lon="2.42302">
        <ele>30</ele>
        <time>2022-01-05T13:34:20Z</time>
      </trkpt>
      <trkpt lat="49.88007" lon="2.42302">
        <ele>30</ele>
        <time>2022-01-05T13:34:21Z</time>
      </trkpt>
      <trkpt lat="49.88007" lon="2.42302">
        <ele>30</ele>
        <time>2022-01-05T13:34:23Z</time>
      </trkpt>
      <trkpt lat="49.88007" lon="2.42302">
        <ele>30</ele>
        <time>2022-01-05T13:34:25Z</time>
      </trkpt>
      <trkpt lat="49.88007" lon="2.42302">
        <ele>30</ele>
        <time>2022-01-05T13:34:27Z</time>
      </trkpt>
      <trkpt lat="49.88007" lon="2.42302">
        <ele>30</ele>
        <time>2022-01-05T13:34:29Z</time>
      </trkpt>
      <trkpt lat="49.88007" lon="2.42302">
        <ele>30</ele>
        <time>2022-01-05T13:34:30Z</time>
      </trkpt>
      <trkpt lat="49.88007" lon="2.42303">
        <ele>30</ele>
        <time>2022-01-05T13:34:31Z</time>
      </trkpt>
      <trkpt lat="49.88006" lon="2.42304">
        <ele>30</ele>
        <time>2022-01-05T13:34:32Z</time>
      </trkpt>
      <trkpt lat="49.88007" lon="2.42306">
        <ele>30</ele>
        <time>2022-01-05T13:34:34Z</time>
      </trkpt>
      <trkpt lat="49.88007" lon="2.42307">
        <ele>30</ele>
        <time>2022-01-05T13:34:35Z</time>
      </trkpt>
      <trkpt lat="49.88007" lon="2.42309">
        <ele>29.9</ele>
        <time>2022-01-05T13:34:36Z</time>
      </trkpt>
      <trkpt lat="49.88007" lon="2.42311">
        <ele>29.9</ele>
        <time>2022-01-05T13:34:37Z</time>
      </trkpt>
      <trkpt lat="49.88007" lon="2.42315">
        <ele>29.9</ele>
        <time>2022-01-05T13:34:39Z</time>
      </trkpt>
      <trkpt lat="49.88007" lon="2.42317">
        <ele>29.9</ele>
        <time>2022-01-05T13:34:40Z</time>
      </trkpt>
      <trkpt lat="49.88007" lon="2.42319">
        <ele>29.9</ele>
        <time>2022-01-05T13:34:41Z</time>
      </trkpt>
      <trkpt lat="49.88007" lon="2.42322">
        <ele>29.9</ele>
        <time>2022-01-05T13:34:42Z</time>
      </trkpt>
      <trkpt lat="49.88007" lon="2.42325">
        <ele>29.9</ele>
        <time>2022-01-05T13:34:43Z</time>
      </trkpt>
      <trkpt lat="49.88007" lon="2.42329">
        <ele>29.9</ele>
        <time>2022-01-05T13:34:45Z</time>
      </trkpt>
      <trkpt lat="49.88006" lon="2.4233">
        <ele>29.9</ele>
        <time>2022-01-05T13:34:46Z</time>
      </trkpt>
      <trkpt lat="49.88006" lon="2.42335">
        <ele>29.9</ele>
        <time>2022-01-05T13:34:48Z</time>
      </trkpt>
      <trkpt lat="49.88006" lon="2.42336">
        <ele>29.9</ele>
        <time>2022-01-05T13:34:49Z</time>
      </trkpt>
      <trkpt lat="49.88006" lon="2.42338">
        <ele>29.9</ele>
        <time>2022-01-05T13:34:51Z</time>
      </trkpt>
      <trkpt lat="49.88006" lon="2.42341">
        <ele>29.9</ele>
        <time>2022-01-05T13:34:52Z</time>
      </trkpt>
      <trkpt lat="49.88006" lon="2.42344">
        <ele>29.9</ele>
        <time>2022-01-05T13:34:53Z</time>
      </trkpt>
      <trkpt lat="49.88006" lon="2.42346">
        <ele>29.9</ele>
        <time>2022-01-05T13:34:54Z</time>
      </trkpt>
      <trkpt lat="49.88006" lon="2.42347">
        <ele>29.9</ele>
        <time>2022-01-05T13:34:55Z</time>
      </trkpt>
      <trkpt lat="49.88006" lon="2.42351">
        <ele>29.9</ele>
        <time>2022-01-05T13:34:56Z</time>
      </trkpt>
      <trkpt lat="49.88006" lon="2.42353">
        <ele>29.9</ele>
        <time>2022-01-05T13:34:58Z</time>
      </trkpt>
      <trkpt lat="49.88006" lon="2.42355">
        <ele>29.9</ele>
        <time>2022-01-05T13:34:59Z</time>
      </trkpt>
      <trkpt lat="49.88005" lon="2.42357">
        <ele>29.9</ele>
        <time>2022-01-05T13:35:01Z</time>
      </trkpt>
      <trkpt lat="49.88005" lon="2.42359">
        <ele>29.9</ele>
        <time>2022-01-05T13:35:02Z</time>
      </trkpt>
      <trkpt lat="49.88005" lon="2.42361">
        <ele>29.9</ele>
        <time>2022-01-05T13:35:03Z</time>
      </trkpt>
      <trkpt lat="49.88005" lon="2.42363">
        <ele>29.9</ele>
        <time>2022-01-05T13:35:04Z</time>
      </trkpt>
      <trkpt lat="49.88005" lon="2.42366">
        <ele>30</ele>
        <time>2022-01-05T13:35:05Z</time>
      </trkpt>
      <trkpt lat="49.88005" lon="2.42367">
        <ele>30</ele>
        <time>2022-01-05T13:35:06Z</time>
      </trkpt>
      <trkpt lat="49.88004" lon="2.42368">
        <ele>30</ele>
        <time>2022-01-05T13:35:07Z</time>
      </trkpt>
      <trkpt lat="49.88004" lon="2.42371">
        <ele>30</ele>
        <time>2022-01-05T13:35:09Z</time>
      </trkpt>
      <trkpt lat="49.88004" lon="2.42373">
        <ele>30</ele>
        <time>2022-01-05T13:35:10Z</time>
      </trkpt>
      <trkpt lat="49.88004" lon="2.42375">
        <ele>30</ele>
        <time>2022-01-05T13:35:11Z</time>
      </trkpt>
      <trkpt lat="49.88004" lon="2.42377">
        <ele>30</ele>
        <time>2022-01-05T13:35:12Z</time>
      </trkpt>
      <trkpt lat="49.88004" lon="2.42379">
        <ele>30</ele>
        <time>2022-01-05T13:35:13Z</time>
      </trkpt>
      <trkpt lat="49.88004" lon="2.42381">
        <ele>30</ele>
        <time>2022-01-05T13:35:14Z</time>
      </trkpt>
      <trkpt lat="49.88004" lon="2.42383">
        <ele>30</ele>
        <time>2022-01-05T13:35:16Z</time>
      </trkpt>
      <trkpt lat="49.88004" lon="2.42385">
        <ele>30</ele>
        <time>2022-01-05T13:35:17Z</time>
      </trkpt>
      <trkpt lat="49.88004" lon="2.42388">
        <ele>30.1</ele>
        <time>2022-01-05T13:35:19Z</time>
      </trkpt>
      <trkpt lat="49.88005" lon="2.42391">
        <ele>30.1</ele>
        <time>2022-01-05T13:35:20Z</time>
      </trkpt>
      <trkpt lat="49.88005" lon="2.42394">
        <ele>30.1</ele>
        <time>2022-01-05T13:35:22Z</time>
      </trkpt>
      <trkpt lat="49.88006" lon="2.42399">
        <ele>30.1</ele>
        <time>2022-01-05T13:35:24Z</time>
      </trkpt>
      <trkpt lat="49.88007" lon="2.424">
        <ele>30.1</ele>
        <time>2022-01-05T13:35:25Z</time>
      </trkpt>
      <trkpt lat="49.88007" lon="2.42403">
        <ele>30.2</ele>
        <time>2022-01-05T13:35:26Z</time>
      </trkpt>
      <trkpt lat="49.88008" lon="2.42405">
        <ele>30.2</ele>
        <time>2022-01-05T13:35:28Z</time>
      </trkpt>
      <trkpt lat="49.88008" lon="2.42407">
        <ele>30.2</ele>
        <time>2022-01-05T13:35:29Z</time>
      </trkpt>
      <trkpt lat="49.88008" lon="2.4241">
        <ele>30.2</ele>
        <time>2022-01-05T13:35:30Z</time>
      </trkpt>
      <trkpt lat="49.88009" lon="2.42411">
        <ele>30.2</ele>
        <time>2022-01-05T13:35:31Z</time>
      </trkpt>
      <trkpt lat="49.88009" lon="2.42414">
        <ele>30.2</ele>
        <time>2022-01-05T13:35:32Z</time>
      </trkpt>
      <trkpt lat="49.8801" lon="2.42416">
        <ele>30.2</ele>
        <time>2022-01-05T13:35:33Z</time>
      </trkpt>
      <trkpt lat="49.8801" lon="2.42417">
        <ele>30.2</ele>
        <time>2022-01-05T13:35:35Z</time>
      </trkpt>
      <trkpt lat="49.8801" lon="2.42419">
        <ele>30.2</ele>
        <time>2022-01-05T13:35:36Z</time>
      </trkpt>
      <trkpt lat="49.88009" lon="2.42421">
        <ele>30.3</ele>
        <time>2022-01-05T13:35:38Z</time>
      </trkpt>
      <trkpt lat="49.88008" lon="2.42422">
        <ele>30.4</ele>
        <time>2022-01-05T13:35:40Z</time>
      </trkpt>
      <trkpt lat="49.88008" lon="2.42422">
        <ele>30.4</ele>
        <time>2022-01-05T13:35:41Z</time>
      </trkpt>
      <trkpt lat="49.88007" lon="2.42422">
        <ele>30.5</ele>
        <time>2022-01-05T13:35:42Z</time>
      </trkpt>
      <trkpt lat="49.88007" lon="2.42423">
        <ele>30.5</ele>
        <time>2022-01-05T13:35:43Z</time>
      </trkpt>
      <trkpt lat="49.88007" lon="2.42423">
        <ele>30.5</ele>
        <time>2022-01-05T13:35:45Z</time>
      </trkpt>
      <trkpt lat="49.88006" lon="2.42425">
        <ele>30.6</ele>
        <time>2022-01-05T13:35:47Z</time>
      </trkpt>
      <trkpt lat="49.88006" lon="2.42425">
        <ele>30.7</ele>
        <time>2022-01-05T13:35:48Z</time>
      </trkpt>
      <trkpt lat="49.88005" lon="2.42426">
        <ele>30.7</ele>
        <time>2022-01-05T13:35:49Z</time>
      </trkpt>
      <trkpt lat="49.88004" lon="2.42426">
        <ele>30.8</ele>
        <time>2022-01-05T13:35:50Z</time>
      </trkpt>
      <trkpt lat="49.88003" lon="2.42427">
        <ele>30.9</ele>
        <time>2022-01-05T13:35:51Z</time>
      </trkpt>
      <trkpt lat="49.88002" lon="2.42427">
        <ele>30.9</ele>
        <time>2022-01-05T13:35:53Z</time>
      </trkpt>
      <trkpt lat="49.88001" lon="2.42428">
        <ele>31</ele>
        <time>2022-01-05T13:35:54Z</time>
      </trkpt>
      <trkpt lat="49.87999" lon="2.42429">
        <ele>31.2</ele>
        <time>2022-01-05T13:35:56Z</time>
      </trkpt>
      <trkpt lat="49.87998" lon="2.42429">
        <ele>31.2</ele>
        <time>2022-01-05T13:35:57Z</time>
      </trkpt>
      <trkpt lat="49.87996" lon="2.4243">
        <ele>31.4</ele>
        <time>2022-01-05T13:35:58Z</time>
      </trkpt>
      <trkpt lat="49.87994" lon="2.42431">
        <ele>31.5</ele>
        <time>2022-01-05T13:35:59Z</time>
      </trkpt>
      <trkpt lat="49.87993" lon="2.42431">
        <ele>31.6</ele>
        <time>2022-01-05T13:36:01Z</time>
      </trkpt>
      <trkpt lat="49.87991" lon="2.42431">
        <ele>31.8</ele>
        <time>2022-01-05T13:36:02Z</time>
      </trkpt>
      <trkpt lat="49.87989" lon="2.42431">
        <ele>31.9</ele>
        <time>2022-01-05T13:36:03Z</time>
      </trkpt>
      <trkpt lat="49.87988" lon="2.42431">
        <ele>32</ele>
        <time>2022-01-05T13:36:04Z</time>
      </trkpt>
      <trkpt lat="49.87986" lon="2.42431">
        <ele>32.1</ele>
        <time>2022-01-05T13:36:05Z</time>
      </trkpt>
      <trkpt lat="49.87985" lon="2.42431">
        <ele>32.3</ele>
        <time>2022-01-05T13:36:06Z</time>
      </trkpt>
      <trkpt lat="49.87983" lon="2.42431">
        <ele>32.4</ele>
        <time>2022-01-05T13:36:07Z</time>
      </trkpt>
      <trkpt lat="49.87982" lon="2.42431">
        <ele>32.5</ele>
        <time>2022-01-05T13:36:09Z</time>
      </trkpt>
      <trkpt lat="49.87981" lon="2.42432">
        <ele>32.6</ele>
        <time>2022-01-05T13:36:10Z</time>
      </trkpt>
      <trkpt lat="49.87979" lon="2.42432">
        <ele>32.8</ele>
        <time>2022-01-05T13:36:11Z</time>
      </trkpt>
      <trkpt lat="49.87978" lon="2.42433">
        <ele>32.9</ele>
        <time>2022-01-05T13:36:12Z</time>
      </trkpt>
      <trkpt lat="49.87977" lon="2.42433">
        <ele>33</ele>
        <time>2022-01-05T13:36:13Z</time>
      </trkpt>
      <trkpt lat="49.87975" lon="2.42434">
        <ele>33.1</ele>
        <time>2022-01-05T13:36:15Z</time>
      </trkpt>
      <trkpt lat="49.87975" lon="2.42434">
        <ele>33.2</ele>
        <time>2022-01-05T13:36:16Z</time>
      </trkpt>
      <trkpt lat="49.87974" lon="2.42434">
        <ele>33.3</ele>
        <time>2022-01-05T13:36:17Z</time>
      </trkpt>
      <trkpt lat="49.87973" lon="2.42434">
        <ele>33.3</ele>
        <time>2022-01-05T13:36:18Z</time>
      </trkpt>
      <trkpt lat="49.87972" lon="2.42434">
        <ele>33.4</ele>
        <time>2022-01-05T13:36:19Z</time>
      </trkpt>
      <trkpt lat="49.87972" lon="2.42434">
        <ele>33.5</ele>
        <time>2022-01-05T13:36:21Z</time>
      </trkpt>
      <trkpt lat="49.87971" lon="2.42434">
        <ele>33.5</ele>
        <time>2022-01-05T13:36:22Z</time>
      </trkpt>
      <trkpt lat="49.8797" lon="2.42435">
        <ele>33.6</ele>
        <time>2022-01-05T13:36:23Z</time>
      </trkpt>
      <trkpt lat="49.87969" lon="2.42435">
        <ele>33.7</ele>
        <time>2022-01-05T13:36:24Z</time>
      </trkpt>
      <trkpt lat="49.87968" lon="2.42435">
        <ele>33.8</ele>
        <time>2022-01-05T13:36:26Z</time>
      </trkpt>
      <trkpt lat="49.87967" lon="2.42436">
        <ele>33.8</ele>
        <time>2022-01-05T13:36:27Z</time>
      </trkpt>
      <trkpt lat="49.87967" lon="2.42437">
        <ele>33.9</ele>
        <time>2022-01-05T13:36:28Z</time>
      </trkpt>
      <trkpt lat="49.87966" lon="2.42438">
        <ele>34</ele>
        <time>2022-01-05T13:36:29Z</time>
      </trkpt>
      <trkpt lat="49.87965" lon="2.42439">
        <ele>34.1</ele>
        <time>2022-01-05T13:36:30Z</time>
      </trkpt>
      <trkpt lat="49.87964" lon="2.42441">
        <ele>34.3</ele>
        <time>2022-01-05T13:36:32Z</time>
      </trkpt>
      <trkpt lat="49.87963" lon="2.42442">
        <ele>34.3</ele>
        <time>2022-01-05T13:36:33Z</time>
      </trkpt>
      <trkpt lat="49.87962" lon="2.42443">
        <ele>34.5</ele>
        <time>2022-01-05T13:36:35Z</time>
      </trkpt>
      <trkpt lat="49.87962" lon="2.42444">
        <ele>34.5</ele>
        <time>2022-01-05T13:36:36Z</time>
      </trkpt>
      <trkpt lat="49.87961" lon="2.42445">
        <ele>34.6</ele>
        <time>2022-01-05T13:36:37Z</time>
      </trkpt>
      <trkpt lat="49.8796" lon="2.42445">
        <ele>34.7</ele>
        <time>2022-01-05T13:36:38Z</time>
      </trkpt>
      <trkpt lat="49.87959" lon="2.42446">
        <ele>34.8</ele>
        <time>2022-01-05T13:36:39Z</time>
      </trkpt>
      <trkpt lat="49.87959" lon="2.42446">
        <ele>34.8</ele>
        <time>2022-01-05T13:36:41Z</time>
      </trkpt>
      <trkpt lat="49.87958" lon="2.42446">
        <ele>34.9</ele>
        <time>2022-01-05T13:36:42Z</time>
      </trkpt>
      <trkpt lat="49.87956" lon="2.42446">
        <ele>35</ele>
        <time>2022-01-05T13:36:43Z</time>
      </trkpt>
      <trkpt lat="49.87955" lon="2.42446">
        <ele>35.1</ele>
        <time>2022-01-05T13:36:44Z</time>
      </trkpt>
      <trkpt lat="49.87955" lon="2.42446">
        <ele>35.2</ele>
        <time>2022-01-05T13:36:46Z</time>
      </trkpt>
      <trkpt lat="49.87954" lon="2.42447">
        <ele>35.2</ele>
        <time>2022-01-05T13:36:47Z</time>
      </trkpt>
      <trkpt lat="49.87952" lon="2.42447">
        <ele>35.4</ele>
        <time>2022-01-05T13:36:48Z</time>
      </trkpt>
      <trkpt lat="49.87951" lon="2.42447">
        <ele>35.5</ele>
        <time>2022-01-05T13:36:50Z</time>
      </trkpt>
      <trkpt lat="49.8795" lon="2.42447">
        <ele>35.6</ele>
        <time>2022-01-05T13:36:51Z</time>
      </trkpt>
      <trkpt lat="49.87948" lon="2.42447">
        <ele>35.7</ele>
        <time>2022-01-05T13:36:52Z</time>
      </trkpt>
      <trkpt lat="49.87947" lon="2.42447">
        <ele>35.8</ele>
        <time>2022-01-05T13:36:53Z</time>
      </trkpt>
      <trkpt lat="49.87946" lon="2.42447">
        <ele>36</ele>
        <time>2022-01-05T13:36:54Z</time>
      </trkpt>
      <trkpt lat="49.87943" lon="2.42446">
        <ele>36.2</ele>
        <time>2022-01-05T13:36:56Z</time>
      </trkpt>
      <trkpt lat="49.87943" lon="2.42446">
        <ele>36.2</ele>
        <time>2022-01-05T13:36:57Z</time>
      </trkpt>
      <trkpt lat="49.87942" lon="2.42446">
        <ele>36.3</ele>
        <time>2022-01-05T13:36:58Z</time>
      </trkpt>
      <trkpt lat="49.8794" lon="2.42445">
        <ele>36.4</ele>
        <time>2022-01-05T13:36:59Z</time>
      </trkpt>
      <trkpt lat="49.87939" lon="2.42445">
        <ele>36.5</ele>
        <time>2022-01-05T13:37:00Z</time>
      </trkpt>
      <trkpt lat="49.87938" lon="2.42446">
        <ele>36.6</ele>
        <time>2022-01-05T13:37:02Z</time>
      </trkpt>
      <trkpt lat="49.87937" lon="2.42446">
        <ele>36.7</ele>
        <time>2022-01-05T13:37:03Z</time>
      </trkpt>
      <trkpt lat="49.87936" lon="2.42446">
        <ele>36.8</ele>
        <time>2022-01-05T13:37:04Z</time>
      </trkpt>
      <trkpt lat="49.87933" lon="2.42447">
        <ele>36.9</ele>
        <time>2022-01-05T13:37:05Z</time>
      </trkpt>
      <trkpt lat="49.87933" lon="2.42448">
        <ele>37</ele>
        <time>2022-01-05T13:37:06Z</time>
      </trkpt>
      <trkpt lat="49.87932" lon="2.42448">
        <ele>37.1</ele>
        <time>2022-01-05T13:37:07Z</time>
      </trkpt>
      <trkpt lat="49.8793" lon="2.42449">
        <ele>37.2</ele>
        <time>2022-01-05T13:37:08Z</time>
      </trkpt>
      <trkpt lat="49.87929" lon="2.4245">
        <ele>37.2</ele>
        <time>2022-01-05T13:37:10Z</time>
      </trkpt>
      <trkpt lat="49.87928" lon="2.42451">
        <ele>37.3</ele>
        <time>2022-01-05T13:37:11Z</time>
      </trkpt>
      <trkpt lat="49.87927" lon="2.42452">
        <ele>37.4</ele>
        <time>2022-01-05T13:37:12Z</time>
      </trkpt>
      <trkpt lat="49.87925" lon="2.42453">
        <ele>37.5</ele>
        <time>2022-01-05T13:37:13Z</time>
      </trkpt>
      <trkpt lat="49.87924" lon="2.42454">
        <ele>37.6</ele>
        <time>2022-01-05T13:37:14Z</time>
      </trkpt>
      <trkpt lat="49.87923" lon="2.42455">
        <ele>37.7</ele>
        <time>2022-01-05T13:37:15Z</time>
      </trkpt>
      <trkpt lat="49.87921" lon="2.42456">
        <ele>37.7</ele>
        <time>2022-01-05T13:37:16Z</time>
      </trkpt>
      <trkpt lat="49.87919" lon="2.42458">
        <ele>37.9</ele>
        <time>2022-01-05T13:37:17Z</time>
      </trkpt>
      <trkpt lat="49.87918" lon="2.42459">
        <ele>37.9</ele>
        <time>2022-01-05T13:37:19Z</time>
      </trkpt>
      <trkpt lat="49.87917" lon="2.4246">
        <ele>37.9</ele>
        <time>2022-01-05T13:37:20Z</time>
      </trkpt>
      <trkpt lat="49.87917" lon="2.4246">
        <ele>38</ele>
        <time>2022-01-05T13:37:21Z</time>
      </trkpt>
      <trkpt lat="49.87916" lon="2.42461">
        <ele>38</ele>
        <time>2022-01-05T13:37:22Z</time>
      </trkpt>
      <trkpt lat="49.87915" lon="2.42462">
        <ele>38.1</ele>
        <time>2022-01-05T13:37:23Z</time>
      </trkpt>
      <trkpt lat="49.87914" lon="2.42463">
        <ele>38.1</ele>
        <time>2022-01-05T13:37:24Z</time>
      </trkpt>
      <trkpt lat="49.87913" lon="2.42464">
        <ele>38.2</ele>
        <time>2022-01-05T13:37:25Z</time>
      </trkpt>
      <trkpt lat="49.87911" lon="2.42466">
        <ele>38.2</ele>
        <time>2022-01-05T13:37:26Z</time>
      </trkpt>
      <trkpt lat="49.8791" lon="2.42467">
        <ele>38.2</ele>
        <time>2022-01-05T13:37:28Z</time>
      </trkpt>
      <trkpt lat="49.8791" lon="2.42467">
        <ele>38.3</ele>
        <time>2022-01-05T13:37:29Z</time>
      </trkpt>
      <trkpt lat="49.87908" lon="2.42469">
        <ele>38.3</ele>
        <time>2022-01-05T13:37:30Z</time>
      </trkpt>
      <trkpt lat="49.87907" lon="2.42469">
        <ele>38.3</ele>
        <time>2022-01-05T13:37:31Z</time>
      </trkpt>
      <trkpt lat="49.87906" lon="2.4247">
        <ele>38.4</ele>
        <time>2022-01-05T13:37:32Z</time>
      </trkpt>
      <trkpt lat="49.87904" lon="2.42471">
        <ele>38.4</ele>
        <time>2022-01-05T13:37:33Z</time>
      </trkpt>
      <trkpt lat="49.87904" lon="2.42472">
        <ele>38.4</ele>
        <time>2022-01-05T13:37:34Z</time>
      </trkpt>
      <trkpt lat="49.87903" lon="2.42472">
        <ele>38.5</ele>
        <time>2022-01-05T13:37:35Z</time>
      </trkpt>
      <trkpt lat="49.87902" lon="2.42473">
        <ele>38.5</ele>
        <time>2022-01-05T13:37:37Z</time>
      </trkpt>
      <trkpt lat="49.879" lon="2.42474">
        <ele>38.5</ele>
        <time>2022-01-05T13:37:38Z</time>
      </trkpt>
      <trkpt lat="49.87899" lon="2.42475">
        <ele>38.5</ele>
        <time>2022-01-05T13:37:39Z</time>
      </trkpt>
      <trkpt lat="49.87898" lon="2.42476">
        <ele>38.6</ele>
        <time>2022-01-05T13:37:40Z</time>
      </trkpt>
      <trkpt lat="49.87897" lon="2.42477">
        <ele>38.6</ele>
        <time>2022-01-05T13:37:42Z</time>
      </trkpt>
      <trkpt lat="49.87897" lon="2.42479">
        <ele>38.6</ele>
        <time>2022-01-05T13:37:43Z</time>
      </trkpt>
      <trkpt lat="49.87896" lon="2.4248">
        <ele>38.6</ele>
        <time>2022-01-05T13:37:44Z</time>
      </trkpt>
      <trkpt lat="49.87895" lon="2.42482">
        <ele>38.6</ele>
        <time>2022-01-05T13:37:46Z</time>
      </trkpt>
      <trkpt lat="49.87894" lon="2.42484">
        <ele>38.6</ele>
        <time>2022-01-05T13:37:47Z</time>
      </trkpt>
      <trkpt lat="49.87893" lon="2.42485">
        <ele>38.6</ele>
        <time>2022-01-05T13:37:48Z</time>
      </trkpt>
      <trkpt lat="49.87893" lon="2.42486">
        <ele>38.6</ele>
        <time>2022-01-05T13:37:49Z</time>
      </trkpt>
      <trkpt lat="49.87892" lon="2.42488">
        <ele>38.7</ele>
        <time>2022-01-05T13:37:50Z</time>
      </trkpt>
      <trkpt lat="49.87891" lon="2.42489">
        <ele>38.7</ele>
        <time>2022-01-05T13:37:51Z</time>
      </trkpt>
      <trkpt lat="49.8789" lon="2.4249">
        <ele>38.7</ele>
        <time>2022-01-05T13:37:52Z</time>
      </trkpt>
      <trkpt lat="49.8789" lon="2.42491">
        <ele>38.7</ele>
        <time>2022-01-05T13:37:54Z</time>
      </trkpt>
      <trkpt lat="49.87889" lon="2.42492">
        <ele>38.7</ele>
        <time>2022-01-05T13:37:55Z</time>
      </trkpt>
      <trkpt lat="49.87888" lon="2.42494">
        <ele>38.7</ele>
        <time>2022-01-05T13:37:56Z</time>
      </trkpt>
      <trkpt lat="49.87887" lon="2.42496">
        <ele>38.7</ele>
        <time>2022-01-05T13:37:57Z</time>
      </trkpt>
      <trkpt lat="49.87886" lon="2.42497">
        <ele>38.7</ele>
        <time>2022-01-05T13:37:59Z</time>
      </trkpt>
      <trkpt lat="49.87885" lon="2.425">
        <ele>38.7</ele>
        <time>2022-01-05T13:38:00Z</time>
      </trkpt>
      <trkpt lat="49.87884" lon="2.42502">
        <ele>38.7</ele>
        <time>2022-01-05T13:38:02Z</time>
      </trkpt>
      <trkpt lat="49.87883" lon="2.42504">
        <ele>38.7</ele>
        <time>2022-01-05T13:38:03Z</time>
      </trkpt>
      <trkpt lat="49.87882" lon="2.42505">
        <ele>38.7</ele>
        <time>2022-01-05T13:38:04Z</time>
      </trkpt>
      <trkpt lat="49.87881" lon="2.42507">
        <ele>38.7</ele>
        <time>2022-01-05T13:38:06Z</time>
      </trkpt>
      <trkpt lat="49.8788" lon="2.42509">
        <ele>38.7</ele>
        <time>2022-01-05T13:38:07Z</time>
      </trkpt>
      <trkpt lat="49.87878" lon="2.42511">
        <ele>38.7</ele>
        <time>2022-01-05T13:38:08Z</time>
      </trkpt>
      <trkpt lat="49.87878" lon="2.42512">
        <ele>38.7</ele>
        <time>2022-01-05T13:38:09Z</time>
      </trkpt>
      <trkpt lat="49.87877" lon="2.42513">
        <ele>38.6</ele>
        <time>2022-01-05T13:38:10Z</time>
      </trkpt>
      <trkpt lat="49.87876" lon="2.42514">
        <ele>38.6</ele>
        <time>2022-01-05T13:38:11Z</time>
      </trkpt>
      <trkpt lat="49.87876" lon="2.42516">
        <ele>38.6</ele>
        <time>2022-01-05T13:38:12Z</time>
      </trkpt>
      <trkpt lat="49.87875" lon="2.42517">
        <ele>38.6</ele>
        <time>2022-01-05T13:38:13Z</time>
      </trkpt>
      <trkpt lat="49.87874" lon="2.42519">
        <ele>38.6</ele>
        <time>2022-01-05T13:38:15Z</time>
      </trkpt>
      <trkpt lat="49.87873" lon="2.42521">
        <ele>38.6</ele>
        <time>2022-01-05T13:38:16Z</time>
      </trkpt>
      <trkpt lat="49.87872" lon="2.42523">
        <ele>38.6</ele>
        <time>2022-01-05T13:38:18Z</time>
      </trkpt>
      <trkpt lat="49.87871" lon="2.42524">
        <ele>38.6</ele>
        <time>2022-01-05T13:38:19Z</time>
      </trkpt>
      <trkpt lat="49.8787" lon="2.42526">
        <ele>38.6</ele>
        <time>2022-01-05T13:38:20Z</time>
      </trkpt>
      <trkpt lat="49.87869" lon="2.42527">
        <ele>38.6</ele>
        <time>2022-01-05T13:38:21Z</time>
      </trkpt>
      <trkpt lat="49.87867" lon="2.4253">
        <ele>38.6</ele>
        <time>2022-01-05T13:38:23Z</time>
      </trkpt>
      <trkpt lat="49.87866" lon="2.42532">
        <ele>38.6</ele>
        <time>2022-01-05T13:38:25Z</time>
      </trkpt>
      <trkpt lat="49.87865" lon="2.42533">
        <ele>38.6</ele>
        <time>2022-01-05T13:38:26Z</time>
      </trkpt>
      <trkpt lat="49.87864" lon="2.42535">
        <ele>38.6</ele>
        <time>2022-01-05T13:38:27Z</time>
      </trkpt>
      <trkpt lat="49.87863" lon="2.42537">
        <ele>38.5</ele>
        <time>2022-01-05T13:38:29Z</time>
      </trkpt>
      <trkpt lat="49.87862" lon="2.42539">
        <ele>38.5</ele>
        <time>2022-01-05T13:38:30Z</time>
      </trkpt>
      <trkpt lat="49.87861" lon="2.42542">
        <ele>38.5</ele>
        <time>2022-01-05T13:38:31Z</time>
      </trkpt>
      <trkpt lat="49.8786" lon="2.42543">
        <ele>38.5</ele>
        <time>2022-01-05T13:38:32Z</time>
      </trkpt>
      <trkpt lat="49.8786" lon="2.42544">
        <ele>38.5</ele>
        <time>2022-01-05T13:38:33Z</time>
      </trkpt>
      <trkpt lat="49.87859" lon="2.42545">
        <ele>38.5</ele>
        <time>2022-01-05T13:38:34Z</time>
      </trkpt>
      <trkpt lat="49.87858" lon="2.42546">
        <ele>38.5</ele>
        <time>2022-01-05T13:38:35Z</time>
      </trkpt>
      <trkpt lat="49.87857" lon="2.42547">
        <ele>38.5</ele>
        <time>2022-01-05T13:38:37Z</time>
      </trkpt>
      <trkpt lat="49.87856" lon="2.42548">
        <ele>38.5</ele>
        <time>2022-01-05T13:38:38Z</time>
      </trkpt>
      <trkpt lat="49.87855" lon="2.42549">
        <ele>38.5</ele>
        <time>2022-01-05T13:38:39Z</time>
      </trkpt>
      <trkpt lat="49.87855" lon="2.4255">
        <ele>38.5</ele>
        <time>2022-01-05T13:38:40Z</time>
      </trkpt>
      <trkpt lat="49.87852" lon="2.42554">
        <ele>38.6</ele>
        <time>2022-01-05T13:38:42Z</time>
      </trkpt>
      <trkpt lat="49.87852" lon="2.42555">
        <ele>38.6</ele>
        <time>2022-01-05T13:38:43Z</time>
      </trkpt>
      <trkpt lat="49.87851" lon="2.42556">
        <ele>38.6</ele>
        <time>2022-01-05T13:38:44Z</time>
      </trkpt>
      <trkpt lat="49.87849" lon="2.42558">
        <ele>38.6</ele>
        <time>2022-01-05T13:38:46Z</time>
      </trkpt>
      <trkpt lat="49.87849" lon="2.4256">
        <ele>38.6</ele>
        <time>2022-01-05T13:38:47Z</time>
      </trkpt>
      <trkpt lat="49.87848" lon="2.42561">
        <ele>38.6</ele>
        <time>2022-01-05T13:38:48Z</time>
      </trkpt>
      <trkpt lat="49.87847" lon="2.42563">
        <ele>38.6</ele>
        <time>2022-01-05T13:38:49Z</time>
      </trkpt>
      <trkpt lat="49.87847" lon="2.42564">
        <ele>38.6</ele>
        <time>2022-01-05T13:38:51Z</time>
      </trkpt>
      <trkpt lat="49.87846" lon="2.42566">
        <ele>38.6</ele>
        <time>2022-01-05T13:38:52Z</time>
      </trkpt>
      <trkpt lat="49.87846" lon="2.42567">
        <ele>38.6</ele>
        <time>2022-01-05T13:38:53Z</time>
      </trkpt>
      <trkpt lat="49.87845" lon="2.42569">
        <ele>38.6</ele>
        <time>2022-01-05T13:38:55Z</time>
      </trkpt>
      <trkpt lat="49.87844" lon="2.42569">
        <ele>38.6</ele>
        <time>2022-01-05T13:38:56Z</time>
      </trkpt>
      <trkpt lat="49.87843" lon="2.4257">
        <ele>38.6</ele>
        <time>2022-01-05T13:38:57Z</time>
      </trkpt>
      <trkpt lat="49.87843" lon="2.4257">
        <ele>38.6</ele>
        <time>2022-01-05T13:38:59Z</time>
      </trkpt>
      <trkpt lat="49.87842" lon="2.4257">
        <ele>38.6</ele>
        <time>2022-01-05T13:39:01Z</time>
      </trkpt>
      <trkpt lat="49.87842" lon="2.4257">
        <ele>38.6</ele>
        <time>2022-01-05T13:39:02Z</time>
      </trkpt>
      <trkpt lat="49.87842" lon="2.42569">
        <ele>38.6</ele>
        <time>2022-01-05T13:39:04Z</time>
      </trkpt>
      <trkpt lat="49.87842" lon="2.42569">
        <ele>38.6</ele>
        <time>2022-01-05T13:39:06Z</time>
      </trkpt>
      <trkpt lat="49.87842" lon="2.42569">
        <ele>38.6</ele>
        <time>2022-01-05T13:39:07Z</time>
      </trkpt>
      <trkpt lat="49.87842" lon="2.42569">
        <ele>38.6</ele>
        <time>2022-01-05T13:39:08Z</time>
      </trkpt>
      <trkpt lat="49.87842" lon="2.42569">
        <ele>38.6</ele>
        <time>2022-01-05T13:39:10Z</time>
      </trkpt>
      <trkpt lat="49.87842" lon="2.42569">
        <ele>38.6</ele>
        <time>2022-01-05T13:39:12Z</time>
      </trkpt>
      <trkpt lat="49.87842" lon="2.42569">
        <ele>38.6</ele>
        <time>2022-01-05T13:39:13Z</time>
      </trkpt>
      <trkpt lat="49.87842" lon="2.42569">
        <ele>38.6</ele>
        <time>2022-01-05T13:39:14Z</time>
      </trkpt>
      <trkpt lat="49.87842" lon="2.42569">
        <ele>38.6</ele>
        <time>2022-01-05T13:39:16Z</time>
      </trkpt>
      <trkpt lat="49.87842" lon="2.42569">
        <ele>38.6</ele>
        <time>2022-01-05T13:39:17Z</time>
      </trkpt>
      <trkpt lat="49.87842" lon="2.42568">
        <ele>38.6</ele>
        <time>2022-01-05T13:39:19Z</time>
      </trkpt>
      <trkpt lat="49.87842" lon="2.42568">
        <ele>38.6</ele>
        <time>2022-01-05T13:39:21Z</time>
      </trkpt>
      <trkpt lat="49.87843" lon="2.42568">
        <ele>38.6</ele>
        <time>2022-01-05T13:39:22Z</time>
      </trkpt>
      <trkpt lat="49.87842" lon="2.42569">
        <ele>38.6</ele>
        <time>2022-01-05T13:39:23Z</time>
      </trkpt>
      <trkpt lat="49.87842" lon="2.4257">
        <ele>38.6</ele>
        <time>2022-01-05T13:39:24Z</time>
      </trkpt>
      <trkpt lat="49.87841" lon="2.4257">
        <ele>38.6</ele>
        <time>2022-01-05T13:39:25Z</time>
      </trkpt>
      <trkpt lat="49.87841" lon="2.42572">
        <ele>38.6</ele>
        <time>2022-01-05T13:39:27Z</time>
      </trkpt>
      <trkpt lat="49.8784" lon="2.42573">
        <ele>38.7</ele>
        <time>2022-01-05T13:39:28Z</time>
      </trkpt>
      <trkpt lat="49.8784" lon="2.42575">
        <ele>38.7</ele>
        <time>2022-01-05T13:39:29Z</time>
      </trkpt>
      <trkpt lat="49.87839" lon="2.42578">
        <ele>38.7</ele>
        <time>2022-01-05T13:39:30Z</time>
      </trkpt>
      <trkpt lat="49.87838" lon="2.4258">
        <ele>38.7</ele>
        <time>2022-01-05T13:39:31Z</time>
      </trkpt>
      <trkpt lat="49.87838" lon="2.42582">
        <ele>38.7</ele>
        <time>2022-01-05T13:39:32Z</time>
      </trkpt>
      <trkpt lat="49.87837" lon="2.42584">
        <ele>38.7</ele>
        <time>2022-01-05T13:39:33Z</time>
      </trkpt>
      <trkpt lat="49.87837" lon="2.42586">
        <ele>38.7</ele>
        <time>2022-01-05T13:39:35Z</time>
      </trkpt>
      <trkpt lat="49.87836" lon="2.42589">
        <ele>38.7</ele>
        <time>2022-01-05T13:39:36Z</time>
      </trkpt>
      <trkpt lat="49.87836" lon="2.42591">
        <ele>38.7</ele>
        <time>2022-01-05T13:39:37Z</time>
      </trkpt>
      <trkpt lat="49.87835" lon="2.42594">
        <ele>38.6</ele>
        <time>2022-01-05T13:39:39Z</time>
      </trkpt>
      <trkpt lat="49.87835" lon="2.42596">
        <ele>38.6</ele>
        <time>2022-01-05T13:39:40Z</time>
      </trkpt>
      <trkpt lat="49.87833" lon="2.426">
        <ele>38.6</ele>
        <time>2022-01-05T13:39:41Z</time>
      </trkpt>
      <trkpt lat="49.87832" lon="2.42601">
        <ele>38.6</ele>
        <time>2022-01-05T13:39:42Z</time>
      </trkpt>
      <trkpt lat="49.87832" lon="2.42602">
        <ele>38.6</ele>
        <time>2022-01-05T13:39:44Z</time>
      </trkpt>
      <trkpt lat="49.87831" lon="2.42604">
        <ele>38.5</ele>
        <time>2022-01-05T13:39:45Z</time>
      </trkpt>
      <trkpt lat="49.8783" lon="2.42607">
        <ele>38.5</ele>
        <time>2022-01-05T13:39:47Z</time>
      </trkpt>
      <trkpt lat="49.87829" lon="2.42609">
        <ele>38.5</ele>
        <time>2022-01-05T13:39:48Z</time>
      </trkpt>
      <trkpt lat="49.87827" lon="2.42609">
        <ele>38.5</ele>
        <time>2022-01-05T13:39:49Z</time>
      </trkpt>
      <trkpt lat="49.87825" lon="2.42609">
        <ele>38.5</ele>
        <time>2022-01-05T13:39:50Z</time>
      </trkpt>
      <trkpt lat="49.87824" lon="2.42609">
        <ele>38.5</ele>
        <time>2022-01-05T13:39:51Z</time>
      </trkpt>
      <trkpt lat="49.87822" lon="2.42609">
        <ele>38.5</ele>
        <time>2022-01-05T13:39:52Z</time>
      </trkpt>
      <trkpt lat="49.87821" lon="2.42609">
        <ele>38.5</ele>
        <time>2022-01-05T13:39:53Z</time>
      </trkpt>
      <trkpt lat="49.8782" lon="2.4261">
        <ele>38.5</ele>
        <time>2022-01-05T13:39:54Z</time>
      </trkpt>
      <trkpt lat="49.87819" lon="2.4261">
        <ele>38.5</ele>
        <time>2022-01-05T13:39:56Z</time>
      </trkpt>
      <trkpt lat="49.87818" lon="2.42611">
        <ele>38.5</ele>
        <time>2022-01-05T13:39:57Z</time>
      </trkpt>
      <trkpt lat="49.87817" lon="2.42611">
        <ele>38.5</ele>
        <time>2022-01-05T13:39:58Z</time>
      </trkpt>
      <trkpt lat="49.87816" lon="2.42612">
        <ele>38.5</ele>
        <time>2022-01-05T13:40:00Z</time>
      </trkpt>
      <trkpt lat="49.87815" lon="2.42612">
        <ele>38.5</ele>
        <time>2022-01-05T13:40:01Z</time>
      </trkpt>
      <trkpt lat="49.87814" lon="2.42612">
        <ele>38.5</ele>
        <time>2022-01-05T13:40:02Z</time>
      </trkpt>
      <trkpt lat="49.87812" lon="2.42613">
        <ele>38.5</ele>
        <time>2022-01-05T13:40:04Z</time>
      </trkpt>
      <trkpt lat="49.87811" lon="2.42615">
        <ele>38.5</ele>
        <time>2022-01-05T13:40:05Z</time>
      </trkpt>
      <trkpt lat="49.8781" lon="2.42616">
        <ele>38.5</ele>
        <time>2022-01-05T13:40:06Z</time>
      </trkpt>
      <trkpt lat="49.87809" lon="2.42617">
        <ele>38.5</ele>
        <time>2022-01-05T13:40:07Z</time>
      </trkpt>
      <trkpt lat="49.87808" lon="2.42618">
        <ele>38.5</ele>
        <time>2022-01-05T13:40:08Z</time>
      </trkpt>
      <trkpt lat="49.87807" lon="2.42619">
        <ele>38.5</ele>
        <time>2022-01-05T13:40:09Z</time>
      </trkpt>
      <trkpt lat="49.87806" lon="2.4262">
        <ele>38.5</ele>
        <time>2022-01-05T13:40:11Z</time>
      </trkpt>
      <trkpt lat="49.87806" lon="2.42621">
        <ele>38.5</ele>
        <time>2022-01-05T13:40:12Z</time>
      </trkpt>
      <trkpt lat="49.87805" lon="2.42622">
        <ele>38.5</ele>
        <time>2022-01-05T13:40:13Z</time>
      </trkpt>
      <trkpt lat="49.87805" lon="2.42623">
        <ele>38.6</ele>
        <time>2022-01-05T13:40:14Z</time>
      </trkpt>
      <trkpt lat="49.87804" lon="2.42624">
        <ele>38.6</ele>
        <time>2022-01-05T13:40:15Z</time>
      </trkpt>
      <trkpt lat="49.87803" lon="2.42626">
        <ele>38.6</ele>
        <time>2022-01-05T13:40:16Z</time>
      </trkpt>
      <trkpt lat="49.87803" lon="2.42627">
        <ele>38.6</ele>
        <time>2022-01-05T13:40:17Z</time>
      </trkpt>
      <trkpt lat="49.87802" lon="2.42628">
        <ele>38.6</ele>
        <time>2022-01-05T13:40:18Z</time>
      </trkpt>
      <trkpt lat="49.87801" lon="2.42629">
        <ele>38.6</ele>
        <time>2022-01-05T13:40:20Z</time>
      </trkpt>
      <trkpt lat="49.878" lon="2.4263">
        <ele>38.6</ele>
        <time>2022-01-05T13:40:21Z</time>
      </trkpt>
      <trkpt lat="49.87798" lon="2.42632">
        <ele>38.6</ele>
        <time>2022-01-05T13:40:22Z</time>
      </trkpt>
      <trkpt lat="49.87797" lon="2.42633">
        <ele>38.6</ele>
        <time>2022-01-05T13:40:23Z</time>
      </trkpt>
      <trkpt lat="49.87797" lon="2.42634">
        <ele>38.6</ele>
        <time>2022-01-05T13:40:24Z</time>
      </trkpt>
      <trkpt lat="49.87795" lon="2.42635">
        <ele>38.7</ele>
        <time>2022-01-05T13:40:25Z</time>
      </trkpt>
      <trkpt lat="49.87794" lon="2.42636">
        <ele>38.7</ele>
        <time>2022-01-05T13:40:26Z</time>
      </trkpt>
      <trkpt lat="49.87793" lon="2.42637">
        <ele>38.7</ele>
        <time>2022-01-05T13:40:27Z</time>
      </trkpt>
      <trkpt lat="49.87792" lon="2.42638">
        <ele>38.8</ele>
        <time>2022-01-05T13:40:29Z</time>
      </trkpt>
      <trkpt lat="49.8779" lon="2.42639">
        <ele>38.8</ele>
        <time>2022-01-05T13:40:31Z</time>
      </trkpt>
      <trkpt lat="49.87789" lon="2.42641">
        <ele>38.9</ele>
        <time>2022-01-05T13:40:32Z</time>
      </trkpt>
      <trkpt lat="49.87787" lon="2.42643">
        <ele>38.9</ele>
        <time>2022-01-05T13:40:34Z</time>
      </trkpt>
      <trkpt lat="49.87786" lon="2.42644">
        <ele>39</ele>
        <time>2022-01-05T13:40:35Z</time>
      </trkpt>
      <trkpt lat="49.87784" lon="2.42645">
        <ele>39</ele>
        <time>2022-01-05T13:40:36Z</time>
      </trkpt>
      <trkpt lat="49.87783" lon="2.42647">
        <ele>39.1</ele>
        <time>2022-01-05T13:40:37Z</time>
      </trkpt>
      <trkpt lat="49.87782" lon="2.42648">
        <ele>39.1</ele>
        <time>2022-01-05T13:40:38Z</time>
      </trkpt>
      <trkpt lat="49.87781" lon="2.42649">
        <ele>39.1</ele>
        <time>2022-01-05T13:40:39Z</time>
      </trkpt>
      <trkpt lat="49.8778" lon="2.42651">
        <ele>39.2</ele>
        <time>2022-01-05T13:40:40Z</time>
      </trkpt>
      <trkpt lat="49.87779" lon="2.42652">
        <ele>39.2</ele>
        <time>2022-01-05T13:40:42Z</time>
      </trkpt>
      <trkpt lat="49.87778" lon="2.42655">
        <ele>39.3</ele>
        <time>2022-01-05T13:40:43Z</time>
      </trkpt>
      <trkpt lat="49.87778" lon="2.42656">
        <ele>39.3</ele>
        <time>2022-01-05T13:40:44Z</time>
      </trkpt>
      <trkpt lat="49.87777" lon="2.42657">
        <ele>39.3</ele>
        <time>2022-01-05T13:40:45Z</time>
      </trkpt>
      <trkpt lat="49.87776" lon="2.42659">
        <ele>39.3</ele>
        <time>2022-01-05T13:40:46Z</time>
      </trkpt>
      <trkpt lat="49.87775" lon="2.4266">
        <ele>39.4</ele>
        <time>2022-01-05T13:40:47Z</time>
      </trkpt>
      <trkpt lat="49.87774" lon="2.42662">
        <ele>39.4</ele>
        <time>2022-01-05T13:40:48Z</time>
      </trkpt>
      <trkpt lat="49.87774" lon="2.42664">
        <ele>39.5</ele>
        <time>2022-01-05T13:40:49Z</time>
      </trkpt>
      <trkpt lat="49.87773" lon="2.42665">
        <ele>39.5</ele>
        <time>2022-01-05T13:40:51Z</time>
      </trkpt>
      <trkpt lat="49.87772" lon="2.42667">
        <ele>39.5</ele>
        <time>2022-01-05T13:40:52Z</time>
      </trkpt>
      <trkpt lat="49.87771" lon="2.42669">
        <ele>39.6</ele>
        <time>2022-01-05T13:40:53Z</time>
      </trkpt>
      <trkpt lat="49.8777" lon="2.42671">
        <ele>39.6</ele>
        <time>2022-01-05T13:40:54Z</time>
      </trkpt>
      <trkpt lat="49.87769" lon="2.42672">
        <ele>39.6</ele>
        <time>2022-01-05T13:40:55Z</time>
      </trkpt>
      <trkpt lat="49.87768" lon="2.42675">
        <ele>39.7</ele>
        <time>2022-01-05T13:40:56Z</time>
      </trkpt>
      <trkpt lat="49.87767" lon="2.42676">
        <ele>39.7</ele>
        <time>2022-01-05T13:40:57Z</time>
      </trkpt>
      <trkpt lat="49.87767" lon="2.42677">
        <ele>39.7</ele>
        <time>2022-01-05T13:40:58Z</time>
      </trkpt>
      <trkpt lat="49.87766" lon="2.42679">
        <ele>39.8</ele>
        <time>2022-01-05T13:41:00Z</time>
      </trkpt>
      <trkpt lat="49.87765" lon="2.42682">
        <ele>39.9</ele>
        <time>2022-01-05T13:41:02Z</time>
      </trkpt>
      <trkpt lat="49.87763" lon="2.42686">
        <ele>39.9</ele>
        <time>2022-01-05T13:41:03Z</time>
      </trkpt>
      <trkpt lat="49.87763" lon="2.42687">
        <ele>40</ele>
        <time>2022-01-05T13:41:04Z</time>
      </trkpt>
      <trkpt lat="49.87762" lon="2.42689">
        <ele>40</ele>
        <time>2022-01-05T13:41:05Z</time>
      </trkpt>
      <trkpt lat="49.87761" lon="2.42691">
        <ele>40</ele>
        <time>2022-01-05T13:41:06Z</time>
      </trkpt>
      <trkpt lat="49.87759" lon="2.42694">
        <ele>40.1</ele>
        <time>2022-01-05T13:41:07Z</time>
      </trkpt>
      <trkpt lat="49.87759" lon="2.42695">
        <ele>40.1</ele>
        <time>2022-01-05T13:41:09Z</time>
      </trkpt>
      <trkpt lat="49.87758" lon="2.42696">
        <ele>40.2</ele>
        <time>2022-01-05T13:41:10Z</time>
      </trkpt>
      <trkpt lat="49.87757" lon="2.42697">
        <ele>40.2</ele>
        <time>2022-01-05T13:41:11Z</time>
      </trkpt>
      <trkpt lat="49.87757" lon="2.42699">
        <ele>40.2</ele>
        <time>2022-01-05T13:41:12Z</time>
      </trkpt>
      <trkpt lat="49.87756" lon="2.427">
        <ele>40.3</ele>
        <time>2022-01-05T13:41:13Z</time>
      </trkpt>
      <trkpt lat="49.87754" lon="2.42703">
        <ele>40.3</ele>
        <time>2022-01-05T13:41:15Z</time>
      </trkpt>
      <trkpt lat="49.87754" lon="2.42704">
        <ele>40.4</ele>
        <time>2022-01-05T13:41:16Z</time>
      </trkpt>
      <trkpt lat="49.87753" lon="2.42705">
        <ele>40.4</ele>
        <time>2022-01-05T13:41:17Z</time>
      </trkpt>
      <trkpt lat="49.87752" lon="2.42707">
        <ele>40.4</ele>
        <time>2022-01-05T13:41:18Z</time>
      </trkpt>
      <trkpt lat="49.87751" lon="2.42709">
        <ele>40.5</ele>
        <time>2022-01-05T13:41:19Z</time>
      </trkpt>
      <trkpt lat="49.8775" lon="2.4271">
        <ele>40.5</ele>
        <time>2022-01-05T13:41:20Z</time>
      </trkpt>
      <trkpt lat="49.8775" lon="2.42711">
        <ele>40.5</ele>
        <time>2022-01-05T13:41:21Z</time>
      </trkpt>
      <trkpt lat="49.87749" lon="2.42713">
        <ele>40.6</ele>
        <time>2022-01-05T13:41:22Z</time>
      </trkpt>
      <trkpt lat="49.87748" lon="2.42714">
        <ele>40.6</ele>
        <time>2022-01-05T13:41:23Z</time>
      </trkpt>
      <trkpt lat="49.87748" lon="2.42715">
        <ele>40.6</ele>
        <time>2022-01-05T13:41:24Z</time>
      </trkpt>
      <trkpt lat="49.87746" lon="2.42717">
        <ele>40.7</ele>
        <time>2022-01-05T13:41:25Z</time>
      </trkpt>
      <trkpt lat="49.87746" lon="2.42718">
        <ele>40.7</ele>
        <time>2022-01-05T13:41:27Z</time>
      </trkpt>
      <trkpt lat="49.87745" lon="2.42719">
        <ele>40.7</ele>
        <time>2022-01-05T13:41:28Z</time>
      </trkpt>
      <trkpt lat="49.87743" lon="2.42721">
        <ele>40.8</ele>
        <time>2022-01-05T13:41:29Z</time>
      </trkpt>
      <trkpt lat="49.87743" lon="2.42722">
        <ele>40.8</ele>
        <time>2022-01-05T13:41:30Z</time>
      </trkpt>
      <trkpt lat="49.87742" lon="2.42723">
        <ele>40.8</ele>
        <time>2022-01-05T13:41:31Z</time>
      </trkpt>
      <trkpt lat="49.87741" lon="2.42725">
        <ele>40.9</ele>
        <time>2022-01-05T13:41:32Z</time>
      </trkpt>
      <trkpt lat="49.8774" lon="2.42726">
        <ele>40.9</ele>
        <time>2022-01-05T13:41:33Z</time>
      </trkpt>
      <trkpt lat="49.87738" lon="2.42728">
        <ele>41</ele>
        <time>2022-01-05T13:41:35Z</time>
      </trkpt>
      <trkpt lat="49.87738" lon="2.42729">
        <ele>41</ele>
        <time>2022-01-05T13:41:36Z</time>
      </trkpt>
      <trkpt lat="49.87737" lon="2.4273">
        <ele>41</ele>
        <time>2022-01-05T13:41:37Z</time>
      </trkpt>
      <trkpt lat="49.87736" lon="2.42732">
        <ele>41.1</ele>
        <time>2022-01-05T13:41:38Z</time>
      </trkpt>
      <trkpt lat="49.87735" lon="2.42734">
        <ele>41.1</ele>
        <time>2022-01-05T13:41:39Z</time>
      </trkpt>
      <trkpt lat="49.87734" lon="2.42736">
        <ele>41.2</ele>
        <time>2022-01-05T13:41:40Z</time>
      </trkpt>
      <trkpt lat="49.87733" lon="2.42737">
        <ele>41.2</ele>
        <time>2022-01-05T13:41:42Z</time>
      </trkpt>
      <trkpt lat="49.87732" lon="2.42739">
        <ele>41.3</ele>
        <time>2022-01-05T13:41:43Z</time>
      </trkpt>
      <trkpt lat="49.87731" lon="2.4274">
        <ele>41.3</ele>
        <time>2022-01-05T13:41:44Z</time>
      </trkpt>
      <trkpt lat="49.87729" lon="2.42743">
        <ele>41.4</ele>
        <time>2022-01-05T13:41:45Z</time>
      </trkpt>
      <trkpt lat="49.87729" lon="2.42744">
        <ele>41.4</ele>
        <time>2022-01-05T13:41:46Z</time>
      </trkpt>
      <trkpt lat="49.87728" lon="2.42745">
        <ele>41.5</ele>
        <time>2022-01-05T13:41:47Z</time>
      </trkpt>
      <trkpt lat="49.87727" lon="2.42747">
        <ele>41.5</ele>
        <time>2022-01-05T13:41:48Z</time>
      </trkpt>
      <trkpt lat="49.87726" lon="2.42748">
        <ele>41.6</ele>
        <time>2022-01-05T13:41:49Z</time>
      </trkpt>
      <trkpt lat="49.87726" lon="2.42749">
        <ele>41.6</ele>
        <time>2022-01-05T13:41:50Z</time>
      </trkpt>
      <trkpt lat="49.87725" lon="2.4275">
        <ele>41.6</ele>
        <time>2022-01-05T13:41:51Z</time>
      </trkpt>
      <trkpt lat="49.87724" lon="2.42752">
        <ele>41.7</ele>
        <time>2022-01-05T13:41:53Z</time>
      </trkpt>
      <trkpt lat="49.87723" lon="2.42753">
        <ele>41.7</ele>
        <time>2022-01-05T13:41:54Z</time>
      </trkpt>
      <trkpt lat="49.87722" lon="2.42754">
        <ele>41.7</ele>
        <time>2022-01-05T13:41:55Z</time>
      </trkpt>
      <trkpt lat="49.87721" lon="2.42755">
        <ele>41.8</ele>
        <time>2022-01-05T13:41:56Z</time>
      </trkpt>
      <trkpt lat="49.8772" lon="2.42756">
        <ele>41.8</ele>
        <time>2022-01-05T13:41:57Z</time>
      </trkpt>
      <trkpt lat="49.8772" lon="2.42757">
        <ele>41.8</ele>
        <time>2022-01-05T13:41:58Z</time>
      </trkpt>
      <trkpt lat="49.87719" lon="2.42758">
        <ele>41.9</ele>
        <time>2022-01-05T13:41:59Z</time>
      </trkpt>
      <trkpt lat="49.87718" lon="2.42759">
        <ele>41.9</ele>
        <time>2022-01-05T13:42:00Z</time>
      </trkpt>
      <trkpt lat="49.87717" lon="2.4276">
        <ele>41.9</ele>
        <time>2022-01-05T13:42:01Z</time>
      </trkpt>
      <trkpt lat="49.87716" lon="2.4276">
        <ele>42</ele>
        <time>2022-01-05T13:42:02Z</time>
      </trkpt>
      <trkpt lat="49.87715" lon="2.42761">
        <ele>42</ele>
        <time>2022-01-05T13:42:04Z</time>
      </trkpt>
      <trkpt lat="49.87714" lon="2.42762">
        <ele>42</ele>
        <time>2022-01-05T13:42:05Z</time>
      </trkpt>
      <trkpt lat="49.87713" lon="2.42763">
        <ele>42.1</ele>
        <time>2022-01-05T13:42:06Z</time>
      </trkpt>
      <trkpt lat="49.87712" lon="2.42764">
        <ele>42.1</ele>
        <time>2022-01-05T13:42:07Z</time>
      </trkpt>
      <trkpt lat="49.8771" lon="2.42765">
        <ele>42.2</ele>
        <time>2022-01-05T13:42:08Z</time>
      </trkpt>
      <trkpt lat="49.87709" lon="2.42765">
        <ele>42.2</ele>
        <time>2022-01-05T13:42:09Z</time>
      </trkpt>
      <trkpt lat="49.87709" lon="2.42766">
        <ele>42.2</ele>
        <time>2022-01-05T13:42:10Z</time>
      </trkpt>
      <trkpt lat="49.87708" lon="2.42767">
        <ele>42.2</ele>
        <time>2022-01-05T13:42:11Z</time>
      </trkpt>
      <trkpt lat="49.87706" lon="2.42768">
        <ele>42.3</ele>
        <time>2022-01-05T13:42:12Z</time>
      </trkpt>
      <trkpt lat="49.87705" lon="2.42769">
        <ele>42.3</ele>
        <time>2022-01-05T13:42:14Z</time>
      </trkpt>
      <trkpt lat="49.87703" lon="2.42771">
        <ele>42.4</ele>
        <time>2022-01-05T13:42:15Z</time>
      </trkpt>
      <trkpt lat="49.87703" lon="2.42771">
        <ele>42.4</ele>
        <time>2022-01-05T13:42:16Z</time>
      </trkpt>
      <trkpt lat="49.87702" lon="2.42772">
        <ele>42.4</ele>
        <time>2022-01-05T13:42:17Z</time>
      </trkpt>
      <trkpt lat="49.877" lon="2.42774">
        <ele>42.5</ele>
        <time>2022-01-05T13:42:18Z</time>
      </trkpt>
      <trkpt lat="49.87699" lon="2.42774">
        <ele>42.5</ele>
        <time>2022-01-05T13:42:19Z</time>
      </trkpt>
      <trkpt lat="49.87699" lon="2.42775">
        <ele>42.6</ele>
        <time>2022-01-05T13:42:20Z</time>
      </trkpt>
      <trkpt lat="49.87698" lon="2.42776">
        <ele>42.6</ele>
        <time>2022-01-05T13:42:21Z</time>
      </trkpt>
      <trkpt lat="49.87697" lon="2.42777">
        <ele>42.6</ele>
        <time>2022-01-05T13:42:22Z</time>
      </trkpt>
      <trkpt lat="49.87696" lon="2.42778">
        <ele>42.7</ele>
        <time>2022-01-05T13:42:23Z</time>
      </trkpt>
      <trkpt lat="49.87694" lon="2.42779">
        <ele>42.7</ele>
        <time>2022-01-05T13:42:25Z</time>
      </trkpt>
      <trkpt lat="49.87693" lon="2.4278">
        <ele>42.8</ele>
        <time>2022-01-05T13:42:26Z</time>
      </trkpt>
      <trkpt lat="49.87692" lon="2.4278">
        <ele>42.8</ele>
        <time>2022-01-05T13:42:27Z</time>
      </trkpt>
      <trkpt lat="49.8769" lon="2.42782">
        <ele>42.9</ele>
        <time>2022-01-05T13:42:28Z</time>
      </trkpt>
      <trkpt lat="49.87689" lon="2.42782">
        <ele>42.9</ele>
        <time>2022-01-05T13:42:29Z</time>
      </trkpt>
      <trkpt lat="49.87689" lon="2.42783">
        <ele>42.9</ele>
        <time>2022-01-05T13:42:30Z</time>
      </trkpt>
      <trkpt lat="49.87687" lon="2.42784">
        <ele>43</ele>
        <time>2022-01-05T13:42:31Z</time>
      </trkpt>
      <trkpt lat="49.87686" lon="2.42785">
        <ele>43</ele>
        <time>2022-01-05T13:42:32Z</time>
      </trkpt>
      <trkpt lat="49.87685" lon="2.42785">
        <ele>43.1</ele>
        <time>2022-01-05T13:42:33Z</time>
      </trkpt>
      <trkpt lat="49.87684" lon="2.42786">
        <ele>43.1</ele>
        <time>2022-01-05T13:42:34Z</time>
      </trkpt>
      <trkpt lat="49.87683" lon="2.42787">
        <ele>43.1</ele>
        <time>2022-01-05T13:42:35Z</time>
      </trkpt>
      <trkpt lat="49.87682" lon="2.42788">
        <ele>43.2</ele>
        <time>2022-01-05T13:42:37Z</time>
      </trkpt>
      <trkpt lat="49.8768" lon="2.42789">
        <ele>43.2</ele>
        <time>2022-01-05T13:42:38Z</time>
      </trkpt>
      <trkpt lat="49.87679" lon="2.4279">
        <ele>43.3</ele>
        <time>2022-01-05T13:42:39Z</time>
      </trkpt>
      <trkpt lat="49.87677" lon="2.42792">
        <ele>43.4</ele>
        <time>2022-01-05T13:42:40Z</time>
      </trkpt>
      <trkpt lat="49.87677" lon="2.42792">
        <ele>43.4</ele>
        <time>2022-01-05T13:42:41Z</time>
      </trkpt>
      <trkpt lat="49.87676" lon="2.42793">
        <ele>43.4</ele>
        <time>2022-01-05T13:42:42Z</time>
      </trkpt>
      <trkpt lat="49.87674" lon="2.42794">
        <ele>43.5</ele>
        <time>2022-01-05T13:42:43Z</time>
      </trkpt>
      <trkpt lat="49.87673" lon="2.42794">
        <ele>43.5</ele>
        <time>2022-01-05T13:42:44Z</time>
      </trkpt>
      <trkpt lat="49.87672" lon="2.42795">
        <ele>43.6</ele>
        <time>2022-01-05T13:42:45Z</time>
      </trkpt>
      <trkpt lat="49.8767" lon="2.42796">
        <ele>43.6</ele>
        <time>2022-01-05T13:42:47Z</time>
      </trkpt>
      <trkpt lat="49.87669" lon="2.42797">
        <ele>43.7</ele>
        <time>2022-01-05T13:42:48Z</time>
      </trkpt>
      <trkpt lat="49.87669" lon="2.42797">
        <ele>43.7</ele>
        <time>2022-01-05T13:42:49Z</time>
      </trkpt>
      <trkpt lat="49.87667" lon="2.42798">
        <ele>43.8</ele>
        <time>2022-01-05T13:42:50Z</time>
      </trkpt>
      <trkpt lat="49.87666" lon="2.42799">
        <ele>43.8</ele>
        <time>2022-01-05T13:42:51Z</time>
      </trkpt>
      <trkpt lat="49.87665" lon="2.42799">
        <ele>43.8</ele>
        <time>2022-01-05T13:42:52Z</time>
      </trkpt>
      <trkpt lat="49.87664" lon="2.428">
        <ele>43.9</ele>
        <time>2022-01-05T13:42:53Z</time>
      </trkpt>
      <trkpt lat="49.87662" lon="2.42801">
        <ele>43.9</ele>
        <time>2022-01-05T13:42:54Z</time>
      </trkpt>
      <trkpt lat="49.87661" lon="2.42801">
        <ele>44</ele>
        <time>2022-01-05T13:42:56Z</time>
      </trkpt>
      <trkpt lat="49.87659" lon="2.42802">
        <ele>44</ele>
        <time>2022-01-05T13:42:57Z</time>
      </trkpt>
      <trkpt lat="49.87658" lon="2.42803">
        <ele>44.1</ele>
        <time>2022-01-05T13:42:58Z</time>
      </trkpt>
      <trkpt lat="49.87658" lon="2.42803">
        <ele>44.1</ele>
        <time>2022-01-05T13:42:59Z</time>
      </trkpt>
      <trkpt lat="49.87656" lon="2.42805">
        <ele>44.2</ele>
        <time>2022-01-05T13:43:00Z</time>
      </trkpt>
      <trkpt lat="49.87655" lon="2.42805">
        <ele>44.2</ele>
        <time>2022-01-05T13:43:01Z</time>
      </trkpt>
      <trkpt lat="49.87654" lon="2.42806">
        <ele>44.2</ele>
        <time>2022-01-05T13:43:02Z</time>
      </trkpt>
      <trkpt lat="49.87653" lon="2.42806">
        <ele>44.3</ele>
        <time>2022-01-05T13:43:03Z</time>
      </trkpt>
      <trkpt lat="49.87652" lon="2.42807">
        <ele>44.3</ele>
        <time>2022-01-05T13:43:04Z</time>
      </trkpt>
      <trkpt lat="49.8765" lon="2.42808">
        <ele>44.3</ele>
        <time>2022-01-05T13:43:06Z</time>
      </trkpt>
      <trkpt lat="49.8765" lon="2.42808">
        <ele>44.4</ele>
        <time>2022-01-05T13:43:07Z</time>
      </trkpt>
      <trkpt lat="49.87648" lon="2.42809">
        <ele>44.4</ele>
        <time>2022-01-05T13:43:08Z</time>
      </trkpt>
      <trkpt lat="49.87646" lon="2.4281">
        <ele>44.5</ele>
        <time>2022-01-05T13:43:09Z</time>
      </trkpt>
      <trkpt lat="49.87645" lon="2.42811">
        <ele>44.5</ele>
        <time>2022-01-05T13:43:10Z</time>
      </trkpt>
      <trkpt lat="49.87644" lon="2.42811">
        <ele>44.6</ele>
        <time>2022-01-05T13:43:12Z</time>
      </trkpt>
      <trkpt lat="49.87643" lon="2.42812">
        <ele>44.6</ele>
        <time>2022-01-05T13:43:13Z</time>
      </trkpt>
      <trkpt lat="49.87641" lon="2.42812">
        <ele>44.7</ele>
        <time>2022-01-05T13:43:14Z</time>
      </trkpt>
      <trkpt lat="49.8764" lon="2.42813">
        <ele>44.7</ele>
        <time>2022-01-05T13:43:15Z</time>
      </trkpt>
      <trkpt lat="49.87638" lon="2.42813">
        <ele>44.7</ele>
        <time>2022-01-05T13:43:16Z</time>
      </trkpt>
      <trkpt lat="49.87637" lon="2.42814">
        <ele>44.8</ele>
        <time>2022-01-05T13:43:18Z</time>
      </trkpt>
      <trkpt lat="49.87635" lon="2.42815">
        <ele>44.8</ele>
        <time>2022-01-05T13:43:19Z</time>
      </trkpt>
      <trkpt lat="49.87633" lon="2.42815">
        <ele>44.9</ele>
        <time>2022-01-05T13:43:20Z</time>
      </trkpt>
      <trkpt lat="49.87632" lon="2.42816">
        <ele>45</ele>
        <time>2022-01-05T13:43:21Z</time>
      </trkpt>
      <trkpt lat="49.8763" lon="2.42816">
        <ele>45</ele>
        <time>2022-01-05T13:43:22Z</time>
      </trkpt>
      <trkpt lat="49.87628" lon="2.42817">
        <ele>45.1</ele>
        <time>2022-01-05T13:43:24Z</time>
      </trkpt>
      <trkpt lat="49.87627" lon="2.42818">
        <ele>45.1</ele>
        <time>2022-01-05T13:43:25Z</time>
      </trkpt>
      <trkpt lat="49.87626" lon="2.42818">
        <ele>45.1</ele>
        <time>2022-01-05T13:43:26Z</time>
      </trkpt>
      <trkpt lat="49.87624" lon="2.42819">
        <ele>45.2</ele>
        <time>2022-01-05T13:43:27Z</time>
      </trkpt>
      <trkpt lat="49.87623" lon="2.42819">
        <ele>45.2</ele>
        <time>2022-01-05T13:43:28Z</time>
      </trkpt>
      <trkpt lat="49.87622" lon="2.4282">
        <ele>45.3</ele>
        <time>2022-01-05T13:43:29Z</time>
      </trkpt>
      <trkpt lat="49.8762" lon="2.42821">
        <ele>45.3</ele>
        <time>2022-01-05T13:43:30Z</time>
      </trkpt>
      <trkpt lat="49.87619" lon="2.42821">
        <ele>45.3</ele>
        <time>2022-01-05T13:43:32Z</time>
      </trkpt>
      <trkpt lat="49.87618" lon="2.42822">
        <ele>45.4</ele>
        <time>2022-01-05T13:43:33Z</time>
      </trkpt>
      <trkpt lat="49.87616" lon="2.42822">
        <ele>45.4</ele>
        <time>2022-01-05T13:43:34Z</time>
      </trkpt>
      <trkpt lat="49.87614" lon="2.42822">
        <ele>45.4</ele>
        <time>2022-01-05T13:43:35Z</time>
      </trkpt>
      <trkpt lat="49.87613" lon="2.42823">
        <ele>45.5</ele>
        <time>2022-01-05T13:43:36Z</time>
      </trkpt>
      <trkpt lat="49.87611" lon="2.42824">
        <ele>45.5</ele>
        <time>2022-01-05T13:43:37Z</time>
      </trkpt>
      <trkpt lat="49.8761" lon="2.42824">
        <ele>45.5</ele>
        <time>2022-01-05T13:43:38Z</time>
      </trkpt>
      <trkpt lat="49.87609" lon="2.42825">
        <ele>45.6</ele>
        <time>2022-01-05T13:43:39Z</time>
      </trkpt>
      <trkpt lat="49.87607" lon="2.42826">
        <ele>45.6</ele>
        <time>2022-01-05T13:43:40Z</time>
      </trkpt>
      <trkpt lat="49.87606" lon="2.42827">
        <ele>45.6</ele>
        <time>2022-01-05T13:43:41Z</time>
      </trkpt>
      <trkpt lat="49.87605" lon="2.42827">
        <ele>45.6</ele>
        <time>2022-01-05T13:43:42Z</time>
      </trkpt>
      <trkpt lat="49.87604" lon="2.42828">
        <ele>45.7</ele>
        <time>2022-01-05T13:43:43Z</time>
      </trkpt>
      <trkpt lat="49.87602" lon="2.42828">
        <ele>45.7</ele>
        <time>2022-01-05T13:43:45Z</time>
      </trkpt>
      <trkpt lat="49.87601" lon="2.42828">
        <ele>45.7</ele>
        <time>2022-01-05T13:43:46Z</time>
      </trkpt>
      <trkpt lat="49.87599" lon="2.42828">
        <ele>45.8</ele>
        <time>2022-01-05T13:43:47Z</time>
      </trkpt>
      <trkpt lat="49.87597" lon="2.42829">
        <ele>45.8</ele>
        <time>2022-01-05T13:43:48Z</time>
      </trkpt>
      <trkpt lat="49.87596" lon="2.42829">
        <ele>45.8</ele>
        <time>2022-01-05T13:43:49Z</time>
      </trkpt>
      <trkpt lat="49.87594" lon="2.4283">
        <ele>45.9</ele>
        <time>2022-01-05T13:43:50Z</time>
      </trkpt>
      <trkpt lat="49.87593" lon="2.4283">
        <ele>45.9</ele>
        <time>2022-01-05T13:43:51Z</time>
      </trkpt>
      <trkpt lat="49.87592" lon="2.4283">
        <ele>45.9</ele>
        <time>2022-01-05T13:43:53Z</time>
      </trkpt>
      <trkpt lat="49.87591" lon="2.42831">
        <ele>45.9</ele>
        <time>2022-01-05T13:43:54Z</time>
      </trkpt>
      <trkpt lat="49.8759" lon="2.42831">
        <ele>45.9</ele>
        <time>2022-01-05T13:43:55Z</time>
      </trkpt>
      <trkpt lat="49.87589" lon="2.42832">
        <ele>46</ele>
        <time>2022-01-05T13:43:56Z</time>
      </trkpt>
      <trkpt lat="49.87588" lon="2.42832">
        <ele>46</ele>
        <time>2022-01-05T13:43:57Z</time>
      </trkpt>
      <trkpt lat="49.87587" lon="2.42833">
        <ele>46</ele>
        <time>2022-01-05T13:43:58Z</time>
      </trkpt>
      <trkpt lat="49.87586" lon="2.42834">
        <ele>46</ele>
        <time>2022-01-05T13:43:59Z</time>
      </trkpt>
      <trkpt lat="49.87585" lon="2.42835">
        <ele>46</ele>
        <time>2022-01-05T13:44:00Z</time>
      </trkpt>
      <trkpt lat="49.87583" lon="2.42836">
        <ele>46.1</ele>
        <time>2022-01-05T13:44:02Z</time>
      </trkpt>
      <trkpt lat="49.87582" lon="2.42836">
        <ele>46.1</ele>
        <time>2022-01-05T13:44:03Z</time>
      </trkpt>
      <trkpt lat="49.87581" lon="2.42836">
        <ele>46.1</ele>
        <time>2022-01-05T13:44:04Z</time>
      </trkpt>
      <trkpt lat="49.8758" lon="2.42837">
        <ele>46.1</ele>
        <time>2022-01-05T13:44:05Z</time>
      </trkpt>
      <trkpt lat="49.87579" lon="2.42837">
        <ele>46.2</ele>
        <time>2022-01-05T13:44:07Z</time>
      </trkpt>
      <trkpt lat="49.87578" lon="2.42837">
        <ele>46.2</ele>
        <time>2022-01-05T13:44:08Z</time>
      </trkpt>
      <trkpt lat="49.87577" lon="2.42838">
        <ele>46.2</ele>
        <time>2022-01-05T13:44:09Z</time>
      </trkpt>
      <trkpt lat="49.87576" lon="2.42838">
        <ele>46.2</ele>
        <time>2022-01-05T13:44:10Z</time>
      </trkpt>
      <trkpt lat="49.87575" lon="2.42839">
        <ele>46.3</ele>
        <time>2022-01-05T13:44:11Z</time>
      </trkpt>
      <trkpt lat="49.87573" lon="2.4284">
        <ele>46.3</ele>
        <time>2022-01-05T13:44:13Z</time>
      </trkpt>
      <trkpt lat="49.87572" lon="2.42841">
        <ele>46.3</ele>
        <time>2022-01-05T13:44:14Z</time>
      </trkpt>
      <trkpt lat="49.87571" lon="2.42841">
        <ele>46.3</ele>
        <time>2022-01-05T13:44:15Z</time>
      </trkpt>
      <trkpt lat="49.8757" lon="2.42842">
        <ele>46.4</ele>
        <time>2022-01-05T13:44:16Z</time>
      </trkpt>
      <trkpt lat="49.87568" lon="2.42843">
        <ele>46.4</ele>
        <time>2022-01-05T13:44:17Z</time>
      </trkpt>
      <trkpt lat="49.87567" lon="2.42844">
        <ele>46.4</ele>
        <time>2022-01-05T13:44:18Z</time>
      </trkpt>
      <trkpt lat="49.87567" lon="2.42844">
        <ele>46.4</ele>
        <time>2022-01-05T13:44:19Z</time>
      </trkpt>
      <trkpt lat="49.87564" lon="2.42845">
        <ele>46.5</ele>
        <time>2022-01-05T13:44:20Z</time>
      </trkpt>
      <trkpt lat="49.87564" lon="2.42845">
        <ele>46.5</ele>
        <time>2022-01-05T13:44:21Z</time>
      </trkpt>
      <trkpt lat="49.87563" lon="2.42846">
        <ele>46.5</ele>
        <time>2022-01-05T13:44:22Z</time>
      </trkpt>
      <trkpt lat="49.87561" lon="2.42847">
        <ele>46.6</ele>
        <time>2022-01-05T13:44:24Z</time>
      </trkpt>
      <trkpt lat="49.8756" lon="2.42847">
        <ele>46.6</ele>
        <time>2022-01-05T13:44:25Z</time>
      </trkpt>
      <trkpt lat="49.87558" lon="2.42848">
        <ele>46.6</ele>
        <time>2022-01-05T13:44:26Z</time>
      </trkpt>
      <trkpt lat="49.87557" lon="2.42849">
        <ele>46.7</ele>
        <time>2022-01-05T13:44:27Z</time>
      </trkpt>
      <trkpt lat="49.87555" lon="2.4285">
        <ele>46.7</ele>
        <time>2022-01-05T13:44:28Z</time>
      </trkpt>
      <trkpt lat="49.87554" lon="2.4285">
        <ele>46.7</ele>
        <time>2022-01-05T13:44:29Z</time>
      </trkpt>
      <trkpt lat="49.87552" lon="2.42852">
        <ele>46.7</ele>
        <time>2022-01-05T13:44:31Z</time>
      </trkpt>
      <trkpt lat="49.87551" lon="2.42853">
        <ele>46.8</ele>
        <time>2022-01-05T13:44:32Z</time>
      </trkpt>
      <trkpt lat="49.87549" lon="2.42854">
        <ele>46.8</ele>
        <time>2022-01-05T13:44:33Z</time>
      </trkpt>
      <trkpt lat="49.87548" lon="2.42855">
        <ele>46.8</ele>
        <time>2022-01-05T13:44:34Z</time>
      </trkpt>
      <trkpt lat="49.87547" lon="2.42855">
        <ele>46.9</ele>
        <time>2022-01-05T13:44:35Z</time>
      </trkpt>
      <trkpt lat="49.87546" lon="2.42855">
        <ele>46.9</ele>
        <time>2022-01-05T13:44:36Z</time>
      </trkpt>
      <trkpt lat="49.87544" lon="2.42856">
        <ele>46.9</ele>
        <time>2022-01-05T13:44:38Z</time>
      </trkpt>
      <trkpt lat="49.87543" lon="2.42856">
        <ele>47</ele>
        <time>2022-01-05T13:44:39Z</time>
      </trkpt>
      <trkpt lat="49.87541" lon="2.42857">
        <ele>47</ele>
        <time>2022-01-05T13:44:40Z</time>
      </trkpt>
      <trkpt lat="49.8754" lon="2.42858">
        <ele>47</ele>
        <time>2022-01-05T13:44:41Z</time>
      </trkpt>
      <trkpt lat="49.87539" lon="2.42859">
        <ele>47.1</ele>
        <time>2022-01-05T13:44:42Z</time>
      </trkpt>
      <trkpt lat="49.87538" lon="2.42859">
        <ele>47.1</ele>
        <time>2022-01-05T13:44:43Z</time>
      </trkpt>
      <trkpt lat="49.87535" lon="2.42861">
        <ele>47.1</ele>
        <time>2022-01-05T13:44:44Z</time>
      </trkpt>
      <trkpt lat="49.87534" lon="2.42861">
        <ele>47.2</ele>
        <time>2022-01-05T13:44:46Z</time>
      </trkpt>
      <trkpt lat="49.87533" lon="2.42862">
        <ele>47.2</ele>
        <time>2022-01-05T13:44:47Z</time>
      </trkpt>
      <trkpt lat="49.87532" lon="2.42862">
        <ele>47.2</ele>
        <time>2022-01-05T13:44:48Z</time>
      </trkpt>
      <trkpt lat="49.87531" lon="2.42863">
        <ele>47.2</ele>
        <time>2022-01-05T13:44:49Z</time>
      </trkpt>
      <trkpt lat="49.8753" lon="2.42864">
        <ele>47.3</ele>
        <time>2022-01-05T13:44:50Z</time>
      </trkpt>
      <trkpt lat="49.8753" lon="2.42865">
        <ele>47.3</ele>
        <time>2022-01-05T13:44:51Z</time>
      </trkpt>
      <trkpt lat="49.87529" lon="2.42866">
        <ele>47.3</ele>
        <time>2022-01-05T13:44:52Z</time>
      </trkpt>
      <trkpt lat="49.87527" lon="2.42868">
        <ele>47.4</ele>
        <time>2022-01-05T13:44:53Z</time>
      </trkpt>
      <trkpt lat="49.87526" lon="2.42868">
        <ele>47.4</ele>
        <time>2022-01-05T13:44:54Z</time>
      </trkpt>
      <trkpt lat="49.87525" lon="2.42869">
        <ele>47.4</ele>
        <time>2022-01-05T13:44:55Z</time>
      </trkpt>
      <trkpt lat="49.87524" lon="2.4287">
        <ele>47.4</ele>
        <time>2022-01-05T13:44:56Z</time>
      </trkpt>
      <trkpt lat="49.87523" lon="2.42871">
        <ele>47.5</ele>
        <time>2022-01-05T13:44:57Z</time>
      </trkpt>
      <trkpt lat="49.87521" lon="2.42872">
        <ele>47.5</ele>
        <time>2022-01-05T13:44:59Z</time>
      </trkpt>
      <trkpt lat="49.8752" lon="2.42872">
        <ele>47.6</ele>
        <time>2022-01-05T13:45:00Z</time>
      </trkpt>
      <trkpt lat="49.87519" lon="2.42873">
        <ele>47.6</ele>
        <time>2022-01-05T13:45:01Z</time>
      </trkpt>
      <trkpt lat="49.87517" lon="2.42874">
        <ele>47.6</ele>
        <time>2022-01-05T13:45:02Z</time>
      </trkpt>
      <trkpt lat="49.87517" lon="2.42875">
        <ele>47.6</ele>
        <time>2022-01-05T13:45:03Z</time>
      </trkpt>
      <trkpt lat="49.87516" lon="2.42875">
        <ele>47.7</ele>
        <time>2022-01-05T13:45:04Z</time>
      </trkpt>
      <trkpt lat="49.87514" lon="2.42876">
        <ele>47.7</ele>
        <time>2022-01-05T13:45:05Z</time>
      </trkpt>
      <trkpt lat="49.87513" lon="2.42877">
        <ele>47.7</ele>
        <time>2022-01-05T13:45:06Z</time>
      </trkpt>
      <trkpt lat="49.87512" lon="2.42877">
        <ele>47.8</ele>
        <time>2022-01-05T13:45:07Z</time>
      </trkpt>
      <trkpt lat="49.87511" lon="2.42878">
        <ele>47.8</ele>
        <time>2022-01-05T13:45:08Z</time>
      </trkpt>
      <trkpt lat="49.8751" lon="2.42878">
        <ele>47.8</ele>
        <time>2022-01-05T13:45:09Z</time>
      </trkpt>
      <trkpt lat="49.87509" lon="2.42879">
        <ele>47.9</ele>
        <time>2022-01-05T13:45:11Z</time>
      </trkpt>
      <trkpt lat="49.87507" lon="2.4288">
        <ele>47.9</ele>
        <time>2022-01-05T13:45:12Z</time>
      </trkpt>
      <trkpt lat="49.87506" lon="2.4288">
        <ele>48</ele>
        <time>2022-01-05T13:45:13Z</time>
      </trkpt>
      <trkpt lat="49.87505" lon="2.42881">
        <ele>48</ele>
        <time>2022-01-05T13:45:14Z</time>
      </trkpt>
      <trkpt lat="49.87504" lon="2.42881">
        <ele>48</ele>
        <time>2022-01-05T13:45:15Z</time>
      </trkpt>
      <trkpt lat="49.87503" lon="2.42881">
        <ele>48</ele>
        <time>2022-01-05T13:45:17Z</time>
      </trkpt>
      <trkpt lat="49.87502" lon="2.42882">
        <ele>48.1</ele>
        <time>2022-01-05T13:45:18Z</time>
      </trkpt>
      <trkpt lat="49.87499" lon="2.42883">
        <ele>48.2</ele>
        <time>2022-01-05T13:45:19Z</time>
      </trkpt>
      <trkpt lat="49.87499" lon="2.42884">
        <ele>48.2</ele>
        <time>2022-01-05T13:45:21Z</time>
      </trkpt>
      <trkpt lat="49.87498" lon="2.42885">
        <ele>48.2</ele>
        <time>2022-01-05T13:45:22Z</time>
      </trkpt>
      <trkpt lat="49.87497" lon="2.42885">
        <ele>48.2</ele>
        <time>2022-01-05T13:45:23Z</time>
      </trkpt>
      <trkpt lat="49.87496" lon="2.42886">
        <ele>48.3</ele>
        <time>2022-01-05T13:45:24Z</time>
      </trkpt>
      <trkpt lat="49.87495" lon="2.42887">
        <ele>48.3</ele>
        <time>2022-01-05T13:45:25Z</time>
      </trkpt>
      <trkpt lat="49.87494" lon="2.42888">
        <ele>48.4</ele>
        <time>2022-01-05T13:45:26Z</time>
      </trkpt>
      <trkpt lat="49.87493" lon="2.42888">
        <ele>48.4</ele>
        <time>2022-01-05T13:45:28Z</time>
      </trkpt>
      <trkpt lat="49.87492" lon="2.42889">
        <ele>48.4</ele>
        <time>2022-01-05T13:45:29Z</time>
      </trkpt>
      <trkpt lat="49.87491" lon="2.42889">
        <ele>48.5</ele>
        <time>2022-01-05T13:45:30Z</time>
      </trkpt>
      <trkpt lat="49.87489" lon="2.4289">
        <ele>48.5</ele>
        <time>2022-01-05T13:45:31Z</time>
      </trkpt>
      <trkpt lat="49.87488" lon="2.42891">
        <ele>48.6</ele>
        <time>2022-01-05T13:45:32Z</time>
      </trkpt>
      <trkpt lat="49.87487" lon="2.42891">
        <ele>48.6</ele>
        <time>2022-01-05T13:45:33Z</time>
      </trkpt>
      <trkpt lat="49.87486" lon="2.42891">
        <ele>48.6</ele>
        <time>2022-01-05T13:45:35Z</time>
      </trkpt>
      <trkpt lat="49.87485" lon="2.42892">
        <ele>48.7</ele>
        <time>2022-01-05T13:45:36Z</time>
      </trkpt>
      <trkpt lat="49.87483" lon="2.42893">
        <ele>48.8</ele>
        <time>2022-01-05T13:45:37Z</time>
      </trkpt>
      <trkpt lat="49.87481" lon="2.42893">
        <ele>48.9</ele>
        <time>2022-01-05T13:45:38Z</time>
      </trkpt>
      <trkpt lat="49.8748" lon="2.42893">
        <ele>48.9</ele>
        <time>2022-01-05T13:45:40Z</time>
      </trkpt>
      <trkpt lat="49.87479" lon="2.42893">
        <ele>48.9</ele>
        <time>2022-01-05T13:45:41Z</time>
      </trkpt>
      <trkpt lat="49.87478" lon="2.42894">
        <ele>49</ele>
        <time>2022-01-05T13:45:42Z</time>
      </trkpt>
      <trkpt lat="49.87476" lon="2.42895">
        <ele>49</ele>
        <time>2022-01-05T13:45:43Z</time>
      </trkpt>
      <trkpt lat="49.87475" lon="2.42896">
        <ele>49</ele>
        <time>2022-01-05T13:45:44Z</time>
      </trkpt>
      <trkpt lat="49.87474" lon="2.42898">
        <ele>49.1</ele>
        <time>2022-01-05T13:45:45Z</time>
      </trkpt>
      <trkpt lat="49.87473" lon="2.42899">
        <ele>49.1</ele>
        <time>2022-01-05T13:45:47Z</time>
      </trkpt>
      <trkpt lat="49.87472" lon="2.429">
        <ele>49.1</ele>
        <time>2022-01-05T13:45:48Z</time>
      </trkpt>
      <trkpt lat="49.87471" lon="2.42901">
        <ele>49.2</ele>
        <time>2022-01-05T13:45:49Z</time>
      </trkpt>
      <trkpt lat="49.87471" lon="2.42901">
        <ele>49.2</ele>
        <time>2022-01-05T13:45:51Z</time>
      </trkpt>
      <trkpt lat="49.87471" lon="2.42901">
        <ele>49.2</ele>
        <time>2022-01-05T13:45:53Z</time>
      </trkpt>
      <trkpt lat="49.87471" lon="2.42901">
        <ele>49.2</ele>
        <time>2022-01-05T13:45:54Z</time>
      </trkpt>
      <trkpt lat="49.87471" lon="2.42901">
        <ele>49.2</ele>
        <time>2022-01-05T13:45:56Z</time>
      </trkpt>
      <trkpt lat="49.87471" lon="2.42901">
        <ele>49.2</ele>
        <time>2022-01-05T13:45:58Z</time>
      </trkpt>
      <trkpt lat="49.87471" lon="2.42901">
        <ele>49.2</ele>
        <time>2022-01-05T13:45:59Z</time>
      </trkpt>
      <trkpt lat="49.87471" lon="2.42901">
        <ele>49.2</ele>
        <time>2022-01-05T13:46:01Z</time>
      </trkpt>
      <trkpt lat="49.87471" lon="2.42901">
        <ele>49.2</ele>
        <time>2022-01-05T13:46:03Z</time>
      </trkpt>
      <trkpt lat="49.87471" lon="2.42901">
        <ele>49.2</ele>
        <time>2022-01-05T13:46:05Z</time>
      </trkpt>
      <trkpt lat="49.87471" lon="2.42901">
        <ele>49.2</ele>
        <time>2022-01-05T13:46:06Z</time>
      </trkpt>
      <trkpt lat="49.8747" lon="2.42901">
        <ele>49.2</ele>
        <time>2022-01-05T13:46:08Z</time>
      </trkpt>
      <trkpt lat="49.8747" lon="2.42901">
        <ele>49.2</ele>
        <time>2022-01-05T13:46:09Z</time>
      </trkpt>
      <trkpt lat="49.8747" lon="2.42901">
        <ele>49.2</ele>
        <time>2022-01-05T13:46:11Z</time>
      </trkpt>
      <trkpt lat="49.8747" lon="2.42901">
        <ele>49.2</ele>
        <time>2022-01-05T13:46:13Z</time>
      </trkpt>
      <trkpt lat="49.8747" lon="2.42901">
        <ele>49.2</ele>
        <time>2022-01-05T13:46:14Z</time>
      </trkpt>
      <trkpt lat="49.8747" lon="2.42901">
        <ele>49.2</ele>
        <time>2022-01-05T13:46:16Z</time>
      </trkpt>
      <trkpt lat="49.8747" lon="2.42901">
        <ele>49.2</ele>
        <time>2022-01-05T13:46:18Z</time>
      </trkpt>
      <trkpt lat="49.8747" lon="2.42901">
        <ele>49.2</ele>
        <time>2022-01-05T13:46:19Z</time>
      </trkpt>
      <trkpt lat="49.8747" lon="2.42901">
        <ele>49.2</ele>
        <time>2022-01-05T13:46:20Z</time>
      </trkpt>
      <trkpt lat="49.8747" lon="2.42901">
        <ele>49.2</ele>
        <time>2022-01-05T13:46:21Z</time>
      </trkpt>
      <trkpt lat="49.8747" lon="2.42901">
        <ele>49.2</ele>
        <time>2022-01-05T13:46:22Z</time>
      </trkpt>
      <trkpt lat="49.8747" lon="2.42901">
        <ele>49.2</ele>
        <time>2022-01-05T13:46:23Z</time>
      </trkpt>
      <trkpt lat="49.8747" lon="2.42901">
        <ele>49.2</ele>
        <time>2022-01-05T13:46:25Z</time>
      </trkpt>
      <trkpt lat="49.8747" lon="2.42901">
        <ele>49.2</ele>
        <time>2022-01-05T13:46:26Z</time>
      </trkpt>
      <trkpt lat="49.8747" lon="2.42901">
        <ele>49.2</ele>
        <time>2022-01-05T13:46:28Z</time>
      </trkpt>
      <trkpt lat="49.8747" lon="2.42901">
        <ele>49.2</ele>
        <time>2022-01-05T13:46:30Z</time>
      </trkpt>
      <trkpt lat="49.8747" lon="2.42901">
        <ele>49.2</ele>
        <time>2022-01-05T13:46:31Z</time>
      </trkpt>
      <trkpt lat="49.8747" lon="2.42901">
        <ele>49.2</ele>
        <time>2022-01-05T13:46:32Z</time>
      </trkpt>
      <trkpt lat="49.8747" lon="2.42901">
        <ele>49.2</ele>
        <time>2022-01-05T13:46:33Z</time>
      </trkpt>
      <trkpt lat="49.8747" lon="2.42901">
        <ele>49.2</ele>
        <time>2022-01-05T13:46:35Z</time>
      </trkpt>
      <trkpt lat="49.8747" lon="2.42901">
        <ele>49.2</ele>
        <time>2022-01-05T13:46:37Z</time>
      </trkpt>
      <trkpt lat="49.87469" lon="2.42901">
        <ele>49.2</ele>
        <time>2022-01-05T13:46:39Z</time>
      </trkpt>
      <trkpt lat="49.87469" lon="2.42901">
        <ele>49.2</ele>
        <time>2022-01-05T13:46:40Z</time>
      </trkpt>
      <trkpt lat="49.87469" lon="2.42901">
        <ele>49.2</ele>
        <time>2022-01-05T13:46:41Z</time>
      </trkpt>
      <trkpt lat="49.87469" lon="2.42901">
        <ele>49.2</ele>
        <time>2022-01-05T13:46:43Z</time>
      </trkpt>
      <trkpt lat="49.87469" lon="2.42901">
        <ele>49.2</ele>
        <time>2022-01-05T13:46:45Z</time>
      </trkpt>
      <trkpt lat="49.87469" lon="2.42901">
        <ele>49.2</ele>
        <time>2022-01-05T13:46:47Z</time>
      </trkpt>
      <trkpt lat="49.87469" lon="2.42901">
        <ele>49.2</ele>
        <time>2022-01-05T13:46:49Z</time>
      </trkpt>
      <trkpt lat="49.87469" lon="2.42901">
        <ele>49.2</ele>
        <time>2022-01-05T13:46:50Z</time>
      </trkpt>
      <trkpt lat="49.87469" lon="2.42901">
        <ele>49.2</ele>
        <time>2022-01-05T13:46:52Z</time>
      </trkpt>
      <trkpt lat="49.87469" lon="2.42901">
        <ele>49.2</ele>
        <time>2022-01-05T13:46:53Z</time>
      </trkpt>
      <trkpt lat="49.87469" lon="2.42901">
        <ele>49.2</ele>
        <time>2022-01-05T13:46:55Z</time>
      </trkpt>
      <trkpt lat="49.87469" lon="2.42901">
        <ele>49.2</ele>
        <time>2022-01-05T13:46:56Z</time>
      </trkpt>
      <trkpt lat="49.87469" lon="2.42901">
        <ele>49.2</ele>
        <time>2022-01-05T13:46:57Z</time>
      </trkpt>
      <trkpt lat="49.87469" lon="2.42902">
        <ele>49.2</ele>
        <time>2022-01-05T13:46:59Z</time>
      </trkpt>
      <trkpt lat="49.87469" lon="2.42902">
        <ele>49.2</ele>
        <time>2022-01-05T13:47:00Z</time>
      </trkpt>
      <trkpt lat="49.87469" lon="2.42902">
        <ele>49.2</ele>
        <time>2022-01-05T13:47:01Z</time>
      </trkpt>
      <trkpt lat="49.87469" lon="2.42902">
        <ele>49.2</ele>
        <time>2022-01-05T13:47:03Z</time>
      </trkpt>
      <trkpt lat="49.87469" lon="2.42902">
        <ele>49.2</ele>
        <time>2022-01-05T13:47:04Z</time>
      </trkpt>
      <trkpt lat="49.87469" lon="2.42902">
        <ele>49.2</ele>
        <time>2022-01-05T13:47:05Z</time>
      </trkpt>
      <trkpt lat="49.87469" lon="2.42902">
        <ele>49.2</ele>
        <time>2022-01-05T13:47:07Z</time>
      </trkpt>
      <trkpt lat="49.87469" lon="2.42902">
        <ele>49.2</ele>
        <time>2022-01-05T13:47:08Z</time>
      </trkpt>
      <trkpt lat="49.87468" lon="2.42902">
        <ele>49.2</ele>
        <time>2022-01-05T13:47:10Z</time>
      </trkpt>
      <trkpt lat="49.87468" lon="2.42902">
        <ele>49.2</ele>
        <time>2022-01-05T13:47:11Z</time>
      </trkpt>
      <trkpt lat="49.87468" lon="2.42902">
        <ele>49.2</ele>
        <time>2022-01-05T13:47:13Z</time>
      </trkpt>
      <trkpt lat="49.87468" lon="2.42902">
        <ele>49.2</ele>
        <time>2022-01-05T13:47:14Z</time>
      </trkpt>
      <trkpt lat="49.87468" lon="2.42902">
        <ele>49.2</ele>
        <time>2022-01-05T13:47:15Z</time>
      </trkpt>
      <trkpt lat="49.87468" lon="2.42902">
        <ele>49.2</ele>
        <time>2022-01-05T13:47:17Z</time>
      </trkpt>
      <trkpt lat="49.87468" lon="2.42902">
        <ele>49.2</ele>
        <time>2022-01-05T13:47:18Z</time>
      </trkpt>
      <trkpt lat="49.87468" lon="2.42902">
        <ele>49.2</ele>
        <time>2022-01-05T13:47:20Z</time>
      </trkpt>
      <trkpt lat="49.87468" lon="2.42902">
        <ele>49.2</ele>
        <time>2022-01-05T13:47:22Z</time>
      </trkpt>
      <trkpt lat="49.87468" lon="2.42902">
        <ele>49.2</ele>
        <time>2022-01-05T13:47:23Z</time>
      </trkpt>
      <trkpt lat="49.87468" lon="2.42902">
        <ele>49.2</ele>
        <time>2022-01-05T13:47:25Z</time>
      </trkpt>
      <trkpt lat="49.87468" lon="2.42902">
        <ele>49.2</ele>
        <time>2022-01-05T13:47:27Z</time>
      </trkpt>
      <trkpt lat="49.87468" lon="2.42902">
        <ele>49.2</ele>
        <time>2022-01-05T13:47:28Z</time>
      </trkpt>
      <trkpt lat="49.87468" lon="2.42902">
        <ele>49.2</ele>
        <time>2022-01-05T13:47:30Z</time>
      </trkpt>
      <trkpt lat="49.87468" lon="2.42902">
        <ele>49.2</ele>
        <time>2022-01-05T13:47:31Z</time>
      </trkpt>
      <trkpt lat="49.87468" lon="2.42902">
        <ele>49.2</ele>
        <time>2022-01-05T13:47:33Z</time>
      </trkpt>
      <trkpt lat="49.87468" lon="2.42902">
        <ele>49.3</ele>
        <time>2022-01-05T13:47:34Z</time>
      </trkpt>
      <trkpt lat="49.87468" lon="2.42902">
        <ele>49.3</ele>
        <time>2022-01-05T13:47:36Z</time>
      </trkpt>
      <trkpt lat="49.87468" lon="2.42902">
        <ele>49.3</ele>
        <time>2022-01-05T13:47:37Z</time>
      </trkpt>
      <trkpt lat="49.87468" lon="2.42902">
        <ele>49.3</ele>
        <time>2022-01-05T13:47:39Z</time>
      </trkpt>
      <trkpt lat="49.87468" lon="2.42902">
        <ele>49.3</ele>
        <time>2022-01-05T13:47:41Z</time>
      </trkpt>
      <trkpt lat="49.87467" lon="2.42902">
        <ele>49.3</ele>
        <time>2022-01-05T13:47:43Z</time>
      </trkpt>
      <trkpt lat="49.87467" lon="2.42902">
        <ele>49.3</ele>
        <time>2022-01-05T13:47:45Z</time>
      </trkpt>
      <trkpt lat="49.87467" lon="2.42902">
        <ele>49.3</ele>
        <time>2022-01-05T13:47:46Z</time>
      </trkpt>
      <trkpt lat="49.87467" lon="2.42902">
        <ele>49.3</ele>
        <time>2022-01-05T13:47:48Z</time>
      </trkpt>
      <trkpt lat="49.87467" lon="2.42902">
        <ele>49.3</ele>
        <time>2022-01-05T13:47:50Z</time>
      </trkpt>
      <trkpt lat="49.87467" lon="2.42902">
        <ele>49.3</ele>
        <time>2022-01-05T13:47:51Z</time>
      </trkpt>
      <trkpt lat="49.87467" lon="2.42902">
        <ele>49.3</ele>
        <time>2022-01-05T13:47:52Z</time>
      </trkpt>
      <trkpt lat="49.87467" lon="2.42902">
        <ele>49.3</ele>
        <time>2022-01-05T13:47:54Z</time>
      </trkpt>
      <trkpt lat="49.87467" lon="2.42902">
        <ele>49.3</ele>
        <time>2022-01-05T13:47:55Z</time>
      </trkpt>
      <trkpt lat="49.87467" lon="2.42902">
        <ele>49.3</ele>
        <time>2022-01-05T13:47:57Z</time>
      </trkpt>
      <trkpt lat="49.87467" lon="2.42902">
        <ele>49.3</ele>
        <time>2022-01-05T13:47:59Z</time>
      </trkpt>
      <trkpt lat="49.87467" lon="2.42902">
        <ele>49.3</ele>
        <time>2022-01-05T13:48:00Z</time>
      </trkpt>
      <trkpt lat="49.87467" lon="2.42902">
        <ele>49.3</ele>
        <time>2022-01-05T13:48:02Z</time>
      </trkpt>
      <trkpt lat="49.87467" lon="2.42902">
        <ele>49.3</ele>
        <time>2022-01-05T13:48:04Z</time>
      </trkpt>
      <trkpt lat="49.87467" lon="2.42902">
        <ele>49.3</ele>
        <time>2022-01-05T13:48:06Z</time>
      </trkpt>
      <trkpt lat="49.87467" lon="2.42902">
        <ele>49.3</ele>
        <time>2022-01-05T13:48:08Z</time>
      </trkpt>
      <trkpt lat="49.87467" lon="2.42902">
        <ele>49.3</ele>
        <time>2022-01-05T13:48:10Z</time>
      </trkpt>
      <trkpt lat="49.87467" lon="2.42902">
        <ele>49.3</ele>
        <time>2022-01-05T13:48:11Z</time>
      </trkpt>
      <trkpt lat="49.87467" lon="2.42902">
        <ele>49.3</ele>
        <time>2022-01-05T13:48:13Z</time>
      </trkpt>
      <trkpt lat="49.87467" lon="2.42902">
        <ele>49.3</ele>
        <time>2022-01-05T13:48:15Z</time>
      </trkpt>
      <trkpt lat="49.87466" lon="2.42902">
        <ele>49.3</ele>
        <time>2022-01-05T13:48:17Z</time>
      </trkpt>
      <trkpt lat="49.87466" lon="2.42902">
        <ele>49.3</ele>
        <time>2022-01-05T13:48:18Z</time>
      </trkpt>
      <trkpt lat="49.87466" lon="2.42902">
        <ele>49.3</ele>
        <time>2022-01-05T13:48:19Z</time>
      </trkpt>
      <trkpt lat="49.87466" lon="2.42902">
        <ele>49.3</ele>
        <time>2022-01-05T13:48:21Z</time>
      </trkpt>
      <trkpt lat="49.87466" lon="2.42902">
        <ele>49.3</ele>
        <time>2022-01-05T13:48:23Z</time>
      </trkpt>
      <trkpt lat="49.87466" lon="2.42902">
        <ele>49.3</ele>
        <time>2022-01-05T13:48:24Z</time>
      </trkpt>
      <trkpt lat="49.87466" lon="2.42902">
        <ele>49.3</ele>
        <time>2022-01-05T13:48:25Z</time>
      </trkpt>
      <trkpt lat="49.87466" lon="2.42902">
        <ele>49.3</ele>
        <time>2022-01-05T13:48:27Z</time>
      </trkpt>
      <trkpt lat="49.87466" lon="2.42902">
        <ele>49.3</ele>
        <time>2022-01-05T13:48:28Z</time>
      </trkpt>
      <trkpt lat="49.87466" lon="2.42902">
        <ele>49.3</ele>
        <time>2022-01-05T13:48:29Z</time>
      </trkpt>
      <trkpt lat="49.87466" lon="2.42902">
        <ele>49.3</ele>
        <time>2022-01-05T13:48:30Z</time>
      </trkpt>
      <trkpt lat="49.87466" lon="2.42902">
        <ele>49.3</ele>
        <time>2022-01-05T13:48:32Z</time>
      </trkpt>
      <trkpt lat="49.87466" lon="2.42902">
        <ele>49.3</ele>
        <time>2022-01-05T13:48:33Z</time>
      </trkpt>
      <trkpt lat="49.87466" lon="2.42902">
        <ele>49.3</ele>
        <time>2022-01-05T13:48:35Z</time>
      </trkpt>
      <trkpt lat="49.87466" lon="2.42902">
        <ele>49.3</ele>
        <time>2022-01-05T13:48:36Z</time>
      </trkpt>
      <trkpt lat="49.87466" lon="2.42902">
        <ele>49.3</ele>
        <time>2022-01-05T13:48:38Z</time>
      </trkpt>
      <trkpt lat="49.87466" lon="2.42902">
        <ele>49.3</ele>
        <time>2022-01-05T13:48:39Z</time>
      </trkpt>
      <trkpt lat="49.87466" lon="2.42902">
        <ele>49.3</ele>
        <time>2022-01-05T13:48:40Z</time>
      </trkpt>
      <trkpt lat="49.87466" lon="2.42902">
        <ele>49.3</ele>
        <time>2022-01-05T13:48:42Z</time>
      </trkpt>
      <trkpt lat="49.87466" lon="2.42902">
        <ele>49.3</ele>
        <time>2022-01-05T13:48:43Z</time>
      </trkpt>
      <trkpt lat="49.87466" lon="2.42902">
        <ele>49.3</ele>
        <time>2022-01-05T13:48:44Z</time>
      </trkpt>
      <trkpt lat="49.87465" lon="2.42902">
        <ele>49.3</ele>
        <time>2022-01-05T13:48:45Z</time>
      </trkpt>
      <trkpt lat="49.87465" lon="2.42902">
        <ele>49.3</ele>
        <time>2022-01-05T13:48:47Z</time>
      </trkpt>
      <trkpt lat="49.87465" lon="2.42902">
        <ele>49.3</ele>
        <time>2022-01-05T13:48:48Z</time>
      </trkpt>
      <trkpt lat="49.87465" lon="2.42902">
        <ele>49.3</ele>
        <time>2022-01-05T13:48:50Z</time>
      </trkpt>
      <trkpt lat="49.87465" lon="2.42902">
        <ele>49.3</ele>
        <time>2022-01-05T13:48:51Z</time>
      </trkpt>
      <trkpt lat="49.87465" lon="2.42902">
        <ele>49.3</ele>
        <time>2022-01-05T13:48:53Z</time>
      </trkpt>
      <trkpt lat="49.87465" lon="2.42902">
        <ele>49.3</ele>
        <time>2022-01-05T13:48:54Z</time>
      </trkpt>
      <trkpt lat="49.87465" lon="2.42902">
        <ele>49.3</ele>
        <time>2022-01-05T13:48:55Z</time>
      </trkpt>
      <trkpt lat="49.87465" lon="2.42902">
        <ele>49.3</ele>
        <time>2022-01-05T13:48:57Z</time>
      </trkpt>
      <trkpt lat="49.87465" lon="2.42902">
        <ele>49.3</ele>
        <time>2022-01-05T13:48:58Z</time>
      </trkpt>
      <trkpt lat="49.87465" lon="2.42902">
        <ele>49.3</ele>
        <time>2022-01-05T13:49:00Z</time>
      </trkpt>
      <trkpt lat="49.87465" lon="2.42902">
        <ele>49.3</ele>
        <time>2022-01-05T13:49:01Z</time>
      </trkpt>
      <trkpt lat="49.87465" lon="2.42902">
        <ele>49.3</ele>
        <time>2022-01-05T13:49:02Z</time>
      </trkpt>
      <trkpt lat="49.87465" lon="2.42902">
        <ele>49.3</ele>
        <time>2022-01-05T13:49:03Z</time>
      </trkpt>
      <trkpt lat="49.87465" lon="2.42902">
        <ele>49.3</ele>
        <time>2022-01-05T13:49:05Z</time>
      </trkpt>
      <trkpt lat="49.87465" lon="2.42902">
        <ele>49.3</ele>
        <time>2022-01-05T13:49:06Z</time>
      </trkpt>
      <trkpt lat="49.87465" lon="2.42902">
        <ele>49.3</ele>
        <time>2022-01-05T13:49:07Z</time>
      </trkpt>
      <trkpt lat="49.87465" lon="2.42902">
        <ele>49.3</ele>
        <time>2022-01-05T13:49:08Z</time>
      </trkpt>
      <trkpt lat="49.87463" lon="2.42903">
        <ele>49.4</ele>
        <time>2022-01-05T13:49:09Z</time>
      </trkpt>
      <trkpt lat="49.87461" lon="2.42904">
        <ele>49.4</ele>
        <time>2022-01-05T13:49:10Z</time>
      </trkpt>
      <trkpt lat="49.8746" lon="2.42906">
        <ele>49.5</ele>
        <time>2022-01-05T13:49:12Z</time>
      </trkpt>
      <trkpt lat="49.87458" lon="2.42907">
        <ele>49.5</ele>
        <time>2022-01-05T13:49:13Z</time>
      </trkpt>
      <trkpt lat="49.87457" lon="2.42908">
        <ele>49.5</ele>
        <time>2022-01-05T13:49:14Z</time>
      </trkpt>
      <trkpt lat="49.87455" lon="2.42909">
        <ele>49.6</ele>
        <time>2022-01-05T13:49:15Z</time>
      </trkpt>
      <trkpt lat="49.87454" lon="2.42911">
        <ele>49.6</ele>
        <time>2022-01-05T13:49:17Z</time>
      </trkpt>
      <trkpt lat="49.87453" lon="2.42913">
        <ele>49.7</ele>
        <time>2022-01-05T13:49:18Z</time>
      </trkpt>
      <trkpt lat="49.87451" lon="2.42916">
        <ele>49.7</ele>
        <time>2022-01-05T13:49:19Z</time>
      </trkpt>
      <trkpt lat="49.8745" lon="2.42918">
        <ele>49.8</ele>
        <time>2022-01-05T13:49:21Z</time>
      </trkpt>
      <trkpt lat="49.87449" lon="2.42919">
        <ele>49.8</ele>
        <time>2022-01-05T13:49:22Z</time>
      </trkpt>
      <trkpt lat="49.87449" lon="2.42921">
        <ele>49.8</ele>
        <time>2022-01-05T13:49:23Z</time>
      </trkpt>
      <trkpt lat="49.87448" lon="2.42923">
        <ele>49.8</ele>
        <time>2022-01-05T13:49:24Z</time>
      </trkpt>
      <trkpt lat="49.87447" lon="2.42925">
        <ele>49.9</ele>
        <time>2022-01-05T13:49:26Z</time>
      </trkpt>
      <trkpt lat="49.87446" lon="2.42927">
        <ele>49.9</ele>
        <time>2022-01-05T13:49:27Z</time>
      </trkpt>
      <trkpt lat="49.87445" lon="2.42929">
        <ele>49.9</ele>
        <time>2022-01-05T13:49:28Z</time>
      </trkpt>
      <trkpt lat="49.87445" lon="2.42931">
        <ele>50</ele>
        <time>2022-01-05T13:49:29Z</time>
      </trkpt>
      <trkpt lat="49.87444" lon="2.42933">
        <ele>50</ele>
        <time>2022-01-05T13:49:30Z</time>
      </trkpt>
      <trkpt lat="49.87443" lon="2.42935">
        <ele>50</ele>
        <time>2022-01-05T13:49:31Z</time>
      </trkpt>
      <trkpt lat="49.87443" lon="2.42937">
        <ele>50</ele>
        <time>2022-01-05T13:49:32Z</time>
      </trkpt>
      <trkpt lat="49.87442" lon="2.42939">
        <ele>50.1</ele>
        <time>2022-01-05T13:49:33Z</time>
      </trkpt>
      <trkpt lat="49.87441" lon="2.4294">
        <ele>50.1</ele>
        <time>2022-01-05T13:49:35Z</time>
      </trkpt>
      <trkpt lat="49.87441" lon="2.42941">
        <ele>50.1</ele>
        <time>2022-01-05T13:49:36Z</time>
      </trkpt>
      <trkpt lat="49.8744" lon="2.42943">
        <ele>50.1</ele>
        <time>2022-01-05T13:49:37Z</time>
      </trkpt>
      <trkpt lat="49.87439" lon="2.42944">
        <ele>50.1</ele>
        <time>2022-01-05T13:49:38Z</time>
      </trkpt>
      <trkpt lat="49.87438" lon="2.42948">
        <ele>50.2</ele>
        <time>2022-01-05T13:49:39Z</time>
      </trkpt>
      <trkpt lat="49.87437" lon="2.42949">
        <ele>50.2</ele>
        <time>2022-01-05T13:49:40Z</time>
      </trkpt>
      <trkpt lat="49.87436" lon="2.42951">
        <ele>50.2</ele>
        <time>2022-01-05T13:49:41Z</time>
      </trkpt>
      <trkpt lat="49.87435" lon="2.42953">
        <ele>50.2</ele>
        <time>2022-01-05T13:49:43Z</time>
      </trkpt>
      <trkpt lat="49.87435" lon="2.42954">
        <ele>50.3</ele>
        <time>2022-01-05T13:49:44Z</time>
      </trkpt>
      <trkpt lat="49.87434" lon="2.42957">
        <ele>50.3</ele>
        <time>2022-01-05T13:49:45Z</time>
      </trkpt>
      <trkpt lat="49.87433" lon="2.4296">
        <ele>50.3</ele>
        <time>2022-01-05T13:49:46Z</time>
      </trkpt>
      <trkpt lat="49.87432" lon="2.42961">
        <ele>50.4</ele>
        <time>2022-01-05T13:49:48Z</time>
      </trkpt>
      <trkpt lat="49.87432" lon="2.42962">
        <ele>50.4</ele>
        <time>2022-01-05T13:49:49Z</time>
      </trkpt>
      <trkpt lat="49.87431" lon="2.42963">
        <ele>50.4</ele>
        <time>2022-01-05T13:49:50Z</time>
      </trkpt>
      <trkpt lat="49.8743" lon="2.42964">
        <ele>50.4</ele>
        <time>2022-01-05T13:49:51Z</time>
      </trkpt>
      <trkpt lat="49.8743" lon="2.42966">
        <ele>50.4</ele>
        <time>2022-01-05T13:49:52Z</time>
      </trkpt>
      <trkpt lat="49.87428" lon="2.42968">
        <ele>50.5</ele>
        <time>2022-01-05T13:49:53Z</time>
      </trkpt>
      <trkpt lat="49.87428" lon="2.4297">
        <ele>50.5</ele>
        <time>2022-01-05T13:49:54Z</time>
      </trkpt>
      <trkpt lat="49.87427" lon="2.42971">
        <ele>50.5</ele>
        <time>2022-01-05T13:49:55Z</time>
      </trkpt>
      <trkpt lat="49.87427" lon="2.42972">
        <ele>50.6</ele>
        <time>2022-01-05T13:49:56Z</time>
      </trkpt>
      <trkpt lat="49.87426" lon="2.42974">
        <ele>50.6</ele>
        <time>2022-01-05T13:49:57Z</time>
      </trkpt>
      <trkpt lat="49.87426" lon="2.42975">
        <ele>50.6</ele>
        <time>2022-01-05T13:49:58Z</time>
      </trkpt>
      <trkpt lat="49.87425" lon="2.42977">
        <ele>50.6</ele>
        <time>2022-01-05T13:50:00Z</time>
      </trkpt>
      <trkpt lat="49.87425" lon="2.42978">
        <ele>50.7</ele>
        <time>2022-01-05T13:50:01Z</time>
      </trkpt>
      <trkpt lat="49.87424" lon="2.4298">
        <ele>50.7</ele>
        <time>2022-01-05T13:50:02Z</time>
      </trkpt>
      <trkpt lat="49.87423" lon="2.42984">
        <ele>50.8</ele>
        <time>2022-01-05T13:50:03Z</time>
      </trkpt>
      <trkpt lat="49.87422" lon="2.42985">
        <ele>50.8</ele>
        <time>2022-01-05T13:50:05Z</time>
      </trkpt>
      <trkpt lat="49.87422" lon="2.42986">
        <ele>50.8</ele>
        <time>2022-01-05T13:50:06Z</time>
      </trkpt>
      <trkpt lat="49.87421" lon="2.42988">
        <ele>50.8</ele>
        <time>2022-01-05T13:50:07Z</time>
      </trkpt>
      <trkpt lat="49.87421" lon="2.42989">
        <ele>50.9</ele>
        <time>2022-01-05T13:50:08Z</time>
      </trkpt>
      <trkpt lat="49.8742" lon="2.42991">
        <ele>50.9</ele>
        <time>2022-01-05T13:50:09Z</time>
      </trkpt>
      <trkpt lat="49.87419" lon="2.42993">
        <ele>50.9</ele>
        <time>2022-01-05T13:50:10Z</time>
      </trkpt>
      <trkpt lat="49.87419" lon="2.42994">
        <ele>50.9</ele>
        <time>2022-01-05T13:50:12Z</time>
      </trkpt>
      <trkpt lat="49.87418" lon="2.42995">
        <ele>51</ele>
        <time>2022-01-05T13:50:13Z</time>
      </trkpt>
      <trkpt lat="49.87417" lon="2.42997">
        <ele>51</ele>
        <time>2022-01-05T13:50:14Z</time>
      </trkpt>
      <trkpt lat="49.87417" lon="2.42998">
        <ele>51</ele>
        <time>2022-01-05T13:50:15Z</time>
      </trkpt>
      <trkpt lat="49.87416" lon="2.43001">
        <ele>51.1</ele>
        <time>2022-01-05T13:50:16Z</time>
      </trkpt>
      <trkpt lat="49.87415" lon="2.43002">
        <ele>51.1</ele>
        <time>2022-01-05T13:50:17Z</time>
      </trkpt>
      <trkpt lat="49.87415" lon="2.43004">
        <ele>51.1</ele>
        <time>2022-01-05T13:50:18Z</time>
      </trkpt>
      <trkpt lat="49.87413" lon="2.43007">
        <ele>51.2</ele>
        <time>2022-01-05T13:50:20Z</time>
      </trkpt>
      <trkpt lat="49.87413" lon="2.43008">
        <ele>51.2</ele>
        <time>2022-01-05T13:50:21Z</time>
      </trkpt>
      <trkpt lat="49.87412" lon="2.43009">
        <ele>51.2</ele>
        <time>2022-01-05T13:50:22Z</time>
      </trkpt>
      <trkpt lat="49.87412" lon="2.43011">
        <ele>51.2</ele>
        <time>2022-01-05T13:50:23Z</time>
      </trkpt>
      <trkpt lat="49.87411" lon="2.43013">
        <ele>51.3</ele>
        <time>2022-01-05T13:50:24Z</time>
      </trkpt>
      <trkpt lat="49.87411" lon="2.43015">
        <ele>51.3</ele>
        <time>2022-01-05T13:50:25Z</time>
      </trkpt>
      <trkpt lat="49.8741" lon="2.43016">
        <ele>51.3</ele>
        <time>2022-01-05T13:50:26Z</time>
      </trkpt>
      <trkpt lat="49.8741" lon="2.43018">
        <ele>51.3</ele>
        <time>2022-01-05T13:50:27Z</time>
      </trkpt>
      <trkpt lat="49.87409" lon="2.43021">
        <ele>51.4</ele>
        <time>2022-01-05T13:50:28Z</time>
      </trkpt>
      <trkpt lat="49.87408" lon="2.43022">
        <ele>51.4</ele>
        <time>2022-01-05T13:50:29Z</time>
      </trkpt>
      <trkpt lat="49.87408" lon="2.43024">
        <ele>51.4</ele>
        <time>2022-01-05T13:50:31Z</time>
      </trkpt>
      <trkpt lat="49.87407" lon="2.43025">
        <ele>51.4</ele>
        <time>2022-01-05T13:50:32Z</time>
      </trkpt>
      <trkpt lat="49.87407" lon="2.43027">
        <ele>51.5</ele>
        <time>2022-01-05T13:50:33Z</time>
      </trkpt>
      <trkpt lat="49.87406" lon="2.43029">
        <ele>51.5</ele>
        <time>2022-01-05T13:50:34Z</time>
      </trkpt>
      <trkpt lat="49.87405" lon="2.43031">
        <ele>51.5</ele>
        <time>2022-01-05T13:50:35Z</time>
      </trkpt>
      <trkpt lat="49.87405" lon="2.43033">
        <ele>51.6</ele>
        <time>2022-01-05T13:50:36Z</time>
      </trkpt>
      <trkpt lat="49.87403" lon="2.43036">
        <ele>51.6</ele>
        <time>2022-01-05T13:50:37Z</time>
      </trkpt>
      <trkpt lat="49.87403" lon="2.43037">
        <ele>51.6</ele>
        <time>2022-01-05T13:50:38Z</time>
      </trkpt>
      <trkpt lat="49.87403" lon="2.43038">
        <ele>51.6</ele>
        <time>2022-01-05T13:50:39Z</time>
      </trkpt>
      <trkpt lat="49.87402" lon="2.43039">
        <ele>51.7</ele>
        <time>2022-01-05T13:50:40Z</time>
      </trkpt>
      <trkpt lat="49.87401" lon="2.43041">
        <ele>51.7</ele>
        <time>2022-01-05T13:50:41Z</time>
      </trkpt>
      <trkpt lat="49.874" lon="2.43043">
        <ele>51.7</ele>
        <time>2022-01-05T13:50:43Z</time>
      </trkpt>
      <trkpt lat="49.874" lon="2.43044">
        <ele>51.7</ele>
        <time>2022-01-05T13:50:44Z</time>
      </trkpt>
      <trkpt lat="49.87399" lon="2.43045">
        <ele>51.8</ele>
        <time>2022-01-05T13:50:45Z</time>
      </trkpt>
      <trkpt lat="49.87398" lon="2.43049">
        <ele>51.8</ele>
        <time>2022-01-05T13:50:46Z</time>
      </trkpt>
      <trkpt lat="49.87397" lon="2.4305">
        <ele>51.8</ele>
        <time>2022-01-05T13:50:47Z</time>
      </trkpt>
      <trkpt lat="49.87397" lon="2.43052">
        <ele>51.8</ele>
        <time>2022-01-05T13:50:48Z</time>
      </trkpt>
      <trkpt lat="49.87396" lon="2.43054">
        <ele>51.9</ele>
        <time>2022-01-05T13:50:49Z</time>
      </trkpt>
      <trkpt lat="49.87395" lon="2.43055">
        <ele>51.9</ele>
        <time>2022-01-05T13:50:51Z</time>
      </trkpt>
      <trkpt lat="49.87394" lon="2.43058">
        <ele>51.9</ele>
        <time>2022-01-05T13:50:52Z</time>
      </trkpt>
      <trkpt lat="49.87393" lon="2.4306">
        <ele>51.9</ele>
        <time>2022-01-05T13:50:53Z</time>
      </trkpt>
      <trkpt lat="49.87392" lon="2.43062">
        <ele>52</ele>
        <time>2022-01-05T13:50:54Z</time>
      </trkpt>
      <trkpt lat="49.87392" lon="2.43064">
        <ele>52</ele>
        <time>2022-01-05T13:50:56Z</time>
      </trkpt>
      <trkpt lat="49.87391" lon="2.43067">
        <ele>52</ele>
        <time>2022-01-05T13:50:57Z</time>
      </trkpt>
      <trkpt lat="49.87391" lon="2.43069">
        <ele>52</ele>
        <time>2022-01-05T13:50:59Z</time>
      </trkpt>
      <trkpt lat="49.8739" lon="2.4307">
        <ele>52</ele>
        <time>2022-01-05T13:51:00Z</time>
      </trkpt>
      <trkpt lat="49.87389" lon="2.43072">
        <ele>52</ele>
        <time>2022-01-05T13:51:01Z</time>
      </trkpt>
      <trkpt lat="49.87388" lon="2.43073">
        <ele>52.1</ele>
        <time>2022-01-05T13:51:02Z</time>
      </trkpt>
      <trkpt lat="49.87387" lon="2.43076">
        <ele>52.1</ele>
        <time>2022-01-05T13:51:03Z</time>
      </trkpt>
      <trkpt lat="49.87386" lon="2.43077">
        <ele>52.1</ele>
        <time>2022-01-05T13:51:04Z</time>
      </trkpt>
      <trkpt lat="49.87386" lon="2.43078">
        <ele>52.1</ele>
        <time>2022-01-05T13:51:05Z</time>
      </trkpt>
      <trkpt lat="49.87385" lon="2.43079">
        <ele>52.1</ele>
        <time>2022-01-05T13:51:06Z</time>
      </trkpt>
      <trkpt lat="49.87384" lon="2.43081">
        <ele>52.1</ele>
        <time>2022-01-05T13:51:07Z</time>
      </trkpt>
      <trkpt lat="49.87383" lon="2.43084">
        <ele>52.2</ele>
        <time>2022-01-05T13:51:09Z</time>
      </trkpt>
      <trkpt lat="49.87382" lon="2.43086">
        <ele>52.2</ele>
        <time>2022-01-05T13:51:11Z</time>
      </trkpt>
      <trkpt lat="49.87381" lon="2.43087">
        <ele>52.2</ele>
        <time>2022-01-05T13:51:12Z</time>
      </trkpt>
      <trkpt lat="49.8738" lon="2.4309">
        <ele>52.2</ele>
        <time>2022-01-05T13:51:13Z</time>
      </trkpt>
      <trkpt lat="49.8738" lon="2.43091">
        <ele>52.2</ele>
        <time>2022-01-05T13:51:14Z</time>
      </trkpt>
      <trkpt lat="49.87379" lon="2.43092">
        <ele>52.2</ele>
        <time>2022-01-05T13:51:15Z</time>
      </trkpt>
      <trkpt lat="49.87378" lon="2.43094">
        <ele>52.3</ele>
        <time>2022-01-05T13:51:16Z</time>
      </trkpt>
      <trkpt lat="49.87378" lon="2.43096">
        <ele>52.3</ele>
        <time>2022-01-05T13:51:17Z</time>
      </trkpt>
      <trkpt lat="49.87377" lon="2.43098">
        <ele>52.3</ele>
        <time>2022-01-05T13:51:18Z</time>
      </trkpt>
      <trkpt lat="49.87376" lon="2.431">
        <ele>52.3</ele>
        <time>2022-01-05T13:51:19Z</time>
      </trkpt>
      <trkpt lat="49.87375" lon="2.43101">
        <ele>52.3</ele>
        <time>2022-01-05T13:51:20Z</time>
      </trkpt>
      <trkpt lat="49.87374" lon="2.43103">
        <ele>52.3</ele>
        <time>2022-01-05T13:51:21Z</time>
      </trkpt>
      <trkpt lat="49.87374" lon="2.43104">
        <ele>52.3</ele>
        <time>2022-01-05T13:51:22Z</time>
      </trkpt>
      <trkpt lat="49.87373" lon="2.43106">
        <ele>52.3</ele>
        <time>2022-01-05T13:51:23Z</time>
      </trkpt>
      <trkpt lat="49.87371" lon="2.43108">
        <ele>52.4</ele>
        <time>2022-01-05T13:51:25Z</time>
      </trkpt>
      <trkpt lat="49.8737" lon="2.43109">
        <ele>52.4</ele>
        <time>2022-01-05T13:51:26Z</time>
      </trkpt>
      <trkpt lat="49.87369" lon="2.4311">
        <ele>52.4</ele>
        <time>2022-01-05T13:51:27Z</time>
      </trkpt>
      <trkpt lat="49.87369" lon="2.43111">
        <ele>52.4</ele>
        <time>2022-01-05T13:51:28Z</time>
      </trkpt>
      <trkpt lat="49.87368" lon="2.43113">
        <ele>52.4</ele>
        <time>2022-01-05T13:51:29Z</time>
      </trkpt>
      <trkpt lat="49.87366" lon="2.43115">
        <ele>52.4</ele>
        <time>2022-01-05T13:51:31Z</time>
      </trkpt>
      <trkpt lat="49.87365" lon="2.43116">
        <ele>52.4</ele>
        <time>2022-01-05T13:51:32Z</time>
      </trkpt>
      <trkpt lat="49.87363" lon="2.43118">
        <ele>52.4</ele>
        <time>2022-01-05T13:51:34Z</time>
      </trkpt>
      <trkpt lat="49.87362" lon="2.4312">
        <ele>52.4</ele>
        <time>2022-01-05T13:51:35Z</time>
      </trkpt>
      <trkpt lat="49.87361" lon="2.43123">
        <ele>52.4</ele>
        <time>2022-01-05T13:51:37Z</time>
      </trkpt>
      <trkpt lat="49.8736" lon="2.43125">
        <ele>52.4</ele>
        <time>2022-01-05T13:51:38Z</time>
      </trkpt>
      <trkpt lat="49.87359" lon="2.43127">
        <ele>52.4</ele>
        <time>2022-01-05T13:51:40Z</time>
      </trkpt>
      <trkpt lat="49.87358" lon="2.43129">
        <ele>52.5</ele>
        <time>2022-01-05T13:51:41Z</time>
      </trkpt>
      <trkpt lat="49.87357" lon="2.4313">
        <ele>52.5</ele>
        <time>2022-01-05T13:51:42Z</time>
      </trkpt>
      <trkpt lat="49.87356" lon="2.43132">
        <ele>52.5</ele>
        <time>2022-01-05T13:51:43Z</time>
      </trkpt>
      <trkpt lat="49.87355" lon="2.43133">
        <ele>52.5</ele>
        <time>2022-01-05T13:51:44Z</time>
      </trkpt>
      <trkpt lat="49.87354" lon="2.43135">
        <ele>52.5</ele>
        <time>2022-01-05T13:51:45Z</time>
      </trkpt>
      <trkpt lat="49.87352" lon="2.43136">
        <ele>52.5</ele>
        <time>2022-01-05T13:51:47Z</time>
      </trkpt>
      <trkpt lat="49.87351" lon="2.43138">
        <ele>52.5</ele>
        <time>2022-01-05T13:51:48Z</time>
      </trkpt>
      <trkpt lat="49.8735" lon="2.4314">
        <ele>52.5</ele>
        <time>2022-01-05T13:51:49Z</time>
      </trkpt>
      <trkpt lat="49.87349" lon="2.43142">
        <ele>52.5</ele>
        <time>2022-01-05T13:51:50Z</time>
      </trkpt>
      <trkpt lat="49.87347" lon="2.43145">
        <ele>52.5</ele>
        <time>2022-01-05T13:51:51Z</time>
      </trkpt>
      <trkpt lat="49.87345" lon="2.43146">
        <ele>52.5</ele>
        <time>2022-01-05T13:51:53Z</time>
      </trkpt>
      <trkpt lat="49.87344" lon="2.43148">
        <ele>52.5</ele>
        <time>2022-01-05T13:51:54Z</time>
      </trkpt>
      <trkpt lat="49.87343" lon="2.43149">
        <ele>52.6</ele>
        <time>2022-01-05T13:51:55Z</time>
      </trkpt>
      <trkpt lat="49.87342" lon="2.43151">
        <ele>52.6</ele>
        <time>2022-01-05T13:51:56Z</time>
      </trkpt>
      <trkpt lat="49.87341" lon="2.43152">
        <ele>52.6</ele>
        <time>2022-01-05T13:51:57Z</time>
      </trkpt>
      <trkpt lat="49.87341" lon="2.43153">
        <ele>52.6</ele>
        <time>2022-01-05T13:51:58Z</time>
      </trkpt>
      <trkpt lat="49.87339" lon="2.43154">
        <ele>52.6</ele>
        <time>2022-01-05T13:51:59Z</time>
      </trkpt>
      <trkpt lat="49.87338" lon="2.43155">
        <ele>52.7</ele>
        <time>2022-01-05T13:52:01Z</time>
      </trkpt>
      <trkpt lat="49.87337" lon="2.43157">
        <ele>52.7</ele>
        <time>2022-01-05T13:52:02Z</time>
      </trkpt>
      <trkpt lat="49.87337" lon="2.43158">
        <ele>52.7</ele>
        <time>2022-01-05T13:52:03Z</time>
      </trkpt>
      <trkpt lat="49.87336" lon="2.43159">
        <ele>52.7</ele>
        <time>2022-01-05T13:52:04Z</time>
      </trkpt>
      <trkpt lat="49.87334" lon="2.4316">
        <ele>52.8</ele>
        <time>2022-01-05T13:52:05Z</time>
      </trkpt>
      <trkpt lat="49.87333" lon="2.43162">
        <ele>52.8</ele>
        <time>2022-01-05T13:52:07Z</time>
      </trkpt>
      <trkpt lat="49.87333" lon="2.43163">
        <ele>52.8</ele>
        <time>2022-01-05T13:52:08Z</time>
      </trkpt>
      <trkpt lat="49.87331" lon="2.43165">
        <ele>52.8</ele>
        <time>2022-01-05T13:52:09Z</time>
      </trkpt>
      <trkpt lat="49.8733" lon="2.43167">
        <ele>52.9</ele>
        <time>2022-01-05T13:52:11Z</time>
      </trkpt>
      <trkpt lat="49.87329" lon="2.43169">
        <ele>52.9</ele>
        <time>2022-01-05T13:52:12Z</time>
      </trkpt>
      <trkpt lat="49.87327" lon="2.43171">
        <ele>53</ele>
        <time>2022-01-05T13:52:13Z</time>
      </trkpt>
      <trkpt lat="49.87327" lon="2.43173">
        <ele>53</ele>
        <time>2022-01-05T13:52:15Z</time>
      </trkpt>
      <trkpt lat="49.87326" lon="2.43174">
        <ele>53</ele>
        <time>2022-01-05T13:52:16Z</time>
      </trkpt>
      <trkpt lat="49.87325" lon="2.43175">
        <ele>53</ele>
        <time>2022-01-05T13:52:17Z</time>
      </trkpt>
      <trkpt lat="49.87324" lon="2.43176">
        <ele>53</ele>
        <time>2022-01-05T13:52:18Z</time>
      </trkpt>
      <trkpt lat="49.87323" lon="2.43178">
        <ele>53</ele>
        <time>2022-01-05T13:52:19Z</time>
      </trkpt>
      <trkpt lat="49.87322" lon="2.43179">
        <ele>53.1</ele>
        <time>2022-01-05T13:52:20Z</time>
      </trkpt>
      <trkpt lat="49.87321" lon="2.43181">
        <ele>53.1</ele>
        <time>2022-01-05T13:52:22Z</time>
      </trkpt>
      <trkpt lat="49.8732" lon="2.43182">
        <ele>53.1</ele>
        <time>2022-01-05T13:52:23Z</time>
      </trkpt>
      <trkpt lat="49.87319" lon="2.43183">
        <ele>53.1</ele>
        <time>2022-01-05T13:52:24Z</time>
      </trkpt>
      <trkpt lat="49.87318" lon="2.43185">
        <ele>53.1</ele>
        <time>2022-01-05T13:52:25Z</time>
      </trkpt>
      <trkpt lat="49.87317" lon="2.43186">
        <ele>53.1</ele>
        <time>2022-01-05T13:52:26Z</time>
      </trkpt>
      <trkpt lat="49.87316" lon="2.43187">
        <ele>53.1</ele>
        <time>2022-01-05T13:52:27Z</time>
      </trkpt>
      <trkpt lat="49.87315" lon="2.43188">
        <ele>53.2</ele>
        <time>2022-01-05T13:52:28Z</time>
      </trkpt>
      <trkpt lat="49.87314" lon="2.43189">
        <ele>53.2</ele>
        <time>2022-01-05T13:52:29Z</time>
      </trkpt>
      <trkpt lat="49.87313" lon="2.43191">
        <ele>53.2</ele>
        <time>2022-01-05T13:52:31Z</time>
      </trkpt>
      <trkpt lat="49.87312" lon="2.43192">
        <ele>53.2</ele>
        <time>2022-01-05T13:52:32Z</time>
      </trkpt>
      <trkpt lat="49.87311" lon="2.43194">
        <ele>53.2</ele>
        <time>2022-01-05T13:52:33Z</time>
      </trkpt>
      <trkpt lat="49.8731" lon="2.43195">
        <ele>53.2</ele>
        <time>2022-01-05T13:52:34Z</time>
      </trkpt>
      <trkpt lat="49.87309" lon="2.43197">
        <ele>53.2</ele>
        <time>2022-01-05T13:52:35Z</time>
      </trkpt>
      <trkpt lat="49.87308" lon="2.43198">
        <ele>53.3</ele>
        <time>2022-01-05T13:52:37Z</time>
      </trkpt>
      <trkpt lat="49.87307" lon="2.43199">
        <ele>53.3</ele>
        <time>2022-01-05T13:52:38Z</time>
      </trkpt>
      <trkpt lat="49.87305" lon="2.43201">
        <ele>53.3</ele>
        <time>2022-01-05T13:52:40Z</time>
      </trkpt>
      <trkpt lat="49.87304" lon="2.43202">
        <ele>53.3</ele>
        <time>2022-01-05T13:52:41Z</time>
      </trkpt>
      <trkpt lat="49.87303" lon="2.43204">
        <ele>53.3</ele>
        <time>2022-01-05T13:52:42Z</time>
      </trkpt>
      <trkpt lat="49.87301" lon="2.43206">
        <ele>53.3</ele>
        <time>2022-01-05T13:52:43Z</time>
      </trkpt>
      <trkpt lat="49.873" lon="2.43207">
        <ele>53.3</ele>
        <time>2022-01-05T13:52:44Z</time>
      </trkpt>
      <trkpt lat="49.873" lon="2.43207">
        <ele>53.3</ele>
        <time>2022-01-05T13:52:45Z</time>
      </trkpt>
      <trkpt lat="49.87298" lon="2.4321">
        <ele>53.4</ele>
        <time>2022-01-05T13:52:46Z</time>
      </trkpt>
      <trkpt lat="49.87297" lon="2.43211">
        <ele>53.4</ele>
        <time>2022-01-05T13:52:47Z</time>
      </trkpt>
      <trkpt lat="49.87296" lon="2.43212">
        <ele>53.4</ele>
        <time>2022-01-05T13:52:48Z</time>
      </trkpt>
      <trkpt lat="49.87295" lon="2.43213">
        <ele>53.4</ele>
        <time>2022-01-05T13:52:49Z</time>
      </trkpt>
      <trkpt lat="49.87294" lon="2.43214">
        <ele>53.4</ele>
        <time>2022-01-05T13:52:50Z</time>
      </trkpt>
      <trkpt lat="49.87293" lon="2.43216">
        <ele>53.4</ele>
        <time>2022-01-05T13:52:52Z</time>
      </trkpt>
      <trkpt lat="49.87292" lon="2.43217">
        <ele>53.4</ele>
        <time>2022-01-05T13:52:53Z</time>
      </trkpt>
      <trkpt lat="49.8729" lon="2.4322">
        <ele>53.4</ele>
        <time>2022-01-05T13:52:54Z</time>
      </trkpt>
      <trkpt lat="49.87289" lon="2.43221">
        <ele>53.5</ele>
        <time>2022-01-05T13:52:56Z</time>
      </trkpt>
      <trkpt lat="49.87288" lon="2.43222">
        <ele>53.5</ele>
        <time>2022-01-05T13:52:57Z</time>
      </trkpt>
      <trkpt lat="49.87287" lon="2.43223">
        <ele>53.5</ele>
        <time>2022-01-05T13:52:58Z</time>
      </trkpt>
      <trkpt lat="49.87286" lon="2.43224">
        <ele>53.5</ele>
        <time>2022-01-05T13:52:59Z</time>
      </trkpt>
      <trkpt lat="49.87284" lon="2.43226">
        <ele>53.5</ele>
        <time>2022-01-05T13:53:00Z</time>
      </trkpt>
      <trkpt lat="49.87283" lon="2.43227">
        <ele>53.5</ele>
        <time>2022-01-05T13:53:01Z</time>
      </trkpt>
      <trkpt lat="49.87281" lon="2.43229">
        <ele>53.6</ele>
        <time>2022-01-05T13:53:02Z</time>
      </trkpt>
      <trkpt lat="49.8728" lon="2.4323">
        <ele>53.6</ele>
        <time>2022-01-05T13:53:04Z</time>
      </trkpt>
      <trkpt lat="49.8728" lon="2.43232">
        <ele>53.6</ele>
        <time>2022-01-05T13:53:05Z</time>
      </trkpt>
      <trkpt lat="49.87278" lon="2.43234">
        <ele>53.6</ele>
        <time>2022-01-05T13:53:07Z</time>
      </trkpt>
      <trkpt lat="49.87277" lon="2.43235">
        <ele>53.6</ele>
        <time>2022-01-05T13:53:08Z</time>
      </trkpt>
      <trkpt lat="49.87276" lon="2.43237">
        <ele>53.7</ele>
        <time>2022-01-05T13:53:09Z</time>
      </trkpt>
      <trkpt lat="49.87275" lon="2.43238">
        <ele>53.7</ele>
        <time>2022-01-05T13:53:10Z</time>
      </trkpt>
      <trkpt lat="49.87273" lon="2.43242">
        <ele>53.7</ele>
        <time>2022-01-05T13:53:12Z</time>
      </trkpt>
      <trkpt lat="49.87272" lon="2.43242">
        <ele>53.7</ele>
        <time>2022-01-05T13:53:13Z</time>
      </trkpt>
      <trkpt lat="49.87271" lon="2.43244">
        <ele>53.7</ele>
        <time>2022-01-05T13:53:14Z</time>
      </trkpt>
      <trkpt lat="49.8727" lon="2.43245">
        <ele>53.7</ele>
        <time>2022-01-05T13:53:15Z</time>
      </trkpt>
      <trkpt lat="49.87269" lon="2.43246">
        <ele>53.7</ele>
        <time>2022-01-05T13:53:16Z</time>
      </trkpt>
      <trkpt lat="49.87268" lon="2.43248">
        <ele>53.8</ele>
        <time>2022-01-05T13:53:17Z</time>
      </trkpt>
      <trkpt lat="49.87267" lon="2.43249">
        <ele>53.8</ele>
        <time>2022-01-05T13:53:19Z</time>
      </trkpt>
      <trkpt lat="49.87266" lon="2.43251">
        <ele>53.8</ele>
        <time>2022-01-05T13:53:20Z</time>
      </trkpt>
      <trkpt lat="49.87265" lon="2.43252">
        <ele>53.8</ele>
        <time>2022-01-05T13:53:21Z</time>
      </trkpt>
      <trkpt lat="49.87263" lon="2.43254">
        <ele>53.8</ele>
        <time>2022-01-05T13:53:22Z</time>
      </trkpt>
      <trkpt lat="49.87261" lon="2.43256">
        <ele>53.8</ele>
        <time>2022-01-05T13:53:23Z</time>
      </trkpt>
      <trkpt lat="49.8726" lon="2.43257">
        <ele>53.8</ele>
        <time>2022-01-05T13:53:24Z</time>
      </trkpt>
      <trkpt lat="49.8726" lon="2.43258">
        <ele>53.8</ele>
        <time>2022-01-05T13:53:25Z</time>
      </trkpt>
      <trkpt lat="49.87259" lon="2.43259">
        <ele>53.8</ele>
        <time>2022-01-05T13:53:27Z</time>
      </trkpt>
      <trkpt lat="49.87258" lon="2.43261">
        <ele>53.8</ele>
        <time>2022-01-05T13:53:28Z</time>
      </trkpt>
      <trkpt lat="49.87257" lon="2.43262">
        <ele>53.8</ele>
        <time>2022-01-05T13:53:29Z</time>
      </trkpt>
      <trkpt lat="49.87255" lon="2.43264">
        <ele>53.8</ele>
        <time>2022-01-05T13:53:30Z</time>
      </trkpt>
      <trkpt lat="49.87254" lon="2.43266">
        <ele>53.7</ele>
        <time>2022-01-05T13:53:31Z</time>
      </trkpt>
      <trkpt lat="49.87253" lon="2.43268">
        <ele>53.7</ele>
        <time>2022-01-05T13:53:32Z</time>
      </trkpt>
      <trkpt lat="49.87252" lon="2.43269">
        <ele>53.7</ele>
        <time>2022-01-05T13:53:33Z</time>
      </trkpt>
      <trkpt lat="49.87251" lon="2.43271">
        <ele>53.7</ele>
        <time>2022-01-05T13:53:34Z</time>
      </trkpt>
      <trkpt lat="49.8725" lon="2.43272">
        <ele>53.7</ele>
        <time>2022-01-05T13:53:35Z</time>
      </trkpt>
      <trkpt lat="49.87249" lon="2.43273">
        <ele>53.7</ele>
        <time>2022-01-05T13:53:37Z</time>
      </trkpt>
      <trkpt lat="49.87248" lon="2.43274">
        <ele>53.6</ele>
        <time>2022-01-05T13:53:38Z</time>
      </trkpt>
      <trkpt lat="49.87247" lon="2.43275">
        <ele>53.6</ele>
        <time>2022-01-05T13:53:39Z</time>
      </trkpt>
      <trkpt lat="49.87246" lon="2.43277">
        <ele>53.6</ele>
        <time>2022-01-05T13:53:40Z</time>
      </trkpt>
      <trkpt lat="49.87245" lon="2.43278">
        <ele>53.6</ele>
        <time>2022-01-05T13:53:41Z</time>
      </trkpt>
      <trkpt lat="49.87244" lon="2.43279">
        <ele>53.6</ele>
        <time>2022-01-05T13:53:42Z</time>
      </trkpt>
      <trkpt lat="49.87243" lon="2.43281">
        <ele>53.6</ele>
        <time>2022-01-05T13:53:44Z</time>
      </trkpt>
      <trkpt lat="49.87241" lon="2.43284">
        <ele>53.6</ele>
        <time>2022-01-05T13:53:45Z</time>
      </trkpt>
      <trkpt lat="49.8724" lon="2.43285">
        <ele>53.6</ele>
        <time>2022-01-05T13:53:47Z</time>
      </trkpt>
      <trkpt lat="49.87239" lon="2.43287">
        <ele>53.5</ele>
        <time>2022-01-05T13:53:48Z</time>
      </trkpt>
      <trkpt lat="49.87238" lon="2.43288">
        <ele>53.5</ele>
        <time>2022-01-05T13:53:49Z</time>
      </trkpt>
      <trkpt lat="49.87238" lon="2.4329">
        <ele>53.5</ele>
        <time>2022-01-05T13:53:50Z</time>
      </trkpt>
      <trkpt lat="49.87236" lon="2.43292">
        <ele>53.5</ele>
        <time>2022-01-05T13:53:52Z</time>
      </trkpt>
      <trkpt lat="49.87236" lon="2.43294">
        <ele>53.5</ele>
        <time>2022-01-05T13:53:53Z</time>
      </trkpt>
      <trkpt lat="49.87235" lon="2.43295">
        <ele>53.5</ele>
        <time>2022-01-05T13:53:54Z</time>
      </trkpt>
      <trkpt lat="49.87234" lon="2.43297">
        <ele>53.5</ele>
        <time>2022-01-05T13:53:56Z</time>
      </trkpt>
      <trkpt lat="49.87233" lon="2.43299">
        <ele>53.5</ele>
        <time>2022-01-05T13:53:57Z</time>
      </trkpt>
      <trkpt lat="49.87232" lon="2.43301">
        <ele>53.5</ele>
        <time>2022-01-05T13:53:58Z</time>
      </trkpt>
      <trkpt lat="49.8723" lon="2.43303">
        <ele>53.5</ele>
        <time>2022-01-05T13:53:59Z</time>
      </trkpt>
      <trkpt lat="49.87229" lon="2.43304">
        <ele>53.5</ele>
        <time>2022-01-05T13:54:00Z</time>
      </trkpt>
      <trkpt lat="49.87229" lon="2.43305">
        <ele>53.5</ele>
        <time>2022-01-05T13:54:01Z</time>
      </trkpt>
      <trkpt lat="49.87227" lon="2.43306">
        <ele>53.5</ele>
        <time>2022-01-05T13:54:03Z</time>
      </trkpt>
      <trkpt lat="49.87226" lon="2.43307">
        <ele>53.5</ele>
        <time>2022-01-05T13:54:04Z</time>
      </trkpt>
      <trkpt lat="49.87225" lon="2.43309">
        <ele>53.5</ele>
        <time>2022-01-05T13:54:06Z</time>
      </trkpt>
      <trkpt lat="49.87223" lon="2.43312">
        <ele>53.5</ele>
        <time>2022-01-05T13:54:08Z</time>
      </trkpt>
      <trkpt lat="49.87221" lon="2.43314">
        <ele>53.5</ele>
        <time>2022-01-05T13:54:09Z</time>
      </trkpt>
      <trkpt lat="49.8722" lon="2.43315">
        <ele>53.5</ele>
        <time>2022-01-05T13:54:10Z</time>
      </trkpt>
      <trkpt lat="49.8722" lon="2.43316">
        <ele>53.5</ele>
        <time>2022-01-05T13:54:11Z</time>
      </trkpt>
      <trkpt lat="49.87219" lon="2.43317">
        <ele>53.5</ele>
        <time>2022-01-05T13:54:12Z</time>
      </trkpt>
      <trkpt lat="49.87218" lon="2.43319">
        <ele>53.5</ele>
        <time>2022-01-05T13:54:14Z</time>
      </trkpt>
      <trkpt lat="49.87217" lon="2.43321">
        <ele>53.5</ele>
        <time>2022-01-05T13:54:15Z</time>
      </trkpt>
      <trkpt lat="49.87216" lon="2.43322">
        <ele>53.5</ele>
        <time>2022-01-05T13:54:16Z</time>
      </trkpt>
      <trkpt lat="49.87215" lon="2.43324">
        <ele>53.5</ele>
        <time>2022-01-05T13:54:18Z</time>
      </trkpt>
      <trkpt lat="49.87214" lon="2.43325">
        <ele>53.5</ele>
        <time>2022-01-05T13:54:19Z</time>
      </trkpt>
      <trkpt lat="49.87213" lon="2.43327">
        <ele>53.5</ele>
        <time>2022-01-05T13:54:20Z</time>
      </trkpt>
      <trkpt lat="49.87212" lon="2.43329">
        <ele>53.5</ele>
        <time>2022-01-05T13:54:21Z</time>
      </trkpt>
      <trkpt lat="49.87211" lon="2.4333">
        <ele>53.5</ele>
        <time>2022-01-05T13:54:22Z</time>
      </trkpt>
      <trkpt lat="49.8721" lon="2.43332">
        <ele>53.5</ele>
        <time>2022-01-05T13:54:23Z</time>
      </trkpt>
      <trkpt lat="49.87209" lon="2.43333">
        <ele>53.5</ele>
        <time>2022-01-05T13:54:24Z</time>
      </trkpt>
      <trkpt lat="49.87207" lon="2.43336">
        <ele>53.5</ele>
        <time>2022-01-05T13:54:26Z</time>
      </trkpt>
      <trkpt lat="49.87206" lon="2.43338">
        <ele>53.5</ele>
        <time>2022-01-05T13:54:27Z</time>
      </trkpt>
      <trkpt lat="49.87205" lon="2.43339">
        <ele>53.5</ele>
        <time>2022-01-05T13:54:28Z</time>
      </trkpt>
      <trkpt lat="49.87204" lon="2.4334">
        <ele>53.5</ele>
        <time>2022-01-05T13:54:29Z</time>
      </trkpt>
      <trkpt lat="49.87203" lon="2.43343">
        <ele>53.5</ele>
        <time>2022-01-05T13:54:30Z</time>
      </trkpt>
      <trkpt lat="49.87202" lon="2.43344">
        <ele>53.4</ele>
        <time>2022-01-05T13:54:32Z</time>
      </trkpt>
      <trkpt lat="49.87201" lon="2.43345">
        <ele>53.4</ele>
        <time>2022-01-05T13:54:33Z</time>
      </trkpt>
      <trkpt lat="49.872" lon="2.43347">
        <ele>53.4</ele>
        <time>2022-01-05T13:54:34Z</time>
      </trkpt>
      <trkpt lat="49.87199" lon="2.43348">
        <ele>53.4</ele>
        <time>2022-01-05T13:54:35Z</time>
      </trkpt>
      <trkpt lat="49.87198" lon="2.43349">
        <ele>53.4</ele>
        <time>2022-01-05T13:54:37Z</time>
      </trkpt>
      <trkpt lat="49.87197" lon="2.43351">
        <ele>53.4</ele>
        <time>2022-01-05T13:54:38Z</time>
      </trkpt>
      <trkpt lat="49.87196" lon="2.43352">
        <ele>53.4</ele>
        <time>2022-01-05T13:54:39Z</time>
      </trkpt>
      <trkpt lat="49.87194" lon="2.43353">
        <ele>53.4</ele>
        <time>2022-01-05T13:54:40Z</time>
      </trkpt>
      <trkpt lat="49.87193" lon="2.43355">
        <ele>53.3</ele>
        <time>2022-01-05T13:54:41Z</time>
      </trkpt>
      <trkpt lat="49.87192" lon="2.43357">
        <ele>53.3</ele>
        <time>2022-01-05T13:54:43Z</time>
      </trkpt>
      <trkpt lat="49.87191" lon="2.43359">
        <ele>53.3</ele>
        <time>2022-01-05T13:54:45Z</time>
      </trkpt>
      <trkpt lat="49.8719" lon="2.4336">
        <ele>53.3</ele>
        <time>2022-01-05T13:54:46Z</time>
      </trkpt>
      <trkpt lat="49.87189" lon="2.43363">
        <ele>53.3</ele>
        <time>2022-01-05T13:54:47Z</time>
      </trkpt>
      <trkpt lat="49.87188" lon="2.43364">
        <ele>53.3</ele>
        <time>2022-01-05T13:54:48Z</time>
      </trkpt>
      <trkpt lat="49.87187" lon="2.43364">
        <ele>53.3</ele>
        <time>2022-01-05T13:54:49Z</time>
      </trkpt>
      <trkpt lat="49.87186" lon="2.43366">
        <ele>53.3</ele>
        <time>2022-01-05T13:54:50Z</time>
      </trkpt>
      <trkpt lat="49.87185" lon="2.43367">
        <ele>53.3</ele>
        <time>2022-01-05T13:54:51Z</time>
      </trkpt>
      <trkpt lat="49.87183" lon="2.4337">
        <ele>53.2</ele>
        <time>2022-01-05T13:54:52Z</time>
      </trkpt>
      <trkpt lat="49.87183" lon="2.43371">
        <ele>53.2</ele>
        <time>2022-01-05T13:54:54Z</time>
      </trkpt>
      <trkpt lat="49.87182" lon="2.43371">
        <ele>53.2</ele>
        <time>2022-01-05T13:54:55Z</time>
      </trkpt>
      <trkpt lat="49.87181" lon="2.43373">
        <ele>53.2</ele>
        <time>2022-01-05T13:54:56Z</time>
      </trkpt>
      <trkpt lat="49.8718" lon="2.43374">
        <ele>53.2</ele>
        <time>2022-01-05T13:54:57Z</time>
      </trkpt>
      <trkpt lat="49.87178" lon="2.43375">
        <ele>53.2</ele>
        <time>2022-01-05T13:54:58Z</time>
      </trkpt>
      <trkpt lat="49.87177" lon="2.43376">
        <ele>53.2</ele>
        <time>2022-01-05T13:54:59Z</time>
      </trkpt>
      <trkpt lat="49.87176" lon="2.43378">
        <ele>53.2</ele>
        <time>2022-01-05T13:55:00Z</time>
      </trkpt>
      <trkpt lat="49.87175" lon="2.43379">
        <ele>53.2</ele>
        <time>2022-01-05T13:55:01Z</time>
      </trkpt>
      <trkpt lat="49.87174" lon="2.4338">
        <ele>53.2</ele>
        <time>2022-01-05T13:55:02Z</time>
      </trkpt>
      <trkpt lat="49.87173" lon="2.43381">
        <ele>53.1</ele>
        <time>2022-01-05T13:55:03Z</time>
      </trkpt>
      <trkpt lat="49.87172" lon="2.43382">
        <ele>53.1</ele>
        <time>2022-01-05T13:55:05Z</time>
      </trkpt>
      <trkpt lat="49.8717" lon="2.43383">
        <ele>53.1</ele>
        <time>2022-01-05T13:55:06Z</time>
      </trkpt>
      <trkpt lat="49.87169" lon="2.43385">
        <ele>53.1</ele>
        <time>2022-01-05T13:55:07Z</time>
      </trkpt>
      <trkpt lat="49.87168" lon="2.43387">
        <ele>53.1</ele>
        <time>2022-01-05T13:55:09Z</time>
      </trkpt>
      <trkpt lat="49.87167" lon="2.43388">
        <ele>53.1</ele>
        <time>2022-01-05T13:55:10Z</time>
      </trkpt>
      <trkpt lat="49.87165" lon="2.43391">
        <ele>53.1</ele>
        <time>2022-01-05T13:55:11Z</time>
      </trkpt>
      <trkpt lat="49.87165" lon="2.43392">
        <ele>53.1</ele>
        <time>2022-01-05T13:55:12Z</time>
      </trkpt>
      <trkpt lat="49.87164" lon="2.43393">
        <ele>53.1</ele>
        <time>2022-01-05T13:55:13Z</time>
      </trkpt>
      <trkpt lat="49.87163" lon="2.43395">
        <ele>53.1</ele>
        <time>2022-01-05T13:55:14Z</time>
      </trkpt>
      <trkpt lat="49.87162" lon="2.43397">
        <ele>53.1</ele>
        <time>2022-01-05T13:55:16Z</time>
      </trkpt>
      <trkpt lat="49.87161" lon="2.43398">
        <ele>53.1</ele>
        <time>2022-01-05T13:55:17Z</time>
      </trkpt>
      <trkpt lat="49.87159" lon="2.434">
        <ele>53.1</ele>
        <time>2022-01-05T13:55:19Z</time>
      </trkpt>
      <trkpt lat="49.87158" lon="2.43402">
        <ele>53.1</ele>
        <time>2022-01-05T13:55:20Z</time>
      </trkpt>
      <trkpt lat="49.87157" lon="2.43404">
        <ele>53.1</ele>
        <time>2022-01-05T13:55:21Z</time>
      </trkpt>
      <trkpt lat="49.87156" lon="2.43406">
        <ele>53.1</ele>
        <time>2022-01-05T13:55:22Z</time>
      </trkpt>
      <trkpt lat="49.87155" lon="2.43407">
        <ele>53.1</ele>
        <time>2022-01-05T13:55:23Z</time>
      </trkpt>
      <trkpt lat="49.87154" lon="2.43408">
        <ele>53.1</ele>
        <time>2022-01-05T13:55:25Z</time>
      </trkpt>
      <trkpt lat="49.87153" lon="2.4341">
        <ele>53.1</ele>
        <time>2022-01-05T13:55:26Z</time>
      </trkpt>
      <trkpt lat="49.87151" lon="2.43412">
        <ele>53.1</ele>
        <time>2022-01-05T13:55:27Z</time>
      </trkpt>
      <trkpt lat="49.87151" lon="2.43413">
        <ele>53.1</ele>
        <time>2022-01-05T13:55:28Z</time>
      </trkpt>
      <trkpt lat="49.8715" lon="2.43414">
        <ele>53.1</ele>
        <time>2022-01-05T13:55:29Z</time>
      </trkpt>
      <trkpt lat="49.87149" lon="2.43416">
        <ele>53.1</ele>
        <time>2022-01-05T13:55:30Z</time>
      </trkpt>
      <trkpt lat="49.87148" lon="2.43417">
        <ele>53.1</ele>
        <time>2022-01-05T13:55:31Z</time>
      </trkpt>
      <trkpt lat="49.87146" lon="2.43419">
        <ele>53.1</ele>
        <time>2022-01-05T13:55:33Z</time>
      </trkpt>
      <trkpt lat="49.87146" lon="2.4342">
        <ele>53.1</ele>
        <time>2022-01-05T13:55:34Z</time>
      </trkpt>
      <trkpt lat="49.87145" lon="2.43421">
        <ele>53.1</ele>
        <time>2022-01-05T13:55:35Z</time>
      </trkpt>
      <trkpt lat="49.87143" lon="2.43423">
        <ele>53</ele>
        <time>2022-01-05T13:55:37Z</time>
      </trkpt>
      <trkpt lat="49.87143" lon="2.43424">
        <ele>53</ele>
        <time>2022-01-05T13:55:38Z</time>
      </trkpt>
      <trkpt lat="49.87142" lon="2.43427">
        <ele>53</ele>
        <time>2022-01-05T13:55:39Z</time>
      </trkpt>
      <trkpt lat="49.8714" lon="2.43428">
        <ele>53</ele>
        <time>2022-01-05T13:55:40Z</time>
      </trkpt>
      <trkpt lat="49.87139" lon="2.4343">
        <ele>53</ele>
        <time>2022-01-05T13:55:41Z</time>
      </trkpt>
      <trkpt lat="49.87138" lon="2.43431">
        <ele>53</ele>
        <time>2022-01-05T13:55:42Z</time>
      </trkpt>
      <trkpt lat="49.87137" lon="2.43433">
        <ele>53</ele>
        <time>2022-01-05T13:55:43Z</time>
      </trkpt>
      <trkpt lat="49.87136" lon="2.43434">
        <ele>53.1</ele>
        <time>2022-01-05T13:55:45Z</time>
      </trkpt>
      <trkpt lat="49.87135" lon="2.43436">
        <ele>53.1</ele>
        <time>2022-01-05T13:55:46Z</time>
      </trkpt>
      <trkpt lat="49.87134" lon="2.43438">
        <ele>53.1</ele>
        <time>2022-01-05T13:55:48Z</time>
      </trkpt>
      <trkpt lat="49.87132" lon="2.4344">
        <ele>53.1</ele>
        <time>2022-01-05T13:55:49Z</time>
      </trkpt>
      <trkpt lat="49.8713" lon="2.43442">
        <ele>53.1</ele>
        <time>2022-01-05T13:55:51Z</time>
      </trkpt>
      <trkpt lat="49.87129" lon="2.43443">
        <ele>53.1</ele>
        <time>2022-01-05T13:55:52Z</time>
      </trkpt>
      <trkpt lat="49.87128" lon="2.43444">
        <ele>53.1</ele>
        <time>2022-01-05T13:55:53Z</time>
      </trkpt>
      <trkpt lat="49.87127" lon="2.43446">
        <ele>53.1</ele>
        <time>2022-01-05T13:55:55Z</time>
      </trkpt>
      <trkpt lat="49.87126" lon="2.43447">
        <ele>53.1</ele>
        <time>2022-01-05T13:55:56Z</time>
      </trkpt>
      <trkpt lat="49.87124" lon="2.43449">
        <ele>53.1</ele>
        <time>2022-01-05T13:55:57Z</time>
      </trkpt>
      <trkpt lat="49.87123" lon="2.4345">
        <ele>53.2</ele>
        <time>2022-01-05T13:55:58Z</time>
      </trkpt>
      <trkpt lat="49.87122" lon="2.4345">
        <ele>53.2</ele>
        <time>2022-01-05T13:55:59Z</time>
      </trkpt>
      <trkpt lat="49.87121" lon="2.43452">
        <ele>53.2</ele>
        <time>2022-01-05T13:56:00Z</time>
      </trkpt>
      <trkpt lat="49.8712" lon="2.43453">
        <ele>53.2</ele>
        <time>2022-01-05T13:56:01Z</time>
      </trkpt>
      <trkpt lat="49.87119" lon="2.43454">
        <ele>53.2</ele>
        <time>2022-01-05T13:56:03Z</time>
      </trkpt>
      <trkpt lat="49.87118" lon="2.43456">
        <ele>53.2</ele>
        <time>2022-01-05T13:56:04Z</time>
      </trkpt>
      <trkpt lat="49.87116" lon="2.43457">
        <ele>53.2</ele>
        <time>2022-01-05T13:56:05Z</time>
      </trkpt>
      <trkpt lat="49.87115" lon="2.43459">
        <ele>53.3</ele>
        <time>2022-01-05T13:56:06Z</time>
      </trkpt>
      <trkpt lat="49.87114" lon="2.4346">
        <ele>53.3</ele>
        <time>2022-01-05T13:56:08Z</time>
      </trkpt>
      <trkpt lat="49.87112" lon="2.43462">
        <ele>53.3</ele>
        <time>2022-01-05T13:56:09Z</time>
      </trkpt>
      <trkpt lat="49.87111" lon="2.43463">
        <ele>53.3</ele>
        <time>2022-01-05T13:56:10Z</time>
      </trkpt>
      <trkpt lat="49.8711" lon="2.43465">
        <ele>53.3</ele>
        <time>2022-01-05T13:56:11Z</time>
      </trkpt>
      <trkpt lat="49.87109" lon="2.43467">
        <ele>53.3</ele>
        <time>2022-01-05T13:56:13Z</time>
      </trkpt>
      <trkpt lat="49.87109" lon="2.43469">
        <ele>53.3</ele>
        <time>2022-01-05T13:56:14Z</time>
      </trkpt>
      <trkpt lat="49.87108" lon="2.43471">
        <ele>53.4</ele>
        <time>2022-01-05T13:56:15Z</time>
      </trkpt>
      <trkpt lat="49.87107" lon="2.43472">
        <ele>53.4</ele>
        <time>2022-01-05T13:56:16Z</time>
      </trkpt>
      <trkpt lat="49.87106" lon="2.43475">
        <ele>53.4</ele>
        <time>2022-01-05T13:56:17Z</time>
      </trkpt>
      <trkpt lat="49.87105" lon="2.43476">
        <ele>53.4</ele>
        <time>2022-01-05T13:56:18Z</time>
      </trkpt>
      <trkpt lat="49.87105" lon="2.43477">
        <ele>53.4</ele>
        <time>2022-01-05T13:56:19Z</time>
      </trkpt>
      <trkpt lat="49.87104" lon="2.43478">
        <ele>53.4</ele>
        <time>2022-01-05T13:56:21Z</time>
      </trkpt>
      <trkpt lat="49.87102" lon="2.4348">
        <ele>53.4</ele>
        <time>2022-01-05T13:56:23Z</time>
      </trkpt>
      <trkpt lat="49.87101" lon="2.43481">
        <ele>53.4</ele>
        <time>2022-01-05T13:56:24Z</time>
      </trkpt>
      <trkpt lat="49.871" lon="2.43483">
        <ele>53.4</ele>
        <time>2022-01-05T13:56:25Z</time>
      </trkpt>
      <trkpt lat="49.87099" lon="2.43484">
        <ele>53.4</ele>
        <time>2022-01-05T13:56:26Z</time>
      </trkpt>
      <trkpt lat="49.87098" lon="2.43486">
        <ele>53.4</ele>
        <time>2022-01-05T13:56:27Z</time>
      </trkpt>
      <trkpt lat="49.87096" lon="2.43488">
        <ele>53.4</ele>
        <time>2022-01-05T13:56:28Z</time>
      </trkpt>
      <trkpt lat="49.87095" lon="2.43489">
        <ele>53.4</ele>
        <time>2022-01-05T13:56:29Z</time>
      </trkpt>
      <trkpt lat="49.87094" lon="2.4349">
        <ele>53.4</ele>
        <time>2022-01-05T13:56:31Z</time>
      </trkpt>
      <trkpt lat="49.87093" lon="2.43492">
        <ele>53.4</ele>
        <time>2022-01-05T13:56:32Z</time>
      </trkpt>
      <trkpt lat="49.87091" lon="2.43494">
        <ele>53.4</ele>
        <time>2022-01-05T13:56:33Z</time>
      </trkpt>
      <trkpt lat="49.8709" lon="2.43495">
        <ele>53.4</ele>
        <time>2022-01-05T13:56:34Z</time>
      </trkpt>
      <trkpt lat="49.8709" lon="2.43495">
        <ele>53.4</ele>
        <time>2022-01-05T13:56:35Z</time>
      </trkpt>
      <trkpt lat="49.87088" lon="2.43497">
        <ele>53.4</ele>
        <time>2022-01-05T13:56:36Z</time>
      </trkpt>
      <trkpt lat="49.87087" lon="2.43498">
        <ele>53.4</ele>
        <time>2022-01-05T13:56:37Z</time>
      </trkpt>
      <trkpt lat="49.87086" lon="2.435">
        <ele>53.4</ele>
        <time>2022-01-05T13:56:39Z</time>
      </trkpt>
      <trkpt lat="49.87085" lon="2.43501">
        <ele>53.5</ele>
        <time>2022-01-05T13:56:40Z</time>
      </trkpt>
      <trkpt lat="49.87084" lon="2.43502">
        <ele>53.5</ele>
        <time>2022-01-05T13:56:41Z</time>
      </trkpt>
      <trkpt lat="49.87083" lon="2.43504">
        <ele>53.5</ele>
        <time>2022-01-05T13:56:42Z</time>
      </trkpt>
      <trkpt lat="49.87082" lon="2.43505">
        <ele>53.5</ele>
        <time>2022-01-05T13:56:43Z</time>
      </trkpt>
      <trkpt lat="49.87081" lon="2.43506">
        <ele>53.5</ele>
        <time>2022-01-05T13:56:44Z</time>
      </trkpt>
      <trkpt lat="49.8708" lon="2.43508">
        <ele>53.5</ele>
        <time>2022-01-05T13:56:46Z</time>
      </trkpt>
      <trkpt lat="49.87079" lon="2.43509">
        <ele>53.5</ele>
        <time>2022-01-05T13:56:47Z</time>
      </trkpt>
      <trkpt lat="49.87078" lon="2.4351">
        <ele>53.5</ele>
        <time>2022-01-05T13:56:48Z</time>
      </trkpt>
      <trkpt lat="49.87077" lon="2.4351">
        <ele>53.5</ele>
        <time>2022-01-05T13:56:49Z</time>
      </trkpt>
      <trkpt lat="49.87076" lon="2.43512">
        <ele>53.5</ele>
        <time>2022-01-05T13:56:50Z</time>
      </trkpt>
      <trkpt lat="49.87075" lon="2.43513">
        <ele>53.5</ele>
        <time>2022-01-05T13:56:51Z</time>
      </trkpt>
      <trkpt lat="49.87074" lon="2.43514">
        <ele>53.5</ele>
        <time>2022-01-05T13:56:52Z</time>
      </trkpt>
      <trkpt lat="49.87071" lon="2.43517">
        <ele>53.5</ele>
        <time>2022-01-05T13:56:53Z</time>
      </trkpt>
      <trkpt lat="49.87071" lon="2.43519">
        <ele>53.5</ele>
        <time>2022-01-05T13:56:55Z</time>
      </trkpt>
      <trkpt lat="49.8707" lon="2.4352">
        <ele>53.5</ele>
        <time>2022-01-05T13:56:56Z</time>
      </trkpt>
      <trkpt lat="49.87069" lon="2.43521">
        <ele>53.5</ele>
        <time>2022-01-05T13:56:57Z</time>
      </trkpt>
      <trkpt lat="49.87068" lon="2.43522">
        <ele>53.5</ele>
        <time>2022-01-05T13:56:58Z</time>
      </trkpt>
      <trkpt lat="49.87068" lon="2.43523">
        <ele>53.6</ele>
        <time>2022-01-05T13:56:59Z</time>
      </trkpt>
      <trkpt lat="49.87066" lon="2.43527">
        <ele>53.6</ele>
        <time>2022-01-05T13:57:01Z</time>
      </trkpt>
      <trkpt lat="49.87065" lon="2.43528">
        <ele>53.6</ele>
        <time>2022-01-05T13:57:02Z</time>
      </trkpt>
      <trkpt lat="49.87064" lon="2.4353">
        <ele>53.6</ele>
        <time>2022-01-05T13:57:03Z</time>
      </trkpt>
      <trkpt lat="49.87063" lon="2.43533">
        <ele>53.6</ele>
        <time>2022-01-05T13:57:04Z</time>
      </trkpt>
      <trkpt lat="49.87062" lon="2.43535">
        <ele>53.6</ele>
        <time>2022-01-05T13:57:06Z</time>
      </trkpt>
      <trkpt lat="49.87061" lon="2.43536">
        <ele>53.6</ele>
        <time>2022-01-05T13:57:07Z</time>
      </trkpt>
      <trkpt lat="49.87061" lon="2.43538">
        <ele>53.6</ele>
        <time>2022-01-05T13:57:08Z</time>
      </trkpt>
      <trkpt lat="49.8706" lon="2.43539">
        <ele>53.6</ele>
        <time>2022-01-05T13:57:09Z</time>
      </trkpt>
      <trkpt lat="49.87058" lon="2.43542">
        <ele>53.6</ele>
        <time>2022-01-05T13:57:10Z</time>
      </trkpt>
      <trkpt lat="49.87058" lon="2.43543">
        <ele>53.6</ele>
        <time>2022-01-05T13:57:11Z</time>
      </trkpt>
      <trkpt lat="49.87058" lon="2.43544">
        <ele>53.6</ele>
        <time>2022-01-05T13:57:12Z</time>
      </trkpt>
      <trkpt lat="49.87057" lon="2.43546">
        <ele>53.6</ele>
        <time>2022-01-05T13:57:13Z</time>
      </trkpt>
      <trkpt lat="49.87056" lon="2.43547">
        <ele>53.6</ele>
        <time>2022-01-05T13:57:14Z</time>
      </trkpt>
      <trkpt lat="49.87056" lon="2.43549">
        <ele>53.6</ele>
        <time>2022-01-05T13:57:16Z</time>
      </trkpt>
      <trkpt lat="49.87055" lon="2.43552">
        <ele>53.6</ele>
        <time>2022-01-05T13:57:17Z</time>
      </trkpt>
      <trkpt lat="49.87055" lon="2.43554">
        <ele>53.6</ele>
        <time>2022-01-05T13:57:18Z</time>
      </trkpt>
      <trkpt lat="49.87054" lon="2.43555">
        <ele>53.6</ele>
        <time>2022-01-05T13:57:19Z</time>
      </trkpt>
      <trkpt lat="49.87054" lon="2.43557">
        <ele>53.6</ele>
        <time>2022-01-05T13:57:20Z</time>
      </trkpt>
      <trkpt lat="49.87054" lon="2.43559">
        <ele>53.6</ele>
        <time>2022-01-05T13:57:22Z</time>
      </trkpt>
      <trkpt lat="49.87054" lon="2.43562">
        <ele>53.7</ele>
        <time>2022-01-05T13:57:23Z</time>
      </trkpt>
      <trkpt lat="49.87054" lon="2.43563">
        <ele>53.7</ele>
        <time>2022-01-05T13:57:24Z</time>
      </trkpt>
      <trkpt lat="49.87053" lon="2.43566">
        <ele>53.7</ele>
        <time>2022-01-05T13:57:26Z</time>
      </trkpt>
      <trkpt lat="49.87053" lon="2.43568">
        <ele>53.7</ele>
        <time>2022-01-05T13:57:27Z</time>
      </trkpt>
      <trkpt lat="49.87053" lon="2.43571">
        <ele>53.7</ele>
        <time>2022-01-05T13:57:29Z</time>
      </trkpt>
      <trkpt lat="49.87052" lon="2.43575">
        <ele>53.7</ele>
        <time>2022-01-05T13:57:30Z</time>
      </trkpt>
      <trkpt lat="49.87052" lon="2.43577">
        <ele>53.7</ele>
        <time>2022-01-05T13:57:31Z</time>
      </trkpt>
      <trkpt lat="49.87052" lon="2.43579">
        <ele>53.7</ele>
        <time>2022-01-05T13:57:32Z</time>
      </trkpt>
      <trkpt lat="49.87052" lon="2.4358">
        <ele>53.7</ele>
        <time>2022-01-05T13:57:33Z</time>
      </trkpt>
      <trkpt lat="49.87052" lon="2.43583">
        <ele>53.7</ele>
        <time>2022-01-05T13:57:35Z</time>
      </trkpt>
      <trkpt lat="49.87051" lon="2.43586">
        <ele>53.7</ele>
        <time>2022-01-05T13:57:36Z</time>
      </trkpt>
      <trkpt lat="49.87051" lon="2.43588">
        <ele>53.7</ele>
        <time>2022-01-05T13:57:37Z</time>
      </trkpt>
      <trkpt lat="49.87051" lon="2.43591">
        <ele>53.7</ele>
        <time>2022-01-05T13:57:39Z</time>
      </trkpt>
      <trkpt lat="49.87051" lon="2.43593">
        <ele>53.7</ele>
        <time>2022-01-05T13:57:40Z</time>
      </trkpt>
      <trkpt lat="49.87051" lon="2.43595">
        <ele>53.7</ele>
        <time>2022-01-05T13:57:41Z</time>
      </trkpt>
      <trkpt lat="49.8705" lon="2.43599">
        <ele>53.7</ele>
        <time>2022-01-05T13:57:43Z</time>
      </trkpt>
      <trkpt lat="49.87049" lon="2.436">
        <ele>53.7</ele>
        <time>2022-01-05T13:57:44Z</time>
      </trkpt>
      <trkpt lat="49.87049" lon="2.43602">
        <ele>53.7</ele>
        <time>2022-01-05T13:57:45Z</time>
      </trkpt>
      <trkpt lat="49.87049" lon="2.43604">
        <ele>53.7</ele>
        <time>2022-01-05T13:57:47Z</time>
      </trkpt>
      <trkpt lat="49.87049" lon="2.43608">
        <ele>53.7</ele>
        <time>2022-01-05T13:57:48Z</time>
      </trkpt>
      <trkpt lat="49.87049" lon="2.43609">
        <ele>53.7</ele>
        <time>2022-01-05T13:57:49Z</time>
      </trkpt>
      <trkpt lat="49.87049" lon="2.43611">
        <ele>53.7</ele>
        <time>2022-01-05T13:57:50Z</time>
      </trkpt>
      <trkpt lat="49.87048" lon="2.43613">
        <ele>53.7</ele>
        <time>2022-01-05T13:57:51Z</time>
      </trkpt>
      <trkpt lat="49.87048" lon="2.43615">
        <ele>53.7</ele>
        <time>2022-01-05T13:57:52Z</time>
      </trkpt>
      <trkpt lat="49.87048" lon="2.43619">
        <ele>53.7</ele>
        <time>2022-01-05T13:57:54Z</time>
      </trkpt>
      <trkpt lat="49.87048" lon="2.43621">
        <ele>53.7</ele>
        <time>2022-01-05T13:57:55Z</time>
      </trkpt>
      <trkpt lat="49.87047" lon="2.43624">
        <ele>53.7</ele>
        <time>2022-01-05T13:57:56Z</time>
      </trkpt>
      <trkpt lat="49.87047" lon="2.43626">
        <ele>53.7</ele>
        <time>2022-01-05T13:57:58Z</time>
      </trkpt>
      <trkpt lat="49.87047" lon="2.43628">
        <ele>53.7</ele>
        <time>2022-01-05T13:57:59Z</time>
      </trkpt>
      <trkpt lat="49.87047" lon="2.43631">
        <ele>53.7</ele>
        <time>2022-01-05T13:58:00Z</time>
      </trkpt>
      <trkpt lat="49.87046" lon="2.43633">
        <ele>53.7</ele>
        <time>2022-01-05T13:58:01Z</time>
      </trkpt>
      <trkpt lat="49.87046" lon="2.43635">
        <ele>53.7</ele>
        <time>2022-01-05T13:58:02Z</time>
      </trkpt>
      <trkpt lat="49.87046" lon="2.43639">
        <ele>53.7</ele>
        <time>2022-01-05T13:58:03Z</time>
      </trkpt>
      <trkpt lat="49.87046" lon="2.4364">
        <ele>53.7</ele>
        <time>2022-01-05T13:58:04Z</time>
      </trkpt>
      <trkpt lat="49.87045" lon="2.43641">
        <ele>53.7</ele>
        <time>2022-01-05T13:58:05Z</time>
      </trkpt>
      <trkpt lat="49.87045" lon="2.43642">
        <ele>53.7</ele>
        <time>2022-01-05T13:58:06Z</time>
      </trkpt>
      <trkpt lat="49.87045" lon="2.43644">
        <ele>53.7</ele>
        <time>2022-01-05T13:58:08Z</time>
      </trkpt>
      <trkpt lat="49.87045" lon="2.43646">
        <ele>53.7</ele>
        <time>2022-01-05T13:58:09Z</time>
      </trkpt>
      <trkpt lat="49.87044" lon="2.43648">
        <ele>53.7</ele>
        <time>2022-01-05T13:58:10Z</time>
      </trkpt>
      <trkpt lat="49.87044" lon="2.43649">
        <ele>53.7</ele>
        <time>2022-01-05T13:58:11Z</time>
      </trkpt>
      <trkpt lat="49.87044" lon="2.4365">
        <ele>53.7</ele>
        <time>2022-01-05T13:58:12Z</time>
      </trkpt>
      <trkpt lat="49.87043" lon="2.43652">
        <ele>53.7</ele>
        <time>2022-01-05T13:58:13Z</time>
      </trkpt>
      <trkpt lat="49.87043" lon="2.43656">
        <ele>53.7</ele>
        <time>2022-01-05T13:58:14Z</time>
      </trkpt>
      <trkpt lat="49.87042" lon="2.43658">
        <ele>53.7</ele>
        <time>2022-01-05T13:58:16Z</time>
      </trkpt>
      <trkpt lat="49.87042" lon="2.4366">
        <ele>53.7</ele>
        <time>2022-01-05T13:58:17Z</time>
      </trkpt>
      <trkpt lat="49.87042" lon="2.43662">
        <ele>53.7</ele>
        <time>2022-01-05T13:58:18Z</time>
      </trkpt>
      <trkpt lat="49.87042" lon="2.43664">
        <ele>53.7</ele>
        <time>2022-01-05T13:58:19Z</time>
      </trkpt>
      <trkpt lat="49.87041" lon="2.43666">
        <ele>53.7</ele>
        <time>2022-01-05T13:58:21Z</time>
      </trkpt>
      <trkpt lat="49.87041" lon="2.4367">
        <ele>53.8</ele>
        <time>2022-01-05T13:58:22Z</time>
      </trkpt>
      <trkpt lat="49.8704" lon="2.43675">
        <ele>53.8</ele>
        <time>2022-01-05T13:58:25Z</time>
      </trkpt>
      <trkpt lat="49.8704" lon="2.43678">
        <ele>53.8</ele>
        <time>2022-01-05T13:58:26Z</time>
      </trkpt>
      <trkpt lat="49.87039" lon="2.4368">
        <ele>53.8</ele>
        <time>2022-01-05T13:58:28Z</time>
      </trkpt>
      <trkpt lat="49.87039" lon="2.43683">
        <ele>53.8</ele>
        <time>2022-01-05T13:58:29Z</time>
      </trkpt>
      <trkpt lat="49.87039" lon="2.43684">
        <ele>53.8</ele>
        <time>2022-01-05T13:58:30Z</time>
      </trkpt>
      <trkpt lat="49.87038" lon="2.43688">
        <ele>53.8</ele>
        <time>2022-01-05T13:58:31Z</time>
      </trkpt>
      <trkpt lat="49.87038" lon="2.43689">
        <ele>53.8</ele>
        <time>2022-01-05T13:58:32Z</time>
      </trkpt>
      <trkpt lat="49.87037" lon="2.4369">
        <ele>53.8</ele>
        <time>2022-01-05T13:58:33Z</time>
      </trkpt>
      <trkpt lat="49.87037" lon="2.43692">
        <ele>53.9</ele>
        <time>2022-01-05T13:58:34Z</time>
      </trkpt>
      <trkpt lat="49.87036" lon="2.43694">
        <ele>53.9</ele>
        <time>2022-01-05T13:58:35Z</time>
      </trkpt>
      <trkpt lat="49.87036" lon="2.43697">
        <ele>53.9</ele>
        <time>2022-01-05T13:58:36Z</time>
      </trkpt>
      <trkpt lat="49.87036" lon="2.43698">
        <ele>53.9</ele>
        <time>2022-01-05T13:58:38Z</time>
      </trkpt>
      <trkpt lat="49.87035" lon="2.437">
        <ele>53.9</ele>
        <time>2022-01-05T13:58:39Z</time>
      </trkpt>
      <trkpt lat="49.87035" lon="2.43702">
        <ele>53.9</ele>
        <time>2022-01-05T13:58:40Z</time>
      </trkpt>
      <trkpt lat="49.87035" lon="2.43704">
        <ele>53.9</ele>
        <time>2022-01-05T13:58:41Z</time>
      </trkpt>
      <trkpt lat="49.87034" lon="2.43706">
        <ele>54</ele>
        <time>2022-01-05T13:58:42Z</time>
      </trkpt>
      <trkpt lat="49.87033" lon="2.43708">
        <ele>54</ele>
        <time>2022-01-05T13:58:43Z</time>
      </trkpt>
      <trkpt lat="49.87033" lon="2.4371">
        <ele>54</ele>
        <time>2022-01-05T13:58:45Z</time>
      </trkpt>
      <trkpt lat="49.87032" lon="2.43712">
        <ele>54</ele>
        <time>2022-01-05T13:58:46Z</time>
      </trkpt>
      <trkpt lat="49.87032" lon="2.43715">
        <ele>54.1</ele>
        <time>2022-01-05T13:58:47Z</time>
      </trkpt>
      <trkpt lat="49.87032" lon="2.43717">
        <ele>54.1</ele>
        <time>2022-01-05T13:58:48Z</time>
      </trkpt>
      <trkpt lat="49.87031" lon="2.43719">
        <ele>54.2</ele>
        <time>2022-01-05T13:58:50Z</time>
      </trkpt>
      <trkpt lat="49.87031" lon="2.43721">
        <ele>54.2</ele>
        <time>2022-01-05T13:58:51Z</time>
      </trkpt>
      <trkpt lat="49.87031" lon="2.43726">
        <ele>54.3</ele>
        <time>2022-01-05T13:58:52Z</time>
      </trkpt>
      <trkpt lat="49.87031" lon="2.43727">
        <ele>54.3</ele>
        <time>2022-01-05T13:58:53Z</time>
      </trkpt>
      <trkpt lat="49.87031" lon="2.4373">
        <ele>54.4</ele>
        <time>2022-01-05T13:58:54Z</time>
      </trkpt>
      <trkpt lat="49.8703" lon="2.43732">
        <ele>54.4</ele>
        <time>2022-01-05T13:58:56Z</time>
      </trkpt>
      <trkpt lat="49.8703" lon="2.43734">
        <ele>54.5</ele>
        <time>2022-01-05T13:58:57Z</time>
      </trkpt>
      <trkpt lat="49.8703" lon="2.43735">
        <ele>54.5</ele>
        <time>2022-01-05T13:58:58Z</time>
      </trkpt>
      <trkpt lat="49.8703" lon="2.43737">
        <ele>54.5</ele>
        <time>2022-01-05T13:58:59Z</time>
      </trkpt>
      <trkpt lat="49.8703" lon="2.43739">
        <ele>54.6</ele>
        <time>2022-01-05T13:59:00Z</time>
      </trkpt>
      <trkpt lat="49.87029" lon="2.43741">
        <ele>54.6</ele>
        <time>2022-01-05T13:59:01Z</time>
      </trkpt>
      <trkpt lat="49.87029" lon="2.43744">
        <ele>54.7</ele>
        <time>2022-01-05T13:59:02Z</time>
      </trkpt>
      <trkpt lat="49.87029" lon="2.43746">
        <ele>54.8</ele>
        <time>2022-01-05T13:59:03Z</time>
      </trkpt>
      <trkpt lat="49.87029" lon="2.43747">
        <ele>54.8</ele>
        <time>2022-01-05T13:59:04Z</time>
      </trkpt>
      <trkpt lat="49.87028" lon="2.43749">
        <ele>54.9</ele>
        <time>2022-01-05T13:59:06Z</time>
      </trkpt>
      <trkpt lat="49.87028" lon="2.43751">
        <ele>54.9</ele>
        <time>2022-01-05T13:59:07Z</time>
      </trkpt>
      <trkpt lat="49.87028" lon="2.43753">
        <ele>55</ele>
        <time>2022-01-05T13:59:08Z</time>
      </trkpt>
      <trkpt lat="49.87028" lon="2.43756">
        <ele>55</ele>
        <time>2022-01-05T13:59:09Z</time>
      </trkpt>
      <trkpt lat="49.87028" lon="2.43758">
        <ele>55.1</ele>
        <time>2022-01-05T13:59:10Z</time>
      </trkpt>
      <trkpt lat="49.87027" lon="2.4376">
        <ele>55.1</ele>
        <time>2022-01-05T13:59:12Z</time>
      </trkpt>
      <trkpt lat="49.87027" lon="2.43763">
        <ele>55.2</ele>
        <time>2022-01-05T13:59:13Z</time>
      </trkpt>
      <trkpt lat="49.87027" lon="2.43765">
        <ele>55.2</ele>
        <time>2022-01-05T13:59:14Z</time>
      </trkpt>
      <trkpt lat="49.87027" lon="2.43766">
        <ele>55.3</ele>
        <time>2022-01-05T13:59:15Z</time>
      </trkpt>
      <trkpt lat="49.87027" lon="2.43769">
        <ele>55.3</ele>
        <time>2022-01-05T13:59:16Z</time>
      </trkpt>
      <trkpt lat="49.87026" lon="2.43772">
        <ele>55.4</ele>
        <time>2022-01-05T13:59:18Z</time>
      </trkpt>
      <trkpt lat="49.87026" lon="2.43774">
        <ele>55.4</ele>
        <time>2022-01-05T13:59:19Z</time>
      </trkpt>
      <trkpt lat="49.87026" lon="2.43777">
        <ele>55.5</ele>
        <time>2022-01-05T13:59:20Z</time>
      </trkpt>
      <trkpt lat="49.87025" lon="2.43778">
        <ele>55.5</ele>
        <time>2022-01-05T13:59:21Z</time>
      </trkpt>
      <trkpt lat="49.87025" lon="2.43779">
        <ele>55.5</ele>
        <time>2022-01-05T13:59:22Z</time>
      </trkpt>
      <trkpt lat="49.87025" lon="2.43781">
        <ele>55.6</ele>
        <time>2022-01-05T13:59:24Z</time>
      </trkpt>
      <trkpt lat="49.87025" lon="2.43784">
        <ele>55.6</ele>
        <time>2022-01-05T13:59:25Z</time>
      </trkpt>
      <trkpt lat="49.87024" lon="2.43787">
        <ele>55.7</ele>
        <time>2022-01-05T13:59:26Z</time>
      </trkpt>
      <trkpt lat="49.87024" lon="2.43789">
        <ele>55.7</ele>
        <time>2022-01-05T13:59:27Z</time>
      </trkpt>
      <trkpt lat="49.87024" lon="2.4379">
        <ele>55.7</ele>
        <time>2022-01-05T13:59:28Z</time>
      </trkpt>
      <trkpt lat="49.87024" lon="2.43792">
        <ele>55.8</ele>
        <time>2022-01-05T13:59:30Z</time>
      </trkpt>
      <trkpt lat="49.87023" lon="2.43794">
        <ele>55.8</ele>
        <time>2022-01-05T13:59:31Z</time>
      </trkpt>
      <trkpt lat="49.87023" lon="2.43797">
        <ele>55.9</ele>
        <time>2022-01-05T13:59:33Z</time>
      </trkpt>
      <trkpt lat="49.87022" lon="2.438">
        <ele>55.9</ele>
        <time>2022-01-05T13:59:34Z</time>
      </trkpt>
      <trkpt lat="49.87022" lon="2.43801">
        <ele>56</ele>
        <time>2022-01-05T13:59:35Z</time>
      </trkpt>
      <trkpt lat="49.87022" lon="2.43803">
        <ele>56</ele>
        <time>2022-01-05T13:59:36Z</time>
      </trkpt>
      <trkpt lat="49.87021" lon="2.43805">
        <ele>56</ele>
        <time>2022-01-05T13:59:37Z</time>
      </trkpt>
      <trkpt lat="49.8702" lon="2.43806">
        <ele>56.1</ele>
        <time>2022-01-05T13:59:38Z</time>
      </trkpt>
      <trkpt lat="49.8702" lon="2.43809">
        <ele>56.1</ele>
        <time>2022-01-05T13:59:40Z</time>
      </trkpt>
      <trkpt lat="49.87019" lon="2.4381">
        <ele>56.2</ele>
        <time>2022-01-05T13:59:41Z</time>
      </trkpt>
      <trkpt lat="49.87017" lon="2.43812">
        <ele>56.2</ele>
        <time>2022-01-05T13:59:42Z</time>
      </trkpt>
      <trkpt lat="49.87017" lon="2.43814">
        <ele>56.2</ele>
        <time>2022-01-05T13:59:43Z</time>
      </trkpt>
      <trkpt lat="49.87016" lon="2.43815">
        <ele>56.3</ele>
        <time>2022-01-05T13:59:44Z</time>
      </trkpt>
      <trkpt lat="49.87015" lon="2.43816">
        <ele>56.3</ele>
        <time>2022-01-05T13:59:45Z</time>
      </trkpt>
      <trkpt lat="49.87015" lon="2.43818">
        <ele>56.3</ele>
        <time>2022-01-05T13:59:46Z</time>
      </trkpt>
      <trkpt lat="49.87014" lon="2.43821">
        <ele>56.4</ele>
        <time>2022-01-05T13:59:47Z</time>
      </trkpt>
      <trkpt lat="49.87014" lon="2.43823">
        <ele>56.4</ele>
        <time>2022-01-05T13:59:48Z</time>
      </trkpt>
      <trkpt lat="49.87013" lon="2.43824">
        <ele>56.4</ele>
        <time>2022-01-05T13:59:49Z</time>
      </trkpt>
      <trkpt lat="49.87013" lon="2.43826">
        <ele>56.5</ele>
        <time>2022-01-05T13:59:50Z</time>
      </trkpt>
      <trkpt lat="49.87012" lon="2.43828">
        <ele>56.5</ele>
        <time>2022-01-05T13:59:51Z</time>
      </trkpt>
      <trkpt lat="49.87011" lon="2.43831">
        <ele>56.5</ele>
        <time>2022-01-05T13:59:53Z</time>
      </trkpt>
      <trkpt lat="49.87011" lon="2.43833">
        <ele>56.5</ele>
        <time>2022-01-05T13:59:54Z</time>
      </trkpt>
      <trkpt lat="49.8701" lon="2.43836">
        <ele>56.6</ele>
        <time>2022-01-05T13:59:55Z</time>
      </trkpt>
      <trkpt lat="49.8701" lon="2.43838">
        <ele>56.6</ele>
        <time>2022-01-05T13:59:56Z</time>
      </trkpt>
      <trkpt lat="49.8701" lon="2.4384">
        <ele>56.6</ele>
        <time>2022-01-05T13:59:58Z</time>
      </trkpt>
      <trkpt lat="49.87009" lon="2.43844">
        <ele>56.6</ele>
        <time>2022-01-05T14:00:00Z</time>
      </trkpt>
      <trkpt lat="49.87009" lon="2.43845">
        <ele>56.6</ele>
        <time>2022-01-05T14:00:01Z</time>
      </trkpt>
      <trkpt lat="49.87009" lon="2.43847">
        <ele>56.6</ele>
        <time>2022-01-05T14:00:02Z</time>
      </trkpt>
      <trkpt lat="49.87009" lon="2.43849">
        <ele>56.6</ele>
        <time>2022-01-05T14:00:03Z</time>
      </trkpt>
      <trkpt lat="49.8701" lon="2.43852">
        <ele>56.6</ele>
        <time>2022-01-05T14:00:04Z</time>
      </trkpt>
      <trkpt lat="49.8701" lon="2.43853">
        <ele>56.6</ele>
        <time>2022-01-05T14:00:05Z</time>
      </trkpt>
      <trkpt lat="49.8701" lon="2.43855">
        <ele>56.6</ele>
        <time>2022-01-05T14:00:06Z</time>
      </trkpt>
      <trkpt lat="49.87009" lon="2.43857">
        <ele>56.6</ele>
        <time>2022-01-05T14:00:08Z</time>
      </trkpt>
      <trkpt lat="49.87009" lon="2.4386">
        <ele>56.6</ele>
        <time>2022-01-05T14:00:09Z</time>
      </trkpt>
      <trkpt lat="49.87009" lon="2.43862">
        <ele>56.6</ele>
        <time>2022-01-05T14:00:10Z</time>
      </trkpt>
      <trkpt lat="49.87008" lon="2.43864">
        <ele>56.6</ele>
        <time>2022-01-05T14:00:12Z</time>
      </trkpt>
      <trkpt lat="49.87007" lon="2.43863">
        <ele>56.6</ele>
        <time>2022-01-05T14:00:13Z</time>
      </trkpt>
      <trkpt lat="49.87005" lon="2.43861">
        <ele>56.6</ele>
        <time>2022-01-05T14:00:15Z</time>
      </trkpt>
      <trkpt lat="49.87004" lon="2.4386">
        <ele>56.6</ele>
        <time>2022-01-05T14:00:16Z</time>
      </trkpt>
      <trkpt lat="49.87004" lon="2.4386">
        <ele>56.6</ele>
        <time>2022-01-05T14:00:17Z</time>
      </trkpt>
      <trkpt lat="49.87004" lon="2.43861">
        <ele>56.6</ele>
        <time>2022-01-05T14:00:18Z</time>
      </trkpt>
      <trkpt lat="49.87004" lon="2.43862">
        <ele>56.6</ele>
        <time>2022-01-05T14:00:19Z</time>
      </trkpt>
      <trkpt lat="49.87004" lon="2.43863">
        <ele>56.6</ele>
        <time>2022-01-05T14:00:20Z</time>
      </trkpt>
      <trkpt lat="49.87004" lon="2.43865">
        <ele>56.6</ele>
        <time>2022-01-05T14:00:22Z</time>
      </trkpt>
      <trkpt lat="49.87003" lon="2.43867">
        <ele>56.6</ele>
        <time>2022-01-05T14:00:23Z</time>
      </trkpt>
      <trkpt lat="49.87003" lon="2.43869">
        <ele>56.5</ele>
        <time>2022-01-05T14:00:24Z</time>
      </trkpt>
      <trkpt lat="49.87003" lon="2.43871">
        <ele>56.5</ele>
        <time>2022-01-05T14:00:25Z</time>
      </trkpt>
      <trkpt lat="49.87003" lon="2.43873">
        <ele>56.5</ele>
        <time>2022-01-05T14:00:26Z</time>
      </trkpt>
      <trkpt lat="49.87003" lon="2.43875">
        <ele>56.5</ele>
        <time>2022-01-05T14:00:28Z</time>
      </trkpt>
      <trkpt lat="49.87003" lon="2.43878">
        <ele>56.5</ele>
        <time>2022-01-05T14:00:29Z</time>
      </trkpt>
      <trkpt lat="49.87003" lon="2.43879">
        <ele>56.5</ele>
        <time>2022-01-05T14:00:30Z</time>
      </trkpt>
      <trkpt lat="49.87003" lon="2.43881">
        <ele>56.5</ele>
        <time>2022-01-05T14:00:32Z</time>
      </trkpt>
      <trkpt lat="49.87003" lon="2.43883">
        <ele>56.5</ele>
        <time>2022-01-05T14:00:33Z</time>
      </trkpt>
      <trkpt lat="49.87002" lon="2.43885">
        <ele>56.5</ele>
        <time>2022-01-05T14:00:34Z</time>
      </trkpt>
      <trkpt lat="49.87002" lon="2.43886">
        <ele>56.5</ele>
        <time>2022-01-05T14:00:35Z</time>
      </trkpt>
      <trkpt lat="49.87002" lon="2.43888">
        <ele>56.5</ele>
        <time>2022-01-05T14:00:36Z</time>
      </trkpt>
      <trkpt lat="49.87001" lon="2.4389">
        <ele>56.5</ele>
        <time>2022-01-05T14:00:38Z</time>
      </trkpt>
      <trkpt lat="49.87001" lon="2.43891">
        <ele>56.5</ele>
        <time>2022-01-05T14:00:39Z</time>
      </trkpt>
      <trkpt lat="49.87001" lon="2.43893">
        <ele>56.5</ele>
        <time>2022-01-05T14:00:40Z</time>
      </trkpt>
      <trkpt lat="49.87" lon="2.43894">
        <ele>56.5</ele>
        <time>2022-01-05T14:00:41Z</time>
      </trkpt>
      <trkpt lat="49.87" lon="2.43896">
        <ele>56.4</ele>
        <time>2022-01-05T14:00:43Z</time>
      </trkpt>
      <trkpt lat="49.86999" lon="2.43899">
        <ele>56.4</ele>
        <time>2022-01-05T14:00:44Z</time>
      </trkpt>
      <trkpt lat="49.86999" lon="2.439">
        <ele>56.4</ele>
        <time>2022-01-05T14:00:45Z</time>
      </trkpt>
      <trkpt lat="49.86998" lon="2.43901">
        <ele>56.4</ele>
        <time>2022-01-05T14:00:47Z</time>
      </trkpt>
      <trkpt lat="49.86998" lon="2.43903">
        <ele>56.4</ele>
        <time>2022-01-05T14:00:48Z</time>
      </trkpt>
      <trkpt lat="49.86998" lon="2.43906">
        <ele>56.4</ele>
        <time>2022-01-05T14:00:49Z</time>
      </trkpt>
      <trkpt lat="49.86998" lon="2.43907">
        <ele>56.4</ele>
        <time>2022-01-05T14:00:51Z</time>
      </trkpt>
      <trkpt lat="49.86998" lon="2.43909">
        <ele>56.4</ele>
        <time>2022-01-05T14:00:52Z</time>
      </trkpt>
      <trkpt lat="49.86998" lon="2.43911">
        <ele>56.3</ele>
        <time>2022-01-05T14:00:54Z</time>
      </trkpt>
      <trkpt lat="49.86998" lon="2.43912">
        <ele>56.3</ele>
        <time>2022-01-05T14:00:55Z</time>
      </trkpt>
      <trkpt lat="49.86998" lon="2.43913">
        <ele>56.3</ele>
        <time>2022-01-05T14:00:56Z</time>
      </trkpt>
      <trkpt lat="49.86997" lon="2.43915">
        <ele>56.3</ele>
        <time>2022-01-05T14:00:57Z</time>
      </trkpt>
      <trkpt lat="49.86997" lon="2.43917">
        <ele>56.3</ele>
        <time>2022-01-05T14:00:59Z</time>
      </trkpt>
      <trkpt lat="49.86997" lon="2.43918">
        <ele>56.3</ele>
        <time>2022-01-05T14:01:00Z</time>
      </trkpt>
      <trkpt lat="49.86997" lon="2.43919">
        <ele>56.3</ele>
        <time>2022-01-05T14:01:01Z</time>
      </trkpt>
      <trkpt lat="49.86997" lon="2.43921">
        <ele>56.3</ele>
        <time>2022-01-05T14:01:02Z</time>
      </trkpt>
      <trkpt lat="49.86997" lon="2.43922">
        <ele>56.3</ele>
        <time>2022-01-05T14:01:03Z</time>
      </trkpt>
      <trkpt lat="49.86997" lon="2.43923">
        <ele>56.2</ele>
        <time>2022-01-05T14:01:05Z</time>
      </trkpt>
      <trkpt lat="49.86997" lon="2.43924">
        <ele>56.2</ele>
        <time>2022-01-05T14:01:06Z</time>
      </trkpt>
      <trkpt lat="49.86996" lon="2.43926">
        <ele>56.2</ele>
        <time>2022-01-05T14:01:07Z</time>
      </trkpt>
      <trkpt lat="49.86996" lon="2.43927">
        <ele>56.2</ele>
        <time>2022-01-05T14:01:08Z</time>
      </trkpt>
      <trkpt lat="49.86995" lon="2.43929">
        <ele>56.2</ele>
        <time>2022-01-05T14:01:10Z</time>
      </trkpt>
      <trkpt lat="49.86995" lon="2.43929">
        <ele>56.2</ele>
        <time>2022-01-05T14:01:11Z</time>
      </trkpt>
      <trkpt lat="49.86994" lon="2.4393">
        <ele>56.2</ele>
        <time>2022-01-05T14:01:12Z</time>
      </trkpt>
      <trkpt lat="49.86993" lon="2.43931">
        <ele>56.2</ele>
        <time>2022-01-05T14:01:13Z</time>
      </trkpt>
      <trkpt lat="49.86993" lon="2.43932">
        <ele>56.1</ele>
        <time>2022-01-05T14:01:14Z</time>
      </trkpt>
      <trkpt lat="49.86993" lon="2.43932">
        <ele>56.1</ele>
        <time>2022-01-05T14:01:16Z</time>
      </trkpt>
      <trkpt lat="49.86993" lon="2.43933">
        <ele>56.1</ele>
        <time>2022-01-05T14:01:18Z</time>
      </trkpt>
      <trkpt lat="49.86993" lon="2.43933">
        <ele>56.1</ele>
        <time>2022-01-05T14:01:19Z</time>
      </trkpt>
      <trkpt lat="49.86993" lon="2.43933">
        <ele>56.1</ele>
        <time>2022-01-05T14:01:21Z</time>
      </trkpt>
      <trkpt lat="49.86993" lon="2.43933">
        <ele>56.1</ele>
        <time>2022-01-05T14:01:22Z</time>
      </trkpt>
      <trkpt lat="49.86993" lon="2.43933">
        <ele>56.1</ele>
        <time>2022-01-05T14:01:24Z</time>
      </trkpt>
      <trkpt lat="49.86993" lon="2.43933">
        <ele>56.1</ele>
        <time>2022-01-05T14:01:25Z</time>
      </trkpt>
      <trkpt lat="49.86993" lon="2.43933">
        <ele>56.1</ele>
        <time>2022-01-05T14:01:27Z</time>
      </trkpt>
      <trkpt lat="49.86993" lon="2.43933">
        <ele>56.1</ele>
        <time>2022-01-05T14:01:29Z</time>
      </trkpt>
      <trkpt lat="49.86993" lon="2.43934">
        <ele>56.1</ele>
        <time>2022-01-05T14:01:31Z</time>
      </trkpt>
      <trkpt lat="49.86992" lon="2.43934">
        <ele>56.1</ele>
        <time>2022-01-05T14:01:33Z</time>
      </trkpt>
      <trkpt lat="49.86992" lon="2.43934">
        <ele>56.1</ele>
        <time>2022-01-05T14:01:34Z</time>
      </trkpt>
      <trkpt lat="49.86992" lon="2.43934">
        <ele>56.1</ele>
        <time>2022-01-05T14:01:35Z</time>
      </trkpt>
      <trkpt lat="49.86992" lon="2.43934">
        <ele>56.1</ele>
        <time>2022-01-05T14:01:37Z</time>
      </trkpt>
      <trkpt lat="49.86992" lon="2.43934">
        <ele>56.1</ele>
        <time>2022-01-05T14:01:38Z</time>
      </trkpt>
      <trkpt lat="49.86992" lon="2.43934">
        <ele>56.1</ele>
        <time>2022-01-05T14:01:40Z</time>
      </trkpt>
      <trkpt lat="49.86992" lon="2.43934">
        <ele>56.1</ele>
        <time>2022-01-05T14:01:41Z</time>
      </trkpt>
      <trkpt lat="49.86992" lon="2.43934">
        <ele>56.1</ele>
        <time>2022-01-05T14:01:42Z</time>
      </trkpt>
      <trkpt lat="49.86992" lon="2.43935">
        <ele>56.1</ele>
        <time>2022-01-05T14:01:43Z</time>
      </trkpt>
      <trkpt lat="49.86992" lon="2.43935">
        <ele>56.1</ele>
        <time>2022-01-05T14:01:45Z</time>
      </trkpt>
      <trkpt lat="49.86992" lon="2.43935">
        <ele>56.1</ele>
        <time>2022-01-05T14:01:46Z</time>
      </trkpt>
      <trkpt lat="49.86992" lon="2.43935">
        <ele>56.1</ele>
        <time>2022-01-05T14:01:47Z</time>
      </trkpt>
      <trkpt lat="49.86992" lon="2.43935">
        <ele>56.1</ele>
        <time>2022-01-05T14:01:48Z</time>
      </trkpt>
      <trkpt lat="49.86992" lon="2.43935">
        <ele>56.1</ele>
        <time>2022-01-05T14:01:50Z</time>
      </trkpt>
      <trkpt lat="49.86992" lon="2.43935">
        <ele>56.1</ele>
        <time>2022-01-05T14:01:52Z</time>
      </trkpt>
      <trkpt lat="49.86992" lon="2.43935">
        <ele>56.1</ele>
        <time>2022-01-05T14:01:53Z</time>
      </trkpt>
      <trkpt lat="49.86992" lon="2.43936">
        <ele>56.1</ele>
        <time>2022-01-05T14:01:54Z</time>
      </trkpt>
      <trkpt lat="49.86992" lon="2.43936">
        <ele>56.1</ele>
        <time>2022-01-05T14:01:55Z</time>
      </trkpt>
      <trkpt lat="49.86992" lon="2.43936">
        <ele>56.1</ele>
        <time>2022-01-05T14:01:57Z</time>
      </trkpt>
      <trkpt lat="49.86992" lon="2.43936">
        <ele>56.1</ele>
        <time>2022-01-05T14:01:58Z</time>
      </trkpt>
      <trkpt lat="49.86992" lon="2.43936">
        <ele>56.1</ele>
        <time>2022-01-05T14:02:00Z</time>
      </trkpt>
      <trkpt lat="49.86992" lon="2.43936">
        <ele>56.1</ele>
        <time>2022-01-05T14:02:01Z</time>
      </trkpt>
      <trkpt lat="49.86992" lon="2.43936">
        <ele>56.1</ele>
        <time>2022-01-05T14:02:03Z</time>
      </trkpt>
      <trkpt lat="49.86992" lon="2.43936">
        <ele>56.1</ele>
        <time>2022-01-05T14:02:05Z</time>
      </trkpt>
      <trkpt lat="49.86992" lon="2.43937">
        <ele>56.1</ele>
        <time>2022-01-05T14:02:06Z</time>
      </trkpt>
      <trkpt lat="49.86992" lon="2.43937">
        <ele>56.1</ele>
        <time>2022-01-05T14:02:07Z</time>
      </trkpt>
      <trkpt lat="49.86992" lon="2.43937">
        <ele>56.1</ele>
        <time>2022-01-05T14:02:08Z</time>
      </trkpt>
      <trkpt lat="49.86992" lon="2.43937">
        <ele>56.1</ele>
        <time>2022-01-05T14:02:10Z</time>
      </trkpt>
      <trkpt lat="49.86992" lon="2.43937">
        <ele>56.1</ele>
        <time>2022-01-05T14:02:11Z</time>
      </trkpt>
      <trkpt lat="49.86992" lon="2.43937">
        <ele>56.1</ele>
        <time>2022-01-05T14:02:12Z</time>
      </trkpt>
      <trkpt lat="49.86992" lon="2.43937">
        <ele>56.1</ele>
        <time>2022-01-05T14:02:13Z</time>
      </trkpt>
      <trkpt lat="49.86992" lon="2.43937">
        <ele>56.1</ele>
        <time>2022-01-05T14:02:15Z</time>
      </trkpt>
      <trkpt lat="49.86992" lon="2.43938">
        <ele>56.1</ele>
        <time>2022-01-05T14:02:17Z</time>
      </trkpt>
      <trkpt lat="49.86991" lon="2.43938">
        <ele>56.1</ele>
        <time>2022-01-05T14:02:18Z</time>
      </trkpt>
      <trkpt lat="49.86991" lon="2.43938">
        <ele>56.1</ele>
        <time>2022-01-05T14:02:20Z</time>
      </trkpt>
      <trkpt lat="49.86991" lon="2.43938">
        <ele>56.1</ele>
        <time>2022-01-05T14:02:22Z</time>
      </trkpt>
      <trkpt lat="49.86991" lon="2.43938">
        <ele>56.1</ele>
        <time>2022-01-05T14:02:24Z</time>
      </trkpt>
      <trkpt lat="49.86991" lon="2.43938">
        <ele>56.1</ele>
        <time>2022-01-05T14:02:25Z</time>
      </trkpt>
      <trkpt lat="49.86991" lon="2.43938">
        <ele>56.1</ele>
        <time>2022-01-05T14:02:26Z</time>
      </trkpt>
      <trkpt lat="49.86991" lon="2.43938">
        <ele>56.1</ele>
        <time>2022-01-05T14:02:27Z</time>
      </trkpt>
      <trkpt lat="49.86991" lon="2.43938">
        <ele>56.1</ele>
        <time>2022-01-05T14:02:29Z</time>
      </trkpt>
      <trkpt lat="49.86991" lon="2.43939">
        <ele>56.1</ele>
        <time>2022-01-05T14:02:30Z</time>
      </trkpt>
      <trkpt lat="49.86991" lon="2.43939">
        <ele>56.1</ele>
        <time>2022-01-05T14:02:31Z</time>
      </trkpt>
      <trkpt lat="49.86991" lon="2.43939">
        <ele>56.1</ele>
        <time>2022-01-05T14:02:33Z</time>
      </trkpt>
      <trkpt lat="49.86991" lon="2.43939">
        <ele>56.1</ele>
        <time>2022-01-05T14:02:34Z</time>
      </trkpt>
      <trkpt lat="49.86991" lon="2.43939">
        <ele>56.1</ele>
        <time>2022-01-05T14:02:35Z</time>
      </trkpt>
      <trkpt lat="49.86991" lon="2.43939">
        <ele>56.1</ele>
        <time>2022-01-05T14:02:36Z</time>
      </trkpt>
      <trkpt lat="49.86991" lon="2.43939">
        <ele>56.1</ele>
        <time>2022-01-05T14:02:38Z</time>
      </trkpt>
      <trkpt lat="49.86991" lon="2.43939">
        <ele>56.1</ele>
        <time>2022-01-05T14:02:39Z</time>
      </trkpt>
      <trkpt lat="49.86991" lon="2.4394">
        <ele>56.1</ele>
        <time>2022-01-05T14:02:41Z</time>
      </trkpt>
      <trkpt lat="49.86991" lon="2.4394">
        <ele>56.1</ele>
        <time>2022-01-05T14:02:42Z</time>
      </trkpt>
      <trkpt lat="49.86991" lon="2.4394">
        <ele>56.1</ele>
        <time>2022-01-05T14:02:44Z</time>
      </trkpt>
      <trkpt lat="49.86991" lon="2.4394">
        <ele>56.1</ele>
        <time>2022-01-05T14:02:45Z</time>
      </trkpt>
      <trkpt lat="49.86991" lon="2.4394">
        <ele>56.1</ele>
        <time>2022-01-05T14:02:46Z</time>
      </trkpt>
      <trkpt lat="49.86991" lon="2.4394">
        <ele>56.1</ele>
        <time>2022-01-05T14:02:48Z</time>
      </trkpt>
      <trkpt lat="49.86991" lon="2.4394">
        <ele>56.1</ele>
        <time>2022-01-05T14:02:50Z</time>
      </trkpt>
      <trkpt lat="49.86991" lon="2.4394">
        <ele>56.1</ele>
        <time>2022-01-05T14:02:51Z</time>
      </trkpt>
      <trkpt lat="49.86991" lon="2.43941">
        <ele>56.1</ele>
        <time>2022-01-05T14:02:53Z</time>
      </trkpt>
      <trkpt lat="49.86991" lon="2.43941">
        <ele>56.1</ele>
        <time>2022-01-05T14:02:55Z</time>
      </trkpt>
      <trkpt lat="49.86991" lon="2.43941">
        <ele>56.1</ele>
        <time>2022-01-05T14:02:57Z</time>
      </trkpt>
      <trkpt lat="49.86991" lon="2.43941">
        <ele>56.1</ele>
        <time>2022-01-05T14:02:59Z</time>
      </trkpt>
      <trkpt lat="49.86991" lon="2.43941">
        <ele>56.1</ele>
        <time>2022-01-05T14:03:00Z</time>
      </trkpt>
      <trkpt lat="49.86991" lon="2.43941">
        <ele>56.1</ele>
        <time>2022-01-05T14:03:01Z</time>
      </trkpt>
      <trkpt lat="49.86991" lon="2.43941">
        <ele>56.1</ele>
        <time>2022-01-05T14:03:03Z</time>
      </trkpt>
      <trkpt lat="49.86991" lon="2.43941">
        <ele>56.1</ele>
        <time>2022-01-05T14:03:04Z</time>
      </trkpt>
      <trkpt lat="49.86991" lon="2.43941">
        <ele>56.1</ele>
        <time>2022-01-05T14:03:06Z</time>
      </trkpt>
      <trkpt lat="49.8699" lon="2.43942">
        <ele>56.1</ele>
        <time>2022-01-05T14:03:08Z</time>
      </trkpt>
      <trkpt lat="49.8699" lon="2.43942">
        <ele>56.1</ele>
        <time>2022-01-05T14:03:10Z</time>
      </trkpt>
      <trkpt lat="49.8699" lon="2.43942">
        <ele>56.1</ele>
        <time>2022-01-05T14:03:11Z</time>
      </trkpt>
      <trkpt lat="49.8699" lon="2.43942">
        <ele>56.1</ele>
        <time>2022-01-05T14:03:12Z</time>
      </trkpt>
      <trkpt lat="49.8699" lon="2.43942">
        <ele>56.1</ele>
        <time>2022-01-05T14:03:14Z</time>
      </trkpt>
      <trkpt lat="49.8699" lon="2.43942">
        <ele>56</ele>
        <time>2022-01-05T14:03:15Z</time>
      </trkpt>
      <trkpt lat="49.8699" lon="2.43942">
        <ele>56</ele>
        <time>2022-01-05T14:03:17Z</time>
      </trkpt>
      <trkpt lat="49.8699" lon="2.43942">
        <ele>56</ele>
        <time>2022-01-05T14:03:18Z</time>
      </trkpt>
      <trkpt lat="49.8699" lon="2.43943">
        <ele>56</ele>
        <time>2022-01-05T14:03:19Z</time>
      </trkpt>
      <trkpt lat="49.8699" lon="2.43943">
        <ele>56</ele>
        <time>2022-01-05T14:03:21Z</time>
      </trkpt>
      <trkpt lat="49.8699" lon="2.43943">
        <ele>56</ele>
        <time>2022-01-05T14:03:22Z</time>
      </trkpt>
      <trkpt lat="49.8699" lon="2.43943">
        <ele>56</ele>
        <time>2022-01-05T14:03:23Z</time>
      </trkpt>
      <trkpt lat="49.8699" lon="2.43943">
        <ele>56</ele>
        <time>2022-01-05T14:03:25Z</time>
      </trkpt>
      <trkpt lat="49.8699" lon="2.43943">
        <ele>56</ele>
        <time>2022-01-05T14:03:26Z</time>
      </trkpt>
      <trkpt lat="49.8699" lon="2.43943">
        <ele>56</ele>
        <time>2022-01-05T14:03:28Z</time>
      </trkpt>
      <trkpt lat="49.8699" lon="2.43943">
        <ele>56</ele>
        <time>2022-01-05T14:03:29Z</time>
      </trkpt>
      <trkpt lat="49.8699" lon="2.43944">
        <ele>56</ele>
        <time>2022-01-05T14:03:31Z</time>
      </trkpt>
      <trkpt lat="49.8699" lon="2.43944">
        <ele>56</ele>
        <time>2022-01-05T14:03:33Z</time>
      </trkpt>
      <trkpt lat="49.8699" lon="2.43944">
        <ele>56</ele>
        <time>2022-01-05T14:03:35Z</time>
      </trkpt>
      <trkpt lat="49.8699" lon="2.43944">
        <ele>56</ele>
        <time>2022-01-05T14:03:36Z</time>
      </trkpt>
      <trkpt lat="49.8699" lon="2.43944">
        <ele>56</ele>
        <time>2022-01-05T14:03:37Z</time>
      </trkpt>
      <trkpt lat="49.8699" lon="2.43944">
        <ele>56</ele>
        <time>2022-01-05T14:03:39Z</time>
      </trkpt>
      <trkpt lat="49.8699" lon="2.43944">
        <ele>56</ele>
        <time>2022-01-05T14:03:41Z</time>
      </trkpt>
      <trkpt lat="49.8699" lon="2.43944">
        <ele>56</ele>
        <time>2022-01-05T14:03:43Z</time>
      </trkpt>
      <trkpt lat="49.8699" lon="2.43945">
        <ele>56</ele>
        <time>2022-01-05T14:03:44Z</time>
      </trkpt>
      <trkpt lat="49.8699" lon="2.43945">
        <ele>56</ele>
        <time>2022-01-05T14:03:46Z</time>
      </trkpt>
      <trkpt lat="49.8699" lon="2.43945">
        <ele>56</ele>
        <time>2022-01-05T14:03:48Z</time>
      </trkpt>
      <trkpt lat="49.8699" lon="2.43945">
        <ele>56</ele>
        <time>2022-01-05T14:03:50Z</time>
      </trkpt>
      <trkpt lat="49.8699" lon="2.43945">
        <ele>56</ele>
        <time>2022-01-05T14:03:52Z</time>
      </trkpt>
      <trkpt lat="49.8699" lon="2.43945">
        <ele>56</ele>
        <time>2022-01-05T14:03:54Z</time>
      </trkpt>
      <trkpt lat="49.8699" lon="2.43945">
        <ele>56</ele>
        <time>2022-01-05T14:03:55Z</time>
      </trkpt>
      <trkpt lat="49.8699" lon="2.43945">
        <ele>56</ele>
        <time>2022-01-05T14:03:56Z</time>
      </trkpt>
      <trkpt lat="49.8699" lon="2.43945">
        <ele>56</ele>
        <time>2022-01-05T14:03:57Z</time>
      </trkpt>
      <trkpt lat="49.86989" lon="2.43946">
        <ele>56</ele>
        <time>2022-01-05T14:03:58Z</time>
      </trkpt>
      <trkpt lat="49.86989" lon="2.43946">
        <ele>56</ele>
        <time>2022-01-05T14:03:59Z</time>
      </trkpt>
      <trkpt lat="49.86989" lon="2.43946">
        <ele>56</ele>
        <time>2022-01-05T14:04:01Z</time>
      </trkpt>
      <trkpt lat="49.86989" lon="2.43946">
        <ele>56</ele>
        <time>2022-01-05T14:04:03Z</time>
      </trkpt>
      <trkpt lat="49.86989" lon="2.43946">
        <ele>56</ele>
        <time>2022-01-05T14:04:04Z</time>
      </trkpt>
      <trkpt lat="49.86989" lon="2.43946">
        <ele>56</ele>
        <time>2022-01-05T14:04:06Z</time>
      </trkpt>
      <trkpt lat="49.86989" lon="2.43946">
        <ele>56</ele>
        <time>2022-01-05T14:04:07Z</time>
      </trkpt>
      <trkpt lat="49.86989" lon="2.43946">
        <ele>56</ele>
        <time>2022-01-05T14:04:09Z</time>
      </trkpt>
      <trkpt lat="49.86989" lon="2.43947">
        <ele>56</ele>
        <time>2022-01-05T14:04:10Z</time>
      </trkpt>
      <trkpt lat="49.86989" lon="2.43947">
        <ele>56</ele>
        <time>2022-01-05T14:04:11Z</time>
      </trkpt>
      <trkpt lat="49.86989" lon="2.43947">
        <ele>56</ele>
        <time>2022-01-05T14:04:13Z</time>
      </trkpt>
      <trkpt lat="49.86989" lon="2.43947">
        <ele>56</ele>
        <time>2022-01-05T14:04:15Z</time>
      </trkpt>
      <trkpt lat="49.86989" lon="2.43947">
        <ele>56</ele>
        <time>2022-01-05T14:04:17Z</time>
      </trkpt>
      <trkpt lat="49.86989" lon="2.43947">
        <ele>56</ele>
        <time>2022-01-05T14:04:19Z</time>
      </trkpt>
      <trkpt lat="49.86989" lon="2.43947">
        <ele>56</ele>
        <time>2022-01-05T14:04:20Z</time>
      </trkpt>
      <trkpt lat="49.86989" lon="2.43947">
        <ele>56</ele>
        <time>2022-01-05T14:04:21Z</time>
      </trkpt>
      <trkpt lat="49.86989" lon="2.43948">
        <ele>56</ele>
        <time>2022-01-05T14:04:23Z</time>
      </trkpt>
      <trkpt lat="49.86989" lon="2.43948">
        <ele>56</ele>
        <time>2022-01-05T14:04:24Z</time>
      </trkpt>
      <trkpt lat="49.86989" lon="2.43948">
        <ele>56</ele>
        <time>2022-01-05T14:04:25Z</time>
      </trkpt>
      <trkpt lat="49.86987" lon="2.43952">
        <ele>56</ele>
        <time>2022-01-05T14:04:26Z</time>
      </trkpt>
      <trkpt lat="49.86987" lon="2.43953">
        <ele>56</ele>
        <time>2022-01-05T14:04:27Z</time>
      </trkpt>
      <trkpt lat="49.86986" lon="2.43955">
        <ele>55.9</ele>
        <time>2022-01-05T14:04:28Z</time>
      </trkpt>
      <trkpt lat="49.86984" lon="2.43959">
        <ele>55.9</ele>
        <time>2022-01-05T14:04:30Z</time>
      </trkpt>
      <trkpt lat="49.86983" lon="2.4396">
        <ele>55.9</ele>
        <time>2022-01-05T14:04:31Z</time>
      </trkpt>
      <trkpt lat="49.86982" lon="2.43962">
        <ele>55.9</ele>
        <time>2022-01-05T14:04:32Z</time>
      </trkpt>
      <trkpt lat="49.8698" lon="2.43964">
        <ele>55.9</ele>
        <time>2022-01-05T14:04:33Z</time>
      </trkpt>
      <trkpt lat="49.8698" lon="2.43965">
        <ele>55.8</ele>
        <time>2022-01-05T14:04:34Z</time>
      </trkpt>
      <trkpt lat="49.86979" lon="2.43968">
        <ele>55.8</ele>
        <time>2022-01-05T14:04:36Z</time>
      </trkpt>
      <trkpt lat="49.86978" lon="2.43969">
        <ele>55.8</ele>
        <time>2022-01-05T14:04:37Z</time>
      </trkpt>
      <trkpt lat="49.86978" lon="2.43971">
        <ele>55.8</ele>
        <time>2022-01-05T14:04:38Z</time>
      </trkpt>
      <trkpt lat="49.86975" lon="2.43976">
        <ele>55.8</ele>
        <time>2022-01-05T14:04:40Z</time>
      </trkpt>
      <trkpt lat="49.86975" lon="2.43978">
        <ele>55.8</ele>
        <time>2022-01-05T14:04:41Z</time>
      </trkpt>
      <trkpt lat="49.86974" lon="2.43979">
        <ele>55.7</ele>
        <time>2022-01-05T14:04:42Z</time>
      </trkpt>
      <trkpt lat="49.86973" lon="2.43982">
        <ele>55.7</ele>
        <time>2022-01-05T14:04:43Z</time>
      </trkpt>
      <trkpt lat="49.86972" lon="2.43984">
        <ele>55.7</ele>
        <time>2022-01-05T14:04:44Z</time>
      </trkpt>
      <trkpt lat="49.86971" lon="2.43986">
        <ele>55.7</ele>
        <time>2022-01-05T14:04:45Z</time>
      </trkpt>
      <trkpt lat="49.8697" lon="2.4399">
        <ele>55.7</ele>
        <time>2022-01-05T14:04:47Z</time>
      </trkpt>
      <trkpt lat="49.86969" lon="2.43993">
        <ele>55.7</ele>
        <time>2022-01-05T14:04:48Z</time>
      </trkpt>
      <trkpt lat="49.86968" lon="2.43994">
        <ele>55.7</ele>
        <time>2022-01-05T14:04:49Z</time>
      </trkpt>
      <trkpt lat="49.86968" lon="2.43995">
        <ele>55.7</ele>
        <time>2022-01-05T14:04:50Z</time>
      </trkpt>
      <trkpt lat="49.86967" lon="2.43997">
        <ele>55.7</ele>
        <time>2022-01-05T14:04:51Z</time>
      </trkpt>
      <trkpt lat="49.86966" lon="2.43999">
        <ele>55.7</ele>
        <time>2022-01-05T14:04:53Z</time>
      </trkpt>
      <trkpt lat="49.86965" lon="2.44002">
        <ele>55.7</ele>
        <time>2022-01-05T14:04:54Z</time>
      </trkpt>
      <trkpt lat="49.86964" lon="2.44005">
        <ele>55.7</ele>
        <time>2022-01-05T14:04:56Z</time>
      </trkpt>
      <trkpt lat="49.86963" lon="2.44007">
        <ele>55.7</ele>
        <time>2022-01-05T14:04:57Z</time>
      </trkpt>
      <trkpt lat="49.86962" lon="2.44008">
        <ele>55.7</ele>
        <time>2022-01-05T14:04:58Z</time>
      </trkpt>
      <trkpt lat="49.86961" lon="2.44011">
        <ele>55.7</ele>
        <time>2022-01-05T14:04:59Z</time>
      </trkpt>
      <trkpt lat="49.8696" lon="2.44013">
        <ele>55.7</ele>
        <time>2022-01-05T14:05:01Z</time>
      </trkpt>
      <trkpt lat="49.8696" lon="2.44015">
        <ele>55.7</ele>
        <time>2022-01-05T14:05:02Z</time>
      </trkpt>
      <trkpt lat="49.86959" lon="2.44019">
        <ele>55.6</ele>
        <time>2022-01-05T14:05:04Z</time>
      </trkpt>
      <trkpt lat="49.86958" lon="2.44022">
        <ele>55.6</ele>
        <time>2022-01-05T14:05:05Z</time>
      </trkpt>
      <trkpt lat="49.86958" lon="2.44023">
        <ele>55.6</ele>
        <time>2022-01-05T14:05:06Z</time>
      </trkpt>
      <trkpt lat="49.86958" lon="2.44024">
        <ele>55.6</ele>
        <time>2022-01-05T14:05:07Z</time>
      </trkpt>
      <trkpt lat="49.86957" lon="2.44026">
        <ele>55.6</ele>
        <time>2022-01-05T14:05:08Z</time>
      </trkpt>
      <trkpt lat="49.86956" lon="2.44028">
        <ele>55.6</ele>
        <time>2022-01-05T14:05:09Z</time>
      </trkpt>
      <trkpt lat="49.86955" lon="2.44032">
        <ele>55.6</ele>
        <time>2022-01-05T14:05:10Z</time>
      </trkpt>
      <trkpt lat="49.86954" lon="2.44034">
        <ele>55.6</ele>
        <time>2022-01-05T14:05:12Z</time>
      </trkpt>
      <trkpt lat="49.86954" lon="2.44036">
        <ele>55.5</ele>
        <time>2022-01-05T14:05:13Z</time>
      </trkpt>
      <trkpt lat="49.86953" lon="2.44038">
        <ele>55.5</ele>
        <time>2022-01-05T14:05:14Z</time>
      </trkpt>
      <trkpt lat="49.86953" lon="2.4404">
        <ele>55.5</ele>
        <time>2022-01-05T14:05:17Z</time>
      </trkpt>
      <trkpt lat="49.86952" lon="2.44042">
        <ele>55.5</ele>
        <time>2022-01-05T14:05:18Z</time>
      </trkpt>
      <trkpt lat="49.86952" lon="2.44044">
        <ele>55.5</ele>
        <time>2022-01-05T14:05:20Z</time>
      </trkpt>
      <trkpt lat="49.86951" lon="2.44046">
        <ele>55.5</ele>
        <time>2022-01-05T14:05:21Z</time>
      </trkpt>
      <trkpt lat="49.8695" lon="2.44048">
        <ele>55.4</ele>
        <time>2022-01-05T14:05:22Z</time>
      </trkpt>
      <trkpt lat="49.8695" lon="2.4405">
        <ele>55.4</ele>
        <time>2022-01-05T14:05:23Z</time>
      </trkpt>
      <trkpt lat="49.86949" lon="2.44053">
        <ele>55.4</ele>
        <time>2022-01-05T14:05:25Z</time>
      </trkpt>
      <trkpt lat="49.86949" lon="2.44055">
        <ele>55.4</ele>
        <time>2022-01-05T14:05:26Z</time>
      </trkpt>
      <trkpt lat="49.86949" lon="2.44057">
        <ele>55.3</ele>
        <time>2022-01-05T14:05:27Z</time>
      </trkpt>
      <trkpt lat="49.86948" lon="2.4406">
        <ele>55.3</ele>
        <time>2022-01-05T14:05:29Z</time>
      </trkpt>
      <trkpt lat="49.86947" lon="2.44062">
        <ele>55.3</ele>
        <time>2022-01-05T14:05:30Z</time>
      </trkpt>
      <trkpt lat="49.86947" lon="2.44064">
        <ele>55.3</ele>
        <time>2022-01-05T14:05:31Z</time>
      </trkpt>
      <trkpt lat="49.86947" lon="2.44067">
        <ele>55.2</ele>
        <time>2022-01-05T14:05:32Z</time>
      </trkpt>
      <trkpt lat="49.86946" lon="2.44068">
        <ele>55.2</ele>
        <time>2022-01-05T14:05:33Z</time>
      </trkpt>
      <trkpt lat="49.86946" lon="2.44071">
        <ele>55.2</ele>
        <time>2022-01-05T14:05:35Z</time>
      </trkpt>
      <trkpt lat="49.86946" lon="2.44074">
        <ele>55.1</ele>
        <time>2022-01-05T14:05:36Z</time>
      </trkpt>
      <trkpt lat="49.86946" lon="2.44076">
        <ele>55.1</ele>
        <time>2022-01-05T14:05:38Z</time>
      </trkpt>
      <trkpt lat="49.86946" lon="2.44078">
        <ele>55.1</ele>
        <time>2022-01-05T14:05:39Z</time>
      </trkpt>
      <trkpt lat="49.86946" lon="2.44082">
        <ele>55</ele>
        <time>2022-01-05T14:05:41Z</time>
      </trkpt>
      <trkpt lat="49.86946" lon="2.44085">
        <ele>54.9</ele>
        <time>2022-01-05T14:05:42Z</time>
      </trkpt>
      <trkpt lat="49.86946" lon="2.44088">
        <ele>54.9</ele>
        <time>2022-01-05T14:05:44Z</time>
      </trkpt>
      <trkpt lat="49.86947" lon="2.44093">
        <ele>54.8</ele>
        <time>2022-01-05T14:05:46Z</time>
      </trkpt>
      <trkpt lat="49.86947" lon="2.44094">
        <ele>54.7</ele>
        <time>2022-01-05T14:05:47Z</time>
      </trkpt>
      <trkpt lat="49.86947" lon="2.44096">
        <ele>54.7</ele>
        <time>2022-01-05T14:05:48Z</time>
      </trkpt>
      <trkpt lat="49.86947" lon="2.44099">
        <ele>54.6</ele>
        <time>2022-01-05T14:05:49Z</time>
      </trkpt>
      <trkpt lat="49.86948" lon="2.44104">
        <ele>54.5</ele>
        <time>2022-01-05T14:05:51Z</time>
      </trkpt>
      <trkpt lat="49.86948" lon="2.44105">
        <ele>54.4</ele>
        <time>2022-01-05T14:05:52Z</time>
      </trkpt>
      <trkpt lat="49.86949" lon="2.44108">
        <ele>54.4</ele>
        <time>2022-01-05T14:05:53Z</time>
      </trkpt>
      <trkpt lat="49.86949" lon="2.44111">
        <ele>54.3</ele>
        <time>2022-01-05T14:05:54Z</time>
      </trkpt>
      <trkpt lat="49.8695" lon="2.44115">
        <ele>54.2</ele>
        <time>2022-01-05T14:05:55Z</time>
      </trkpt>
      <trkpt lat="49.8695" lon="2.44116">
        <ele>54.2</ele>
        <time>2022-01-05T14:05:57Z</time>
      </trkpt>
      <trkpt lat="49.8695" lon="2.44118">
        <ele>54.1</ele>
        <time>2022-01-05T14:05:58Z</time>
      </trkpt>
      <trkpt lat="49.8695" lon="2.4412">
        <ele>54.1</ele>
        <time>2022-01-05T14:05:59Z</time>
      </trkpt>
      <trkpt lat="49.8695" lon="2.44122">
        <ele>54</ele>
        <time>2022-01-05T14:06:00Z</time>
      </trkpt>
      <trkpt lat="49.8695" lon="2.44125">
        <ele>54</ele>
        <time>2022-01-05T14:06:01Z</time>
      </trkpt>
      <trkpt lat="49.8695" lon="2.44129">
        <ele>53.9</ele>
        <time>2022-01-05T14:06:04Z</time>
      </trkpt>
      <trkpt lat="49.8695" lon="2.44132">
        <ele>53.8</ele>
        <time>2022-01-05T14:06:05Z</time>
      </trkpt>
      <trkpt lat="49.8695" lon="2.44134">
        <ele>53.8</ele>
        <time>2022-01-05T14:06:06Z</time>
      </trkpt>
      <trkpt lat="49.8695" lon="2.44138">
        <ele>53.7</ele>
        <time>2022-01-05T14:06:08Z</time>
      </trkpt>
      <trkpt lat="49.8695" lon="2.44142">
        <ele>53.7</ele>
        <time>2022-01-05T14:06:10Z</time>
      </trkpt>
      <trkpt lat="49.8695" lon="2.44145">
        <ele>53.6</ele>
        <time>2022-01-05T14:06:11Z</time>
      </trkpt>
      <trkpt lat="49.8695" lon="2.44147">
        <ele>53.6</ele>
        <time>2022-01-05T14:06:12Z</time>
      </trkpt>
      <trkpt lat="49.86949" lon="2.4415">
        <ele>53.6</ele>
        <time>2022-01-05T14:06:14Z</time>
      </trkpt>
      <trkpt lat="49.86949" lon="2.44152">
        <ele>53.5</ele>
        <time>2022-01-05T14:06:15Z</time>
      </trkpt>
      <trkpt lat="49.86949" lon="2.44155">
        <ele>53.5</ele>
        <time>2022-01-05T14:06:16Z</time>
      </trkpt>
      <trkpt lat="49.86949" lon="2.44158">
        <ele>53.5</ele>
        <time>2022-01-05T14:06:18Z</time>
      </trkpt>
      <trkpt lat="49.86949" lon="2.44163">
        <ele>53.5</ele>
        <time>2022-01-05T14:06:19Z</time>
      </trkpt>
      <trkpt lat="49.86949" lon="2.44164">
        <ele>53.5</ele>
        <time>2022-01-05T14:06:20Z</time>
      </trkpt>
      <trkpt lat="49.86949" lon="2.44166">
        <ele>53.4</ele>
        <time>2022-01-05T14:06:21Z</time>
      </trkpt>
      <trkpt lat="49.86949" lon="2.44168">
        <ele>53.4</ele>
        <time>2022-01-05T14:06:22Z</time>
      </trkpt>
      <trkpt lat="49.86948" lon="2.44171">
        <ele>53.4</ele>
        <time>2022-01-05T14:06:24Z</time>
      </trkpt>
      <trkpt lat="49.86948" lon="2.44173">
        <ele>53.4</ele>
        <time>2022-01-05T14:06:25Z</time>
      </trkpt>
      <trkpt lat="49.86948" lon="2.44176">
        <ele>53.4</ele>
        <time>2022-01-05T14:06:26Z</time>
      </trkpt>
      <trkpt lat="49.86948" lon="2.44178">
        <ele>53.4</ele>
        <time>2022-01-05T14:06:28Z</time>
      </trkpt>
      <trkpt lat="49.86948" lon="2.44182">
        <ele>53.4</ele>
        <time>2022-01-05T14:06:29Z</time>
      </trkpt>
      <trkpt lat="49.86948" lon="2.44184">
        <ele>53.4</ele>
        <time>2022-01-05T14:06:30Z</time>
      </trkpt>
      <trkpt lat="49.86948" lon="2.44186">
        <ele>53.4</ele>
        <time>2022-01-05T14:06:31Z</time>
      </trkpt>
      <trkpt lat="49.86948" lon="2.44188">
        <ele>53.4</ele>
        <time>2022-01-05T14:06:33Z</time>
      </trkpt>
      <trkpt lat="49.86948" lon="2.4419">
        <ele>53.4</ele>
        <time>2022-01-05T14:06:34Z</time>
      </trkpt>
      <trkpt lat="49.86949" lon="2.44192">
        <ele>53.4</ele>
        <time>2022-01-05T14:06:35Z</time>
      </trkpt>
      <trkpt lat="49.86949" lon="2.44195">
        <ele>53.4</ele>
        <time>2022-01-05T14:06:36Z</time>
      </trkpt>
      <trkpt lat="49.86949" lon="2.44197">
        <ele>53.4</ele>
        <time>2022-01-05T14:06:37Z</time>
      </trkpt>
      <trkpt lat="49.86949" lon="2.442">
        <ele>53.4</ele>
        <time>2022-01-05T14:06:38Z</time>
      </trkpt>
      <trkpt lat="49.86949" lon="2.44202">
        <ele>53.5</ele>
        <time>2022-01-05T14:06:40Z</time>
      </trkpt>
      <trkpt lat="49.86949" lon="2.44204">
        <ele>53.5</ele>
        <time>2022-01-05T14:06:41Z</time>
      </trkpt>
      <trkpt lat="49.86949" lon="2.44205">
        <ele>53.5</ele>
        <time>2022-01-05T14:06:42Z</time>
      </trkpt>
      <trkpt lat="49.86949" lon="2.44207">
        <ele>53.5</ele>
        <time>2022-01-05T14:06:43Z</time>
      </trkpt>
      <trkpt lat="49.86949" lon="2.4421">
        <ele>53.5</ele>
        <time>2022-01-05T14:06:44Z</time>
      </trkpt>
      <trkpt lat="49.86949" lon="2.44212">
        <ele>53.5</ele>
        <time>2022-01-05T14:06:46Z</time>
      </trkpt>
      <trkpt lat="49.86949" lon="2.44214">
        <ele>53.5</ele>
        <time>2022-01-05T14:06:47Z</time>
      </trkpt>
      <trkpt lat="49.86949" lon="2.44216">
        <ele>53.5</ele>
        <time>2022-01-05T14:06:48Z</time>
      </trkpt>
      <trkpt lat="49.86949" lon="2.44219">
        <ele>53.6</ele>
        <time>2022-01-05T14:06:50Z</time>
      </trkpt>
      <trkpt lat="49.86949" lon="2.44223">
        <ele>53.6</ele>
        <time>2022-01-05T14:06:51Z</time>
      </trkpt>
      <trkpt lat="49.86949" lon="2.44224">
        <ele>53.6</ele>
        <time>2022-01-05T14:06:52Z</time>
      </trkpt>
      <trkpt lat="49.86949" lon="2.44225">
        <ele>53.6</ele>
        <time>2022-01-05T14:06:53Z</time>
      </trkpt>
      <trkpt lat="49.86949" lon="2.44229">
        <ele>53.6</ele>
        <time>2022-01-05T14:06:54Z</time>
      </trkpt>
      <trkpt lat="49.86949" lon="2.44232">
        <ele>53.6</ele>
        <time>2022-01-05T14:06:56Z</time>
      </trkpt>
      <trkpt lat="49.86949" lon="2.44234">
        <ele>53.7</ele>
        <time>2022-01-05T14:06:57Z</time>
      </trkpt>
      <trkpt lat="49.86949" lon="2.44236">
        <ele>53.7</ele>
        <time>2022-01-05T14:06:58Z</time>
      </trkpt>
      <trkpt lat="49.86949" lon="2.44238">
        <ele>53.7</ele>
        <time>2022-01-05T14:06:59Z</time>
      </trkpt>
      <trkpt lat="49.86948" lon="2.44241">
        <ele>53.7</ele>
        <time>2022-01-05T14:07:00Z</time>
      </trkpt>
      <trkpt lat="49.86949" lon="2.44243">
        <ele>53.7</ele>
        <time>2022-01-05T14:07:01Z</time>
      </trkpt>
      <trkpt lat="49.86949" lon="2.44245">
        <ele>53.7</ele>
        <time>2022-01-05T14:07:02Z</time>
      </trkpt>
      <trkpt lat="49.86949" lon="2.44247">
        <ele>53.7</ele>
        <time>2022-01-05T14:07:04Z</time>
      </trkpt>
      <trkpt lat="49.86949" lon="2.44251">
        <ele>53.8</ele>
        <time>2022-01-05T14:07:05Z</time>
      </trkpt>
      <trkpt lat="49.86948" lon="2.44252">
        <ele>53.8</ele>
        <time>2022-01-05T14:07:06Z</time>
      </trkpt>
      <trkpt lat="49.86948" lon="2.44255">
        <ele>53.8</ele>
        <time>2022-01-05T14:07:07Z</time>
      </trkpt>
      <trkpt lat="49.86948" lon="2.44257">
        <ele>53.8</ele>
        <time>2022-01-05T14:07:08Z</time>
      </trkpt>
      <trkpt lat="49.86948" lon="2.44259">
        <ele>53.8</ele>
        <time>2022-01-05T14:07:10Z</time>
      </trkpt>
      <trkpt lat="49.86948" lon="2.44262">
        <ele>53.8</ele>
        <time>2022-01-05T14:07:11Z</time>
      </trkpt>
      <trkpt lat="49.86949" lon="2.44264">
        <ele>53.8</ele>
        <time>2022-01-05T14:07:12Z</time>
      </trkpt>
      <trkpt lat="49.86949" lon="2.44268">
        <ele>53.8</ele>
        <time>2022-01-05T14:07:14Z</time>
      </trkpt>
      <trkpt lat="49.86948" lon="2.4427">
        <ele>53.8</ele>
        <time>2022-01-05T14:07:15Z</time>
      </trkpt>
      <trkpt lat="49.86948" lon="2.44272">
        <ele>53.9</ele>
        <time>2022-01-05T14:07:16Z</time>
      </trkpt>
      <trkpt lat="49.86948" lon="2.44275">
        <ele>53.9</ele>
        <time>2022-01-05T14:07:17Z</time>
      </trkpt>
      <trkpt lat="49.86948" lon="2.44278">
        <ele>53.9</ele>
        <time>2022-01-05T14:07:18Z</time>
      </trkpt>
      <trkpt lat="49.86949" lon="2.44281">
        <ele>53.9</ele>
        <time>2022-01-05T14:07:20Z</time>
      </trkpt>
      <trkpt lat="49.86949" lon="2.44283">
        <ele>53.9</ele>
        <time>2022-01-05T14:07:21Z</time>
      </trkpt>
      <trkpt lat="49.86949" lon="2.44286">
        <ele>53.9</ele>
        <time>2022-01-05T14:07:22Z</time>
      </trkpt>
      <trkpt lat="49.86948" lon="2.44288">
        <ele>53.9</ele>
        <time>2022-01-05T14:07:23Z</time>
      </trkpt>
      <trkpt lat="49.86948" lon="2.44291">
        <ele>54</ele>
        <time>2022-01-05T14:07:25Z</time>
      </trkpt>
      <trkpt lat="49.86948" lon="2.44292">
        <ele>54</ele>
        <time>2022-01-05T14:07:26Z</time>
      </trkpt>
      <trkpt lat="49.86948" lon="2.44294">
        <ele>54</ele>
        <time>2022-01-05T14:07:27Z</time>
      </trkpt>
      <trkpt lat="49.86948" lon="2.44298">
        <ele>54</ele>
        <time>2022-01-05T14:07:28Z</time>
      </trkpt>
      <trkpt lat="49.86948" lon="2.443">
        <ele>54</ele>
        <time>2022-01-05T14:07:30Z</time>
      </trkpt>
      <trkpt lat="49.86947" lon="2.44303">
        <ele>54</ele>
        <time>2022-01-05T14:07:31Z</time>
      </trkpt>
      <trkpt lat="49.86947" lon="2.44306">
        <ele>54.1</ele>
        <time>2022-01-05T14:07:32Z</time>
      </trkpt>
      <trkpt lat="49.86947" lon="2.44308">
        <ele>54.1</ele>
        <time>2022-01-05T14:07:33Z</time>
      </trkpt>
      <trkpt lat="49.86947" lon="2.4431">
        <ele>54.1</ele>
        <time>2022-01-05T14:07:35Z</time>
      </trkpt>
      <trkpt lat="49.86947" lon="2.44313">
        <ele>54.1</ele>
        <time>2022-01-05T14:07:36Z</time>
      </trkpt>
      <trkpt lat="49.86947" lon="2.44316">
        <ele>54.1</ele>
        <time>2022-01-05T14:07:37Z</time>
      </trkpt>
      <trkpt lat="49.86947" lon="2.44318">
        <ele>54.1</ele>
        <time>2022-01-05T14:07:39Z</time>
      </trkpt>
      <trkpt lat="49.86947" lon="2.44319">
        <ele>54.1</ele>
        <time>2022-01-05T14:07:40Z</time>
      </trkpt>
      <trkpt lat="49.86947" lon="2.44321">
        <ele>54.2</ele>
        <time>2022-01-05T14:07:41Z</time>
      </trkpt>
      <trkpt lat="49.86947" lon="2.44323">
        <ele>54.2</ele>
        <time>2022-01-05T14:07:42Z</time>
      </trkpt>
      <trkpt lat="49.86947" lon="2.44326">
        <ele>54.2</ele>
        <time>2022-01-05T14:07:43Z</time>
      </trkpt>
      <trkpt lat="49.86947" lon="2.44328">
        <ele>54.2</ele>
        <time>2022-01-05T14:07:44Z</time>
      </trkpt>
      <trkpt lat="49.86947" lon="2.44331">
        <ele>54.3</ele>
        <time>2022-01-05T14:07:45Z</time>
      </trkpt>
      <trkpt lat="49.86947" lon="2.44333">
        <ele>54.3</ele>
        <time>2022-01-05T14:07:47Z</time>
      </trkpt>
      <trkpt lat="49.86947" lon="2.44335">
        <ele>54.3</ele>
        <time>2022-01-05T14:07:48Z</time>
      </trkpt>
      <trkpt lat="49.86947" lon="2.44338">
        <ele>54.3</ele>
        <time>2022-01-05T14:07:49Z</time>
      </trkpt>
      <trkpt lat="49.86947" lon="2.4434">
        <ele>54.3</ele>
        <time>2022-01-05T14:07:50Z</time>
      </trkpt>
      <trkpt lat="49.86947" lon="2.44342">
        <ele>54.4</ele>
        <time>2022-01-05T14:07:51Z</time>
      </trkpt>
      <trkpt lat="49.86947" lon="2.44344">
        <ele>54.4</ele>
        <time>2022-01-05T14:07:53Z</time>
      </trkpt>
      <trkpt lat="49.86946" lon="2.44347">
        <ele>54.4</ele>
        <time>2022-01-05T14:07:54Z</time>
      </trkpt>
      <trkpt lat="49.86946" lon="2.44349">
        <ele>54.4</ele>
        <time>2022-01-05T14:07:55Z</time>
      </trkpt>
      <trkpt lat="49.86946" lon="2.44351">
        <ele>54.5</ele>
        <time>2022-01-05T14:07:56Z</time>
      </trkpt>
      <trkpt lat="49.86946" lon="2.44353">
        <ele>54.5</ele>
        <time>2022-01-05T14:07:58Z</time>
      </trkpt>
      <trkpt lat="49.86947" lon="2.44358">
        <ele>54.5</ele>
        <time>2022-01-05T14:08:00Z</time>
      </trkpt>
      <trkpt lat="49.86947" lon="2.44359">
        <ele>54.6</ele>
        <time>2022-01-05T14:08:01Z</time>
      </trkpt>
      <trkpt lat="49.86947" lon="2.44361">
        <ele>54.6</ele>
        <time>2022-01-05T14:08:02Z</time>
      </trkpt>
      <trkpt lat="49.86947" lon="2.44364">
        <ele>54.6</ele>
        <time>2022-01-05T14:08:04Z</time>
      </trkpt>
      <trkpt lat="49.86947" lon="2.44367">
        <ele>54.7</ele>
        <time>2022-01-05T14:08:05Z</time>
      </trkpt>
      <trkpt lat="49.86946" lon="2.44369">
        <ele>54.7</ele>
        <time>2022-01-05T14:08:06Z</time>
      </trkpt>
      <trkpt lat="49.86946" lon="2.44371">
        <ele>54.7</ele>
        <time>2022-01-05T14:08:07Z</time>
      </trkpt>
      <trkpt lat="49.86946" lon="2.44373">
        <ele>54.7</ele>
        <time>2022-01-05T14:08:08Z</time>
      </trkpt>
      <trkpt lat="49.86946" lon="2.44376">
        <ele>54.8</ele>
        <time>2022-01-05T14:08:10Z</time>
      </trkpt>
      <trkpt lat="49.86946" lon="2.44379">
        <ele>54.8</ele>
        <time>2022-01-05T14:08:11Z</time>
      </trkpt>
      <trkpt lat="49.86946" lon="2.44381">
        <ele>54.8</ele>
        <time>2022-01-05T14:08:12Z</time>
      </trkpt>
      <trkpt lat="49.86946" lon="2.44383">
        <ele>54.8</ele>
        <time>2022-01-05T14:08:14Z</time>
      </trkpt>
      <trkpt lat="49.86946" lon="2.44385">
        <ele>54.9</ele>
        <time>2022-01-05T14:08:15Z</time>
      </trkpt>
      <trkpt lat="49.86945" lon="2.44387">
        <ele>54.9</ele>
        <time>2022-01-05T14:08:16Z</time>
      </trkpt>
      <trkpt lat="49.86946" lon="2.4439">
        <ele>54.9</ele>
        <time>2022-01-05T14:08:18Z</time>
      </trkpt>
      <trkpt lat="49.86946" lon="2.44394">
        <ele>55</ele>
        <time>2022-01-05T14:08:19Z</time>
      </trkpt>
      <trkpt lat="49.86946" lon="2.44395">
        <ele>55</ele>
        <time>2022-01-05T14:08:20Z</time>
      </trkpt>
      <trkpt lat="49.86946" lon="2.44397">
        <ele>55</ele>
        <time>2022-01-05T14:08:21Z</time>
      </trkpt>
      <trkpt lat="49.86946" lon="2.44399">
        <ele>55</ele>
        <time>2022-01-05T14:08:22Z</time>
      </trkpt>
      <trkpt lat="49.86946" lon="2.44401">
        <ele>55</ele>
        <time>2022-01-05T14:08:24Z</time>
      </trkpt>
      <trkpt lat="49.86945" lon="2.44403">
        <ele>55.1</ele>
        <time>2022-01-05T14:08:25Z</time>
      </trkpt>
      <trkpt lat="49.86945" lon="2.44406">
        <ele>55.1</ele>
        <time>2022-01-05T14:08:26Z</time>
      </trkpt>
      <trkpt lat="49.86945" lon="2.44408">
        <ele>55.1</ele>
        <time>2022-01-05T14:08:27Z</time>
      </trkpt>
      <trkpt lat="49.86945" lon="2.4441">
        <ele>55.1</ele>
        <time>2022-01-05T14:08:28Z</time>
      </trkpt>
      <trkpt lat="49.86945" lon="2.44414">
        <ele>55.2</ele>
        <time>2022-01-05T14:08:29Z</time>
      </trkpt>
      <trkpt lat="49.86945" lon="2.44415">
        <ele>55.2</ele>
        <time>2022-01-05T14:08:30Z</time>
      </trkpt>
      <trkpt lat="49.86945" lon="2.44416">
        <ele>55.2</ele>
        <time>2022-01-05T14:08:31Z</time>
      </trkpt>
      <trkpt lat="49.86945" lon="2.44419">
        <ele>55.3</ele>
        <time>2022-01-05T14:08:32Z</time>
      </trkpt>
      <trkpt lat="49.86945" lon="2.44421">
        <ele>55.3</ele>
        <time>2022-01-05T14:08:34Z</time>
      </trkpt>
      <trkpt lat="49.86945" lon="2.44422">
        <ele>55.3</ele>
        <time>2022-01-05T14:08:35Z</time>
      </trkpt>
      <trkpt lat="49.86946" lon="2.44423">
        <ele>55.3</ele>
        <time>2022-01-05T14:08:36Z</time>
      </trkpt>
      <trkpt lat="49.86945" lon="2.44427">
        <ele>55.3</ele>
        <time>2022-01-05T14:08:37Z</time>
      </trkpt>
      <trkpt lat="49.86945" lon="2.44429">
        <ele>55.4</ele>
        <time>2022-01-05T14:08:38Z</time>
      </trkpt>
      <trkpt lat="49.86945" lon="2.44431">
        <ele>55.4</ele>
        <time>2022-01-05T14:08:40Z</time>
      </trkpt>
      <trkpt lat="49.86945" lon="2.44432">
        <ele>55.4</ele>
        <time>2022-01-05T14:08:41Z</time>
      </trkpt>
      <trkpt lat="49.86946" lon="2.44436">
        <ele>55.5</ele>
        <time>2022-01-05T14:08:42Z</time>
      </trkpt>
      <trkpt lat="49.86946" lon="2.44437">
        <ele>55.5</ele>
        <time>2022-01-05T14:08:43Z</time>
      </trkpt>
      <trkpt lat="49.86946" lon="2.44439">
        <ele>55.5</ele>
        <time>2022-01-05T14:08:44Z</time>
      </trkpt>
      <trkpt lat="49.86946" lon="2.4444">
        <ele>55.5</ele>
        <time>2022-01-05T14:08:45Z</time>
      </trkpt>
      <trkpt lat="49.86946" lon="2.44442">
        <ele>55.5</ele>
        <time>2022-01-05T14:08:46Z</time>
      </trkpt>
      <trkpt lat="49.86946" lon="2.44444">
        <ele>55.6</ele>
        <time>2022-01-05T14:08:48Z</time>
      </trkpt>
      <trkpt lat="49.86946" lon="2.44446">
        <ele>55.6</ele>
        <time>2022-01-05T14:08:49Z</time>
      </trkpt>
      <trkpt lat="49.86946" lon="2.44448">
        <ele>55.6</ele>
        <time>2022-01-05T14:08:50Z</time>
      </trkpt>
      <trkpt lat="49.86946" lon="2.44451">
        <ele>55.6</ele>
        <time>2022-01-05T14:08:52Z</time>
      </trkpt>
      <trkpt lat="49.86947" lon="2.44453">
        <ele>55.7</ele>
        <time>2022-01-05T14:08:53Z</time>
      </trkpt>
      <trkpt lat="49.86947" lon="2.44455">
        <ele>55.7</ele>
        <time>2022-01-05T14:08:54Z</time>
      </trkpt>
      <trkpt lat="49.86947" lon="2.44458">
        <ele>55.7</ele>
        <time>2022-01-05T14:08:55Z</time>
      </trkpt>
      <trkpt lat="49.86947" lon="2.4446">
        <ele>55.7</ele>
        <time>2022-01-05T14:08:56Z</time>
      </trkpt>
      <trkpt lat="49.86946" lon="2.44463">
        <ele>55.8</ele>
        <time>2022-01-05T14:08:57Z</time>
      </trkpt>
      <trkpt lat="49.86946" lon="2.44464">
        <ele>55.8</ele>
        <time>2022-01-05T14:08:58Z</time>
      </trkpt>
      <trkpt lat="49.86946" lon="2.44466">
        <ele>55.8</ele>
        <time>2022-01-05T14:08:59Z</time>
      </trkpt>
      <trkpt lat="49.86946" lon="2.44468">
        <ele>55.8</ele>
        <time>2022-01-05T14:09:01Z</time>
      </trkpt>
      <trkpt lat="49.86946" lon="2.44471">
        <ele>55.9</ele>
        <time>2022-01-05T14:09:02Z</time>
      </trkpt>
      <trkpt lat="49.86946" lon="2.44474">
        <ele>55.9</ele>
        <time>2022-01-05T14:09:03Z</time>
      </trkpt>
      <trkpt lat="49.86946" lon="2.44475">
        <ele>55.9</ele>
        <time>2022-01-05T14:09:04Z</time>
      </trkpt>
      <trkpt lat="49.86946" lon="2.44477">
        <ele>56</ele>
        <time>2022-01-05T14:09:05Z</time>
      </trkpt>
      <trkpt lat="49.86945" lon="2.4448">
        <ele>56</ele>
        <time>2022-01-05T14:09:07Z</time>
      </trkpt>
      <trkpt lat="49.86945" lon="2.44482">
        <ele>56</ele>
        <time>2022-01-05T14:09:08Z</time>
      </trkpt>
      <trkpt lat="49.86945" lon="2.44483">
        <ele>56</ele>
        <time>2022-01-05T14:09:09Z</time>
      </trkpt>
      <trkpt lat="49.86944" lon="2.44488">
        <ele>56.1</ele>
        <time>2022-01-05T14:09:11Z</time>
      </trkpt>
      <trkpt lat="49.86944" lon="2.4449">
        <ele>56.1</ele>
        <time>2022-01-05T14:09:12Z</time>
      </trkpt>
      <trkpt lat="49.86944" lon="2.44492">
        <ele>56.1</ele>
        <time>2022-01-05T14:09:13Z</time>
      </trkpt>
      <trkpt lat="49.86944" lon="2.44494">
        <ele>56.1</ele>
        <time>2022-01-05T14:09:15Z</time>
      </trkpt>
      <trkpt lat="49.86944" lon="2.44496">
        <ele>56.2</ele>
        <time>2022-01-05T14:09:16Z</time>
      </trkpt>
      <trkpt lat="49.86944" lon="2.44499">
        <ele>56.2</ele>
        <time>2022-01-05T14:09:17Z</time>
      </trkpt>
      <trkpt lat="49.86944" lon="2.445">
        <ele>56.2</ele>
        <time>2022-01-05T14:09:18Z</time>
      </trkpt>
      <trkpt lat="49.86944" lon="2.44503">
        <ele>56.2</ele>
        <time>2022-01-05T14:09:19Z</time>
      </trkpt>
      <trkpt lat="49.86943" lon="2.44507">
        <ele>56.2</ele>
        <time>2022-01-05T14:09:20Z</time>
      </trkpt>
      <trkpt lat="49.86943" lon="2.44508">
        <ele>56.2</ele>
        <time>2022-01-05T14:09:21Z</time>
      </trkpt>
      <trkpt lat="49.86943" lon="2.44509">
        <ele>56.2</ele>
        <time>2022-01-05T14:09:22Z</time>
      </trkpt>
      <trkpt lat="49.86943" lon="2.44511">
        <ele>56.2</ele>
        <time>2022-01-05T14:09:24Z</time>
      </trkpt>
      <trkpt lat="49.86942" lon="2.44514">
        <ele>56.3</ele>
        <time>2022-01-05T14:09:25Z</time>
      </trkpt>
      <trkpt lat="49.86942" lon="2.44516">
        <ele>56.3</ele>
        <time>2022-01-05T14:09:26Z</time>
      </trkpt>
      <trkpt lat="49.86942" lon="2.44519">
        <ele>56.3</ele>
        <time>2022-01-05T14:09:28Z</time>
      </trkpt>
      <trkpt lat="49.86942" lon="2.44521">
        <ele>56.3</ele>
        <time>2022-01-05T14:09:29Z</time>
      </trkpt>
      <trkpt lat="49.86942" lon="2.44524">
        <ele>56.3</ele>
        <time>2022-01-05T14:09:31Z</time>
      </trkpt>
      <trkpt lat="49.86942" lon="2.44527">
        <ele>56.3</ele>
        <time>2022-01-05T14:09:32Z</time>
      </trkpt>
      <trkpt lat="49.86942" lon="2.4453">
        <ele>56.3</ele>
        <time>2022-01-05T14:09:34Z</time>
      </trkpt>
      <trkpt lat="49.86941" lon="2.44532">
        <ele>56.3</ele>
        <time>2022-01-05T14:09:35Z</time>
      </trkpt>
      <trkpt lat="49.86941" lon="2.44536">
        <ele>56.3</ele>
        <time>2022-01-05T14:09:36Z</time>
      </trkpt>
      <trkpt lat="49.86941" lon="2.44539">
        <ele>56.3</ele>
        <time>2022-01-05T14:09:37Z</time>
      </trkpt>
      <trkpt lat="49.86941" lon="2.4454">
        <ele>56.3</ele>
        <time>2022-01-05T14:09:39Z</time>
      </trkpt>
      <trkpt lat="49.86941" lon="2.44541">
        <ele>56.3</ele>
        <time>2022-01-05T14:09:40Z</time>
      </trkpt>
      <trkpt lat="49.86941" lon="2.44546">
        <ele>56.2</ele>
        <time>2022-01-05T14:09:42Z</time>
      </trkpt>
      <trkpt lat="49.86941" lon="2.44547">
        <ele>56.2</ele>
        <time>2022-01-05T14:09:43Z</time>
      </trkpt>
      <trkpt lat="49.86942" lon="2.44549">
        <ele>56.2</ele>
        <time>2022-01-05T14:09:44Z</time>
      </trkpt>
      <trkpt lat="49.86942" lon="2.44551">
        <ele>56.2</ele>
        <time>2022-01-05T14:09:45Z</time>
      </trkpt>
      <trkpt lat="49.86942" lon="2.44554">
        <ele>56.2</ele>
        <time>2022-01-05T14:09:47Z</time>
      </trkpt>
      <trkpt lat="49.86942" lon="2.44556">
        <ele>56.2</ele>
        <time>2022-01-05T14:09:48Z</time>
      </trkpt>
      <trkpt lat="49.86942" lon="2.44559">
        <ele>56.2</ele>
        <time>2022-01-05T14:09:49Z</time>
      </trkpt>
      <trkpt lat="49.86941" lon="2.44563">
        <ele>56.2</ele>
        <time>2022-01-05T14:09:51Z</time>
      </trkpt>
      <trkpt lat="49.86941" lon="2.44564">
        <ele>56.2</ele>
        <time>2022-01-05T14:09:52Z</time>
      </trkpt>
      <trkpt lat="49.86941" lon="2.44566">
        <ele>56.2</ele>
        <time>2022-01-05T14:09:53Z</time>
      </trkpt>
      <trkpt lat="49.86941" lon="2.4457">
        <ele>56.2</ele>
        <time>2022-01-05T14:09:55Z</time>
      </trkpt>
      <trkpt lat="49.86941" lon="2.44572">
        <ele>56.2</ele>
        <time>2022-01-05T14:09:56Z</time>
      </trkpt>
      <trkpt lat="49.86941" lon="2.44574">
        <ele>56.2</ele>
        <time>2022-01-05T14:09:57Z</time>
      </trkpt>
      <trkpt lat="49.86941" lon="2.44577">
        <ele>56.2</ele>
        <time>2022-01-05T14:09:58Z</time>
      </trkpt>
      <trkpt lat="49.86941" lon="2.44579">
        <ele>56.2</ele>
        <time>2022-01-05T14:09:59Z</time>
      </trkpt>
      <trkpt lat="49.86941" lon="2.4458">
        <ele>56.2</ele>
        <time>2022-01-05T14:10:00Z</time>
      </trkpt>
      <trkpt lat="49.86941" lon="2.44583">
        <ele>56.2</ele>
        <time>2022-01-05T14:10:02Z</time>
      </trkpt>
      <trkpt lat="49.86942" lon="2.44585">
        <ele>56.2</ele>
        <time>2022-01-05T14:10:04Z</time>
      </trkpt>
      <trkpt lat="49.86942" lon="2.44587">
        <ele>56.2</ele>
        <time>2022-01-05T14:10:05Z</time>
      </trkpt>
      <trkpt lat="49.86942" lon="2.44589">
        <ele>56.2</ele>
        <time>2022-01-05T14:10:07Z</time>
      </trkpt>
      <trkpt lat="49.86942" lon="2.44592">
        <ele>56.2</ele>
        <time>2022-01-05T14:10:08Z</time>
      </trkpt>
      <trkpt lat="49.86942" lon="2.44594">
        <ele>56.2</ele>
        <time>2022-01-05T14:10:09Z</time>
      </trkpt>
      <trkpt lat="49.86942" lon="2.44596">
        <ele>56.2</ele>
        <time>2022-01-05T14:10:10Z</time>
      </trkpt>
      <trkpt lat="49.86942" lon="2.446">
        <ele>56.2</ele>
        <time>2022-01-05T14:10:11Z</time>
      </trkpt>
      <trkpt lat="49.86942" lon="2.44602">
        <ele>56.2</ele>
        <time>2022-01-05T14:10:13Z</time>
      </trkpt>
      <trkpt lat="49.86942" lon="2.44603">
        <ele>56.2</ele>
        <time>2022-01-05T14:10:14Z</time>
      </trkpt>
      <trkpt lat="49.86942" lon="2.44605">
        <ele>56.2</ele>
        <time>2022-01-05T14:10:15Z</time>
      </trkpt>
      <trkpt lat="49.86942" lon="2.44607">
        <ele>56.2</ele>
        <time>2022-01-05T14:10:16Z</time>
      </trkpt>
      <trkpt lat="49.86942" lon="2.44609">
        <ele>56.2</ele>
        <time>2022-01-05T14:10:17Z</time>
      </trkpt>
      <trkpt lat="49.86943" lon="2.44611">
        <ele>56.2</ele>
        <time>2022-01-05T14:10:18Z</time>
      </trkpt>
      <trkpt lat="49.86943" lon="2.44613">
        <ele>56.1</ele>
        <time>2022-01-05T14:10:20Z</time>
      </trkpt>
      <trkpt lat="49.86943" lon="2.44616">
        <ele>56.1</ele>
        <time>2022-01-05T14:10:21Z</time>
      </trkpt>
      <trkpt lat="49.86943" lon="2.44617">
        <ele>56.1</ele>
        <time>2022-01-05T14:10:22Z</time>
      </trkpt>
      <trkpt lat="49.86943" lon="2.44619">
        <ele>56.1</ele>
        <time>2022-01-05T14:10:23Z</time>
      </trkpt>
      <trkpt lat="49.86943" lon="2.44622">
        <ele>56.1</ele>
        <time>2022-01-05T14:10:25Z</time>
      </trkpt>
      <trkpt lat="49.86943" lon="2.44626">
        <ele>56</ele>
        <time>2022-01-05T14:10:27Z</time>
      </trkpt>
      <trkpt lat="49.86943" lon="2.44628">
        <ele>56</ele>
        <time>2022-01-05T14:10:28Z</time>
      </trkpt>
      <trkpt lat="49.86943" lon="2.4463">
        <ele>56</ele>
        <time>2022-01-05T14:10:29Z</time>
      </trkpt>
      <trkpt lat="49.86943" lon="2.44633">
        <ele>56</ele>
        <time>2022-01-05T14:10:30Z</time>
      </trkpt>
      <trkpt lat="49.86944" lon="2.44635">
        <ele>56</ele>
        <time>2022-01-05T14:10:31Z</time>
      </trkpt>
      <trkpt lat="49.86944" lon="2.44637">
        <ele>56</ele>
        <time>2022-01-05T14:10:33Z</time>
      </trkpt>
      <trkpt lat="49.86944" lon="2.44639">
        <ele>55.9</ele>
        <time>2022-01-05T14:10:34Z</time>
      </trkpt>
      <trkpt lat="49.86944" lon="2.44641">
        <ele>55.9</ele>
        <time>2022-01-05T14:10:35Z</time>
      </trkpt>
      <trkpt lat="49.86944" lon="2.44643">
        <ele>55.9</ele>
        <time>2022-01-05T14:10:36Z</time>
      </trkpt>
      <trkpt lat="49.86945" lon="2.44647">
        <ele>55.9</ele>
        <time>2022-01-05T14:10:38Z</time>
      </trkpt>
      <trkpt lat="49.86945" lon="2.44648">
        <ele>55.9</ele>
        <time>2022-01-05T14:10:39Z</time>
      </trkpt>
      <trkpt lat="49.86945" lon="2.4465">
        <ele>55.8</ele>
        <time>2022-01-05T14:10:40Z</time>
      </trkpt>
      <trkpt lat="49.86945" lon="2.44652">
        <ele>55.8</ele>
        <time>2022-01-05T14:10:41Z</time>
      </trkpt>
      <trkpt lat="49.86945" lon="2.44656">
        <ele>55.8</ele>
        <time>2022-01-05T14:10:43Z</time>
      </trkpt>
      <trkpt lat="49.86945" lon="2.44661">
        <ele>55.7</ele>
        <time>2022-01-05T14:10:45Z</time>
      </trkpt>
      <trkpt lat="49.86945" lon="2.44662">
        <ele>55.7</ele>
        <time>2022-01-05T14:10:46Z</time>
      </trkpt>
      <trkpt lat="49.86944" lon="2.44666">
        <ele>55.7</ele>
        <time>2022-01-05T14:10:47Z</time>
      </trkpt>
      <trkpt lat="49.86944" lon="2.44668">
        <ele>55.7</ele>
        <time>2022-01-05T14:10:49Z</time>
      </trkpt>
      <trkpt lat="49.86944" lon="2.4467">
        <ele>55.7</ele>
        <time>2022-01-05T14:10:50Z</time>
      </trkpt>
      <trkpt lat="49.86944" lon="2.44672">
        <ele>55.6</ele>
        <time>2022-01-05T14:10:51Z</time>
      </trkpt>
      <trkpt lat="49.86944" lon="2.44674">
        <ele>55.6</ele>
        <time>2022-01-05T14:10:52Z</time>
      </trkpt>
      <trkpt lat="49.86944" lon="2.44676">
        <ele>55.6</ele>
        <time>2022-01-05T14:10:53Z</time>
      </trkpt>
      <trkpt lat="49.86944" lon="2.44678">
        <ele>55.6</ele>
        <time>2022-01-05T14:10:55Z</time>
      </trkpt>
      <trkpt lat="49.86944" lon="2.44679">
        <ele>55.6</ele>
        <time>2022-01-05T14:10:56Z</time>
      </trkpt>
      <trkpt lat="49.86943" lon="2.44681">
        <ele>55.6</ele>
        <time>2022-01-05T14:10:57Z</time>
      </trkpt>
      <trkpt lat="49.86943" lon="2.44683">
        <ele>55.6</ele>
        <time>2022-01-05T14:10:58Z</time>
      </trkpt>
      <trkpt lat="49.86943" lon="2.44687">
        <ele>55.5</ele>
        <time>2022-01-05T14:11:00Z</time>
      </trkpt>
      <trkpt lat="49.86943" lon="2.4469">
        <ele>55.5</ele>
        <time>2022-01-05T14:11:01Z</time>
      </trkpt>
      <trkpt lat="49.86943" lon="2.44693">
        <ele>55.5</ele>
        <time>2022-01-05T14:11:03Z</time>
      </trkpt>
      <trkpt lat="49.86943" lon="2.44695">
        <ele>55.5</ele>
        <time>2022-01-05T14:11:04Z</time>
      </trkpt>
      <trkpt lat="49.86943" lon="2.44698">
        <ele>55.4</ele>
        <time>2022-01-05T14:11:05Z</time>
      </trkpt>
      <trkpt lat="49.86942" lon="2.447">
        <ele>55.4</ele>
        <time>2022-01-05T14:11:06Z</time>
      </trkpt>
      <trkpt lat="49.86942" lon="2.44701">
        <ele>55.4</ele>
        <time>2022-01-05T14:11:07Z</time>
      </trkpt>
      <trkpt lat="49.86942" lon="2.44703">
        <ele>55.4</ele>
        <time>2022-01-05T14:11:08Z</time>
      </trkpt>
      <trkpt lat="49.86942" lon="2.44705">
        <ele>55.4</ele>
        <time>2022-01-05T14:11:09Z</time>
      </trkpt>
      <trkpt lat="49.86942" lon="2.44707">
        <ele>55.4</ele>
        <time>2022-01-05T14:11:10Z</time>
      </trkpt>
      <trkpt lat="49.86942" lon="2.44709">
        <ele>55.4</ele>
        <time>2022-01-05T14:11:12Z</time>
      </trkpt>
      <trkpt lat="49.86942" lon="2.44711">
        <ele>55.4</ele>
        <time>2022-01-05T14:11:13Z</time>
      </trkpt>
      <trkpt lat="49.86943" lon="2.44712">
        <ele>55.3</ele>
        <time>2022-01-05T14:11:14Z</time>
      </trkpt>
      <trkpt lat="49.86943" lon="2.44714">
        <ele>55.3</ele>
        <time>2022-01-05T14:11:15Z</time>
      </trkpt>
      <trkpt lat="49.86943" lon="2.44718">
        <ele>55.3</ele>
        <time>2022-01-05T14:11:16Z</time>
      </trkpt>
      <trkpt lat="49.86943" lon="2.4472">
        <ele>55.3</ele>
        <time>2022-01-05T14:11:18Z</time>
      </trkpt>
      <trkpt lat="49.86943" lon="2.44723">
        <ele>55.3</ele>
        <time>2022-01-05T14:11:19Z</time>
      </trkpt>
      <trkpt lat="49.86943" lon="2.44725">
        <ele>55.3</ele>
        <time>2022-01-05T14:11:20Z</time>
      </trkpt>
      <trkpt lat="49.86943" lon="2.44726">
        <ele>55.3</ele>
        <time>2022-01-05T14:11:21Z</time>
      </trkpt>
      <trkpt lat="49.86944" lon="2.44729">
        <ele>55.3</ele>
        <time>2022-01-05T14:11:22Z</time>
      </trkpt>
      <trkpt lat="49.86944" lon="2.44731">
        <ele>55.3</ele>
        <time>2022-01-05T14:11:23Z</time>
      </trkpt>
      <trkpt lat="49.86944" lon="2.44732">
        <ele>55.3</ele>
        <time>2022-01-05T14:11:24Z</time>
      </trkpt>
      <trkpt lat="49.86944" lon="2.44735">
        <ele>55.2</ele>
        <time>2022-01-05T14:11:25Z</time>
      </trkpt>
      <trkpt lat="49.86944" lon="2.44736">
        <ele>55.2</ele>
        <time>2022-01-05T14:11:26Z</time>
      </trkpt>
      <trkpt lat="49.86944" lon="2.44738">
        <ele>55.2</ele>
        <time>2022-01-05T14:11:28Z</time>
      </trkpt>
      <trkpt lat="49.86945" lon="2.44739">
        <ele>55.2</ele>
        <time>2022-01-05T14:11:29Z</time>
      </trkpt>
      <trkpt lat="49.86945" lon="2.44741">
        <ele>55.2</ele>
        <time>2022-01-05T14:11:30Z</time>
      </trkpt>
      <trkpt lat="49.86945" lon="2.44742">
        <ele>55.2</ele>
        <time>2022-01-05T14:11:31Z</time>
      </trkpt>
      <trkpt lat="49.86945" lon="2.44744">
        <ele>55.2</ele>
        <time>2022-01-05T14:11:32Z</time>
      </trkpt>
      <trkpt lat="49.86945" lon="2.44747">
        <ele>55.2</ele>
        <time>2022-01-05T14:11:33Z</time>
      </trkpt>
      <trkpt lat="49.86945" lon="2.44749">
        <ele>55.2</ele>
        <time>2022-01-05T14:11:34Z</time>
      </trkpt>
      <trkpt lat="49.86945" lon="2.44752">
        <ele>55.2</ele>
        <time>2022-01-05T14:11:36Z</time>
      </trkpt>
      <trkpt lat="49.86945" lon="2.44755">
        <ele>55.2</ele>
        <time>2022-01-05T14:11:37Z</time>
      </trkpt>
      <trkpt lat="49.86945" lon="2.44757">
        <ele>55.2</ele>
        <time>2022-01-05T14:11:38Z</time>
      </trkpt>
      <trkpt lat="49.86945" lon="2.4476">
        <ele>55.2</ele>
        <time>2022-01-05T14:11:39Z</time>
      </trkpt>
      <trkpt lat="49.86946" lon="2.44762">
        <ele>55.2</ele>
        <time>2022-01-05T14:11:40Z</time>
      </trkpt>
      <trkpt lat="49.86946" lon="2.44763">
        <ele>55.2</ele>
        <time>2022-01-05T14:11:41Z</time>
      </trkpt>
      <trkpt lat="49.86946" lon="2.44765">
        <ele>55.1</ele>
        <time>2022-01-05T14:11:43Z</time>
      </trkpt>
      <trkpt lat="49.86946" lon="2.44766">
        <ele>55.1</ele>
        <time>2022-01-05T14:11:44Z</time>
      </trkpt>
      <trkpt lat="49.86946" lon="2.44768">
        <ele>55.1</ele>
        <time>2022-01-05T14:11:45Z</time>
      </trkpt>
      <trkpt lat="49.86946" lon="2.4477">
        <ele>55.1</ele>
        <time>2022-01-05T14:11:46Z</time>
      </trkpt>
      <trkpt lat="49.86946" lon="2.44772">
        <ele>55.1</ele>
        <time>2022-01-05T14:11:47Z</time>
      </trkpt>
      <trkpt lat="49.86946" lon="2.44776">
        <ele>55.1</ele>
        <time>2022-01-05T14:11:49Z</time>
      </trkpt>
      <trkpt lat="49.86946" lon="2.44779">
        <ele>55.1</ele>
        <time>2022-01-05T14:11:50Z</time>
      </trkpt>
      <trkpt lat="49.86946" lon="2.4478">
        <ele>55.1</ele>
        <time>2022-01-05T14:11:51Z</time>
      </trkpt>
      <trkpt lat="49.86946" lon="2.44782">
        <ele>55.1</ele>
        <time>2022-01-05T14:11:52Z</time>
      </trkpt>
      <trkpt lat="49.86946" lon="2.44784">
        <ele>55.1</ele>
        <time>2022-01-05T14:11:53Z</time>
      </trkpt>
      <trkpt lat="49.86946" lon="2.44787">
        <ele>55.1</ele>
        <time>2022-01-05T14:11:54Z</time>
      </trkpt>
      <trkpt lat="49.86946" lon="2.44788">
        <ele>55</ele>
        <time>2022-01-05T14:11:55Z</time>
      </trkpt>
      <trkpt lat="49.86946" lon="2.4479">
        <ele>55</ele>
        <time>2022-01-05T14:11:56Z</time>
      </trkpt>
      <trkpt lat="49.86946" lon="2.44792">
        <ele>55</ele>
        <time>2022-01-05T14:11:57Z</time>
      </trkpt>
      <trkpt lat="49.86946" lon="2.44794">
        <ele>55</ele>
        <time>2022-01-05T14:11:58Z</time>
      </trkpt>
      <trkpt lat="49.86946" lon="2.44796">
        <ele>55</ele>
        <time>2022-01-05T14:11:59Z</time>
      </trkpt>
      <trkpt lat="49.86946" lon="2.44798">
        <ele>55</ele>
        <time>2022-01-05T14:12:01Z</time>
      </trkpt>
      <trkpt lat="49.86945" lon="2.44799">
        <ele>55</ele>
        <time>2022-01-05T14:12:02Z</time>
      </trkpt>
      <trkpt lat="49.86945" lon="2.44801">
        <ele>55</ele>
        <time>2022-01-05T14:12:03Z</time>
      </trkpt>
      <trkpt lat="49.86945" lon="2.44803">
        <ele>55</ele>
        <time>2022-01-05T14:12:04Z</time>
      </trkpt>
      <trkpt lat="49.86945" lon="2.44808">
        <ele>55</ele>
        <time>2022-01-05T14:12:06Z</time>
      </trkpt>
      <trkpt lat="49.86945" lon="2.44809">
        <ele>55</ele>
        <time>2022-01-05T14:12:07Z</time>
      </trkpt>
      <trkpt lat="49.86946" lon="2.44811">
        <ele>54.9</ele>
        <time>2022-01-05T14:12:08Z</time>
      </trkpt>
      <trkpt lat="49.86946" lon="2.44813">
        <ele>54.9</ele>
        <time>2022-01-05T14:12:09Z</time>
      </trkpt>
      <trkpt lat="49.86946" lon="2.44816">
        <ele>54.9</ele>
        <time>2022-01-05T14:12:10Z</time>
      </trkpt>
      <trkpt lat="49.86946" lon="2.44818">
        <ele>54.9</ele>
        <time>2022-01-05T14:12:11Z</time>
      </trkpt>
      <trkpt lat="49.86946" lon="2.44819">
        <ele>54.9</ele>
        <time>2022-01-05T14:12:12Z</time>
      </trkpt>
      <trkpt lat="49.86946" lon="2.44821">
        <ele>54.9</ele>
        <time>2022-01-05T14:12:13Z</time>
      </trkpt>
      <trkpt lat="49.86946" lon="2.44823">
        <ele>54.9</ele>
        <time>2022-01-05T14:12:14Z</time>
      </trkpt>
      <trkpt lat="49.86946" lon="2.44826">
        <ele>54.9</ele>
        <time>2022-01-05T14:12:16Z</time>
      </trkpt>
      <trkpt lat="49.86946" lon="2.44828">
        <ele>54.9</ele>
        <time>2022-01-05T14:12:17Z</time>
      </trkpt>
      <trkpt lat="49.86946" lon="2.44829">
        <ele>54.9</ele>
        <time>2022-01-05T14:12:18Z</time>
      </trkpt>
      <trkpt lat="49.86946" lon="2.44833">
        <ele>54.9</ele>
        <time>2022-01-05T14:12:20Z</time>
      </trkpt>
      <trkpt lat="49.86946" lon="2.44835">
        <ele>54.9</ele>
        <time>2022-01-05T14:12:21Z</time>
      </trkpt>
      <trkpt lat="49.86946" lon="2.44837">
        <ele>54.9</ele>
        <time>2022-01-05T14:12:22Z</time>
      </trkpt>
      <trkpt lat="49.86946" lon="2.44839">
        <ele>54.9</ele>
        <time>2022-01-05T14:12:23Z</time>
      </trkpt>
      <trkpt lat="49.86947" lon="2.44841">
        <ele>54.9</ele>
        <time>2022-01-05T14:12:24Z</time>
      </trkpt>
      <trkpt lat="49.86947" lon="2.44843">
        <ele>54.9</ele>
        <time>2022-01-05T14:12:25Z</time>
      </trkpt>
      <trkpt lat="49.86947" lon="2.44846">
        <ele>54.9</ele>
        <time>2022-01-05T14:12:26Z</time>
      </trkpt>
      <trkpt lat="49.86947" lon="2.44848">
        <ele>54.9</ele>
        <time>2022-01-05T14:12:27Z</time>
      </trkpt>
      <trkpt lat="49.86947" lon="2.44849">
        <ele>54.9</ele>
        <time>2022-01-05T14:12:29Z</time>
      </trkpt>
      <trkpt lat="49.86948" lon="2.44851">
        <ele>54.9</ele>
        <time>2022-01-05T14:12:30Z</time>
      </trkpt>
      <trkpt lat="49.86948" lon="2.44852">
        <ele>54.9</ele>
        <time>2022-01-05T14:12:31Z</time>
      </trkpt>
      <trkpt lat="49.86948" lon="2.44854">
        <ele>54.9</ele>
        <time>2022-01-05T14:12:32Z</time>
      </trkpt>
      <trkpt lat="49.86948" lon="2.44857">
        <ele>54.9</ele>
        <time>2022-01-05T14:12:33Z</time>
      </trkpt>
      <trkpt lat="49.86948" lon="2.44858">
        <ele>54.9</ele>
        <time>2022-01-05T14:12:34Z</time>
      </trkpt>
      <trkpt lat="49.86949" lon="2.4486">
        <ele>54.9</ele>
        <time>2022-01-05T14:12:35Z</time>
      </trkpt>
      <trkpt lat="49.86949" lon="2.44863">
        <ele>54.9</ele>
        <time>2022-01-05T14:12:36Z</time>
      </trkpt>
      <trkpt lat="49.86949" lon="2.44864">
        <ele>54.9</ele>
        <time>2022-01-05T14:12:37Z</time>
      </trkpt>
      <trkpt lat="49.86949" lon="2.44866">
        <ele>54.9</ele>
        <time>2022-01-05T14:12:38Z</time>
      </trkpt>
      <trkpt lat="49.86949" lon="2.44867">
        <ele>54.9</ele>
        <time>2022-01-05T14:12:39Z</time>
      </trkpt>
      <trkpt lat="49.86949" lon="2.44869">
        <ele>54.9</ele>
        <time>2022-01-05T14:12:40Z</time>
      </trkpt>
      <trkpt lat="49.86949" lon="2.44871">
        <ele>54.9</ele>
        <time>2022-01-05T14:12:41Z</time>
      </trkpt>
      <trkpt lat="49.86949" lon="2.44874">
        <ele>54.9</ele>
        <time>2022-01-05T14:12:43Z</time>
      </trkpt>
      <trkpt lat="49.86949" lon="2.44875">
        <ele>54.9</ele>
        <time>2022-01-05T14:12:44Z</time>
      </trkpt>
      <trkpt lat="49.86949" lon="2.44876">
        <ele>54.9</ele>
        <time>2022-01-05T14:12:45Z</time>
      </trkpt>
      <trkpt lat="49.86949" lon="2.44878">
        <ele>54.9</ele>
        <time>2022-01-05T14:12:46Z</time>
      </trkpt>
      <trkpt lat="49.86949" lon="2.4488">
        <ele>54.9</ele>
        <time>2022-01-05T14:12:47Z</time>
      </trkpt>
      <trkpt lat="49.86949" lon="2.44883">
        <ele>54.9</ele>
        <time>2022-01-05T14:12:48Z</time>
      </trkpt>
      <trkpt lat="49.8695" lon="2.44885">
        <ele>54.9</ele>
        <time>2022-01-05T14:12:49Z</time>
      </trkpt>
      <trkpt lat="49.8695" lon="2.44887">
        <ele>54.9</ele>
        <time>2022-01-05T14:12:50Z</time>
      </trkpt>
      <trkpt lat="49.8695" lon="2.44889">
        <ele>54.9</ele>
        <time>2022-01-05T14:12:51Z</time>
      </trkpt>
      <trkpt lat="49.8695" lon="2.4489">
        <ele>54.9</ele>
        <time>2022-01-05T14:12:53Z</time>
      </trkpt>
      <trkpt lat="49.8695" lon="2.44892">
        <ele>54.9</ele>
        <time>2022-01-05T14:12:54Z</time>
      </trkpt>
      <trkpt lat="49.8695" lon="2.44894">
        <ele>54.9</ele>
        <time>2022-01-05T14:12:55Z</time>
      </trkpt>
      <trkpt lat="49.8695" lon="2.44895">
        <ele>54.9</ele>
        <time>2022-01-05T14:12:56Z</time>
      </trkpt>
      <trkpt lat="49.8695" lon="2.44897">
        <ele>54.9</ele>
        <time>2022-01-05T14:12:57Z</time>
      </trkpt>
      <trkpt lat="49.8695" lon="2.44898">
        <ele>54.9</ele>
        <time>2022-01-05T14:12:59Z</time>
      </trkpt>
      <trkpt lat="49.86949" lon="2.44899">
        <ele>54.9</ele>
        <time>2022-01-05T14:13:00Z</time>
      </trkpt>
      <trkpt lat="49.86949" lon="2.449">
        <ele>54.9</ele>
        <time>2022-01-05T14:13:01Z</time>
      </trkpt>
      <trkpt lat="49.86949" lon="2.44902">
        <ele>54.9</ele>
        <time>2022-01-05T14:13:02Z</time>
      </trkpt>
      <trkpt lat="49.86948" lon="2.44903">
        <ele>54.9</ele>
        <time>2022-01-05T14:13:04Z</time>
      </trkpt>
      <trkpt lat="49.86948" lon="2.44903">
        <ele>54.9</ele>
        <time>2022-01-05T14:13:05Z</time>
      </trkpt>
      <trkpt lat="49.86947" lon="2.44904">
        <ele>54.9</ele>
        <time>2022-01-05T14:13:07Z</time>
      </trkpt>
      <trkpt lat="49.86947" lon="2.44905">
        <ele>54.9</ele>
        <time>2022-01-05T14:13:08Z</time>
      </trkpt>
      <trkpt lat="49.86947" lon="2.44905">
        <ele>54.9</ele>
        <time>2022-01-05T14:13:09Z</time>
      </trkpt>
      <trkpt lat="49.86947" lon="2.44905">
        <ele>54.9</ele>
        <time>2022-01-05T14:13:11Z</time>
      </trkpt>
      <trkpt lat="49.86947" lon="2.44904">
        <ele>54.9</ele>
        <time>2022-01-05T14:13:13Z</time>
      </trkpt>
      <trkpt lat="49.86947" lon="2.44904">
        <ele>54.9</ele>
        <time>2022-01-05T14:13:15Z</time>
      </trkpt>
      <trkpt lat="49.86946" lon="2.44904">
        <ele>54.9</ele>
        <time>2022-01-05T14:13:16Z</time>
      </trkpt>
      <trkpt lat="49.86947" lon="2.44905">
        <ele>54.9</ele>
        <time>2022-01-05T14:13:17Z</time>
      </trkpt>
      <trkpt lat="49.86947" lon="2.44905">
        <ele>54.9</ele>
        <time>2022-01-05T14:13:18Z</time>
      </trkpt>
      <trkpt lat="49.86947" lon="2.44905">
        <ele>54.9</ele>
        <time>2022-01-05T14:13:19Z</time>
      </trkpt>
      <trkpt lat="49.86947" lon="2.44906">
        <ele>54.9</ele>
        <time>2022-01-05T14:13:20Z</time>
      </trkpt>
      <trkpt lat="49.86948" lon="2.44908">
        <ele>54.9</ele>
        <time>2022-01-05T14:13:21Z</time>
      </trkpt>
      <trkpt lat="49.86948" lon="2.4491">
        <ele>54.9</ele>
        <time>2022-01-05T14:13:23Z</time>
      </trkpt>
      <trkpt lat="49.86949" lon="2.44911">
        <ele>54.9</ele>
        <time>2022-01-05T14:13:24Z</time>
      </trkpt>
      <trkpt lat="49.86949" lon="2.44913">
        <ele>54.9</ele>
        <time>2022-01-05T14:13:25Z</time>
      </trkpt>
      <trkpt lat="49.8695" lon="2.44915">
        <ele>54.9</ele>
        <time>2022-01-05T14:13:26Z</time>
      </trkpt>
      <trkpt lat="49.8695" lon="2.44916">
        <ele>55</ele>
        <time>2022-01-05T14:13:27Z</time>
      </trkpt>
      <trkpt lat="49.8695" lon="2.44918">
        <ele>55.2</ele>
        <time>2022-01-05T14:13:28Z</time>
      </trkpt>
      <trkpt lat="49.86949" lon="2.44919">
        <ele>55.2</ele>
        <time>2022-01-05T14:13:29Z</time>
      </trkpt>
      <trkpt lat="49.86949" lon="2.44921">
        <ele>55.2</ele>
        <time>2022-01-05T14:13:30Z</time>
      </trkpt>
      <trkpt lat="49.8695" lon="2.44923">
        <ele>55.2</ele>
        <time>2022-01-05T14:13:31Z</time>
      </trkpt>
      <trkpt lat="49.8695" lon="2.44924">
        <ele>55.2</ele>
        <time>2022-01-05T14:13:33Z</time>
      </trkpt>
      <trkpt lat="49.8695" lon="2.44926">
        <ele>55.2</ele>
        <time>2022-01-05T14:13:34Z</time>
      </trkpt>
      <trkpt lat="49.86949" lon="2.44928">
        <ele>55.2</ele>
        <time>2022-01-05T14:13:35Z</time>
      </trkpt>
      <trkpt lat="49.86949" lon="2.44931">
        <ele>55.3</ele>
        <time>2022-01-05T14:13:36Z</time>
      </trkpt>
      <trkpt lat="49.86949" lon="2.44933">
        <ele>55.3</ele>
        <time>2022-01-05T14:13:37Z</time>
      </trkpt>
      <trkpt lat="49.86949" lon="2.44934">
        <ele>55.3</ele>
        <time>2022-01-05T14:13:38Z</time>
      </trkpt>
      <trkpt lat="49.86949" lon="2.44937">
        <ele>55.3</ele>
        <time>2022-01-05T14:13:39Z</time>
      </trkpt>
      <trkpt lat="49.86949" lon="2.44939">
        <ele>55.3</ele>
        <time>2022-01-05T14:13:40Z</time>
      </trkpt>
      <trkpt lat="49.86949" lon="2.44941">
        <ele>55.3</ele>
        <time>2022-01-05T14:13:41Z</time>
      </trkpt>
      <trkpt lat="49.86949" lon="2.44943">
        <ele>55.3</ele>
        <time>2022-01-05T14:13:42Z</time>
      </trkpt>
      <trkpt lat="49.8695" lon="2.44946">
        <ele>55.3</ele>
        <time>2022-01-05T14:13:44Z</time>
      </trkpt>
      <trkpt lat="49.8695" lon="2.44948">
        <ele>55.3</ele>
        <time>2022-01-05T14:13:45Z</time>
      </trkpt>
      <trkpt lat="49.8695" lon="2.4495">
        <ele>55.3</ele>
        <time>2022-01-05T14:13:46Z</time>
      </trkpt>
      <trkpt lat="49.8695" lon="2.44953">
        <ele>55.4</ele>
        <time>2022-01-05T14:13:47Z</time>
      </trkpt>
      <trkpt lat="49.8695" lon="2.44955">
        <ele>55.4</ele>
        <time>2022-01-05T14:13:48Z</time>
      </trkpt>
      <trkpt lat="49.8695" lon="2.4496">
        <ele>55.4</ele>
        <time>2022-01-05T14:13:50Z</time>
      </trkpt>
      <trkpt lat="49.8695" lon="2.44962">
        <ele>55.4</ele>
        <time>2022-01-05T14:13:51Z</time>
      </trkpt>
      <trkpt lat="49.8695" lon="2.44965">
        <ele>55.4</ele>
        <time>2022-01-05T14:13:52Z</time>
      </trkpt>
      <trkpt lat="49.8695" lon="2.44968">
        <ele>55.4</ele>
        <time>2022-01-05T14:13:54Z</time>
      </trkpt>
      <trkpt lat="49.8695" lon="2.44972">
        <ele>55.5</ele>
        <time>2022-01-05T14:13:55Z</time>
      </trkpt>
      <trkpt lat="49.8695" lon="2.44973">
        <ele>55.5</ele>
        <time>2022-01-05T14:13:56Z</time>
      </trkpt>
      <trkpt lat="49.8695" lon="2.44975">
        <ele>55.5</ele>
        <time>2022-01-05T14:13:57Z</time>
      </trkpt>
      <trkpt lat="49.8695" lon="2.44979">
        <ele>55.5</ele>
        <time>2022-01-05T14:13:58Z</time>
      </trkpt>
      <trkpt lat="49.8695" lon="2.4498">
        <ele>55.5</ele>
        <time>2022-01-05T14:14:00Z</time>
      </trkpt>
      <trkpt lat="49.8695" lon="2.44982">
        <ele>55.5</ele>
        <time>2022-01-05T14:14:01Z</time>
      </trkpt>
      <trkpt lat="49.8695" lon="2.44984">
        <ele>55.5</ele>
        <time>2022-01-05T14:14:02Z</time>
      </trkpt>
      <trkpt lat="49.8695" lon="2.44985">
        <ele>55.6</ele>
        <time>2022-01-05T14:14:03Z</time>
      </trkpt>
      <trkpt lat="49.8695" lon="2.44987">
        <ele>55.6</ele>
        <time>2022-01-05T14:14:04Z</time>
      </trkpt>
      <trkpt lat="49.8695" lon="2.44989">
        <ele>55.6</ele>
        <time>2022-01-05T14:14:05Z</time>
      </trkpt>
      <trkpt lat="49.8695" lon="2.44992">
        <ele>55.6</ele>
        <time>2022-01-05T14:14:07Z</time>
      </trkpt>
      <trkpt lat="49.86951" lon="2.44994">
        <ele>55.6</ele>
        <time>2022-01-05T14:14:08Z</time>
      </trkpt>
      <trkpt lat="49.86951" lon="2.44996">
        <ele>55.6</ele>
        <time>2022-01-05T14:14:09Z</time>
      </trkpt>
      <trkpt lat="49.86951" lon="2.44998">
        <ele>55.6</ele>
        <time>2022-01-05T14:14:10Z</time>
      </trkpt>
      <trkpt lat="49.86951" lon="2.45002">
        <ele>55.7</ele>
        <time>2022-01-05T14:14:11Z</time>
      </trkpt>
      <trkpt lat="49.86951" lon="2.45003">
        <ele>55.7</ele>
        <time>2022-01-05T14:14:13Z</time>
      </trkpt>
      <trkpt lat="49.86951" lon="2.45004">
        <ele>55.7</ele>
        <time>2022-01-05T14:14:14Z</time>
      </trkpt>
      <trkpt lat="49.86951" lon="2.45006">
        <ele>55.7</ele>
        <time>2022-01-05T14:14:15Z</time>
      </trkpt>
      <trkpt lat="49.86951" lon="2.45008">
        <ele>55.7</ele>
        <time>2022-01-05T14:14:16Z</time>
      </trkpt>
      <trkpt lat="49.86951" lon="2.45012">
        <ele>55.7</ele>
        <time>2022-01-05T14:14:18Z</time>
      </trkpt>
      <trkpt lat="49.86951" lon="2.45015">
        <ele>55.8</ele>
        <time>2022-01-05T14:14:19Z</time>
      </trkpt>
      <trkpt lat="49.86951" lon="2.45016">
        <ele>55.8</ele>
        <time>2022-01-05T14:14:20Z</time>
      </trkpt>
      <trkpt lat="49.86951" lon="2.45017">
        <ele>55.8</ele>
        <time>2022-01-05T14:14:21Z</time>
      </trkpt>
      <trkpt lat="49.86951" lon="2.45019">
        <ele>55.8</ele>
        <time>2022-01-05T14:14:22Z</time>
      </trkpt>
      <trkpt lat="49.86951" lon="2.4502">
        <ele>55.8</ele>
        <time>2022-01-05T14:14:24Z</time>
      </trkpt>
      <trkpt lat="49.86951" lon="2.45022">
        <ele>55.8</ele>
        <time>2022-01-05T14:14:25Z</time>
      </trkpt>
      <trkpt lat="49.86951" lon="2.45026">
        <ele>55.8</ele>
        <time>2022-01-05T14:14:26Z</time>
      </trkpt>
      <trkpt lat="49.86951" lon="2.45027">
        <ele>55.8</ele>
        <time>2022-01-05T14:14:27Z</time>
      </trkpt>
      <trkpt lat="49.86952" lon="2.45028">
        <ele>55.8</ele>
        <time>2022-01-05T14:14:28Z</time>
      </trkpt>
      <trkpt lat="49.86952" lon="2.45031">
        <ele>55.9</ele>
        <time>2022-01-05T14:14:29Z</time>
      </trkpt>
      <trkpt lat="49.86952" lon="2.45034">
        <ele>55.9</ele>
        <time>2022-01-05T14:14:31Z</time>
      </trkpt>
      <trkpt lat="49.86952" lon="2.45035">
        <ele>55.9</ele>
        <time>2022-01-05T14:14:32Z</time>
      </trkpt>
      <trkpt lat="49.86952" lon="2.45038">
        <ele>55.9</ele>
        <time>2022-01-05T14:14:33Z</time>
      </trkpt>
      <trkpt lat="49.86952" lon="2.4504">
        <ele>55.9</ele>
        <time>2022-01-05T14:14:34Z</time>
      </trkpt>
      <trkpt lat="49.86951" lon="2.45041">
        <ele>55.9</ele>
        <time>2022-01-05T14:14:35Z</time>
      </trkpt>
      <trkpt lat="49.86951" lon="2.45043">
        <ele>55.9</ele>
        <time>2022-01-05T14:14:36Z</time>
      </trkpt>
      <trkpt lat="49.86951" lon="2.45047">
        <ele>55.9</ele>
        <time>2022-01-05T14:14:37Z</time>
      </trkpt>
      <trkpt lat="49.86951" lon="2.45049">
        <ele>55.9</ele>
        <time>2022-01-05T14:14:40Z</time>
      </trkpt>
      <trkpt lat="49.86951" lon="2.45051">
        <ele>56</ele>
        <time>2022-01-05T14:14:41Z</time>
      </trkpt>
      <trkpt lat="49.86951" lon="2.45053">
        <ele>56</ele>
        <time>2022-01-05T14:14:42Z</time>
      </trkpt>
      <trkpt lat="49.86951" lon="2.45055">
        <ele>56</ele>
        <time>2022-01-05T14:14:43Z</time>
      </trkpt>
      <trkpt lat="49.86951" lon="2.45058">
        <ele>56</ele>
        <time>2022-01-05T14:14:44Z</time>
      </trkpt>
      <trkpt lat="49.86951" lon="2.45059">
        <ele>56</ele>
        <time>2022-01-05T14:14:45Z</time>
      </trkpt>
      <trkpt lat="49.86951" lon="2.4506">
        <ele>56</ele>
        <time>2022-01-05T14:14:46Z</time>
      </trkpt>
      <trkpt lat="49.86951" lon="2.45062">
        <ele>56</ele>
        <time>2022-01-05T14:14:47Z</time>
      </trkpt>
      <trkpt lat="49.86951" lon="2.45065">
        <ele>56</ele>
        <time>2022-01-05T14:14:49Z</time>
      </trkpt>
      <trkpt lat="49.86951" lon="2.45066">
        <ele>56</ele>
        <time>2022-01-05T14:14:50Z</time>
      </trkpt>
      <trkpt lat="49.86951" lon="2.45069">
        <ele>56.1</ele>
        <time>2022-01-05T14:14:51Z</time>
      </trkpt>
      <trkpt lat="49.86951" lon="2.45073">
        <ele>56.1</ele>
        <time>2022-01-05T14:14:52Z</time>
      </trkpt>
      <trkpt lat="49.86951" lon="2.45074">
        <ele>56.1</ele>
        <time>2022-01-05T14:14:54Z</time>
      </trkpt>
      <trkpt lat="49.86951" lon="2.45075">
        <ele>56.1</ele>
        <time>2022-01-05T14:14:55Z</time>
      </trkpt>
      <trkpt lat="49.8695" lon="2.45078">
        <ele>56.1</ele>
        <time>2022-01-05T14:14:56Z</time>
      </trkpt>
      <trkpt lat="49.8695" lon="2.45081">
        <ele>56.1</ele>
        <time>2022-01-05T14:14:58Z</time>
      </trkpt>
      <trkpt lat="49.8695" lon="2.45085">
        <ele>56.2</ele>
        <time>2022-01-05T14:15:00Z</time>
      </trkpt>
      <trkpt lat="49.8695" lon="2.45086">
        <ele>56.2</ele>
        <time>2022-01-05T14:15:01Z</time>
      </trkpt>
      <trkpt lat="49.8695" lon="2.45089">
        <ele>56.2</ele>
        <time>2022-01-05T14:15:02Z</time>
      </trkpt>
      <trkpt lat="49.8695" lon="2.45091">
        <ele>56.2</ele>
        <time>2022-01-05T14:15:03Z</time>
      </trkpt>
      <trkpt lat="49.8695" lon="2.45092">
        <ele>56.2</ele>
        <time>2022-01-05T14:15:04Z</time>
      </trkpt>
      <trkpt lat="49.8695" lon="2.45096">
        <ele>56.2</ele>
        <time>2022-01-05T14:15:05Z</time>
      </trkpt>
      <trkpt lat="49.8695" lon="2.45097">
        <ele>56.2</ele>
        <time>2022-01-05T14:15:07Z</time>
      </trkpt>
      <trkpt lat="49.8695" lon="2.45098">
        <ele>56.2</ele>
        <time>2022-01-05T14:15:08Z</time>
      </trkpt>
      <trkpt lat="49.8695" lon="2.45101">
        <ele>56.2</ele>
        <time>2022-01-05T14:15:09Z</time>
      </trkpt>
      <trkpt lat="49.86951" lon="2.45103">
        <ele>56.2</ele>
        <time>2022-01-05T14:15:10Z</time>
      </trkpt>
      <trkpt lat="49.86951" lon="2.45104">
        <ele>56.2</ele>
        <time>2022-01-05T14:15:11Z</time>
      </trkpt>
      <trkpt lat="49.86951" lon="2.45107">
        <ele>56.2</ele>
        <time>2022-01-05T14:15:13Z</time>
      </trkpt>
      <trkpt lat="49.86952" lon="2.45108">
        <ele>56.2</ele>
        <time>2022-01-05T14:15:14Z</time>
      </trkpt>
      <trkpt lat="49.86952" lon="2.45111">
        <ele>56.3</ele>
        <time>2022-01-05T14:15:15Z</time>
      </trkpt>
      <trkpt lat="49.86952" lon="2.45113">
        <ele>56.3</ele>
        <time>2022-01-05T14:15:16Z</time>
      </trkpt>
      <trkpt lat="49.86952" lon="2.45114">
        <ele>56.3</ele>
        <time>2022-01-05T14:15:17Z</time>
      </trkpt>
      <trkpt lat="49.86952" lon="2.45118">
        <ele>56.3</ele>
        <time>2022-01-05T14:15:19Z</time>
      </trkpt>
      <trkpt lat="49.86952" lon="2.45119">
        <ele>56.3</ele>
        <time>2022-01-05T14:15:20Z</time>
      </trkpt>
      <trkpt lat="49.86952" lon="2.4512">
        <ele>56.3</ele>
        <time>2022-01-05T14:15:21Z</time>
      </trkpt>
      <trkpt lat="49.86952" lon="2.45123">
        <ele>56.3</ele>
        <time>2022-01-05T14:15:22Z</time>
      </trkpt>
      <trkpt lat="49.86952" lon="2.45125">
        <ele>56.3</ele>
        <time>2022-01-05T14:15:23Z</time>
      </trkpt>
      <trkpt lat="49.86952" lon="2.45126">
        <ele>56.3</ele>
        <time>2022-01-05T14:15:24Z</time>
      </trkpt>
      <trkpt lat="49.86952" lon="2.45129">
        <ele>56.3</ele>
        <time>2022-01-05T14:15:26Z</time>
      </trkpt>
      <trkpt lat="49.86952" lon="2.45131">
        <ele>56.3</ele>
        <time>2022-01-05T14:15:27Z</time>
      </trkpt>
      <trkpt lat="49.86952" lon="2.45135">
        <ele>56.3</ele>
        <time>2022-01-05T14:15:28Z</time>
      </trkpt>
      <trkpt lat="49.86952" lon="2.45136">
        <ele>56.3</ele>
        <time>2022-01-05T14:15:30Z</time>
      </trkpt>
      <trkpt lat="49.86951" lon="2.45138">
        <ele>56.3</ele>
        <time>2022-01-05T14:15:31Z</time>
      </trkpt>
      <trkpt lat="49.86951" lon="2.45139">
        <ele>56.2</ele>
        <time>2022-01-05T14:15:32Z</time>
      </trkpt>
      <trkpt lat="49.86951" lon="2.45141">
        <ele>56.2</ele>
        <time>2022-01-05T14:15:33Z</time>
      </trkpt>
      <trkpt lat="49.86951" lon="2.45143">
        <ele>56.2</ele>
        <time>2022-01-05T14:15:34Z</time>
      </trkpt>
      <trkpt lat="49.86951" lon="2.45145">
        <ele>56.2</ele>
        <time>2022-01-05T14:15:35Z</time>
      </trkpt>
      <trkpt lat="49.86951" lon="2.45147">
        <ele>56.2</ele>
        <time>2022-01-05T14:15:36Z</time>
      </trkpt>
      <trkpt lat="49.86951" lon="2.45149">
        <ele>56.2</ele>
        <time>2022-01-05T14:15:37Z</time>
      </trkpt>
      <trkpt lat="49.86951" lon="2.45151">
        <ele>56.2</ele>
        <time>2022-01-05T14:15:39Z</time>
      </trkpt>
      <trkpt lat="49.86951" lon="2.45154">
        <ele>56.2</ele>
        <time>2022-01-05T14:15:40Z</time>
      </trkpt>
      <trkpt lat="49.86951" lon="2.45156">
        <ele>56.2</ele>
        <time>2022-01-05T14:15:41Z</time>
      </trkpt>
      <trkpt lat="49.86951" lon="2.4516">
        <ele>56.2</ele>
        <time>2022-01-05T14:15:42Z</time>
      </trkpt>
      <trkpt lat="49.86951" lon="2.45161">
        <ele>56.2</ele>
        <time>2022-01-05T14:15:44Z</time>
      </trkpt>
      <trkpt lat="49.86951" lon="2.45162">
        <ele>56.2</ele>
        <time>2022-01-05T14:15:45Z</time>
      </trkpt>
      <trkpt lat="49.86952" lon="2.45165">
        <ele>56.2</ele>
        <time>2022-01-05T14:15:46Z</time>
      </trkpt>
      <trkpt lat="49.86952" lon="2.45167">
        <ele>56.2</ele>
        <time>2022-01-05T14:15:47Z</time>
      </trkpt>
      <trkpt lat="49.86952" lon="2.4517">
        <ele>56.2</ele>
        <time>2022-01-05T14:15:49Z</time>
      </trkpt>
      <trkpt lat="49.86952" lon="2.45171">
        <ele>56.2</ele>
        <time>2022-01-05T14:15:50Z</time>
      </trkpt>
      <trkpt lat="49.86952" lon="2.45174">
        <ele>56.2</ele>
        <time>2022-01-05T14:15:51Z</time>
      </trkpt>
      <trkpt lat="49.86952" lon="2.45176">
        <ele>56.2</ele>
        <time>2022-01-05T14:15:52Z</time>
      </trkpt>
      <trkpt lat="49.86952" lon="2.45178">
        <ele>56.2</ele>
        <time>2022-01-05T14:15:54Z</time>
      </trkpt>
      <trkpt lat="49.86952" lon="2.45182">
        <ele>56.1</ele>
        <time>2022-01-05T14:15:55Z</time>
      </trkpt>
      <trkpt lat="49.86952" lon="2.45184">
        <ele>56.1</ele>
        <time>2022-01-05T14:15:57Z</time>
      </trkpt>
      <trkpt lat="49.86952" lon="2.45185">
        <ele>56.1</ele>
        <time>2022-01-05T14:15:58Z</time>
      </trkpt>
      <trkpt lat="49.86952" lon="2.45187">
        <ele>56.1</ele>
        <time>2022-01-05T14:15:59Z</time>
      </trkpt>
      <trkpt lat="49.86952" lon="2.45189">
        <ele>56.1</ele>
        <time>2022-01-05T14:16:00Z</time>
      </trkpt>
      <trkpt lat="49.86952" lon="2.45192">
        <ele>56.1</ele>
        <time>2022-01-05T14:16:01Z</time>
      </trkpt>
      <trkpt lat="49.86952" lon="2.45193">
        <ele>56.1</ele>
        <time>2022-01-05T14:16:02Z</time>
      </trkpt>
      <trkpt lat="49.86953" lon="2.45194">
        <ele>56.1</ele>
        <time>2022-01-05T14:16:03Z</time>
      </trkpt>
      <trkpt lat="49.86953" lon="2.45197">
        <ele>56.1</ele>
        <time>2022-01-05T14:16:05Z</time>
      </trkpt>
      <trkpt lat="49.86952" lon="2.452">
        <ele>56.1</ele>
        <time>2022-01-05T14:16:06Z</time>
      </trkpt>
      <trkpt lat="49.86952" lon="2.45203">
        <ele>56.1</ele>
        <time>2022-01-05T14:16:07Z</time>
      </trkpt>
      <trkpt lat="49.86952" lon="2.45204">
        <ele>56.1</ele>
        <time>2022-01-05T14:16:08Z</time>
      </trkpt>
      <trkpt lat="49.86952" lon="2.45206">
        <ele>56.1</ele>
        <time>2022-01-05T14:16:09Z</time>
      </trkpt>
      <trkpt lat="49.86952" lon="2.45207">
        <ele>56.1</ele>
        <time>2022-01-05T14:16:10Z</time>
      </trkpt>
      <trkpt lat="49.86952" lon="2.45209">
        <ele>56.1</ele>
        <time>2022-01-05T14:16:11Z</time>
      </trkpt>
      <trkpt lat="49.86952" lon="2.45211">
        <ele>56.1</ele>
        <time>2022-01-05T14:16:13Z</time>
      </trkpt>
      <trkpt lat="49.86952" lon="2.45213">
        <ele>56.1</ele>
        <time>2022-01-05T14:16:14Z</time>
      </trkpt>
      <trkpt lat="49.86952" lon="2.45216">
        <ele>56.1</ele>
        <time>2022-01-05T14:16:16Z</time>
      </trkpt>
      <trkpt lat="49.86952" lon="2.45218">
        <ele>56.1</ele>
        <time>2022-01-05T14:16:17Z</time>
      </trkpt>
      <trkpt lat="49.86952" lon="2.45221">
        <ele>56.1</ele>
        <time>2022-01-05T14:16:19Z</time>
      </trkpt>
      <trkpt lat="49.86952" lon="2.45223">
        <ele>56.1</ele>
        <time>2022-01-05T14:16:20Z</time>
      </trkpt>
      <trkpt lat="49.86952" lon="2.45224">
        <ele>56.1</ele>
        <time>2022-01-05T14:16:21Z</time>
      </trkpt>
      <trkpt lat="49.86952" lon="2.45226">
        <ele>56.1</ele>
        <time>2022-01-05T14:16:22Z</time>
      </trkpt>
      <trkpt lat="49.86952" lon="2.45228">
        <ele>56.1</ele>
        <time>2022-01-05T14:16:23Z</time>
      </trkpt>
      <trkpt lat="49.86952" lon="2.4523">
        <ele>56.1</ele>
        <time>2022-01-05T14:16:24Z</time>
      </trkpt>
      <trkpt lat="49.86953" lon="2.45233">
        <ele>56.1</ele>
        <time>2022-01-05T14:16:25Z</time>
      </trkpt>
      <trkpt lat="49.86953" lon="2.45234">
        <ele>56.1</ele>
        <time>2022-01-05T14:16:26Z</time>
      </trkpt>
      <trkpt lat="49.86953" lon="2.45237">
        <ele>56.1</ele>
        <time>2022-01-05T14:16:28Z</time>
      </trkpt>
      <trkpt lat="49.86953" lon="2.45239">
        <ele>56.1</ele>
        <time>2022-01-05T14:16:29Z</time>
      </trkpt>
      <trkpt lat="49.86953" lon="2.45241">
        <ele>56.1</ele>
        <time>2022-01-05T14:16:30Z</time>
      </trkpt>
      <trkpt lat="49.86953" lon="2.45243">
        <ele>56.1</ele>
        <time>2022-01-05T14:16:31Z</time>
      </trkpt>
      <trkpt lat="49.86953" lon="2.45244">
        <ele>56.1</ele>
        <time>2022-01-05T14:16:32Z</time>
      </trkpt>
      <trkpt lat="49.86953" lon="2.45246">
        <ele>56.1</ele>
        <time>2022-01-05T14:16:33Z</time>
      </trkpt>
      <trkpt lat="49.86953" lon="2.45248">
        <ele>56.1</ele>
        <time>2022-01-05T14:16:34Z</time>
      </trkpt>
      <trkpt lat="49.86953" lon="2.4525">
        <ele>56</ele>
        <time>2022-01-05T14:16:35Z</time>
      </trkpt>
      <trkpt lat="49.86953" lon="2.45252">
        <ele>56</ele>
        <time>2022-01-05T14:16:37Z</time>
      </trkpt>
      <trkpt lat="49.86953" lon="2.45254">
        <ele>56</ele>
        <time>2022-01-05T14:16:38Z</time>
      </trkpt>
      <trkpt lat="49.86953" lon="2.45256">
        <ele>56</ele>
        <time>2022-01-05T14:16:39Z</time>
      </trkpt>
      <trkpt lat="49.86953" lon="2.4526">
        <ele>56</ele>
        <time>2022-01-05T14:16:40Z</time>
      </trkpt>
      <trkpt lat="49.86953" lon="2.45262">
        <ele>56</ele>
        <time>2022-01-05T14:16:42Z</time>
      </trkpt>
      <trkpt lat="49.86953" lon="2.45264">
        <ele>56</ele>
        <time>2022-01-05T14:16:44Z</time>
      </trkpt>
      <trkpt lat="49.86953" lon="2.45266">
        <ele>56</ele>
        <time>2022-01-05T14:16:45Z</time>
      </trkpt>
      <trkpt lat="49.86953" lon="2.4527">
        <ele>56</ele>
        <time>2022-01-05T14:16:46Z</time>
      </trkpt>
      <trkpt lat="49.86953" lon="2.45271">
        <ele>56</ele>
        <time>2022-01-05T14:16:47Z</time>
      </trkpt>
      <trkpt lat="49.86953" lon="2.45272">
        <ele>56</ele>
        <time>2022-01-05T14:16:48Z</time>
      </trkpt>
      <trkpt lat="49.86954" lon="2.45274">
        <ele>56</ele>
        <time>2022-01-05T14:16:49Z</time>
      </trkpt>
      <trkpt lat="49.86954" lon="2.45276">
        <ele>56</ele>
        <time>2022-01-05T14:16:50Z</time>
      </trkpt>
      <trkpt lat="49.86954" lon="2.45278">
        <ele>56</ele>
        <time>2022-01-05T14:16:52Z</time>
      </trkpt>
      <trkpt lat="49.86954" lon="2.45281">
        <ele>56</ele>
        <time>2022-01-05T14:16:53Z</time>
      </trkpt>
      <trkpt lat="49.86954" lon="2.45282">
        <ele>56</ele>
        <time>2022-01-05T14:16:54Z</time>
      </trkpt>
      <trkpt lat="49.86954" lon="2.45284">
        <ele>56</ele>
        <time>2022-01-05T14:16:55Z</time>
      </trkpt>
      <trkpt lat="49.86954" lon="2.45288">
        <ele>55.9</ele>
        <time>2022-01-05T14:16:56Z</time>
      </trkpt>
      <trkpt lat="49.86954" lon="2.4529">
        <ele>55.9</ele>
        <time>2022-01-05T14:16:58Z</time>
      </trkpt>
      <trkpt lat="49.86954" lon="2.45292">
        <ele>55.9</ele>
        <time>2022-01-05T14:16:59Z</time>
      </trkpt>
      <trkpt lat="49.86954" lon="2.45293">
        <ele>55.9</ele>
        <time>2022-01-05T14:17:00Z</time>
      </trkpt>
      <trkpt lat="49.86954" lon="2.45295">
        <ele>55.9</ele>
        <time>2022-01-05T14:17:01Z</time>
      </trkpt>
      <trkpt lat="49.86954" lon="2.45299">
        <ele>55.9</ele>
        <time>2022-01-05T14:17:02Z</time>
      </trkpt>
      <trkpt lat="49.86954" lon="2.45301">
        <ele>55.9</ele>
        <time>2022-01-05T14:17:04Z</time>
      </trkpt>
      <trkpt lat="49.86954" lon="2.45303">
        <ele>55.9</ele>
        <time>2022-01-05T14:17:05Z</time>
      </trkpt>
      <trkpt lat="49.86954" lon="2.45304">
        <ele>55.9</ele>
        <time>2022-01-05T14:17:06Z</time>
      </trkpt>
      <trkpt lat="49.86954" lon="2.45306">
        <ele>55.9</ele>
        <time>2022-01-05T14:17:07Z</time>
      </trkpt>
      <trkpt lat="49.86954" lon="2.45309">
        <ele>55.9</ele>
        <time>2022-01-05T14:17:08Z</time>
      </trkpt>
      <trkpt lat="49.86954" lon="2.4531">
        <ele>55.9</ele>
        <time>2022-01-05T14:17:09Z</time>
      </trkpt>
      <trkpt lat="49.86954" lon="2.45312">
        <ele>55.9</ele>
        <time>2022-01-05T14:17:10Z</time>
      </trkpt>
      <trkpt lat="49.86954" lon="2.45315">
        <ele>55.9</ele>
        <time>2022-01-05T14:17:11Z</time>
      </trkpt>
      <trkpt lat="49.86955" lon="2.45316">
        <ele>55.9</ele>
        <time>2022-01-05T14:17:13Z</time>
      </trkpt>
      <trkpt lat="49.86955" lon="2.45318">
        <ele>55.9</ele>
        <time>2022-01-05T14:17:14Z</time>
      </trkpt>
      <trkpt lat="49.86955" lon="2.4532">
        <ele>55.9</ele>
        <time>2022-01-05T14:17:15Z</time>
      </trkpt>
      <trkpt lat="49.86955" lon="2.45323">
        <ele>55.9</ele>
        <time>2022-01-05T14:17:17Z</time>
      </trkpt>
      <trkpt lat="49.86955" lon="2.45325">
        <ele>55.9</ele>
        <time>2022-01-05T14:17:18Z</time>
      </trkpt>
      <trkpt lat="49.86955" lon="2.45327">
        <ele>55.9</ele>
        <time>2022-01-05T14:17:19Z</time>
      </trkpt>
      <trkpt lat="49.86955" lon="2.45329">
        <ele>55.9</ele>
        <time>2022-01-05T14:17:20Z</time>
      </trkpt>
      <trkpt lat="49.86954" lon="2.45331">
        <ele>56</ele>
        <time>2022-01-05T14:17:22Z</time>
      </trkpt>
      <trkpt lat="49.86954" lon="2.45333">
        <ele>56</ele>
        <time>2022-01-05T14:17:23Z</time>
      </trkpt>
      <trkpt lat="49.86955" lon="2.45336">
        <ele>56</ele>
        <time>2022-01-05T14:17:24Z</time>
      </trkpt>
      <trkpt lat="49.86955" lon="2.45338">
        <ele>56</ele>
        <time>2022-01-05T14:17:25Z</time>
      </trkpt>
      <trkpt lat="49.86955" lon="2.45341">
        <ele>56</ele>
        <time>2022-01-05T14:17:26Z</time>
      </trkpt>
      <trkpt lat="49.86955" lon="2.45343">
        <ele>56</ele>
        <time>2022-01-05T14:17:28Z</time>
      </trkpt>
      <trkpt lat="49.86956" lon="2.45344">
        <ele>56</ele>
        <time>2022-01-05T14:17:29Z</time>
      </trkpt>
      <trkpt lat="49.86956" lon="2.45347">
        <ele>56</ele>
        <time>2022-01-05T14:17:30Z</time>
      </trkpt>
      <trkpt lat="49.86956" lon="2.45349">
        <ele>56</ele>
        <time>2022-01-05T14:17:31Z</time>
      </trkpt>
      <trkpt lat="49.86956" lon="2.4535">
        <ele>56.1</ele>
        <time>2022-01-05T14:17:32Z</time>
      </trkpt>
      <trkpt lat="49.86956" lon="2.45352">
        <ele>56.1</ele>
        <time>2022-01-05T14:17:33Z</time>
      </trkpt>
      <trkpt lat="49.86956" lon="2.45354">
        <ele>56.1</ele>
        <time>2022-01-05T14:17:34Z</time>
      </trkpt>
      <trkpt lat="49.86956" lon="2.45356">
        <ele>56.1</ele>
        <time>2022-01-05T14:17:35Z</time>
      </trkpt>
      <trkpt lat="49.86956" lon="2.45359">
        <ele>56.1</ele>
        <time>2022-01-05T14:17:37Z</time>
      </trkpt>
      <trkpt lat="49.86955" lon="2.45361">
        <ele>56.1</ele>
        <time>2022-01-05T14:17:38Z</time>
      </trkpt>
      <trkpt lat="49.86955" lon="2.45362">
        <ele>56.1</ele>
        <time>2022-01-05T14:17:39Z</time>
      </trkpt>
      <trkpt lat="49.86955" lon="2.45366">
        <ele>56.1</ele>
        <time>2022-01-05T14:17:40Z</time>
      </trkpt>
      <trkpt lat="49.86955" lon="2.45368">
        <ele>56.1</ele>
        <time>2022-01-05T14:17:42Z</time>
      </trkpt>
      <trkpt lat="49.86955" lon="2.4537">
        <ele>56.1</ele>
        <time>2022-01-05T14:17:43Z</time>
      </trkpt>
      <trkpt lat="49.86955" lon="2.45372">
        <ele>56.1</ele>
        <time>2022-01-05T14:17:44Z</time>
      </trkpt>
      <trkpt lat="49.86955" lon="2.45374">
        <ele>56.1</ele>
        <time>2022-01-05T14:17:45Z</time>
      </trkpt>
      <trkpt lat="49.86955" lon="2.45376">
        <ele>56.1</ele>
        <time>2022-01-05T14:17:47Z</time>
      </trkpt>
      <trkpt lat="49.86955" lon="2.45378">
        <ele>56.1</ele>
        <time>2022-01-05T14:17:48Z</time>
      </trkpt>
      <trkpt lat="49.86955" lon="2.4538">
        <ele>56.1</ele>
        <time>2022-01-05T14:17:49Z</time>
      </trkpt>
      <trkpt lat="49.86956" lon="2.45382">
        <ele>56.1</ele>
        <time>2022-01-05T14:17:50Z</time>
      </trkpt>
      <trkpt lat="49.86956" lon="2.45385">
        <ele>56.1</ele>
        <time>2022-01-05T14:17:51Z</time>
      </trkpt>
      <trkpt lat="49.86956" lon="2.45387">
        <ele>56.1</ele>
        <time>2022-01-05T14:17:52Z</time>
      </trkpt>
      <trkpt lat="49.86957" lon="2.45388">
        <ele>56.1</ele>
        <time>2022-01-05T14:17:53Z</time>
      </trkpt>
      <trkpt lat="49.86957" lon="2.4539">
        <ele>56.1</ele>
        <time>2022-01-05T14:17:54Z</time>
      </trkpt>
      <trkpt lat="49.86957" lon="2.45392">
        <ele>56.1</ele>
        <time>2022-01-05T14:17:55Z</time>
      </trkpt>
      <trkpt lat="49.86957" lon="2.45394">
        <ele>56.1</ele>
        <time>2022-01-05T14:17:57Z</time>
      </trkpt>
      <trkpt lat="49.86957" lon="2.45397">
        <ele>56.1</ele>
        <time>2022-01-05T14:17:58Z</time>
      </trkpt>
      <trkpt lat="49.86957" lon="2.45399">
        <ele>56.1</ele>
        <time>2022-01-05T14:17:59Z</time>
      </trkpt>
      <trkpt lat="49.86957" lon="2.454">
        <ele>56.1</ele>
        <time>2022-01-05T14:18:00Z</time>
      </trkpt>
      <trkpt lat="49.86957" lon="2.45404">
        <ele>56.1</ele>
        <time>2022-01-05T14:18:02Z</time>
      </trkpt>
      <trkpt lat="49.86957" lon="2.45406">
        <ele>56.1</ele>
        <time>2022-01-05T14:18:03Z</time>
      </trkpt>
      <trkpt lat="49.86958" lon="2.45407">
        <ele>56.1</ele>
        <time>2022-01-05T14:18:04Z</time>
      </trkpt>
      <trkpt lat="49.86958" lon="2.45409">
        <ele>56.1</ele>
        <time>2022-01-05T14:18:06Z</time>
      </trkpt>
      <trkpt lat="49.86958" lon="2.45412">
        <ele>56.1</ele>
        <time>2022-01-05T14:18:07Z</time>
      </trkpt>
      <trkpt lat="49.86958" lon="2.45415">
        <ele>56.1</ele>
        <time>2022-01-05T14:18:09Z</time>
      </trkpt>
      <trkpt lat="49.86958" lon="2.45418">
        <ele>56.1</ele>
        <time>2022-01-05T14:18:11Z</time>
      </trkpt>
      <trkpt lat="49.86957" lon="2.45422">
        <ele>56.1</ele>
        <time>2022-01-05T14:18:12Z</time>
      </trkpt>
      <trkpt lat="49.86957" lon="2.45423">
        <ele>56.1</ele>
        <time>2022-01-05T14:18:13Z</time>
      </trkpt>
      <trkpt lat="49.86957" lon="2.45425">
        <ele>56.1</ele>
        <time>2022-01-05T14:18:14Z</time>
      </trkpt>
      <trkpt lat="49.86958" lon="2.45427">
        <ele>56</ele>
        <time>2022-01-05T14:18:15Z</time>
      </trkpt>
      <trkpt lat="49.86958" lon="2.45429">
        <ele>56</ele>
        <time>2022-01-05T14:18:16Z</time>
      </trkpt>
      <trkpt lat="49.86958" lon="2.45431">
        <ele>56</ele>
        <time>2022-01-05T14:18:17Z</time>
      </trkpt>
      <trkpt lat="49.86958" lon="2.45434">
        <ele>56</ele>
        <time>2022-01-05T14:18:19Z</time>
      </trkpt>
      <trkpt lat="49.86958" lon="2.45436">
        <ele>56</ele>
        <time>2022-01-05T14:18:20Z</time>
      </trkpt>
      <trkpt lat="49.86958" lon="2.45438">
        <ele>56</ele>
        <time>2022-01-05T14:18:22Z</time>
      </trkpt>
      <trkpt lat="49.86958" lon="2.4544">
        <ele>56</ele>
        <time>2022-01-05T14:18:23Z</time>
      </trkpt>
      <trkpt lat="49.86958" lon="2.45443">
        <ele>56</ele>
        <time>2022-01-05T14:18:24Z</time>
      </trkpt>
      <trkpt lat="49.86958" lon="2.45445">
        <ele>56</ele>
        <time>2022-01-05T14:18:25Z</time>
      </trkpt>
      <trkpt lat="49.86958" lon="2.45447">
        <ele>56</ele>
        <time>2022-01-05T14:18:26Z</time>
      </trkpt>
      <trkpt lat="49.86957" lon="2.4545">
        <ele>56</ele>
        <time>2022-01-05T14:18:28Z</time>
      </trkpt>
      <trkpt lat="49.86957" lon="2.45452">
        <ele>56</ele>
        <time>2022-01-05T14:18:29Z</time>
      </trkpt>
      <trkpt lat="49.86957" lon="2.45454">
        <ele>55.9</ele>
        <time>2022-01-05T14:18:30Z</time>
      </trkpt>
      <trkpt lat="49.86957" lon="2.45455">
        <ele>55.9</ele>
        <time>2022-01-05T14:18:32Z</time>
      </trkpt>
      <trkpt lat="49.86957" lon="2.45457">
        <ele>55.9</ele>
        <time>2022-01-05T14:18:33Z</time>
      </trkpt>
      <trkpt lat="49.86957" lon="2.45459">
        <ele>55.9</ele>
        <time>2022-01-05T14:18:34Z</time>
      </trkpt>
      <trkpt lat="49.86957" lon="2.45461">
        <ele>55.9</ele>
        <time>2022-01-05T14:18:35Z</time>
      </trkpt>
      <trkpt lat="49.86957" lon="2.45462">
        <ele>55.9</ele>
        <time>2022-01-05T14:18:36Z</time>
      </trkpt>
      <trkpt lat="49.86957" lon="2.45464">
        <ele>55.9</ele>
        <time>2022-01-05T14:18:37Z</time>
      </trkpt>
      <trkpt lat="49.86957" lon="2.45466">
        <ele>55.9</ele>
        <time>2022-01-05T14:18:38Z</time>
      </trkpt>
      <trkpt lat="49.86957" lon="2.45468">
        <ele>55.9</ele>
        <time>2022-01-05T14:18:39Z</time>
      </trkpt>
      <trkpt lat="49.86957" lon="2.45469">
        <ele>55.9</ele>
        <time>2022-01-05T14:18:40Z</time>
      </trkpt>
      <trkpt lat="49.86957" lon="2.45471">
        <ele>55.9</ele>
        <time>2022-01-05T14:18:42Z</time>
      </trkpt>
      <trkpt lat="49.86957" lon="2.45474">
        <ele>55.9</ele>
        <time>2022-01-05T14:18:44Z</time>
      </trkpt>
      <trkpt lat="49.86957" lon="2.45477">
        <ele>55.9</ele>
        <time>2022-01-05T14:18:45Z</time>
      </trkpt>
      <trkpt lat="49.86957" lon="2.45479">
        <ele>55.9</ele>
        <time>2022-01-05T14:18:46Z</time>
      </trkpt>
      <trkpt lat="49.86957" lon="2.4548">
        <ele>55.9</ele>
        <time>2022-01-05T14:18:47Z</time>
      </trkpt>
      <trkpt lat="49.86957" lon="2.45482">
        <ele>55.9</ele>
        <time>2022-01-05T14:18:48Z</time>
      </trkpt>
      <trkpt lat="49.86958" lon="2.45484">
        <ele>55.8</ele>
        <time>2022-01-05T14:18:50Z</time>
      </trkpt>
      <trkpt lat="49.86958" lon="2.45486">
        <ele>55.8</ele>
        <time>2022-01-05T14:18:51Z</time>
      </trkpt>
      <trkpt lat="49.86958" lon="2.45488">
        <ele>55.8</ele>
        <time>2022-01-05T14:18:52Z</time>
      </trkpt>
      <trkpt lat="49.86957" lon="2.45489">
        <ele>55.8</ele>
        <time>2022-01-05T14:18:53Z</time>
      </trkpt>
      <trkpt lat="49.86957" lon="2.45491">
        <ele>55.8</ele>
        <time>2022-01-05T14:18:54Z</time>
      </trkpt>
      <trkpt lat="49.86956" lon="2.45493">
        <ele>55.8</ele>
        <time>2022-01-05T14:18:55Z</time>
      </trkpt>
      <trkpt lat="49.86956" lon="2.45495">
        <ele>55.8</ele>
        <time>2022-01-05T14:18:57Z</time>
      </trkpt>
      <trkpt lat="49.86956" lon="2.45496">
        <ele>55.8</ele>
        <time>2022-01-05T14:18:58Z</time>
      </trkpt>
      <trkpt lat="49.86955" lon="2.45498">
        <ele>55.8</ele>
        <time>2022-01-05T14:18:59Z</time>
      </trkpt>
      <trkpt lat="49.86955" lon="2.455">
        <ele>55.8</ele>
        <time>2022-01-05T14:19:00Z</time>
      </trkpt>
      <trkpt lat="49.86955" lon="2.45502">
        <ele>55.8</ele>
        <time>2022-01-05T14:19:02Z</time>
      </trkpt>
      <trkpt lat="49.86954" lon="2.45504">
        <ele>55.8</ele>
        <time>2022-01-05T14:19:03Z</time>
      </trkpt>
      <trkpt lat="49.86953" lon="2.45505">
        <ele>55.8</ele>
        <time>2022-01-05T14:19:05Z</time>
      </trkpt>
      <trkpt lat="49.86952" lon="2.45506">
        <ele>55.8</ele>
        <time>2022-01-05T14:19:06Z</time>
      </trkpt>
      <trkpt lat="49.86951" lon="2.45507">
        <ele>55.7</ele>
        <time>2022-01-05T14:19:07Z</time>
      </trkpt>
      <trkpt lat="49.86951" lon="2.45509">
        <ele>55.7</ele>
        <time>2022-01-05T14:19:09Z</time>
      </trkpt>
      <trkpt lat="49.86951" lon="2.4551">
        <ele>55.7</ele>
        <time>2022-01-05T14:19:10Z</time>
      </trkpt>
      <trkpt lat="49.86951" lon="2.45511">
        <ele>55.7</ele>
        <time>2022-01-05T14:19:11Z</time>
      </trkpt>
      <trkpt lat="49.86951" lon="2.45513">
        <ele>55.7</ele>
        <time>2022-01-05T14:19:12Z</time>
      </trkpt>
      <trkpt lat="49.86951" lon="2.45515">
        <ele>55.7</ele>
        <time>2022-01-05T14:19:14Z</time>
      </trkpt>
      <trkpt lat="49.86952" lon="2.45516">
        <ele>55.7</ele>
        <time>2022-01-05T14:19:15Z</time>
      </trkpt>
      <trkpt lat="49.86952" lon="2.45517">
        <ele>55.7</ele>
        <time>2022-01-05T14:19:16Z</time>
      </trkpt>
      <trkpt lat="49.86952" lon="2.45519">
        <ele>55.7</ele>
        <time>2022-01-05T14:19:18Z</time>
      </trkpt>
      <trkpt lat="49.86952" lon="2.4552">
        <ele>55.7</ele>
        <time>2022-01-05T14:19:19Z</time>
      </trkpt>
      <trkpt lat="49.86952" lon="2.45522">
        <ele>55.8</ele>
        <time>2022-01-05T14:19:20Z</time>
      </trkpt>
      <trkpt lat="49.86952" lon="2.45523">
        <ele>55.8</ele>
        <time>2022-01-05T14:19:21Z</time>
      </trkpt>
      <trkpt lat="49.86953" lon="2.45525">
        <ele>55.8</ele>
        <time>2022-01-05T14:19:22Z</time>
      </trkpt>
      <trkpt lat="49.86953" lon="2.45526">
        <ele>55.8</ele>
        <time>2022-01-05T14:19:23Z</time>
      </trkpt>
      <trkpt lat="49.86953" lon="2.45529">
        <ele>55.8</ele>
        <time>2022-01-05T14:19:25Z</time>
      </trkpt>
      <trkpt lat="49.86953" lon="2.45531">
        <ele>55.8</ele>
        <time>2022-01-05T14:19:26Z</time>
      </trkpt>
      <trkpt lat="49.86953" lon="2.45532">
        <ele>55.9</ele>
        <time>2022-01-05T14:19:27Z</time>
      </trkpt>
      <trkpt lat="49.86953" lon="2.45534">
        <ele>56</ele>
        <time>2022-01-05T14:19:29Z</time>
      </trkpt>
      <trkpt lat="49.86953" lon="2.45535">
        <ele>55.9</ele>
        <time>2022-01-05T14:19:30Z</time>
      </trkpt>
      <trkpt lat="49.86953" lon="2.45536">
        <ele>55.9</ele>
        <time>2022-01-05T14:19:31Z</time>
      </trkpt>
      <trkpt lat="49.86955" lon="2.45534">
        <ele>55.9</ele>
        <time>2022-01-05T14:19:32Z</time>
      </trkpt>
      <trkpt lat="49.86956" lon="2.45534">
        <ele>55.9</ele>
        <time>2022-01-05T14:19:34Z</time>
      </trkpt>
      <trkpt lat="49.86956" lon="2.45534">
        <ele>55.9</ele>
        <time>2022-01-05T14:19:35Z</time>
      </trkpt>
      <trkpt lat="49.86956" lon="2.45535">
        <ele>55.9</ele>
        <time>2022-01-05T14:19:36Z</time>
      </trkpt>
      <trkpt lat="49.86956" lon="2.45537">
        <ele>55.9</ele>
        <time>2022-01-05T14:19:37Z</time>
      </trkpt>
      <trkpt lat="49.86956" lon="2.45539">
        <ele>55.9</ele>
        <time>2022-01-05T14:19:39Z</time>
      </trkpt>
      <trkpt lat="49.86956" lon="2.4554">
        <ele>55.9</ele>
        <time>2022-01-05T14:19:40Z</time>
      </trkpt>
      <trkpt lat="49.86955" lon="2.45543">
        <ele>55.9</ele>
        <time>2022-01-05T14:19:42Z</time>
      </trkpt>
      <trkpt lat="49.86955" lon="2.45544">
        <ele>55.9</ele>
        <time>2022-01-05T14:19:43Z</time>
      </trkpt>
      <trkpt lat="49.86954" lon="2.45545">
        <ele>55.9</ele>
        <time>2022-01-05T14:19:45Z</time>
      </trkpt>
      <trkpt lat="49.86954" lon="2.45546">
        <ele>55.9</ele>
        <time>2022-01-05T14:19:46Z</time>
      </trkpt>
      <trkpt lat="49.86954" lon="2.45546">
        <ele>55.9</ele>
        <time>2022-01-05T14:19:47Z</time>
      </trkpt>
      <trkpt lat="49.86954" lon="2.45547">
        <ele>55.9</ele>
        <time>2022-01-05T14:19:48Z</time>
      </trkpt>
      <trkpt lat="49.86954" lon="2.45546">
        <ele>55.9</ele>
        <time>2022-01-05T14:19:50Z</time>
      </trkpt>
      <trkpt lat="49.86954" lon="2.45547">
        <ele>55.9</ele>
        <time>2022-01-05T14:19:51Z</time>
      </trkpt>
      <trkpt lat="49.86954" lon="2.45547">
        <ele>55.9</ele>
        <time>2022-01-05T14:19:53Z</time>
      </trkpt>
      <trkpt lat="49.86953" lon="2.45546">
        <ele>55.9</ele>
        <time>2022-01-05T14:19:55Z</time>
      </trkpt>
      <trkpt lat="49.86953" lon="2.45545">
        <ele>55.9</ele>
        <time>2022-01-05T14:19:57Z</time>
      </trkpt>
      <trkpt lat="49.86953" lon="2.45545">
        <ele>55.9</ele>
        <time>2022-01-05T14:19:58Z</time>
      </trkpt>
      <trkpt lat="49.86953" lon="2.45544">
        <ele>55.9</ele>
        <time>2022-01-05T14:20:00Z</time>
      </trkpt>
      <trkpt lat="49.86953" lon="2.45543">
        <ele>55.9</ele>
        <time>2022-01-05T14:20:01Z</time>
      </trkpt>
      <trkpt lat="49.86953" lon="2.45543">
        <ele>55.9</ele>
        <time>2022-01-05T14:20:03Z</time>
      </trkpt>
      <trkpt lat="49.86953" lon="2.45543">
        <ele>55.9</ele>
        <time>2022-01-05T14:20:05Z</time>
      </trkpt>
      <trkpt lat="49.86953" lon="2.45543">
        <ele>55.9</ele>
        <time>2022-01-05T14:20:06Z</time>
      </trkpt>
      <trkpt lat="49.86953" lon="2.45542">
        <ele>55.9</ele>
        <time>2022-01-05T14:20:08Z</time>
      </trkpt>
      <trkpt lat="49.86954" lon="2.45542">
        <ele>55.9</ele>
        <time>2022-01-05T14:20:10Z</time>
      </trkpt>
      <trkpt lat="49.86954" lon="2.45542">
        <ele>55.9</ele>
        <time>2022-01-05T14:20:11Z</time>
      </trkpt>
      <trkpt lat="49.86954" lon="2.45542">
        <ele>55.9</ele>
        <time>2022-01-05T14:20:12Z</time>
      </trkpt>
      <trkpt lat="49.86954" lon="2.45542">
        <ele>55.9</ele>
        <time>2022-01-05T14:20:14Z</time>
      </trkpt>
      <trkpt lat="49.86954" lon="2.45542">
        <ele>55.9</ele>
        <time>2022-01-05T14:20:15Z</time>
      </trkpt>
      <trkpt lat="49.86954" lon="2.45542">
        <ele>55.9</ele>
        <time>2022-01-05T14:20:17Z</time>
      </trkpt>
      <trkpt lat="49.86954" lon="2.45542">
        <ele>55.9</ele>
        <time>2022-01-05T14:20:18Z</time>
      </trkpt>
      <trkpt lat="49.86954" lon="2.45542">
        <ele>55.9</ele>
        <time>2022-01-05T14:20:20Z</time>
      </trkpt>
      <trkpt lat="49.86954" lon="2.45542">
        <ele>55.9</ele>
        <time>2022-01-05T14:20:21Z</time>
      </trkpt>
      <trkpt lat="49.86954" lon="2.45542">
        <ele>55.9</ele>
        <time>2022-01-05T14:20:23Z</time>
      </trkpt>
      <trkpt lat="49.86954" lon="2.45542">
        <ele>55.9</ele>
        <time>2022-01-05T14:20:25Z</time>
      </trkpt>
      <trkpt lat="49.86954" lon="2.45542">
        <ele>55.9</ele>
        <time>2022-01-05T14:20:27Z</time>
      </trkpt>
      <trkpt lat="49.86954" lon="2.45542">
        <ele>55.9</ele>
        <time>2022-01-05T14:20:29Z</time>
      </trkpt>
      <trkpt lat="49.86954" lon="2.45542">
        <ele>55.9</ele>
        <time>2022-01-05T14:20:30Z</time>
      </trkpt>
      <trkpt lat="49.86954" lon="2.45542">
        <ele>55.9</ele>
        <time>2022-01-05T14:20:31Z</time>
      </trkpt>
      <trkpt lat="49.86954" lon="2.45542">
        <ele>55.9</ele>
        <time>2022-01-05T14:20:33Z</time>
      </trkpt>
      <trkpt lat="49.86954" lon="2.45542">
        <ele>55.9</ele>
        <time>2022-01-05T14:20:35Z</time>
      </trkpt>
      <trkpt lat="49.86954" lon="2.45542">
        <ele>55.9</ele>
        <time>2022-01-05T14:20:37Z</time>
      </trkpt>
      <trkpt lat="49.86954" lon="2.45542">
        <ele>55.9</ele>
        <time>2022-01-05T14:20:39Z</time>
      </trkpt>
      <trkpt lat="49.86954" lon="2.45542">
        <ele>55.9</ele>
        <time>2022-01-05T14:20:40Z</time>
      </trkpt>
      <trkpt lat="49.86954" lon="2.45542">
        <ele>55.9</ele>
        <time>2022-01-05T14:20:42Z</time>
      </trkpt>
      <trkpt lat="49.86954" lon="2.45542">
        <ele>55.9</ele>
        <time>2022-01-05T14:20:43Z</time>
      </trkpt>
      <trkpt lat="49.86954" lon="2.45542">
        <ele>55.9</ele>
        <time>2022-01-05T14:20:45Z</time>
      </trkpt>
      <trkpt lat="49.86954" lon="2.45542">
        <ele>55.9</ele>
        <time>2022-01-05T14:20:46Z</time>
      </trkpt>
      <trkpt lat="49.86954" lon="2.45542">
        <ele>55.9</ele>
        <time>2022-01-05T14:20:48Z</time>
      </trkpt>
      <trkpt lat="49.86954" lon="2.45542">
        <ele>55.9</ele>
        <time>2022-01-05T14:20:49Z</time>
      </trkpt>
      <trkpt lat="49.86954" lon="2.45542">
        <ele>55.9</ele>
        <time>2022-01-05T14:20:50Z</time>
      </trkpt>
      <trkpt lat="49.86954" lon="2.45542">
        <ele>55.9</ele>
        <time>2022-01-05T14:20:51Z</time>
      </trkpt>
      <trkpt lat="49.86954" lon="2.45542">
        <ele>55.9</ele>
        <time>2022-01-05T14:20:53Z</time>
      </trkpt>
      <trkpt lat="49.86954" lon="2.45542">
        <ele>55.9</ele>
        <time>2022-01-05T14:20:55Z</time>
      </trkpt>
      <trkpt lat="49.86954" lon="2.45542">
        <ele>55.9</ele>
        <time>2022-01-05T14:20:57Z</time>
      </trkpt>
      <trkpt lat="49.86954" lon="2.45542">
        <ele>55.9</ele>
        <time>2022-01-05T14:20:58Z</time>
      </trkpt>
      <trkpt lat="49.86954" lon="2.45542">
        <ele>55.9</ele>
        <time>2022-01-05T14:20:59Z</time>
      </trkpt>
      <trkpt lat="49.86954" lon="2.45542">
        <ele>55.9</ele>
        <time>2022-01-05T14:21:01Z</time>
      </trkpt>
      <trkpt lat="49.86954" lon="2.45542">
        <ele>55.9</ele>
        <time>2022-01-05T14:21:02Z</time>
      </trkpt>
      <trkpt lat="49.86954" lon="2.45542">
        <ele>55.9</ele>
        <time>2022-01-05T14:21:04Z</time>
      </trkpt>
      <trkpt lat="49.86954" lon="2.45542">
        <ele>55.9</ele>
        <time>2022-01-05T14:21:05Z</time>
      </trkpt>
      <trkpt lat="49.86954" lon="2.45542">
        <ele>55.9</ele>
        <time>2022-01-05T14:21:07Z</time>
      </trkpt>
      <trkpt lat="49.86954" lon="2.45542">
        <ele>55.9</ele>
        <time>2022-01-05T14:21:08Z</time>
      </trkpt>
      <trkpt lat="49.86953" lon="2.45544">
        <ele>55.9</ele>
        <time>2022-01-05T14:21:10Z</time>
      </trkpt>
      <trkpt lat="49.86952" lon="2.45545">
        <ele>55.9</ele>
        <time>2022-01-05T14:21:11Z</time>
      </trkpt>
      <trkpt lat="49.86949" lon="2.45545">
        <ele>55.9</ele>
        <time>2022-01-05T14:21:13Z</time>
      </trkpt>
      <trkpt lat="49.86947" lon="2.45545">
        <ele>55.9</ele>
        <time>2022-01-05T14:21:14Z</time>
      </trkpt>
      <trkpt lat="49.86946" lon="2.45546">
        <ele>55.8</ele>
        <time>2022-01-05T14:21:15Z</time>
      </trkpt>
      <trkpt lat="49.86943" lon="2.45548">
        <ele>55.8</ele>
        <time>2022-01-05T14:21:17Z</time>
      </trkpt>
      <trkpt lat="49.86942" lon="2.45548">
        <ele>55.7</ele>
        <time>2022-01-05T14:21:18Z</time>
      </trkpt>
      <trkpt lat="49.8694" lon="2.45549">
        <ele>55.7</ele>
        <time>2022-01-05T14:21:19Z</time>
      </trkpt>
      <trkpt lat="49.86939" lon="2.45551">
        <ele>55.7</ele>
        <time>2022-01-05T14:21:21Z</time>
      </trkpt>
      <trkpt lat="49.86938" lon="2.45551">
        <ele>55.6</ele>
        <time>2022-01-05T14:21:22Z</time>
      </trkpt>
      <trkpt lat="49.86937" lon="2.45552">
        <ele>55.6</ele>
        <time>2022-01-05T14:21:23Z</time>
      </trkpt>
      <trkpt lat="49.86935" lon="2.45553">
        <ele>55.6</ele>
        <time>2022-01-05T14:21:25Z</time>
      </trkpt>
      <trkpt lat="49.86933" lon="2.45554">
        <ele>55.5</ele>
        <time>2022-01-05T14:21:27Z</time>
      </trkpt>
      <trkpt lat="49.86932" lon="2.45554">
        <ele>55.5</ele>
        <time>2022-01-05T14:21:28Z</time>
      </trkpt>
      <trkpt lat="49.86931" lon="2.45554">
        <ele>55.5</ele>
        <time>2022-01-05T14:21:29Z</time>
      </trkpt>
      <trkpt lat="49.86929" lon="2.45554">
        <ele>55.4</ele>
        <time>2022-01-05T14:21:30Z</time>
      </trkpt>
      <trkpt lat="49.86927" lon="2.45555">
        <ele>55.4</ele>
        <time>2022-01-05T14:21:31Z</time>
      </trkpt>
      <trkpt lat="49.86926" lon="2.45555">
        <ele>55.4</ele>
        <time>2022-01-05T14:21:32Z</time>
      </trkpt>
      <trkpt lat="49.86924" lon="2.45556">
        <ele>55.3</ele>
        <time>2022-01-05T14:21:33Z</time>
      </trkpt>
      <trkpt lat="49.86923" lon="2.45557">
        <ele>55.3</ele>
        <time>2022-01-05T14:21:35Z</time>
      </trkpt>
      <trkpt lat="49.86921" lon="2.45558">
        <ele>55.3</ele>
        <time>2022-01-05T14:21:36Z</time>
      </trkpt>
      <trkpt lat="49.86919" lon="2.4556">
        <ele>55.2</ele>
        <time>2022-01-05T14:21:38Z</time>
      </trkpt>
      <trkpt lat="49.86917" lon="2.45561">
        <ele>55.2</ele>
        <time>2022-01-05T14:21:39Z</time>
      </trkpt>
      <trkpt lat="49.86916" lon="2.45562">
        <ele>55.2</ele>
        <time>2022-01-05T14:21:40Z</time>
      </trkpt>
      <trkpt lat="49.86915" lon="2.45563">
        <ele>55.2</ele>
        <time>2022-01-05T14:21:41Z</time>
      </trkpt>
      <trkpt lat="49.86913" lon="2.45564">
        <ele>55.1</ele>
        <time>2022-01-05T14:21:42Z</time>
      </trkpt>
      <trkpt lat="49.86913" lon="2.45565">
        <ele>55.1</ele>
        <time>2022-01-05T14:21:44Z</time>
      </trkpt>
      <trkpt lat="49.86912" lon="2.45566">
        <ele>55.1</ele>
        <time>2022-01-05T14:21:45Z</time>
      </trkpt>
      <trkpt lat="49.8691" lon="2.45567">
        <ele>55.1</ele>
        <time>2022-01-05T14:21:47Z</time>
      </trkpt>
      <trkpt lat="49.86909" lon="2.45568">
        <ele>55.1</ele>
        <time>2022-01-05T14:21:48Z</time>
      </trkpt>
      <trkpt lat="49.86907" lon="2.45569">
        <ele>55.1</ele>
        <time>2022-01-05T14:21:49Z</time>
      </trkpt>
      <trkpt lat="49.86905" lon="2.45569">
        <ele>55</ele>
        <time>2022-01-05T14:21:50Z</time>
      </trkpt>
      <trkpt lat="49.86903" lon="2.4557">
        <ele>55</ele>
        <time>2022-01-05T14:21:51Z</time>
      </trkpt>
      <trkpt lat="49.86903" lon="2.45571">
        <ele>55</ele>
        <time>2022-01-05T14:21:53Z</time>
      </trkpt>
      <trkpt lat="49.86902" lon="2.45571">
        <ele>55</ele>
        <time>2022-01-05T14:21:54Z</time>
      </trkpt>
      <trkpt lat="49.869" lon="2.45572">
        <ele>55</ele>
        <time>2022-01-05T14:21:55Z</time>
      </trkpt>
      <trkpt lat="49.86899" lon="2.45572">
        <ele>55</ele>
        <time>2022-01-05T14:21:56Z</time>
      </trkpt>
      <trkpt lat="49.86898" lon="2.45573">
        <ele>55</ele>
        <time>2022-01-05T14:21:57Z</time>
      </trkpt>
      <trkpt lat="49.86897" lon="2.45573">
        <ele>54.9</ele>
        <time>2022-01-05T14:21:59Z</time>
      </trkpt>
      <trkpt lat="49.86896" lon="2.45574">
        <ele>54.9</ele>
        <time>2022-01-05T14:22:00Z</time>
      </trkpt>
      <trkpt lat="49.86895" lon="2.45574">
        <ele>54.9</ele>
        <time>2022-01-05T14:22:01Z</time>
      </trkpt>
      <trkpt lat="49.86893" lon="2.45575">
        <ele>54.9</ele>
        <time>2022-01-05T14:22:02Z</time>
      </trkpt>
      <trkpt lat="49.86891" lon="2.45576">
        <ele>54.9</ele>
        <time>2022-01-05T14:22:04Z</time>
      </trkpt>
      <trkpt lat="49.86889" lon="2.45577">
        <ele>54.9</ele>
        <time>2022-01-05T14:22:06Z</time>
      </trkpt>
      <trkpt lat="49.86888" lon="2.45577">
        <ele>54.9</ele>
        <time>2022-01-05T14:22:07Z</time>
      </trkpt>
      <trkpt lat="49.86886" lon="2.45577">
        <ele>54.9</ele>
        <time>2022-01-05T14:22:08Z</time>
      </trkpt>
      <trkpt lat="49.86884" lon="2.45579">
        <ele>54.9</ele>
        <time>2022-01-05T14:22:10Z</time>
      </trkpt>
      <trkpt lat="49.86884" lon="2.45579">
        <ele>54.9</ele>
        <time>2022-01-05T14:22:11Z</time>
      </trkpt>
      <trkpt lat="49.86883" lon="2.45579">
        <ele>54.9</ele>
        <time>2022-01-05T14:22:12Z</time>
      </trkpt>
      <trkpt lat="49.86882" lon="2.4558">
        <ele>54.9</ele>
        <time>2022-01-05T14:22:13Z</time>
      </trkpt>
      <trkpt lat="49.86881" lon="2.4558">
        <ele>54.9</ele>
        <time>2022-01-05T14:22:14Z</time>
      </trkpt>
      <trkpt lat="49.8688" lon="2.45581">
        <ele>54.9</ele>
        <time>2022-01-05T14:22:15Z</time>
      </trkpt>
      <trkpt lat="49.86879" lon="2.45581">
        <ele>54.9</ele>
        <time>2022-01-05T14:22:16Z</time>
      </trkpt>
      <trkpt lat="49.86878" lon="2.45581">
        <ele>54.9</ele>
        <time>2022-01-05T14:22:17Z</time>
      </trkpt>
      <trkpt lat="49.86876" lon="2.45581">
        <ele>54.9</ele>
        <time>2022-01-05T14:22:19Z</time>
      </trkpt>
      <trkpt lat="49.86875" lon="2.45581">
        <ele>54.9</ele>
        <time>2022-01-05T14:22:20Z</time>
      </trkpt>
      <trkpt lat="49.86874" lon="2.45581">
        <ele>54.9</ele>
        <time>2022-01-05T14:22:21Z</time>
      </trkpt>
      <trkpt lat="49.86872" lon="2.45582">
        <ele>55</ele>
        <time>2022-01-05T14:22:22Z</time>
      </trkpt>
      <trkpt lat="49.86871" lon="2.45582">
        <ele>55</ele>
        <time>2022-01-05T14:22:23Z</time>
      </trkpt>
      <trkpt lat="49.8687" lon="2.45583">
        <ele>55</ele>
        <time>2022-01-05T14:22:25Z</time>
      </trkpt>
      <trkpt lat="49.86869" lon="2.45583">
        <ele>55</ele>
        <time>2022-01-05T14:22:26Z</time>
      </trkpt>
      <trkpt lat="49.86868" lon="2.45584">
        <ele>55</ele>
        <time>2022-01-05T14:22:27Z</time>
      </trkpt>
      <trkpt lat="49.86866" lon="2.45584">
        <ele>55</ele>
        <time>2022-01-05T14:22:28Z</time>
      </trkpt>
      <trkpt lat="49.86865" lon="2.45585">
        <ele>55</ele>
        <time>2022-01-05T14:22:30Z</time>
      </trkpt>
      <trkpt lat="49.86864" lon="2.45585">
        <ele>55</ele>
        <time>2022-01-05T14:22:31Z</time>
      </trkpt>
      <trkpt lat="49.86863" lon="2.45586">
        <ele>55.1</ele>
        <time>2022-01-05T14:22:32Z</time>
      </trkpt>
      <trkpt lat="49.86862" lon="2.45586">
        <ele>55.1</ele>
        <time>2022-01-05T14:22:33Z</time>
      </trkpt>
      <trkpt lat="49.86861" lon="2.45587">
        <ele>55.1</ele>
        <time>2022-01-05T14:22:34Z</time>
      </trkpt>
      <trkpt lat="49.8686" lon="2.45587">
        <ele>55.1</ele>
        <time>2022-01-05T14:22:35Z</time>
      </trkpt>
      <trkpt lat="49.86858" lon="2.45588">
        <ele>55.1</ele>
        <time>2022-01-05T14:22:36Z</time>
      </trkpt>
      <trkpt lat="49.86857" lon="2.45589">
        <ele>55.2</ele>
        <time>2022-01-05T14:22:37Z</time>
      </trkpt>
      <trkpt lat="49.86856" lon="2.45589">
        <ele>55.2</ele>
        <time>2022-01-05T14:22:39Z</time>
      </trkpt>
      <trkpt lat="49.86855" lon="2.4559">
        <ele>55.2</ele>
        <time>2022-01-05T14:22:40Z</time>
      </trkpt>
      <trkpt lat="49.86854" lon="2.4559">
        <ele>55.2</ele>
        <time>2022-01-05T14:22:41Z</time>
      </trkpt>
      <trkpt lat="49.86853" lon="2.45591">
        <ele>55.2</ele>
        <time>2022-01-05T14:22:42Z</time>
      </trkpt>
      <trkpt lat="49.86852" lon="2.45592">
        <ele>55.3</ele>
        <time>2022-01-05T14:22:44Z</time>
      </trkpt>
      <trkpt lat="49.86851" lon="2.45593">
        <ele>55.3</ele>
        <time>2022-01-05T14:22:45Z</time>
      </trkpt>
      <trkpt lat="49.86849" lon="2.45594">
        <ele>55.3</ele>
        <time>2022-01-05T14:22:46Z</time>
      </trkpt>
      <trkpt lat="49.86848" lon="2.45595">
        <ele>55.4</ele>
        <time>2022-01-05T14:22:47Z</time>
      </trkpt>
      <trkpt lat="49.86847" lon="2.45595">
        <ele>55.4</ele>
        <time>2022-01-05T14:22:49Z</time>
      </trkpt>
      <trkpt lat="49.86846" lon="2.45596">
        <ele>55.4</ele>
        <time>2022-01-05T14:22:50Z</time>
      </trkpt>
      <trkpt lat="49.86845" lon="2.45597">
        <ele>55.5</ele>
        <time>2022-01-05T14:22:51Z</time>
      </trkpt>
      <trkpt lat="49.86843" lon="2.45598">
        <ele>55.5</ele>
        <time>2022-01-05T14:22:52Z</time>
      </trkpt>
      <trkpt lat="49.86842" lon="2.45599">
        <ele>55.5</ele>
        <time>2022-01-05T14:22:53Z</time>
      </trkpt>
      <trkpt lat="49.86841" lon="2.45599">
        <ele>55.6</ele>
        <time>2022-01-05T14:22:54Z</time>
      </trkpt>
      <trkpt lat="49.8684" lon="2.456">
        <ele>55.6</ele>
        <time>2022-01-05T14:22:55Z</time>
      </trkpt>
      <trkpt lat="49.86839" lon="2.456">
        <ele>55.6</ele>
        <time>2022-01-05T14:22:56Z</time>
      </trkpt>
      <trkpt lat="49.86837" lon="2.45601">
        <ele>55.7</ele>
        <time>2022-01-05T14:22:58Z</time>
      </trkpt>
      <trkpt lat="49.86836" lon="2.45601">
        <ele>55.7</ele>
        <time>2022-01-05T14:22:59Z</time>
      </trkpt>
      <trkpt lat="49.86835" lon="2.45602">
        <ele>55.8</ele>
        <time>2022-01-05T14:23:00Z</time>
      </trkpt>
      <trkpt lat="49.86833" lon="2.45603">
        <ele>55.8</ele>
        <time>2022-01-05T14:23:01Z</time>
      </trkpt>
      <trkpt lat="49.86832" lon="2.45603">
        <ele>55.9</ele>
        <time>2022-01-05T14:23:02Z</time>
      </trkpt>
      <trkpt lat="49.86831" lon="2.45604">
        <ele>55.9</ele>
        <time>2022-01-05T14:23:03Z</time>
      </trkpt>
      <trkpt lat="49.8683" lon="2.45605">
        <ele>55.9</ele>
        <time>2022-01-05T14:23:04Z</time>
      </trkpt>
      <trkpt lat="49.86828" lon="2.45605">
        <ele>56</ele>
        <time>2022-01-05T14:23:06Z</time>
      </trkpt>
      <trkpt lat="49.86827" lon="2.45606">
        <ele>56</ele>
        <time>2022-01-05T14:23:07Z</time>
      </trkpt>
      <trkpt lat="49.86825" lon="2.45608">
        <ele>56.1</ele>
        <time>2022-01-05T14:23:08Z</time>
      </trkpt>
      <trkpt lat="49.86825" lon="2.45609">
        <ele>56.1</ele>
        <time>2022-01-05T14:23:09Z</time>
      </trkpt>
      <trkpt lat="49.86824" lon="2.45609">
        <ele>56.2</ele>
        <time>2022-01-05T14:23:11Z</time>
      </trkpt>
      <trkpt lat="49.86823" lon="2.4561">
        <ele>56.2</ele>
        <time>2022-01-05T14:23:12Z</time>
      </trkpt>
      <trkpt lat="49.86822" lon="2.4561">
        <ele>56.3</ele>
        <time>2022-01-05T14:23:13Z</time>
      </trkpt>
      <trkpt lat="49.8682" lon="2.45611">
        <ele>56.3</ele>
        <time>2022-01-05T14:23:14Z</time>
      </trkpt>
      <trkpt lat="49.86819" lon="2.45612">
        <ele>56.4</ele>
        <time>2022-01-05T14:23:15Z</time>
      </trkpt>
      <trkpt lat="49.86818" lon="2.45613">
        <ele>56.4</ele>
        <time>2022-01-05T14:23:16Z</time>
      </trkpt>
      <trkpt lat="49.86817" lon="2.45613">
        <ele>56.5</ele>
        <time>2022-01-05T14:23:17Z</time>
      </trkpt>
      <trkpt lat="49.86815" lon="2.45614">
        <ele>56.5</ele>
        <time>2022-01-05T14:23:18Z</time>
      </trkpt>
      <trkpt lat="49.86814" lon="2.45615">
        <ele>56.6</ele>
        <time>2022-01-05T14:23:19Z</time>
      </trkpt>
      <trkpt lat="49.86813" lon="2.45615">
        <ele>56.6</ele>
        <time>2022-01-05T14:23:20Z</time>
      </trkpt>
      <trkpt lat="49.86812" lon="2.45616">
        <ele>56.6</ele>
        <time>2022-01-05T14:23:22Z</time>
      </trkpt>
      <trkpt lat="49.86811" lon="2.45616">
        <ele>56.7</ele>
        <time>2022-01-05T14:23:23Z</time>
      </trkpt>
      <trkpt lat="49.8681" lon="2.45617">
        <ele>56.7</ele>
        <time>2022-01-05T14:23:24Z</time>
      </trkpt>
      <trkpt lat="49.86809" lon="2.45617">
        <ele>56.8</ele>
        <time>2022-01-05T14:23:25Z</time>
      </trkpt>
      <trkpt lat="49.86808" lon="2.45618">
        <ele>56.8</ele>
        <time>2022-01-05T14:23:26Z</time>
      </trkpt>
      <trkpt lat="49.86807" lon="2.45618">
        <ele>56.9</ele>
        <time>2022-01-05T14:23:27Z</time>
      </trkpt>
      <trkpt lat="49.86805" lon="2.45619">
        <ele>56.9</ele>
        <time>2022-01-05T14:23:28Z</time>
      </trkpt>
      <trkpt lat="49.86804" lon="2.45619">
        <ele>57</ele>
        <time>2022-01-05T14:23:30Z</time>
      </trkpt>
      <trkpt lat="49.86803" lon="2.45619">
        <ele>57</ele>
        <time>2022-01-05T14:23:31Z</time>
      </trkpt>
      <trkpt lat="49.86801" lon="2.4562">
        <ele>57.1</ele>
        <time>2022-01-05T14:23:33Z</time>
      </trkpt>
      <trkpt lat="49.868" lon="2.4562">
        <ele>57.1</ele>
        <time>2022-01-05T14:23:35Z</time>
      </trkpt>
      <trkpt lat="49.86799" lon="2.4562">
        <ele>57.2</ele>
        <time>2022-01-05T14:23:36Z</time>
      </trkpt>
      <trkpt lat="49.86797" lon="2.45619">
        <ele>57.2</ele>
        <time>2022-01-05T14:23:37Z</time>
      </trkpt>
      <trkpt lat="49.86796" lon="2.45619">
        <ele>57.3</ele>
        <time>2022-01-05T14:23:38Z</time>
      </trkpt>
      <trkpt lat="49.86796" lon="2.45619">
        <ele>57.3</ele>
        <time>2022-01-05T14:23:39Z</time>
      </trkpt>
      <trkpt lat="49.86794" lon="2.45618">
        <ele>57.4</ele>
        <time>2022-01-05T14:23:40Z</time>
      </trkpt>
      <trkpt lat="49.86793" lon="2.45618">
        <ele>57.4</ele>
        <time>2022-01-05T14:23:41Z</time>
      </trkpt>
      <trkpt lat="49.86792" lon="2.45618">
        <ele>57.4</ele>
        <time>2022-01-05T14:23:42Z</time>
      </trkpt>
      <trkpt lat="49.8679" lon="2.45617">
        <ele>57.5</ele>
        <time>2022-01-05T14:23:44Z</time>
      </trkpt>
      <trkpt lat="49.86789" lon="2.45617">
        <ele>57.5</ele>
        <time>2022-01-05T14:23:45Z</time>
      </trkpt>
      <trkpt lat="49.86787" lon="2.45616">
        <ele>57.6</ele>
        <time>2022-01-05T14:23:46Z</time>
      </trkpt>
      <trkpt lat="49.86786" lon="2.45615">
        <ele>57.8</ele>
        <time>2022-01-05T14:23:47Z</time>
      </trkpt>
      <trkpt lat="49.86785" lon="2.45614">
        <ele>57.8</ele>
        <time>2022-01-05T14:23:48Z</time>
      </trkpt>
      <trkpt lat="49.86784" lon="2.45612">
        <ele>57.8</ele>
        <time>2022-01-05T14:23:49Z</time>
      </trkpt>
      <trkpt lat="49.86783" lon="2.45611">
        <ele>57.8</ele>
        <time>2022-01-05T14:23:50Z</time>
      </trkpt>
      <trkpt lat="49.86782" lon="2.4561">
        <ele>57.8</ele>
        <time>2022-01-05T14:23:51Z</time>
      </trkpt>
      <trkpt lat="49.86781" lon="2.45608">
        <ele>57.8</ele>
        <time>2022-01-05T14:23:53Z</time>
      </trkpt>
      <trkpt lat="49.86781" lon="2.45605">
        <ele>57.8</ele>
        <time>2022-01-05T14:23:54Z</time>
      </trkpt>
      <trkpt lat="49.86781" lon="2.45603">
        <ele>57.8</ele>
        <time>2022-01-05T14:23:55Z</time>
      </trkpt>
      <trkpt lat="49.86781" lon="2.45602">
        <ele>57.8</ele>
        <time>2022-01-05T14:23:56Z</time>
      </trkpt>
      <trkpt lat="49.86781" lon="2.45601">
        <ele>57.8</ele>
        <time>2022-01-05T14:23:57Z</time>
      </trkpt>
      <trkpt lat="49.86781" lon="2.45599">
        <ele>57.7</ele>
        <time>2022-01-05T14:23:58Z</time>
      </trkpt>
      <trkpt lat="49.86781" lon="2.45597">
        <ele>57.7</ele>
        <time>2022-01-05T14:24:00Z</time>
      </trkpt>
      <trkpt lat="49.86781" lon="2.45596">
        <ele>57.7</ele>
        <time>2022-01-05T14:24:01Z</time>
      </trkpt>
      <trkpt lat="49.86781" lon="2.45595">
        <ele>57.7</ele>
        <time>2022-01-05T14:24:02Z</time>
      </trkpt>
      <trkpt lat="49.8678" lon="2.45594">
        <ele>57.7</ele>
        <time>2022-01-05T14:24:04Z</time>
      </trkpt>
      <trkpt lat="49.86779" lon="2.45593">
        <ele>57.7</ele>
        <time>2022-01-05T14:24:05Z</time>
      </trkpt>
      <trkpt lat="49.86779" lon="2.45592">
        <ele>57.7</ele>
        <time>2022-01-05T14:24:06Z</time>
      </trkpt>
      <trkpt lat="49.86779" lon="2.45592">
        <ele>57.7</ele>
        <time>2022-01-05T14:24:07Z</time>
      </trkpt>
      <trkpt lat="49.86779" lon="2.45592">
        <ele>57.7</ele>
        <time>2022-01-05T14:24:08Z</time>
      </trkpt>
      <trkpt lat="49.86779" lon="2.45592">
        <ele>57.7</ele>
        <time>2022-01-05T14:24:09Z</time>
      </trkpt>
      <trkpt lat="49.86778" lon="2.45591">
        <ele>57.7</ele>
        <time>2022-01-05T14:24:11Z</time>
      </trkpt>
      <trkpt lat="49.86778" lon="2.45591">
        <ele>57.7</ele>
        <time>2022-01-05T14:24:12Z</time>
      </trkpt>
      <trkpt lat="49.86778" lon="2.45589">
        <ele>57.7</ele>
        <time>2022-01-05T14:24:14Z</time>
      </trkpt>
      <trkpt lat="49.86778" lon="2.45588">
        <ele>57.7</ele>
        <time>2022-01-05T14:24:15Z</time>
      </trkpt>
      <trkpt lat="49.86777" lon="2.45587">
        <ele>57.7</ele>
        <time>2022-01-05T14:24:17Z</time>
      </trkpt>
      <trkpt lat="49.86777" lon="2.45587">
        <ele>57.7</ele>
        <time>2022-01-05T14:24:18Z</time>
      </trkpt>
      <trkpt lat="49.86777" lon="2.45587">
        <ele>57.7</ele>
        <time>2022-01-05T14:24:20Z</time>
      </trkpt>
      <trkpt lat="49.86778" lon="2.45588">
        <ele>57.7</ele>
        <time>2022-01-05T14:24:22Z</time>
      </trkpt>
      <trkpt lat="49.86778" lon="2.45589">
        <ele>57.7</ele>
        <time>2022-01-05T14:24:23Z</time>
      </trkpt>
      <trkpt lat="49.86779" lon="2.4559">
        <ele>57.7</ele>
        <time>2022-01-05T14:24:25Z</time>
      </trkpt>
      <trkpt lat="49.86779" lon="2.45591">
        <ele>57.7</ele>
        <time>2022-01-05T14:24:26Z</time>
      </trkpt>
      <trkpt lat="49.8678" lon="2.45592">
        <ele>57.7</ele>
        <time>2022-01-05T14:24:27Z</time>
      </trkpt>
      <trkpt lat="49.86782" lon="2.45592">
        <ele>57.7</ele>
        <time>2022-01-05T14:24:28Z</time>
      </trkpt>
      <trkpt lat="49.86782" lon="2.45592">
        <ele>57.7</ele>
        <time>2022-01-05T14:24:30Z</time>
      </trkpt>
      <trkpt lat="49.86784" lon="2.45594">
        <ele>57.7</ele>
        <time>2022-01-05T14:24:31Z</time>
      </trkpt>
      <trkpt lat="49.86784" lon="2.45595">
        <ele>57.7</ele>
        <time>2022-01-05T14:24:32Z</time>
      </trkpt>
      <trkpt lat="49.86785" lon="2.45596">
        <ele>57.7</ele>
        <time>2022-01-05T14:24:33Z</time>
      </trkpt>
      <trkpt lat="49.86786" lon="2.45597">
        <ele>57.7</ele>
        <time>2022-01-05T14:24:35Z</time>
      </trkpt>
      <trkpt lat="49.86787" lon="2.45599">
        <ele>57.8</ele>
        <time>2022-01-05T14:24:36Z</time>
      </trkpt>
      <trkpt lat="49.86787" lon="2.45601">
        <ele>57.8</ele>
        <time>2022-01-05T14:24:38Z</time>
      </trkpt>
      <trkpt lat="49.86787" lon="2.45602">
        <ele>57.8</ele>
        <time>2022-01-05T14:24:40Z</time>
      </trkpt>
      <trkpt lat="49.86787" lon="2.45602">
        <ele>57.8</ele>
        <time>2022-01-05T14:24:41Z</time>
      </trkpt>
      <trkpt lat="49.86787" lon="2.45601">
        <ele>57.8</ele>
        <time>2022-01-05T14:24:42Z</time>
      </trkpt>
      <trkpt lat="49.86788" lon="2.45599">
        <ele>57.8</ele>
        <time>2022-01-05T14:24:43Z</time>
      </trkpt>
      <trkpt lat="49.86788" lon="2.45597">
        <ele>57.8</ele>
        <time>2022-01-05T14:24:45Z</time>
      </trkpt>
      <trkpt lat="49.86789" lon="2.45595">
        <ele>57.8</ele>
        <time>2022-01-05T14:24:46Z</time>
      </trkpt>
      <trkpt lat="49.86789" lon="2.45592">
        <ele>57.8</ele>
        <time>2022-01-05T14:24:47Z</time>
      </trkpt>
      <trkpt lat="49.86789" lon="2.45589">
        <ele>57.9</ele>
        <time>2022-01-05T14:24:48Z</time>
      </trkpt>
      <trkpt lat="49.86789" lon="2.45586">
        <ele>57.9</ele>
        <time>2022-01-05T14:24:50Z</time>
      </trkpt>
      <trkpt lat="49.86789" lon="2.45583">
        <ele>57.9</ele>
        <time>2022-01-05T14:24:51Z</time>
      </trkpt>
      <trkpt lat="49.86789" lon="2.45581">
        <ele>57.9</ele>
        <time>2022-01-05T14:24:52Z</time>
      </trkpt>
      <trkpt lat="49.86789" lon="2.45579">
        <ele>58</ele>
        <time>2022-01-05T14:24:54Z</time>
      </trkpt>
      <trkpt lat="49.86788" lon="2.45578">
        <ele>58</ele>
        <time>2022-01-05T14:24:55Z</time>
      </trkpt>
      <trkpt lat="49.86788" lon="2.45577">
        <ele>58</ele>
        <time>2022-01-05T14:24:57Z</time>
      </trkpt>
      <trkpt lat="49.86787" lon="2.45575">
        <ele>58</ele>
        <time>2022-01-05T14:24:58Z</time>
      </trkpt>
      <trkpt lat="49.86787" lon="2.45574">
        <ele>58</ele>
        <time>2022-01-05T14:24:59Z</time>
      </trkpt>
      <trkpt lat="49.86787" lon="2.45573">
        <ele>58</ele>
        <time>2022-01-05T14:25:00Z</time>
      </trkpt>
      <trkpt lat="49.86786" lon="2.45572">
        <ele>58</ele>
        <time>2022-01-05T14:25:01Z</time>
      </trkpt>
      <trkpt lat="49.86786" lon="2.45571">
        <ele>58</ele>
        <time>2022-01-05T14:25:02Z</time>
      </trkpt>
      <trkpt lat="49.86785" lon="2.45569">
        <ele>58.1</ele>
        <time>2022-01-05T14:25:03Z</time>
      </trkpt>
      <trkpt lat="49.86784" lon="2.45568">
        <ele>58.1</ele>
        <time>2022-01-05T14:25:04Z</time>
      </trkpt>
      <trkpt lat="49.86783" lon="2.45565">
        <ele>58.1</ele>
        <time>2022-01-05T14:25:06Z</time>
      </trkpt>
      <trkpt lat="49.86782" lon="2.45561">
        <ele>58.2</ele>
        <time>2022-01-05T14:25:08Z</time>
      </trkpt>
      <trkpt lat="49.86782" lon="2.45558">
        <ele>58.2</ele>
        <time>2022-01-05T14:25:09Z</time>
      </trkpt>
      <trkpt lat="49.86781" lon="2.45556">
        <ele>58.2</ele>
        <time>2022-01-05T14:25:10Z</time>
      </trkpt>
      <trkpt lat="49.8678" lon="2.45552">
        <ele>58.3</ele>
        <time>2022-01-05T14:25:11Z</time>
      </trkpt>
      <trkpt lat="49.86779" lon="2.4555">
        <ele>58.3</ele>
        <time>2022-01-05T14:25:12Z</time>
      </trkpt>
      <trkpt lat="49.86778" lon="2.45548">
        <ele>58.3</ele>
        <time>2022-01-05T14:25:13Z</time>
      </trkpt>
      <trkpt lat="49.86777" lon="2.45545">
        <ele>58.3</ele>
        <time>2022-01-05T14:25:15Z</time>
      </trkpt>
      <trkpt lat="49.86776" lon="2.45542">
        <ele>58.3</ele>
        <time>2022-01-05T14:25:16Z</time>
      </trkpt>
      <trkpt lat="49.86776" lon="2.45541">
        <ele>58.3</ele>
        <time>2022-01-05T14:25:17Z</time>
      </trkpt>
      <trkpt lat="49.86776" lon="2.45539">
        <ele>58.3</ele>
        <time>2022-01-05T14:25:18Z</time>
      </trkpt>
      <trkpt lat="49.86775" lon="2.45536">
        <ele>58.2</ele>
        <time>2022-01-05T14:25:20Z</time>
      </trkpt>
      <trkpt lat="49.86775" lon="2.45534">
        <ele>58.2</ele>
        <time>2022-01-05T14:25:21Z</time>
      </trkpt>
      <trkpt lat="49.86774" lon="2.45531">
        <ele>58.2</ele>
        <time>2022-01-05T14:25:22Z</time>
      </trkpt>
      <trkpt lat="49.86774" lon="2.4553">
        <ele>58.1</ele>
        <time>2022-01-05T14:25:23Z</time>
      </trkpt>
      <trkpt lat="49.86774" lon="2.45528">
        <ele>58.1</ele>
        <time>2022-01-05T14:25:24Z</time>
      </trkpt>
      <trkpt lat="49.86774" lon="2.45526">
        <ele>58.1</ele>
        <time>2022-01-05T14:25:25Z</time>
      </trkpt>
      <trkpt lat="49.86773" lon="2.45524">
        <ele>58.1</ele>
        <time>2022-01-05T14:25:26Z</time>
      </trkpt>
      <trkpt lat="49.86773" lon="2.45522">
        <ele>58.1</ele>
        <time>2022-01-05T14:25:28Z</time>
      </trkpt>
      <trkpt lat="49.86773" lon="2.4552">
        <ele>58</ele>
        <time>2022-01-05T14:25:29Z</time>
      </trkpt>
      <trkpt lat="49.86773" lon="2.45517">
        <ele>58</ele>
        <time>2022-01-05T14:25:31Z</time>
      </trkpt>
      <trkpt lat="49.86773" lon="2.45514">
        <ele>58</ele>
        <time>2022-01-05T14:25:32Z</time>
      </trkpt>
      <trkpt lat="49.86772" lon="2.45513">
        <ele>57.9</ele>
        <time>2022-01-05T14:25:33Z</time>
      </trkpt>
      <trkpt lat="49.86772" lon="2.45511">
        <ele>57.9</ele>
        <time>2022-01-05T14:25:34Z</time>
      </trkpt>
      <trkpt lat="49.86772" lon="2.45508">
        <ele>57.9</ele>
        <time>2022-01-05T14:25:36Z</time>
      </trkpt>
      <trkpt lat="49.86772" lon="2.45506">
        <ele>57.9</ele>
        <time>2022-01-05T14:25:37Z</time>
      </trkpt>
      <trkpt lat="49.86772" lon="2.45503">
        <ele>57.8</ele>
        <time>2022-01-05T14:25:38Z</time>
      </trkpt>
      <trkpt lat="49.86772" lon="2.455">
        <ele>57.8</ele>
        <time>2022-01-05T14:25:40Z</time>
      </trkpt>
      <trkpt lat="49.86772" lon="2.45497">
        <ele>57.8</ele>
        <time>2022-01-05T14:25:41Z</time>
      </trkpt>
      <trkpt lat="49.86772" lon="2.45494">
        <ele>57.8</ele>
        <time>2022-01-05T14:25:42Z</time>
      </trkpt>
      <trkpt lat="49.86772" lon="2.45493">
        <ele>57.8</ele>
        <time>2022-01-05T14:25:43Z</time>
      </trkpt>
      <trkpt lat="49.86771" lon="2.45492">
        <ele>57.7</ele>
        <time>2022-01-05T14:25:44Z</time>
      </trkpt>
      <trkpt lat="49.86771" lon="2.45489">
        <ele>57.7</ele>
        <time>2022-01-05T14:25:45Z</time>
      </trkpt>
      <trkpt lat="49.86771" lon="2.45488">
        <ele>57.7</ele>
        <time>2022-01-05T14:25:46Z</time>
      </trkpt>
      <trkpt lat="49.86771" lon="2.45486">
        <ele>57.7</ele>
        <time>2022-01-05T14:25:48Z</time>
      </trkpt>
      <trkpt lat="49.86771" lon="2.45485">
        <ele>57.7</ele>
        <time>2022-01-05T14:25:49Z</time>
      </trkpt>
      <trkpt lat="49.8677" lon="2.45483">
        <ele>57.7</ele>
        <time>2022-01-05T14:25:50Z</time>
      </trkpt>
      <trkpt lat="49.8677" lon="2.45482">
        <ele>57.7</ele>
        <time>2022-01-05T14:25:51Z</time>
      </trkpt>
      <trkpt lat="49.86769" lon="2.4548">
        <ele>57.6</ele>
        <time>2022-01-05T14:25:52Z</time>
      </trkpt>
      <trkpt lat="49.86769" lon="2.45478">
        <ele>57.6</ele>
        <time>2022-01-05T14:25:54Z</time>
      </trkpt>
      <trkpt lat="49.86768" lon="2.45477">
        <ele>57.6</ele>
        <time>2022-01-05T14:25:55Z</time>
      </trkpt>
      <trkpt lat="49.86768" lon="2.45475">
        <ele>57.6</ele>
        <time>2022-01-05T14:25:56Z</time>
      </trkpt>
      <trkpt lat="49.86768" lon="2.45474">
        <ele>57.6</ele>
        <time>2022-01-05T14:25:57Z</time>
      </trkpt>
      <trkpt lat="49.86767" lon="2.45472">
        <ele>57.6</ele>
        <time>2022-01-05T14:25:58Z</time>
      </trkpt>
      <trkpt lat="49.86767" lon="2.4547">
        <ele>57.6</ele>
        <time>2022-01-05T14:26:00Z</time>
      </trkpt>
      <trkpt lat="49.86767" lon="2.45469">
        <ele>57.7</ele>
        <time>2022-01-05T14:26:01Z</time>
      </trkpt>
      <trkpt lat="49.86766" lon="2.45468">
        <ele>57.7</ele>
        <time>2022-01-05T14:26:02Z</time>
      </trkpt>
      <trkpt lat="49.86766" lon="2.45466">
        <ele>57.7</ele>
        <time>2022-01-05T14:26:04Z</time>
      </trkpt>
      <trkpt lat="49.86766" lon="2.45465">
        <ele>57.7</ele>
        <time>2022-01-05T14:26:05Z</time>
      </trkpt>
      <trkpt lat="49.86765" lon="2.45462">
        <ele>57.7</ele>
        <time>2022-01-05T14:26:07Z</time>
      </trkpt>
      <trkpt lat="49.86765" lon="2.45458">
        <ele>57.7</ele>
        <time>2022-01-05T14:26:08Z</time>
      </trkpt>
      <trkpt lat="49.86765" lon="2.45457">
        <ele>57.7</ele>
        <time>2022-01-05T14:26:09Z</time>
      </trkpt>
      <trkpt lat="49.86765" lon="2.45456">
        <ele>57.7</ele>
        <time>2022-01-05T14:26:10Z</time>
      </trkpt>
      <trkpt lat="49.86764" lon="2.45454">
        <ele>57.7</ele>
        <time>2022-01-05T14:26:11Z</time>
      </trkpt>
      <trkpt lat="49.86764" lon="2.45452">
        <ele>57.8</ele>
        <time>2022-01-05T14:26:12Z</time>
      </trkpt>
      <trkpt lat="49.86764" lon="2.4545">
        <ele>57.8</ele>
        <time>2022-01-05T14:26:14Z</time>
      </trkpt>
      <trkpt lat="49.86764" lon="2.45448">
        <ele>57.8</ele>
        <time>2022-01-05T14:26:15Z</time>
      </trkpt>
      <trkpt lat="49.86764" lon="2.45447">
        <ele>57.8</ele>
        <time>2022-01-05T14:26:16Z</time>
      </trkpt>
      <trkpt lat="49.86763" lon="2.45445">
        <ele>57.9</ele>
        <time>2022-01-05T14:26:17Z</time>
      </trkpt>
      <trkpt lat="49.86763" lon="2.45444">
        <ele>57.9</ele>
        <time>2022-01-05T14:26:19Z</time>
      </trkpt>
      <trkpt lat="49.86763" lon="2.45442">
        <ele>57.9</ele>
        <time>2022-01-05T14:26:20Z</time>
      </trkpt>
      <trkpt lat="49.86762" lon="2.4544">
        <ele>57.9</ele>
        <time>2022-01-05T14:26:21Z</time>
      </trkpt>
      <trkpt lat="49.86763" lon="2.45437">
        <ele>58</ele>
        <time>2022-01-05T14:26:22Z</time>
      </trkpt>
      <trkpt lat="49.86763" lon="2.45435">
        <ele>58</ele>
        <time>2022-01-05T14:26:23Z</time>
      </trkpt>
      <trkpt lat="49.86763" lon="2.45434">
        <ele>58.1</ele>
        <time>2022-01-05T14:26:24Z</time>
      </trkpt>
      <trkpt lat="49.86762" lon="2.45431">
        <ele>58.1</ele>
        <time>2022-01-05T14:26:25Z</time>
      </trkpt>
      <trkpt lat="49.86762" lon="2.45429">
        <ele>58.2</ele>
        <time>2022-01-05T14:26:27Z</time>
      </trkpt>
      <trkpt lat="49.86762" lon="2.45428">
        <ele>58.2</ele>
        <time>2022-01-05T14:26:28Z</time>
      </trkpt>
      <trkpt lat="49.86762" lon="2.45426">
        <ele>58.3</ele>
        <time>2022-01-05T14:26:30Z</time>
      </trkpt>
      <trkpt lat="49.86762" lon="2.45425">
        <ele>58.3</ele>
        <time>2022-01-05T14:26:31Z</time>
      </trkpt>
      <trkpt lat="49.86762" lon="2.45424">
        <ele>58.4</ele>
        <time>2022-01-05T14:26:32Z</time>
      </trkpt>
      <trkpt lat="49.86762" lon="2.45422">
        <ele>58.4</ele>
        <time>2022-01-05T14:26:33Z</time>
      </trkpt>
      <trkpt lat="49.86762" lon="2.4542">
        <ele>58.5</ele>
        <time>2022-01-05T14:26:34Z</time>
      </trkpt>
      <trkpt lat="49.86762" lon="2.45419">
        <ele>58.5</ele>
        <time>2022-01-05T14:26:35Z</time>
      </trkpt>
      <trkpt lat="49.86761" lon="2.45418">
        <ele>58.6</ele>
        <time>2022-01-05T14:26:37Z</time>
      </trkpt>
      <trkpt lat="49.86761" lon="2.45416">
        <ele>58.6</ele>
        <time>2022-01-05T14:26:38Z</time>
      </trkpt>
      <trkpt lat="49.86761" lon="2.45415">
        <ele>58.7</ele>
        <time>2022-01-05T14:26:39Z</time>
      </trkpt>
      <trkpt lat="49.8676" lon="2.45412">
        <ele>58.8</ele>
        <time>2022-01-05T14:26:40Z</time>
      </trkpt>
      <trkpt lat="49.8676" lon="2.45411">
        <ele>58.8</ele>
        <time>2022-01-05T14:26:41Z</time>
      </trkpt>
      <trkpt lat="49.8676" lon="2.45409">
        <ele>58.9</ele>
        <time>2022-01-05T14:26:42Z</time>
      </trkpt>
      <trkpt lat="49.8676" lon="2.45408">
        <ele>58.9</ele>
        <time>2022-01-05T14:26:43Z</time>
      </trkpt>
      <trkpt lat="49.8676" lon="2.45406">
        <ele>59</ele>
        <time>2022-01-05T14:26:44Z</time>
      </trkpt>
      <trkpt lat="49.86759" lon="2.45404">
        <ele>59</ele>
        <time>2022-01-05T14:26:46Z</time>
      </trkpt>
      <trkpt lat="49.86759" lon="2.45403">
        <ele>59.1</ele>
        <time>2022-01-05T14:26:47Z</time>
      </trkpt>
      <trkpt lat="49.86759" lon="2.45401">
        <ele>59.1</ele>
        <time>2022-01-05T14:26:48Z</time>
      </trkpt>
      <trkpt lat="49.86759" lon="2.454">
        <ele>59.2</ele>
        <time>2022-01-05T14:26:49Z</time>
      </trkpt>
      <trkpt lat="49.86759" lon="2.45397">
        <ele>59.3</ele>
        <time>2022-01-05T14:26:50Z</time>
      </trkpt>
      <trkpt lat="49.86758" lon="2.45396">
        <ele>59.3</ele>
        <time>2022-01-05T14:26:51Z</time>
      </trkpt>
      <trkpt lat="49.86758" lon="2.45395">
        <ele>59.3</ele>
        <time>2022-01-05T14:26:52Z</time>
      </trkpt>
      <trkpt lat="49.86758" lon="2.45393">
        <ele>59.4</ele>
        <time>2022-01-05T14:26:53Z</time>
      </trkpt>
      <trkpt lat="49.86758" lon="2.45392">
        <ele>59.4</ele>
        <time>2022-01-05T14:26:55Z</time>
      </trkpt>
      <trkpt lat="49.86758" lon="2.4539">
        <ele>59.5</ele>
        <time>2022-01-05T14:26:56Z</time>
      </trkpt>
      <trkpt lat="49.86758" lon="2.45389">
        <ele>59.5</ele>
        <time>2022-01-05T14:26:57Z</time>
      </trkpt>
      <trkpt lat="49.86758" lon="2.45387">
        <ele>59.6</ele>
        <time>2022-01-05T14:26:58Z</time>
      </trkpt>
      <trkpt lat="49.86758" lon="2.45386">
        <ele>59.6</ele>
        <time>2022-01-05T14:26:59Z</time>
      </trkpt>
      <trkpt lat="49.86758" lon="2.45384">
        <ele>59.7</ele>
        <time>2022-01-05T14:27:01Z</time>
      </trkpt>
      <trkpt lat="49.86757" lon="2.45383">
        <ele>59.7</ele>
        <time>2022-01-05T14:27:02Z</time>
      </trkpt>
      <trkpt lat="49.86757" lon="2.45381">
        <ele>59.7</ele>
        <time>2022-01-05T14:27:03Z</time>
      </trkpt>
      <trkpt lat="49.86757" lon="2.4538">
        <ele>59.8</ele>
        <time>2022-01-05T14:27:04Z</time>
      </trkpt>
      <trkpt lat="49.86757" lon="2.45378">
        <ele>59.9</ele>
        <time>2022-01-05T14:27:06Z</time>
      </trkpt>
      <trkpt lat="49.86758" lon="2.45376">
        <ele>59.9</ele>
        <time>2022-01-05T14:27:07Z</time>
      </trkpt>
      <trkpt lat="49.86758" lon="2.45375">
        <ele>60</ele>
        <time>2022-01-05T14:27:08Z</time>
      </trkpt>
      <trkpt lat="49.86757" lon="2.45373">
        <ele>60.1</ele>
        <time>2022-01-05T14:27:09Z</time>
      </trkpt>
      <trkpt lat="49.86757" lon="2.45371">
        <ele>60.1</ele>
        <time>2022-01-05T14:27:11Z</time>
      </trkpt>
      <trkpt lat="49.86757" lon="2.45369">
        <ele>60.2</ele>
        <time>2022-01-05T14:27:12Z</time>
      </trkpt>
      <trkpt lat="49.86758" lon="2.45368">
        <ele>60.3</ele>
        <time>2022-01-05T14:27:14Z</time>
      </trkpt>
      <trkpt lat="49.86758" lon="2.45367">
        <ele>60.3</ele>
        <time>2022-01-05T14:27:15Z</time>
      </trkpt>
      <trkpt lat="49.86758" lon="2.45366">
        <ele>60.4</ele>
        <time>2022-01-05T14:27:16Z</time>
      </trkpt>
      <trkpt lat="49.86758" lon="2.45364">
        <ele>60.4</ele>
        <time>2022-01-05T14:27:17Z</time>
      </trkpt>
      <trkpt lat="49.86757" lon="2.45363">
        <ele>60.5</ele>
        <time>2022-01-05T14:27:18Z</time>
      </trkpt>
      <trkpt lat="49.86757" lon="2.45361">
        <ele>60.6</ele>
        <time>2022-01-05T14:27:19Z</time>
      </trkpt>
      <trkpt lat="49.86757" lon="2.4536">
        <ele>60.6</ele>
        <time>2022-01-05T14:27:20Z</time>
      </trkpt>
      <trkpt lat="49.86757" lon="2.45358">
        <ele>60.7</ele>
        <time>2022-01-05T14:27:22Z</time>
      </trkpt>
      <trkpt lat="49.86757" lon="2.45357">
        <ele>60.8</ele>
        <time>2022-01-05T14:27:23Z</time>
      </trkpt>
      <trkpt lat="49.86756" lon="2.45355">
        <ele>60.8</ele>
        <time>2022-01-05T14:27:24Z</time>
      </trkpt>
      <trkpt lat="49.86756" lon="2.45353">
        <ele>60.9</ele>
        <time>2022-01-05T14:27:25Z</time>
      </trkpt>
      <trkpt lat="49.86756" lon="2.45351">
        <ele>61</ele>
        <time>2022-01-05T14:27:26Z</time>
      </trkpt>
      <trkpt lat="49.86755" lon="2.45348">
        <ele>61.1</ele>
        <time>2022-01-05T14:27:27Z</time>
      </trkpt>
      <trkpt lat="49.86755" lon="2.45347">
        <ele>61.2</ele>
        <time>2022-01-05T14:27:28Z</time>
      </trkpt>
      <trkpt lat="49.86755" lon="2.45346">
        <ele>61.2</ele>
        <time>2022-01-05T14:27:29Z</time>
      </trkpt>
      <trkpt lat="49.86755" lon="2.45344">
        <ele>61.3</ele>
        <time>2022-01-05T14:27:31Z</time>
      </trkpt>
      <trkpt lat="49.86755" lon="2.45343">
        <ele>61.3</ele>
        <time>2022-01-05T14:27:32Z</time>
      </trkpt>
      <trkpt lat="49.86755" lon="2.45341">
        <ele>61.4</ele>
        <time>2022-01-05T14:27:33Z</time>
      </trkpt>
      <trkpt lat="49.86755" lon="2.45339">
        <ele>61.5</ele>
        <time>2022-01-05T14:27:34Z</time>
      </trkpt>
      <trkpt lat="49.86755" lon="2.45337">
        <ele>61.5</ele>
        <time>2022-01-05T14:27:35Z</time>
      </trkpt>
      <trkpt lat="49.86754" lon="2.45336">
        <ele>61.6</ele>
        <time>2022-01-05T14:27:37Z</time>
      </trkpt>
      <trkpt lat="49.86754" lon="2.45334">
        <ele>61.6</ele>
        <time>2022-01-05T14:27:38Z</time>
      </trkpt>
      <trkpt lat="49.86754" lon="2.45333">
        <ele>61.7</ele>
        <time>2022-01-05T14:27:40Z</time>
      </trkpt>
      <trkpt lat="49.86754" lon="2.45332">
        <ele>61.7</ele>
        <time>2022-01-05T14:27:41Z</time>
      </trkpt>
      <trkpt lat="49.86753" lon="2.45329">
        <ele>61.8</ele>
        <time>2022-01-05T14:27:43Z</time>
      </trkpt>
      <trkpt lat="49.86753" lon="2.45327">
        <ele>61.9</ele>
        <time>2022-01-05T14:27:45Z</time>
      </trkpt>
      <trkpt lat="49.86753" lon="2.45325">
        <ele>62</ele>
        <time>2022-01-05T14:27:46Z</time>
      </trkpt>
      <trkpt lat="49.86753" lon="2.45323">
        <ele>62</ele>
        <time>2022-01-05T14:27:47Z</time>
      </trkpt>
      <trkpt lat="49.86753" lon="2.45322">
        <ele>62.1</ele>
        <time>2022-01-05T14:27:48Z</time>
      </trkpt>
      <trkpt lat="49.86752" lon="2.45318">
        <ele>62.1</ele>
        <time>2022-01-05T14:27:49Z</time>
      </trkpt>
      <trkpt lat="49.86752" lon="2.45317">
        <ele>62.2</ele>
        <time>2022-01-05T14:27:51Z</time>
      </trkpt>
      <trkpt lat="49.86753" lon="2.45315">
        <ele>62.2</ele>
        <time>2022-01-05T14:27:52Z</time>
      </trkpt>
      <trkpt lat="49.86752" lon="2.45314">
        <ele>62.3</ele>
        <time>2022-01-05T14:27:54Z</time>
      </trkpt>
      <trkpt lat="49.86752" lon="2.45311">
        <ele>62.3</ele>
        <time>2022-01-05T14:27:56Z</time>
      </trkpt>
      <trkpt lat="49.86752" lon="2.4531">
        <ele>62.4</ele>
        <time>2022-01-05T14:27:57Z</time>
      </trkpt>
      <trkpt lat="49.86752" lon="2.45307">
        <ele>62.4</ele>
        <time>2022-01-05T14:27:58Z</time>
      </trkpt>
      <trkpt lat="49.86752" lon="2.45305">
        <ele>62.5</ele>
        <time>2022-01-05T14:28:00Z</time>
      </trkpt>
      <trkpt lat="49.86752" lon="2.45304">
        <ele>62.5</ele>
        <time>2022-01-05T14:28:01Z</time>
      </trkpt>
      <trkpt lat="49.86752" lon="2.45301">
        <ele>62.6</ele>
        <time>2022-01-05T14:28:02Z</time>
      </trkpt>
      <trkpt lat="49.86752" lon="2.453">
        <ele>62.6</ele>
        <time>2022-01-05T14:28:04Z</time>
      </trkpt>
      <trkpt lat="49.86752" lon="2.45298">
        <ele>62.6</ele>
        <time>2022-01-05T14:28:05Z</time>
      </trkpt>
      <trkpt lat="49.86752" lon="2.45297">
        <ele>62.7</ele>
        <time>2022-01-05T14:28:06Z</time>
      </trkpt>
      <trkpt lat="49.86752" lon="2.45296">
        <ele>62.7</ele>
        <time>2022-01-05T14:28:07Z</time>
      </trkpt>
      <trkpt lat="49.86752" lon="2.45294">
        <ele>62.7</ele>
        <time>2022-01-05T14:28:08Z</time>
      </trkpt>
      <trkpt lat="49.86752" lon="2.45293">
        <ele>62.7</ele>
        <time>2022-01-05T14:28:09Z</time>
      </trkpt>
      <trkpt lat="49.86752" lon="2.45291">
        <ele>62.8</ele>
        <time>2022-01-05T14:28:10Z</time>
      </trkpt>
      <trkpt lat="49.86752" lon="2.45289">
        <ele>62.8</ele>
        <time>2022-01-05T14:28:12Z</time>
      </trkpt>
      <trkpt lat="49.86752" lon="2.45288">
        <ele>62.9</ele>
        <time>2022-01-05T14:28:13Z</time>
      </trkpt>
      <trkpt lat="49.86753" lon="2.45286">
        <ele>62.9</ele>
        <time>2022-01-05T14:28:14Z</time>
      </trkpt>
      <trkpt lat="49.86753" lon="2.45284">
        <ele>63</ele>
        <time>2022-01-05T14:28:16Z</time>
      </trkpt>
      <trkpt lat="49.86753" lon="2.45282">
        <ele>63</ele>
        <time>2022-01-05T14:28:17Z</time>
      </trkpt>
      <trkpt lat="49.86753" lon="2.4528">
        <ele>63</ele>
        <time>2022-01-05T14:28:18Z</time>
      </trkpt>
      <trkpt lat="49.86753" lon="2.45278">
        <ele>63.1</ele>
        <time>2022-01-05T14:28:19Z</time>
      </trkpt>
      <trkpt lat="49.86753" lon="2.45277">
        <ele>63.1</ele>
        <time>2022-01-05T14:28:20Z</time>
      </trkpt>
      <trkpt lat="49.86753" lon="2.45275">
        <ele>63.1</ele>
        <time>2022-01-05T14:28:22Z</time>
      </trkpt>
      <trkpt lat="49.86752" lon="2.45273">
        <ele>63.2</ele>
        <time>2022-01-05T14:28:23Z</time>
      </trkpt>
      <trkpt lat="49.86752" lon="2.45272">
        <ele>63.2</ele>
        <time>2022-01-05T14:28:24Z</time>
      </trkpt>
      <trkpt lat="49.86752" lon="2.4527">
        <ele>63.3</ele>
        <time>2022-01-05T14:28:25Z</time>
      </trkpt>
      <trkpt lat="49.86752" lon="2.45268">
        <ele>63.3</ele>
        <time>2022-01-05T14:28:26Z</time>
      </trkpt>
      <trkpt lat="49.86751" lon="2.45266">
        <ele>63.3</ele>
        <time>2022-01-05T14:28:27Z</time>
      </trkpt>
      <trkpt lat="49.86751" lon="2.45265">
        <ele>63.4</ele>
        <time>2022-01-05T14:28:28Z</time>
      </trkpt>
      <trkpt lat="49.8675" lon="2.45263">
        <ele>63.4</ele>
        <time>2022-01-05T14:28:29Z</time>
      </trkpt>
      <trkpt lat="49.86749" lon="2.45261">
        <ele>63.4</ele>
        <time>2022-01-05T14:28:31Z</time>
      </trkpt>
      <trkpt lat="49.86748" lon="2.4526">
        <ele>63.5</ele>
        <time>2022-01-05T14:28:32Z</time>
      </trkpt>
      <trkpt lat="49.86747" lon="2.4526">
        <ele>63.5</ele>
        <time>2022-01-05T14:28:33Z</time>
      </trkpt>
      <trkpt lat="49.86746" lon="2.4526">
        <ele>63.5</ele>
        <time>2022-01-05T14:28:35Z</time>
      </trkpt>
      <trkpt lat="49.86746" lon="2.45259">
        <ele>63.6</ele>
        <time>2022-01-05T14:28:37Z</time>
      </trkpt>
      <trkpt lat="49.86746" lon="2.45259">
        <ele>63.6</ele>
        <time>2022-01-05T14:28:39Z</time>
      </trkpt>
      <trkpt lat="49.86746" lon="2.4526">
        <ele>63.6</ele>
        <time>2022-01-05T14:28:40Z</time>
      </trkpt>
      <trkpt lat="49.86746" lon="2.4526">
        <ele>63.6</ele>
        <time>2022-01-05T14:28:42Z</time>
      </trkpt>
      <trkpt lat="49.86746" lon="2.4526">
        <ele>63.6</ele>
        <time>2022-01-05T14:28:43Z</time>
      </trkpt>
      <trkpt lat="49.86746" lon="2.45261">
        <ele>63.6</ele>
        <time>2022-01-05T14:28:45Z</time>
      </trkpt>
      <trkpt lat="49.86746" lon="2.45261">
        <ele>63.6</ele>
        <time>2022-01-05T14:28:46Z</time>
      </trkpt>
      <trkpt lat="49.86746" lon="2.45261">
        <ele>63.6</ele>
        <time>2022-01-05T14:28:47Z</time>
      </trkpt>
      <trkpt lat="49.86746" lon="2.45261">
        <ele>63.6</ele>
        <time>2022-01-05T14:28:49Z</time>
      </trkpt>
      <trkpt lat="49.86746" lon="2.45261">
        <ele>63.6</ele>
        <time>2022-01-05T14:28:50Z</time>
      </trkpt>
      <trkpt lat="49.86746" lon="2.45261">
        <ele>63.6</ele>
        <time>2022-01-05T14:28:51Z</time>
      </trkpt>
      <trkpt lat="49.86746" lon="2.4526">
        <ele>63.6</ele>
        <time>2022-01-05T14:28:52Z</time>
      </trkpt>
      <trkpt lat="49.86747" lon="2.45259">
        <ele>63.6</ele>
        <time>2022-01-05T14:28:53Z</time>
      </trkpt>
      <trkpt lat="49.86747" lon="2.45257">
        <ele>63.7</ele>
        <time>2022-01-05T14:28:54Z</time>
      </trkpt>
      <trkpt lat="49.86748" lon="2.45256">
        <ele>63.7</ele>
        <time>2022-01-05T14:28:56Z</time>
      </trkpt>
      <trkpt lat="49.86748" lon="2.45254">
        <ele>63.7</ele>
        <time>2022-01-05T14:28:57Z</time>
      </trkpt>
      <trkpt lat="49.86748" lon="2.45252">
        <ele>63.8</ele>
        <time>2022-01-05T14:28:58Z</time>
      </trkpt>
      <trkpt lat="49.86749" lon="2.4525">
        <ele>63.8</ele>
        <time>2022-01-05T14:28:59Z</time>
      </trkpt>
      <trkpt lat="49.86749" lon="2.45246">
        <ele>63.9</ele>
        <time>2022-01-05T14:29:01Z</time>
      </trkpt>
      <trkpt lat="49.86749" lon="2.45244">
        <ele>63.9</ele>
        <time>2022-01-05T14:29:02Z</time>
      </trkpt>
      <trkpt lat="49.86749" lon="2.45241">
        <ele>64</ele>
        <time>2022-01-05T14:29:04Z</time>
      </trkpt>
      <trkpt lat="49.86748" lon="2.45239">
        <ele>64</ele>
        <time>2022-01-05T14:29:05Z</time>
      </trkpt>
      <trkpt lat="49.86748" lon="2.45236">
        <ele>64.1</ele>
        <time>2022-01-05T14:29:07Z</time>
      </trkpt>
      <trkpt lat="49.86747" lon="2.45234">
        <ele>64.1</ele>
        <time>2022-01-05T14:29:09Z</time>
      </trkpt>
      <trkpt lat="49.86747" lon="2.45236">
        <ele>64.2</ele>
        <time>2022-01-05T14:29:11Z</time>
      </trkpt>
      <trkpt lat="49.86747" lon="2.45237">
        <ele>64.2</ele>
        <time>2022-01-05T14:29:13Z</time>
      </trkpt>
      <trkpt lat="49.86747" lon="2.45238">
        <ele>64.2</ele>
        <time>2022-01-05T14:29:14Z</time>
      </trkpt>
      <trkpt lat="49.86747" lon="2.45238">
        <ele>64.2</ele>
        <time>2022-01-05T14:29:15Z</time>
      </trkpt>
      <trkpt lat="49.86747" lon="2.45238">
        <ele>64.2</ele>
        <time>2022-01-05T14:29:16Z</time>
      </trkpt>
      <trkpt lat="49.86747" lon="2.45238">
        <ele>64.2</ele>
        <time>2022-01-05T14:29:17Z</time>
      </trkpt>
      <trkpt lat="49.86747" lon="2.45238">
        <ele>64.3</ele>
        <time>2022-01-05T14:29:19Z</time>
      </trkpt>
      <trkpt lat="49.86747" lon="2.45238">
        <ele>64.3</ele>
        <time>2022-01-05T14:29:20Z</time>
      </trkpt>
      <trkpt lat="49.86747" lon="2.45237">
        <ele>64.3</ele>
        <time>2022-01-05T14:29:21Z</time>
      </trkpt>
      <trkpt lat="49.86747" lon="2.45235">
        <ele>64.3</ele>
        <time>2022-01-05T14:29:23Z</time>
      </trkpt>
      <trkpt lat="49.86747" lon="2.45232">
        <ele>64.4</ele>
        <time>2022-01-05T14:29:24Z</time>
      </trkpt>
      <trkpt lat="49.86747" lon="2.45227">
        <ele>64.5</ele>
        <time>2022-01-05T14:29:26Z</time>
      </trkpt>
      <trkpt lat="49.86746" lon="2.45222">
        <ele>64.6</ele>
        <time>2022-01-05T14:29:27Z</time>
      </trkpt>
      <trkpt lat="49.86746" lon="2.45221">
        <ele>64.6</ele>
        <time>2022-01-05T14:29:28Z</time>
      </trkpt>
      <trkpt lat="49.86746" lon="2.45219">
        <ele>64.7</ele>
        <time>2022-01-05T14:29:29Z</time>
      </trkpt>
      <trkpt lat="49.86745" lon="2.45217">
        <ele>64.7</ele>
        <time>2022-01-05T14:29:31Z</time>
      </trkpt>
      <trkpt lat="49.86745" lon="2.45217">
        <ele>64.7</ele>
        <time>2022-01-05T14:29:32Z</time>
      </trkpt>
      <trkpt lat="49.86745" lon="2.45215">
        <ele>64.8</ele>
        <time>2022-01-05T14:29:33Z</time>
      </trkpt>
      <trkpt lat="49.86745" lon="2.45214">
        <ele>64.8</ele>
        <time>2022-01-05T14:29:34Z</time>
      </trkpt>
      <trkpt lat="49.86745" lon="2.45213">
        <ele>64.8</ele>
        <time>2022-01-05T14:29:35Z</time>
      </trkpt>
      <trkpt lat="49.86745" lon="2.45211">
        <ele>64.8</ele>
        <time>2022-01-05T14:29:36Z</time>
      </trkpt>
      <trkpt lat="49.86744" lon="2.45208">
        <ele>64.9</ele>
        <time>2022-01-05T14:29:37Z</time>
      </trkpt>
      <trkpt lat="49.86744" lon="2.45207">
        <ele>64.9</ele>
        <time>2022-01-05T14:29:38Z</time>
      </trkpt>
      <trkpt lat="49.86744" lon="2.45205">
        <ele>64.9</ele>
        <time>2022-01-05T14:29:40Z</time>
      </trkpt>
      <trkpt lat="49.86744" lon="2.45204">
        <ele>65</ele>
        <time>2022-01-05T14:29:41Z</time>
      </trkpt>
      <trkpt lat="49.86744" lon="2.45203">
        <ele>65</ele>
        <time>2022-01-05T14:29:42Z</time>
      </trkpt>
      <trkpt lat="49.86743" lon="2.45202">
        <ele>65</ele>
        <time>2022-01-05T14:29:43Z</time>
      </trkpt>
      <trkpt lat="49.86743" lon="2.45201">
        <ele>65</ele>
        <time>2022-01-05T14:29:44Z</time>
      </trkpt>
      <trkpt lat="49.86743" lon="2.45197">
        <ele>65.1</ele>
        <time>2022-01-05T14:29:45Z</time>
      </trkpt>
      <trkpt lat="49.86743" lon="2.45196">
        <ele>65.1</ele>
        <time>2022-01-05T14:29:46Z</time>
      </trkpt>
      <trkpt lat="49.86744" lon="2.45195">
        <ele>65.1</ele>
        <time>2022-01-05T14:29:47Z</time>
      </trkpt>
      <trkpt lat="49.86744" lon="2.45194">
        <ele>65.2</ele>
        <time>2022-01-05T14:29:49Z</time>
      </trkpt>
      <trkpt lat="49.86743" lon="2.45192">
        <ele>65.2</ele>
        <time>2022-01-05T14:29:50Z</time>
      </trkpt>
      <trkpt lat="49.86743" lon="2.45191">
        <ele>65.2</ele>
        <time>2022-01-05T14:29:51Z</time>
      </trkpt>
      <trkpt lat="49.86743" lon="2.45189">
        <ele>65.2</ele>
        <time>2022-01-05T14:29:52Z</time>
      </trkpt>
      <trkpt lat="49.86743" lon="2.45186">
        <ele>65.3</ele>
        <time>2022-01-05T14:29:54Z</time>
      </trkpt>
      <trkpt lat="49.86743" lon="2.45184">
        <ele>65.3</ele>
        <time>2022-01-05T14:29:55Z</time>
      </trkpt>
      <trkpt lat="49.86743" lon="2.45181">
        <ele>65.4</ele>
        <time>2022-01-05T14:29:56Z</time>
      </trkpt>
      <trkpt lat="49.86743" lon="2.45179">
        <ele>65.4</ele>
        <time>2022-01-05T14:29:57Z</time>
      </trkpt>
      <trkpt lat="49.86744" lon="2.45176">
        <ele>65.5</ele>
        <time>2022-01-05T14:29:58Z</time>
      </trkpt>
      <trkpt lat="49.86744" lon="2.45174">
        <ele>65.5</ele>
        <time>2022-01-05T14:29:59Z</time>
      </trkpt>
      <trkpt lat="49.86744" lon="2.45172">
        <ele>65.6</ele>
        <time>2022-01-05T14:30:00Z</time>
      </trkpt>
      <trkpt lat="49.86744" lon="2.45169">
        <ele>65.6</ele>
        <time>2022-01-05T14:30:02Z</time>
      </trkpt>
      <trkpt lat="49.86744" lon="2.45167">
        <ele>65.7</ele>
        <time>2022-01-05T14:30:03Z</time>
      </trkpt>
      <trkpt lat="49.86744" lon="2.45165">
        <ele>65.7</ele>
        <time>2022-01-05T14:30:04Z</time>
      </trkpt>
      <trkpt lat="49.86744" lon="2.45162">
        <ele>65.7</ele>
        <time>2022-01-05T14:30:05Z</time>
      </trkpt>
      <trkpt lat="49.86744" lon="2.4516">
        <ele>65.8</ele>
        <time>2022-01-05T14:30:06Z</time>
      </trkpt>
      <trkpt lat="49.86745" lon="2.45158">
        <ele>65.8</ele>
        <time>2022-01-05T14:30:07Z</time>
      </trkpt>
      <trkpt lat="49.86745" lon="2.45156">
        <ele>65.9</ele>
        <time>2022-01-05T14:30:08Z</time>
      </trkpt>
      <trkpt lat="49.86744" lon="2.45154">
        <ele>65.9</ele>
        <time>2022-01-05T14:30:10Z</time>
      </trkpt>
      <trkpt lat="49.86744" lon="2.45151">
        <ele>66</ele>
        <time>2022-01-05T14:30:11Z</time>
      </trkpt>
      <trkpt lat="49.86744" lon="2.45149">
        <ele>66</ele>
        <time>2022-01-05T14:30:12Z</time>
      </trkpt>
      <trkpt lat="49.86744" lon="2.45146">
        <ele>66.1</ele>
        <time>2022-01-05T14:30:13Z</time>
      </trkpt>
      <trkpt lat="49.86744" lon="2.45145">
        <ele>66.1</ele>
        <time>2022-01-05T14:30:14Z</time>
      </trkpt>
      <trkpt lat="49.86744" lon="2.45143">
        <ele>66.1</ele>
        <time>2022-01-05T14:30:15Z</time>
      </trkpt>
      <trkpt lat="49.86744" lon="2.45141">
        <ele>66.1</ele>
        <time>2022-01-05T14:30:16Z</time>
      </trkpt>
      <trkpt lat="49.86744" lon="2.45139">
        <ele>66.2</ele>
        <time>2022-01-05T14:30:17Z</time>
      </trkpt>
      <trkpt lat="49.86744" lon="2.45137">
        <ele>66.2</ele>
        <time>2022-01-05T14:30:18Z</time>
      </trkpt>
      <trkpt lat="49.86744" lon="2.45135">
        <ele>66.2</ele>
        <time>2022-01-05T14:30:19Z</time>
      </trkpt>
      <trkpt lat="49.86744" lon="2.45131">
        <ele>66.3</ele>
        <time>2022-01-05T14:30:20Z</time>
      </trkpt>
      <trkpt lat="49.86744" lon="2.4513">
        <ele>66.3</ele>
        <time>2022-01-05T14:30:22Z</time>
      </trkpt>
      <trkpt lat="49.86744" lon="2.45128">
        <ele>66.3</ele>
        <time>2022-01-05T14:30:23Z</time>
      </trkpt>
      <trkpt lat="49.86744" lon="2.45126">
        <ele>66.3</ele>
        <time>2022-01-05T14:30:24Z</time>
      </trkpt>
      <trkpt lat="49.86744" lon="2.45125">
        <ele>66.4</ele>
        <time>2022-01-05T14:30:25Z</time>
      </trkpt>
      <trkpt lat="49.86744" lon="2.4512">
        <ele>66.4</ele>
        <time>2022-01-05T14:30:26Z</time>
      </trkpt>
      <trkpt lat="49.86744" lon="2.45119">
        <ele>66.4</ele>
        <time>2022-01-05T14:30:28Z</time>
      </trkpt>
      <trkpt lat="49.86744" lon="2.45117">
        <ele>66.4</ele>
        <time>2022-01-05T14:30:29Z</time>
      </trkpt>
      <trkpt lat="49.86744" lon="2.45115">
        <ele>66.5</ele>
        <time>2022-01-05T14:30:30Z</time>
      </trkpt>
      <trkpt lat="49.86744" lon="2.45114">
        <ele>66.5</ele>
        <time>2022-01-05T14:30:31Z</time>
      </trkpt>
      <trkpt lat="49.86744" lon="2.4511">
        <ele>66.5</ele>
        <time>2022-01-05T14:30:33Z</time>
      </trkpt>
      <trkpt lat="49.86744" lon="2.45109">
        <ele>66.5</ele>
        <time>2022-01-05T14:30:34Z</time>
      </trkpt>
      <trkpt lat="49.86744" lon="2.45107">
        <ele>66.5</ele>
        <time>2022-01-05T14:30:35Z</time>
      </trkpt>
      <trkpt lat="49.86744" lon="2.45105">
        <ele>66.5</ele>
        <time>2022-01-05T14:30:36Z</time>
      </trkpt>
      <trkpt lat="49.86744" lon="2.45103">
        <ele>66.6</ele>
        <time>2022-01-05T14:30:37Z</time>
      </trkpt>
      <trkpt lat="49.86744" lon="2.45099">
        <ele>66.6</ele>
        <time>2022-01-05T14:30:38Z</time>
      </trkpt>
      <trkpt lat="49.86744" lon="2.45098">
        <ele>66.6</ele>
        <time>2022-01-05T14:30:39Z</time>
      </trkpt>
      <trkpt lat="49.86744" lon="2.45097">
        <ele>66.6</ele>
        <time>2022-01-05T14:30:40Z</time>
      </trkpt>
      <trkpt lat="49.86744" lon="2.45095">
        <ele>66.6</ele>
        <time>2022-01-05T14:30:41Z</time>
      </trkpt>
      <trkpt lat="49.86743" lon="2.45093">
        <ele>66.7</ele>
        <time>2022-01-05T14:30:42Z</time>
      </trkpt>
      <trkpt lat="49.86743" lon="2.4509">
        <ele>66.7</ele>
        <time>2022-01-05T14:30:44Z</time>
      </trkpt>
      <trkpt lat="49.86743" lon="2.45088">
        <ele>66.7</ele>
        <time>2022-01-05T14:30:45Z</time>
      </trkpt>
      <trkpt lat="49.86744" lon="2.45086">
        <ele>66.7</ele>
        <time>2022-01-05T14:30:46Z</time>
      </trkpt>
      <trkpt lat="49.86744" lon="2.45084">
        <ele>66.7</ele>
        <time>2022-01-05T14:30:47Z</time>
      </trkpt>
      <trkpt lat="49.86744" lon="2.45081">
        <ele>66.8</ele>
        <time>2022-01-05T14:30:48Z</time>
      </trkpt>
      <trkpt lat="49.86744" lon="2.45078">
        <ele>66.8</ele>
        <time>2022-01-05T14:30:49Z</time>
      </trkpt>
      <trkpt lat="49.86744" lon="2.45077">
        <ele>66.8</ele>
        <time>2022-01-05T14:30:51Z</time>
      </trkpt>
      <trkpt lat="49.86744" lon="2.45075">
        <ele>66.8</ele>
        <time>2022-01-05T14:30:52Z</time>
      </trkpt>
      <trkpt lat="49.86743" lon="2.45073">
        <ele>66.8</ele>
        <time>2022-01-05T14:30:53Z</time>
      </trkpt>
      <trkpt lat="49.86743" lon="2.45071">
        <ele>66.9</ele>
        <time>2022-01-05T14:30:54Z</time>
      </trkpt>
      <trkpt lat="49.86743" lon="2.4507">
        <ele>66.9</ele>
        <time>2022-01-05T14:30:55Z</time>
      </trkpt>
      <trkpt lat="49.86743" lon="2.45068">
        <ele>66.9</ele>
        <time>2022-01-05T14:30:56Z</time>
      </trkpt>
      <trkpt lat="49.86743" lon="2.45065">
        <ele>66.9</ele>
        <time>2022-01-05T14:30:57Z</time>
      </trkpt>
      <trkpt lat="49.86743" lon="2.45063">
        <ele>67</ele>
        <time>2022-01-05T14:30:58Z</time>
      </trkpt>
      <trkpt lat="49.86744" lon="2.45061">
        <ele>67</ele>
        <time>2022-01-05T14:31:00Z</time>
      </trkpt>
      <trkpt lat="49.86744" lon="2.45058">
        <ele>67</ele>
        <time>2022-01-05T14:31:02Z</time>
      </trkpt>
      <trkpt lat="49.86743" lon="2.45056">
        <ele>67</ele>
        <time>2022-01-05T14:31:03Z</time>
      </trkpt>
      <trkpt lat="49.86743" lon="2.45053">
        <ele>67.1</ele>
        <time>2022-01-05T14:31:04Z</time>
      </trkpt>
      <trkpt lat="49.86743" lon="2.4505">
        <ele>67.1</ele>
        <time>2022-01-05T14:31:06Z</time>
      </trkpt>
      <trkpt lat="49.86743" lon="2.45049">
        <ele>67.1</ele>
        <time>2022-01-05T14:31:07Z</time>
      </trkpt>
      <trkpt lat="49.86743" lon="2.45047">
        <ele>67.1</ele>
        <time>2022-01-05T14:31:08Z</time>
      </trkpt>
      <trkpt lat="49.86743" lon="2.45046">
        <ele>67.1</ele>
        <time>2022-01-05T14:31:09Z</time>
      </trkpt>
      <trkpt lat="49.86743" lon="2.45044">
        <ele>67.1</ele>
        <time>2022-01-05T14:31:10Z</time>
      </trkpt>
      <trkpt lat="49.86743" lon="2.45042">
        <ele>67.1</ele>
        <time>2022-01-05T14:31:11Z</time>
      </trkpt>
      <trkpt lat="49.86743" lon="2.4504">
        <ele>67.2</ele>
        <time>2022-01-05T14:31:12Z</time>
      </trkpt>
      <trkpt lat="49.86743" lon="2.45038">
        <ele>67.2</ele>
        <time>2022-01-05T14:31:13Z</time>
      </trkpt>
      <trkpt lat="49.86743" lon="2.45036">
        <ele>67.2</ele>
        <time>2022-01-05T14:31:15Z</time>
      </trkpt>
      <trkpt lat="49.86743" lon="2.45033">
        <ele>67.2</ele>
        <time>2022-01-05T14:31:16Z</time>
      </trkpt>
      <trkpt lat="49.86743" lon="2.45032">
        <ele>67.2</ele>
        <time>2022-01-05T14:31:17Z</time>
      </trkpt>
      <trkpt lat="49.86743" lon="2.45031">
        <ele>67.2</ele>
        <time>2022-01-05T14:31:18Z</time>
      </trkpt>
      <trkpt lat="49.86743" lon="2.45027">
        <ele>67.3</ele>
        <time>2022-01-05T14:31:19Z</time>
      </trkpt>
      <trkpt lat="49.86743" lon="2.45026">
        <ele>67.3</ele>
        <time>2022-01-05T14:31:20Z</time>
      </trkpt>
      <trkpt lat="49.86743" lon="2.45025">
        <ele>67.3</ele>
        <time>2022-01-05T14:31:21Z</time>
      </trkpt>
      <trkpt lat="49.86743" lon="2.45022">
        <ele>67.3</ele>
        <time>2022-01-05T14:31:22Z</time>
      </trkpt>
      <trkpt lat="49.86743" lon="2.4502">
        <ele>67.3</ele>
        <time>2022-01-05T14:31:24Z</time>
      </trkpt>
      <trkpt lat="49.86743" lon="2.45019">
        <ele>67.3</ele>
        <time>2022-01-05T14:31:25Z</time>
      </trkpt>
      <trkpt lat="49.86743" lon="2.45016">
        <ele>67.3</ele>
        <time>2022-01-05T14:31:26Z</time>
      </trkpt>
      <trkpt lat="49.86743" lon="2.45014">
        <ele>67.3</ele>
        <time>2022-01-05T14:31:27Z</time>
      </trkpt>
      <trkpt lat="49.86743" lon="2.45013">
        <ele>67.4</ele>
        <time>2022-01-05T14:31:28Z</time>
      </trkpt>
      <trkpt lat="49.86744" lon="2.45011">
        <ele>67.4</ele>
        <time>2022-01-05T14:31:29Z</time>
      </trkpt>
      <trkpt lat="49.86744" lon="2.45009">
        <ele>67.4</ele>
        <time>2022-01-05T14:31:30Z</time>
      </trkpt>
      <trkpt lat="49.86744" lon="2.45007">
        <ele>67.4</ele>
        <time>2022-01-05T14:31:31Z</time>
      </trkpt>
      <trkpt lat="49.86744" lon="2.45006">
        <ele>67.4</ele>
        <time>2022-01-05T14:31:32Z</time>
      </trkpt>
      <trkpt lat="49.86744" lon="2.45004">
        <ele>67.4</ele>
        <time>2022-01-05T14:31:33Z</time>
      </trkpt>
      <trkpt lat="49.86744" lon="2.45002">
        <ele>67.4</ele>
        <time>2022-01-05T14:31:35Z</time>
      </trkpt>
      <trkpt lat="49.86743" lon="2.45">
        <ele>67.4</ele>
        <time>2022-01-05T14:31:36Z</time>
      </trkpt>
      <trkpt lat="49.86744" lon="2.44999">
        <ele>67.4</ele>
        <time>2022-01-05T14:31:37Z</time>
      </trkpt>
      <trkpt lat="49.86744" lon="2.44997">
        <ele>67.4</ele>
        <time>2022-01-05T14:31:38Z</time>
      </trkpt>
      <trkpt lat="49.86744" lon="2.44995">
        <ele>67.4</ele>
        <time>2022-01-05T14:31:39Z</time>
      </trkpt>
      <trkpt lat="49.86744" lon="2.44993">
        <ele>67.4</ele>
        <time>2022-01-05T14:31:40Z</time>
      </trkpt>
      <trkpt lat="49.86744" lon="2.44992">
        <ele>67.4</ele>
        <time>2022-01-05T14:31:41Z</time>
      </trkpt>
      <trkpt lat="49.86744" lon="2.44988">
        <ele>67.4</ele>
        <time>2022-01-05T14:31:42Z</time>
      </trkpt>
      <trkpt lat="49.86744" lon="2.44987">
        <ele>67.4</ele>
        <time>2022-01-05T14:31:44Z</time>
      </trkpt>
      <trkpt lat="49.86744" lon="2.44986">
        <ele>67.4</ele>
        <time>2022-01-05T14:31:45Z</time>
      </trkpt>
      <trkpt lat="49.86744" lon="2.44984">
        <ele>67.4</ele>
        <time>2022-01-05T14:31:46Z</time>
      </trkpt>
      <trkpt lat="49.86744" lon="2.44982">
        <ele>67.4</ele>
        <time>2022-01-05T14:31:47Z</time>
      </trkpt>
      <trkpt lat="49.86744" lon="2.4498">
        <ele>67.4</ele>
        <time>2022-01-05T14:31:48Z</time>
      </trkpt>
      <trkpt lat="49.86744" lon="2.44978">
        <ele>67.4</ele>
        <time>2022-01-05T14:31:49Z</time>
      </trkpt>
      <trkpt lat="49.86744" lon="2.44977">
        <ele>67.4</ele>
        <time>2022-01-05T14:31:50Z</time>
      </trkpt>
      <trkpt lat="49.86744" lon="2.44975">
        <ele>67.4</ele>
        <time>2022-01-05T14:31:51Z</time>
      </trkpt>
      <trkpt lat="49.86743" lon="2.44972">
        <ele>67.4</ele>
        <time>2022-01-05T14:31:53Z</time>
      </trkpt>
      <trkpt lat="49.86743" lon="2.4497">
        <ele>67.4</ele>
        <time>2022-01-05T14:31:54Z</time>
      </trkpt>
      <trkpt lat="49.86742" lon="2.44969">
        <ele>67.4</ele>
        <time>2022-01-05T14:31:55Z</time>
      </trkpt>
      <trkpt lat="49.86742" lon="2.44967">
        <ele>67.4</ele>
        <time>2022-01-05T14:31:57Z</time>
      </trkpt>
      <trkpt lat="49.86742" lon="2.44965">
        <ele>67.4</ele>
        <time>2022-01-05T14:31:58Z</time>
      </trkpt>
      <trkpt lat="49.86741" lon="2.44964">
        <ele>67.4</ele>
        <time>2022-01-05T14:31:59Z</time>
      </trkpt>
      <trkpt lat="49.86742" lon="2.44961">
        <ele>67.4</ele>
        <time>2022-01-05T14:32:01Z</time>
      </trkpt>
      <trkpt lat="49.86742" lon="2.4496">
        <ele>67.4</ele>
        <time>2022-01-05T14:32:02Z</time>
      </trkpt>
      <trkpt lat="49.86743" lon="2.44958">
        <ele>67.3</ele>
        <time>2022-01-05T14:32:03Z</time>
      </trkpt>
      <trkpt lat="49.86743" lon="2.44956">
        <ele>67.3</ele>
        <time>2022-01-05T14:32:04Z</time>
      </trkpt>
      <trkpt lat="49.86743" lon="2.44955">
        <ele>67.3</ele>
        <time>2022-01-05T14:32:05Z</time>
      </trkpt>
      <trkpt lat="49.86744" lon="2.44953">
        <ele>67.3</ele>
        <time>2022-01-05T14:32:06Z</time>
      </trkpt>
      <trkpt lat="49.86744" lon="2.44951">
        <ele>67.3</ele>
        <time>2022-01-05T14:32:07Z</time>
      </trkpt>
      <trkpt lat="49.86744" lon="2.4495">
        <ele>67.3</ele>
        <time>2022-01-05T14:32:08Z</time>
      </trkpt>
      <trkpt lat="49.86745" lon="2.44948">
        <ele>67.3</ele>
        <time>2022-01-05T14:32:09Z</time>
      </trkpt>
      <trkpt lat="49.86745" lon="2.44946">
        <ele>67.3</ele>
        <time>2022-01-05T14:32:11Z</time>
      </trkpt>
      <trkpt lat="49.86746" lon="2.44945">
        <ele>67.2</ele>
        <time>2022-01-05T14:32:12Z</time>
      </trkpt>
      <trkpt lat="49.86746" lon="2.44941">
        <ele>67.2</ele>
        <time>2022-01-05T14:32:13Z</time>
      </trkpt>
      <trkpt lat="49.86747" lon="2.44939">
        <ele>67.2</ele>
        <time>2022-01-05T14:32:15Z</time>
      </trkpt>
      <trkpt lat="49.86747" lon="2.44937">
        <ele>67.2</ele>
        <time>2022-01-05T14:32:16Z</time>
      </trkpt>
      <trkpt lat="49.86747" lon="2.44936">
        <ele>67.2</ele>
        <time>2022-01-05T14:32:17Z</time>
      </trkpt>
      <trkpt lat="49.86747" lon="2.44934">
        <ele>67.2</ele>
        <time>2022-01-05T14:32:18Z</time>
      </trkpt>
      <trkpt lat="49.86747" lon="2.44932">
        <ele>67.2</ele>
        <time>2022-01-05T14:32:19Z</time>
      </trkpt>
      <trkpt lat="49.86748" lon="2.4493">
        <ele>67.1</ele>
        <time>2022-01-05T14:32:21Z</time>
      </trkpt>
      <trkpt lat="49.86748" lon="2.44928">
        <ele>67.1</ele>
        <time>2022-01-05T14:32:22Z</time>
      </trkpt>
      <trkpt lat="49.86748" lon="2.44925">
        <ele>67.1</ele>
        <time>2022-01-05T14:32:23Z</time>
      </trkpt>
      <trkpt lat="49.86748" lon="2.44924">
        <ele>67.1</ele>
        <time>2022-01-05T14:32:24Z</time>
      </trkpt>
      <trkpt lat="49.86748" lon="2.44923">
        <ele>67.1</ele>
        <time>2022-01-05T14:32:25Z</time>
      </trkpt>
      <trkpt lat="49.86748" lon="2.44921">
        <ele>67.1</ele>
        <time>2022-01-05T14:32:26Z</time>
      </trkpt>
      <trkpt lat="49.86748" lon="2.44919">
        <ele>67.1</ele>
        <time>2022-01-05T14:32:28Z</time>
      </trkpt>
      <trkpt lat="49.86748" lon="2.44916">
        <ele>67.1</ele>
        <time>2022-01-05T14:32:29Z</time>
      </trkpt>
      <trkpt lat="49.86748" lon="2.44914">
        <ele>67.1</ele>
        <time>2022-01-05T14:32:30Z</time>
      </trkpt>
      <trkpt lat="49.86748" lon="2.44912">
        <ele>67.1</ele>
        <time>2022-01-05T14:32:31Z</time>
      </trkpt>
      <trkpt lat="49.86748" lon="2.4491">
        <ele>67.1</ele>
        <time>2022-01-05T14:32:32Z</time>
      </trkpt>
      <trkpt lat="49.86748" lon="2.44907">
        <ele>67.1</ele>
        <time>2022-01-05T14:32:34Z</time>
      </trkpt>
      <trkpt lat="49.86748" lon="2.44905">
        <ele>67.1</ele>
        <time>2022-01-05T14:32:35Z</time>
      </trkpt>
      <trkpt lat="49.86748" lon="2.44904">
        <ele>67.1</ele>
        <time>2022-01-05T14:32:36Z</time>
      </trkpt>
      <trkpt lat="49.86747" lon="2.44903">
        <ele>67.1</ele>
        <time>2022-01-05T14:32:37Z</time>
      </trkpt>
      <trkpt lat="49.86747" lon="2.44901">
        <ele>67.1</ele>
        <time>2022-01-05T14:32:38Z</time>
      </trkpt>
      <trkpt lat="49.86746" lon="2.44899">
        <ele>67.1</ele>
        <time>2022-01-05T14:32:40Z</time>
      </trkpt>
      <trkpt lat="49.86746" lon="2.44897">
        <ele>67.1</ele>
        <time>2022-01-05T14:32:41Z</time>
      </trkpt>
      <trkpt lat="49.86746" lon="2.44896">
        <ele>67.1</ele>
        <time>2022-01-05T14:32:42Z</time>
      </trkpt>
      <trkpt lat="49.86746" lon="2.44894">
        <ele>67.1</ele>
        <time>2022-01-05T14:32:43Z</time>
      </trkpt>
      <trkpt lat="49.86746" lon="2.44892">
        <ele>67.1</ele>
        <time>2022-01-05T14:32:44Z</time>
      </trkpt>
      <trkpt lat="49.86746" lon="2.4489">
        <ele>67.1</ele>
        <time>2022-01-05T14:32:45Z</time>
      </trkpt>
      <trkpt lat="49.86746" lon="2.44888">
        <ele>67.1</ele>
        <time>2022-01-05T14:32:46Z</time>
      </trkpt>
      <trkpt lat="49.86747" lon="2.44885">
        <ele>67.1</ele>
        <time>2022-01-05T14:32:48Z</time>
      </trkpt>
      <trkpt lat="49.86747" lon="2.44884">
        <ele>67.1</ele>
        <time>2022-01-05T14:32:49Z</time>
      </trkpt>
      <trkpt lat="49.86747" lon="2.44883">
        <ele>67.1</ele>
        <time>2022-01-05T14:32:50Z</time>
      </trkpt>
      <trkpt lat="49.86747" lon="2.4488">
        <ele>67.1</ele>
        <time>2022-01-05T14:32:52Z</time>
      </trkpt>
      <trkpt lat="49.86747" lon="2.44878">
        <ele>67</ele>
        <time>2022-01-05T14:32:53Z</time>
      </trkpt>
      <trkpt lat="49.86748" lon="2.44875">
        <ele>67</ele>
        <time>2022-01-05T14:32:54Z</time>
      </trkpt>
      <trkpt lat="49.86748" lon="2.44874">
        <ele>67</ele>
        <time>2022-01-05T14:32:55Z</time>
      </trkpt>
      <trkpt lat="49.86748" lon="2.44873">
        <ele>67</ele>
        <time>2022-01-05T14:32:56Z</time>
      </trkpt>
      <trkpt lat="49.86749" lon="2.4487">
        <ele>67</ele>
        <time>2022-01-05T14:32:57Z</time>
      </trkpt>
      <trkpt lat="49.8675" lon="2.44869">
        <ele>67</ele>
        <time>2022-01-05T14:32:59Z</time>
      </trkpt>
      <trkpt lat="49.8675" lon="2.44868">
        <ele>67</ele>
        <time>2022-01-05T14:33:00Z</time>
      </trkpt>
      <trkpt lat="49.86751" lon="2.44865">
        <ele>67</ele>
        <time>2022-01-05T14:33:01Z</time>
      </trkpt>
      <trkpt lat="49.86751" lon="2.44864">
        <ele>67</ele>
        <time>2022-01-05T14:33:02Z</time>
      </trkpt>
      <trkpt lat="49.86752" lon="2.44862">
        <ele>66.9</ele>
        <time>2022-01-05T14:33:04Z</time>
      </trkpt>
      <trkpt lat="49.86752" lon="2.4486">
        <ele>66.9</ele>
        <time>2022-01-05T14:33:05Z</time>
      </trkpt>
      <trkpt lat="49.86752" lon="2.44859">
        <ele>66.9</ele>
        <time>2022-01-05T14:33:06Z</time>
      </trkpt>
      <trkpt lat="49.86752" lon="2.44857">
        <ele>66.9</ele>
        <time>2022-01-05T14:33:07Z</time>
      </trkpt>
      <trkpt lat="49.86752" lon="2.44855">
        <ele>66.9</ele>
        <time>2022-01-05T14:33:08Z</time>
      </trkpt>
      <trkpt lat="49.86752" lon="2.44853">
        <ele>66.9</ele>
        <time>2022-01-05T14:33:09Z</time>
      </trkpt>
      <trkpt lat="49.86752" lon="2.44851">
        <ele>66.9</ele>
        <time>2022-01-05T14:33:10Z</time>
      </trkpt>
      <trkpt lat="49.86752" lon="2.44849">
        <ele>66.9</ele>
        <time>2022-01-05T14:33:11Z</time>
      </trkpt>
      <trkpt lat="49.86752" lon="2.44848">
        <ele>66.9</ele>
        <time>2022-01-05T14:33:13Z</time>
      </trkpt>
      <trkpt lat="49.86752" lon="2.44846">
        <ele>66.9</ele>
        <time>2022-01-05T14:33:14Z</time>
      </trkpt>
      <trkpt lat="49.86752" lon="2.44844">
        <ele>66.9</ele>
        <time>2022-01-05T14:33:15Z</time>
      </trkpt>
      <trkpt lat="49.86752" lon="2.44842">
        <ele>66.9</ele>
        <time>2022-01-05T14:33:17Z</time>
      </trkpt>
      <trkpt lat="49.86752" lon="2.4484">
        <ele>66.8</ele>
        <time>2022-01-05T14:33:18Z</time>
      </trkpt>
      <trkpt lat="49.86753" lon="2.44839">
        <ele>66.8</ele>
        <time>2022-01-05T14:33:19Z</time>
      </trkpt>
      <trkpt lat="49.86754" lon="2.44838">
        <ele>66.8</ele>
        <time>2022-01-05T14:33:20Z</time>
      </trkpt>
      <trkpt lat="49.86755" lon="2.44835">
        <ele>66.8</ele>
        <time>2022-01-05T14:33:22Z</time>
      </trkpt>
      <trkpt lat="49.86755" lon="2.44833">
        <ele>66.8</ele>
        <time>2022-01-05T14:33:23Z</time>
      </trkpt>
      <trkpt lat="49.86755" lon="2.44832">
        <ele>66.8</ele>
        <time>2022-01-05T14:33:24Z</time>
      </trkpt>
      <trkpt lat="49.86756" lon="2.44828">
        <ele>66.8</ele>
        <time>2022-01-05T14:33:25Z</time>
      </trkpt>
      <trkpt lat="49.86756" lon="2.44826">
        <ele>66.8</ele>
        <time>2022-01-05T14:33:27Z</time>
      </trkpt>
      <trkpt lat="49.86756" lon="2.44824">
        <ele>66.8</ele>
        <time>2022-01-05T14:33:28Z</time>
      </trkpt>
      <trkpt lat="49.86756" lon="2.44823">
        <ele>66.7</ele>
        <time>2022-01-05T14:33:29Z</time>
      </trkpt>
      <trkpt lat="49.86757" lon="2.44821">
        <ele>66.7</ele>
        <time>2022-01-05T14:33:30Z</time>
      </trkpt>
      <trkpt lat="49.86757" lon="2.44819">
        <ele>66.7</ele>
        <time>2022-01-05T14:33:31Z</time>
      </trkpt>
      <trkpt lat="49.86757" lon="2.44817">
        <ele>66.7</ele>
        <time>2022-01-05T14:33:33Z</time>
      </trkpt>
      <trkpt lat="49.86757" lon="2.44815">
        <ele>66.7</ele>
        <time>2022-01-05T14:33:34Z</time>
      </trkpt>
      <trkpt lat="49.86757" lon="2.44812">
        <ele>66.6</ele>
        <time>2022-01-05T14:33:35Z</time>
      </trkpt>
      <trkpt lat="49.86758" lon="2.4481">
        <ele>66.6</ele>
        <time>2022-01-05T14:33:36Z</time>
      </trkpt>
      <trkpt lat="49.86758" lon="2.44806">
        <ele>66.5</ele>
        <time>2022-01-05T14:33:38Z</time>
      </trkpt>
      <trkpt lat="49.86758" lon="2.44804">
        <ele>66.5</ele>
        <time>2022-01-05T14:33:39Z</time>
      </trkpt>
      <trkpt lat="49.86758" lon="2.44802">
        <ele>66.5</ele>
        <time>2022-01-05T14:33:41Z</time>
      </trkpt>
      <trkpt lat="49.86758" lon="2.448">
        <ele>66.4</ele>
        <time>2022-01-05T14:33:42Z</time>
      </trkpt>
      <trkpt lat="49.86759" lon="2.44797">
        <ele>66.4</ele>
        <time>2022-01-05T14:33:43Z</time>
      </trkpt>
      <trkpt lat="49.86759" lon="2.44795">
        <ele>66.4</ele>
        <time>2022-01-05T14:33:44Z</time>
      </trkpt>
      <trkpt lat="49.86759" lon="2.44794">
        <ele>66.3</ele>
        <time>2022-01-05T14:33:45Z</time>
      </trkpt>
      <trkpt lat="49.86759" lon="2.44791">
        <ele>66.3</ele>
        <time>2022-01-05T14:33:46Z</time>
      </trkpt>
      <trkpt lat="49.8676" lon="2.44789">
        <ele>66.3</ele>
        <time>2022-01-05T14:33:48Z</time>
      </trkpt>
      <trkpt lat="49.8676" lon="2.44788">
        <ele>66.2</ele>
        <time>2022-01-05T14:33:49Z</time>
      </trkpt>
      <trkpt lat="49.8676" lon="2.44786">
        <ele>66.2</ele>
        <time>2022-01-05T14:33:50Z</time>
      </trkpt>
      <trkpt lat="49.8676" lon="2.44784">
        <ele>66.2</ele>
        <time>2022-01-05T14:33:51Z</time>
      </trkpt>
      <trkpt lat="49.86761" lon="2.44781">
        <ele>66.1</ele>
        <time>2022-01-05T14:33:52Z</time>
      </trkpt>
      <trkpt lat="49.86761" lon="2.44778">
        <ele>66.1</ele>
        <time>2022-01-05T14:33:53Z</time>
      </trkpt>
      <trkpt lat="49.86761" lon="2.44776">
        <ele>66.1</ele>
        <time>2022-01-05T14:33:55Z</time>
      </trkpt>
      <trkpt lat="49.86762" lon="2.44774">
        <ele>66</ele>
        <time>2022-01-05T14:33:56Z</time>
      </trkpt>
      <trkpt lat="49.86762" lon="2.44773">
        <ele>66</ele>
        <time>2022-01-05T14:33:57Z</time>
      </trkpt>
      <trkpt lat="49.86762" lon="2.44771">
        <ele>66</ele>
        <time>2022-01-05T14:33:58Z</time>
      </trkpt>
      <trkpt lat="49.86763" lon="2.44768">
        <ele>65.9</ele>
        <time>2022-01-05T14:33:59Z</time>
      </trkpt>
      <trkpt lat="49.86763" lon="2.44766">
        <ele>65.9</ele>
        <time>2022-01-05T14:34:00Z</time>
      </trkpt>
      <trkpt lat="49.86763" lon="2.44765">
        <ele>65.9</ele>
        <time>2022-01-05T14:34:01Z</time>
      </trkpt>
      <trkpt lat="49.86763" lon="2.44763">
        <ele>65.9</ele>
        <time>2022-01-05T14:34:02Z</time>
      </trkpt>
      <trkpt lat="49.86763" lon="2.44762">
        <ele>65.8</ele>
        <time>2022-01-05T14:34:04Z</time>
      </trkpt>
      <trkpt lat="49.86764" lon="2.4476">
        <ele>65.8</ele>
        <time>2022-01-05T14:34:05Z</time>
      </trkpt>
      <trkpt lat="49.86764" lon="2.44758">
        <ele>65.8</ele>
        <time>2022-01-05T14:34:06Z</time>
      </trkpt>
      <trkpt lat="49.86764" lon="2.44757">
        <ele>65.7</ele>
        <time>2022-01-05T14:34:07Z</time>
      </trkpt>
      <trkpt lat="49.86765" lon="2.44755">
        <ele>65.7</ele>
        <time>2022-01-05T14:34:08Z</time>
      </trkpt>
      <trkpt lat="49.86765" lon="2.44753">
        <ele>65.7</ele>
        <time>2022-01-05T14:34:09Z</time>
      </trkpt>
      <trkpt lat="49.86766" lon="2.4475">
        <ele>65.6</ele>
        <time>2022-01-05T14:34:11Z</time>
      </trkpt>
      <trkpt lat="49.86766" lon="2.44749">
        <ele>65.6</ele>
        <time>2022-01-05T14:34:12Z</time>
      </trkpt>
      <trkpt lat="49.86766" lon="2.44747">
        <ele>65.6</ele>
        <time>2022-01-05T14:34:13Z</time>
      </trkpt>
      <trkpt lat="49.86766" lon="2.44745">
        <ele>65.5</ele>
        <time>2022-01-05T14:34:14Z</time>
      </trkpt>
      <trkpt lat="49.86767" lon="2.44743">
        <ele>65.5</ele>
        <time>2022-01-05T14:34:15Z</time>
      </trkpt>
      <trkpt lat="49.86767" lon="2.44741">
        <ele>65.4</ele>
        <time>2022-01-05T14:34:16Z</time>
      </trkpt>
      <trkpt lat="49.86767" lon="2.44738">
        <ele>65.4</ele>
        <time>2022-01-05T14:34:18Z</time>
      </trkpt>
      <trkpt lat="49.86768" lon="2.44736">
        <ele>65.3</ele>
        <time>2022-01-05T14:34:19Z</time>
      </trkpt>
      <trkpt lat="49.86768" lon="2.44734">
        <ele>65.3</ele>
        <time>2022-01-05T14:34:20Z</time>
      </trkpt>
      <trkpt lat="49.86768" lon="2.44732">
        <ele>65.3</ele>
        <time>2022-01-05T14:34:21Z</time>
      </trkpt>
      <trkpt lat="49.86769" lon="2.4473">
        <ele>65.2</ele>
        <time>2022-01-05T14:34:22Z</time>
      </trkpt>
      <trkpt lat="49.86769" lon="2.44727">
        <ele>65.2</ele>
        <time>2022-01-05T14:34:23Z</time>
      </trkpt>
      <trkpt lat="49.8677" lon="2.44724">
        <ele>65.2</ele>
        <time>2022-01-05T14:34:25Z</time>
      </trkpt>
      <trkpt lat="49.86771" lon="2.44721">
        <ele>65.1</ele>
        <time>2022-01-05T14:34:27Z</time>
      </trkpt>
      <trkpt lat="49.86771" lon="2.44719">
        <ele>65.1</ele>
        <time>2022-01-05T14:34:28Z</time>
      </trkpt>
      <trkpt lat="49.86772" lon="2.44716">
        <ele>65.1</ele>
        <time>2022-01-05T14:34:30Z</time>
      </trkpt>
      <trkpt lat="49.86772" lon="2.44714">
        <ele>65.1</ele>
        <time>2022-01-05T14:34:31Z</time>
      </trkpt>
      <trkpt lat="49.86773" lon="2.44711">
        <ele>65</ele>
        <time>2022-01-05T14:34:32Z</time>
      </trkpt>
      <trkpt lat="49.86773" lon="2.44709">
        <ele>65</ele>
        <time>2022-01-05T14:34:34Z</time>
      </trkpt>
      <trkpt lat="49.86773" lon="2.44708">
        <ele>65</ele>
        <time>2022-01-05T14:34:35Z</time>
      </trkpt>
      <trkpt lat="49.86773" lon="2.44706">
        <ele>65</ele>
        <time>2022-01-05T14:34:36Z</time>
      </trkpt>
      <trkpt lat="49.86773" lon="2.44704">
        <ele>65</ele>
        <time>2022-01-05T14:34:38Z</time>
      </trkpt>
      <trkpt lat="49.86773" lon="2.447">
        <ele>64.9</ele>
        <time>2022-01-05T14:34:40Z</time>
      </trkpt>
      <trkpt lat="49.86773" lon="2.44698">
        <ele>64.9</ele>
        <time>2022-01-05T14:34:41Z</time>
      </trkpt>
      <trkpt lat="49.86773" lon="2.44696">
        <ele>64.9</ele>
        <time>2022-01-05T14:34:42Z</time>
      </trkpt>
      <trkpt lat="49.86773" lon="2.44693">
        <ele>64.9</ele>
        <time>2022-01-05T14:34:43Z</time>
      </trkpt>
      <trkpt lat="49.86773" lon="2.44692">
        <ele>64.9</ele>
        <time>2022-01-05T14:34:44Z</time>
      </trkpt>
      <trkpt lat="49.86773" lon="2.4469">
        <ele>64.8</ele>
        <time>2022-01-05T14:34:45Z</time>
      </trkpt>
      <trkpt lat="49.86773" lon="2.44688">
        <ele>64.8</ele>
        <time>2022-01-05T14:34:47Z</time>
      </trkpt>
      <trkpt lat="49.86773" lon="2.44686">
        <ele>64.8</ele>
        <time>2022-01-05T14:34:48Z</time>
      </trkpt>
      <trkpt lat="49.86773" lon="2.44683">
        <ele>64.8</ele>
        <time>2022-01-05T14:34:49Z</time>
      </trkpt>
      <trkpt lat="49.86774" lon="2.4468">
        <ele>64.7</ele>
        <time>2022-01-05T14:34:51Z</time>
      </trkpt>
      <trkpt lat="49.86774" lon="2.44678">
        <ele>64.7</ele>
        <time>2022-01-05T14:34:52Z</time>
      </trkpt>
      <trkpt lat="49.86775" lon="2.44675">
        <ele>64.6</ele>
        <time>2022-01-05T14:34:54Z</time>
      </trkpt>
      <trkpt lat="49.86776" lon="2.44674">
        <ele>64.6</ele>
        <time>2022-01-05T14:34:55Z</time>
      </trkpt>
      <trkpt lat="49.86776" lon="2.44672">
        <ele>64.6</ele>
        <time>2022-01-05T14:34:56Z</time>
      </trkpt>
      <trkpt lat="49.86777" lon="2.4467">
        <ele>64.5</ele>
        <time>2022-01-05T14:34:58Z</time>
      </trkpt>
      <trkpt lat="49.86778" lon="2.44668">
        <ele>64.5</ele>
        <time>2022-01-05T14:34:59Z</time>
      </trkpt>
      <trkpt lat="49.86779" lon="2.44665">
        <ele>64.4</ele>
        <time>2022-01-05T14:35:00Z</time>
      </trkpt>
      <trkpt lat="49.86779" lon="2.44663">
        <ele>64.4</ele>
        <time>2022-01-05T14:35:01Z</time>
      </trkpt>
      <trkpt lat="49.86779" lon="2.44662">
        <ele>64.4</ele>
        <time>2022-01-05T14:35:02Z</time>
      </trkpt>
      <trkpt lat="49.86779" lon="2.44661">
        <ele>64.4</ele>
        <time>2022-01-05T14:35:03Z</time>
      </trkpt>
      <trkpt lat="49.8678" lon="2.44659">
        <ele>64.3</ele>
        <time>2022-01-05T14:35:05Z</time>
      </trkpt>
      <trkpt lat="49.8678" lon="2.44657">
        <ele>64.3</ele>
        <time>2022-01-05T14:35:06Z</time>
      </trkpt>
      <trkpt lat="49.8678" lon="2.44655">
        <ele>64.2</ele>
        <time>2022-01-05T14:35:08Z</time>
      </trkpt>
      <trkpt lat="49.8678" lon="2.44653">
        <ele>64.2</ele>
        <time>2022-01-05T14:35:09Z</time>
      </trkpt>
      <trkpt lat="49.86781" lon="2.44652">
        <ele>64.2</ele>
        <time>2022-01-05T14:35:10Z</time>
      </trkpt>
      <trkpt lat="49.86781" lon="2.4465">
        <ele>64.1</ele>
        <time>2022-01-05T14:35:11Z</time>
      </trkpt>
      <trkpt lat="49.86781" lon="2.44648">
        <ele>64.1</ele>
        <time>2022-01-05T14:35:12Z</time>
      </trkpt>
      <trkpt lat="49.86781" lon="2.44647">
        <ele>64.1</ele>
        <time>2022-01-05T14:35:13Z</time>
      </trkpt>
      <trkpt lat="49.86782" lon="2.44644">
        <ele>64</ele>
        <time>2022-01-05T14:35:14Z</time>
      </trkpt>
      <trkpt lat="49.86782" lon="2.44642">
        <ele>64</ele>
        <time>2022-01-05T14:35:16Z</time>
      </trkpt>
      <trkpt lat="49.86782" lon="2.44641">
        <ele>63.9</ele>
        <time>2022-01-05T14:35:17Z</time>
      </trkpt>
      <trkpt lat="49.86782" lon="2.44639">
        <ele>63.9</ele>
        <time>2022-01-05T14:35:19Z</time>
      </trkpt>
      <trkpt lat="49.86782" lon="2.44637">
        <ele>63.8</ele>
        <time>2022-01-05T14:35:20Z</time>
      </trkpt>
      <trkpt lat="49.86782" lon="2.44635">
        <ele>63.8</ele>
        <time>2022-01-05T14:35:21Z</time>
      </trkpt>
      <trkpt lat="49.86782" lon="2.44632">
        <ele>63.7</ele>
        <time>2022-01-05T14:35:22Z</time>
      </trkpt>
      <trkpt lat="49.86782" lon="2.44631">
        <ele>63.7</ele>
        <time>2022-01-05T14:35:23Z</time>
      </trkpt>
      <trkpt lat="49.86782" lon="2.44629">
        <ele>63.7</ele>
        <time>2022-01-05T14:35:24Z</time>
      </trkpt>
      <trkpt lat="49.86783" lon="2.44628">
        <ele>63.6</ele>
        <time>2022-01-05T14:35:26Z</time>
      </trkpt>
      <trkpt lat="49.86783" lon="2.44626">
        <ele>63.6</ele>
        <time>2022-01-05T14:35:27Z</time>
      </trkpt>
      <trkpt lat="49.86784" lon="2.44624">
        <ele>63.5</ele>
        <time>2022-01-05T14:35:28Z</time>
      </trkpt>
      <trkpt lat="49.86784" lon="2.44622">
        <ele>63.5</ele>
        <time>2022-01-05T14:35:29Z</time>
      </trkpt>
      <trkpt lat="49.86784" lon="2.44621">
        <ele>63.4</ele>
        <time>2022-01-05T14:35:30Z</time>
      </trkpt>
      <trkpt lat="49.86785" lon="2.44619">
        <ele>63.4</ele>
        <time>2022-01-05T14:35:31Z</time>
      </trkpt>
      <trkpt lat="49.86785" lon="2.44618">
        <ele>63.4</ele>
        <time>2022-01-05T14:35:32Z</time>
      </trkpt>
      <trkpt lat="49.86785" lon="2.44616">
        <ele>63.3</ele>
        <time>2022-01-05T14:35:33Z</time>
      </trkpt>
      <trkpt lat="49.86786" lon="2.44614">
        <ele>63.3</ele>
        <time>2022-01-05T14:35:34Z</time>
      </trkpt>
      <trkpt lat="49.86786" lon="2.44611">
        <ele>63.2</ele>
        <time>2022-01-05T14:35:35Z</time>
      </trkpt>
      <trkpt lat="49.86787" lon="2.4461">
        <ele>63.2</ele>
        <time>2022-01-05T14:35:36Z</time>
      </trkpt>
      <trkpt lat="49.86787" lon="2.44607">
        <ele>63.1</ele>
        <time>2022-01-05T14:35:38Z</time>
      </trkpt>
      <trkpt lat="49.86788" lon="2.44604">
        <ele>63</ele>
        <time>2022-01-05T14:35:40Z</time>
      </trkpt>
      <trkpt lat="49.86788" lon="2.44601">
        <ele>63</ele>
        <time>2022-01-05T14:35:41Z</time>
      </trkpt>
      <trkpt lat="49.86789" lon="2.44599">
        <ele>62.9</ele>
        <time>2022-01-05T14:35:42Z</time>
      </trkpt>
      <trkpt lat="49.86789" lon="2.44598">
        <ele>62.9</ele>
        <time>2022-01-05T14:35:43Z</time>
      </trkpt>
      <trkpt lat="49.86789" lon="2.44596">
        <ele>62.9</ele>
        <time>2022-01-05T14:35:44Z</time>
      </trkpt>
      <trkpt lat="49.86789" lon="2.44594">
        <ele>62.8</ele>
        <time>2022-01-05T14:35:45Z</time>
      </trkpt>
      <trkpt lat="49.8679" lon="2.44592">
        <ele>62.8</ele>
        <time>2022-01-05T14:35:47Z</time>
      </trkpt>
      <trkpt lat="49.8679" lon="2.44589">
        <ele>62.7</ele>
        <time>2022-01-05T14:35:48Z</time>
      </trkpt>
      <trkpt lat="49.86791" lon="2.44588">
        <ele>62.7</ele>
        <time>2022-01-05T14:35:49Z</time>
      </trkpt>
      <trkpt lat="49.86791" lon="2.44587">
        <ele>62.7</ele>
        <time>2022-01-05T14:35:50Z</time>
      </trkpt>
      <trkpt lat="49.86792" lon="2.44585">
        <ele>62.6</ele>
        <time>2022-01-05T14:35:51Z</time>
      </trkpt>
      <trkpt lat="49.86792" lon="2.44583">
        <ele>62.6</ele>
        <time>2022-01-05T14:35:52Z</time>
      </trkpt>
      <trkpt lat="49.86793" lon="2.4458">
        <ele>62.6</ele>
        <time>2022-01-05T14:35:54Z</time>
      </trkpt>
      <trkpt lat="49.86794" lon="2.44578">
        <ele>62.5</ele>
        <time>2022-01-05T14:35:56Z</time>
      </trkpt>
      <trkpt lat="49.86794" lon="2.44576">
        <ele>62.5</ele>
        <time>2022-01-05T14:35:57Z</time>
      </trkpt>
      <trkpt lat="49.86794" lon="2.44574">
        <ele>62.5</ele>
        <time>2022-01-05T14:35:58Z</time>
      </trkpt>
      <trkpt lat="49.86794" lon="2.44571">
        <ele>62.5</ele>
        <time>2022-01-05T14:35:59Z</time>
      </trkpt>
      <trkpt lat="49.86793" lon="2.44569">
        <ele>62.4</ele>
        <time>2022-01-05T14:36:01Z</time>
      </trkpt>
      <trkpt lat="49.86792" lon="2.44568">
        <ele>62.4</ele>
        <time>2022-01-05T14:36:02Z</time>
      </trkpt>
      <trkpt lat="49.86791" lon="2.44567">
        <ele>62.4</ele>
        <time>2022-01-05T14:36:03Z</time>
      </trkpt>
      <trkpt lat="49.86791" lon="2.44566">
        <ele>62.4</ele>
        <time>2022-01-05T14:36:04Z</time>
      </trkpt>
      <trkpt lat="49.86791" lon="2.44564">
        <ele>62.4</ele>
        <time>2022-01-05T14:36:05Z</time>
      </trkpt>
      <trkpt lat="49.86791" lon="2.44562">
        <ele>62.3</ele>
        <time>2022-01-05T14:36:06Z</time>
      </trkpt>
      <trkpt lat="49.86792" lon="2.44561">
        <ele>62.3</ele>
        <time>2022-01-05T14:36:07Z</time>
      </trkpt>
      <trkpt lat="49.86792" lon="2.44559">
        <ele>62.3</ele>
        <time>2022-01-05T14:36:08Z</time>
      </trkpt>
      <trkpt lat="49.86793" lon="2.44558">
        <ele>62.3</ele>
        <time>2022-01-05T14:36:09Z</time>
      </trkpt>
      <trkpt lat="49.86793" lon="2.44554">
        <ele>62.3</ele>
        <time>2022-01-05T14:36:10Z</time>
      </trkpt>
      <trkpt lat="49.86794" lon="2.44553">
        <ele>62.2</ele>
        <time>2022-01-05T14:36:12Z</time>
      </trkpt>
      <trkpt lat="49.86794" lon="2.44551">
        <ele>62.2</ele>
        <time>2022-01-05T14:36:13Z</time>
      </trkpt>
      <trkpt lat="49.86794" lon="2.4455">
        <ele>62.2</ele>
        <time>2022-01-05T14:36:14Z</time>
      </trkpt>
      <trkpt lat="49.86794" lon="2.44548">
        <ele>62.2</ele>
        <time>2022-01-05T14:36:15Z</time>
      </trkpt>
      <trkpt lat="49.86794" lon="2.44546">
        <ele>62.2</ele>
        <time>2022-01-05T14:36:17Z</time>
      </trkpt>
      <trkpt lat="49.86794" lon="2.44542">
        <ele>62.2</ele>
        <time>2022-01-05T14:36:18Z</time>
      </trkpt>
      <trkpt lat="49.86794" lon="2.44541">
        <ele>62.2</ele>
        <time>2022-01-05T14:36:20Z</time>
      </trkpt>
      <trkpt lat="49.86794" lon="2.4454">
        <ele>62.2</ele>
        <time>2022-01-05T14:36:21Z</time>
      </trkpt>
      <trkpt lat="49.86794" lon="2.44538">
        <ele>62.2</ele>
        <time>2022-01-05T14:36:22Z</time>
      </trkpt>
      <trkpt lat="49.86794" lon="2.44537">
        <ele>62.2</ele>
        <time>2022-01-05T14:36:23Z</time>
      </trkpt>
      <trkpt lat="49.86794" lon="2.44535">
        <ele>62.1</ele>
        <time>2022-01-05T14:36:24Z</time>
      </trkpt>
      <trkpt lat="49.86794" lon="2.44534">
        <ele>62.1</ele>
        <time>2022-01-05T14:36:25Z</time>
      </trkpt>
      <trkpt lat="49.86793" lon="2.44532">
        <ele>62.1</ele>
        <time>2022-01-05T14:36:27Z</time>
      </trkpt>
      <trkpt lat="49.86793" lon="2.4453">
        <ele>62.1</ele>
        <time>2022-01-05T14:36:28Z</time>
      </trkpt>
      <trkpt lat="49.86793" lon="2.44529">
        <ele>62.1</ele>
        <time>2022-01-05T14:36:29Z</time>
      </trkpt>
      <trkpt lat="49.86793" lon="2.44527">
        <ele>62.1</ele>
        <time>2022-01-05T14:36:30Z</time>
      </trkpt>
      <trkpt lat="49.86793" lon="2.44525">
        <ele>62.1</ele>
        <time>2022-01-05T14:36:32Z</time>
      </trkpt>
      <trkpt lat="49.86793" lon="2.44523">
        <ele>62.1</ele>
        <time>2022-01-05T14:36:33Z</time>
      </trkpt>
      <trkpt lat="49.86792" lon="2.44521">
        <ele>62.1</ele>
        <time>2022-01-05T14:36:34Z</time>
      </trkpt>
      <trkpt lat="49.86792" lon="2.44519">
        <ele>62.1</ele>
        <time>2022-01-05T14:36:36Z</time>
      </trkpt>
      <trkpt lat="49.86792" lon="2.44517">
        <ele>62.1</ele>
        <time>2022-01-05T14:36:37Z</time>
      </trkpt>
      <trkpt lat="49.86792" lon="2.44515">
        <ele>62.1</ele>
        <time>2022-01-05T14:36:39Z</time>
      </trkpt>
      <trkpt lat="49.86791" lon="2.44513">
        <ele>62.1</ele>
        <time>2022-01-05T14:36:40Z</time>
      </trkpt>
      <trkpt lat="49.86791" lon="2.44511">
        <ele>62.1</ele>
        <time>2022-01-05T14:36:41Z</time>
      </trkpt>
      <trkpt lat="49.86791" lon="2.44508">
        <ele>62.1</ele>
        <time>2022-01-05T14:36:42Z</time>
      </trkpt>
      <trkpt lat="49.8679" lon="2.44506">
        <ele>62.1</ele>
        <time>2022-01-05T14:36:43Z</time>
      </trkpt>
      <trkpt lat="49.8679" lon="2.44504">
        <ele>62.1</ele>
        <time>2022-01-05T14:36:45Z</time>
      </trkpt>
      <trkpt lat="49.8679" lon="2.44503">
        <ele>62.1</ele>
        <time>2022-01-05T14:36:46Z</time>
      </trkpt>
      <trkpt lat="49.8679" lon="2.44502">
        <ele>62.1</ele>
        <time>2022-01-05T14:36:47Z</time>
      </trkpt>
      <trkpt lat="49.86789" lon="2.44498">
        <ele>62.2</ele>
        <time>2022-01-05T14:36:48Z</time>
      </trkpt>
      <trkpt lat="49.86788" lon="2.44497">
        <ele>62.2</ele>
        <time>2022-01-05T14:36:49Z</time>
      </trkpt>
      <trkpt lat="49.86788" lon="2.44496">
        <ele>62.2</ele>
        <time>2022-01-05T14:36:51Z</time>
      </trkpt>
      <trkpt lat="49.86788" lon="2.44494">
        <ele>62.2</ele>
        <time>2022-01-05T14:36:53Z</time>
      </trkpt>
      <trkpt lat="49.86787" lon="2.44493">
        <ele>62.2</ele>
        <time>2022-01-05T14:36:54Z</time>
      </trkpt>
      <trkpt lat="49.86787" lon="2.44492">
        <ele>62.2</ele>
        <time>2022-01-05T14:36:55Z</time>
      </trkpt>
      <trkpt lat="49.86786" lon="2.44489">
        <ele>62.2</ele>
        <time>2022-01-05T14:36:56Z</time>
      </trkpt>
      <trkpt lat="49.86786" lon="2.44488">
        <ele>62.2</ele>
        <time>2022-01-05T14:36:58Z</time>
      </trkpt>
      <trkpt lat="49.86786" lon="2.44486">
        <ele>62.2</ele>
        <time>2022-01-05T14:36:59Z</time>
      </trkpt>
      <trkpt lat="49.86786" lon="2.44483">
        <ele>62.2</ele>
        <time>2022-01-05T14:37:00Z</time>
      </trkpt>
      <trkpt lat="49.86786" lon="2.44482">
        <ele>62.2</ele>
        <time>2022-01-05T14:37:01Z</time>
      </trkpt>
      <trkpt lat="49.86786" lon="2.44481">
        <ele>62.2</ele>
        <time>2022-01-05T14:37:02Z</time>
      </trkpt>
      <trkpt lat="49.86787" lon="2.44479">
        <ele>62.2</ele>
        <time>2022-01-05T14:37:03Z</time>
      </trkpt>
      <trkpt lat="49.86787" lon="2.44477">
        <ele>62.2</ele>
        <time>2022-01-05T14:37:04Z</time>
      </trkpt>
      <trkpt lat="49.86788" lon="2.44476">
        <ele>62.2</ele>
        <time>2022-01-05T14:37:06Z</time>
      </trkpt>
      <trkpt lat="49.86788" lon="2.44475">
        <ele>62.2</ele>
        <time>2022-01-05T14:37:07Z</time>
      </trkpt>
      <trkpt lat="49.86787" lon="2.44473">
        <ele>62.2</ele>
        <time>2022-01-05T14:37:08Z</time>
      </trkpt>
      <trkpt lat="49.86787" lon="2.44471">
        <ele>62.3</ele>
        <time>2022-01-05T14:37:10Z</time>
      </trkpt>
      <trkpt lat="49.86786" lon="2.44469">
        <ele>62.3</ele>
        <time>2022-01-05T14:37:11Z</time>
      </trkpt>
      <trkpt lat="49.86786" lon="2.44467">
        <ele>62.3</ele>
        <time>2022-01-05T14:37:12Z</time>
      </trkpt>
      <trkpt lat="49.86786" lon="2.44465">
        <ele>62.3</ele>
        <time>2022-01-05T14:37:13Z</time>
      </trkpt>
      <trkpt lat="49.86785" lon="2.44462">
        <ele>62.3</ele>
        <time>2022-01-05T14:37:15Z</time>
      </trkpt>
      <trkpt lat="49.86785" lon="2.4446">
        <ele>62.4</ele>
        <time>2022-01-05T14:37:16Z</time>
      </trkpt>
      <trkpt lat="49.86785" lon="2.44458">
        <ele>62.4</ele>
        <time>2022-01-05T14:37:17Z</time>
      </trkpt>
      <trkpt lat="49.86785" lon="2.44456">
        <ele>62.4</ele>
        <time>2022-01-05T14:37:19Z</time>
      </trkpt>
      <trkpt lat="49.86785" lon="2.44455">
        <ele>62.4</ele>
        <time>2022-01-05T14:37:20Z</time>
      </trkpt>
      <trkpt lat="49.86785" lon="2.44452">
        <ele>62.5</ele>
        <time>2022-01-05T14:37:22Z</time>
      </trkpt>
      <trkpt lat="49.86787" lon="2.44451">
        <ele>62.5</ele>
        <time>2022-01-05T14:37:23Z</time>
      </trkpt>
      <trkpt lat="49.86788" lon="2.44449">
        <ele>62.5</ele>
        <time>2022-01-05T14:37:25Z</time>
      </trkpt>
      <trkpt lat="49.86789" lon="2.44449">
        <ele>62.5</ele>
        <time>2022-01-05T14:37:26Z</time>
      </trkpt>
      <trkpt lat="49.86789" lon="2.44448">
        <ele>62.6</ele>
        <time>2022-01-05T14:37:27Z</time>
      </trkpt>
      <trkpt lat="49.86789" lon="2.44446">
        <ele>62.6</ele>
        <time>2022-01-05T14:37:28Z</time>
      </trkpt>
      <trkpt lat="49.86789" lon="2.44445">
        <ele>62.6</ele>
        <time>2022-01-05T14:37:29Z</time>
      </trkpt>
      <trkpt lat="49.86789" lon="2.44443">
        <ele>62.6</ele>
        <time>2022-01-05T14:37:31Z</time>
      </trkpt>
      <trkpt lat="49.86788" lon="2.44442">
        <ele>62.6</ele>
        <time>2022-01-05T14:37:32Z</time>
      </trkpt>
      <trkpt lat="49.86788" lon="2.4444">
        <ele>62.7</ele>
        <time>2022-01-05T14:37:33Z</time>
      </trkpt>
      <trkpt lat="49.86788" lon="2.44438">
        <ele>62.7</ele>
        <time>2022-01-05T14:37:35Z</time>
      </trkpt>
      <trkpt lat="49.86787" lon="2.44436">
        <ele>62.7</ele>
        <time>2022-01-05T14:37:36Z</time>
      </trkpt>
      <trkpt lat="49.86787" lon="2.44433">
        <ele>62.8</ele>
        <time>2022-01-05T14:37:38Z</time>
      </trkpt>
      <trkpt lat="49.86786" lon="2.44431">
        <ele>62.8</ele>
        <time>2022-01-05T14:37:39Z</time>
      </trkpt>
      <trkpt lat="49.86786" lon="2.4443">
        <ele>62.8</ele>
        <time>2022-01-05T14:37:40Z</time>
      </trkpt>
      <trkpt lat="49.86785" lon="2.44428">
        <ele>62.8</ele>
        <time>2022-01-05T14:37:41Z</time>
      </trkpt>
      <trkpt lat="49.86784" lon="2.44424">
        <ele>62.9</ele>
        <time>2022-01-05T14:37:43Z</time>
      </trkpt>
      <trkpt lat="49.86784" lon="2.44423">
        <ele>62.9</ele>
        <time>2022-01-05T14:37:44Z</time>
      </trkpt>
      <trkpt lat="49.86784" lon="2.44421">
        <ele>62.9</ele>
        <time>2022-01-05T14:37:45Z</time>
      </trkpt>
      <trkpt lat="49.86783" lon="2.44418">
        <ele>63</ele>
        <time>2022-01-05T14:37:46Z</time>
      </trkpt>
      <trkpt lat="49.86783" lon="2.44417">
        <ele>63</ele>
        <time>2022-01-05T14:37:48Z</time>
      </trkpt>
      <trkpt lat="49.86783" lon="2.44415">
        <ele>63</ele>
        <time>2022-01-05T14:37:49Z</time>
      </trkpt>
      <trkpt lat="49.86783" lon="2.44414">
        <ele>63</ele>
        <time>2022-01-05T14:37:50Z</time>
      </trkpt>
      <trkpt lat="49.86783" lon="2.44412">
        <ele>63</ele>
        <time>2022-01-05T14:37:51Z</time>
      </trkpt>
      <trkpt lat="49.86782" lon="2.4441">
        <ele>63</ele>
        <time>2022-01-05T14:37:52Z</time>
      </trkpt>
      <trkpt lat="49.86782" lon="2.44408">
        <ele>63</ele>
        <time>2022-01-05T14:37:53Z</time>
      </trkpt>
      <trkpt lat="49.86782" lon="2.44406">
        <ele>63</ele>
        <time>2022-01-05T14:37:54Z</time>
      </trkpt>
      <trkpt lat="49.86782" lon="2.44404">
        <ele>63.1</ele>
        <time>2022-01-05T14:37:56Z</time>
      </trkpt>
      <trkpt lat="49.86781" lon="2.44401">
        <ele>63.1</ele>
        <time>2022-01-05T14:37:57Z</time>
      </trkpt>
      <trkpt lat="49.86781" lon="2.44399">
        <ele>63.1</ele>
        <time>2022-01-05T14:37:58Z</time>
      </trkpt>
      <trkpt lat="49.86781" lon="2.44398">
        <ele>63.1</ele>
        <time>2022-01-05T14:37:59Z</time>
      </trkpt>
      <trkpt lat="49.8678" lon="2.44395">
        <ele>63.1</ele>
        <time>2022-01-05T14:38:00Z</time>
      </trkpt>
      <trkpt lat="49.8678" lon="2.44394">
        <ele>63.1</ele>
        <time>2022-01-05T14:38:01Z</time>
      </trkpt>
      <trkpt lat="49.8678" lon="2.44393">
        <ele>63.1</ele>
        <time>2022-01-05T14:38:02Z</time>
      </trkpt>
      <trkpt lat="49.86779" lon="2.4439">
        <ele>63.1</ele>
        <time>2022-01-05T14:38:04Z</time>
      </trkpt>
      <trkpt lat="49.86779" lon="2.44388">
        <ele>63.1</ele>
        <time>2022-01-05T14:38:05Z</time>
      </trkpt>
      <trkpt lat="49.86779" lon="2.44387">
        <ele>63.1</ele>
        <time>2022-01-05T14:38:06Z</time>
      </trkpt>
      <trkpt lat="49.86779" lon="2.44385">
        <ele>63.2</ele>
        <time>2022-01-05T14:38:07Z</time>
      </trkpt>
      <trkpt lat="49.86779" lon="2.44383">
        <ele>63.2</ele>
        <time>2022-01-05T14:38:08Z</time>
      </trkpt>
      <trkpt lat="49.86778" lon="2.44382">
        <ele>63.2</ele>
        <time>2022-01-05T14:38:09Z</time>
      </trkpt>
      <trkpt lat="49.86778" lon="2.44379">
        <ele>63.2</ele>
        <time>2022-01-05T14:38:10Z</time>
      </trkpt>
      <trkpt lat="49.86778" lon="2.44377">
        <ele>63.2</ele>
        <time>2022-01-05T14:38:12Z</time>
      </trkpt>
      <trkpt lat="49.86777" lon="2.44376">
        <ele>63.2</ele>
        <time>2022-01-05T14:38:13Z</time>
      </trkpt>
      <trkpt lat="49.86777" lon="2.44374">
        <ele>63.2</ele>
        <time>2022-01-05T14:38:14Z</time>
      </trkpt>
      <trkpt lat="49.86777" lon="2.44372">
        <ele>63.3</ele>
        <time>2022-01-05T14:38:16Z</time>
      </trkpt>
      <trkpt lat="49.86777" lon="2.44371">
        <ele>63.3</ele>
        <time>2022-01-05T14:38:17Z</time>
      </trkpt>
      <trkpt lat="49.86777" lon="2.44369">
        <ele>63.3</ele>
        <time>2022-01-05T14:38:18Z</time>
      </trkpt>
      <trkpt lat="49.86777" lon="2.44368">
        <ele>63.3</ele>
        <time>2022-01-05T14:38:20Z</time>
      </trkpt>
      <trkpt lat="49.86776" lon="2.44365">
        <ele>63.3</ele>
        <time>2022-01-05T14:38:22Z</time>
      </trkpt>
      <trkpt lat="49.86776" lon="2.44364">
        <ele>63.3</ele>
        <time>2022-01-05T14:38:23Z</time>
      </trkpt>
      <trkpt lat="49.86775" lon="2.44364">
        <ele>63.3</ele>
        <time>2022-01-05T14:38:24Z</time>
      </trkpt>
      <trkpt lat="49.86775" lon="2.44363">
        <ele>63.3</ele>
        <time>2022-01-05T14:38:25Z</time>
      </trkpt>
      <trkpt lat="49.86775" lon="2.44361">
        <ele>63.3</ele>
        <time>2022-01-05T14:38:26Z</time>
      </trkpt>
      <trkpt lat="49.86775" lon="2.4436">
        <ele>63.4</ele>
        <time>2022-01-05T14:38:27Z</time>
      </trkpt>
      <trkpt lat="49.86774" lon="2.44358">
        <ele>63.4</ele>
        <time>2022-01-05T14:38:28Z</time>
      </trkpt>
      <trkpt lat="49.86774" lon="2.44356">
        <ele>63.4</ele>
        <time>2022-01-05T14:38:30Z</time>
      </trkpt>
      <trkpt lat="49.86774" lon="2.44354">
        <ele>63.4</ele>
        <time>2022-01-05T14:38:31Z</time>
      </trkpt>
      <trkpt lat="49.86774" lon="2.44353">
        <ele>63.4</ele>
        <time>2022-01-05T14:38:32Z</time>
      </trkpt>
      <trkpt lat="49.86774" lon="2.44351">
        <ele>63.4</ele>
        <time>2022-01-05T14:38:34Z</time>
      </trkpt>
      <trkpt lat="49.86774" lon="2.44348">
        <ele>63.4</ele>
        <time>2022-01-05T14:38:36Z</time>
      </trkpt>
      <trkpt lat="49.86774" lon="2.44346">
        <ele>63.4</ele>
        <time>2022-01-05T14:38:37Z</time>
      </trkpt>
      <trkpt lat="49.86774" lon="2.44344">
        <ele>63.4</ele>
        <time>2022-01-05T14:38:39Z</time>
      </trkpt>
      <trkpt lat="49.86774" lon="2.44343">
        <ele>63.5</ele>
        <time>2022-01-05T14:38:40Z</time>
      </trkpt>
      <trkpt lat="49.86774" lon="2.44341">
        <ele>63.5</ele>
        <time>2022-01-05T14:38:41Z</time>
      </trkpt>
      <trkpt lat="49.86774" lon="2.4434">
        <ele>63.5</ele>
        <time>2022-01-05T14:38:42Z</time>
      </trkpt>
      <trkpt lat="49.86774" lon="2.44338">
        <ele>63.5</ele>
        <time>2022-01-05T14:38:44Z</time>
      </trkpt>
      <trkpt lat="49.86774" lon="2.44336">
        <ele>63.5</ele>
        <time>2022-01-05T14:38:45Z</time>
      </trkpt>
      <trkpt lat="49.86774" lon="2.44333">
        <ele>63.5</ele>
        <time>2022-01-05T14:38:47Z</time>
      </trkpt>
      <trkpt lat="49.86774" lon="2.44331">
        <ele>63.5</ele>
        <time>2022-01-05T14:38:48Z</time>
      </trkpt>
      <trkpt lat="49.86774" lon="2.44328">
        <ele>63.5</ele>
        <time>2022-01-05T14:38:49Z</time>
      </trkpt>
      <trkpt lat="49.86774" lon="2.44326">
        <ele>63.6</ele>
        <time>2022-01-05T14:38:51Z</time>
      </trkpt>
      <trkpt lat="49.86774" lon="2.44325">
        <ele>63.6</ele>
        <time>2022-01-05T14:38:52Z</time>
      </trkpt>
      <trkpt lat="49.86774" lon="2.44323">
        <ele>63.6</ele>
        <time>2022-01-05T14:38:53Z</time>
      </trkpt>
      <trkpt lat="49.86774" lon="2.44321">
        <ele>63.6</ele>
        <time>2022-01-05T14:38:54Z</time>
      </trkpt>
      <trkpt lat="49.86773" lon="2.44319">
        <ele>63.6</ele>
        <time>2022-01-05T14:38:55Z</time>
      </trkpt>
      <trkpt lat="49.86773" lon="2.44318">
        <ele>63.6</ele>
        <time>2022-01-05T14:38:56Z</time>
      </trkpt>
      <trkpt lat="49.86773" lon="2.44316">
        <ele>63.6</ele>
        <time>2022-01-05T14:38:58Z</time>
      </trkpt>
      <trkpt lat="49.86773" lon="2.44315">
        <ele>63.7</ele>
        <time>2022-01-05T14:38:59Z</time>
      </trkpt>
      <trkpt lat="49.86773" lon="2.44313">
        <ele>63.7</ele>
        <time>2022-01-05T14:39:00Z</time>
      </trkpt>
      <trkpt lat="49.86773" lon="2.44311">
        <ele>63.7</ele>
        <time>2022-01-05T14:39:01Z</time>
      </trkpt>
      <trkpt lat="49.86772" lon="2.44309">
        <ele>63.7</ele>
        <time>2022-01-05T14:39:02Z</time>
      </trkpt>
      <trkpt lat="49.86772" lon="2.44308">
        <ele>63.7</ele>
        <time>2022-01-05T14:39:03Z</time>
      </trkpt>
      <trkpt lat="49.86772" lon="2.44306">
        <ele>63.7</ele>
        <time>2022-01-05T14:39:05Z</time>
      </trkpt>
      <trkpt lat="49.86771" lon="2.44304">
        <ele>63.7</ele>
        <time>2022-01-05T14:39:06Z</time>
      </trkpt>
      <trkpt lat="49.86771" lon="2.44303">
        <ele>63.7</ele>
        <time>2022-01-05T14:39:07Z</time>
      </trkpt>
      <trkpt lat="49.86771" lon="2.44301">
        <ele>63.7</ele>
        <time>2022-01-05T14:39:08Z</time>
      </trkpt>
      <trkpt lat="49.86771" lon="2.44299">
        <ele>63.8</ele>
        <time>2022-01-05T14:39:09Z</time>
      </trkpt>
      <trkpt lat="49.86771" lon="2.44298">
        <ele>63.8</ele>
        <time>2022-01-05T14:39:11Z</time>
      </trkpt>
      <trkpt lat="49.8677" lon="2.44296">
        <ele>63.8</ele>
        <time>2022-01-05T14:39:12Z</time>
      </trkpt>
      <trkpt lat="49.8677" lon="2.44295">
        <ele>63.8</ele>
        <time>2022-01-05T14:39:13Z</time>
      </trkpt>
      <trkpt lat="49.8677" lon="2.44293">
        <ele>63.8</ele>
        <time>2022-01-05T14:39:14Z</time>
      </trkpt>
      <trkpt lat="49.8677" lon="2.44292">
        <ele>63.8</ele>
        <time>2022-01-05T14:39:15Z</time>
      </trkpt>
      <trkpt lat="49.8677" lon="2.4429">
        <ele>63.8</ele>
        <time>2022-01-05T14:39:17Z</time>
      </trkpt>
      <trkpt lat="49.86769" lon="2.44288">
        <ele>63.8</ele>
        <time>2022-01-05T14:39:18Z</time>
      </trkpt>
      <trkpt lat="49.86769" lon="2.44287">
        <ele>63.8</ele>
        <time>2022-01-05T14:39:19Z</time>
      </trkpt>
      <trkpt lat="49.86769" lon="2.44286">
        <ele>63.8</ele>
        <time>2022-01-05T14:39:20Z</time>
      </trkpt>
      <trkpt lat="49.86769" lon="2.44284">
        <ele>63.8</ele>
        <time>2022-01-05T14:39:22Z</time>
      </trkpt>
      <trkpt lat="49.86769" lon="2.44282">
        <ele>63.9</ele>
        <time>2022-01-05T14:39:24Z</time>
      </trkpt>
      <trkpt lat="49.86769" lon="2.4428">
        <ele>63.9</ele>
        <time>2022-01-05T14:39:25Z</time>
      </trkpt>
      <trkpt lat="49.86769" lon="2.44279">
        <ele>63.9</ele>
        <time>2022-01-05T14:39:26Z</time>
      </trkpt>
      <trkpt lat="49.86769" lon="2.44277">
        <ele>63.9</ele>
        <time>2022-01-05T14:39:27Z</time>
      </trkpt>
      <trkpt lat="49.86768" lon="2.44273">
        <ele>64</ele>
        <time>2022-01-05T14:39:29Z</time>
      </trkpt>
      <trkpt lat="49.86768" lon="2.44272">
        <ele>64</ele>
        <time>2022-01-05T14:39:30Z</time>
      </trkpt>
      <trkpt lat="49.86768" lon="2.44271">
        <ele>64</ele>
        <time>2022-01-05T14:39:31Z</time>
      </trkpt>
      <trkpt lat="49.86768" lon="2.44267">
        <ele>64.1</ele>
        <time>2022-01-05T14:39:32Z</time>
      </trkpt>
      <trkpt lat="49.86768" lon="2.44265">
        <ele>64.1</ele>
        <time>2022-01-05T14:39:34Z</time>
      </trkpt>
      <trkpt lat="49.86767" lon="2.44263">
        <ele>64.1</ele>
        <time>2022-01-05T14:39:35Z</time>
      </trkpt>
      <trkpt lat="49.86767" lon="2.44262">
        <ele>64.1</ele>
        <time>2022-01-05T14:39:36Z</time>
      </trkpt>
      <trkpt lat="49.86767" lon="2.4426">
        <ele>64.1</ele>
        <time>2022-01-05T14:39:37Z</time>
      </trkpt>
      <trkpt lat="49.86767" lon="2.44258">
        <ele>64.1</ele>
        <time>2022-01-05T14:39:39Z</time>
      </trkpt>
      <trkpt lat="49.86767" lon="2.44257">
        <ele>64.2</ele>
        <time>2022-01-05T14:39:40Z</time>
      </trkpt>
      <trkpt lat="49.86766" lon="2.44255">
        <ele>64.2</ele>
        <time>2022-01-05T14:39:41Z</time>
      </trkpt>
      <trkpt lat="49.86766" lon="2.44253">
        <ele>64.2</ele>
        <time>2022-01-05T14:39:42Z</time>
      </trkpt>
      <trkpt lat="49.86766" lon="2.44251">
        <ele>64.2</ele>
        <time>2022-01-05T14:39:43Z</time>
      </trkpt>
      <trkpt lat="49.86766" lon="2.44249">
        <ele>64.2</ele>
        <time>2022-01-05T14:39:45Z</time>
      </trkpt>
      <trkpt lat="49.86765" lon="2.44248">
        <ele>64.2</ele>
        <time>2022-01-05T14:39:46Z</time>
      </trkpt>
      <trkpt lat="49.86765" lon="2.44246">
        <ele>64.2</ele>
        <time>2022-01-05T14:39:47Z</time>
      </trkpt>
      <trkpt lat="49.86765" lon="2.44244">
        <ele>64.2</ele>
        <time>2022-01-05T14:39:49Z</time>
      </trkpt>
      <trkpt lat="49.86765" lon="2.44242">
        <ele>64.2</ele>
        <time>2022-01-05T14:39:50Z</time>
      </trkpt>
      <trkpt lat="49.86764" lon="2.44241">
        <ele>64.2</ele>
        <time>2022-01-05T14:39:51Z</time>
      </trkpt>
      <trkpt lat="49.86764" lon="2.44239">
        <ele>64.2</ele>
        <time>2022-01-05T14:39:52Z</time>
      </trkpt>
      <trkpt lat="49.86763" lon="2.44236">
        <ele>64.2</ele>
        <time>2022-01-05T14:39:53Z</time>
      </trkpt>
      <trkpt lat="49.86763" lon="2.44235">
        <ele>64.2</ele>
        <time>2022-01-05T14:39:55Z</time>
      </trkpt>
      <trkpt lat="49.86763" lon="2.44234">
        <ele>64.2</ele>
        <time>2022-01-05T14:39:56Z</time>
      </trkpt>
      <trkpt lat="49.86762" lon="2.44232">
        <ele>64.2</ele>
        <time>2022-01-05T14:39:57Z</time>
      </trkpt>
      <trkpt lat="49.86762" lon="2.44231">
        <ele>64.2</ele>
        <time>2022-01-05T14:39:58Z</time>
      </trkpt>
      <trkpt lat="49.86762" lon="2.44229">
        <ele>64.2</ele>
        <time>2022-01-05T14:39:59Z</time>
      </trkpt>
      <trkpt lat="49.86761" lon="2.44228">
        <ele>64.2</ele>
        <time>2022-01-05T14:40:00Z</time>
      </trkpt>
      <trkpt lat="49.86761" lon="2.44226">
        <ele>64.2</ele>
        <time>2022-01-05T14:40:01Z</time>
      </trkpt>
      <trkpt lat="49.86761" lon="2.44225">
        <ele>64.2</ele>
        <time>2022-01-05T14:40:02Z</time>
      </trkpt>
      <trkpt lat="49.8676" lon="2.44222">
        <ele>64.2</ele>
        <time>2022-01-05T14:40:04Z</time>
      </trkpt>
      <trkpt lat="49.8676" lon="2.4422">
        <ele>64.2</ele>
        <time>2022-01-05T14:40:05Z</time>
      </trkpt>
      <trkpt lat="49.8676" lon="2.44219">
        <ele>64.2</ele>
        <time>2022-01-05T14:40:06Z</time>
      </trkpt>
      <trkpt lat="49.8676" lon="2.44217">
        <ele>64.2</ele>
        <time>2022-01-05T14:40:07Z</time>
      </trkpt>
      <trkpt lat="49.8676" lon="2.44215">
        <ele>64.2</ele>
        <time>2022-01-05T14:40:09Z</time>
      </trkpt>
      <trkpt lat="49.8676" lon="2.44214">
        <ele>64.2</ele>
        <time>2022-01-05T14:40:10Z</time>
      </trkpt>
      <trkpt lat="49.8676" lon="2.44212">
        <ele>64.2</ele>
        <time>2022-01-05T14:40:11Z</time>
      </trkpt>
      <trkpt lat="49.8676" lon="2.44211">
        <ele>64.2</ele>
        <time>2022-01-05T14:40:12Z</time>
      </trkpt>
      <trkpt lat="49.8676" lon="2.44209">
        <ele>64.2</ele>
        <time>2022-01-05T14:40:14Z</time>
      </trkpt>
      <trkpt lat="49.8676" lon="2.44208">
        <ele>64.2</ele>
        <time>2022-01-05T14:40:15Z</time>
      </trkpt>
      <trkpt lat="49.86759" lon="2.44206">
        <ele>64.2</ele>
        <time>2022-01-05T14:40:17Z</time>
      </trkpt>
      <trkpt lat="49.86759" lon="2.44205">
        <ele>64.2</ele>
        <time>2022-01-05T14:40:18Z</time>
      </trkpt>
      <trkpt lat="49.86759" lon="2.44204">
        <ele>64.2</ele>
        <time>2022-01-05T14:40:19Z</time>
      </trkpt>
      <trkpt lat="49.86759" lon="2.44203">
        <ele>64.2</ele>
        <time>2022-01-05T14:40:21Z</time>
      </trkpt>
      <trkpt lat="49.86759" lon="2.44202">
        <ele>64.2</ele>
        <time>2022-01-05T14:40:22Z</time>
      </trkpt>
      <trkpt lat="49.86759" lon="2.44201">
        <ele>64.2</ele>
        <time>2022-01-05T14:40:23Z</time>
      </trkpt>
      <trkpt lat="49.86758" lon="2.442">
        <ele>64.2</ele>
        <time>2022-01-05T14:40:24Z</time>
      </trkpt>
      <trkpt lat="49.86758" lon="2.44198">
        <ele>64.2</ele>
        <time>2022-01-05T14:40:26Z</time>
      </trkpt>
      <trkpt lat="49.86757" lon="2.44196">
        <ele>64.2</ele>
        <time>2022-01-05T14:40:28Z</time>
      </trkpt>
      <trkpt lat="49.86757" lon="2.44195">
        <ele>64.2</ele>
        <time>2022-01-05T14:40:29Z</time>
      </trkpt>
      <trkpt lat="49.86757" lon="2.44194">
        <ele>64.2</ele>
        <time>2022-01-05T14:40:30Z</time>
      </trkpt>
      <trkpt lat="49.86757" lon="2.44193">
        <ele>64.2</ele>
        <time>2022-01-05T14:40:31Z</time>
      </trkpt>
      <trkpt lat="49.86757" lon="2.44191">
        <ele>64.2</ele>
        <time>2022-01-05T14:40:32Z</time>
      </trkpt>
      <trkpt lat="49.86757" lon="2.4419">
        <ele>64.2</ele>
        <time>2022-01-05T14:40:33Z</time>
      </trkpt>
      <trkpt lat="49.86757" lon="2.44189">
        <ele>64.2</ele>
        <time>2022-01-05T14:40:34Z</time>
      </trkpt>
      <trkpt lat="49.86758" lon="2.44187">
        <ele>64.2</ele>
        <time>2022-01-05T14:40:36Z</time>
      </trkpt>
      <trkpt lat="49.86757" lon="2.44186">
        <ele>64.3</ele>
        <time>2022-01-05T14:40:37Z</time>
      </trkpt>
      <trkpt lat="49.86757" lon="2.44184">
        <ele>64.3</ele>
        <time>2022-01-05T14:40:39Z</time>
      </trkpt>
      <trkpt lat="49.86757" lon="2.44182">
        <ele>64.3</ele>
        <time>2022-01-05T14:40:40Z</time>
      </trkpt>
      <trkpt lat="49.86756" lon="2.44181">
        <ele>64.3</ele>
        <time>2022-01-05T14:40:41Z</time>
      </trkpt>
      <trkpt lat="49.86756" lon="2.44179">
        <ele>64.3</ele>
        <time>2022-01-05T14:40:42Z</time>
      </trkpt>
      <trkpt lat="49.86755" lon="2.44178">
        <ele>64.3</ele>
        <time>2022-01-05T14:40:43Z</time>
      </trkpt>
      <trkpt lat="49.86755" lon="2.44176">
        <ele>64.3</ele>
        <time>2022-01-05T14:40:44Z</time>
      </trkpt>
      <trkpt lat="49.86755" lon="2.44175">
        <ele>64.3</ele>
        <time>2022-01-05T14:40:46Z</time>
      </trkpt>
      <trkpt lat="49.86754" lon="2.44174">
        <ele>64.4</ele>
        <time>2022-01-05T14:40:47Z</time>
      </trkpt>
      <trkpt lat="49.86753" lon="2.44171">
        <ele>64.4</ele>
        <time>2022-01-05T14:40:48Z</time>
      </trkpt>
      <trkpt lat="49.86753" lon="2.44169">
        <ele>64.4</ele>
        <time>2022-01-05T14:40:49Z</time>
      </trkpt>
      <trkpt lat="49.86753" lon="2.44168">
        <ele>64.4</ele>
        <time>2022-01-05T14:40:50Z</time>
      </trkpt>
      <trkpt lat="49.86752" lon="2.44167">
        <ele>64.4</ele>
        <time>2022-01-05T14:40:51Z</time>
      </trkpt>
      <trkpt lat="49.86752" lon="2.44165">
        <ele>64.4</ele>
        <time>2022-01-05T14:40:52Z</time>
      </trkpt>
      <trkpt lat="49.86752" lon="2.44163">
        <ele>64.4</ele>
        <time>2022-01-05T14:40:54Z</time>
      </trkpt>
      <trkpt lat="49.86752" lon="2.44162">
        <ele>64.4</ele>
        <time>2022-01-05T14:40:55Z</time>
      </trkpt>
      <trkpt lat="49.86751" lon="2.4416">
        <ele>64.5</ele>
        <time>2022-01-05T14:40:56Z</time>
      </trkpt>
      <trkpt lat="49.86751" lon="2.44158">
        <ele>64.5</ele>
        <time>2022-01-05T14:40:57Z</time>
      </trkpt>
      <trkpt lat="49.86751" lon="2.44156">
        <ele>64.5</ele>
        <time>2022-01-05T14:40:58Z</time>
      </trkpt>
      <trkpt lat="49.8675" lon="2.44155">
        <ele>64.5</ele>
        <time>2022-01-05T14:41:00Z</time>
      </trkpt>
      <trkpt lat="49.8675" lon="2.44153">
        <ele>64.5</ele>
        <time>2022-01-05T14:41:01Z</time>
      </trkpt>
      <trkpt lat="49.8675" lon="2.44152">
        <ele>64.5</ele>
        <time>2022-01-05T14:41:02Z</time>
      </trkpt>
      <trkpt lat="49.8675" lon="2.44151">
        <ele>64.5</ele>
        <time>2022-01-05T14:41:03Z</time>
      </trkpt>
      <trkpt lat="49.86749" lon="2.44149">
        <ele>64.5</ele>
        <time>2022-01-05T14:41:04Z</time>
      </trkpt>
      <trkpt lat="49.86749" lon="2.44147">
        <ele>64.6</ele>
        <time>2022-01-05T14:41:05Z</time>
      </trkpt>
      <trkpt lat="49.86749" lon="2.44146">
        <ele>64.6</ele>
        <time>2022-01-05T14:41:06Z</time>
      </trkpt>
      <trkpt lat="49.86749" lon="2.44144">
        <ele>64.6</ele>
        <time>2022-01-05T14:41:07Z</time>
      </trkpt>
      <trkpt lat="49.86748" lon="2.44143">
        <ele>64.6</ele>
        <time>2022-01-05T14:41:08Z</time>
      </trkpt>
      <trkpt lat="49.86748" lon="2.44142">
        <ele>64.6</ele>
        <time>2022-01-05T14:41:10Z</time>
      </trkpt>
      <trkpt lat="49.86748" lon="2.4414">
        <ele>64.6</ele>
        <time>2022-01-05T14:41:11Z</time>
      </trkpt>
      <trkpt lat="49.86747" lon="2.44137">
        <ele>64.6</ele>
        <time>2022-01-05T14:41:12Z</time>
      </trkpt>
      <trkpt lat="49.86747" lon="2.44135">
        <ele>64.6</ele>
        <time>2022-01-05T14:41:13Z</time>
      </trkpt>
      <trkpt lat="49.86747" lon="2.44134">
        <ele>64.6</ele>
        <time>2022-01-05T14:41:14Z</time>
      </trkpt>
      <trkpt lat="49.86746" lon="2.4413">
        <ele>64.6</ele>
        <time>2022-01-05T14:41:16Z</time>
      </trkpt>
      <trkpt lat="49.86746" lon="2.44128">
        <ele>64.6</ele>
        <time>2022-01-05T14:41:17Z</time>
      </trkpt>
      <trkpt lat="49.86746" lon="2.44127">
        <ele>64.6</ele>
        <time>2022-01-05T14:41:18Z</time>
      </trkpt>
      <trkpt lat="49.86745" lon="2.44123">
        <ele>64.7</ele>
        <time>2022-01-05T14:41:19Z</time>
      </trkpt>
      <trkpt lat="49.86745" lon="2.44122">
        <ele>64.7</ele>
        <time>2022-01-05T14:41:21Z</time>
      </trkpt>
      <trkpt lat="49.86745" lon="2.44121">
        <ele>64.7</ele>
        <time>2022-01-05T14:41:22Z</time>
      </trkpt>
      <trkpt lat="49.86744" lon="2.44119">
        <ele>64.7</ele>
        <time>2022-01-05T14:41:23Z</time>
      </trkpt>
      <trkpt lat="49.86744" lon="2.44117">
        <ele>64.7</ele>
        <time>2022-01-05T14:41:24Z</time>
      </trkpt>
      <trkpt lat="49.86744" lon="2.44115">
        <ele>64.7</ele>
        <time>2022-01-05T14:41:26Z</time>
      </trkpt>
      <trkpt lat="49.86743" lon="2.44112">
        <ele>64.7</ele>
        <time>2022-01-05T14:41:27Z</time>
      </trkpt>
      <trkpt lat="49.86743" lon="2.4411">
        <ele>64.7</ele>
        <time>2022-01-05T14:41:28Z</time>
      </trkpt>
      <trkpt lat="49.86743" lon="2.44108">
        <ele>64.7</ele>
        <time>2022-01-05T14:41:30Z</time>
      </trkpt>
      <trkpt lat="49.86743" lon="2.44106">
        <ele>64.7</ele>
        <time>2022-01-05T14:41:31Z</time>
      </trkpt>
      <trkpt lat="49.86743" lon="2.44105">
        <ele>64.7</ele>
        <time>2022-01-05T14:41:32Z</time>
      </trkpt>
      <trkpt lat="49.86743" lon="2.44103">
        <ele>64.7</ele>
        <time>2022-01-05T14:41:33Z</time>
      </trkpt>
      <trkpt lat="49.86743" lon="2.44101">
        <ele>64.7</ele>
        <time>2022-01-05T14:41:34Z</time>
      </trkpt>
      <trkpt lat="49.86743" lon="2.44099">
        <ele>64.7</ele>
        <time>2022-01-05T14:41:35Z</time>
      </trkpt>
      <trkpt lat="49.86743" lon="2.44098">
        <ele>64.7</ele>
        <time>2022-01-05T14:41:37Z</time>
      </trkpt>
      <trkpt lat="49.86742" lon="2.44097">
        <ele>64.7</ele>
        <time>2022-01-05T14:41:38Z</time>
      </trkpt>
      <trkpt lat="49.86742" lon="2.44095">
        <ele>64.7</ele>
        <time>2022-01-05T14:41:39Z</time>
      </trkpt>
      <trkpt lat="49.86742" lon="2.44094">
        <ele>64.7</ele>
        <time>2022-01-05T14:41:41Z</time>
      </trkpt>
      <trkpt lat="49.86741" lon="2.44092">
        <ele>64.7</ele>
        <time>2022-01-05T14:41:43Z</time>
      </trkpt>
      <trkpt lat="49.86741" lon="2.4409">
        <ele>64.7</ele>
        <time>2022-01-05T14:41:44Z</time>
      </trkpt>
      <trkpt lat="49.86741" lon="2.44089">
        <ele>64.7</ele>
        <time>2022-01-05T14:41:45Z</time>
      </trkpt>
      <trkpt lat="49.8674" lon="2.44087">
        <ele>64.7</ele>
        <time>2022-01-05T14:41:46Z</time>
      </trkpt>
      <trkpt lat="49.8674" lon="2.44085">
        <ele>64.8</ele>
        <time>2022-01-05T14:41:47Z</time>
      </trkpt>
      <trkpt lat="49.86739" lon="2.44082">
        <ele>64.8</ele>
        <time>2022-01-05T14:41:48Z</time>
      </trkpt>
      <trkpt lat="49.86739" lon="2.4408">
        <ele>64.8</ele>
        <time>2022-01-05T14:41:50Z</time>
      </trkpt>
      <trkpt lat="49.86739" lon="2.44079">
        <ele>64.8</ele>
        <time>2022-01-05T14:41:51Z</time>
      </trkpt>
      <trkpt lat="49.86738" lon="2.44077">
        <ele>64.8</ele>
        <time>2022-01-05T14:41:52Z</time>
      </trkpt>
      <trkpt lat="49.86738" lon="2.44075">
        <ele>64.8</ele>
        <time>2022-01-05T14:41:53Z</time>
      </trkpt>
      <trkpt lat="49.86738" lon="2.44074">
        <ele>64.8</ele>
        <time>2022-01-05T14:41:54Z</time>
      </trkpt>
      <trkpt lat="49.86738" lon="2.44072">
        <ele>64.8</ele>
        <time>2022-01-05T14:41:55Z</time>
      </trkpt>
      <trkpt lat="49.86737" lon="2.44071">
        <ele>64.8</ele>
        <time>2022-01-05T14:41:57Z</time>
      </trkpt>
      <trkpt lat="49.86737" lon="2.44069">
        <ele>64.8</ele>
        <time>2022-01-05T14:41:58Z</time>
      </trkpt>
      <trkpt lat="49.86736" lon="2.44067">
        <ele>64.8</ele>
        <time>2022-01-05T14:41:59Z</time>
      </trkpt>
      <trkpt lat="49.86736" lon="2.44065">
        <ele>64.8</ele>
        <time>2022-01-05T14:42:00Z</time>
      </trkpt>
      <trkpt lat="49.86736" lon="2.44063">
        <ele>64.7</ele>
        <time>2022-01-05T14:42:01Z</time>
      </trkpt>
      <trkpt lat="49.86735" lon="2.44062">
        <ele>64.7</ele>
        <time>2022-01-05T14:42:03Z</time>
      </trkpt>
      <trkpt lat="49.86735" lon="2.44061">
        <ele>64.7</ele>
        <time>2022-01-05T14:42:04Z</time>
      </trkpt>
      <trkpt lat="49.86735" lon="2.44059">
        <ele>64.7</ele>
        <time>2022-01-05T14:42:05Z</time>
      </trkpt>
      <trkpt lat="49.86734" lon="2.44058">
        <ele>64.7</ele>
        <time>2022-01-05T14:42:06Z</time>
      </trkpt>
      <trkpt lat="49.86734" lon="2.44055">
        <ele>64.7</ele>
        <time>2022-01-05T14:42:07Z</time>
      </trkpt>
      <trkpt lat="49.86734" lon="2.44054">
        <ele>64.7</ele>
        <time>2022-01-05T14:42:08Z</time>
      </trkpt>
      <trkpt lat="49.86734" lon="2.44052">
        <ele>64.7</ele>
        <time>2022-01-05T14:42:10Z</time>
      </trkpt>
      <trkpt lat="49.86734" lon="2.44051">
        <ele>64.7</ele>
        <time>2022-01-05T14:42:11Z</time>
      </trkpt>
      <trkpt lat="49.86734" lon="2.44048">
        <ele>64.7</ele>
        <time>2022-01-05T14:42:13Z</time>
      </trkpt>
      <trkpt lat="49.86734" lon="2.44047">
        <ele>64.7</ele>
        <time>2022-01-05T14:42:14Z</time>
      </trkpt>
      <trkpt lat="49.86734" lon="2.44044">
        <ele>64.7</ele>
        <time>2022-01-05T14:42:15Z</time>
      </trkpt>
      <trkpt lat="49.86734" lon="2.44043">
        <ele>64.7</ele>
        <time>2022-01-05T14:42:17Z</time>
      </trkpt>
      <trkpt lat="49.86734" lon="2.44041">
        <ele>64.7</ele>
        <time>2022-01-05T14:42:18Z</time>
      </trkpt>
      <trkpt lat="49.86734" lon="2.44038">
        <ele>64.6</ele>
        <time>2022-01-05T14:42:19Z</time>
      </trkpt>
      <trkpt lat="49.86734" lon="2.44036">
        <ele>64.6</ele>
        <time>2022-01-05T14:42:20Z</time>
      </trkpt>
      <trkpt lat="49.86734" lon="2.44035">
        <ele>64.6</ele>
        <time>2022-01-05T14:42:21Z</time>
      </trkpt>
      <trkpt lat="49.86734" lon="2.44034">
        <ele>64.6</ele>
        <time>2022-01-05T14:42:22Z</time>
      </trkpt>
      <trkpt lat="49.86734" lon="2.44031">
        <ele>64.6</ele>
        <time>2022-01-05T14:42:25Z</time>
      </trkpt>
      <trkpt lat="49.86734" lon="2.44029">
        <ele>64.6</ele>
        <time>2022-01-05T14:42:26Z</time>
      </trkpt>
      <trkpt lat="49.86734" lon="2.44028">
        <ele>64.6</ele>
        <time>2022-01-05T14:42:27Z</time>
      </trkpt>
      <trkpt lat="49.86733" lon="2.44027">
        <ele>64.7</ele>
        <time>2022-01-05T14:42:28Z</time>
      </trkpt>
      <trkpt lat="49.86733" lon="2.44025">
        <ele>64.7</ele>
        <time>2022-01-05T14:42:29Z</time>
      </trkpt>
      <trkpt lat="49.86733" lon="2.44023">
        <ele>64.7</ele>
        <time>2022-01-05T14:42:30Z</time>
      </trkpt>
      <trkpt lat="49.86733" lon="2.44022">
        <ele>64.7</ele>
        <time>2022-01-05T14:42:32Z</time>
      </trkpt>
      <trkpt lat="49.86733" lon="2.44021">
        <ele>64.7</ele>
        <time>2022-01-05T14:42:33Z</time>
      </trkpt>
      <trkpt lat="49.86732" lon="2.44019">
        <ele>64.7</ele>
        <time>2022-01-05T14:42:34Z</time>
      </trkpt>
      <trkpt lat="49.86732" lon="2.44018">
        <ele>64.7</ele>
        <time>2022-01-05T14:42:35Z</time>
      </trkpt>
      <trkpt lat="49.86732" lon="2.44016">
        <ele>64.7</ele>
        <time>2022-01-05T14:42:36Z</time>
      </trkpt>
      <trkpt lat="49.86731" lon="2.44015">
        <ele>64.7</ele>
        <time>2022-01-05T14:42:38Z</time>
      </trkpt>
      <trkpt lat="49.86731" lon="2.44013">
        <ele>64.8</ele>
        <time>2022-01-05T14:42:39Z</time>
      </trkpt>
      <trkpt lat="49.86731" lon="2.44012">
        <ele>64.8</ele>
        <time>2022-01-05T14:42:40Z</time>
      </trkpt>
      <trkpt lat="49.86731" lon="2.44011">
        <ele>64.8</ele>
        <time>2022-01-05T14:42:41Z</time>
      </trkpt>
      <trkpt lat="49.86731" lon="2.44009">
        <ele>64.8</ele>
        <time>2022-01-05T14:42:42Z</time>
      </trkpt>
      <trkpt lat="49.8673" lon="2.44007">
        <ele>64.8</ele>
        <time>2022-01-05T14:42:43Z</time>
      </trkpt>
      <trkpt lat="49.8673" lon="2.44005">
        <ele>64.8</ele>
        <time>2022-01-05T14:42:45Z</time>
      </trkpt>
      <trkpt lat="49.8673" lon="2.44003">
        <ele>64.8</ele>
        <time>2022-01-05T14:42:46Z</time>
      </trkpt>
      <trkpt lat="49.8673" lon="2.44002">
        <ele>64.9</ele>
        <time>2022-01-05T14:42:47Z</time>
      </trkpt>
      <trkpt lat="49.8673" lon="2.44">
        <ele>64.9</ele>
        <time>2022-01-05T14:42:48Z</time>
      </trkpt>
      <trkpt lat="49.8673" lon="2.43998">
        <ele>64.9</ele>
        <time>2022-01-05T14:42:49Z</time>
      </trkpt>
      <trkpt lat="49.8673" lon="2.43996">
        <ele>64.9</ele>
        <time>2022-01-05T14:42:50Z</time>
      </trkpt>
      <trkpt lat="49.86729" lon="2.43994">
        <ele>64.9</ele>
        <time>2022-01-05T14:42:51Z</time>
      </trkpt>
      <trkpt lat="49.86729" lon="2.43992">
        <ele>64.9</ele>
        <time>2022-01-05T14:42:53Z</time>
      </trkpt>
      <trkpt lat="49.86729" lon="2.43991">
        <ele>64.9</ele>
        <time>2022-01-05T14:42:54Z</time>
      </trkpt>
      <trkpt lat="49.86728" lon="2.4399">
        <ele>64.9</ele>
        <time>2022-01-05T14:42:55Z</time>
      </trkpt>
      <trkpt lat="49.86728" lon="2.43988">
        <ele>64.9</ele>
        <time>2022-01-05T14:42:56Z</time>
      </trkpt>
      <trkpt lat="49.86728" lon="2.43986">
        <ele>65</ele>
        <time>2022-01-05T14:42:57Z</time>
      </trkpt>
      <trkpt lat="49.86728" lon="2.43985">
        <ele>65</ele>
        <time>2022-01-05T14:42:58Z</time>
      </trkpt>
      <trkpt lat="49.86728" lon="2.43983">
        <ele>65</ele>
        <time>2022-01-05T14:42:59Z</time>
      </trkpt>
      <trkpt lat="49.86728" lon="2.43981">
        <ele>65</ele>
        <time>2022-01-05T14:43:01Z</time>
      </trkpt>
      <trkpt lat="49.86727" lon="2.4398">
        <ele>65</ele>
        <time>2022-01-05T14:43:02Z</time>
      </trkpt>
      <trkpt lat="49.86727" lon="2.43978">
        <ele>65</ele>
        <time>2022-01-05T14:43:03Z</time>
      </trkpt>
      <trkpt lat="49.86726" lon="2.43976">
        <ele>65</ele>
        <time>2022-01-05T14:43:05Z</time>
      </trkpt>
      <trkpt lat="49.86725" lon="2.43975">
        <ele>65.1</ele>
        <time>2022-01-05T14:43:06Z</time>
      </trkpt>
      <trkpt lat="49.86725" lon="2.43974">
        <ele>65.1</ele>
        <time>2022-01-05T14:43:07Z</time>
      </trkpt>
      <trkpt lat="49.86725" lon="2.43972">
        <ele>65.1</ele>
        <time>2022-01-05T14:43:08Z</time>
      </trkpt>
      <trkpt lat="49.86725" lon="2.43971">
        <ele>65.1</ele>
        <time>2022-01-05T14:43:09Z</time>
      </trkpt>
      <trkpt lat="49.86724" lon="2.43969">
        <ele>65.1</ele>
        <time>2022-01-05T14:43:11Z</time>
      </trkpt>
      <trkpt lat="49.86724" lon="2.43967">
        <ele>65.1</ele>
        <time>2022-01-05T14:43:12Z</time>
      </trkpt>
      <trkpt lat="49.86723" lon="2.43966">
        <ele>65.2</ele>
        <time>2022-01-05T14:43:13Z</time>
      </trkpt>
      <trkpt lat="49.86722" lon="2.43963">
        <ele>65.2</ele>
        <time>2022-01-05T14:43:14Z</time>
      </trkpt>
      <trkpt lat="49.86722" lon="2.43962">
        <ele>65.2</ele>
        <time>2022-01-05T14:43:15Z</time>
      </trkpt>
      <trkpt lat="49.86721" lon="2.43961">
        <ele>65.2</ele>
        <time>2022-01-05T14:43:16Z</time>
      </trkpt>
      <trkpt lat="49.86721" lon="2.4396">
        <ele>65.3</ele>
        <time>2022-01-05T14:43:17Z</time>
      </trkpt>
      <trkpt lat="49.8672" lon="2.43958">
        <ele>65.3</ele>
        <time>2022-01-05T14:43:18Z</time>
      </trkpt>
      <trkpt lat="49.8672" lon="2.43956">
        <ele>65.3</ele>
        <time>2022-01-05T14:43:20Z</time>
      </trkpt>
      <trkpt lat="49.8672" lon="2.43954">
        <ele>65.3</ele>
        <time>2022-01-05T14:43:21Z</time>
      </trkpt>
      <trkpt lat="49.86719" lon="2.43953">
        <ele>65.4</ele>
        <time>2022-01-05T14:43:22Z</time>
      </trkpt>
      <trkpt lat="49.86719" lon="2.43951">
        <ele>65.4</ele>
        <time>2022-01-05T14:43:23Z</time>
      </trkpt>
      <trkpt lat="49.86719" lon="2.43949">
        <ele>65.4</ele>
        <time>2022-01-05T14:43:24Z</time>
      </trkpt>
      <trkpt lat="49.86718" lon="2.43948">
        <ele>65.4</ele>
        <time>2022-01-05T14:43:25Z</time>
      </trkpt>
      <trkpt lat="49.86718" lon="2.43947">
        <ele>65.5</ele>
        <time>2022-01-05T14:43:26Z</time>
      </trkpt>
      <trkpt lat="49.86717" lon="2.43944">
        <ele>65.5</ele>
        <time>2022-01-05T14:43:27Z</time>
      </trkpt>
      <trkpt lat="49.86717" lon="2.43943">
        <ele>65.5</ele>
        <time>2022-01-05T14:43:29Z</time>
      </trkpt>
      <trkpt lat="49.86717" lon="2.43941">
        <ele>65.5</ele>
        <time>2022-01-05T14:43:30Z</time>
      </trkpt>
      <trkpt lat="49.86716" lon="2.4394">
        <ele>65.6</ele>
        <time>2022-01-05T14:43:31Z</time>
      </trkpt>
      <trkpt lat="49.86716" lon="2.43938">
        <ele>65.6</ele>
        <time>2022-01-05T14:43:32Z</time>
      </trkpt>
      <trkpt lat="49.86716" lon="2.43937">
        <ele>65.6</ele>
        <time>2022-01-05T14:43:33Z</time>
      </trkpt>
      <trkpt lat="49.86715" lon="2.43934">
        <ele>65.7</ele>
        <time>2022-01-05T14:43:34Z</time>
      </trkpt>
      <trkpt lat="49.86715" lon="2.43932">
        <ele>65.7</ele>
        <time>2022-01-05T14:43:35Z</time>
      </trkpt>
      <trkpt lat="49.86715" lon="2.43931">
        <ele>65.7</ele>
        <time>2022-01-05T14:43:37Z</time>
      </trkpt>
      <trkpt lat="49.86714" lon="2.43929">
        <ele>65.8</ele>
        <time>2022-01-05T14:43:38Z</time>
      </trkpt>
      <trkpt lat="49.86714" lon="2.43928">
        <ele>65.8</ele>
        <time>2022-01-05T14:43:39Z</time>
      </trkpt>
      <trkpt lat="49.86714" lon="2.43927">
        <ele>65.8</ele>
        <time>2022-01-05T14:43:40Z</time>
      </trkpt>
      <trkpt lat="49.86713" lon="2.43923">
        <ele>65.9</ele>
        <time>2022-01-05T14:43:41Z</time>
      </trkpt>
      <trkpt lat="49.86713" lon="2.43922">
        <ele>66</ele>
        <time>2022-01-05T14:43:42Z</time>
      </trkpt>
      <trkpt lat="49.86712" lon="2.4392">
        <ele>66</ele>
        <time>2022-01-05T14:43:44Z</time>
      </trkpt>
      <trkpt lat="49.86712" lon="2.43919">
        <ele>66</ele>
        <time>2022-01-05T14:43:45Z</time>
      </trkpt>
      <trkpt lat="49.86712" lon="2.43917">
        <ele>66.1</ele>
        <time>2022-01-05T14:43:46Z</time>
      </trkpt>
      <trkpt lat="49.86712" lon="2.43916">
        <ele>66.1</ele>
        <time>2022-01-05T14:43:47Z</time>
      </trkpt>
      <trkpt lat="49.86711" lon="2.43914">
        <ele>66.1</ele>
        <time>2022-01-05T14:43:48Z</time>
      </trkpt>
      <trkpt lat="49.86711" lon="2.43913">
        <ele>66.2</ele>
        <time>2022-01-05T14:43:49Z</time>
      </trkpt>
      <trkpt lat="49.8671" lon="2.4391">
        <ele>66.2</ele>
        <time>2022-01-05T14:43:51Z</time>
      </trkpt>
      <trkpt lat="49.8671" lon="2.4391">
        <ele>66.2</ele>
        <time>2022-01-05T14:43:52Z</time>
      </trkpt>
      <trkpt lat="49.8671" lon="2.43908">
        <ele>66.3</ele>
        <time>2022-01-05T14:43:53Z</time>
      </trkpt>
      <trkpt lat="49.8671" lon="2.43907">
        <ele>66.3</ele>
        <time>2022-01-05T14:43:54Z</time>
      </trkpt>
      <trkpt lat="49.86709" lon="2.43904">
        <ele>66.3</ele>
        <time>2022-01-05T14:43:56Z</time>
      </trkpt>
      <trkpt lat="49.86709" lon="2.43902">
        <ele>66.3</ele>
        <time>2022-01-05T14:43:57Z</time>
      </trkpt>
      <trkpt lat="49.86709" lon="2.439">
        <ele>66.3</ele>
        <time>2022-01-05T14:43:58Z</time>
      </trkpt>
      <trkpt lat="49.86708" lon="2.43898">
        <ele>66.4</ele>
        <time>2022-01-05T14:43:59Z</time>
      </trkpt>
      <trkpt lat="49.86708" lon="2.43896">
        <ele>66.4</ele>
        <time>2022-01-05T14:44:00Z</time>
      </trkpt>
      <trkpt lat="49.86708" lon="2.43895">
        <ele>66.4</ele>
        <time>2022-01-05T14:44:02Z</time>
      </trkpt>
      <trkpt lat="49.86708" lon="2.43893">
        <ele>66.4</ele>
        <time>2022-01-05T14:44:03Z</time>
      </trkpt>
      <trkpt lat="49.86708" lon="2.4389">
        <ele>66.4</ele>
        <time>2022-01-05T14:44:04Z</time>
      </trkpt>
      <trkpt lat="49.86708" lon="2.43888">
        <ele>66.4</ele>
        <time>2022-01-05T14:44:05Z</time>
      </trkpt>
      <trkpt lat="49.86708" lon="2.43887">
        <ele>66.4</ele>
        <time>2022-01-05T14:44:06Z</time>
      </trkpt>
      <trkpt lat="49.86708" lon="2.43885">
        <ele>66.4</ele>
        <time>2022-01-05T14:44:08Z</time>
      </trkpt>
      <trkpt lat="49.86707" lon="2.43883">
        <ele>66.4</ele>
        <time>2022-01-05T14:44:09Z</time>
      </trkpt>
      <trkpt lat="49.86707" lon="2.43881">
        <ele>66.4</ele>
        <time>2022-01-05T14:44:10Z</time>
      </trkpt>
      <trkpt lat="49.86707" lon="2.43879">
        <ele>66.4</ele>
        <time>2022-01-05T14:44:11Z</time>
      </trkpt>
      <trkpt lat="49.86707" lon="2.43878">
        <ele>66.4</ele>
        <time>2022-01-05T14:44:12Z</time>
      </trkpt>
      <trkpt lat="49.86707" lon="2.43876">
        <ele>66.4</ele>
        <time>2022-01-05T14:44:14Z</time>
      </trkpt>
      <trkpt lat="49.86707" lon="2.43874">
        <ele>66.4</ele>
        <time>2022-01-05T14:44:15Z</time>
      </trkpt>
      <trkpt lat="49.86707" lon="2.43872">
        <ele>66.4</ele>
        <time>2022-01-05T14:44:16Z</time>
      </trkpt>
      <trkpt lat="49.86707" lon="2.4387">
        <ele>66.4</ele>
        <time>2022-01-05T14:44:17Z</time>
      </trkpt>
      <trkpt lat="49.86707" lon="2.43869">
        <ele>66.4</ele>
        <time>2022-01-05T14:44:18Z</time>
      </trkpt>
      <trkpt lat="49.86707" lon="2.43867">
        <ele>66.4</ele>
        <time>2022-01-05T14:44:19Z</time>
      </trkpt>
      <trkpt lat="49.86707" lon="2.43865">
        <ele>66.4</ele>
        <time>2022-01-05T14:44:21Z</time>
      </trkpt>
      <trkpt lat="49.86707" lon="2.43864">
        <ele>66.3</ele>
        <time>2022-01-05T14:44:22Z</time>
      </trkpt>
      <trkpt lat="49.86707" lon="2.43863">
        <ele>66.3</ele>
        <time>2022-01-05T14:44:23Z</time>
      </trkpt>
      <trkpt lat="49.86707" lon="2.43862">
        <ele>66.3</ele>
        <time>2022-01-05T14:44:24Z</time>
      </trkpt>
      <trkpt lat="49.86707" lon="2.43859">
        <ele>66.3</ele>
        <time>2022-01-05T14:44:26Z</time>
      </trkpt>
      <trkpt lat="49.86707" lon="2.43858">
        <ele>66.3</ele>
        <time>2022-01-05T14:44:27Z</time>
      </trkpt>
      <trkpt lat="49.86707" lon="2.43858">
        <ele>66.3</ele>
        <time>2022-01-05T14:44:28Z</time>
      </trkpt>
      <trkpt lat="49.86707" lon="2.43858">
        <ele>66.3</ele>
        <time>2022-01-05T14:44:29Z</time>
      </trkpt>
      <trkpt lat="49.86707" lon="2.43857">
        <ele>66.3</ele>
        <time>2022-01-05T14:44:31Z</time>
      </trkpt>
      <trkpt lat="49.86707" lon="2.43857">
        <ele>66.3</ele>
        <time>2022-01-05T14:44:32Z</time>
      </trkpt>
      <trkpt lat="49.86707" lon="2.43857">
        <ele>66.3</ele>
        <time>2022-01-05T14:44:33Z</time>
      </trkpt>
      <trkpt lat="49.86707" lon="2.43856">
        <ele>66.3</ele>
        <time>2022-01-05T14:44:35Z</time>
      </trkpt>
      <trkpt lat="49.86707" lon="2.43856">
        <ele>66.3</ele>
        <time>2022-01-05T14:44:37Z</time>
      </trkpt>
      <trkpt lat="49.86707" lon="2.43856">
        <ele>66.3</ele>
        <time>2022-01-05T14:44:38Z</time>
      </trkpt>
      <trkpt lat="49.86706" lon="2.43855">
        <ele>66.3</ele>
        <time>2022-01-05T14:44:39Z</time>
      </trkpt>
      <trkpt lat="49.86706" lon="2.43855">
        <ele>66.3</ele>
        <time>2022-01-05T14:44:40Z</time>
      </trkpt>
      <trkpt lat="49.86706" lon="2.43854">
        <ele>66.2</ele>
        <time>2022-01-05T14:44:42Z</time>
      </trkpt>
      <trkpt lat="49.86706" lon="2.43854">
        <ele>66.2</ele>
        <time>2022-01-05T14:44:43Z</time>
      </trkpt>
      <trkpt lat="49.86706" lon="2.43854">
        <ele>66.2</ele>
        <time>2022-01-05T14:44:44Z</time>
      </trkpt>
      <trkpt lat="49.86706" lon="2.43853">
        <ele>66.2</ele>
        <time>2022-01-05T14:44:46Z</time>
      </trkpt>
      <trkpt lat="49.86706" lon="2.43853">
        <ele>66.2</ele>
        <time>2022-01-05T14:44:48Z</time>
      </trkpt>
      <trkpt lat="49.86706" lon="2.43853">
        <ele>66.2</ele>
        <time>2022-01-05T14:44:49Z</time>
      </trkpt>
      <trkpt lat="49.86706" lon="2.43852">
        <ele>66.2</ele>
        <time>2022-01-05T14:44:50Z</time>
      </trkpt>
      <trkpt lat="49.86706" lon="2.43852">
        <ele>66.2</ele>
        <time>2022-01-05T14:44:52Z</time>
      </trkpt>
      <trkpt lat="49.86706" lon="2.43852">
        <ele>66.2</ele>
        <time>2022-01-05T14:44:53Z</time>
      </trkpt>
      <trkpt lat="49.86706" lon="2.43851">
        <ele>66.2</ele>
        <time>2022-01-05T14:44:54Z</time>
      </trkpt>
      <trkpt lat="49.86706" lon="2.43851">
        <ele>66.2</ele>
        <time>2022-01-05T14:44:56Z</time>
      </trkpt>
      <trkpt lat="49.86706" lon="2.43851">
        <ele>66.2</ele>
        <time>2022-01-05T14:44:58Z</time>
      </trkpt>
      <trkpt lat="49.86706" lon="2.4385">
        <ele>66.2</ele>
        <time>2022-01-05T14:45:00Z</time>
      </trkpt>
      <trkpt lat="49.86706" lon="2.4385">
        <ele>66.2</ele>
        <time>2022-01-05T14:45:01Z</time>
      </trkpt>
      <trkpt lat="49.86706" lon="2.43849">
        <ele>66.2</ele>
        <time>2022-01-05T14:45:03Z</time>
      </trkpt>
      <trkpt lat="49.86706" lon="2.43849">
        <ele>66.2</ele>
        <time>2022-01-05T14:45:05Z</time>
      </trkpt>
      <trkpt lat="49.86706" lon="2.43849">
        <ele>66.2</ele>
        <time>2022-01-05T14:45:06Z</time>
      </trkpt>
      <trkpt lat="49.86706" lon="2.43848">
        <ele>66.2</ele>
        <time>2022-01-05T14:45:07Z</time>
      </trkpt>
      <trkpt lat="49.86706" lon="2.43848">
        <ele>66.2</ele>
        <time>2022-01-05T14:45:09Z</time>
      </trkpt>
      <trkpt lat="49.86706" lon="2.43848">
        <ele>66.2</ele>
        <time>2022-01-05T14:45:10Z</time>
      </trkpt>
      <trkpt lat="49.86706" lon="2.43847">
        <ele>66.2</ele>
        <time>2022-01-05T14:45:11Z</time>
      </trkpt>
      <trkpt lat="49.86706" lon="2.43847">
        <ele>66.2</ele>
        <time>2022-01-05T14:45:12Z</time>
      </trkpt>
      <trkpt lat="49.86706" lon="2.43847">
        <ele>66.2</ele>
        <time>2022-01-05T14:45:13Z</time>
      </trkpt>
      <trkpt lat="49.86706" lon="2.43846">
        <ele>66.2</ele>
        <time>2022-01-05T14:45:15Z</time>
      </trkpt>
      <trkpt lat="49.86706" lon="2.43846">
        <ele>66.2</ele>
        <time>2022-01-05T14:45:17Z</time>
      </trkpt>
      <trkpt lat="49.86706" lon="2.43846">
        <ele>66.2</ele>
        <time>2022-01-05T14:45:19Z</time>
      </trkpt>
      <trkpt lat="49.86706" lon="2.43845">
        <ele>66.2</ele>
        <time>2022-01-05T14:45:21Z</time>
      </trkpt>
      <trkpt lat="49.86705" lon="2.43845">
        <ele>66.2</ele>
        <time>2022-01-05T14:45:23Z</time>
      </trkpt>
      <trkpt lat="49.86705" lon="2.43844">
        <ele>66.2</ele>
        <time>2022-01-05T14:45:24Z</time>
      </trkpt>
      <trkpt lat="49.86705" lon="2.43844">
        <ele>66.2</ele>
        <time>2022-01-05T14:45:26Z</time>
      </trkpt>
      <trkpt lat="49.86705" lon="2.43844">
        <ele>66.1</ele>
        <time>2022-01-05T14:45:28Z</time>
      </trkpt>
      <trkpt lat="49.86705" lon="2.43843">
        <ele>66.1</ele>
        <time>2022-01-05T14:45:30Z</time>
      </trkpt>
      <trkpt lat="49.86705" lon="2.43843">
        <ele>66.1</ele>
        <time>2022-01-05T14:45:31Z</time>
      </trkpt>
      <trkpt lat="49.86705" lon="2.43843">
        <ele>66.1</ele>
        <time>2022-01-05T14:45:33Z</time>
      </trkpt>
      <trkpt lat="49.86705" lon="2.43842">
        <ele>66.1</ele>
        <time>2022-01-05T14:45:35Z</time>
      </trkpt>
      <trkpt lat="49.86705" lon="2.43842">
        <ele>66.1</ele>
        <time>2022-01-05T14:45:36Z</time>
      </trkpt>
      <trkpt lat="49.86705" lon="2.43842">
        <ele>66.1</ele>
        <time>2022-01-05T14:45:38Z</time>
      </trkpt>
      <trkpt lat="49.86705" lon="2.43841">
        <ele>66.1</ele>
        <time>2022-01-05T14:45:39Z</time>
      </trkpt>
      <trkpt lat="49.86705" lon="2.43841">
        <ele>66.1</ele>
        <time>2022-01-05T14:45:40Z</time>
      </trkpt>
      <trkpt lat="49.86705" lon="2.4384">
        <ele>66.1</ele>
        <time>2022-01-05T14:45:42Z</time>
      </trkpt>
      <trkpt lat="49.86705" lon="2.4384">
        <ele>66.1</ele>
        <time>2022-01-05T14:45:44Z</time>
      </trkpt>
      <trkpt lat="49.86705" lon="2.4384">
        <ele>66.1</ele>
        <time>2022-01-05T14:45:46Z</time>
      </trkpt>
      <trkpt lat="49.86705" lon="2.43839">
        <ele>66.1</ele>
        <time>2022-01-05T14:45:47Z</time>
      </trkpt>
      <trkpt lat="49.86705" lon="2.43839">
        <ele>66.1</ele>
        <time>2022-01-05T14:45:48Z</time>
      </trkpt>
      <trkpt lat="49.86705" lon="2.43839">
        <ele>66.1</ele>
        <time>2022-01-05T14:45:50Z</time>
      </trkpt>
      <trkpt lat="49.86705" lon="2.43838">
        <ele>66.1</ele>
        <time>2022-01-05T14:45:52Z</time>
      </trkpt>
      <trkpt lat="49.86705" lon="2.43838">
        <ele>66.1</ele>
        <time>2022-01-05T14:45:54Z</time>
      </trkpt>
      <trkpt lat="49.86705" lon="2.43838">
        <ele>66.1</ele>
        <time>2022-01-05T14:45:56Z</time>
      </trkpt>
      <trkpt lat="49.86705" lon="2.43837">
        <ele>66.1</ele>
        <time>2022-01-05T14:45:58Z</time>
      </trkpt>
      <trkpt lat="49.86705" lon="2.43837">
        <ele>66.1</ele>
        <time>2022-01-05T14:45:59Z</time>
      </trkpt>
      <trkpt lat="49.86705" lon="2.43837">
        <ele>66.1</ele>
        <time>2022-01-05T14:46:00Z</time>
      </trkpt>
      <trkpt lat="49.86705" lon="2.43836">
        <ele>66.1</ele>
        <time>2022-01-05T14:46:02Z</time>
      </trkpt>
      <trkpt lat="49.86705" lon="2.43836">
        <ele>66.1</ele>
        <time>2022-01-05T14:46:04Z</time>
      </trkpt>
      <trkpt lat="49.86705" lon="2.43835">
        <ele>66.1</ele>
        <time>2022-01-05T14:46:05Z</time>
      </trkpt>
      <trkpt lat="49.86705" lon="2.43835">
        <ele>66.1</ele>
        <time>2022-01-05T14:46:06Z</time>
      </trkpt>
      <trkpt lat="49.86705" lon="2.43835">
        <ele>66.1</ele>
        <time>2022-01-05T14:46:07Z</time>
      </trkpt>
      <trkpt lat="49.86704" lon="2.43834">
        <ele>66.1</ele>
        <time>2022-01-05T14:46:08Z</time>
      </trkpt>
      <trkpt lat="49.86704" lon="2.43834">
        <ele>66.1</ele>
        <time>2022-01-05T14:46:09Z</time>
      </trkpt>
      <trkpt lat="49.86704" lon="2.43834">
        <ele>66.1</ele>
        <time>2022-01-05T14:46:11Z</time>
      </trkpt>
      <trkpt lat="49.86704" lon="2.43833">
        <ele>66.1</ele>
        <time>2022-01-05T14:46:12Z</time>
      </trkpt>
      <trkpt lat="49.86705" lon="2.43832">
        <ele>66.1</ele>
        <time>2022-01-05T14:46:14Z</time>
      </trkpt>
      <trkpt lat="49.86706" lon="2.43831">
        <ele>66.1</ele>
        <time>2022-01-05T14:46:15Z</time>
      </trkpt>
      <trkpt lat="49.86706" lon="2.4383">
        <ele>66.1</ele>
        <time>2022-01-05T14:46:17Z</time>
      </trkpt>
      <trkpt lat="49.86707" lon="2.4383">
        <ele>66.1</ele>
        <time>2022-01-05T14:46:18Z</time>
      </trkpt>
      <trkpt lat="49.86707" lon="2.43829">
        <ele>66.1</ele>
        <time>2022-01-05T14:46:19Z</time>
      </trkpt>
      <trkpt lat="49.86707" lon="2.43829">
        <ele>66.1</ele>
        <time>2022-01-05T14:46:20Z</time>
      </trkpt>
      <trkpt lat="49.86707" lon="2.43829">
        <ele>66.1</ele>
        <time>2022-01-05T14:46:21Z</time>
      </trkpt>
      <trkpt lat="49.86707" lon="2.43828">
        <ele>66.1</ele>
        <time>2022-01-05T14:46:23Z</time>
      </trkpt>
      <trkpt lat="49.86707" lon="2.43828">
        <ele>66.1</ele>
        <time>2022-01-05T14:46:24Z</time>
      </trkpt>
      <trkpt lat="49.86707" lon="2.43827">
        <ele>66.1</ele>
        <time>2022-01-05T14:46:25Z</time>
      </trkpt>
      <trkpt lat="49.86707" lon="2.43827">
        <ele>66.1</ele>
        <time>2022-01-05T14:46:27Z</time>
      </trkpt>
      <trkpt lat="49.86707" lon="2.43827">
        <ele>66.1</ele>
        <time>2022-01-05T14:46:29Z</time>
      </trkpt>
      <trkpt lat="49.86707" lon="2.43827">
        <ele>66.1</ele>
        <time>2022-01-05T14:46:31Z</time>
      </trkpt>
      <trkpt lat="49.86707" lon="2.43827">
        <ele>66.1</ele>
        <time>2022-01-05T14:46:32Z</time>
      </trkpt>
      <trkpt lat="49.86707" lon="2.43827">
        <ele>66.1</ele>
        <time>2022-01-05T14:46:34Z</time>
      </trkpt>
      <trkpt lat="49.86707" lon="2.43827">
        <ele>66.1</ele>
        <time>2022-01-05T14:46:35Z</time>
      </trkpt>
      <trkpt lat="49.86707" lon="2.43827">
        <ele>66.1</ele>
        <time>2022-01-05T14:46:37Z</time>
      </trkpt>
      <trkpt lat="49.86707" lon="2.43827">
        <ele>66.1</ele>
        <time>2022-01-05T14:46:38Z</time>
      </trkpt>
      <trkpt lat="49.86707" lon="2.43827">
        <ele>66.1</ele>
        <time>2022-01-05T14:46:40Z</time>
      </trkpt>
      <trkpt lat="49.86707" lon="2.43827">
        <ele>66.1</ele>
        <time>2022-01-05T14:46:41Z</time>
      </trkpt>
      <trkpt lat="49.86707" lon="2.43827">
        <ele>66.1</ele>
        <time>2022-01-05T14:46:43Z</time>
      </trkpt>
      <trkpt lat="49.86707" lon="2.43827">
        <ele>66.1</ele>
        <time>2022-01-05T14:46:44Z</time>
      </trkpt>
      <trkpt lat="49.86707" lon="2.43827">
        <ele>66.1</ele>
        <time>2022-01-05T14:46:46Z</time>
      </trkpt>
      <trkpt lat="49.86707" lon="2.43827">
        <ele>66.1</ele>
        <time>2022-01-05T14:46:47Z</time>
      </trkpt>
      <trkpt lat="49.86707" lon="2.43827">
        <ele>66.1</ele>
        <time>2022-01-05T14:46:48Z</time>
      </trkpt>
      <trkpt lat="49.86707" lon="2.43827">
        <ele>66.1</ele>
        <time>2022-01-05T14:46:50Z</time>
      </trkpt>
      <trkpt lat="49.86707" lon="2.43827">
        <ele>66.1</ele>
        <time>2022-01-05T14:46:52Z</time>
      </trkpt>
      <trkpt lat="49.86707" lon="2.43827">
        <ele>66.1</ele>
        <time>2022-01-05T14:46:54Z</time>
      </trkpt>
      <trkpt lat="49.86707" lon="2.43827">
        <ele>66.1</ele>
        <time>2022-01-05T14:46:56Z</time>
      </trkpt>
      <trkpt lat="49.86707" lon="2.43827">
        <ele>66.1</ele>
        <time>2022-01-05T14:46:57Z</time>
      </trkpt>
      <trkpt lat="49.86707" lon="2.43827">
        <ele>66.1</ele>
        <time>2022-01-05T14:46:59Z</time>
      </trkpt>
      <trkpt lat="49.86707" lon="2.43827">
        <ele>66.1</ele>
        <time>2022-01-05T14:47:01Z</time>
      </trkpt>
      <trkpt lat="49.86707" lon="2.43827">
        <ele>66.1</ele>
        <time>2022-01-05T14:47:02Z</time>
      </trkpt>
      <trkpt lat="49.86707" lon="2.43827">
        <ele>66.1</ele>
        <time>2022-01-05T14:47:04Z</time>
      </trkpt>
      <trkpt lat="49.86707" lon="2.43827">
        <ele>66.1</ele>
        <time>2022-01-05T14:47:05Z</time>
      </trkpt>
      <trkpt lat="49.86707" lon="2.43827">
        <ele>66.1</ele>
        <time>2022-01-05T14:47:06Z</time>
      </trkpt>
      <trkpt lat="49.86707" lon="2.43827">
        <ele>66.1</ele>
        <time>2022-01-05T14:47:08Z</time>
      </trkpt>
      <trkpt lat="49.86707" lon="2.43827">
        <ele>66.1</ele>
        <time>2022-01-05T14:47:10Z</time>
      </trkpt>
      <trkpt lat="49.86707" lon="2.43827">
        <ele>66.1</ele>
        <time>2022-01-05T14:47:12Z</time>
      </trkpt>
      <trkpt lat="49.86707" lon="2.43827">
        <ele>66.1</ele>
        <time>2022-01-05T14:47:13Z</time>
      </trkpt>
      <trkpt lat="49.86707" lon="2.43827">
        <ele>66.1</ele>
        <time>2022-01-05T14:47:14Z</time>
      </trkpt>
      <trkpt lat="49.86707" lon="2.43827">
        <ele>66.1</ele>
        <time>2022-01-05T14:47:15Z</time>
      </trkpt>
      <trkpt lat="49.86707" lon="2.43827">
        <ele>66.1</ele>
        <time>2022-01-05T14:47:17Z</time>
      </trkpt>
      <trkpt lat="49.86707" lon="2.43827">
        <ele>66.1</ele>
        <time>2022-01-05T14:47:19Z</time>
      </trkpt>
      <trkpt lat="49.86707" lon="2.43827">
        <ele>66.1</ele>
        <time>2022-01-05T14:47:20Z</time>
      </trkpt>
      <trkpt lat="49.86707" lon="2.43827">
        <ele>66.1</ele>
        <time>2022-01-05T14:47:22Z</time>
      </trkpt>
      <trkpt lat="49.86707" lon="2.43827">
        <ele>66.1</ele>
        <time>2022-01-05T14:47:23Z</time>
      </trkpt>
      <trkpt lat="49.86707" lon="2.43827">
        <ele>66.1</ele>
        <time>2022-01-05T14:47:24Z</time>
      </trkpt>
      <trkpt lat="49.86707" lon="2.43827">
        <ele>66.1</ele>
        <time>2022-01-05T14:47:26Z</time>
      </trkpt>
      <trkpt lat="49.86707" lon="2.43827">
        <ele>66.1</ele>
        <time>2022-01-05T14:47:27Z</time>
      </trkpt>
      <trkpt lat="49.86707" lon="2.43827">
        <ele>66.1</ele>
        <time>2022-01-05T14:47:28Z</time>
      </trkpt>
      <trkpt lat="49.86707" lon="2.43827">
        <ele>66.1</ele>
        <time>2022-01-05T14:47:30Z</time>
      </trkpt>
      <trkpt lat="49.86707" lon="2.43827">
        <ele>66.1</ele>
        <time>2022-01-05T14:47:31Z</time>
      </trkpt>
      <trkpt lat="49.86707" lon="2.43827">
        <ele>66.1</ele>
        <time>2022-01-05T14:47:33Z</time>
      </trkpt>
      <trkpt lat="49.86707" lon="2.43827">
        <ele>66.1</ele>
        <time>2022-01-05T14:47:35Z</time>
      </trkpt>
      <trkpt lat="49.86707" lon="2.43827">
        <ele>66.1</ele>
        <time>2022-01-05T14:47:36Z</time>
      </trkpt>
      <trkpt lat="49.86707" lon="2.43827">
        <ele>66.1</ele>
        <time>2022-01-05T14:47:38Z</time>
      </trkpt>
      <trkpt lat="49.86707" lon="2.43827">
        <ele>66.1</ele>
        <time>2022-01-05T14:47:39Z</time>
      </trkpt>
      <trkpt lat="49.86707" lon="2.43827">
        <ele>66.1</ele>
        <time>2022-01-05T14:47:41Z</time>
      </trkpt>
      <trkpt lat="49.86707" lon="2.43827">
        <ele>66.1</ele>
        <time>2022-01-05T14:47:42Z</time>
      </trkpt>
      <trkpt lat="49.86707" lon="2.43827">
        <ele>66.1</ele>
        <time>2022-01-05T14:47:44Z</time>
      </trkpt>
      <trkpt lat="49.86707" lon="2.43827">
        <ele>66.1</ele>
        <time>2022-01-05T14:47:46Z</time>
      </trkpt>
      <trkpt lat="49.86707" lon="2.43827">
        <ele>66.1</ele>
        <time>2022-01-05T14:47:48Z</time>
      </trkpt>
      <trkpt lat="49.86707" lon="2.43827">
        <ele>66.1</ele>
        <time>2022-01-05T14:47:50Z</time>
      </trkpt>
      <trkpt lat="49.86707" lon="2.43827">
        <ele>66.1</ele>
        <time>2022-01-05T14:47:52Z</time>
      </trkpt>
      <trkpt lat="49.86707" lon="2.43827">
        <ele>66.1</ele>
        <time>2022-01-05T14:47:54Z</time>
      </trkpt>
      <trkpt lat="49.86707" lon="2.43827">
        <ele>66.1</ele>
        <time>2022-01-05T14:47:56Z</time>
      </trkpt>
      <trkpt lat="49.86707" lon="2.43827">
        <ele>66.1</ele>
        <time>2022-01-05T14:47:58Z</time>
      </trkpt>
      <trkpt lat="49.86707" lon="2.43827">
        <ele>66.1</ele>
        <time>2022-01-05T14:48:00Z</time>
      </trkpt>
      <trkpt lat="49.86707" lon="2.43827">
        <ele>66.1</ele>
        <time>2022-01-05T14:48:01Z</time>
      </trkpt>
      <trkpt lat="49.86707" lon="2.43827">
        <ele>66.1</ele>
        <time>2022-01-05T14:48:03Z</time>
      </trkpt>
      <trkpt lat="49.86706" lon="2.43826">
        <ele>66.1</ele>
        <time>2022-01-05T14:48:05Z</time>
      </trkpt>
      <trkpt lat="49.86705" lon="2.43825">
        <ele>66.1</ele>
        <time>2022-01-05T14:48:06Z</time>
      </trkpt>
      <trkpt lat="49.86705" lon="2.43824">
        <ele>66.1</ele>
        <time>2022-01-05T14:48:07Z</time>
      </trkpt>
      <trkpt lat="49.86705" lon="2.43822">
        <ele>66.1</ele>
        <time>2022-01-05T14:48:08Z</time>
      </trkpt>
      <trkpt lat="49.86705" lon="2.43821">
        <ele>66.1</ele>
        <time>2022-01-05T14:48:10Z</time>
      </trkpt>
      <trkpt lat="49.86705" lon="2.43821">
        <ele>66.1</ele>
        <time>2022-01-05T14:48:11Z</time>
      </trkpt>
      <trkpt lat="49.86704" lon="2.43819">
        <ele>66.1</ele>
        <time>2022-01-05T14:48:12Z</time>
      </trkpt>
      <trkpt lat="49.86704" lon="2.43818">
        <ele>66.1</ele>
        <time>2022-01-05T14:48:13Z</time>
      </trkpt>
      <trkpt lat="49.86704" lon="2.43816">
        <ele>66.1</ele>
        <time>2022-01-05T14:48:15Z</time>
      </trkpt>
      <trkpt lat="49.86704" lon="2.43814">
        <ele>66.1</ele>
        <time>2022-01-05T14:48:16Z</time>
      </trkpt>
      <trkpt lat="49.86704" lon="2.43812">
        <ele>66.1</ele>
        <time>2022-01-05T14:48:18Z</time>
      </trkpt>
      <trkpt lat="49.86704" lon="2.43811">
        <ele>66.1</ele>
        <time>2022-01-05T14:48:19Z</time>
      </trkpt>
      <trkpt lat="49.86703" lon="2.43809">
        <ele>66.1</ele>
        <time>2022-01-05T14:48:20Z</time>
      </trkpt>
      <trkpt lat="49.86703" lon="2.43807">
        <ele>66.1</ele>
        <time>2022-01-05T14:48:21Z</time>
      </trkpt>
      <trkpt lat="49.86703" lon="2.43806">
        <ele>66.1</ele>
        <time>2022-01-05T14:48:23Z</time>
      </trkpt>
      <trkpt lat="49.86703" lon="2.43804">
        <ele>66.1</ele>
        <time>2022-01-05T14:48:24Z</time>
      </trkpt>
      <trkpt lat="49.86703" lon="2.43803">
        <ele>66.1</ele>
        <time>2022-01-05T14:48:25Z</time>
      </trkpt>
      <trkpt lat="49.86703" lon="2.43801">
        <ele>66.1</ele>
        <time>2022-01-05T14:48:27Z</time>
      </trkpt>
      <trkpt lat="49.86703" lon="2.438">
        <ele>66.1</ele>
        <time>2022-01-05T14:48:28Z</time>
      </trkpt>
      <trkpt lat="49.86703" lon="2.43799">
        <ele>66</ele>
        <time>2022-01-05T14:48:29Z</time>
      </trkpt>
      <trkpt lat="49.86703" lon="2.43797">
        <ele>66</ele>
        <time>2022-01-05T14:48:30Z</time>
      </trkpt>
      <trkpt lat="49.86703" lon="2.43795">
        <ele>66</ele>
        <time>2022-01-05T14:48:31Z</time>
      </trkpt>
      <trkpt lat="49.86703" lon="2.43793">
        <ele>66</ele>
        <time>2022-01-05T14:48:33Z</time>
      </trkpt>
      <trkpt lat="49.86703" lon="2.43792">
        <ele>66</ele>
        <time>2022-01-05T14:48:34Z</time>
      </trkpt>
      <trkpt lat="49.86703" lon="2.4379">
        <ele>66</ele>
        <time>2022-01-05T14:48:35Z</time>
      </trkpt>
      <trkpt lat="49.86703" lon="2.43788">
        <ele>66</ele>
        <time>2022-01-05T14:48:36Z</time>
      </trkpt>
      <trkpt lat="49.86703" lon="2.43786">
        <ele>66</ele>
        <time>2022-01-05T14:48:37Z</time>
      </trkpt>
      <trkpt lat="49.86702" lon="2.43784">
        <ele>66.1</ele>
        <time>2022-01-05T14:48:38Z</time>
      </trkpt>
      <trkpt lat="49.86702" lon="2.43782">
        <ele>66.1</ele>
        <time>2022-01-05T14:48:39Z</time>
      </trkpt>
      <trkpt lat="49.86702" lon="2.4378">
        <ele>66.1</ele>
        <time>2022-01-05T14:48:41Z</time>
      </trkpt>
      <trkpt lat="49.86702" lon="2.43777">
        <ele>66.1</ele>
        <time>2022-01-05T14:48:42Z</time>
      </trkpt>
      <trkpt lat="49.86701" lon="2.43776">
        <ele>66.1</ele>
        <time>2022-01-05T14:48:43Z</time>
      </trkpt>
      <trkpt lat="49.86701" lon="2.43775">
        <ele>66.1</ele>
        <time>2022-01-05T14:48:44Z</time>
      </trkpt>
      <trkpt lat="49.86701" lon="2.43772">
        <ele>66.1</ele>
        <time>2022-01-05T14:48:45Z</time>
      </trkpt>
      <trkpt lat="49.86701" lon="2.4377">
        <ele>66.2</ele>
        <time>2022-01-05T14:48:46Z</time>
      </trkpt>
      <trkpt lat="49.86701" lon="2.43767">
        <ele>66.2</ele>
        <time>2022-01-05T14:48:47Z</time>
      </trkpt>
      <trkpt lat="49.867" lon="2.43766">
        <ele>66.2</ele>
        <time>2022-01-05T14:48:48Z</time>
      </trkpt>
      <trkpt lat="49.867" lon="2.43764">
        <ele>66.2</ele>
        <time>2022-01-05T14:48:49Z</time>
      </trkpt>
      <trkpt lat="49.867" lon="2.43761">
        <ele>66.2</ele>
        <time>2022-01-05T14:48:51Z</time>
      </trkpt>
      <trkpt lat="49.867" lon="2.4376">
        <ele>66.2</ele>
        <time>2022-01-05T14:48:52Z</time>
      </trkpt>
      <trkpt lat="49.86699" lon="2.43759">
        <ele>66.3</ele>
        <time>2022-01-05T14:48:53Z</time>
      </trkpt>
      <trkpt lat="49.86699" lon="2.43757">
        <ele>66.3</ele>
        <time>2022-01-05T14:48:54Z</time>
      </trkpt>
      <trkpt lat="49.86698" lon="2.43754">
        <ele>66.3</ele>
        <time>2022-01-05T14:48:56Z</time>
      </trkpt>
      <trkpt lat="49.86698" lon="2.43753">
        <ele>66.3</ele>
        <time>2022-01-05T14:48:57Z</time>
      </trkpt>
      <trkpt lat="49.86697" lon="2.4375">
        <ele>66.3</ele>
        <time>2022-01-05T14:48:58Z</time>
      </trkpt>
      <trkpt lat="49.86696" lon="2.43748">
        <ele>66.3</ele>
        <time>2022-01-05T14:48:59Z</time>
      </trkpt>
      <trkpt lat="49.86696" lon="2.43746">
        <ele>66.3</ele>
        <time>2022-01-05T14:49:00Z</time>
      </trkpt>
      <trkpt lat="49.86695" lon="2.43742">
        <ele>66.3</ele>
        <time>2022-01-05T14:49:02Z</time>
      </trkpt>
      <trkpt lat="49.86694" lon="2.4374">
        <ele>66.3</ele>
        <time>2022-01-05T14:49:03Z</time>
      </trkpt>
      <trkpt lat="49.86694" lon="2.43738">
        <ele>66.3</ele>
        <time>2022-01-05T14:49:04Z</time>
      </trkpt>
      <trkpt lat="49.86694" lon="2.43736">
        <ele>66.3</ele>
        <time>2022-01-05T14:49:06Z</time>
      </trkpt>
      <trkpt lat="49.86693" lon="2.43734">
        <ele>66.3</ele>
        <time>2022-01-05T14:49:07Z</time>
      </trkpt>
      <trkpt lat="49.86693" lon="2.43731">
        <ele>66.3</ele>
        <time>2022-01-05T14:49:08Z</time>
      </trkpt>
      <trkpt lat="49.86692" lon="2.43729">
        <ele>66.3</ele>
        <time>2022-01-05T14:49:10Z</time>
      </trkpt>
      <trkpt lat="49.86692" lon="2.43727">
        <ele>66.3</ele>
        <time>2022-01-05T14:49:11Z</time>
      </trkpt>
      <trkpt lat="49.86692" lon="2.43723">
        <ele>66.3</ele>
        <time>2022-01-05T14:49:13Z</time>
      </trkpt>
      <trkpt lat="49.86692" lon="2.43721">
        <ele>66.2</ele>
        <time>2022-01-05T14:49:14Z</time>
      </trkpt>
      <trkpt lat="49.86691" lon="2.43719">
        <ele>66.2</ele>
        <time>2022-01-05T14:49:15Z</time>
      </trkpt>
      <trkpt lat="49.86691" lon="2.43717">
        <ele>66.2</ele>
        <time>2022-01-05T14:49:16Z</time>
      </trkpt>
      <trkpt lat="49.86691" lon="2.43714">
        <ele>66.2</ele>
        <time>2022-01-05T14:49:17Z</time>
      </trkpt>
      <trkpt lat="49.86691" lon="2.43711">
        <ele>66.1</ele>
        <time>2022-01-05T14:49:19Z</time>
      </trkpt>
      <trkpt lat="49.86691" lon="2.43709">
        <ele>66.1</ele>
        <time>2022-01-05T14:49:20Z</time>
      </trkpt>
      <trkpt lat="49.86691" lon="2.43705">
        <ele>66.1</ele>
        <time>2022-01-05T14:49:22Z</time>
      </trkpt>
      <trkpt lat="49.86691" lon="2.43703">
        <ele>66.1</ele>
        <time>2022-01-05T14:49:23Z</time>
      </trkpt>
      <trkpt lat="49.86691" lon="2.43699">
        <ele>66</ele>
        <time>2022-01-05T14:49:25Z</time>
      </trkpt>
      <trkpt lat="49.8669" lon="2.43697">
        <ele>66</ele>
        <time>2022-01-05T14:49:26Z</time>
      </trkpt>
      <trkpt lat="49.8669" lon="2.43694">
        <ele>66</ele>
        <time>2022-01-05T14:49:27Z</time>
      </trkpt>
      <trkpt lat="49.8669" lon="2.43691">
        <ele>66</ele>
        <time>2022-01-05T14:49:29Z</time>
      </trkpt>
      <trkpt lat="49.86689" lon="2.43688">
        <ele>65.9</ele>
        <time>2022-01-05T14:49:31Z</time>
      </trkpt>
      <trkpt lat="49.86689" lon="2.43687">
        <ele>65.9</ele>
        <time>2022-01-05T14:49:32Z</time>
      </trkpt>
      <trkpt lat="49.86689" lon="2.43684">
        <ele>65.9</ele>
        <time>2022-01-05T14:49:33Z</time>
      </trkpt>
      <trkpt lat="49.86688" lon="2.43681">
        <ele>65.9</ele>
        <time>2022-01-05T14:49:34Z</time>
      </trkpt>
      <trkpt lat="49.86688" lon="2.43679">
        <ele>65.9</ele>
        <time>2022-01-05T14:49:35Z</time>
      </trkpt>
      <trkpt lat="49.86688" lon="2.43678">
        <ele>65.9</ele>
        <time>2022-01-05T14:49:36Z</time>
      </trkpt>
      <trkpt lat="49.86688" lon="2.43676">
        <ele>65.9</ele>
        <time>2022-01-05T14:49:38Z</time>
      </trkpt>
      <trkpt lat="49.86688" lon="2.43674">
        <ele>65.9</ele>
        <time>2022-01-05T14:49:39Z</time>
      </trkpt>
      <trkpt lat="49.86688" lon="2.43673">
        <ele>66</ele>
        <time>2022-01-05T14:49:40Z</time>
      </trkpt>
      <trkpt lat="49.86687" lon="2.4367">
        <ele>66</ele>
        <time>2022-01-05T14:49:41Z</time>
      </trkpt>
      <trkpt lat="49.86687" lon="2.43668">
        <ele>66</ele>
        <time>2022-01-05T14:49:42Z</time>
      </trkpt>
      <trkpt lat="49.86687" lon="2.43667">
        <ele>66</ele>
        <time>2022-01-05T14:49:43Z</time>
      </trkpt>
      <trkpt lat="49.86687" lon="2.43663">
        <ele>66</ele>
        <time>2022-01-05T14:49:44Z</time>
      </trkpt>
      <trkpt lat="49.86687" lon="2.43661">
        <ele>66</ele>
        <time>2022-01-05T14:49:46Z</time>
      </trkpt>
      <trkpt lat="49.86687" lon="2.43659">
        <ele>66</ele>
        <time>2022-01-05T14:49:48Z</time>
      </trkpt>
      <trkpt lat="49.86687" lon="2.43657">
        <ele>66</ele>
        <time>2022-01-05T14:49:49Z</time>
      </trkpt>
      <trkpt lat="49.86687" lon="2.43653">
        <ele>66.1</ele>
        <time>2022-01-05T14:49:50Z</time>
      </trkpt>
      <trkpt lat="49.86686" lon="2.43651">
        <ele>66.1</ele>
        <time>2022-01-05T14:49:52Z</time>
      </trkpt>
      <trkpt lat="49.86686" lon="2.43649">
        <ele>66.1</ele>
        <time>2022-01-05T14:49:53Z</time>
      </trkpt>
      <trkpt lat="49.86686" lon="2.43647">
        <ele>66.1</ele>
        <time>2022-01-05T14:49:54Z</time>
      </trkpt>
      <trkpt lat="49.86686" lon="2.43643">
        <ele>66.2</ele>
        <time>2022-01-05T14:49:56Z</time>
      </trkpt>
      <trkpt lat="49.86686" lon="2.43642">
        <ele>66.2</ele>
        <time>2022-01-05T14:49:57Z</time>
      </trkpt>
      <trkpt lat="49.86686" lon="2.43641">
        <ele>66.2</ele>
        <time>2022-01-05T14:49:58Z</time>
      </trkpt>
      <trkpt lat="49.86685" lon="2.43638">
        <ele>66.3</ele>
        <time>2022-01-05T14:49:59Z</time>
      </trkpt>
      <trkpt lat="49.86685" lon="2.43637">
        <ele>66.3</ele>
        <time>2022-01-05T14:50:00Z</time>
      </trkpt>
      <trkpt lat="49.86685" lon="2.43635">
        <ele>66.3</ele>
        <time>2022-01-05T14:50:01Z</time>
      </trkpt>
      <trkpt lat="49.86685" lon="2.43632">
        <ele>66.4</ele>
        <time>2022-01-05T14:50:02Z</time>
      </trkpt>
      <trkpt lat="49.86685" lon="2.43631">
        <ele>66.4</ele>
        <time>2022-01-05T14:50:03Z</time>
      </trkpt>
      <trkpt lat="49.86685" lon="2.43629">
        <ele>66.4</ele>
        <time>2022-01-05T14:50:04Z</time>
      </trkpt>
      <trkpt lat="49.86685" lon="2.43627">
        <ele>66.4</ele>
        <time>2022-01-05T14:50:05Z</time>
      </trkpt>
      <trkpt lat="49.86685" lon="2.43626">
        <ele>66.5</ele>
        <time>2022-01-05T14:50:06Z</time>
      </trkpt>
      <trkpt lat="49.86685" lon="2.43624">
        <ele>66.5</ele>
        <time>2022-01-05T14:50:08Z</time>
      </trkpt>
      <trkpt lat="49.86685" lon="2.43622">
        <ele>66.5</ele>
        <time>2022-01-05T14:50:09Z</time>
      </trkpt>
      <trkpt lat="49.86684" lon="2.43621">
        <ele>66.5</ele>
        <time>2022-01-05T14:50:10Z</time>
      </trkpt>
      <trkpt lat="49.86684" lon="2.43619">
        <ele>66.5</ele>
        <time>2022-01-05T14:50:11Z</time>
      </trkpt>
      <trkpt lat="49.86683" lon="2.43616">
        <ele>66.6</ele>
        <time>2022-01-05T14:50:12Z</time>
      </trkpt>
      <trkpt lat="49.86683" lon="2.43613">
        <ele>66.6</ele>
        <time>2022-01-05T14:50:14Z</time>
      </trkpt>
      <trkpt lat="49.86682" lon="2.4361">
        <ele>66.6</ele>
        <time>2022-01-05T14:50:15Z</time>
      </trkpt>
      <trkpt lat="49.86681" lon="2.43609">
        <ele>66.6</ele>
        <time>2022-01-05T14:50:16Z</time>
      </trkpt>
      <trkpt lat="49.86681" lon="2.43607">
        <ele>66.6</ele>
        <time>2022-01-05T14:50:17Z</time>
      </trkpt>
      <trkpt lat="49.8668" lon="2.43602">
        <ele>66.6</ele>
        <time>2022-01-05T14:50:19Z</time>
      </trkpt>
      <trkpt lat="49.8668" lon="2.43601">
        <ele>66.6</ele>
        <time>2022-01-05T14:50:20Z</time>
      </trkpt>
      <trkpt lat="49.86679" lon="2.43598">
        <ele>66.6</ele>
        <time>2022-01-05T14:50:22Z</time>
      </trkpt>
      <trkpt lat="49.86679" lon="2.43596">
        <ele>66.6</ele>
        <time>2022-01-05T14:50:23Z</time>
      </trkpt>
      <trkpt lat="49.86678" lon="2.43592">
        <ele>66.6</ele>
        <time>2022-01-05T14:50:24Z</time>
      </trkpt>
      <trkpt lat="49.86678" lon="2.43591">
        <ele>66.6</ele>
        <time>2022-01-05T14:50:25Z</time>
      </trkpt>
      <trkpt lat="49.86678" lon="2.4359">
        <ele>66.6</ele>
        <time>2022-01-05T14:50:26Z</time>
      </trkpt>
      <trkpt lat="49.86677" lon="2.43587">
        <ele>66.6</ele>
        <time>2022-01-05T14:50:27Z</time>
      </trkpt>
      <trkpt lat="49.86677" lon="2.43586">
        <ele>66.6</ele>
        <time>2022-01-05T14:50:28Z</time>
      </trkpt>
      <trkpt lat="49.86677" lon="2.43584">
        <ele>66.6</ele>
        <time>2022-01-05T14:50:29Z</time>
      </trkpt>
      <trkpt lat="49.86677" lon="2.43583">
        <ele>66.6</ele>
        <time>2022-01-05T14:50:31Z</time>
      </trkpt>
      <trkpt lat="49.86677" lon="2.43581">
        <ele>66.6</ele>
        <time>2022-01-05T14:50:32Z</time>
      </trkpt>
      <trkpt lat="49.86677" lon="2.43579">
        <ele>66.6</ele>
        <time>2022-01-05T14:50:33Z</time>
      </trkpt>
      <trkpt lat="49.86677" lon="2.43577">
        <ele>66.6</ele>
        <time>2022-01-05T14:50:34Z</time>
      </trkpt>
      <trkpt lat="49.86677" lon="2.43574">
        <ele>66.7</ele>
        <time>2022-01-05T14:50:35Z</time>
      </trkpt>
      <trkpt lat="49.86676" lon="2.43571">
        <ele>66.7</ele>
        <time>2022-01-05T14:50:36Z</time>
      </trkpt>
      <trkpt lat="49.86676" lon="2.43569">
        <ele>66.7</ele>
        <time>2022-01-05T14:50:37Z</time>
      </trkpt>
      <trkpt lat="49.86676" lon="2.43566">
        <ele>66.7</ele>
        <time>2022-01-05T14:50:39Z</time>
      </trkpt>
      <trkpt lat="49.86676" lon="2.43565">
        <ele>66.7</ele>
        <time>2022-01-05T14:50:40Z</time>
      </trkpt>
      <trkpt lat="49.86676" lon="2.43564">
        <ele>66.7</ele>
        <time>2022-01-05T14:50:41Z</time>
      </trkpt>
      <trkpt lat="49.86675" lon="2.4356">
        <ele>66.8</ele>
        <time>2022-01-05T14:50:42Z</time>
      </trkpt>
      <trkpt lat="49.86675" lon="2.43559">
        <ele>66.8</ele>
        <time>2022-01-05T14:50:43Z</time>
      </trkpt>
      <trkpt lat="49.86674" lon="2.43558">
        <ele>66.8</ele>
        <time>2022-01-05T14:50:44Z</time>
      </trkpt>
      <trkpt lat="49.86674" lon="2.43554">
        <ele>66.9</ele>
        <time>2022-01-05T14:50:45Z</time>
      </trkpt>
      <trkpt lat="49.86674" lon="2.43553">
        <ele>66.9</ele>
        <time>2022-01-05T14:50:46Z</time>
      </trkpt>
      <trkpt lat="49.86673" lon="2.43552">
        <ele>66.9</ele>
        <time>2022-01-05T14:50:47Z</time>
      </trkpt>
      <trkpt lat="49.86673" lon="2.4355">
        <ele>66.9</ele>
        <time>2022-01-05T14:50:48Z</time>
      </trkpt>
      <trkpt lat="49.86673" lon="2.43548">
        <ele>67</ele>
        <time>2022-01-05T14:50:49Z</time>
      </trkpt>
      <trkpt lat="49.86672" lon="2.43545">
        <ele>67</ele>
        <time>2022-01-05T14:50:51Z</time>
      </trkpt>
      <trkpt lat="49.86672" lon="2.43544">
        <ele>67</ele>
        <time>2022-01-05T14:50:52Z</time>
      </trkpt>
      <trkpt lat="49.86672" lon="2.43542">
        <ele>67</ele>
        <time>2022-01-05T14:50:53Z</time>
      </trkpt>
      <trkpt lat="49.86672" lon="2.4354">
        <ele>67</ele>
        <time>2022-01-05T14:50:54Z</time>
      </trkpt>
      <trkpt lat="49.86671" lon="2.43537">
        <ele>67.1</ele>
        <time>2022-01-05T14:50:55Z</time>
      </trkpt>
      <trkpt lat="49.86671" lon="2.43536">
        <ele>67.1</ele>
        <time>2022-01-05T14:50:56Z</time>
      </trkpt>
      <trkpt lat="49.86671" lon="2.43534">
        <ele>67.1</ele>
        <time>2022-01-05T14:50:57Z</time>
      </trkpt>
      <trkpt lat="49.86671" lon="2.43531">
        <ele>67.2</ele>
        <time>2022-01-05T14:50:58Z</time>
      </trkpt>
      <trkpt lat="49.86671" lon="2.4353">
        <ele>67.2</ele>
        <time>2022-01-05T14:50:59Z</time>
      </trkpt>
      <trkpt lat="49.86671" lon="2.43528">
        <ele>67.2</ele>
        <time>2022-01-05T14:51:00Z</time>
      </trkpt>
      <trkpt lat="49.86671" lon="2.43527">
        <ele>67.2</ele>
        <time>2022-01-05T14:51:02Z</time>
      </trkpt>
      <trkpt lat="49.86671" lon="2.43525">
        <ele>67.2</ele>
        <time>2022-01-05T14:51:03Z</time>
      </trkpt>
      <trkpt lat="49.8667" lon="2.43523">
        <ele>67.2</ele>
        <time>2022-01-05T14:51:04Z</time>
      </trkpt>
      <trkpt lat="49.8667" lon="2.43521">
        <ele>67.3</ele>
        <time>2022-01-05T14:51:05Z</time>
      </trkpt>
      <trkpt lat="49.8667" lon="2.4352">
        <ele>67.3</ele>
        <time>2022-01-05T14:51:06Z</time>
      </trkpt>
      <trkpt lat="49.8667" lon="2.43518">
        <ele>67.3</ele>
        <time>2022-01-05T14:51:07Z</time>
      </trkpt>
      <trkpt lat="49.86669" lon="2.43515">
        <ele>67.3</ele>
        <time>2022-01-05T14:51:08Z</time>
      </trkpt>
      <trkpt lat="49.86669" lon="2.43513">
        <ele>67.4</ele>
        <time>2022-01-05T14:51:09Z</time>
      </trkpt>
      <trkpt lat="49.86669" lon="2.43512">
        <ele>67.4</ele>
        <time>2022-01-05T14:51:10Z</time>
      </trkpt>
      <trkpt lat="49.86669" lon="2.43508">
        <ele>67.4</ele>
        <time>2022-01-05T14:51:11Z</time>
      </trkpt>
      <trkpt lat="49.86668" lon="2.43507">
        <ele>67.4</ele>
        <time>2022-01-05T14:51:13Z</time>
      </trkpt>
      <trkpt lat="49.86668" lon="2.43505">
        <ele>67.4</ele>
        <time>2022-01-05T14:51:14Z</time>
      </trkpt>
      <trkpt lat="49.86668" lon="2.43504">
        <ele>67.5</ele>
        <time>2022-01-05T14:51:15Z</time>
      </trkpt>
      <trkpt lat="49.86668" lon="2.43502">
        <ele>67.5</ele>
        <time>2022-01-05T14:51:16Z</time>
      </trkpt>
      <trkpt lat="49.86668" lon="2.43499">
        <ele>67.5</ele>
        <time>2022-01-05T14:51:17Z</time>
      </trkpt>
      <trkpt lat="49.86668" lon="2.43498">
        <ele>67.5</ele>
        <time>2022-01-05T14:51:18Z</time>
      </trkpt>
      <trkpt lat="49.86667" lon="2.43497">
        <ele>67.5</ele>
        <time>2022-01-05T14:51:19Z</time>
      </trkpt>
      <trkpt lat="49.86667" lon="2.43495">
        <ele>67.6</ele>
        <time>2022-01-05T14:51:20Z</time>
      </trkpt>
      <trkpt lat="49.86667" lon="2.43492">
        <ele>67.6</ele>
        <time>2022-01-05T14:51:21Z</time>
      </trkpt>
      <trkpt lat="49.86667" lon="2.4349">
        <ele>67.6</ele>
        <time>2022-01-05T14:51:23Z</time>
      </trkpt>
      <trkpt lat="49.86667" lon="2.43487">
        <ele>67.6</ele>
        <time>2022-01-05T14:51:24Z</time>
      </trkpt>
      <trkpt lat="49.86667" lon="2.43485">
        <ele>67.7</ele>
        <time>2022-01-05T14:51:25Z</time>
      </trkpt>
      <trkpt lat="49.86667" lon="2.43484">
        <ele>67.7</ele>
        <time>2022-01-05T14:51:26Z</time>
      </trkpt>
      <trkpt lat="49.86667" lon="2.43481">
        <ele>67.7</ele>
        <time>2022-01-05T14:51:27Z</time>
      </trkpt>
      <trkpt lat="49.86667" lon="2.43479">
        <ele>67.7</ele>
        <time>2022-01-05T14:51:28Z</time>
      </trkpt>
      <trkpt lat="49.86667" lon="2.43478">
        <ele>67.7</ele>
        <time>2022-01-05T14:51:29Z</time>
      </trkpt>
      <trkpt lat="49.86667" lon="2.43476">
        <ele>67.8</ele>
        <time>2022-01-05T14:51:30Z</time>
      </trkpt>
      <trkpt lat="49.86667" lon="2.43474">
        <ele>67.8</ele>
        <time>2022-01-05T14:51:31Z</time>
      </trkpt>
      <trkpt lat="49.86667" lon="2.43473">
        <ele>67.8</ele>
        <time>2022-01-05T14:51:32Z</time>
      </trkpt>
      <trkpt lat="49.86667" lon="2.43471">
        <ele>67.8</ele>
        <time>2022-01-05T14:51:33Z</time>
      </trkpt>
      <trkpt lat="49.86667" lon="2.43469">
        <ele>67.9</ele>
        <time>2022-01-05T14:51:34Z</time>
      </trkpt>
      <trkpt lat="49.86667" lon="2.43467">
        <ele>67.9</ele>
        <time>2022-01-05T14:51:36Z</time>
      </trkpt>
      <trkpt lat="49.86668" lon="2.43465">
        <ele>67.9</ele>
        <time>2022-01-05T14:51:37Z</time>
      </trkpt>
      <trkpt lat="49.86668" lon="2.43463">
        <ele>67.9</ele>
        <time>2022-01-05T14:51:38Z</time>
      </trkpt>
      <trkpt lat="49.86668" lon="2.43461">
        <ele>68</ele>
        <time>2022-01-05T14:51:39Z</time>
      </trkpt>
      <trkpt lat="49.86668" lon="2.43459">
        <ele>68</ele>
        <time>2022-01-05T14:51:40Z</time>
      </trkpt>
      <trkpt lat="49.86668" lon="2.43457">
        <ele>68</ele>
        <time>2022-01-05T14:51:41Z</time>
      </trkpt>
      <trkpt lat="49.86668" lon="2.43455">
        <ele>68</ele>
        <time>2022-01-05T14:51:42Z</time>
      </trkpt>
      <trkpt lat="49.86668" lon="2.43452">
        <ele>68.1</ele>
        <time>2022-01-05T14:51:44Z</time>
      </trkpt>
      <trkpt lat="49.86667" lon="2.43449">
        <ele>68.1</ele>
        <time>2022-01-05T14:51:45Z</time>
      </trkpt>
      <trkpt lat="49.86667" lon="2.43447">
        <ele>68.1</ele>
        <time>2022-01-05T14:51:46Z</time>
      </trkpt>
      <trkpt lat="49.86667" lon="2.43444">
        <ele>68.2</ele>
        <time>2022-01-05T14:51:47Z</time>
      </trkpt>
      <trkpt lat="49.86666" lon="2.43442">
        <ele>68.2</ele>
        <time>2022-01-05T14:51:49Z</time>
      </trkpt>
      <trkpt lat="49.86666" lon="2.43441">
        <ele>68.2</ele>
        <time>2022-01-05T14:51:50Z</time>
      </trkpt>
      <trkpt lat="49.86666" lon="2.43439">
        <ele>68.2</ele>
        <time>2022-01-05T14:51:51Z</time>
      </trkpt>
      <trkpt lat="49.86665" lon="2.43438">
        <ele>68.3</ele>
        <time>2022-01-05T14:51:52Z</time>
      </trkpt>
      <trkpt lat="49.86665" lon="2.43434">
        <ele>68.3</ele>
        <time>2022-01-05T14:51:53Z</time>
      </trkpt>
      <trkpt lat="49.86665" lon="2.43433">
        <ele>68.3</ele>
        <time>2022-01-05T14:51:54Z</time>
      </trkpt>
      <trkpt lat="49.86665" lon="2.43432">
        <ele>68.3</ele>
        <time>2022-01-05T14:51:55Z</time>
      </trkpt>
      <trkpt lat="49.86665" lon="2.4343">
        <ele>68.4</ele>
        <time>2022-01-05T14:51:56Z</time>
      </trkpt>
      <trkpt lat="49.86664" lon="2.43428">
        <ele>68.4</ele>
        <time>2022-01-05T14:51:57Z</time>
      </trkpt>
      <trkpt lat="49.86664" lon="2.43425">
        <ele>68.4</ele>
        <time>2022-01-05T14:51:59Z</time>
      </trkpt>
      <trkpt lat="49.86664" lon="2.43422">
        <ele>68.5</ele>
        <time>2022-01-05T14:52:00Z</time>
      </trkpt>
      <trkpt lat="49.86663" lon="2.4342">
        <ele>68.5</ele>
        <time>2022-01-05T14:52:01Z</time>
      </trkpt>
      <trkpt lat="49.86663" lon="2.43417">
        <ele>68.5</ele>
        <time>2022-01-05T14:52:03Z</time>
      </trkpt>
      <trkpt lat="49.86663" lon="2.43415">
        <ele>68.5</ele>
        <time>2022-01-05T14:52:04Z</time>
      </trkpt>
      <trkpt lat="49.86663" lon="2.43414">
        <ele>68.5</ele>
        <time>2022-01-05T14:52:05Z</time>
      </trkpt>
      <trkpt lat="49.86662" lon="2.43411">
        <ele>68.6</ele>
        <time>2022-01-05T14:52:06Z</time>
      </trkpt>
      <trkpt lat="49.86661" lon="2.43409">
        <ele>68.6</ele>
        <time>2022-01-05T14:52:07Z</time>
      </trkpt>
      <trkpt lat="49.86661" lon="2.43408">
        <ele>68.6</ele>
        <time>2022-01-05T14:52:08Z</time>
      </trkpt>
      <trkpt lat="49.8666" lon="2.43406">
        <ele>68.6</ele>
        <time>2022-01-05T14:52:10Z</time>
      </trkpt>
      <trkpt lat="49.8666" lon="2.43404">
        <ele>68.6</ele>
        <time>2022-01-05T14:52:11Z</time>
      </trkpt>
      <trkpt lat="49.86659" lon="2.43401">
        <ele>68.7</ele>
        <time>2022-01-05T14:52:12Z</time>
      </trkpt>
      <trkpt lat="49.86659" lon="2.434">
        <ele>68.7</ele>
        <time>2022-01-05T14:52:13Z</time>
      </trkpt>
      <trkpt lat="49.86658" lon="2.43398">
        <ele>68.7</ele>
        <time>2022-01-05T14:52:14Z</time>
      </trkpt>
      <trkpt lat="49.86658" lon="2.43396">
        <ele>68.7</ele>
        <time>2022-01-05T14:52:15Z</time>
      </trkpt>
      <trkpt lat="49.86658" lon="2.43394">
        <ele>68.7</ele>
        <time>2022-01-05T14:52:17Z</time>
      </trkpt>
      <trkpt lat="49.86658" lon="2.43392">
        <ele>68.7</ele>
        <time>2022-01-05T14:52:18Z</time>
      </trkpt>
      <trkpt lat="49.86657" lon="2.4339">
        <ele>68.7</ele>
        <time>2022-01-05T14:52:19Z</time>
      </trkpt>
      <trkpt lat="49.86657" lon="2.43387">
        <ele>68.7</ele>
        <time>2022-01-05T14:52:20Z</time>
      </trkpt>
      <trkpt lat="49.86657" lon="2.43385">
        <ele>68.7</ele>
        <time>2022-01-05T14:52:21Z</time>
      </trkpt>
      <trkpt lat="49.86657" lon="2.43383">
        <ele>68.7</ele>
        <time>2022-01-05T14:52:22Z</time>
      </trkpt>
      <trkpt lat="49.86657" lon="2.4338">
        <ele>68.8</ele>
        <time>2022-01-05T14:52:24Z</time>
      </trkpt>
      <trkpt lat="49.86657" lon="2.43378">
        <ele>68.8</ele>
        <time>2022-01-05T14:52:25Z</time>
      </trkpt>
      <trkpt lat="49.86657" lon="2.43376">
        <ele>68.8</ele>
        <time>2022-01-05T14:52:26Z</time>
      </trkpt>
      <trkpt lat="49.86657" lon="2.43375">
        <ele>68.8</ele>
        <time>2022-01-05T14:52:27Z</time>
      </trkpt>
      <trkpt lat="49.86657" lon="2.43371">
        <ele>68.8</ele>
        <time>2022-01-05T14:52:28Z</time>
      </trkpt>
      <trkpt lat="49.86657" lon="2.4337">
        <ele>68.8</ele>
        <time>2022-01-05T14:52:29Z</time>
      </trkpt>
      <trkpt lat="49.86657" lon="2.43369">
        <ele>68.8</ele>
        <time>2022-01-05T14:52:30Z</time>
      </trkpt>
      <trkpt lat="49.86657" lon="2.43366">
        <ele>68.8</ele>
        <time>2022-01-05T14:52:31Z</time>
      </trkpt>
      <trkpt lat="49.86657" lon="2.43364">
        <ele>68.8</ele>
        <time>2022-01-05T14:52:32Z</time>
      </trkpt>
      <trkpt lat="49.86657" lon="2.43362">
        <ele>68.8</ele>
        <time>2022-01-05T14:52:33Z</time>
      </trkpt>
      <trkpt lat="49.86656" lon="2.43361">
        <ele>68.9</ele>
        <time>2022-01-05T14:52:34Z</time>
      </trkpt>
      <trkpt lat="49.86656" lon="2.43359">
        <ele>68.9</ele>
        <time>2022-01-05T14:52:35Z</time>
      </trkpt>
      <trkpt lat="49.86656" lon="2.43357">
        <ele>68.9</ele>
        <time>2022-01-05T14:52:36Z</time>
      </trkpt>
      <trkpt lat="49.86656" lon="2.43356">
        <ele>68.9</ele>
        <time>2022-01-05T14:52:37Z</time>
      </trkpt>
      <trkpt lat="49.86656" lon="2.43354">
        <ele>68.9</ele>
        <time>2022-01-05T14:52:39Z</time>
      </trkpt>
      <trkpt lat="49.86655" lon="2.43351">
        <ele>68.9</ele>
        <time>2022-01-05T14:52:40Z</time>
      </trkpt>
      <trkpt lat="49.86655" lon="2.43349">
        <ele>68.9</ele>
        <time>2022-01-05T14:52:41Z</time>
      </trkpt>
      <trkpt lat="49.86655" lon="2.43346">
        <ele>69</ele>
        <time>2022-01-05T14:52:42Z</time>
      </trkpt>
      <trkpt lat="49.86655" lon="2.43345">
        <ele>69</ele>
        <time>2022-01-05T14:52:43Z</time>
      </trkpt>
      <trkpt lat="49.86654" lon="2.43344">
        <ele>69</ele>
        <time>2022-01-05T14:52:44Z</time>
      </trkpt>
      <trkpt lat="49.86654" lon="2.4334">
        <ele>69</ele>
        <time>2022-01-05T14:52:45Z</time>
      </trkpt>
      <trkpt lat="49.86654" lon="2.43339">
        <ele>69</ele>
        <time>2022-01-05T14:52:47Z</time>
      </trkpt>
      <trkpt lat="49.86654" lon="2.43338">
        <ele>69.1</ele>
        <time>2022-01-05T14:52:48Z</time>
      </trkpt>
      <trkpt lat="49.86654" lon="2.43336">
        <ele>69.1</ele>
        <time>2022-01-05T14:52:49Z</time>
      </trkpt>
      <trkpt lat="49.86654" lon="2.43335">
        <ele>69.1</ele>
        <time>2022-01-05T14:52:50Z</time>
      </trkpt>
      <trkpt lat="49.86654" lon="2.43333">
        <ele>69.1</ele>
        <time>2022-01-05T14:52:51Z</time>
      </trkpt>
      <trkpt lat="49.86654" lon="2.4333">
        <ele>69.1</ele>
        <time>2022-01-05T14:52:52Z</time>
      </trkpt>
      <trkpt lat="49.86653" lon="2.43329">
        <ele>69.2</ele>
        <time>2022-01-05T14:52:53Z</time>
      </trkpt>
      <trkpt lat="49.86653" lon="2.43327">
        <ele>69.2</ele>
        <time>2022-01-05T14:52:54Z</time>
      </trkpt>
      <trkpt lat="49.86653" lon="2.43324">
        <ele>69.2</ele>
        <time>2022-01-05T14:52:55Z</time>
      </trkpt>
      <trkpt lat="49.86653" lon="2.43323">
        <ele>69.2</ele>
        <time>2022-01-05T14:52:56Z</time>
      </trkpt>
      <trkpt lat="49.86652" lon="2.43322">
        <ele>69.2</ele>
        <time>2022-01-05T14:52:57Z</time>
      </trkpt>
      <trkpt lat="49.86652" lon="2.43318">
        <ele>69.2</ele>
        <time>2022-01-05T14:52:58Z</time>
      </trkpt>
      <trkpt lat="49.86652" lon="2.43317">
        <ele>69.2</ele>
        <time>2022-01-05T14:52:59Z</time>
      </trkpt>
      <trkpt lat="49.86652" lon="2.43316">
        <ele>69.2</ele>
        <time>2022-01-05T14:53:00Z</time>
      </trkpt>
      <trkpt lat="49.86651" lon="2.43313">
        <ele>69.3</ele>
        <time>2022-01-05T14:53:02Z</time>
      </trkpt>
      <trkpt lat="49.86651" lon="2.43312">
        <ele>69.3</ele>
        <time>2022-01-05T14:53:03Z</time>
      </trkpt>
      <trkpt lat="49.86651" lon="2.4331">
        <ele>69.3</ele>
        <time>2022-01-05T14:53:04Z</time>
      </trkpt>
      <trkpt lat="49.86651" lon="2.43307">
        <ele>69.3</ele>
        <time>2022-01-05T14:53:05Z</time>
      </trkpt>
      <trkpt lat="49.86651" lon="2.43306">
        <ele>69.3</ele>
        <time>2022-01-05T14:53:06Z</time>
      </trkpt>
      <trkpt lat="49.8665" lon="2.43304">
        <ele>69.3</ele>
        <time>2022-01-05T14:53:07Z</time>
      </trkpt>
      <trkpt lat="49.8665" lon="2.43302">
        <ele>69.3</ele>
        <time>2022-01-05T14:53:08Z</time>
      </trkpt>
      <trkpt lat="49.8665" lon="2.43301">
        <ele>69.3</ele>
        <time>2022-01-05T14:53:09Z</time>
      </trkpt>
      <trkpt lat="49.8665" lon="2.43299">
        <ele>69.3</ele>
        <time>2022-01-05T14:53:10Z</time>
      </trkpt>
      <trkpt lat="49.8665" lon="2.43297">
        <ele>69.3</ele>
        <time>2022-01-05T14:53:11Z</time>
      </trkpt>
      <trkpt lat="49.86649" lon="2.43295">
        <ele>69.3</ele>
        <time>2022-01-05T14:53:12Z</time>
      </trkpt>
      <trkpt lat="49.86649" lon="2.43294">
        <ele>69.3</ele>
        <time>2022-01-05T14:53:14Z</time>
      </trkpt>
      <trkpt lat="49.86649" lon="2.43292">
        <ele>69.3</ele>
        <time>2022-01-05T14:53:15Z</time>
      </trkpt>
      <trkpt lat="49.86648" lon="2.43291">
        <ele>69.3</ele>
        <time>2022-01-05T14:53:16Z</time>
      </trkpt>
      <trkpt lat="49.86648" lon="2.43289">
        <ele>69.3</ele>
        <time>2022-01-05T14:53:17Z</time>
      </trkpt>
      <trkpt lat="49.86648" lon="2.43286">
        <ele>69.3</ele>
        <time>2022-01-05T14:53:18Z</time>
      </trkpt>
      <trkpt lat="49.86647" lon="2.43284">
        <ele>69.3</ele>
        <time>2022-01-05T14:53:19Z</time>
      </trkpt>
      <trkpt lat="49.86647" lon="2.43283">
        <ele>69.3</ele>
        <time>2022-01-05T14:53:20Z</time>
      </trkpt>
      <trkpt lat="49.86647" lon="2.4328">
        <ele>69.3</ele>
        <time>2022-01-05T14:53:21Z</time>
      </trkpt>
      <trkpt lat="49.86647" lon="2.43279">
        <ele>69.3</ele>
        <time>2022-01-05T14:53:22Z</time>
      </trkpt>
      <trkpt lat="49.86647" lon="2.43277">
        <ele>69.3</ele>
        <time>2022-01-05T14:53:23Z</time>
      </trkpt>
      <trkpt lat="49.86647" lon="2.43274">
        <ele>69.3</ele>
        <time>2022-01-05T14:53:24Z</time>
      </trkpt>
      <trkpt lat="49.86646" lon="2.43273">
        <ele>69.4</ele>
        <time>2022-01-05T14:53:26Z</time>
      </trkpt>
      <trkpt lat="49.86646" lon="2.43272">
        <ele>69.4</ele>
        <time>2022-01-05T14:53:27Z</time>
      </trkpt>
      <trkpt lat="49.86646" lon="2.4327">
        <ele>69.4</ele>
        <time>2022-01-05T14:53:28Z</time>
      </trkpt>
      <trkpt lat="49.86646" lon="2.43268">
        <ele>69.4</ele>
        <time>2022-01-05T14:53:29Z</time>
      </trkpt>
      <trkpt lat="49.86646" lon="2.43266">
        <ele>69.4</ele>
        <time>2022-01-05T14:53:30Z</time>
      </trkpt>
      <trkpt lat="49.86646" lon="2.43264">
        <ele>69.4</ele>
        <time>2022-01-05T14:53:31Z</time>
      </trkpt>
      <trkpt lat="49.86645" lon="2.43262">
        <ele>69.4</ele>
        <time>2022-01-05T14:53:32Z</time>
      </trkpt>
      <trkpt lat="49.86645" lon="2.43259">
        <ele>69.5</ele>
        <time>2022-01-05T14:53:34Z</time>
      </trkpt>
      <trkpt lat="49.86644" lon="2.43257">
        <ele>69.5</ele>
        <time>2022-01-05T14:53:35Z</time>
      </trkpt>
      <trkpt lat="49.86643" lon="2.43255">
        <ele>69.5</ele>
        <time>2022-01-05T14:53:36Z</time>
      </trkpt>
      <trkpt lat="49.86643" lon="2.43252">
        <ele>69.5</ele>
        <time>2022-01-05T14:53:37Z</time>
      </trkpt>
      <trkpt lat="49.86643" lon="2.43251">
        <ele>69.5</ele>
        <time>2022-01-05T14:53:39Z</time>
      </trkpt>
      <trkpt lat="49.86642" lon="2.43249">
        <ele>69.5</ele>
        <time>2022-01-05T14:53:40Z</time>
      </trkpt>
      <trkpt lat="49.86642" lon="2.43247">
        <ele>69.6</ele>
        <time>2022-01-05T14:53:41Z</time>
      </trkpt>
      <trkpt lat="49.86641" lon="2.43245">
        <ele>69.6</ele>
        <time>2022-01-05T14:53:42Z</time>
      </trkpt>
      <trkpt lat="49.86641" lon="2.43244">
        <ele>69.6</ele>
        <time>2022-01-05T14:53:43Z</time>
      </trkpt>
      <trkpt lat="49.86641" lon="2.43242">
        <ele>69.6</ele>
        <time>2022-01-05T14:53:44Z</time>
      </trkpt>
      <trkpt lat="49.8664" lon="2.4324">
        <ele>69.6</ele>
        <time>2022-01-05T14:53:45Z</time>
      </trkpt>
      <trkpt lat="49.8664" lon="2.43238">
        <ele>69.6</ele>
        <time>2022-01-05T14:53:46Z</time>
      </trkpt>
      <trkpt lat="49.8664" lon="2.43236">
        <ele>69.6</ele>
        <time>2022-01-05T14:53:47Z</time>
      </trkpt>
      <trkpt lat="49.8664" lon="2.43235">
        <ele>69.6</ele>
        <time>2022-01-05T14:53:48Z</time>
      </trkpt>
      <trkpt lat="49.8664" lon="2.43233">
        <ele>69.6</ele>
        <time>2022-01-05T14:53:50Z</time>
      </trkpt>
      <trkpt lat="49.8664" lon="2.43231">
        <ele>69.6</ele>
        <time>2022-01-05T14:53:51Z</time>
      </trkpt>
      <trkpt lat="49.8664" lon="2.4323">
        <ele>69.6</ele>
        <time>2022-01-05T14:53:52Z</time>
      </trkpt>
      <trkpt lat="49.8664" lon="2.43227">
        <ele>69.6</ele>
        <time>2022-01-05T14:53:53Z</time>
      </trkpt>
      <trkpt lat="49.86639" lon="2.43225">
        <ele>69.6</ele>
        <time>2022-01-05T14:53:54Z</time>
      </trkpt>
      <trkpt lat="49.86639" lon="2.43224">
        <ele>69.6</ele>
        <time>2022-01-05T14:53:55Z</time>
      </trkpt>
      <trkpt lat="49.86639" lon="2.43222">
        <ele>69.6</ele>
        <time>2022-01-05T14:53:56Z</time>
      </trkpt>
      <trkpt lat="49.86639" lon="2.4322">
        <ele>69.6</ele>
        <time>2022-01-05T14:53:57Z</time>
      </trkpt>
      <trkpt lat="49.86639" lon="2.43219">
        <ele>69.6</ele>
        <time>2022-01-05T14:53:58Z</time>
      </trkpt>
      <trkpt lat="49.86638" lon="2.43217">
        <ele>69.6</ele>
        <time>2022-01-05T14:54:00Z</time>
      </trkpt>
      <trkpt lat="49.86638" lon="2.43215">
        <ele>69.6</ele>
        <time>2022-01-05T14:54:01Z</time>
      </trkpt>
      <trkpt lat="49.86638" lon="2.43213">
        <ele>69.6</ele>
        <time>2022-01-05T14:54:02Z</time>
      </trkpt>
      <trkpt lat="49.86638" lon="2.43211">
        <ele>69.6</ele>
        <time>2022-01-05T14:54:03Z</time>
      </trkpt>
      <trkpt lat="49.86638" lon="2.43209">
        <ele>69.6</ele>
        <time>2022-01-05T14:54:04Z</time>
      </trkpt>
      <trkpt lat="49.86637" lon="2.43206">
        <ele>69.5</ele>
        <time>2022-01-05T14:54:05Z</time>
      </trkpt>
      <trkpt lat="49.86637" lon="2.43204">
        <ele>69.5</ele>
        <time>2022-01-05T14:54:06Z</time>
      </trkpt>
      <trkpt lat="49.86637" lon="2.43203">
        <ele>69.5</ele>
        <time>2022-01-05T14:54:07Z</time>
      </trkpt>
      <trkpt lat="49.86637" lon="2.432">
        <ele>69.5</ele>
        <time>2022-01-05T14:54:08Z</time>
      </trkpt>
      <trkpt lat="49.86637" lon="2.43198">
        <ele>69.5</ele>
        <time>2022-01-05T14:54:09Z</time>
      </trkpt>
      <trkpt lat="49.86637" lon="2.43197">
        <ele>69.5</ele>
        <time>2022-01-05T14:54:10Z</time>
      </trkpt>
      <trkpt lat="49.86636" lon="2.43195">
        <ele>69.5</ele>
        <time>2022-01-05T14:54:12Z</time>
      </trkpt>
      <trkpt lat="49.86636" lon="2.43193">
        <ele>69.5</ele>
        <time>2022-01-05T14:54:13Z</time>
      </trkpt>
      <trkpt lat="49.86636" lon="2.43192">
        <ele>69.6</ele>
        <time>2022-01-05T14:54:14Z</time>
      </trkpt>
      <trkpt lat="49.86636" lon="2.43189">
        <ele>69.6</ele>
        <time>2022-01-05T14:54:15Z</time>
      </trkpt>
      <trkpt lat="49.86635" lon="2.43187">
        <ele>69.6</ele>
        <time>2022-01-05T14:54:16Z</time>
      </trkpt>
      <trkpt lat="49.86635" lon="2.43186">
        <ele>69.6</ele>
        <time>2022-01-05T14:54:17Z</time>
      </trkpt>
      <trkpt lat="49.86635" lon="2.43183">
        <ele>69.6</ele>
        <time>2022-01-05T14:54:18Z</time>
      </trkpt>
      <trkpt lat="49.86635" lon="2.43181">
        <ele>69.6</ele>
        <time>2022-01-05T14:54:19Z</time>
      </trkpt>
      <trkpt lat="49.86635" lon="2.43179">
        <ele>69.6</ele>
        <time>2022-01-05T14:54:21Z</time>
      </trkpt>
      <trkpt lat="49.86635" lon="2.43178">
        <ele>69.6</ele>
        <time>2022-01-05T14:54:22Z</time>
      </trkpt>
      <trkpt lat="49.86635" lon="2.43176">
        <ele>69.6</ele>
        <time>2022-01-05T14:54:23Z</time>
      </trkpt>
      <trkpt lat="49.86635" lon="2.43175">
        <ele>69.6</ele>
        <time>2022-01-05T14:54:24Z</time>
      </trkpt>
      <trkpt lat="49.86635" lon="2.43172">
        <ele>69.7</ele>
        <time>2022-01-05T14:54:25Z</time>
      </trkpt>
      <trkpt lat="49.86635" lon="2.4317">
        <ele>69.7</ele>
        <time>2022-01-05T14:54:26Z</time>
      </trkpt>
      <trkpt lat="49.86635" lon="2.43169">
        <ele>69.7</ele>
        <time>2022-01-05T14:54:27Z</time>
      </trkpt>
      <trkpt lat="49.86634" lon="2.43166">
        <ele>69.8</ele>
        <time>2022-01-05T14:54:28Z</time>
      </trkpt>
      <trkpt lat="49.86634" lon="2.43165">
        <ele>69.8</ele>
        <time>2022-01-05T14:54:30Z</time>
      </trkpt>
      <trkpt lat="49.86634" lon="2.43163">
        <ele>69.9</ele>
        <time>2022-01-05T14:54:31Z</time>
      </trkpt>
      <trkpt lat="49.86633" lon="2.43161">
        <ele>70</ele>
        <time>2022-01-05T14:54:32Z</time>
      </trkpt>
      <trkpt lat="49.86633" lon="2.43159">
        <ele>70</ele>
        <time>2022-01-05T14:54:33Z</time>
      </trkpt>
      <trkpt lat="49.86633" lon="2.43158">
        <ele>70</ele>
        <time>2022-01-05T14:54:34Z</time>
      </trkpt>
      <trkpt lat="49.86632" lon="2.43155">
        <ele>70.2</ele>
        <time>2022-01-05T14:54:35Z</time>
      </trkpt>
      <trkpt lat="49.86632" lon="2.43154">
        <ele>70.2</ele>
        <time>2022-01-05T14:54:36Z</time>
      </trkpt>
      <trkpt lat="49.86632" lon="2.43153">
        <ele>70.2</ele>
        <time>2022-01-05T14:54:37Z</time>
      </trkpt>
      <trkpt lat="49.86631" lon="2.43151">
        <ele>70.3</ele>
        <time>2022-01-05T14:54:38Z</time>
      </trkpt>
      <trkpt lat="49.86631" lon="2.43149">
        <ele>70.4</ele>
        <time>2022-01-05T14:54:40Z</time>
      </trkpt>
      <trkpt lat="49.86631" lon="2.43147">
        <ele>70.4</ele>
        <time>2022-01-05T14:54:41Z</time>
      </trkpt>
      <trkpt lat="49.86631" lon="2.43144">
        <ele>70.5</ele>
        <time>2022-01-05T14:54:43Z</time>
      </trkpt>
      <trkpt lat="49.8663" lon="2.43143">
        <ele>70.5</ele>
        <time>2022-01-05T14:54:44Z</time>
      </trkpt>
      <trkpt lat="49.8663" lon="2.43139">
        <ele>70.6</ele>
        <time>2022-01-05T14:54:46Z</time>
      </trkpt>
      <trkpt lat="49.8663" lon="2.43137">
        <ele>70.6</ele>
        <time>2022-01-05T14:54:47Z</time>
      </trkpt>
      <trkpt lat="49.8663" lon="2.43134">
        <ele>70.6</ele>
        <time>2022-01-05T14:54:48Z</time>
      </trkpt>
      <trkpt lat="49.8663" lon="2.43133">
        <ele>70.6</ele>
        <time>2022-01-05T14:54:49Z</time>
      </trkpt>
      <trkpt lat="49.8663" lon="2.43131">
        <ele>70.6</ele>
        <time>2022-01-05T14:54:50Z</time>
      </trkpt>
      <trkpt lat="49.8663" lon="2.43129">
        <ele>70.6</ele>
        <time>2022-01-05T14:54:52Z</time>
      </trkpt>
      <trkpt lat="49.86629" lon="2.43127">
        <ele>70.6</ele>
        <time>2022-01-05T14:54:53Z</time>
      </trkpt>
      <trkpt lat="49.86629" lon="2.43126">
        <ele>70.5</ele>
        <time>2022-01-05T14:54:54Z</time>
      </trkpt>
      <trkpt lat="49.86629" lon="2.43124">
        <ele>70.5</ele>
        <time>2022-01-05T14:54:55Z</time>
      </trkpt>
      <trkpt lat="49.86629" lon="2.43122">
        <ele>70.5</ele>
        <time>2022-01-05T14:54:56Z</time>
      </trkpt>
      <trkpt lat="49.86629" lon="2.43119">
        <ele>70.4</ele>
        <time>2022-01-05T14:54:58Z</time>
      </trkpt>
      <trkpt lat="49.86628" lon="2.43117">
        <ele>70.4</ele>
        <time>2022-01-05T14:54:59Z</time>
      </trkpt>
      <trkpt lat="49.86628" lon="2.43115">
        <ele>70.4</ele>
        <time>2022-01-05T14:55:00Z</time>
      </trkpt>
      <trkpt lat="49.86628" lon="2.43113">
        <ele>70.4</ele>
        <time>2022-01-05T14:55:01Z</time>
      </trkpt>
      <trkpt lat="49.86628" lon="2.43111">
        <ele>70.3</ele>
        <time>2022-01-05T14:55:02Z</time>
      </trkpt>
      <trkpt lat="49.86628" lon="2.43109">
        <ele>70.3</ele>
        <time>2022-01-05T14:55:03Z</time>
      </trkpt>
      <trkpt lat="49.86628" lon="2.43105">
        <ele>70.2</ele>
        <time>2022-01-05T14:55:04Z</time>
      </trkpt>
      <trkpt lat="49.86628" lon="2.43103">
        <ele>70.2</ele>
        <time>2022-01-05T14:55:06Z</time>
      </trkpt>
      <trkpt lat="49.86628" lon="2.43101">
        <ele>70.2</ele>
        <time>2022-01-05T14:55:07Z</time>
      </trkpt>
      <trkpt lat="49.86628" lon="2.431">
        <ele>70.1</ele>
        <time>2022-01-05T14:55:08Z</time>
      </trkpt>
      <trkpt lat="49.86628" lon="2.43098">
        <ele>70.1</ele>
        <time>2022-01-05T14:55:09Z</time>
      </trkpt>
      <trkpt lat="49.86628" lon="2.43096">
        <ele>70.1</ele>
        <time>2022-01-05T14:55:10Z</time>
      </trkpt>
      <trkpt lat="49.86627" lon="2.43094">
        <ele>70</ele>
        <time>2022-01-05T14:55:11Z</time>
      </trkpt>
      <trkpt lat="49.86627" lon="2.43091">
        <ele>70</ele>
        <time>2022-01-05T14:55:13Z</time>
      </trkpt>
      <trkpt lat="49.86627" lon="2.43089">
        <ele>70</ele>
        <time>2022-01-05T14:55:14Z</time>
      </trkpt>
      <trkpt lat="49.86627" lon="2.43088">
        <ele>69.9</ele>
        <time>2022-01-05T14:55:15Z</time>
      </trkpt>
      <trkpt lat="49.86626" lon="2.43085">
        <ele>69.9</ele>
        <time>2022-01-05T14:55:16Z</time>
      </trkpt>
      <trkpt lat="49.86626" lon="2.43083">
        <ele>69.9</ele>
        <time>2022-01-05T14:55:17Z</time>
      </trkpt>
      <trkpt lat="49.86626" lon="2.43081">
        <ele>69.8</ele>
        <time>2022-01-05T14:55:19Z</time>
      </trkpt>
      <trkpt lat="49.86625" lon="2.43078">
        <ele>69.8</ele>
        <time>2022-01-05T14:55:21Z</time>
      </trkpt>
      <trkpt lat="49.86625" lon="2.43074">
        <ele>69.7</ele>
        <time>2022-01-05T14:55:22Z</time>
      </trkpt>
      <trkpt lat="49.86625" lon="2.43073">
        <ele>69.7</ele>
        <time>2022-01-05T14:55:23Z</time>
      </trkpt>
      <trkpt lat="49.86625" lon="2.43071">
        <ele>69.7</ele>
        <time>2022-01-05T14:55:24Z</time>
      </trkpt>
      <trkpt lat="49.86624" lon="2.43067">
        <ele>69.6</ele>
        <time>2022-01-05T14:55:26Z</time>
      </trkpt>
      <trkpt lat="49.86624" lon="2.43066">
        <ele>69.6</ele>
        <time>2022-01-05T14:55:27Z</time>
      </trkpt>
      <trkpt lat="49.86624" lon="2.43063">
        <ele>69.6</ele>
        <time>2022-01-05T14:55:28Z</time>
      </trkpt>
      <trkpt lat="49.86624" lon="2.43061">
        <ele>69.5</ele>
        <time>2022-01-05T14:55:29Z</time>
      </trkpt>
      <trkpt lat="49.86624" lon="2.43059">
        <ele>69.5</ele>
        <time>2022-01-05T14:55:31Z</time>
      </trkpt>
      <trkpt lat="49.86623" lon="2.43056">
        <ele>69.4</ele>
        <time>2022-01-05T14:55:32Z</time>
      </trkpt>
      <trkpt lat="49.86623" lon="2.43054">
        <ele>69.4</ele>
        <time>2022-01-05T14:55:33Z</time>
      </trkpt>
      <trkpt lat="49.86623" lon="2.43052">
        <ele>69.4</ele>
        <time>2022-01-05T14:55:34Z</time>
      </trkpt>
      <trkpt lat="49.86622" lon="2.43048">
        <ele>69.3</ele>
        <time>2022-01-05T14:55:36Z</time>
      </trkpt>
      <trkpt lat="49.86622" lon="2.43046">
        <ele>69.3</ele>
        <time>2022-01-05T14:55:37Z</time>
      </trkpt>
      <trkpt lat="49.86622" lon="2.43044">
        <ele>69.2</ele>
        <time>2022-01-05T14:55:39Z</time>
      </trkpt>
      <trkpt lat="49.86622" lon="2.43041">
        <ele>69.2</ele>
        <time>2022-01-05T14:55:40Z</time>
      </trkpt>
      <trkpt lat="49.86621" lon="2.43039">
        <ele>69.2</ele>
        <time>2022-01-05T14:55:41Z</time>
      </trkpt>
      <trkpt lat="49.86621" lon="2.43037">
        <ele>69.1</ele>
        <time>2022-01-05T14:55:42Z</time>
      </trkpt>
      <trkpt lat="49.86621" lon="2.43035">
        <ele>69.1</ele>
        <time>2022-01-05T14:55:43Z</time>
      </trkpt>
      <trkpt lat="49.86621" lon="2.43033">
        <ele>69</ele>
        <time>2022-01-05T14:55:45Z</time>
      </trkpt>
      <trkpt lat="49.86621" lon="2.43031">
        <ele>69</ele>
        <time>2022-01-05T14:55:46Z</time>
      </trkpt>
      <trkpt lat="49.8662" lon="2.43027">
        <ele>69</ele>
        <time>2022-01-05T14:55:47Z</time>
      </trkpt>
      <trkpt lat="49.8662" lon="2.43024">
        <ele>68.9</ele>
        <time>2022-01-05T14:55:49Z</time>
      </trkpt>
      <trkpt lat="49.8662" lon="2.43022">
        <ele>68.9</ele>
        <time>2022-01-05T14:55:51Z</time>
      </trkpt>
      <trkpt lat="49.8662" lon="2.4302">
        <ele>68.8</ele>
        <time>2022-01-05T14:55:52Z</time>
      </trkpt>
      <trkpt lat="49.8662" lon="2.43018">
        <ele>68.8</ele>
        <time>2022-01-05T14:55:53Z</time>
      </trkpt>
      <trkpt lat="49.8662" lon="2.43016">
        <ele>68.8</ele>
        <time>2022-01-05T14:55:54Z</time>
      </trkpt>
      <trkpt lat="49.8662" lon="2.43014">
        <ele>68.8</ele>
        <time>2022-01-05T14:55:55Z</time>
      </trkpt>
      <trkpt lat="49.8662" lon="2.43012">
        <ele>68.7</ele>
        <time>2022-01-05T14:55:56Z</time>
      </trkpt>
      <trkpt lat="49.8662" lon="2.4301">
        <ele>68.7</ele>
        <time>2022-01-05T14:55:58Z</time>
      </trkpt>
      <trkpt lat="49.8662" lon="2.43007">
        <ele>68.7</ele>
        <time>2022-01-05T14:55:59Z</time>
      </trkpt>
      <trkpt lat="49.8662" lon="2.43005">
        <ele>68.6</ele>
        <time>2022-01-05T14:56:00Z</time>
      </trkpt>
      <trkpt lat="49.8662" lon="2.43002">
        <ele>68.6</ele>
        <time>2022-01-05T14:56:01Z</time>
      </trkpt>
      <trkpt lat="49.8662" lon="2.43001">
        <ele>68.6</ele>
        <time>2022-01-05T14:56:03Z</time>
      </trkpt>
      <trkpt lat="49.8662" lon="2.42999">
        <ele>68.6</ele>
        <time>2022-01-05T14:56:04Z</time>
      </trkpt>
      <trkpt lat="49.86619" lon="2.42996">
        <ele>68.5</ele>
        <time>2022-01-05T14:56:05Z</time>
      </trkpt>
      <trkpt lat="49.86619" lon="2.42995">
        <ele>68.5</ele>
        <time>2022-01-05T14:56:06Z</time>
      </trkpt>
      <trkpt lat="49.86619" lon="2.42993">
        <ele>68.5</ele>
        <time>2022-01-05T14:56:07Z</time>
      </trkpt>
      <trkpt lat="49.86619" lon="2.4299">
        <ele>68.4</ele>
        <time>2022-01-05T14:56:09Z</time>
      </trkpt>
      <trkpt lat="49.86618" lon="2.42989">
        <ele>68.4</ele>
        <time>2022-01-05T14:56:10Z</time>
      </trkpt>
      <trkpt lat="49.86618" lon="2.42987">
        <ele>68.4</ele>
        <time>2022-01-05T14:56:11Z</time>
      </trkpt>
      <trkpt lat="49.86618" lon="2.42985">
        <ele>68.4</ele>
        <time>2022-01-05T14:56:12Z</time>
      </trkpt>
      <trkpt lat="49.86617" lon="2.42983">
        <ele>68.3</ele>
        <time>2022-01-05T14:56:13Z</time>
      </trkpt>
      <trkpt lat="49.86617" lon="2.42982">
        <ele>68.3</ele>
        <time>2022-01-05T14:56:14Z</time>
      </trkpt>
      <trkpt lat="49.86616" lon="2.42979">
        <ele>68.3</ele>
        <time>2022-01-05T14:56:15Z</time>
      </trkpt>
      <trkpt lat="49.86616" lon="2.42976">
        <ele>68.2</ele>
        <time>2022-01-05T14:56:17Z</time>
      </trkpt>
      <trkpt lat="49.86615" lon="2.42974">
        <ele>68.2</ele>
        <time>2022-01-05T14:56:18Z</time>
      </trkpt>
      <trkpt lat="49.86615" lon="2.42972">
        <ele>68.1</ele>
        <time>2022-01-05T14:56:19Z</time>
      </trkpt>
      <trkpt lat="49.86614" lon="2.42971">
        <ele>68.1</ele>
        <time>2022-01-05T14:56:20Z</time>
      </trkpt>
      <trkpt lat="49.86614" lon="2.42968">
        <ele>68.1</ele>
        <time>2022-01-05T14:56:22Z</time>
      </trkpt>
      <trkpt lat="49.86613" lon="2.42963">
        <ele>68</ele>
        <time>2022-01-05T14:56:24Z</time>
      </trkpt>
      <trkpt lat="49.86612" lon="2.42962">
        <ele>67.9</ele>
        <time>2022-01-05T14:56:25Z</time>
      </trkpt>
      <trkpt lat="49.86612" lon="2.4296">
        <ele>67.9</ele>
        <time>2022-01-05T14:56:26Z</time>
      </trkpt>
      <trkpt lat="49.86612" lon="2.42958">
        <ele>67.8</ele>
        <time>2022-01-05T14:56:27Z</time>
      </trkpt>
      <trkpt lat="49.86612" lon="2.42956">
        <ele>67.8</ele>
        <time>2022-01-05T14:56:28Z</time>
      </trkpt>
      <trkpt lat="49.86611" lon="2.42953">
        <ele>67.7</ele>
        <time>2022-01-05T14:56:30Z</time>
      </trkpt>
      <trkpt lat="49.86611" lon="2.42951">
        <ele>67.6</ele>
        <time>2022-01-05T14:56:31Z</time>
      </trkpt>
      <trkpt lat="49.86611" lon="2.42948">
        <ele>67.6</ele>
        <time>2022-01-05T14:56:32Z</time>
      </trkpt>
      <trkpt lat="49.86611" lon="2.42945">
        <ele>67.5</ele>
        <time>2022-01-05T14:56:34Z</time>
      </trkpt>
      <trkpt lat="49.86611" lon="2.42944">
        <ele>67.5</ele>
        <time>2022-01-05T14:56:35Z</time>
      </trkpt>
      <trkpt lat="49.86611" lon="2.42942">
        <ele>67.4</ele>
        <time>2022-01-05T14:56:36Z</time>
      </trkpt>
      <trkpt lat="49.86611" lon="2.42939">
        <ele>67.4</ele>
        <time>2022-01-05T14:56:37Z</time>
      </trkpt>
      <trkpt lat="49.86611" lon="2.42937">
        <ele>67.3</ele>
        <time>2022-01-05T14:56:39Z</time>
      </trkpt>
      <trkpt lat="49.86611" lon="2.42935">
        <ele>67.3</ele>
        <time>2022-01-05T14:56:40Z</time>
      </trkpt>
      <trkpt lat="49.86611" lon="2.42933">
        <ele>67.2</ele>
        <time>2022-01-05T14:56:41Z</time>
      </trkpt>
      <trkpt lat="49.86611" lon="2.42931">
        <ele>67.2</ele>
        <time>2022-01-05T14:56:42Z</time>
      </trkpt>
      <trkpt lat="49.86611" lon="2.42929">
        <ele>67.2</ele>
        <time>2022-01-05T14:56:43Z</time>
      </trkpt>
      <trkpt lat="49.86611" lon="2.42927">
        <ele>67.1</ele>
        <time>2022-01-05T14:56:44Z</time>
      </trkpt>
      <trkpt lat="49.86611" lon="2.42925">
        <ele>67.1</ele>
        <time>2022-01-05T14:56:45Z</time>
      </trkpt>
      <trkpt lat="49.86611" lon="2.42924">
        <ele>67</ele>
        <time>2022-01-05T14:56:46Z</time>
      </trkpt>
      <trkpt lat="49.86611" lon="2.42922">
        <ele>67</ele>
        <time>2022-01-05T14:56:48Z</time>
      </trkpt>
      <trkpt lat="49.86611" lon="2.4292">
        <ele>67</ele>
        <time>2022-01-05T14:56:49Z</time>
      </trkpt>
      <trkpt lat="49.86611" lon="2.42918">
        <ele>66.9</ele>
        <time>2022-01-05T14:56:50Z</time>
      </trkpt>
      <trkpt lat="49.86611" lon="2.42916">
        <ele>66.9</ele>
        <time>2022-01-05T14:56:51Z</time>
      </trkpt>
      <trkpt lat="49.86611" lon="2.42911">
        <ele>66.8</ele>
        <time>2022-01-05T14:56:53Z</time>
      </trkpt>
      <trkpt lat="49.86611" lon="2.4291">
        <ele>66.8</ele>
        <time>2022-01-05T14:56:54Z</time>
      </trkpt>
      <trkpt lat="49.8661" lon="2.42908">
        <ele>66.7</ele>
        <time>2022-01-05T14:56:55Z</time>
      </trkpt>
      <trkpt lat="49.8661" lon="2.42905">
        <ele>66.6</ele>
        <time>2022-01-05T14:56:57Z</time>
      </trkpt>
      <trkpt lat="49.8661" lon="2.42902">
        <ele>66.6</ele>
        <time>2022-01-05T14:56:58Z</time>
      </trkpt>
      <trkpt lat="49.8661" lon="2.429">
        <ele>66.5</ele>
        <time>2022-01-05T14:56:59Z</time>
      </trkpt>
      <trkpt lat="49.86609" lon="2.42896">
        <ele>66.5</ele>
        <time>2022-01-05T14:57:00Z</time>
      </trkpt>
      <trkpt lat="49.86609" lon="2.42894">
        <ele>66.4</ele>
        <time>2022-01-05T14:57:02Z</time>
      </trkpt>
      <trkpt lat="49.86609" lon="2.42892">
        <ele>66.4</ele>
        <time>2022-01-05T14:57:03Z</time>
      </trkpt>
      <trkpt lat="49.86609" lon="2.4289">
        <ele>66.3</ele>
        <time>2022-01-05T14:57:05Z</time>
      </trkpt>
      <trkpt lat="49.86609" lon="2.42889">
        <ele>66.3</ele>
        <time>2022-01-05T14:57:06Z</time>
      </trkpt>
      <trkpt lat="49.86609" lon="2.42887">
        <ele>66.2</ele>
        <time>2022-01-05T14:57:07Z</time>
      </trkpt>
      <trkpt lat="49.86608" lon="2.42885">
        <ele>66.2</ele>
        <time>2022-01-05T14:57:08Z</time>
      </trkpt>
      <trkpt lat="49.86608" lon="2.42883">
        <ele>66.1</ele>
        <time>2022-01-05T14:57:09Z</time>
      </trkpt>
      <trkpt lat="49.86608" lon="2.42879">
        <ele>66</ele>
        <time>2022-01-05T14:57:11Z</time>
      </trkpt>
      <trkpt lat="49.86607" lon="2.42877">
        <ele>65.9</ele>
        <time>2022-01-05T14:57:12Z</time>
      </trkpt>
      <trkpt lat="49.86607" lon="2.42876">
        <ele>65.9</ele>
        <time>2022-01-05T14:57:13Z</time>
      </trkpt>
      <trkpt lat="49.86606" lon="2.42874">
        <ele>65.8</ele>
        <time>2022-01-05T14:57:14Z</time>
      </trkpt>
      <trkpt lat="49.86606" lon="2.42871">
        <ele>65.7</ele>
        <time>2022-01-05T14:57:16Z</time>
      </trkpt>
      <trkpt lat="49.86606" lon="2.42869">
        <ele>65.7</ele>
        <time>2022-01-05T14:57:17Z</time>
      </trkpt>
      <trkpt lat="49.86605" lon="2.42867">
        <ele>65.6</ele>
        <time>2022-01-05T14:57:18Z</time>
      </trkpt>
      <trkpt lat="49.86605" lon="2.42865">
        <ele>65.5</ele>
        <time>2022-01-05T14:57:19Z</time>
      </trkpt>
      <trkpt lat="49.86604" lon="2.42864">
        <ele>65.5</ele>
        <time>2022-01-05T14:57:20Z</time>
      </trkpt>
      <trkpt lat="49.86603" lon="2.42862">
        <ele>65.4</ele>
        <time>2022-01-05T14:57:21Z</time>
      </trkpt>
      <trkpt lat="49.86602" lon="2.42859">
        <ele>65.3</ele>
        <time>2022-01-05T14:57:22Z</time>
      </trkpt>
      <trkpt lat="49.86602" lon="2.42858">
        <ele>65.2</ele>
        <time>2022-01-05T14:57:24Z</time>
      </trkpt>
      <trkpt lat="49.86601" lon="2.42857">
        <ele>65.1</ele>
        <time>2022-01-05T14:57:25Z</time>
      </trkpt>
      <trkpt lat="49.866" lon="2.42855">
        <ele>65</ele>
        <time>2022-01-05T14:57:26Z</time>
      </trkpt>
      <trkpt lat="49.86599" lon="2.42853">
        <ele>65</ele>
        <time>2022-01-05T14:57:27Z</time>
      </trkpt>
      <trkpt lat="49.86597" lon="2.42852">
        <ele>64.9</ele>
        <time>2022-01-05T14:57:28Z</time>
      </trkpt>
      <trkpt lat="49.86596" lon="2.4285">
        <ele>64.8</ele>
        <time>2022-01-05T14:57:30Z</time>
      </trkpt>
      <trkpt lat="49.86595" lon="2.42849">
        <ele>64.8</ele>
        <time>2022-01-05T14:57:31Z</time>
      </trkpt>
      <trkpt lat="49.86594" lon="2.42847">
        <ele>64.8</ele>
        <time>2022-01-05T14:57:32Z</time>
      </trkpt>
      <trkpt lat="49.86593" lon="2.42846">
        <ele>64.8</ele>
        <time>2022-01-05T14:57:34Z</time>
      </trkpt>
      <trkpt lat="49.86592" lon="2.42845">
        <ele>64.8</ele>
        <time>2022-01-05T14:57:35Z</time>
      </trkpt>
      <trkpt lat="49.86591" lon="2.42844">
        <ele>64.8</ele>
        <time>2022-01-05T14:57:36Z</time>
      </trkpt>
      <trkpt lat="49.86589" lon="2.42842">
        <ele>64.7</ele>
        <time>2022-01-05T14:57:37Z</time>
      </trkpt>
      <trkpt lat="49.86589" lon="2.42841">
        <ele>64.7</ele>
        <time>2022-01-05T14:57:38Z</time>
      </trkpt>
      <trkpt lat="49.86588" lon="2.42841">
        <ele>64.7</ele>
        <time>2022-01-05T14:57:39Z</time>
      </trkpt>
      <trkpt lat="49.86587" lon="2.4284">
        <ele>64.7</ele>
        <time>2022-01-05T14:57:40Z</time>
      </trkpt>
      <trkpt lat="49.86586" lon="2.42838">
        <ele>64.7</ele>
        <time>2022-01-05T14:57:42Z</time>
      </trkpt>
      <trkpt lat="49.86586" lon="2.42837">
        <ele>64.7</ele>
        <time>2022-01-05T14:57:43Z</time>
      </trkpt>
      <trkpt lat="49.86584" lon="2.42835">
        <ele>64.7</ele>
        <time>2022-01-05T14:57:44Z</time>
      </trkpt>
      <trkpt lat="49.86583" lon="2.42835">
        <ele>64.7</ele>
        <time>2022-01-05T14:57:45Z</time>
      </trkpt>
      <trkpt lat="49.86583" lon="2.42834">
        <ele>64.6</ele>
        <time>2022-01-05T14:57:46Z</time>
      </trkpt>
      <trkpt lat="49.86582" lon="2.42833">
        <ele>64.6</ele>
        <time>2022-01-05T14:57:47Z</time>
      </trkpt>
      <trkpt lat="49.86581" lon="2.42832">
        <ele>64.6</ele>
        <time>2022-01-05T14:57:48Z</time>
      </trkpt>
      <trkpt lat="49.8658" lon="2.42831">
        <ele>64.6</ele>
        <time>2022-01-05T14:57:50Z</time>
      </trkpt>
      <trkpt lat="49.8658" lon="2.4283">
        <ele>64.6</ele>
        <time>2022-01-05T14:57:51Z</time>
      </trkpt>
      <trkpt lat="49.86579" lon="2.42829">
        <ele>64.6</ele>
        <time>2022-01-05T14:57:53Z</time>
      </trkpt>
      <trkpt lat="49.86579" lon="2.42828">
        <ele>64.6</ele>
        <time>2022-01-05T14:57:54Z</time>
      </trkpt>
      <trkpt lat="49.86579" lon="2.42828">
        <ele>64.6</ele>
        <time>2022-01-05T14:57:55Z</time>
      </trkpt>
      <trkpt lat="49.86579" lon="2.42828">
        <ele>64.6</ele>
        <time>2022-01-05T14:57:57Z</time>
      </trkpt>
      <trkpt lat="49.86579" lon="2.42828">
        <ele>64.6</ele>
        <time>2022-01-05T14:57:59Z</time>
      </trkpt>
      <trkpt lat="49.8658" lon="2.42828">
        <ele>64.6</ele>
        <time>2022-01-05T14:58:01Z</time>
      </trkpt>
      <trkpt lat="49.8658" lon="2.42828">
        <ele>64.6</ele>
        <time>2022-01-05T14:58:02Z</time>
      </trkpt>
      <trkpt lat="49.8658" lon="2.42828">
        <ele>64.6</ele>
        <time>2022-01-05T14:58:03Z</time>
      </trkpt>
      <trkpt lat="49.8658" lon="2.42828">
        <ele>64.6</ele>
        <time>2022-01-05T14:58:04Z</time>
      </trkpt>
      <trkpt lat="49.8658" lon="2.42828">
        <ele>64.6</ele>
        <time>2022-01-05T14:58:06Z</time>
      </trkpt>
      <trkpt lat="49.8658" lon="2.42828">
        <ele>64.6</ele>
        <time>2022-01-05T14:58:07Z</time>
      </trkpt>
      <trkpt lat="49.8658" lon="2.42827">
        <ele>64.6</ele>
        <time>2022-01-05T14:58:09Z</time>
      </trkpt>
      <trkpt lat="49.86581" lon="2.42827">
        <ele>64.5</ele>
        <time>2022-01-05T14:58:11Z</time>
      </trkpt>
      <trkpt lat="49.86581" lon="2.42828">
        <ele>64.5</ele>
        <time>2022-01-05T14:58:13Z</time>
      </trkpt>
      <trkpt lat="49.86581" lon="2.42828">
        <ele>64.5</ele>
        <time>2022-01-05T14:58:14Z</time>
      </trkpt>
      <trkpt lat="49.86581" lon="2.42829">
        <ele>64.5</ele>
        <time>2022-01-05T14:58:16Z</time>
      </trkpt>
      <trkpt lat="49.86581" lon="2.42829">
        <ele>64.5</ele>
        <time>2022-01-05T14:58:17Z</time>
      </trkpt>
      <trkpt lat="49.86581" lon="2.42829">
        <ele>64.5</ele>
        <time>2022-01-05T14:58:19Z</time>
      </trkpt>
      <trkpt lat="49.86581" lon="2.4283">
        <ele>64.5</ele>
        <time>2022-01-05T14:58:21Z</time>
      </trkpt>
      <trkpt lat="49.86582" lon="2.4283">
        <ele>64.5</ele>
        <time>2022-01-05T14:58:22Z</time>
      </trkpt>
      <trkpt lat="49.86582" lon="2.4283">
        <ele>64.5</ele>
        <time>2022-01-05T14:58:24Z</time>
      </trkpt>
      <trkpt lat="49.86582" lon="2.4283">
        <ele>64.5</ele>
        <time>2022-01-05T14:58:25Z</time>
      </trkpt>
      <trkpt lat="49.86582" lon="2.4283">
        <ele>64.5</ele>
        <time>2022-01-05T14:58:26Z</time>
      </trkpt>
      <trkpt lat="49.86581" lon="2.4283">
        <ele>64.5</ele>
        <time>2022-01-05T14:58:28Z</time>
      </trkpt>
      <trkpt lat="49.86581" lon="2.4283">
        <ele>64.5</ele>
        <time>2022-01-05T14:58:29Z</time>
      </trkpt>
      <trkpt lat="49.86581" lon="2.4283">
        <ele>64.5</ele>
        <time>2022-01-05T14:58:30Z</time>
      </trkpt>
      <trkpt lat="49.86581" lon="2.4283">
        <ele>64.5</ele>
        <time>2022-01-05T14:58:32Z</time>
      </trkpt>
      <trkpt lat="49.86581" lon="2.4283">
        <ele>64.5</ele>
        <time>2022-01-05T14:58:34Z</time>
      </trkpt>
      <trkpt lat="49.86581" lon="2.4283">
        <ele>64.5</ele>
        <time>2022-01-05T14:58:36Z</time>
      </trkpt>
      <trkpt lat="49.86581" lon="2.4283">
        <ele>64.5</ele>
        <time>2022-01-05T14:58:37Z</time>
      </trkpt>
      <trkpt lat="49.86581" lon="2.4283">
        <ele>64.5</ele>
        <time>2022-01-05T14:58:38Z</time>
      </trkpt>
      <trkpt lat="49.86581" lon="2.4283">
        <ele>64.5</ele>
        <time>2022-01-05T14:58:40Z</time>
      </trkpt>
      <trkpt lat="49.86581" lon="2.4283">
        <ele>64.5</ele>
        <time>2022-01-05T14:58:41Z</time>
      </trkpt>
      <trkpt lat="49.86581" lon="2.4283">
        <ele>64.5</ele>
        <time>2022-01-05T14:58:43Z</time>
      </trkpt>
      <trkpt lat="49.86581" lon="2.4283">
        <ele>64.5</ele>
        <time>2022-01-05T14:58:45Z</time>
      </trkpt>
      <trkpt lat="49.86581" lon="2.4283">
        <ele>64.5</ele>
        <time>2022-01-05T14:58:47Z</time>
      </trkpt>
      <trkpt lat="49.86581" lon="2.4283">
        <ele>64.5</ele>
        <time>2022-01-05T14:58:48Z</time>
      </trkpt>
      <trkpt lat="49.86581" lon="2.4283">
        <ele>64.5</ele>
        <time>2022-01-05T14:58:50Z</time>
      </trkpt>
      <trkpt lat="49.86581" lon="2.4283">
        <ele>64.5</ele>
        <time>2022-01-05T14:58:51Z</time>
      </trkpt>
      <trkpt lat="49.86581" lon="2.4283">
        <ele>64.5</ele>
        <time>2022-01-05T14:58:53Z</time>
      </trkpt>
      <trkpt lat="49.86581" lon="2.4283">
        <ele>64.5</ele>
        <time>2022-01-05T14:58:54Z</time>
      </trkpt>
      <trkpt lat="49.86581" lon="2.4283">
        <ele>64.5</ele>
        <time>2022-01-05T14:58:55Z</time>
      </trkpt>
      <trkpt lat="49.86581" lon="2.4283">
        <ele>64.5</ele>
        <time>2022-01-05T14:58:56Z</time>
      </trkpt>
      <trkpt lat="49.86581" lon="2.4283">
        <ele>64.5</ele>
        <time>2022-01-05T14:58:58Z</time>
      </trkpt>
      <trkpt lat="49.86581" lon="2.4283">
        <ele>64.5</ele>
        <time>2022-01-05T14:59:00Z</time>
      </trkpt>
      <trkpt lat="49.86581" lon="2.42831">
        <ele>64.5</ele>
        <time>2022-01-05T14:59:02Z</time>
      </trkpt>
      <trkpt lat="49.8658" lon="2.42832">
        <ele>64.5</ele>
        <time>2022-01-05T14:59:04Z</time>
      </trkpt>
      <trkpt lat="49.8658" lon="2.4283">
        <ele>64.5</ele>
        <time>2022-01-05T14:59:06Z</time>
      </trkpt>
      <trkpt lat="49.86579" lon="2.42829">
        <ele>64.4</ele>
        <time>2022-01-05T14:59:08Z</time>
      </trkpt>
      <trkpt lat="49.86577" lon="2.42828">
        <ele>64.4</ele>
        <time>2022-01-05T14:59:09Z</time>
      </trkpt>
      <trkpt lat="49.86577" lon="2.42828">
        <ele>64.4</ele>
        <time>2022-01-05T14:59:10Z</time>
      </trkpt>
      <trkpt lat="49.86576" lon="2.42828">
        <ele>64.4</ele>
        <time>2022-01-05T14:59:11Z</time>
      </trkpt>
      <trkpt lat="49.86574" lon="2.42825">
        <ele>64.4</ele>
        <time>2022-01-05T14:59:12Z</time>
      </trkpt>
      <trkpt lat="49.86573" lon="2.42824">
        <ele>64.4</ele>
        <time>2022-01-05T14:59:14Z</time>
      </trkpt>
      <trkpt lat="49.86572" lon="2.42822">
        <ele>64.4</ele>
        <time>2022-01-05T14:59:15Z</time>
      </trkpt>
      <trkpt lat="49.86571" lon="2.42821">
        <ele>64.4</ele>
        <time>2022-01-05T14:59:16Z</time>
      </trkpt>
      <trkpt lat="49.86571" lon="2.4282">
        <ele>64.4</ele>
        <time>2022-01-05T14:59:17Z</time>
      </trkpt>
      <trkpt lat="49.86569" lon="2.42816">
        <ele>64.3</ele>
        <time>2022-01-05T14:59:18Z</time>
      </trkpt>
      <trkpt lat="49.86568" lon="2.42814">
        <ele>64.3</ele>
        <time>2022-01-05T14:59:19Z</time>
      </trkpt>
      <trkpt lat="49.86567" lon="2.42812">
        <ele>64.3</ele>
        <time>2022-01-05T14:59:20Z</time>
      </trkpt>
      <trkpt lat="49.86566" lon="2.4281">
        <ele>64.3</ele>
        <time>2022-01-05T14:59:22Z</time>
      </trkpt>
      <trkpt lat="49.86566" lon="2.42808">
        <ele>64.4</ele>
        <time>2022-01-05T14:59:23Z</time>
      </trkpt>
      <trkpt lat="49.86565" lon="2.42806">
        <ele>64.4</ele>
        <time>2022-01-05T14:59:24Z</time>
      </trkpt>
      <trkpt lat="49.86564" lon="2.42803">
        <ele>64.4</ele>
        <time>2022-01-05T14:59:25Z</time>
      </trkpt>
      <trkpt lat="49.86563" lon="2.42801">
        <ele>64.4</ele>
        <time>2022-01-05T14:59:27Z</time>
      </trkpt>
      <trkpt lat="49.86562" lon="2.42799">
        <ele>64.4</ele>
        <time>2022-01-05T14:59:28Z</time>
      </trkpt>
      <trkpt lat="49.86561" lon="2.42796">
        <ele>64.4</ele>
        <time>2022-01-05T14:59:29Z</time>
      </trkpt>
      <trkpt lat="49.86561" lon="2.42794">
        <ele>64.5</ele>
        <time>2022-01-05T14:59:31Z</time>
      </trkpt>
      <trkpt lat="49.8656" lon="2.42792">
        <ele>64.5</ele>
        <time>2022-01-05T14:59:32Z</time>
      </trkpt>
      <trkpt lat="49.86559" lon="2.42787">
        <ele>64.5</ele>
        <time>2022-01-05T14:59:33Z</time>
      </trkpt>
      <trkpt lat="49.86558" lon="2.42786">
        <ele>64.5</ele>
        <time>2022-01-05T14:59:35Z</time>
      </trkpt>
      <trkpt lat="49.86558" lon="2.42784">
        <ele>64.5</ele>
        <time>2022-01-05T14:59:36Z</time>
      </trkpt>
      <trkpt lat="49.86557" lon="2.42782">
        <ele>64.5</ele>
        <time>2022-01-05T14:59:37Z</time>
      </trkpt>
      <trkpt lat="49.86556" lon="2.42781">
        <ele>64.5</ele>
        <time>2022-01-05T14:59:39Z</time>
      </trkpt>
      <trkpt lat="49.86554" lon="2.42777">
        <ele>64.5</ele>
        <time>2022-01-05T14:59:41Z</time>
      </trkpt>
      <trkpt lat="49.86553" lon="2.42775">
        <ele>64.5</ele>
        <time>2022-01-05T14:59:42Z</time>
      </trkpt>
      <trkpt lat="49.86552" lon="2.42774">
        <ele>64.5</ele>
        <time>2022-01-05T14:59:43Z</time>
      </trkpt>
      <trkpt lat="49.8655" lon="2.4277">
        <ele>64.5</ele>
        <time>2022-01-05T14:59:45Z</time>
      </trkpt>
      <trkpt lat="49.8655" lon="2.42769">
        <ele>64.5</ele>
        <time>2022-01-05T14:59:46Z</time>
      </trkpt>
      <trkpt lat="49.86549" lon="2.42768">
        <ele>64.5</ele>
        <time>2022-01-05T14:59:47Z</time>
      </trkpt>
      <trkpt lat="49.86548" lon="2.42766">
        <ele>64.5</ele>
        <time>2022-01-05T14:59:48Z</time>
      </trkpt>
      <trkpt lat="49.86547" lon="2.42765">
        <ele>64.5</ele>
        <time>2022-01-05T14:59:49Z</time>
      </trkpt>
      <trkpt lat="49.86546" lon="2.42764">
        <ele>64.5</ele>
        <time>2022-01-05T14:59:50Z</time>
      </trkpt>
      <trkpt lat="49.86545" lon="2.42762">
        <ele>64.5</ele>
        <time>2022-01-05T14:59:52Z</time>
      </trkpt>
      <trkpt lat="49.86544" lon="2.4276">
        <ele>64.5</ele>
        <time>2022-01-05T14:59:53Z</time>
      </trkpt>
      <trkpt lat="49.86543" lon="2.42758">
        <ele>64.5</ele>
        <time>2022-01-05T14:59:54Z</time>
      </trkpt>
      <trkpt lat="49.86542" lon="2.42757">
        <ele>64.5</ele>
        <time>2022-01-05T14:59:56Z</time>
      </trkpt>
      <trkpt lat="49.86541" lon="2.42755">
        <ele>64.5</ele>
        <time>2022-01-05T14:59:57Z</time>
      </trkpt>
      <trkpt lat="49.8654" lon="2.42754">
        <ele>64.4</ele>
        <time>2022-01-05T14:59:58Z</time>
      </trkpt>
      <trkpt lat="49.86539" lon="2.42752">
        <ele>64.4</ele>
        <time>2022-01-05T14:59:59Z</time>
      </trkpt>
      <trkpt lat="49.86538" lon="2.42749">
        <ele>64.4</ele>
        <time>2022-01-05T15:00:00Z</time>
      </trkpt>
      <trkpt lat="49.86537" lon="2.42748">
        <ele>64.4</ele>
        <time>2022-01-05T15:00:01Z</time>
      </trkpt>
      <trkpt lat="49.86537" lon="2.42747">
        <ele>64.4</ele>
        <time>2022-01-05T15:00:02Z</time>
      </trkpt>
      <trkpt lat="49.86536" lon="2.42746">
        <ele>64.4</ele>
        <time>2022-01-05T15:00:03Z</time>
      </trkpt>
      <trkpt lat="49.86535" lon="2.42744">
        <ele>64.4</ele>
        <time>2022-01-05T15:00:04Z</time>
      </trkpt>
      <trkpt lat="49.86535" lon="2.42743">
        <ele>64.4</ele>
        <time>2022-01-05T15:00:05Z</time>
      </trkpt>
      <trkpt lat="49.86534" lon="2.42742">
        <ele>64.4</ele>
        <time>2022-01-05T15:00:06Z</time>
      </trkpt>
      <trkpt lat="49.86533" lon="2.4274">
        <ele>64.4</ele>
        <time>2022-01-05T15:00:08Z</time>
      </trkpt>
      <trkpt lat="49.86532" lon="2.42737">
        <ele>64.4</ele>
        <time>2022-01-05T15:00:10Z</time>
      </trkpt>
      <trkpt lat="49.86532" lon="2.42735">
        <ele>64.4</ele>
        <time>2022-01-05T15:00:11Z</time>
      </trkpt>
      <trkpt lat="49.86531" lon="2.42734">
        <ele>64.4</ele>
        <time>2022-01-05T15:00:12Z</time>
      </trkpt>
      <trkpt lat="49.8653" lon="2.4273">
        <ele>64.4</ele>
        <time>2022-01-05T15:00:14Z</time>
      </trkpt>
      <trkpt lat="49.8653" lon="2.42729">
        <ele>64.4</ele>
        <time>2022-01-05T15:00:15Z</time>
      </trkpt>
      <trkpt lat="49.86529" lon="2.42727">
        <ele>64.4</ele>
        <time>2022-01-05T15:00:16Z</time>
      </trkpt>
      <trkpt lat="49.86527" lon="2.42723">
        <ele>64.4</ele>
        <time>2022-01-05T15:00:18Z</time>
      </trkpt>
      <trkpt lat="49.86527" lon="2.42722">
        <ele>64.4</ele>
        <time>2022-01-05T15:00:19Z</time>
      </trkpt>
      <trkpt lat="49.86526" lon="2.4272">
        <ele>64.5</ele>
        <time>2022-01-05T15:00:20Z</time>
      </trkpt>
      <trkpt lat="49.86526" lon="2.42717">
        <ele>64.5</ele>
        <time>2022-01-05T15:00:22Z</time>
      </trkpt>
      <trkpt lat="49.86525" lon="2.42716">
        <ele>64.5</ele>
        <time>2022-01-05T15:00:23Z</time>
      </trkpt>
      <trkpt lat="49.86524" lon="2.42714">
        <ele>64.5</ele>
        <time>2022-01-05T15:00:24Z</time>
      </trkpt>
      <trkpt lat="49.86522" lon="2.42711">
        <ele>64.5</ele>
        <time>2022-01-05T15:00:25Z</time>
      </trkpt>
      <trkpt lat="49.86522" lon="2.4271">
        <ele>64.5</ele>
        <time>2022-01-05T15:00:27Z</time>
      </trkpt>
      <trkpt lat="49.86521" lon="2.42709">
        <ele>64.5</ele>
        <time>2022-01-05T15:00:28Z</time>
      </trkpt>
      <trkpt lat="49.8652" lon="2.42706">
        <ele>64.5</ele>
        <time>2022-01-05T15:00:29Z</time>
      </trkpt>
      <trkpt lat="49.86519" lon="2.42705">
        <ele>64.5</ele>
        <time>2022-01-05T15:00:30Z</time>
      </trkpt>
      <trkpt lat="49.86518" lon="2.42704">
        <ele>64.5</ele>
        <time>2022-01-05T15:00:31Z</time>
      </trkpt>
      <trkpt lat="49.86518" lon="2.42703">
        <ele>64.5</ele>
        <time>2022-01-05T15:00:32Z</time>
      </trkpt>
      <trkpt lat="49.86516" lon="2.427">
        <ele>64.5</ele>
        <time>2022-01-05T15:00:34Z</time>
      </trkpt>
      <trkpt lat="49.86516" lon="2.42698">
        <ele>64.6</ele>
        <time>2022-01-05T15:00:35Z</time>
      </trkpt>
      <trkpt lat="49.86515" lon="2.42697">
        <ele>64.6</ele>
        <time>2022-01-05T15:00:36Z</time>
      </trkpt>
      <trkpt lat="49.86514" lon="2.42694">
        <ele>64.6</ele>
        <time>2022-01-05T15:00:38Z</time>
      </trkpt>
      <trkpt lat="49.86513" lon="2.42692">
        <ele>64.6</ele>
        <time>2022-01-05T15:00:39Z</time>
      </trkpt>
      <trkpt lat="49.86513" lon="2.42689">
        <ele>64.6</ele>
        <time>2022-01-05T15:00:40Z</time>
      </trkpt>
      <trkpt lat="49.86512" lon="2.42688">
        <ele>64.6</ele>
        <time>2022-01-05T15:00:41Z</time>
      </trkpt>
      <trkpt lat="49.86512" lon="2.42686">
        <ele>64.6</ele>
        <time>2022-01-05T15:00:42Z</time>
      </trkpt>
      <trkpt lat="49.86511" lon="2.42685">
        <ele>64.6</ele>
        <time>2022-01-05T15:00:43Z</time>
      </trkpt>
      <trkpt lat="49.8651" lon="2.42682">
        <ele>64.7</ele>
        <time>2022-01-05T15:00:45Z</time>
      </trkpt>
      <trkpt lat="49.8651" lon="2.4268">
        <ele>64.7</ele>
        <time>2022-01-05T15:00:46Z</time>
      </trkpt>
      <trkpt lat="49.86509" lon="2.42679">
        <ele>64.7</ele>
        <time>2022-01-05T15:00:47Z</time>
      </trkpt>
      <trkpt lat="49.86509" lon="2.42677">
        <ele>64.7</ele>
        <time>2022-01-05T15:00:48Z</time>
      </trkpt>
      <trkpt lat="49.86508" lon="2.42675">
        <ele>64.8</ele>
        <time>2022-01-05T15:00:49Z</time>
      </trkpt>
      <trkpt lat="49.86507" lon="2.42673">
        <ele>64.8</ele>
        <time>2022-01-05T15:00:50Z</time>
      </trkpt>
      <trkpt lat="49.86507" lon="2.42671">
        <ele>64.8</ele>
        <time>2022-01-05T15:00:51Z</time>
      </trkpt>
      <trkpt lat="49.86506" lon="2.42669">
        <ele>64.8</ele>
        <time>2022-01-05T15:00:52Z</time>
      </trkpt>
      <trkpt lat="49.86505" lon="2.42667">
        <ele>64.9</ele>
        <time>2022-01-05T15:00:53Z</time>
      </trkpt>
      <trkpt lat="49.86505" lon="2.42665">
        <ele>64.9</ele>
        <time>2022-01-05T15:00:54Z</time>
      </trkpt>
      <trkpt lat="49.86504" lon="2.42663">
        <ele>65</ele>
        <time>2022-01-05T15:00:55Z</time>
      </trkpt>
      <trkpt lat="49.86503" lon="2.42662">
        <ele>65</ele>
        <time>2022-01-05T15:00:56Z</time>
      </trkpt>
      <trkpt lat="49.86502" lon="2.4266">
        <ele>65</ele>
        <time>2022-01-05T15:00:57Z</time>
      </trkpt>
      <trkpt lat="49.86501" lon="2.42659">
        <ele>65</ele>
        <time>2022-01-05T15:00:59Z</time>
      </trkpt>
      <trkpt lat="49.865" lon="2.42658">
        <ele>65.1</ele>
        <time>2022-01-05T15:01:00Z</time>
      </trkpt>
      <trkpt lat="49.86499" lon="2.42656">
        <ele>65.1</ele>
        <time>2022-01-05T15:01:01Z</time>
      </trkpt>
      <trkpt lat="49.86498" lon="2.42654">
        <ele>65.1</ele>
        <time>2022-01-05T15:01:02Z</time>
      </trkpt>
      <trkpt lat="49.86497" lon="2.42652">
        <ele>65.2</ele>
        <time>2022-01-05T15:01:03Z</time>
      </trkpt>
      <trkpt lat="49.86496" lon="2.42651">
        <ele>65.2</ele>
        <time>2022-01-05T15:01:05Z</time>
      </trkpt>
      <trkpt lat="49.86496" lon="2.42649">
        <ele>65.2</ele>
        <time>2022-01-05T15:01:06Z</time>
      </trkpt>
      <trkpt lat="49.86494" lon="2.42646">
        <ele>65.3</ele>
        <time>2022-01-05T15:01:07Z</time>
      </trkpt>
      <trkpt lat="49.86494" lon="2.42645">
        <ele>65.3</ele>
        <time>2022-01-05T15:01:08Z</time>
      </trkpt>
      <trkpt lat="49.86493" lon="2.42644">
        <ele>65.3</ele>
        <time>2022-01-05T15:01:09Z</time>
      </trkpt>
      <trkpt lat="49.86492" lon="2.42642">
        <ele>65.4</ele>
        <time>2022-01-05T15:01:10Z</time>
      </trkpt>
      <trkpt lat="49.86491" lon="2.42641">
        <ele>65.4</ele>
        <time>2022-01-05T15:01:11Z</time>
      </trkpt>
      <trkpt lat="49.86491" lon="2.42639">
        <ele>65.4</ele>
        <time>2022-01-05T15:01:12Z</time>
      </trkpt>
      <trkpt lat="49.8649" lon="2.42638">
        <ele>65.5</ele>
        <time>2022-01-05T15:01:13Z</time>
      </trkpt>
      <trkpt lat="49.86489" lon="2.42637">
        <ele>65.5</ele>
        <time>2022-01-05T15:01:14Z</time>
      </trkpt>
      <trkpt lat="49.86488" lon="2.42635">
        <ele>65.5</ele>
        <time>2022-01-05T15:01:15Z</time>
      </trkpt>
      <trkpt lat="49.86487" lon="2.42634">
        <ele>65.6</ele>
        <time>2022-01-05T15:01:16Z</time>
      </trkpt>
      <trkpt lat="49.86486" lon="2.42632">
        <ele>65.6</ele>
        <time>2022-01-05T15:01:18Z</time>
      </trkpt>
      <trkpt lat="49.86484" lon="2.4263">
        <ele>65.7</ele>
        <time>2022-01-05T15:01:20Z</time>
      </trkpt>
      <trkpt lat="49.86483" lon="2.42628">
        <ele>65.7</ele>
        <time>2022-01-05T15:01:21Z</time>
      </trkpt>
      <trkpt lat="49.86482" lon="2.42626">
        <ele>65.7</ele>
        <time>2022-01-05T15:01:22Z</time>
      </trkpt>
      <trkpt lat="49.86481" lon="2.42624">
        <ele>65.8</ele>
        <time>2022-01-05T15:01:23Z</time>
      </trkpt>
      <trkpt lat="49.8648" lon="2.42623">
        <ele>65.8</ele>
        <time>2022-01-05T15:01:25Z</time>
      </trkpt>
      <trkpt lat="49.86479" lon="2.42621">
        <ele>65.9</ele>
        <time>2022-01-05T15:01:26Z</time>
      </trkpt>
      <trkpt lat="49.86478" lon="2.42619">
        <ele>65.9</ele>
        <time>2022-01-05T15:01:27Z</time>
      </trkpt>
      <trkpt lat="49.86477" lon="2.42618">
        <ele>66</ele>
        <time>2022-01-05T15:01:28Z</time>
      </trkpt>
      <trkpt lat="49.86476" lon="2.42616">
        <ele>66</ele>
        <time>2022-01-05T15:01:29Z</time>
      </trkpt>
      <trkpt lat="49.86475" lon="2.42615">
        <ele>66.1</ele>
        <time>2022-01-05T15:01:30Z</time>
      </trkpt>
      <trkpt lat="49.86474" lon="2.42613">
        <ele>66.1</ele>
        <time>2022-01-05T15:01:31Z</time>
      </trkpt>
      <trkpt lat="49.86473" lon="2.42611">
        <ele>66.2</ele>
        <time>2022-01-05T15:01:32Z</time>
      </trkpt>
      <trkpt lat="49.86472" lon="2.42609">
        <ele>66.2</ele>
        <time>2022-01-05T15:01:33Z</time>
      </trkpt>
      <trkpt lat="49.86472" lon="2.42608">
        <ele>66.3</ele>
        <time>2022-01-05T15:01:34Z</time>
      </trkpt>
      <trkpt lat="49.86471" lon="2.42607">
        <ele>66.3</ele>
        <time>2022-01-05T15:01:35Z</time>
      </trkpt>
      <trkpt lat="49.86469" lon="2.42604">
        <ele>66.4</ele>
        <time>2022-01-05T15:01:36Z</time>
      </trkpt>
      <trkpt lat="49.86469" lon="2.42602">
        <ele>66.4</ele>
        <time>2022-01-05T15:01:38Z</time>
      </trkpt>
      <trkpt lat="49.86468" lon="2.42601">
        <ele>66.5</ele>
        <time>2022-01-05T15:01:39Z</time>
      </trkpt>
      <trkpt lat="49.86467" lon="2.426">
        <ele>66.5</ele>
        <time>2022-01-05T15:01:40Z</time>
      </trkpt>
      <trkpt lat="49.86467" lon="2.42599">
        <ele>66.6</ele>
        <time>2022-01-05T15:01:41Z</time>
      </trkpt>
      <trkpt lat="49.86465" lon="2.42595">
        <ele>66.7</ele>
        <time>2022-01-05T15:01:42Z</time>
      </trkpt>
      <trkpt lat="49.86464" lon="2.42594">
        <ele>66.7</ele>
        <time>2022-01-05T15:01:44Z</time>
      </trkpt>
      <trkpt lat="49.86463" lon="2.42592">
        <ele>66.8</ele>
        <time>2022-01-05T15:01:45Z</time>
      </trkpt>
      <trkpt lat="49.86462" lon="2.42591">
        <ele>66.8</ele>
        <time>2022-01-05T15:01:46Z</time>
      </trkpt>
      <trkpt lat="49.86461" lon="2.4259">
        <ele>66.9</ele>
        <time>2022-01-05T15:01:47Z</time>
      </trkpt>
      <trkpt lat="49.8646" lon="2.42588">
        <ele>66.9</ele>
        <time>2022-01-05T15:01:48Z</time>
      </trkpt>
      <trkpt lat="49.86459" lon="2.42587">
        <ele>67</ele>
        <time>2022-01-05T15:01:49Z</time>
      </trkpt>
      <trkpt lat="49.86458" lon="2.42585">
        <ele>67.1</ele>
        <time>2022-01-05T15:01:51Z</time>
      </trkpt>
      <trkpt lat="49.86457" lon="2.42583">
        <ele>67.1</ele>
        <time>2022-01-05T15:01:52Z</time>
      </trkpt>
      <trkpt lat="49.86456" lon="2.42582">
        <ele>67.2</ele>
        <time>2022-01-05T15:01:53Z</time>
      </trkpt>
      <trkpt lat="49.86455" lon="2.42581">
        <ele>67.2</ele>
        <time>2022-01-05T15:01:54Z</time>
      </trkpt>
      <trkpt lat="49.86454" lon="2.42579">
        <ele>67.3</ele>
        <time>2022-01-05T15:01:55Z</time>
      </trkpt>
      <trkpt lat="49.86453" lon="2.42578">
        <ele>67.4</ele>
        <time>2022-01-05T15:01:56Z</time>
      </trkpt>
      <trkpt lat="49.86451" lon="2.42575">
        <ele>67.5</ele>
        <time>2022-01-05T15:01:57Z</time>
      </trkpt>
      <trkpt lat="49.86451" lon="2.42575">
        <ele>67.5</ele>
        <time>2022-01-05T15:01:58Z</time>
      </trkpt>
      <trkpt lat="49.8645" lon="2.42574">
        <ele>67.5</ele>
        <time>2022-01-05T15:01:59Z</time>
      </trkpt>
      <trkpt lat="49.86449" lon="2.42571">
        <ele>67.6</ele>
        <time>2022-01-05T15:02:00Z</time>
      </trkpt>
      <trkpt lat="49.86448" lon="2.4257">
        <ele>67.7</ele>
        <time>2022-01-05T15:02:02Z</time>
      </trkpt>
      <trkpt lat="49.86448" lon="2.42569">
        <ele>67.7</ele>
        <time>2022-01-05T15:02:03Z</time>
      </trkpt>
      <trkpt lat="49.86446" lon="2.42566">
        <ele>67.8</ele>
        <time>2022-01-05T15:02:04Z</time>
      </trkpt>
      <trkpt lat="49.86446" lon="2.42565">
        <ele>67.9</ele>
        <time>2022-01-05T15:02:05Z</time>
      </trkpt>
      <trkpt lat="49.86445" lon="2.42564">
        <ele>67.9</ele>
        <time>2022-01-05T15:02:06Z</time>
      </trkpt>
      <trkpt lat="49.86444" lon="2.42563">
        <ele>68</ele>
        <time>2022-01-05T15:02:07Z</time>
      </trkpt>
      <trkpt lat="49.86444" lon="2.42561">
        <ele>68</ele>
        <time>2022-01-05T15:02:08Z</time>
      </trkpt>
      <trkpt lat="49.86443" lon="2.4256">
        <ele>68.1</ele>
        <time>2022-01-05T15:02:09Z</time>
      </trkpt>
      <trkpt lat="49.86441" lon="2.42558">
        <ele>68.2</ele>
        <time>2022-01-05T15:02:10Z</time>
      </trkpt>
      <trkpt lat="49.86441" lon="2.42557">
        <ele>68.2</ele>
        <time>2022-01-05T15:02:12Z</time>
      </trkpt>
      <trkpt lat="49.8644" lon="2.42556">
        <ele>68.3</ele>
        <time>2022-01-05T15:02:13Z</time>
      </trkpt>
      <trkpt lat="49.86439" lon="2.42553">
        <ele>68.4</ele>
        <time>2022-01-05T15:02:14Z</time>
      </trkpt>
      <trkpt lat="49.86438" lon="2.42552">
        <ele>68.4</ele>
        <time>2022-01-05T15:02:15Z</time>
      </trkpt>
      <trkpt lat="49.86438" lon="2.42551">
        <ele>68.5</ele>
        <time>2022-01-05T15:02:16Z</time>
      </trkpt>
      <trkpt lat="49.86437" lon="2.42548">
        <ele>68.6</ele>
        <time>2022-01-05T15:02:17Z</time>
      </trkpt>
      <trkpt lat="49.86436" lon="2.42547">
        <ele>68.6</ele>
        <time>2022-01-05T15:02:18Z</time>
      </trkpt>
      <trkpt lat="49.86436" lon="2.42546">
        <ele>68.7</ele>
        <time>2022-01-05T15:02:19Z</time>
      </trkpt>
      <trkpt lat="49.86435" lon="2.42544">
        <ele>68.7</ele>
        <time>2022-01-05T15:02:20Z</time>
      </trkpt>
      <trkpt lat="49.86434" lon="2.42542">
        <ele>68.8</ele>
        <time>2022-01-05T15:02:22Z</time>
      </trkpt>
      <trkpt lat="49.86434" lon="2.4254">
        <ele>68.9</ele>
        <time>2022-01-05T15:02:23Z</time>
      </trkpt>
      <trkpt lat="49.86433" lon="2.42538">
        <ele>69</ele>
        <time>2022-01-05T15:02:24Z</time>
      </trkpt>
      <trkpt lat="49.86432" lon="2.42536">
        <ele>69.1</ele>
        <time>2022-01-05T15:02:25Z</time>
      </trkpt>
      <trkpt lat="49.86431" lon="2.42534">
        <ele>69.1</ele>
        <time>2022-01-05T15:02:27Z</time>
      </trkpt>
      <trkpt lat="49.86431" lon="2.42532">
        <ele>69.2</ele>
        <time>2022-01-05T15:02:28Z</time>
      </trkpt>
      <trkpt lat="49.8643" lon="2.4253">
        <ele>69.3</ele>
        <time>2022-01-05T15:02:29Z</time>
      </trkpt>
      <trkpt lat="49.8643" lon="2.42528">
        <ele>69.4</ele>
        <time>2022-01-05T15:02:30Z</time>
      </trkpt>
      <trkpt lat="49.86429" lon="2.42527">
        <ele>69.4</ele>
        <time>2022-01-05T15:02:32Z</time>
      </trkpt>
      <trkpt lat="49.86429" lon="2.42526">
        <ele>69.5</ele>
        <time>2022-01-05T15:02:33Z</time>
      </trkpt>
      <trkpt lat="49.86428" lon="2.42524">
        <ele>69.5</ele>
        <time>2022-01-05T15:02:34Z</time>
      </trkpt>
      <trkpt lat="49.86428" lon="2.42523">
        <ele>69.6</ele>
        <time>2022-01-05T15:02:35Z</time>
      </trkpt>
      <trkpt lat="49.86427" lon="2.42521">
        <ele>69.7</ele>
        <time>2022-01-05T15:02:36Z</time>
      </trkpt>
      <trkpt lat="49.86427" lon="2.4252">
        <ele>69.7</ele>
        <time>2022-01-05T15:02:37Z</time>
      </trkpt>
      <trkpt lat="49.86426" lon="2.42518">
        <ele>69.8</ele>
        <time>2022-01-05T15:02:38Z</time>
      </trkpt>
      <trkpt lat="49.86426" lon="2.42517">
        <ele>69.8</ele>
        <time>2022-01-05T15:02:39Z</time>
      </trkpt>
      <trkpt lat="49.86425" lon="2.42515">
        <ele>69.9</ele>
        <time>2022-01-05T15:02:40Z</time>
      </trkpt>
      <trkpt lat="49.86425" lon="2.42513">
        <ele>70</ele>
        <time>2022-01-05T15:02:41Z</time>
      </trkpt>
      <trkpt lat="49.86424" lon="2.42511">
        <ele>70</ele>
        <time>2022-01-05T15:02:43Z</time>
      </trkpt>
      <trkpt lat="49.86423" lon="2.42509">
        <ele>70.1</ele>
        <time>2022-01-05T15:02:44Z</time>
      </trkpt>
      <trkpt lat="49.86422" lon="2.42508">
        <ele>70.2</ele>
        <time>2022-01-05T15:02:45Z</time>
      </trkpt>
      <trkpt lat="49.86422" lon="2.42506">
        <ele>70.2</ele>
        <time>2022-01-05T15:02:46Z</time>
      </trkpt>
      <trkpt lat="49.86421" lon="2.42505">
        <ele>70.3</ele>
        <time>2022-01-05T15:02:47Z</time>
      </trkpt>
      <trkpt lat="49.8642" lon="2.42503">
        <ele>70.3</ele>
        <time>2022-01-05T15:02:48Z</time>
      </trkpt>
      <trkpt lat="49.86419" lon="2.425">
        <ele>70.4</ele>
        <time>2022-01-05T15:02:49Z</time>
      </trkpt>
      <trkpt lat="49.86419" lon="2.42499">
        <ele>70.5</ele>
        <time>2022-01-05T15:02:51Z</time>
      </trkpt>
      <trkpt lat="49.86418" lon="2.42498">
        <ele>70.5</ele>
        <time>2022-01-05T15:02:52Z</time>
      </trkpt>
      <trkpt lat="49.86417" lon="2.42495">
        <ele>70.6</ele>
        <time>2022-01-05T15:02:53Z</time>
      </trkpt>
      <trkpt lat="49.86416" lon="2.42494">
        <ele>70.6</ele>
        <time>2022-01-05T15:02:54Z</time>
      </trkpt>
      <trkpt lat="49.86416" lon="2.42493">
        <ele>70.7</ele>
        <time>2022-01-05T15:02:55Z</time>
      </trkpt>
      <trkpt lat="49.86415" lon="2.42491">
        <ele>70.7</ele>
        <time>2022-01-05T15:02:56Z</time>
      </trkpt>
      <trkpt lat="49.86415" lon="2.42489">
        <ele>70.8</ele>
        <time>2022-01-05T15:02:57Z</time>
      </trkpt>
      <trkpt lat="49.86414" lon="2.42488">
        <ele>70.8</ele>
        <time>2022-01-05T15:02:59Z</time>
      </trkpt>
      <trkpt lat="49.86414" lon="2.42486">
        <ele>70.9</ele>
        <time>2022-01-05T15:03:00Z</time>
      </trkpt>
      <trkpt lat="49.86414" lon="2.42485">
        <ele>70.9</ele>
        <time>2022-01-05T15:03:01Z</time>
      </trkpt>
      <trkpt lat="49.86413" lon="2.42482">
        <ele>71</ele>
        <time>2022-01-05T15:03:03Z</time>
      </trkpt>
      <trkpt lat="49.86412" lon="2.4248">
        <ele>71</ele>
        <time>2022-01-05T15:03:04Z</time>
      </trkpt>
      <trkpt lat="49.86412" lon="2.42478">
        <ele>71.1</ele>
        <time>2022-01-05T15:03:05Z</time>
      </trkpt>
      <trkpt lat="49.86412" lon="2.42477">
        <ele>71.1</ele>
        <time>2022-01-05T15:03:06Z</time>
      </trkpt>
      <trkpt lat="49.86412" lon="2.42475">
        <ele>71.2</ele>
        <time>2022-01-05T15:03:07Z</time>
      </trkpt>
      <trkpt lat="49.86412" lon="2.42473">
        <ele>71.3</ele>
        <time>2022-01-05T15:03:08Z</time>
      </trkpt>
      <trkpt lat="49.86411" lon="2.42471">
        <ele>71.3</ele>
        <time>2022-01-05T15:03:09Z</time>
      </trkpt>
      <trkpt lat="49.86411" lon="2.4247">
        <ele>71.4</ele>
        <time>2022-01-05T15:03:11Z</time>
      </trkpt>
      <trkpt lat="49.86411" lon="2.42467">
        <ele>71.4</ele>
        <time>2022-01-05T15:03:12Z</time>
      </trkpt>
      <trkpt lat="49.86411" lon="2.42466">
        <ele>71.5</ele>
        <time>2022-01-05T15:03:14Z</time>
      </trkpt>
      <trkpt lat="49.86411" lon="2.42464">
        <ele>71.5</ele>
        <time>2022-01-05T15:03:15Z</time>
      </trkpt>
      <trkpt lat="49.86411" lon="2.42463">
        <ele>71.6</ele>
        <time>2022-01-05T15:03:16Z</time>
      </trkpt>
      <trkpt lat="49.8641" lon="2.42461">
        <ele>71.6</ele>
        <time>2022-01-05T15:03:17Z</time>
      </trkpt>
      <trkpt lat="49.8641" lon="2.4246">
        <ele>71.7</ele>
        <time>2022-01-05T15:03:19Z</time>
      </trkpt>
      <trkpt lat="49.8641" lon="2.42458">
        <ele>71.7</ele>
        <time>2022-01-05T15:03:20Z</time>
      </trkpt>
      <trkpt lat="49.8641" lon="2.42457">
        <ele>71.8</ele>
        <time>2022-01-05T15:03:21Z</time>
      </trkpt>
      <trkpt lat="49.8641" lon="2.42456">
        <ele>71.8</ele>
        <time>2022-01-05T15:03:23Z</time>
      </trkpt>
      <trkpt lat="49.8641" lon="2.42453">
        <ele>71.9</ele>
        <time>2022-01-05T15:03:25Z</time>
      </trkpt>
      <trkpt lat="49.8641" lon="2.42451">
        <ele>71.9</ele>
        <time>2022-01-05T15:03:27Z</time>
      </trkpt>
      <trkpt lat="49.86411" lon="2.42451">
        <ele>72</ele>
        <time>2022-01-05T15:03:28Z</time>
      </trkpt>
      <trkpt lat="49.86412" lon="2.4245">
        <ele>72</ele>
        <time>2022-01-05T15:03:30Z</time>
      </trkpt>
      <trkpt lat="49.86412" lon="2.4245">
        <ele>72</ele>
        <time>2022-01-05T15:03:31Z</time>
      </trkpt>
      <trkpt lat="49.86412" lon="2.42451">
        <ele>72.1</ele>
        <time>2022-01-05T15:03:33Z</time>
      </trkpt>
      <trkpt lat="49.86413" lon="2.42451">
        <ele>72.1</ele>
        <time>2022-01-05T15:03:35Z</time>
      </trkpt>
      <trkpt lat="49.86413" lon="2.42451">
        <ele>72.1</ele>
        <time>2022-01-05T15:03:36Z</time>
      </trkpt>
      <trkpt lat="49.86413" lon="2.42451">
        <ele>72.1</ele>
        <time>2022-01-05T15:03:37Z</time>
      </trkpt>
      <trkpt lat="49.86413" lon="2.42452">
        <ele>72.1</ele>
        <time>2022-01-05T15:03:39Z</time>
      </trkpt>
      <trkpt lat="49.86414" lon="2.42451">
        <ele>72.1</ele>
        <time>2022-01-05T15:03:41Z</time>
      </trkpt>
      <trkpt lat="49.86414" lon="2.42451">
        <ele>72.1</ele>
        <time>2022-01-05T15:03:42Z</time>
      </trkpt>
      <trkpt lat="49.86414" lon="2.42451">
        <ele>72.2</ele>
        <time>2022-01-05T15:03:43Z</time>
      </trkpt>
      <trkpt lat="49.86414" lon="2.4245">
        <ele>72.2</ele>
        <time>2022-01-05T15:03:45Z</time>
      </trkpt>
      <trkpt lat="49.86415" lon="2.42449">
        <ele>72.2</ele>
        <time>2022-01-05T15:03:46Z</time>
      </trkpt>
      <trkpt lat="49.86415" lon="2.42448">
        <ele>72.2</ele>
        <time>2022-01-05T15:03:47Z</time>
      </trkpt>
      <trkpt lat="49.86416" lon="2.42446">
        <ele>72.3</ele>
        <time>2022-01-05T15:03:48Z</time>
      </trkpt>
      <trkpt lat="49.86416" lon="2.42445">
        <ele>72.4</ele>
        <time>2022-01-05T15:03:50Z</time>
      </trkpt>
      <trkpt lat="49.86416" lon="2.42443">
        <ele>72.4</ele>
        <time>2022-01-05T15:03:51Z</time>
      </trkpt>
      <trkpt lat="49.86417" lon="2.42443">
        <ele>72.4</ele>
        <time>2022-01-05T15:03:53Z</time>
      </trkpt>
      <trkpt lat="49.86418" lon="2.42442">
        <ele>72.5</ele>
        <time>2022-01-05T15:03:54Z</time>
      </trkpt>
      <trkpt lat="49.86418" lon="2.4244">
        <ele>72.5</ele>
        <time>2022-01-05T15:03:55Z</time>
      </trkpt>
      <trkpt lat="49.86419" lon="2.42438">
        <ele>72.3</ele>
        <time>2022-01-05T15:03:57Z</time>
      </trkpt>
      <trkpt lat="49.86419" lon="2.42437">
        <ele>72.2</ele>
        <time>2022-01-05T15:03:58Z</time>
      </trkpt>
      <trkpt lat="49.8642" lon="2.42436">
        <ele>72.2</ele>
        <time>2022-01-05T15:03:59Z</time>
      </trkpt>
      <trkpt lat="49.8642" lon="2.42436">
        <ele>72.2</ele>
        <time>2022-01-05T15:04:00Z</time>
      </trkpt>
      <trkpt lat="49.86421" lon="2.42436">
        <ele>72.1</ele>
        <time>2022-01-05T15:04:02Z</time>
      </trkpt>
      <trkpt lat="49.86421" lon="2.42436">
        <ele>72.1</ele>
        <time>2022-01-05T15:04:04Z</time>
      </trkpt>
      <trkpt lat="49.86421" lon="2.42437">
        <ele>72.1</ele>
        <time>2022-01-05T15:04:06Z</time>
      </trkpt>
      <trkpt lat="49.86421" lon="2.42436">
        <ele>72.1</ele>
        <time>2022-01-05T15:04:08Z</time>
      </trkpt>
      <trkpt lat="49.86421" lon="2.42436">
        <ele>72.1</ele>
        <time>2022-01-05T15:04:10Z</time>
      </trkpt>
      <trkpt lat="49.86421" lon="2.42436">
        <ele>72.1</ele>
        <time>2022-01-05T15:04:12Z</time>
      </trkpt>
      <trkpt lat="49.86421" lon="2.42436">
        <ele>72.1</ele>
        <time>2022-01-05T15:04:14Z</time>
      </trkpt>
      <trkpt lat="49.86421" lon="2.42436">
        <ele>72.1</ele>
        <time>2022-01-05T15:04:15Z</time>
      </trkpt>
      <trkpt lat="49.86421" lon="2.42437">
        <ele>72.1</ele>
        <time>2022-01-05T15:04:17Z</time>
      </trkpt>
      <trkpt lat="49.8642" lon="2.42437">
        <ele>72</ele>
        <time>2022-01-05T15:04:19Z</time>
      </trkpt>
      <trkpt lat="49.8642" lon="2.42437">
        <ele>72</ele>
        <time>2022-01-05T15:04:20Z</time>
      </trkpt>
      <trkpt lat="49.8642" lon="2.42437">
        <ele>72</ele>
        <time>2022-01-05T15:04:21Z</time>
      </trkpt>
      <trkpt lat="49.8642" lon="2.42437">
        <ele>72</ele>
        <time>2022-01-05T15:04:23Z</time>
      </trkpt>
      <trkpt lat="49.8642" lon="2.42437">
        <ele>72</ele>
        <time>2022-01-05T15:04:24Z</time>
      </trkpt>
      <trkpt lat="49.8642" lon="2.42437">
        <ele>72</ele>
        <time>2022-01-05T15:04:25Z</time>
      </trkpt>
      <trkpt lat="49.8642" lon="2.42437">
        <ele>72</ele>
        <time>2022-01-05T15:04:27Z</time>
      </trkpt>
      <trkpt lat="49.8642" lon="2.42437">
        <ele>72</ele>
        <time>2022-01-05T15:04:29Z</time>
      </trkpt>
      <trkpt lat="49.8642" lon="2.42437">
        <ele>72</ele>
        <time>2022-01-05T15:04:30Z</time>
      </trkpt>
      <trkpt lat="49.8642" lon="2.42437">
        <ele>72</ele>
        <time>2022-01-05T15:04:31Z</time>
      </trkpt>
      <trkpt lat="49.8642" lon="2.42437">
        <ele>72</ele>
        <time>2022-01-05T15:04:33Z</time>
      </trkpt>
      <trkpt lat="49.8642" lon="2.42437">
        <ele>72</ele>
        <time>2022-01-05T15:04:34Z</time>
      </trkpt>
      <trkpt lat="49.8642" lon="2.42437">
        <ele>72</ele>
        <time>2022-01-05T15:04:35Z</time>
      </trkpt>
      <trkpt lat="49.8642" lon="2.42437">
        <ele>72</ele>
        <time>2022-01-05T15:04:37Z</time>
      </trkpt>
      <trkpt lat="49.8642" lon="2.42437">
        <ele>72</ele>
        <time>2022-01-05T15:04:39Z</time>
      </trkpt>
      <trkpt lat="49.86421" lon="2.42437">
        <ele>72</ele>
        <time>2022-01-05T15:04:40Z</time>
      </trkpt>
      <trkpt lat="49.86422" lon="2.42437">
        <ele>72</ele>
        <time>2022-01-05T15:04:42Z</time>
      </trkpt>
      <trkpt lat="49.86422" lon="2.42439">
        <ele>71.9</ele>
        <time>2022-01-05T15:04:44Z</time>
      </trkpt>
      <trkpt lat="49.86423" lon="2.4244">
        <ele>71.8</ele>
        <time>2022-01-05T15:04:46Z</time>
      </trkpt>
      <trkpt lat="49.86423" lon="2.42441">
        <ele>71.8</ele>
        <time>2022-01-05T15:04:47Z</time>
      </trkpt>
      <trkpt lat="49.86424" lon="2.42443">
        <ele>71.7</ele>
        <time>2022-01-05T15:04:48Z</time>
      </trkpt>
      <trkpt lat="49.86424" lon="2.42444">
        <ele>71.6</ele>
        <time>2022-01-05T15:04:49Z</time>
      </trkpt>
      <trkpt lat="49.86425" lon="2.42445">
        <ele>71.6</ele>
        <time>2022-01-05T15:04:50Z</time>
      </trkpt>
      <trkpt lat="49.86425" lon="2.42447">
        <ele>71.5</ele>
        <time>2022-01-05T15:04:51Z</time>
      </trkpt>
      <trkpt lat="49.86426" lon="2.42448">
        <ele>71.4</ele>
        <time>2022-01-05T15:04:52Z</time>
      </trkpt>
      <trkpt lat="49.86427" lon="2.42448">
        <ele>71.4</ele>
        <time>2022-01-05T15:04:54Z</time>
      </trkpt>
      <trkpt lat="49.86428" lon="2.42449">
        <ele>71.3</ele>
        <time>2022-01-05T15:04:56Z</time>
      </trkpt>
      <trkpt lat="49.86429" lon="2.42449">
        <ele>71.2</ele>
        <time>2022-01-05T15:04:57Z</time>
      </trkpt>
      <trkpt lat="49.8643" lon="2.4245">
        <ele>71.1</ele>
        <time>2022-01-05T15:04:58Z</time>
      </trkpt>
      <trkpt lat="49.86431" lon="2.42451">
        <ele>71.1</ele>
        <time>2022-01-05T15:04:59Z</time>
      </trkpt>
      <trkpt lat="49.86432" lon="2.42451">
        <ele>71</ele>
        <time>2022-01-05T15:05:00Z</time>
      </trkpt>
      <trkpt lat="49.86433" lon="2.42451">
        <ele>70.9</ele>
        <time>2022-01-05T15:05:01Z</time>
      </trkpt>
      <trkpt lat="49.86435" lon="2.42451">
        <ele>70.9</ele>
        <time>2022-01-05T15:05:02Z</time>
      </trkpt>
      <trkpt lat="49.86436" lon="2.42451">
        <ele>70.8</ele>
        <time>2022-01-05T15:05:03Z</time>
      </trkpt>
      <trkpt lat="49.86437" lon="2.42451">
        <ele>70.7</ele>
        <time>2022-01-05T15:05:05Z</time>
      </trkpt>
      <trkpt lat="49.86438" lon="2.42451">
        <ele>70.6</ele>
        <time>2022-01-05T15:05:06Z</time>
      </trkpt>
      <trkpt lat="49.8644" lon="2.42451">
        <ele>70.5</ele>
        <time>2022-01-05T15:05:08Z</time>
      </trkpt>
      <trkpt lat="49.86443" lon="2.42451">
        <ele>70.3</ele>
        <time>2022-01-05T15:05:10Z</time>
      </trkpt>
      <trkpt lat="49.86444" lon="2.42451">
        <ele>70.2</ele>
        <time>2022-01-05T15:05:11Z</time>
      </trkpt>
      <trkpt lat="49.86445" lon="2.42451">
        <ele>70.2</ele>
        <time>2022-01-05T15:05:12Z</time>
      </trkpt>
      <trkpt lat="49.86448" lon="2.42451">
        <ele>70</ele>
        <time>2022-01-05T15:05:14Z</time>
      </trkpt>
      <trkpt lat="49.86449" lon="2.42451">
        <ele>69.9</ele>
        <time>2022-01-05T15:05:15Z</time>
      </trkpt>
      <trkpt lat="49.86451" lon="2.42451">
        <ele>69.8</ele>
        <time>2022-01-05T15:05:16Z</time>
      </trkpt>
      <trkpt lat="49.86452" lon="2.4245">
        <ele>69.7</ele>
        <time>2022-01-05T15:05:18Z</time>
      </trkpt>
      <trkpt lat="49.86454" lon="2.4245">
        <ele>69.6</ele>
        <time>2022-01-05T15:05:19Z</time>
      </trkpt>
      <trkpt lat="49.86455" lon="2.4245">
        <ele>69.6</ele>
        <time>2022-01-05T15:05:20Z</time>
      </trkpt>
      <trkpt lat="49.86457" lon="2.4245">
        <ele>69.5</ele>
        <time>2022-01-05T15:05:21Z</time>
      </trkpt>
      <trkpt lat="49.86459" lon="2.4245">
        <ele>69.3</ele>
        <time>2022-01-05T15:05:22Z</time>
      </trkpt>
      <trkpt lat="49.86461" lon="2.4245">
        <ele>69.2</ele>
        <time>2022-01-05T15:05:24Z</time>
      </trkpt>
      <trkpt lat="49.86462" lon="2.4245">
        <ele>69.1</ele>
        <time>2022-01-05T15:05:25Z</time>
      </trkpt>
      <trkpt lat="49.86464" lon="2.4245">
        <ele>69.1</ele>
        <time>2022-01-05T15:05:26Z</time>
      </trkpt>
      <trkpt lat="49.86465" lon="2.4245">
        <ele>69</ele>
        <time>2022-01-05T15:05:27Z</time>
      </trkpt>
      <trkpt lat="49.86466" lon="2.4245">
        <ele>68.9</ele>
        <time>2022-01-05T15:05:28Z</time>
      </trkpt>
      <trkpt lat="49.86468" lon="2.4245">
        <ele>68.8</ele>
        <time>2022-01-05T15:05:30Z</time>
      </trkpt>
      <trkpt lat="49.8647" lon="2.42451">
        <ele>68.7</ele>
        <time>2022-01-05T15:05:31Z</time>
      </trkpt>
      <trkpt lat="49.86472" lon="2.42451">
        <ele>68.6</ele>
        <time>2022-01-05T15:05:33Z</time>
      </trkpt>
      <trkpt lat="49.86474" lon="2.42451">
        <ele>68.5</ele>
        <time>2022-01-05T15:05:34Z</time>
      </trkpt>
      <trkpt lat="49.86477" lon="2.42451">
        <ele>68.3</ele>
        <time>2022-01-05T15:05:36Z</time>
      </trkpt>
      <trkpt lat="49.86478" lon="2.42451">
        <ele>68.2</ele>
        <time>2022-01-05T15:05:38Z</time>
      </trkpt>
      <trkpt lat="49.8648" lon="2.42451">
        <ele>68.1</ele>
        <time>2022-01-05T15:05:39Z</time>
      </trkpt>
      <trkpt lat="49.86482" lon="2.42451">
        <ele>68</ele>
        <time>2022-01-05T15:05:40Z</time>
      </trkpt>
      <trkpt lat="49.86484" lon="2.42451">
        <ele>67.9</ele>
        <time>2022-01-05T15:05:42Z</time>
      </trkpt>
      <trkpt lat="49.86486" lon="2.42451">
        <ele>67.7</ele>
        <time>2022-01-05T15:05:43Z</time>
      </trkpt>
      <trkpt lat="49.86488" lon="2.42451">
        <ele>67.6</ele>
        <time>2022-01-05T15:05:45Z</time>
      </trkpt>
      <trkpt lat="49.86489" lon="2.42451">
        <ele>67.5</ele>
        <time>2022-01-05T15:05:46Z</time>
      </trkpt>
      <trkpt lat="49.86492" lon="2.42451">
        <ele>67.4</ele>
        <time>2022-01-05T15:05:48Z</time>
      </trkpt>
      <trkpt lat="49.86493" lon="2.4245">
        <ele>67.3</ele>
        <time>2022-01-05T15:05:49Z</time>
      </trkpt>
      <trkpt lat="49.86495" lon="2.4245">
        <ele>67.2</ele>
        <time>2022-01-05T15:05:50Z</time>
      </trkpt>
      <trkpt lat="49.86498" lon="2.4245">
        <ele>67.1</ele>
        <time>2022-01-05T15:05:52Z</time>
      </trkpt>
      <trkpt lat="49.865" lon="2.4245">
        <ele>66.9</ele>
        <time>2022-01-05T15:05:54Z</time>
      </trkpt>
      <trkpt lat="49.86502" lon="2.42451">
        <ele>66.8</ele>
        <time>2022-01-05T15:05:55Z</time>
      </trkpt>
      <trkpt lat="49.86504" lon="2.42451">
        <ele>66.7</ele>
        <time>2022-01-05T15:05:57Z</time>
      </trkpt>
      <trkpt lat="49.86506" lon="2.42452">
        <ele>66.6</ele>
        <time>2022-01-05T15:05:58Z</time>
      </trkpt>
      <trkpt lat="49.86508" lon="2.42452">
        <ele>66.5</ele>
        <time>2022-01-05T15:06:00Z</time>
      </trkpt>
      <trkpt lat="49.86509" lon="2.42453">
        <ele>66.4</ele>
        <time>2022-01-05T15:06:01Z</time>
      </trkpt>
      <trkpt lat="49.8651" lon="2.42453">
        <ele>66.4</ele>
        <time>2022-01-05T15:06:02Z</time>
      </trkpt>
      <trkpt lat="49.86513" lon="2.42453">
        <ele>66.2</ele>
        <time>2022-01-05T15:06:04Z</time>
      </trkpt>
      <trkpt lat="49.86515" lon="2.42454">
        <ele>66.1</ele>
        <time>2022-01-05T15:06:05Z</time>
      </trkpt>
      <trkpt lat="49.86517" lon="2.42454">
        <ele>66</ele>
        <time>2022-01-05T15:06:07Z</time>
      </trkpt>
      <trkpt lat="49.86519" lon="2.42455">
        <ele>65.9</ele>
        <time>2022-01-05T15:06:08Z</time>
      </trkpt>
      <trkpt lat="49.8652" lon="2.42455">
        <ele>65.8</ele>
        <time>2022-01-05T15:06:09Z</time>
      </trkpt>
      <trkpt lat="49.86521" lon="2.42455">
        <ele>65.8</ele>
        <time>2022-01-05T15:06:10Z</time>
      </trkpt>
      <trkpt lat="49.86524" lon="2.42456">
        <ele>65.7</ele>
        <time>2022-01-05T15:06:12Z</time>
      </trkpt>
      <trkpt lat="49.86525" lon="2.42456">
        <ele>65.6</ele>
        <time>2022-01-05T15:06:13Z</time>
      </trkpt>
      <trkpt lat="49.86526" lon="2.42456">
        <ele>65.5</ele>
        <time>2022-01-05T15:06:14Z</time>
      </trkpt>
      <trkpt lat="49.86528" lon="2.42456">
        <ele>65.5</ele>
        <time>2022-01-05T15:06:16Z</time>
      </trkpt>
      <trkpt lat="49.86529" lon="2.42456">
        <ele>65.4</ele>
        <time>2022-01-05T15:06:17Z</time>
      </trkpt>
      <trkpt lat="49.86531" lon="2.42457">
        <ele>65.3</ele>
        <time>2022-01-05T15:06:18Z</time>
      </trkpt>
      <trkpt lat="49.86533" lon="2.42457">
        <ele>65.2</ele>
        <time>2022-01-05T15:06:20Z</time>
      </trkpt>
      <trkpt lat="49.86534" lon="2.42457">
        <ele>65.1</ele>
        <time>2022-01-05T15:06:21Z</time>
      </trkpt>
      <trkpt lat="49.86536" lon="2.42458">
        <ele>65</ele>
        <time>2022-01-05T15:06:22Z</time>
      </trkpt>
      <trkpt lat="49.86537" lon="2.42458">
        <ele>64.9</ele>
        <time>2022-01-05T15:06:23Z</time>
      </trkpt>
      <trkpt lat="49.86539" lon="2.42459">
        <ele>64.8</ele>
        <time>2022-01-05T15:06:24Z</time>
      </trkpt>
      <trkpt lat="49.8654" lon="2.42459">
        <ele>64.8</ele>
        <time>2022-01-05T15:06:25Z</time>
      </trkpt>
      <trkpt lat="49.86542" lon="2.42459">
        <ele>64.7</ele>
        <time>2022-01-05T15:06:26Z</time>
      </trkpt>
      <trkpt lat="49.86543" lon="2.42459">
        <ele>64.6</ele>
        <time>2022-01-05T15:06:27Z</time>
      </trkpt>
      <trkpt lat="49.86544" lon="2.42459">
        <ele>64.6</ele>
        <time>2022-01-05T15:06:28Z</time>
      </trkpt>
      <trkpt lat="49.86547" lon="2.42458">
        <ele>64.4</ele>
        <time>2022-01-05T15:06:30Z</time>
      </trkpt>
      <trkpt lat="49.86548" lon="2.42458">
        <ele>64.3</ele>
        <time>2022-01-05T15:06:31Z</time>
      </trkpt>
      <trkpt lat="49.86549" lon="2.42458">
        <ele>64.2</ele>
        <time>2022-01-05T15:06:32Z</time>
      </trkpt>
      <trkpt lat="49.86551" lon="2.42458">
        <ele>64.1</ele>
        <time>2022-01-05T15:06:33Z</time>
      </trkpt>
      <trkpt lat="49.86552" lon="2.42458">
        <ele>64.1</ele>
        <time>2022-01-05T15:06:34Z</time>
      </trkpt>
      <trkpt lat="49.86554" lon="2.42458">
        <ele>64</ele>
        <time>2022-01-05T15:06:35Z</time>
      </trkpt>
      <trkpt lat="49.86557" lon="2.42458">
        <ele>63.8</ele>
        <time>2022-01-05T15:06:37Z</time>
      </trkpt>
      <trkpt lat="49.86558" lon="2.42458">
        <ele>63.8</ele>
        <time>2022-01-05T15:06:38Z</time>
      </trkpt>
      <trkpt lat="49.8656" lon="2.42458">
        <ele>63.7</ele>
        <time>2022-01-05T15:06:40Z</time>
      </trkpt>
      <trkpt lat="49.86562" lon="2.42458">
        <ele>63.6</ele>
        <time>2022-01-05T15:06:42Z</time>
      </trkpt>
      <trkpt lat="49.86564" lon="2.42458">
        <ele>63.5</ele>
        <time>2022-01-05T15:06:43Z</time>
      </trkpt>
      <trkpt lat="49.86565" lon="2.42458">
        <ele>63.4</ele>
        <time>2022-01-05T15:06:44Z</time>
      </trkpt>
      <trkpt lat="49.86567" lon="2.42458">
        <ele>63.4</ele>
        <time>2022-01-05T15:06:45Z</time>
      </trkpt>
      <trkpt lat="49.86568" lon="2.42458">
        <ele>63.3</ele>
        <time>2022-01-05T15:06:46Z</time>
      </trkpt>
      <trkpt lat="49.86569" lon="2.42458">
        <ele>63.3</ele>
        <time>2022-01-05T15:06:47Z</time>
      </trkpt>
      <trkpt lat="49.86572" lon="2.42458">
        <ele>63.2</ele>
        <time>2022-01-05T15:06:49Z</time>
      </trkpt>
      <trkpt lat="49.86573" lon="2.42458">
        <ele>63.1</ele>
        <time>2022-01-05T15:06:50Z</time>
      </trkpt>
      <trkpt lat="49.86575" lon="2.42458">
        <ele>63.1</ele>
        <time>2022-01-05T15:06:51Z</time>
      </trkpt>
      <trkpt lat="49.86578" lon="2.42458">
        <ele>63</ele>
        <time>2022-01-05T15:06:53Z</time>
      </trkpt>
      <trkpt lat="49.86579" lon="2.42458">
        <ele>62.9</ele>
        <time>2022-01-05T15:06:54Z</time>
      </trkpt>
      <trkpt lat="49.86581" lon="2.42458">
        <ele>62.9</ele>
        <time>2022-01-05T15:06:55Z</time>
      </trkpt>
      <trkpt lat="49.86582" lon="2.42458">
        <ele>62.8</ele>
        <time>2022-01-05T15:06:56Z</time>
      </trkpt>
      <trkpt lat="49.86584" lon="2.42458">
        <ele>62.7</ele>
        <time>2022-01-05T15:06:58Z</time>
      </trkpt>
      <trkpt lat="49.86587" lon="2.42459">
        <ele>62.6</ele>
        <time>2022-01-05T15:06:59Z</time>
      </trkpt>
      <trkpt lat="49.86588" lon="2.42459">
        <ele>62.6</ele>
        <time>2022-01-05T15:07:01Z</time>
      </trkpt>
      <trkpt lat="49.8659" lon="2.42459">
        <ele>62.5</ele>
        <time>2022-01-05T15:07:02Z</time>
      </trkpt>
      <trkpt lat="49.86591" lon="2.4246">
        <ele>62.4</ele>
        <time>2022-01-05T15:07:03Z</time>
      </trkpt>
      <trkpt lat="49.86592" lon="2.4246">
        <ele>62.4</ele>
        <time>2022-01-05T15:07:04Z</time>
      </trkpt>
      <trkpt lat="49.86594" lon="2.4246">
        <ele>62.3</ele>
        <time>2022-01-05T15:07:05Z</time>
      </trkpt>
      <trkpt lat="49.86595" lon="2.4246">
        <ele>62.3</ele>
        <time>2022-01-05T15:07:07Z</time>
      </trkpt>
      <trkpt lat="49.86597" lon="2.4246">
        <ele>62.2</ele>
        <time>2022-01-05T15:07:08Z</time>
      </trkpt>
      <trkpt lat="49.86598" lon="2.4246">
        <ele>62.2</ele>
        <time>2022-01-05T15:07:09Z</time>
      </trkpt>
      <trkpt lat="49.866" lon="2.42461">
        <ele>62.1</ele>
        <time>2022-01-05T15:07:11Z</time>
      </trkpt>
      <trkpt lat="49.86602" lon="2.42461">
        <ele>62.1</ele>
        <time>2022-01-05T15:07:12Z</time>
      </trkpt>
      <trkpt lat="49.86603" lon="2.42461">
        <ele>62</ele>
        <time>2022-01-05T15:07:13Z</time>
      </trkpt>
      <trkpt lat="49.86605" lon="2.42462">
        <ele>62</ele>
        <time>2022-01-05T15:07:14Z</time>
      </trkpt>
      <trkpt lat="49.86608" lon="2.42462">
        <ele>61.9</ele>
        <time>2022-01-05T15:07:16Z</time>
      </trkpt>
      <trkpt lat="49.86609" lon="2.42462">
        <ele>61.8</ele>
        <time>2022-01-05T15:07:17Z</time>
      </trkpt>
      <trkpt lat="49.86611" lon="2.42462">
        <ele>61.8</ele>
        <time>2022-01-05T15:07:18Z</time>
      </trkpt>
      <trkpt lat="49.86612" lon="2.42463">
        <ele>61.7</ele>
        <time>2022-01-05T15:07:20Z</time>
      </trkpt>
      <trkpt lat="49.86614" lon="2.42463">
        <ele>61.7</ele>
        <time>2022-01-05T15:07:21Z</time>
      </trkpt>
      <trkpt lat="49.86616" lon="2.42463">
        <ele>61.6</ele>
        <time>2022-01-05T15:07:22Z</time>
      </trkpt>
      <trkpt lat="49.86619" lon="2.42462">
        <ele>61.6</ele>
        <time>2022-01-05T15:07:23Z</time>
      </trkpt>
      <trkpt lat="49.8662" lon="2.42462">
        <ele>61.5</ele>
        <time>2022-01-05T15:07:25Z</time>
      </trkpt>
      <trkpt lat="49.86621" lon="2.42462">
        <ele>61.5</ele>
        <time>2022-01-05T15:07:26Z</time>
      </trkpt>
      <trkpt lat="49.86623" lon="2.42462">
        <ele>61.4</ele>
        <time>2022-01-05T15:07:27Z</time>
      </trkpt>
      <trkpt lat="49.86624" lon="2.42461">
        <ele>61.4</ele>
        <time>2022-01-05T15:07:29Z</time>
      </trkpt>
      <trkpt lat="49.86626" lon="2.42461">
        <ele>61.3</ele>
        <time>2022-01-05T15:07:30Z</time>
      </trkpt>
      <trkpt lat="49.86629" lon="2.42462">
        <ele>61.2</ele>
        <time>2022-01-05T15:07:32Z</time>
      </trkpt>
      <trkpt lat="49.8663" lon="2.42462">
        <ele>61.2</ele>
        <time>2022-01-05T15:07:33Z</time>
      </trkpt>
      <trkpt lat="49.86634" lon="2.42462">
        <ele>61.1</ele>
        <time>2022-01-05T15:07:35Z</time>
      </trkpt>
      <trkpt lat="49.86635" lon="2.42463">
        <ele>61.1</ele>
        <time>2022-01-05T15:07:36Z</time>
      </trkpt>
      <trkpt lat="49.86636" lon="2.42463">
        <ele>61.1</ele>
        <time>2022-01-05T15:07:37Z</time>
      </trkpt>
      <trkpt lat="49.86638" lon="2.42463">
        <ele>61</ele>
        <time>2022-01-05T15:07:39Z</time>
      </trkpt>
      <trkpt lat="49.8664" lon="2.42464">
        <ele>61</ele>
        <time>2022-01-05T15:07:40Z</time>
      </trkpt>
      <trkpt lat="49.86641" lon="2.42465">
        <ele>60.9</ele>
        <time>2022-01-05T15:07:41Z</time>
      </trkpt>
      <trkpt lat="49.86642" lon="2.42465">
        <ele>60.9</ele>
        <time>2022-01-05T15:07:42Z</time>
      </trkpt>
      <trkpt lat="49.86643" lon="2.42465">
        <ele>60.9</ele>
        <time>2022-01-05T15:07:44Z</time>
      </trkpt>
      <trkpt lat="49.86646" lon="2.42466">
        <ele>60.8</ele>
        <time>2022-01-05T15:07:46Z</time>
      </trkpt>
      <trkpt lat="49.86647" lon="2.42466">
        <ele>60.8</ele>
        <time>2022-01-05T15:07:47Z</time>
      </trkpt>
      <trkpt lat="49.86649" lon="2.42467">
        <ele>60.8</ele>
        <time>2022-01-05T15:07:48Z</time>
      </trkpt>
      <trkpt lat="49.8665" lon="2.42467">
        <ele>60.7</ele>
        <time>2022-01-05T15:07:49Z</time>
      </trkpt>
      <trkpt lat="49.86653" lon="2.42467">
        <ele>60.7</ele>
        <time>2022-01-05T15:07:51Z</time>
      </trkpt>
      <trkpt lat="49.86654" lon="2.42468">
        <ele>60.6</ele>
        <time>2022-01-05T15:07:52Z</time>
      </trkpt>
      <trkpt lat="49.86656" lon="2.42468">
        <ele>60.6</ele>
        <time>2022-01-05T15:07:54Z</time>
      </trkpt>
      <trkpt lat="49.8666" lon="2.42469">
        <ele>60.5</ele>
        <time>2022-01-05T15:07:56Z</time>
      </trkpt>
      <trkpt lat="49.8666" lon="2.42469">
        <ele>60.5</ele>
        <time>2022-01-05T15:07:57Z</time>
      </trkpt>
      <trkpt lat="49.86663" lon="2.42469">
        <ele>60.4</ele>
        <time>2022-01-05T15:07:58Z</time>
      </trkpt>
      <trkpt lat="49.86664" lon="2.42469">
        <ele>60.4</ele>
        <time>2022-01-05T15:07:59Z</time>
      </trkpt>
      <trkpt lat="49.86667" lon="2.42469">
        <ele>60.4</ele>
        <time>2022-01-05T15:08:01Z</time>
      </trkpt>
      <trkpt lat="49.86668" lon="2.42469">
        <ele>60.3</ele>
        <time>2022-01-05T15:08:02Z</time>
      </trkpt>
      <trkpt lat="49.8667" lon="2.42469">
        <ele>60.3</ele>
        <time>2022-01-05T15:08:04Z</time>
      </trkpt>
      <trkpt lat="49.86671" lon="2.42469">
        <ele>60.3</ele>
        <time>2022-01-05T15:08:05Z</time>
      </trkpt>
      <trkpt lat="49.86674" lon="2.42469">
        <ele>60.2</ele>
        <time>2022-01-05T15:08:07Z</time>
      </trkpt>
      <trkpt lat="49.86676" lon="2.42469">
        <ele>60.2</ele>
        <time>2022-01-05T15:08:09Z</time>
      </trkpt>
      <trkpt lat="49.86679" lon="2.42469">
        <ele>60.1</ele>
        <time>2022-01-05T15:08:10Z</time>
      </trkpt>
      <trkpt lat="49.8668" lon="2.42469">
        <ele>60.1</ele>
        <time>2022-01-05T15:08:11Z</time>
      </trkpt>
      <trkpt lat="49.86681" lon="2.42469">
        <ele>60.1</ele>
        <time>2022-01-05T15:08:12Z</time>
      </trkpt>
      <trkpt lat="49.86684" lon="2.42469">
        <ele>60</ele>
        <time>2022-01-05T15:08:14Z</time>
      </trkpt>
      <trkpt lat="49.86684" lon="2.42469">
        <ele>60</ele>
        <time>2022-01-05T15:08:15Z</time>
      </trkpt>
      <trkpt lat="49.86686" lon="2.42469">
        <ele>60</ele>
        <time>2022-01-05T15:08:16Z</time>
      </trkpt>
      <trkpt lat="49.86687" lon="2.42468">
        <ele>60</ele>
        <time>2022-01-05T15:08:17Z</time>
      </trkpt>
      <trkpt lat="49.8669" lon="2.42469">
        <ele>59.9</ele>
        <time>2022-01-05T15:08:19Z</time>
      </trkpt>
      <trkpt lat="49.86691" lon="2.42469">
        <ele>59.9</ele>
        <time>2022-01-05T15:08:20Z</time>
      </trkpt>
      <trkpt lat="49.86692" lon="2.42469">
        <ele>59.9</ele>
        <time>2022-01-05T15:08:21Z</time>
      </trkpt>
      <trkpt lat="49.86694" lon="2.42469">
        <ele>59.8</ele>
        <time>2022-01-05T15:08:22Z</time>
      </trkpt>
      <trkpt lat="49.86696" lon="2.42469">
        <ele>59.8</ele>
        <time>2022-01-05T15:08:24Z</time>
      </trkpt>
      <trkpt lat="49.86697" lon="2.4247">
        <ele>59.8</ele>
        <time>2022-01-05T15:08:25Z</time>
      </trkpt>
      <trkpt lat="49.86699" lon="2.4247">
        <ele>59.8</ele>
        <time>2022-01-05T15:08:26Z</time>
      </trkpt>
      <trkpt lat="49.867" lon="2.4247">
        <ele>59.7</ele>
        <time>2022-01-05T15:08:27Z</time>
      </trkpt>
      <trkpt lat="49.86702" lon="2.42471">
        <ele>59.7</ele>
        <time>2022-01-05T15:08:28Z</time>
      </trkpt>
      <trkpt lat="49.86703" lon="2.42471">
        <ele>59.7</ele>
        <time>2022-01-05T15:08:29Z</time>
      </trkpt>
      <trkpt lat="49.86705" lon="2.42471">
        <ele>59.7</ele>
        <time>2022-01-05T15:08:30Z</time>
      </trkpt>
      <trkpt lat="49.86707" lon="2.42472">
        <ele>59.6</ele>
        <time>2022-01-05T15:08:32Z</time>
      </trkpt>
      <trkpt lat="49.86708" lon="2.42472">
        <ele>59.6</ele>
        <time>2022-01-05T15:08:33Z</time>
      </trkpt>
      <trkpt lat="49.8671" lon="2.42472">
        <ele>59.6</ele>
        <time>2022-01-05T15:08:35Z</time>
      </trkpt>
      <trkpt lat="49.86711" lon="2.42472">
        <ele>59.6</ele>
        <time>2022-01-05T15:08:36Z</time>
      </trkpt>
      <trkpt lat="49.86713" lon="2.42472">
        <ele>59.5</ele>
        <time>2022-01-05T15:08:37Z</time>
      </trkpt>
      <trkpt lat="49.86714" lon="2.42472">
        <ele>59.5</ele>
        <time>2022-01-05T15:08:38Z</time>
      </trkpt>
      <trkpt lat="49.86716" lon="2.42473">
        <ele>59.5</ele>
        <time>2022-01-05T15:08:39Z</time>
      </trkpt>
      <trkpt lat="49.86718" lon="2.42473">
        <ele>59.5</ele>
        <time>2022-01-05T15:08:41Z</time>
      </trkpt>
      <trkpt lat="49.86719" lon="2.42473">
        <ele>59.4</ele>
        <time>2022-01-05T15:08:42Z</time>
      </trkpt>
      <trkpt lat="49.86721" lon="2.42473">
        <ele>59.4</ele>
        <time>2022-01-05T15:08:43Z</time>
      </trkpt>
      <trkpt lat="49.86724" lon="2.42473">
        <ele>59.4</ele>
        <time>2022-01-05T15:08:45Z</time>
      </trkpt>
      <trkpt lat="49.86725" lon="2.42473">
        <ele>59.3</ele>
        <time>2022-01-05T15:08:46Z</time>
      </trkpt>
      <trkpt lat="49.86727" lon="2.42474">
        <ele>59.3</ele>
        <time>2022-01-05T15:08:48Z</time>
      </trkpt>
      <trkpt lat="49.86728" lon="2.42474">
        <ele>59.3</ele>
        <time>2022-01-05T15:08:49Z</time>
      </trkpt>
      <trkpt lat="49.8673" lon="2.42474">
        <ele>59.3</ele>
        <time>2022-01-05T15:08:50Z</time>
      </trkpt>
      <trkpt lat="49.86731" lon="2.42474">
        <ele>59.3</ele>
        <time>2022-01-05T15:08:51Z</time>
      </trkpt>
      <trkpt lat="49.86734" lon="2.42474">
        <ele>59.2</ele>
        <time>2022-01-05T15:08:52Z</time>
      </trkpt>
      <trkpt lat="49.86734" lon="2.42474">
        <ele>59.2</ele>
        <time>2022-01-05T15:08:54Z</time>
      </trkpt>
      <trkpt lat="49.86735" lon="2.42474">
        <ele>59.2</ele>
        <time>2022-01-05T15:08:55Z</time>
      </trkpt>
      <trkpt lat="49.86736" lon="2.42474">
        <ele>59.2</ele>
        <time>2022-01-05T15:08:56Z</time>
      </trkpt>
      <trkpt lat="49.86738" lon="2.42474">
        <ele>59.2</ele>
        <time>2022-01-05T15:08:57Z</time>
      </trkpt>
      <trkpt lat="49.8674" lon="2.42474">
        <ele>59.1</ele>
        <time>2022-01-05T15:08:59Z</time>
      </trkpt>
      <trkpt lat="49.86741" lon="2.42474">
        <ele>59.1</ele>
        <time>2022-01-05T15:09:00Z</time>
      </trkpt>
      <trkpt lat="49.86744" lon="2.42474">
        <ele>59.1</ele>
        <time>2022-01-05T15:09:01Z</time>
      </trkpt>
      <trkpt lat="49.86747" lon="2.42475">
        <ele>59.1</ele>
        <time>2022-01-05T15:09:04Z</time>
      </trkpt>
      <trkpt lat="49.86748" lon="2.42475">
        <ele>59.1</ele>
        <time>2022-01-05T15:09:05Z</time>
      </trkpt>
      <trkpt lat="49.8675" lon="2.42475">
        <ele>59.1</ele>
        <time>2022-01-05T15:09:06Z</time>
      </trkpt>
      <trkpt lat="49.86752" lon="2.42475">
        <ele>59.1</ele>
        <time>2022-01-05T15:09:08Z</time>
      </trkpt>
      <trkpt lat="49.86755" lon="2.42475">
        <ele>59</ele>
        <time>2022-01-05T15:09:10Z</time>
      </trkpt>
      <trkpt lat="49.86756" lon="2.42475">
        <ele>59</ele>
        <time>2022-01-05T15:09:11Z</time>
      </trkpt>
      <trkpt lat="49.86757" lon="2.42475">
        <ele>59</ele>
        <time>2022-01-05T15:09:12Z</time>
      </trkpt>
      <trkpt lat="49.86759" lon="2.42476">
        <ele>59</ele>
        <time>2022-01-05T15:09:14Z</time>
      </trkpt>
      <trkpt lat="49.86759" lon="2.42476">
        <ele>59</ele>
        <time>2022-01-05T15:09:15Z</time>
      </trkpt>
      <trkpt lat="49.8676" lon="2.42477">
        <ele>59</ele>
        <time>2022-01-05T15:09:16Z</time>
      </trkpt>
      <trkpt lat="49.86761" lon="2.42476">
        <ele>59</ele>
        <time>2022-01-05T15:09:17Z</time>
      </trkpt>
      <trkpt lat="49.86762" lon="2.42475">
        <ele>59</ele>
        <time>2022-01-05T15:09:18Z</time>
      </trkpt>
      <trkpt lat="49.86762" lon="2.42473">
        <ele>59</ele>
        <time>2022-01-05T15:09:20Z</time>
      </trkpt>
      <trkpt lat="49.86764" lon="2.4247">
        <ele>59</ele>
        <time>2022-01-05T15:09:22Z</time>
      </trkpt>
      <trkpt lat="49.86764" lon="2.42466">
        <ele>58.9</ele>
        <time>2022-01-05T15:09:23Z</time>
      </trkpt>
      <trkpt lat="49.86765" lon="2.42463">
        <ele>58.9</ele>
        <time>2022-01-05T15:09:25Z</time>
      </trkpt>
      <trkpt lat="49.86765" lon="2.42461">
        <ele>58.9</ele>
        <time>2022-01-05T15:09:26Z</time>
      </trkpt>
      <trkpt lat="49.86766" lon="2.42456">
        <ele>59</ele>
        <time>2022-01-05T15:09:27Z</time>
      </trkpt>
      <trkpt lat="49.86766" lon="2.42455">
        <ele>59</ele>
        <time>2022-01-05T15:09:29Z</time>
      </trkpt>
      <trkpt lat="49.86766" lon="2.42453">
        <ele>59</ele>
        <time>2022-01-05T15:09:30Z</time>
      </trkpt>
      <trkpt lat="49.86766" lon="2.42452">
        <ele>59</ele>
        <time>2022-01-05T15:09:31Z</time>
      </trkpt>
      <trkpt lat="49.86766" lon="2.4245">
        <ele>59</ele>
        <time>2022-01-05T15:09:32Z</time>
      </trkpt>
      <trkpt lat="49.86766" lon="2.42447">
        <ele>59</ele>
        <time>2022-01-05T15:09:33Z</time>
      </trkpt>
      <trkpt lat="49.86766" lon="2.42445">
        <ele>59</ele>
        <time>2022-01-05T15:09:34Z</time>
      </trkpt>
      <trkpt lat="49.86766" lon="2.42444">
        <ele>59</ele>
        <time>2022-01-05T15:09:36Z</time>
      </trkpt>
      <trkpt lat="49.86766" lon="2.42442">
        <ele>59</ele>
        <time>2022-01-05T15:09:37Z</time>
      </trkpt>
      <trkpt lat="49.86766" lon="2.4244">
        <ele>59</ele>
        <time>2022-01-05T15:09:38Z</time>
      </trkpt>
      <trkpt lat="49.86766" lon="2.42439">
        <ele>59.1</ele>
        <time>2022-01-05T15:09:39Z</time>
      </trkpt>
      <trkpt lat="49.86766" lon="2.42437">
        <ele>59.1</ele>
        <time>2022-01-05T15:09:40Z</time>
      </trkpt>
      <trkpt lat="49.86766" lon="2.42435">
        <ele>59.1</ele>
        <time>2022-01-05T15:09:42Z</time>
      </trkpt>
      <trkpt lat="49.86766" lon="2.42434">
        <ele>59.1</ele>
        <time>2022-01-05T15:09:43Z</time>
      </trkpt>
      <trkpt lat="49.86765" lon="2.42432">
        <ele>59.1</ele>
        <time>2022-01-05T15:09:44Z</time>
      </trkpt>
      <trkpt lat="49.86765" lon="2.4243">
        <ele>59.1</ele>
        <time>2022-01-05T15:09:45Z</time>
      </trkpt>
      <trkpt lat="49.86765" lon="2.42429">
        <ele>59.1</ele>
        <time>2022-01-05T15:09:46Z</time>
      </trkpt>
      <trkpt lat="49.86764" lon="2.42427">
        <ele>59.1</ele>
        <time>2022-01-05T15:09:48Z</time>
      </trkpt>
      <trkpt lat="49.86764" lon="2.42425">
        <ele>59.1</ele>
        <time>2022-01-05T15:09:49Z</time>
      </trkpt>
      <trkpt lat="49.86765" lon="2.42423">
        <ele>59.1</ele>
        <time>2022-01-05T15:09:51Z</time>
      </trkpt>
      <trkpt lat="49.86765" lon="2.42421">
        <ele>59.2</ele>
        <time>2022-01-05T15:09:53Z</time>
      </trkpt>
      <trkpt lat="49.86765" lon="2.42421">
        <ele>59.2</ele>
        <time>2022-01-05T15:09:54Z</time>
      </trkpt>
      <trkpt lat="49.86764" lon="2.42422">
        <ele>59.2</ele>
        <time>2022-01-05T15:09:55Z</time>
      </trkpt>
      <trkpt lat="49.86764" lon="2.42422">
        <ele>59.2</ele>
        <time>2022-01-05T15:09:57Z</time>
      </trkpt>
      <trkpt lat="49.86764" lon="2.42422">
        <ele>59.2</ele>
        <time>2022-01-05T15:09:59Z</time>
      </trkpt>
      <trkpt lat="49.86764" lon="2.42423">
        <ele>59.2</ele>
        <time>2022-01-05T15:10:00Z</time>
      </trkpt>
      <trkpt lat="49.86764" lon="2.42423">
        <ele>59.2</ele>
        <time>2022-01-05T15:10:02Z</time>
      </trkpt>
      <trkpt lat="49.86764" lon="2.42423">
        <ele>59.2</ele>
        <time>2022-01-05T15:10:03Z</time>
      </trkpt>
      <trkpt lat="49.86763" lon="2.42423">
        <ele>59.2</ele>
        <time>2022-01-05T15:10:04Z</time>
      </trkpt>
      <trkpt lat="49.86763" lon="2.42423">
        <ele>59.2</ele>
        <time>2022-01-05T15:10:06Z</time>
      </trkpt>
      <trkpt lat="49.86763" lon="2.42423">
        <ele>59.2</ele>
        <time>2022-01-05T15:10:07Z</time>
      </trkpt>
      <trkpt lat="49.86763" lon="2.42423">
        <ele>59.2</ele>
        <time>2022-01-05T15:10:08Z</time>
      </trkpt>
      <trkpt lat="49.86764" lon="2.42423">
        <ele>59.2</ele>
        <time>2022-01-05T15:10:10Z</time>
      </trkpt>
      <trkpt lat="49.86764" lon="2.42422">
        <ele>59.2</ele>
        <time>2022-01-05T15:10:11Z</time>
      </trkpt>
      <trkpt lat="49.86764" lon="2.42422">
        <ele>59.2</ele>
        <time>2022-01-05T15:10:12Z</time>
      </trkpt>
      <trkpt lat="49.86764" lon="2.42422">
        <ele>59.2</ele>
        <time>2022-01-05T15:10:14Z</time>
      </trkpt>
      <trkpt lat="49.86764" lon="2.42421">
        <ele>59.2</ele>
        <time>2022-01-05T15:10:15Z</time>
      </trkpt>
      <trkpt lat="49.86764" lon="2.42421">
        <ele>59.2</ele>
        <time>2022-01-05T15:10:16Z</time>
      </trkpt>
      <trkpt lat="49.86764" lon="2.42419">
        <ele>59.2</ele>
        <time>2022-01-05T15:10:18Z</time>
      </trkpt>
      <trkpt lat="49.86763" lon="2.4242">
        <ele>59.2</ele>
        <time>2022-01-05T15:10:20Z</time>
      </trkpt>
      <trkpt lat="49.86762" lon="2.42421">
        <ele>59.2</ele>
        <time>2022-01-05T15:10:21Z</time>
      </trkpt>
      <trkpt lat="49.86762" lon="2.42422">
        <ele>59.3</ele>
        <time>2022-01-05T15:10:23Z</time>
      </trkpt>
      <trkpt lat="49.86762" lon="2.42422">
        <ele>59.3</ele>
        <time>2022-01-05T15:10:24Z</time>
      </trkpt>
      <trkpt lat="49.86762" lon="2.42422">
        <ele>59.3</ele>
        <time>2022-01-05T15:10:25Z</time>
      </trkpt>
      <trkpt lat="49.86762" lon="2.42423">
        <ele>59.3</ele>
        <time>2022-01-05T15:10:27Z</time>
      </trkpt>
      <trkpt lat="49.86762" lon="2.42423">
        <ele>59.3</ele>
        <time>2022-01-05T15:10:28Z</time>
      </trkpt>
      <trkpt lat="49.86762" lon="2.42423">
        <ele>59.3</ele>
        <time>2022-01-05T15:10:30Z</time>
      </trkpt>
      <trkpt lat="49.86762" lon="2.42423">
        <ele>59.3</ele>
        <time>2022-01-05T15:10:32Z</time>
      </trkpt>
      <trkpt lat="49.86762" lon="2.42423">
        <ele>59.3</ele>
        <time>2022-01-05T15:10:34Z</time>
      </trkpt>
      <trkpt lat="49.86762" lon="2.42423">
        <ele>59.3</ele>
        <time>2022-01-05T15:10:35Z</time>
      </trkpt>
      <trkpt lat="49.86762" lon="2.42423">
        <ele>59.3</ele>
        <time>2022-01-05T15:10:37Z</time>
      </trkpt>
      <trkpt lat="49.86762" lon="2.42423">
        <ele>59.3</ele>
        <time>2022-01-05T15:10:38Z</time>
      </trkpt>
      <trkpt lat="49.86762" lon="2.42423">
        <ele>59.3</ele>
        <time>2022-01-05T15:10:39Z</time>
      </trkpt>
      <trkpt lat="49.86762" lon="2.42423">
        <ele>59.3</ele>
        <time>2022-01-05T15:10:41Z</time>
      </trkpt>
      <trkpt lat="49.86762" lon="2.42423">
        <ele>59.3</ele>
        <time>2022-01-05T15:10:42Z</time>
      </trkpt>
      <trkpt lat="49.86762" lon="2.42423">
        <ele>59.3</ele>
        <time>2022-01-05T15:10:44Z</time>
      </trkpt>
      <trkpt lat="49.86762" lon="2.42423">
        <ele>59.3</ele>
        <time>2022-01-05T15:10:46Z</time>
      </trkpt>
      <trkpt lat="49.86763" lon="2.42423">
        <ele>59.3</ele>
        <time>2022-01-05T15:10:47Z</time>
      </trkpt>
      <trkpt lat="49.86763" lon="2.42422">
        <ele>59.3</ele>
        <time>2022-01-05T15:10:48Z</time>
      </trkpt>
      <trkpt lat="49.86763" lon="2.42421">
        <ele>59.3</ele>
        <time>2022-01-05T15:10:49Z</time>
      </trkpt>
      <trkpt lat="49.86763" lon="2.42421">
        <ele>59.3</ele>
        <time>2022-01-05T15:10:51Z</time>
      </trkpt>
      <trkpt lat="49.86764" lon="2.42418">
        <ele>59.3</ele>
        <time>2022-01-05T15:10:52Z</time>
      </trkpt>
      <trkpt lat="49.86764" lon="2.42416">
        <ele>59.4</ele>
        <time>2022-01-05T15:10:54Z</time>
      </trkpt>
      <trkpt lat="49.86764" lon="2.42414">
        <ele>59.4</ele>
        <time>2022-01-05T15:10:55Z</time>
      </trkpt>
      <trkpt lat="49.86764" lon="2.42412">
        <ele>59.4</ele>
        <time>2022-01-05T15:10:56Z</time>
      </trkpt>
      <trkpt lat="49.86764" lon="2.42408">
        <ele>59.5</ele>
        <time>2022-01-05T15:10:57Z</time>
      </trkpt>
      <trkpt lat="49.86764" lon="2.42406">
        <ele>59.5</ele>
        <time>2022-01-05T15:10:58Z</time>
      </trkpt>
      <trkpt lat="49.86763" lon="2.42402">
        <ele>59.5</ele>
        <time>2022-01-05T15:10:59Z</time>
      </trkpt>
      <trkpt lat="49.86763" lon="2.424">
        <ele>59.5</ele>
        <time>2022-01-05T15:11:01Z</time>
      </trkpt>
      <trkpt lat="49.86763" lon="2.42398">
        <ele>59.5</ele>
        <time>2022-01-05T15:11:02Z</time>
      </trkpt>
      <trkpt lat="49.86762" lon="2.42396">
        <ele>59.6</ele>
        <time>2022-01-05T15:11:03Z</time>
      </trkpt>
      <trkpt lat="49.86762" lon="2.42394">
        <ele>59.6</ele>
        <time>2022-01-05T15:11:05Z</time>
      </trkpt>
      <trkpt lat="49.86762" lon="2.42391">
        <ele>59.6</ele>
        <time>2022-01-05T15:11:06Z</time>
      </trkpt>
      <trkpt lat="49.86761" lon="2.42389">
        <ele>59.6</ele>
        <time>2022-01-05T15:11:07Z</time>
      </trkpt>
      <trkpt lat="49.86761" lon="2.42387">
        <ele>59.6</ele>
        <time>2022-01-05T15:11:08Z</time>
      </trkpt>
      <trkpt lat="49.8676" lon="2.42384">
        <ele>59.6</ele>
        <time>2022-01-05T15:11:09Z</time>
      </trkpt>
      <trkpt lat="49.8676" lon="2.42382">
        <ele>59.6</ele>
        <time>2022-01-05T15:11:10Z</time>
      </trkpt>
      <trkpt lat="49.86759" lon="2.42381">
        <ele>59.6</ele>
        <time>2022-01-05T15:11:11Z</time>
      </trkpt>
      <trkpt lat="49.86759" lon="2.42378">
        <ele>59.7</ele>
        <time>2022-01-05T15:11:12Z</time>
      </trkpt>
      <trkpt lat="49.86759" lon="2.42377">
        <ele>59.7</ele>
        <time>2022-01-05T15:11:13Z</time>
      </trkpt>
      <trkpt lat="49.86759" lon="2.42375">
        <ele>59.7</ele>
        <time>2022-01-05T15:11:14Z</time>
      </trkpt>
      <trkpt lat="49.86758" lon="2.42373">
        <ele>59.7</ele>
        <time>2022-01-05T15:11:16Z</time>
      </trkpt>
      <trkpt lat="49.86758" lon="2.4237">
        <ele>59.7</ele>
        <time>2022-01-05T15:11:18Z</time>
      </trkpt>
      <trkpt lat="49.86757" lon="2.42368">
        <ele>59.7</ele>
        <time>2022-01-05T15:11:19Z</time>
      </trkpt>
      <trkpt lat="49.86757" lon="2.42365">
        <ele>59.8</ele>
        <time>2022-01-05T15:11:20Z</time>
      </trkpt>
      <trkpt lat="49.86756" lon="2.4236">
        <ele>59.8</ele>
        <time>2022-01-05T15:11:22Z</time>
      </trkpt>
      <trkpt lat="49.86756" lon="2.42359">
        <ele>59.8</ele>
        <time>2022-01-05T15:11:23Z</time>
      </trkpt>
      <trkpt lat="49.86756" lon="2.42356">
        <ele>59.8</ele>
        <time>2022-01-05T15:11:24Z</time>
      </trkpt>
      <trkpt lat="49.86756" lon="2.42355">
        <ele>59.9</ele>
        <time>2022-01-05T15:11:25Z</time>
      </trkpt>
      <trkpt lat="49.86756" lon="2.42354">
        <ele>59.9</ele>
        <time>2022-01-05T15:11:26Z</time>
      </trkpt>
      <trkpt lat="49.86755" lon="2.42351">
        <ele>59.9</ele>
        <time>2022-01-05T15:11:27Z</time>
      </trkpt>
      <trkpt lat="49.86755" lon="2.42349">
        <ele>59.9</ele>
        <time>2022-01-05T15:11:28Z</time>
      </trkpt>
      <trkpt lat="49.86755" lon="2.42348">
        <ele>59.9</ele>
        <time>2022-01-05T15:11:29Z</time>
      </trkpt>
      <trkpt lat="49.86755" lon="2.42344">
        <ele>60</ele>
        <time>2022-01-05T15:11:30Z</time>
      </trkpt>
      <trkpt lat="49.86755" lon="2.42343">
        <ele>60</ele>
        <time>2022-01-05T15:11:32Z</time>
      </trkpt>
      <trkpt lat="49.86755" lon="2.42342">
        <ele>60</ele>
        <time>2022-01-05T15:11:33Z</time>
      </trkpt>
      <trkpt lat="49.86755" lon="2.4234">
        <ele>60</ele>
        <time>2022-01-05T15:11:34Z</time>
      </trkpt>
      <trkpt lat="49.86754" lon="2.42338">
        <ele>60</ele>
        <time>2022-01-05T15:11:35Z</time>
      </trkpt>
      <trkpt lat="49.86754" lon="2.42336">
        <ele>60</ele>
        <time>2022-01-05T15:11:36Z</time>
      </trkpt>
      <trkpt lat="49.86754" lon="2.42334">
        <ele>60</ele>
        <time>2022-01-05T15:11:37Z</time>
      </trkpt>
      <trkpt lat="49.86753" lon="2.42333">
        <ele>60</ele>
        <time>2022-01-05T15:11:38Z</time>
      </trkpt>
      <trkpt lat="49.86753" lon="2.42331">
        <ele>60.1</ele>
        <time>2022-01-05T15:11:40Z</time>
      </trkpt>
      <trkpt lat="49.86753" lon="2.42329">
        <ele>60.1</ele>
        <time>2022-01-05T15:11:41Z</time>
      </trkpt>
      <trkpt lat="49.86752" lon="2.42326">
        <ele>60.1</ele>
        <time>2022-01-05T15:11:42Z</time>
      </trkpt>
      <trkpt lat="49.86752" lon="2.42323">
        <ele>60.1</ele>
        <time>2022-01-05T15:11:43Z</time>
      </trkpt>
      <trkpt lat="49.86752" lon="2.42322">
        <ele>60.1</ele>
        <time>2022-01-05T15:11:45Z</time>
      </trkpt>
      <trkpt lat="49.86752" lon="2.4232">
        <ele>60.1</ele>
        <time>2022-01-05T15:11:46Z</time>
      </trkpt>
      <trkpt lat="49.86752" lon="2.42317">
        <ele>60.1</ele>
        <time>2022-01-05T15:11:47Z</time>
      </trkpt>
      <trkpt lat="49.86752" lon="2.42316">
        <ele>60.1</ele>
        <time>2022-01-05T15:11:48Z</time>
      </trkpt>
      <trkpt lat="49.86752" lon="2.42314">
        <ele>60.1</ele>
        <time>2022-01-05T15:11:49Z</time>
      </trkpt>
      <trkpt lat="49.86751" lon="2.42311">
        <ele>60.1</ele>
        <time>2022-01-05T15:11:50Z</time>
      </trkpt>
      <trkpt lat="49.86751" lon="2.4231">
        <ele>60.1</ele>
        <time>2022-01-05T15:11:51Z</time>
      </trkpt>
      <trkpt lat="49.86751" lon="2.42308">
        <ele>60.1</ele>
        <time>2022-01-05T15:11:52Z</time>
      </trkpt>
      <trkpt lat="49.86752" lon="2.42305">
        <ele>60.1</ele>
        <time>2022-01-05T15:11:53Z</time>
      </trkpt>
      <trkpt lat="49.86752" lon="2.42304">
        <ele>60.1</ele>
        <time>2022-01-05T15:11:54Z</time>
      </trkpt>
      <trkpt lat="49.86752" lon="2.42303">
        <ele>60.1</ele>
        <time>2022-01-05T15:11:55Z</time>
      </trkpt>
      <trkpt lat="49.86752" lon="2.42301">
        <ele>60.1</ele>
        <time>2022-01-05T15:11:56Z</time>
      </trkpt>
      <trkpt lat="49.86752" lon="2.42298">
        <ele>60.2</ele>
        <time>2022-01-05T15:11:57Z</time>
      </trkpt>
      <trkpt lat="49.86753" lon="2.42296">
        <ele>60.2</ele>
        <time>2022-01-05T15:11:59Z</time>
      </trkpt>
      <trkpt lat="49.86753" lon="2.42293">
        <ele>60.2</ele>
        <time>2022-01-05T15:12:00Z</time>
      </trkpt>
      <trkpt lat="49.86753" lon="2.42291">
        <ele>60.2</ele>
        <time>2022-01-05T15:12:01Z</time>
      </trkpt>
      <trkpt lat="49.86753" lon="2.42288">
        <ele>60.2</ele>
        <time>2022-01-05T15:12:02Z</time>
      </trkpt>
      <trkpt lat="49.86753" lon="2.42286">
        <ele>60.2</ele>
        <time>2022-01-05T15:12:03Z</time>
      </trkpt>
      <trkpt lat="49.86753" lon="2.42284">
        <ele>60.2</ele>
        <time>2022-01-05T15:12:04Z</time>
      </trkpt>
      <trkpt lat="49.86754" lon="2.4228">
        <ele>60.2</ele>
        <time>2022-01-05T15:12:05Z</time>
      </trkpt>
      <trkpt lat="49.86754" lon="2.42279">
        <ele>60.2</ele>
        <time>2022-01-05T15:12:07Z</time>
      </trkpt>
      <trkpt lat="49.86754" lon="2.42278">
        <ele>60.2</ele>
        <time>2022-01-05T15:12:08Z</time>
      </trkpt>
      <trkpt lat="49.86754" lon="2.42274">
        <ele>60.3</ele>
        <time>2022-01-05T15:12:09Z</time>
      </trkpt>
      <trkpt lat="49.86754" lon="2.42273">
        <ele>60.3</ele>
        <time>2022-01-05T15:12:10Z</time>
      </trkpt>
      <trkpt lat="49.86754" lon="2.42272">
        <ele>60.3</ele>
        <time>2022-01-05T15:12:11Z</time>
      </trkpt>
      <trkpt lat="49.86754" lon="2.4227">
        <ele>60.3</ele>
        <time>2022-01-05T15:12:12Z</time>
      </trkpt>
      <trkpt lat="49.86754" lon="2.42268">
        <ele>60.3</ele>
        <time>2022-01-05T15:12:13Z</time>
      </trkpt>
      <trkpt lat="49.86753" lon="2.42264">
        <ele>60.3</ele>
        <time>2022-01-05T15:12:14Z</time>
      </trkpt>
      <trkpt lat="49.86753" lon="2.42262">
        <ele>60.3</ele>
        <time>2022-01-05T15:12:16Z</time>
      </trkpt>
      <trkpt lat="49.86753" lon="2.4226">
        <ele>60.3</ele>
        <time>2022-01-05T15:12:17Z</time>
      </trkpt>
      <trkpt lat="49.86753" lon="2.42259">
        <ele>60.3</ele>
        <time>2022-01-05T15:12:18Z</time>
      </trkpt>
      <trkpt lat="49.86752" lon="2.42257">
        <ele>60.3</ele>
        <time>2022-01-05T15:12:19Z</time>
      </trkpt>
      <trkpt lat="49.86752" lon="2.42254">
        <ele>60.3</ele>
        <time>2022-01-05T15:12:20Z</time>
      </trkpt>
      <trkpt lat="49.86752" lon="2.42253">
        <ele>60.3</ele>
        <time>2022-01-05T15:12:21Z</time>
      </trkpt>
      <trkpt lat="49.86752" lon="2.42251">
        <ele>60.3</ele>
        <time>2022-01-05T15:12:22Z</time>
      </trkpt>
      <trkpt lat="49.86752" lon="2.4225">
        <ele>60.3</ele>
        <time>2022-01-05T15:12:23Z</time>
      </trkpt>
      <trkpt lat="49.86751" lon="2.42249">
        <ele>60.3</ele>
        <time>2022-01-05T15:12:25Z</time>
      </trkpt>
      <trkpt lat="49.86751" lon="2.42247">
        <ele>60.3</ele>
        <time>2022-01-05T15:12:26Z</time>
      </trkpt>
      <trkpt lat="49.8675" lon="2.42244">
        <ele>60.3</ele>
        <time>2022-01-05T15:12:27Z</time>
      </trkpt>
      <trkpt lat="49.8675" lon="2.42243">
        <ele>60.3</ele>
        <time>2022-01-05T15:12:28Z</time>
      </trkpt>
      <trkpt lat="49.8675" lon="2.42242">
        <ele>60.3</ele>
        <time>2022-01-05T15:12:29Z</time>
      </trkpt>
      <trkpt lat="49.86749" lon="2.42239">
        <ele>60.3</ele>
        <time>2022-01-05T15:12:30Z</time>
      </trkpt>
      <trkpt lat="49.86749" lon="2.42237">
        <ele>60.3</ele>
        <time>2022-01-05T15:12:31Z</time>
      </trkpt>
      <trkpt lat="49.86749" lon="2.42235">
        <ele>60.3</ele>
        <time>2022-01-05T15:12:32Z</time>
      </trkpt>
      <trkpt lat="49.86748" lon="2.42233">
        <ele>60.3</ele>
        <time>2022-01-05T15:12:33Z</time>
      </trkpt>
      <trkpt lat="49.86748" lon="2.42231">
        <ele>60.3</ele>
        <time>2022-01-05T15:12:35Z</time>
      </trkpt>
      <trkpt lat="49.86748" lon="2.42228">
        <ele>60.3</ele>
        <time>2022-01-05T15:12:36Z</time>
      </trkpt>
      <trkpt lat="49.86747" lon="2.42225">
        <ele>60.3</ele>
        <time>2022-01-05T15:12:37Z</time>
      </trkpt>
      <trkpt lat="49.86747" lon="2.42224">
        <ele>60.3</ele>
        <time>2022-01-05T15:12:38Z</time>
      </trkpt>
      <trkpt lat="49.86747" lon="2.42223">
        <ele>60.3</ele>
        <time>2022-01-05T15:12:39Z</time>
      </trkpt>
      <trkpt lat="49.86747" lon="2.4222">
        <ele>60.4</ele>
        <time>2022-01-05T15:12:40Z</time>
      </trkpt>
      <trkpt lat="49.86746" lon="2.42218">
        <ele>60.4</ele>
        <time>2022-01-05T15:12:42Z</time>
      </trkpt>
      <trkpt lat="49.86746" lon="2.42216">
        <ele>60.4</ele>
        <time>2022-01-05T15:12:43Z</time>
      </trkpt>
      <trkpt lat="49.86746" lon="2.42213">
        <ele>60.4</ele>
        <time>2022-01-05T15:12:45Z</time>
      </trkpt>
      <trkpt lat="49.86746" lon="2.42212">
        <ele>60.4</ele>
        <time>2022-01-05T15:12:46Z</time>
      </trkpt>
      <trkpt lat="49.86745" lon="2.42209">
        <ele>60.5</ele>
        <time>2022-01-05T15:12:47Z</time>
      </trkpt>
      <trkpt lat="49.86745" lon="2.42206">
        <ele>60.5</ele>
        <time>2022-01-05T15:12:48Z</time>
      </trkpt>
      <trkpt lat="49.86745" lon="2.42204">
        <ele>60.5</ele>
        <time>2022-01-05T15:12:49Z</time>
      </trkpt>
      <trkpt lat="49.86745" lon="2.42202">
        <ele>60.5</ele>
        <time>2022-01-05T15:12:51Z</time>
      </trkpt>
      <trkpt lat="49.86744" lon="2.42198">
        <ele>60.5</ele>
        <time>2022-01-05T15:12:53Z</time>
      </trkpt>
      <trkpt lat="49.86744" lon="2.42197">
        <ele>60.5</ele>
        <time>2022-01-05T15:12:54Z</time>
      </trkpt>
      <trkpt lat="49.86744" lon="2.42194">
        <ele>60.6</ele>
        <time>2022-01-05T15:12:55Z</time>
      </trkpt>
      <trkpt lat="49.86744" lon="2.42191">
        <ele>60.6</ele>
        <time>2022-01-05T15:12:57Z</time>
      </trkpt>
      <trkpt lat="49.86744" lon="2.42189">
        <ele>60.6</ele>
        <time>2022-01-05T15:12:58Z</time>
      </trkpt>
      <trkpt lat="49.86744" lon="2.42187">
        <ele>60.6</ele>
        <time>2022-01-05T15:12:59Z</time>
      </trkpt>
      <trkpt lat="49.86745" lon="2.42184">
        <ele>60.6</ele>
        <time>2022-01-05T15:13:01Z</time>
      </trkpt>
      <trkpt lat="49.86745" lon="2.42182">
        <ele>60.7</ele>
        <time>2022-01-05T15:13:02Z</time>
      </trkpt>
      <trkpt lat="49.86746" lon="2.42181">
        <ele>60.7</ele>
        <time>2022-01-05T15:13:03Z</time>
      </trkpt>
      <trkpt lat="49.86747" lon="2.42178">
        <ele>60.7</ele>
        <time>2022-01-05T15:13:04Z</time>
      </trkpt>
      <trkpt lat="49.86748" lon="2.42177">
        <ele>60.7</ele>
        <time>2022-01-05T15:13:05Z</time>
      </trkpt>
      <trkpt lat="49.86749" lon="2.42176">
        <ele>60.7</ele>
        <time>2022-01-05T15:13:06Z</time>
      </trkpt>
      <trkpt lat="49.8675" lon="2.42174">
        <ele>60.8</ele>
        <time>2022-01-05T15:13:07Z</time>
      </trkpt>
      <trkpt lat="49.86751" lon="2.42173">
        <ele>60.8</ele>
        <time>2022-01-05T15:13:09Z</time>
      </trkpt>
      <trkpt lat="49.86753" lon="2.42171">
        <ele>60.8</ele>
        <time>2022-01-05T15:13:10Z</time>
      </trkpt>
      <trkpt lat="49.86754" lon="2.42171">
        <ele>60.8</ele>
        <time>2022-01-05T15:13:11Z</time>
      </trkpt>
      <trkpt lat="49.86754" lon="2.4217">
        <ele>60.8</ele>
        <time>2022-01-05T15:13:12Z</time>
      </trkpt>
      <trkpt lat="49.86756" lon="2.42169">
        <ele>60.8</ele>
        <time>2022-01-05T15:13:13Z</time>
      </trkpt>
      <trkpt lat="49.86757" lon="2.42169">
        <ele>60.9</ele>
        <time>2022-01-05T15:13:14Z</time>
      </trkpt>
      <trkpt lat="49.86758" lon="2.42168">
        <ele>60.9</ele>
        <time>2022-01-05T15:13:15Z</time>
      </trkpt>
      <trkpt lat="49.8676" lon="2.42167">
        <ele>60.9</ele>
        <time>2022-01-05T15:13:17Z</time>
      </trkpt>
      <trkpt lat="49.86761" lon="2.42166">
        <ele>60.9</ele>
        <time>2022-01-05T15:13:18Z</time>
      </trkpt>
      <trkpt lat="49.86762" lon="2.42166">
        <ele>60.9</ele>
        <time>2022-01-05T15:13:19Z</time>
      </trkpt>
      <trkpt lat="49.86764" lon="2.42165">
        <ele>60.9</ele>
        <time>2022-01-05T15:13:20Z</time>
      </trkpt>
      <trkpt lat="49.86764" lon="2.42165">
        <ele>60.9</ele>
        <time>2022-01-05T15:13:21Z</time>
      </trkpt>
      <trkpt lat="49.86766" lon="2.42164">
        <ele>60.9</ele>
        <time>2022-01-05T15:13:22Z</time>
      </trkpt>
      <trkpt lat="49.86767" lon="2.42163">
        <ele>60.9</ele>
        <time>2022-01-05T15:13:23Z</time>
      </trkpt>
      <trkpt lat="49.86768" lon="2.42162">
        <ele>61</ele>
        <time>2022-01-05T15:13:25Z</time>
      </trkpt>
      <trkpt lat="49.8677" lon="2.4216">
        <ele>61</ele>
        <time>2022-01-05T15:13:27Z</time>
      </trkpt>
      <trkpt lat="49.86771" lon="2.4216">
        <ele>61</ele>
        <time>2022-01-05T15:13:28Z</time>
      </trkpt>
      <trkpt lat="49.86772" lon="2.42159">
        <ele>61</ele>
        <time>2022-01-05T15:13:29Z</time>
      </trkpt>
      <trkpt lat="49.86774" lon="2.42157">
        <ele>61</ele>
        <time>2022-01-05T15:13:30Z</time>
      </trkpt>
      <trkpt lat="49.86774" lon="2.42156">
        <ele>61</ele>
        <time>2022-01-05T15:13:31Z</time>
      </trkpt>
      <trkpt lat="49.86775" lon="2.42155">
        <ele>61</ele>
        <time>2022-01-05T15:13:32Z</time>
      </trkpt>
      <trkpt lat="49.86777" lon="2.42153">
        <ele>61.1</ele>
        <time>2022-01-05T15:13:34Z</time>
      </trkpt>
      <trkpt lat="49.86777" lon="2.42152">
        <ele>61.1</ele>
        <time>2022-01-05T15:13:35Z</time>
      </trkpt>
      <trkpt lat="49.86778" lon="2.42151">
        <ele>61.1</ele>
        <time>2022-01-05T15:13:36Z</time>
      </trkpt>
      <trkpt lat="49.86779" lon="2.42149">
        <ele>61.1</ele>
        <time>2022-01-05T15:13:38Z</time>
      </trkpt>
      <trkpt lat="49.8678" lon="2.42148">
        <ele>61.1</ele>
        <time>2022-01-05T15:13:39Z</time>
      </trkpt>
      <trkpt lat="49.86781" lon="2.42147">
        <ele>61.1</ele>
        <time>2022-01-05T15:13:40Z</time>
      </trkpt>
      <trkpt lat="49.86783" lon="2.42146">
        <ele>61.1</ele>
        <time>2022-01-05T15:13:41Z</time>
      </trkpt>
      <trkpt lat="49.86785" lon="2.42144">
        <ele>61.2</ele>
        <time>2022-01-05T15:13:42Z</time>
      </trkpt>
      <trkpt lat="49.86785" lon="2.42144">
        <ele>61.2</ele>
        <time>2022-01-05T15:13:43Z</time>
      </trkpt>
      <trkpt lat="49.86786" lon="2.42143">
        <ele>61.2</ele>
        <time>2022-01-05T15:13:44Z</time>
      </trkpt>
      <trkpt lat="49.86787" lon="2.42142">
        <ele>61.2</ele>
        <time>2022-01-05T15:13:45Z</time>
      </trkpt>
      <trkpt lat="49.86788" lon="2.42141">
        <ele>61.2</ele>
        <time>2022-01-05T15:13:46Z</time>
      </trkpt>
      <trkpt lat="49.86789" lon="2.4214">
        <ele>61.2</ele>
        <time>2022-01-05T15:13:48Z</time>
      </trkpt>
      <trkpt lat="49.8679" lon="2.42139">
        <ele>61.2</ele>
        <time>2022-01-05T15:13:49Z</time>
      </trkpt>
      <trkpt lat="49.86792" lon="2.42138">
        <ele>61.3</ele>
        <time>2022-01-05T15:13:50Z</time>
      </trkpt>
      <trkpt lat="49.86794" lon="2.42136">
        <ele>61.3</ele>
        <time>2022-01-05T15:13:52Z</time>
      </trkpt>
      <trkpt lat="49.86795" lon="2.42134">
        <ele>61.3</ele>
        <time>2022-01-05T15:13:54Z</time>
      </trkpt>
      <trkpt lat="49.86797" lon="2.42133">
        <ele>61.3</ele>
        <time>2022-01-05T15:13:55Z</time>
      </trkpt>
      <trkpt lat="49.86798" lon="2.42132">
        <ele>61.3</ele>
        <time>2022-01-05T15:13:56Z</time>
      </trkpt>
      <trkpt lat="49.86799" lon="2.42132">
        <ele>61.3</ele>
        <time>2022-01-05T15:13:57Z</time>
      </trkpt>
      <trkpt lat="49.868" lon="2.42131">
        <ele>61.3</ele>
        <time>2022-01-05T15:13:59Z</time>
      </trkpt>
      <trkpt lat="49.86802" lon="2.4213">
        <ele>61.3</ele>
        <time>2022-01-05T15:14:00Z</time>
      </trkpt>
      <trkpt lat="49.86803" lon="2.42129">
        <ele>61.3</ele>
        <time>2022-01-05T15:14:01Z</time>
      </trkpt>
      <trkpt lat="49.86806" lon="2.42126">
        <ele>61.3</ele>
        <time>2022-01-05T15:14:03Z</time>
      </trkpt>
      <trkpt lat="49.86807" lon="2.42125">
        <ele>61.3</ele>
        <time>2022-01-05T15:14:04Z</time>
      </trkpt>
      <trkpt lat="49.86808" lon="2.42124">
        <ele>61.3</ele>
        <time>2022-01-05T15:14:05Z</time>
      </trkpt>
      <trkpt lat="49.8681" lon="2.42122">
        <ele>61.2</ele>
        <time>2022-01-05T15:14:07Z</time>
      </trkpt>
      <trkpt lat="49.86813" lon="2.42121">
        <ele>61.2</ele>
        <time>2022-01-05T15:14:09Z</time>
      </trkpt>
      <trkpt lat="49.86814" lon="2.4212">
        <ele>61.2</ele>
        <time>2022-01-05T15:14:10Z</time>
      </trkpt>
      <trkpt lat="49.86816" lon="2.42119">
        <ele>61.2</ele>
        <time>2022-01-05T15:14:11Z</time>
      </trkpt>
      <trkpt lat="49.86817" lon="2.42119">
        <ele>61.2</ele>
        <time>2022-01-05T15:14:12Z</time>
      </trkpt>
      <trkpt lat="49.86817" lon="2.42118">
        <ele>61.1</ele>
        <time>2022-01-05T15:14:13Z</time>
      </trkpt>
      <trkpt lat="49.86818" lon="2.42118">
        <ele>61.1</ele>
        <time>2022-01-05T15:14:14Z</time>
      </trkpt>
      <trkpt lat="49.8682" lon="2.42116">
        <ele>61.1</ele>
        <time>2022-01-05T15:14:15Z</time>
      </trkpt>
      <trkpt lat="49.86821" lon="2.42115">
        <ele>61.1</ele>
        <time>2022-01-05T15:14:17Z</time>
      </trkpt>
      <trkpt lat="49.86823" lon="2.42114">
        <ele>61</ele>
        <time>2022-01-05T15:14:18Z</time>
      </trkpt>
      <trkpt lat="49.86824" lon="2.42113">
        <ele>61</ele>
        <time>2022-01-05T15:14:20Z</time>
      </trkpt>
      <trkpt lat="49.86826" lon="2.42111">
        <ele>61</ele>
        <time>2022-01-05T15:14:22Z</time>
      </trkpt>
      <trkpt lat="49.86828" lon="2.42109">
        <ele>60.9</ele>
        <time>2022-01-05T15:14:23Z</time>
      </trkpt>
      <trkpt lat="49.86829" lon="2.42108">
        <ele>60.9</ele>
        <time>2022-01-05T15:14:24Z</time>
      </trkpt>
      <trkpt lat="49.8683" lon="2.42107">
        <ele>60.9</ele>
        <time>2022-01-05T15:14:25Z</time>
      </trkpt>
      <trkpt lat="49.86831" lon="2.42106">
        <ele>60.9</ele>
        <time>2022-01-05T15:14:26Z</time>
      </trkpt>
      <trkpt lat="49.86832" lon="2.42104">
        <ele>60.8</ele>
        <time>2022-01-05T15:14:28Z</time>
      </trkpt>
      <trkpt lat="49.86834" lon="2.42103">
        <ele>60.8</ele>
        <time>2022-01-05T15:14:29Z</time>
      </trkpt>
      <trkpt lat="49.86835" lon="2.42102">
        <ele>60.8</ele>
        <time>2022-01-05T15:14:31Z</time>
      </trkpt>
      <trkpt lat="49.86837" lon="2.42101">
        <ele>60.7</ele>
        <time>2022-01-05T15:14:32Z</time>
      </trkpt>
      <trkpt lat="49.86839" lon="2.42099">
        <ele>60.7</ele>
        <time>2022-01-05T15:14:34Z</time>
      </trkpt>
      <trkpt lat="49.86841" lon="2.42099">
        <ele>60.6</ele>
        <time>2022-01-05T15:14:35Z</time>
      </trkpt>
      <trkpt lat="49.86842" lon="2.42098">
        <ele>60.6</ele>
        <time>2022-01-05T15:14:36Z</time>
      </trkpt>
      <trkpt lat="49.86843" lon="2.42097">
        <ele>60.6</ele>
        <time>2022-01-05T15:14:37Z</time>
      </trkpt>
      <trkpt lat="49.86845" lon="2.42096">
        <ele>60.5</ele>
        <time>2022-01-05T15:14:39Z</time>
      </trkpt>
      <trkpt lat="49.86846" lon="2.42095">
        <ele>60.5</ele>
        <time>2022-01-05T15:14:40Z</time>
      </trkpt>
      <trkpt lat="49.86847" lon="2.42094">
        <ele>60.5</ele>
        <time>2022-01-05T15:14:41Z</time>
      </trkpt>
      <trkpt lat="49.86849" lon="2.42093">
        <ele>60.5</ele>
        <time>2022-01-05T15:14:43Z</time>
      </trkpt>
      <trkpt lat="49.86851" lon="2.42092">
        <ele>60.4</ele>
        <time>2022-01-05T15:14:44Z</time>
      </trkpt>
      <trkpt lat="49.86852" lon="2.42091">
        <ele>60.4</ele>
        <time>2022-01-05T15:14:45Z</time>
      </trkpt>
      <trkpt lat="49.86853" lon="2.4209">
        <ele>60.4</ele>
        <time>2022-01-05T15:14:46Z</time>
      </trkpt>
      <trkpt lat="49.86855" lon="2.42089">
        <ele>60.3</ele>
        <time>2022-01-05T15:14:47Z</time>
      </trkpt>
      <trkpt lat="49.86856" lon="2.42087">
        <ele>60.3</ele>
        <time>2022-01-05T15:14:48Z</time>
      </trkpt>
      <trkpt lat="49.86857" lon="2.42086">
        <ele>60.3</ele>
        <time>2022-01-05T15:14:49Z</time>
      </trkpt>
      <trkpt lat="49.86859" lon="2.42085">
        <ele>60.3</ele>
        <time>2022-01-05T15:14:51Z</time>
      </trkpt>
      <trkpt lat="49.8686" lon="2.42084">
        <ele>60.3</ele>
        <time>2022-01-05T15:14:52Z</time>
      </trkpt>
      <trkpt lat="49.86861" lon="2.42083">
        <ele>60.3</ele>
        <time>2022-01-05T15:14:53Z</time>
      </trkpt>
      <trkpt lat="49.86862" lon="2.42081">
        <ele>60.2</ele>
        <time>2022-01-05T15:14:54Z</time>
      </trkpt>
      <trkpt lat="49.86864" lon="2.4208">
        <ele>60.2</ele>
        <time>2022-01-05T15:14:55Z</time>
      </trkpt>
      <trkpt lat="49.86865" lon="2.42079">
        <ele>60.2</ele>
        <time>2022-01-05T15:14:56Z</time>
      </trkpt>
      <trkpt lat="49.86866" lon="2.42078">
        <ele>60.2</ele>
        <time>2022-01-05T15:14:57Z</time>
      </trkpt>
      <trkpt lat="49.86867" lon="2.42077">
        <ele>60.2</ele>
        <time>2022-01-05T15:14:58Z</time>
      </trkpt>
      <trkpt lat="49.86867" lon="2.42076">
        <ele>60.2</ele>
        <time>2022-01-05T15:14:59Z</time>
      </trkpt>
      <trkpt lat="49.86868" lon="2.42074">
        <ele>60.2</ele>
        <time>2022-01-05T15:15:01Z</time>
      </trkpt>
      <trkpt lat="49.86869" lon="2.42072">
        <ele>60.1</ele>
        <time>2022-01-05T15:15:02Z</time>
      </trkpt>
      <trkpt lat="49.8687" lon="2.4207">
        <ele>60.1</ele>
        <time>2022-01-05T15:15:03Z</time>
      </trkpt>
      <trkpt lat="49.86871" lon="2.42068">
        <ele>60.1</ele>
        <time>2022-01-05T15:15:04Z</time>
      </trkpt>
      <trkpt lat="49.86871" lon="2.42066">
        <ele>60.1</ele>
        <time>2022-01-05T15:15:05Z</time>
      </trkpt>
      <trkpt lat="49.86872" lon="2.42064">
        <ele>60</ele>
        <time>2022-01-05T15:15:06Z</time>
      </trkpt>
      <trkpt lat="49.86872" lon="2.42062">
        <ele>60</ele>
        <time>2022-01-05T15:15:07Z</time>
      </trkpt>
      <trkpt lat="49.86872" lon="2.4206">
        <ele>59.9</ele>
        <time>2022-01-05T15:15:08Z</time>
      </trkpt>
      <trkpt lat="49.86872" lon="2.42058">
        <ele>59.9</ele>
        <time>2022-01-05T15:15:10Z</time>
      </trkpt>
      <trkpt lat="49.86872" lon="2.42055">
        <ele>59.8</ele>
        <time>2022-01-05T15:15:11Z</time>
      </trkpt>
      <trkpt lat="49.86872" lon="2.42053">
        <ele>59.8</ele>
        <time>2022-01-05T15:15:12Z</time>
      </trkpt>
      <trkpt lat="49.86873" lon="2.42051">
        <ele>59.8</ele>
        <time>2022-01-05T15:15:13Z</time>
      </trkpt>
      <trkpt lat="49.86873" lon="2.42049">
        <ele>59.8</ele>
        <time>2022-01-05T15:15:14Z</time>
      </trkpt>
      <trkpt lat="49.86874" lon="2.42047">
        <ele>59.8</ele>
        <time>2022-01-05T15:15:16Z</time>
      </trkpt>
      <trkpt lat="49.86874" lon="2.42045">
        <ele>59.8</ele>
        <time>2022-01-05T15:15:17Z</time>
      </trkpt>
      <trkpt lat="49.86875" lon="2.42042">
        <ele>59.8</ele>
        <time>2022-01-05T15:15:18Z</time>
      </trkpt>
      <trkpt lat="49.86876" lon="2.42041">
        <ele>59.8</ele>
        <time>2022-01-05T15:15:19Z</time>
      </trkpt>
      <trkpt lat="49.86876" lon="2.4204">
        <ele>59.8</ele>
        <time>2022-01-05T15:15:20Z</time>
      </trkpt>
      <trkpt lat="49.86877" lon="2.42038">
        <ele>59.8</ele>
        <time>2022-01-05T15:15:21Z</time>
      </trkpt>
      <trkpt lat="49.86877" lon="2.42036">
        <ele>59.8</ele>
        <time>2022-01-05T15:15:22Z</time>
      </trkpt>
      <trkpt lat="49.86877" lon="2.42034">
        <ele>59.8</ele>
        <time>2022-01-05T15:15:24Z</time>
      </trkpt>
      <trkpt lat="49.86876" lon="2.4203">
        <ele>59.8</ele>
        <time>2022-01-05T15:15:25Z</time>
      </trkpt>
      <trkpt lat="49.86876" lon="2.42029">
        <ele>59.8</ele>
        <time>2022-01-05T15:15:26Z</time>
      </trkpt>
      <trkpt lat="49.86876" lon="2.42028">
        <ele>59.8</ele>
        <time>2022-01-05T15:15:27Z</time>
      </trkpt>
      <trkpt lat="49.86876" lon="2.42024">
        <ele>59.8</ele>
        <time>2022-01-05T15:15:28Z</time>
      </trkpt>
      <trkpt lat="49.86876" lon="2.42022">
        <ele>59.8</ele>
        <time>2022-01-05T15:15:30Z</time>
      </trkpt>
      <trkpt lat="49.86876" lon="2.4202">
        <ele>59.8</ele>
        <time>2022-01-05T15:15:31Z</time>
      </trkpt>
      <trkpt lat="49.86876" lon="2.42019">
        <ele>59.8</ele>
        <time>2022-01-05T15:15:32Z</time>
      </trkpt>
      <trkpt lat="49.86876" lon="2.42017">
        <ele>59.8</ele>
        <time>2022-01-05T15:15:33Z</time>
      </trkpt>
      <trkpt lat="49.86877" lon="2.42014">
        <ele>59.8</ele>
        <time>2022-01-05T15:15:34Z</time>
      </trkpt>
      <trkpt lat="49.86877" lon="2.42013">
        <ele>59.8</ele>
        <time>2022-01-05T15:15:35Z</time>
      </trkpt>
      <trkpt lat="49.86877" lon="2.42009">
        <ele>59.8</ele>
        <time>2022-01-05T15:15:37Z</time>
      </trkpt>
      <trkpt lat="49.86877" lon="2.42008">
        <ele>59.8</ele>
        <time>2022-01-05T15:15:38Z</time>
      </trkpt>
      <trkpt lat="49.86876" lon="2.42007">
        <ele>59.8</ele>
        <time>2022-01-05T15:15:39Z</time>
      </trkpt>
      <trkpt lat="49.86876" lon="2.42005">
        <ele>59.8</ele>
        <time>2022-01-05T15:15:40Z</time>
      </trkpt>
      <trkpt lat="49.86876" lon="2.42002">
        <ele>59.8</ele>
        <time>2022-01-05T15:15:42Z</time>
      </trkpt>
      <trkpt lat="49.86876" lon="2.42001">
        <ele>59.8</ele>
        <time>2022-01-05T15:15:43Z</time>
      </trkpt>
      <trkpt lat="49.86876" lon="2.42">
        <ele>59.8</ele>
        <time>2022-01-05T15:15:44Z</time>
      </trkpt>
      <trkpt lat="49.86875" lon="2.41998">
        <ele>59.8</ele>
        <time>2022-01-05T15:15:45Z</time>
      </trkpt>
      <trkpt lat="49.86875" lon="2.41994">
        <ele>59.8</ele>
        <time>2022-01-05T15:15:47Z</time>
      </trkpt>
      <trkpt lat="49.86875" lon="2.41993">
        <ele>59.8</ele>
        <time>2022-01-05T15:15:48Z</time>
      </trkpt>
      <trkpt lat="49.86874" lon="2.41989">
        <ele>59.8</ele>
        <time>2022-01-05T15:15:49Z</time>
      </trkpt>
      <trkpt lat="49.86874" lon="2.41987">
        <ele>59.8</ele>
        <time>2022-01-05T15:15:51Z</time>
      </trkpt>
      <trkpt lat="49.86874" lon="2.41984">
        <ele>59.8</ele>
        <time>2022-01-05T15:15:52Z</time>
      </trkpt>
      <trkpt lat="49.86874" lon="2.41982">
        <ele>59.8</ele>
        <time>2022-01-05T15:15:53Z</time>
      </trkpt>
      <trkpt lat="49.86874" lon="2.4198">
        <ele>59.8</ele>
        <time>2022-01-05T15:15:54Z</time>
      </trkpt>
      <trkpt lat="49.86873" lon="2.41979">
        <ele>59.8</ele>
        <time>2022-01-05T15:15:55Z</time>
      </trkpt>
      <trkpt lat="49.86873" lon="2.41978">
        <ele>59.8</ele>
        <time>2022-01-05T15:15:57Z</time>
      </trkpt>
      <trkpt lat="49.86873" lon="2.41976">
        <ele>59.8</ele>
        <time>2022-01-05T15:15:58Z</time>
      </trkpt>
      <trkpt lat="49.86874" lon="2.41974">
        <ele>59.8</ele>
        <time>2022-01-05T15:15:59Z</time>
      </trkpt>
      <trkpt lat="49.86874" lon="2.41972">
        <ele>59.8</ele>
        <time>2022-01-05T15:16:00Z</time>
      </trkpt>
      <trkpt lat="49.86874" lon="2.4197">
        <ele>59.8</ele>
        <time>2022-01-05T15:16:02Z</time>
      </trkpt>
      <trkpt lat="49.86874" lon="2.41967">
        <ele>59.8</ele>
        <time>2022-01-05T15:16:03Z</time>
      </trkpt>
      <trkpt lat="49.86874" lon="2.41966">
        <ele>59.8</ele>
        <time>2022-01-05T15:16:04Z</time>
      </trkpt>
      <trkpt lat="49.86874" lon="2.41965">
        <ele>59.8</ele>
        <time>2022-01-05T15:16:05Z</time>
      </trkpt>
      <trkpt lat="49.86874" lon="2.41961">
        <ele>59.8</ele>
        <time>2022-01-05T15:16:06Z</time>
      </trkpt>
      <trkpt lat="49.86874" lon="2.41959">
        <ele>59.8</ele>
        <time>2022-01-05T15:16:08Z</time>
      </trkpt>
      <trkpt lat="49.86874" lon="2.41957">
        <ele>59.8</ele>
        <time>2022-01-05T15:16:09Z</time>
      </trkpt>
      <trkpt lat="49.86874" lon="2.41955">
        <ele>59.8</ele>
        <time>2022-01-05T15:16:10Z</time>
      </trkpt>
      <trkpt lat="49.86874" lon="2.41953">
        <ele>59.8</ele>
        <time>2022-01-05T15:16:11Z</time>
      </trkpt>
      <trkpt lat="49.86874" lon="2.4195">
        <ele>59.8</ele>
        <time>2022-01-05T15:16:13Z</time>
      </trkpt>
      <trkpt lat="49.86874" lon="2.41948">
        <ele>59.8</ele>
        <time>2022-01-05T15:16:14Z</time>
      </trkpt>
      <trkpt lat="49.86874" lon="2.41945">
        <ele>59.8</ele>
        <time>2022-01-05T15:16:15Z</time>
      </trkpt>
      <trkpt lat="49.86874" lon="2.41941">
        <ele>59.8</ele>
        <time>2022-01-05T15:16:17Z</time>
      </trkpt>
      <trkpt lat="49.86874" lon="2.41936">
        <ele>59.8</ele>
        <time>2022-01-05T15:16:19Z</time>
      </trkpt>
      <trkpt lat="49.86874" lon="2.41935">
        <ele>59.8</ele>
        <time>2022-01-05T15:16:20Z</time>
      </trkpt>
      <trkpt lat="49.86874" lon="2.41931">
        <ele>59.8</ele>
        <time>2022-01-05T15:16:21Z</time>
      </trkpt>
      <trkpt lat="49.86874" lon="2.41929">
        <ele>59.8</ele>
        <time>2022-01-05T15:16:22Z</time>
      </trkpt>
      <trkpt lat="49.86874" lon="2.41927">
        <ele>59.8</ele>
        <time>2022-01-05T15:16:23Z</time>
      </trkpt>
      <trkpt lat="49.86874" lon="2.41925">
        <ele>59.8</ele>
        <time>2022-01-05T15:16:24Z</time>
      </trkpt>
      <trkpt lat="49.86874" lon="2.41923">
        <ele>59.8</ele>
        <time>2022-01-05T15:16:26Z</time>
      </trkpt>
      <trkpt lat="49.86874" lon="2.41919">
        <ele>59.8</ele>
        <time>2022-01-05T15:16:27Z</time>
      </trkpt>
      <trkpt lat="49.86874" lon="2.41917">
        <ele>59.8</ele>
        <time>2022-01-05T15:16:29Z</time>
      </trkpt>
      <trkpt lat="49.86873" lon="2.41915">
        <ele>59.8</ele>
        <time>2022-01-05T15:16:30Z</time>
      </trkpt>
      <trkpt lat="49.86873" lon="2.41914">
        <ele>59.8</ele>
        <time>2022-01-05T15:16:31Z</time>
      </trkpt>
      <trkpt lat="49.86873" lon="2.41912">
        <ele>59.8</ele>
        <time>2022-01-05T15:16:32Z</time>
      </trkpt>
      <trkpt lat="49.86873" lon="2.41908">
        <ele>59.8</ele>
        <time>2022-01-05T15:16:33Z</time>
      </trkpt>
      <trkpt lat="49.86872" lon="2.41906">
        <ele>59.8</ele>
        <time>2022-01-05T15:16:34Z</time>
      </trkpt>
      <trkpt lat="49.86872" lon="2.41904">
        <ele>59.8</ele>
        <time>2022-01-05T15:16:35Z</time>
      </trkpt>
      <trkpt lat="49.86872" lon="2.41902">
        <ele>59.8</ele>
        <time>2022-01-05T15:16:36Z</time>
      </trkpt>
      <trkpt lat="49.86872" lon="2.419">
        <ele>59.8</ele>
        <time>2022-01-05T15:16:38Z</time>
      </trkpt>
      <trkpt lat="49.86872" lon="2.41898">
        <ele>59.8</ele>
        <time>2022-01-05T15:16:39Z</time>
      </trkpt>
      <trkpt lat="49.86872" lon="2.41895">
        <ele>59.8</ele>
        <time>2022-01-05T15:16:40Z</time>
      </trkpt>
      <trkpt lat="49.86872" lon="2.41893">
        <ele>59.8</ele>
        <time>2022-01-05T15:16:41Z</time>
      </trkpt>
      <trkpt lat="49.86872" lon="2.4189">
        <ele>59.8</ele>
        <time>2022-01-05T15:16:42Z</time>
      </trkpt>
      <trkpt lat="49.86872" lon="2.41888">
        <ele>59.8</ele>
        <time>2022-01-05T15:16:43Z</time>
      </trkpt>
      <trkpt lat="49.86872" lon="2.41886">
        <ele>59.8</ele>
        <time>2022-01-05T15:16:44Z</time>
      </trkpt>
      <trkpt lat="49.86872" lon="2.41885">
        <ele>59.8</ele>
        <time>2022-01-05T15:16:45Z</time>
      </trkpt>
      <trkpt lat="49.86872" lon="2.41883">
        <ele>59.8</ele>
        <time>2022-01-05T15:16:47Z</time>
      </trkpt>
      <trkpt lat="49.86872" lon="2.41881">
        <ele>59.8</ele>
        <time>2022-01-05T15:16:48Z</time>
      </trkpt>
      <trkpt lat="49.86872" lon="2.41877">
        <ele>59.8</ele>
        <time>2022-01-05T15:16:50Z</time>
      </trkpt>
      <trkpt lat="49.86872" lon="2.41876">
        <ele>59.8</ele>
        <time>2022-01-05T15:16:51Z</time>
      </trkpt>
      <trkpt lat="49.86872" lon="2.41873">
        <ele>59.8</ele>
        <time>2022-01-05T15:16:52Z</time>
      </trkpt>
      <trkpt lat="49.86872" lon="2.4187">
        <ele>59.8</ele>
        <time>2022-01-05T15:16:53Z</time>
      </trkpt>
      <trkpt lat="49.86872" lon="2.41866">
        <ele>59.8</ele>
        <time>2022-01-05T15:16:55Z</time>
      </trkpt>
      <trkpt lat="49.86872" lon="2.41864">
        <ele>59.8</ele>
        <time>2022-01-05T15:16:56Z</time>
      </trkpt>
      <trkpt lat="49.86872" lon="2.41861">
        <ele>59.8</ele>
        <time>2022-01-05T15:16:58Z</time>
      </trkpt>
      <trkpt lat="49.86872" lon="2.41859">
        <ele>59.8</ele>
        <time>2022-01-05T15:16:59Z</time>
      </trkpt>
      <trkpt lat="49.86872" lon="2.41857">
        <ele>59.8</ele>
        <time>2022-01-05T15:17:00Z</time>
      </trkpt>
      <trkpt lat="49.86872" lon="2.41855">
        <ele>59.8</ele>
        <time>2022-01-05T15:17:01Z</time>
      </trkpt>
      <trkpt lat="49.86872" lon="2.41852">
        <ele>59.7</ele>
        <time>2022-01-05T15:17:02Z</time>
      </trkpt>
      <trkpt lat="49.86872" lon="2.41848">
        <ele>59.7</ele>
        <time>2022-01-05T15:17:04Z</time>
      </trkpt>
      <trkpt lat="49.86871" lon="2.41846">
        <ele>59.7</ele>
        <time>2022-01-05T15:17:05Z</time>
      </trkpt>
      <trkpt lat="49.86871" lon="2.41843">
        <ele>59.7</ele>
        <time>2022-01-05T15:17:07Z</time>
      </trkpt>
      <trkpt lat="49.86871" lon="2.41842">
        <ele>59.7</ele>
        <time>2022-01-05T15:17:08Z</time>
      </trkpt>
      <trkpt lat="49.86871" lon="2.4184">
        <ele>59.7</ele>
        <time>2022-01-05T15:17:09Z</time>
      </trkpt>
      <trkpt lat="49.86871" lon="2.41837">
        <ele>59.7</ele>
        <time>2022-01-05T15:17:10Z</time>
      </trkpt>
      <trkpt lat="49.86871" lon="2.41836">
        <ele>59.7</ele>
        <time>2022-01-05T15:17:11Z</time>
      </trkpt>
      <trkpt lat="49.86871" lon="2.41834">
        <ele>59.7</ele>
        <time>2022-01-05T15:17:12Z</time>
      </trkpt>
      <trkpt lat="49.86871" lon="2.41832">
        <ele>59.7</ele>
        <time>2022-01-05T15:17:14Z</time>
      </trkpt>
      <trkpt lat="49.86871" lon="2.4183">
        <ele>59.8</ele>
        <time>2022-01-05T15:17:15Z</time>
      </trkpt>
      <trkpt lat="49.86871" lon="2.41827">
        <ele>59.8</ele>
        <time>2022-01-05T15:17:16Z</time>
      </trkpt>
      <trkpt lat="49.86871" lon="2.41825">
        <ele>59.8</ele>
        <time>2022-01-05T15:17:17Z</time>
      </trkpt>
      <trkpt lat="49.86871" lon="2.41821">
        <ele>59.8</ele>
        <time>2022-01-05T15:17:18Z</time>
      </trkpt>
      <trkpt lat="49.86871" lon="2.41819">
        <ele>59.8</ele>
        <time>2022-01-05T15:17:20Z</time>
      </trkpt>
      <trkpt lat="49.86871" lon="2.41818">
        <ele>59.8</ele>
        <time>2022-01-05T15:17:21Z</time>
      </trkpt>
      <trkpt lat="49.86871" lon="2.41816">
        <ele>59.8</ele>
        <time>2022-01-05T15:17:22Z</time>
      </trkpt>
      <trkpt lat="49.86871" lon="2.41814">
        <ele>59.8</ele>
        <time>2022-01-05T15:17:23Z</time>
      </trkpt>
      <trkpt lat="49.86871" lon="2.41811">
        <ele>59.8</ele>
        <time>2022-01-05T15:17:24Z</time>
      </trkpt>
      <trkpt lat="49.86871" lon="2.4181">
        <ele>59.8</ele>
        <time>2022-01-05T15:17:25Z</time>
      </trkpt>
      <trkpt lat="49.86871" lon="2.41809">
        <ele>59.8</ele>
        <time>2022-01-05T15:17:26Z</time>
      </trkpt>
      <trkpt lat="49.86872" lon="2.41807">
        <ele>59.8</ele>
        <time>2022-01-05T15:17:28Z</time>
      </trkpt>
      <trkpt lat="49.86872" lon="2.41803">
        <ele>59.8</ele>
        <time>2022-01-05T15:17:30Z</time>
      </trkpt>
      <trkpt lat="49.86872" lon="2.41801">
        <ele>59.8</ele>
        <time>2022-01-05T15:17:31Z</time>
      </trkpt>
      <trkpt lat="49.86872" lon="2.41799">
        <ele>59.8</ele>
        <time>2022-01-05T15:17:32Z</time>
      </trkpt>
      <trkpt lat="49.86872" lon="2.41796">
        <ele>59.8</ele>
        <time>2022-01-05T15:17:33Z</time>
      </trkpt>
      <trkpt lat="49.86871" lon="2.41794">
        <ele>59.8</ele>
        <time>2022-01-05T15:17:34Z</time>
      </trkpt>
      <trkpt lat="49.86871" lon="2.41792">
        <ele>59.8</ele>
        <time>2022-01-05T15:17:36Z</time>
      </trkpt>
      <trkpt lat="49.86871" lon="2.41791">
        <ele>59.8</ele>
        <time>2022-01-05T15:17:37Z</time>
      </trkpt>
      <trkpt lat="49.86871" lon="2.41789">
        <ele>59.8</ele>
        <time>2022-01-05T15:17:38Z</time>
      </trkpt>
      <trkpt lat="49.86871" lon="2.41787">
        <ele>59.8</ele>
        <time>2022-01-05T15:17:39Z</time>
      </trkpt>
      <trkpt lat="49.86871" lon="2.41785">
        <ele>59.8</ele>
        <time>2022-01-05T15:17:40Z</time>
      </trkpt>
      <trkpt lat="49.86871" lon="2.41784">
        <ele>59.8</ele>
        <time>2022-01-05T15:17:42Z</time>
      </trkpt>
      <trkpt lat="49.8687" lon="2.41782">
        <ele>59.8</ele>
        <time>2022-01-05T15:17:43Z</time>
      </trkpt>
      <trkpt lat="49.8687" lon="2.4178">
        <ele>59.8</ele>
        <time>2022-01-05T15:17:44Z</time>
      </trkpt>
      <trkpt lat="49.8687" lon="2.41778">
        <ele>59.8</ele>
        <time>2022-01-05T15:17:45Z</time>
      </trkpt>
      <trkpt lat="49.8687" lon="2.41775">
        <ele>59.8</ele>
        <time>2022-01-05T15:17:47Z</time>
      </trkpt>
      <trkpt lat="49.8687" lon="2.41773">
        <ele>59.8</ele>
        <time>2022-01-05T15:17:48Z</time>
      </trkpt>
      <trkpt lat="49.8687" lon="2.41772">
        <ele>59.8</ele>
        <time>2022-01-05T15:17:49Z</time>
      </trkpt>
      <trkpt lat="49.86869" lon="2.41769">
        <ele>59.8</ele>
        <time>2022-01-05T15:17:50Z</time>
      </trkpt>
      <trkpt lat="49.86869" lon="2.41767">
        <ele>59.8</ele>
        <time>2022-01-05T15:17:52Z</time>
      </trkpt>
      <trkpt lat="49.86869" lon="2.41766">
        <ele>59.8</ele>
        <time>2022-01-05T15:17:53Z</time>
      </trkpt>
      <trkpt lat="49.86869" lon="2.41763">
        <ele>59.8</ele>
        <time>2022-01-05T15:17:54Z</time>
      </trkpt>
      <trkpt lat="49.86869" lon="2.41762">
        <ele>59.8</ele>
        <time>2022-01-05T15:17:55Z</time>
      </trkpt>
      <trkpt lat="49.86869" lon="2.4176">
        <ele>59.8</ele>
        <time>2022-01-05T15:17:56Z</time>
      </trkpt>
      <trkpt lat="49.86869" lon="2.41757">
        <ele>59.8</ele>
        <time>2022-01-05T15:17:57Z</time>
      </trkpt>
      <trkpt lat="49.86869" lon="2.41756">
        <ele>59.8</ele>
        <time>2022-01-05T15:17:58Z</time>
      </trkpt>
      <trkpt lat="49.86869" lon="2.41754">
        <ele>59.8</ele>
        <time>2022-01-05T15:17:59Z</time>
      </trkpt>
      <trkpt lat="49.86869" lon="2.41751">
        <ele>59.8</ele>
        <time>2022-01-05T15:18:00Z</time>
      </trkpt>
      <trkpt lat="49.86869" lon="2.4175">
        <ele>59.8</ele>
        <time>2022-01-05T15:18:01Z</time>
      </trkpt>
      <trkpt lat="49.86869" lon="2.41749">
        <ele>59.8</ele>
        <time>2022-01-05T15:18:02Z</time>
      </trkpt>
      <trkpt lat="49.86869" lon="2.41745">
        <ele>59.8</ele>
        <time>2022-01-05T15:18:03Z</time>
      </trkpt>
      <trkpt lat="49.86869" lon="2.41744">
        <ele>59.8</ele>
        <time>2022-01-05T15:18:05Z</time>
      </trkpt>
      <trkpt lat="49.86869" lon="2.41742">
        <ele>59.8</ele>
        <time>2022-01-05T15:18:06Z</time>
      </trkpt>
      <trkpt lat="49.86869" lon="2.41739">
        <ele>59.8</ele>
        <time>2022-01-05T15:18:07Z</time>
      </trkpt>
      <trkpt lat="49.86869" lon="2.41737">
        <ele>59.8</ele>
        <time>2022-01-05T15:18:09Z</time>
      </trkpt>
      <trkpt lat="49.8687" lon="2.41735">
        <ele>59.8</ele>
        <time>2022-01-05T15:18:10Z</time>
      </trkpt>
      <trkpt lat="49.8687" lon="2.41733">
        <ele>59.8</ele>
        <time>2022-01-05T15:18:11Z</time>
      </trkpt>
      <trkpt lat="49.8687" lon="2.41731">
        <ele>59.8</ele>
        <time>2022-01-05T15:18:13Z</time>
      </trkpt>
      <trkpt lat="49.8687" lon="2.41729">
        <ele>59.8</ele>
        <time>2022-01-05T15:18:14Z</time>
      </trkpt>
      <trkpt lat="49.8687" lon="2.41727">
        <ele>59.8</ele>
        <time>2022-01-05T15:18:15Z</time>
      </trkpt>
      <trkpt lat="49.8687" lon="2.41725">
        <ele>59.8</ele>
        <time>2022-01-05T15:18:16Z</time>
      </trkpt>
      <trkpt lat="49.8687" lon="2.41722">
        <ele>59.8</ele>
        <time>2022-01-05T15:18:17Z</time>
      </trkpt>
      <trkpt lat="49.8687" lon="2.4172">
        <ele>59.8</ele>
        <time>2022-01-05T15:18:18Z</time>
      </trkpt>
      <trkpt lat="49.8687" lon="2.41719">
        <ele>59.8</ele>
        <time>2022-01-05T15:18:20Z</time>
      </trkpt>
      <trkpt lat="49.8687" lon="2.41717">
        <ele>59.8</ele>
        <time>2022-01-05T15:18:21Z</time>
      </trkpt>
      <trkpt lat="49.8687" lon="2.41715">
        <ele>59.8</ele>
        <time>2022-01-05T15:18:22Z</time>
      </trkpt>
      <trkpt lat="49.8687" lon="2.41714">
        <ele>59.8</ele>
        <time>2022-01-05T15:18:23Z</time>
      </trkpt>
      <trkpt lat="49.8687" lon="2.41712">
        <ele>59.8</ele>
        <time>2022-01-05T15:18:24Z</time>
      </trkpt>
      <trkpt lat="49.8687" lon="2.4171">
        <ele>59.8</ele>
        <time>2022-01-05T15:18:25Z</time>
      </trkpt>
      <trkpt lat="49.8687" lon="2.41708">
        <ele>59.8</ele>
        <time>2022-01-05T15:18:26Z</time>
      </trkpt>
      <trkpt lat="49.86871" lon="2.41705">
        <ele>59.8</ele>
        <time>2022-01-05T15:18:27Z</time>
      </trkpt>
      <trkpt lat="49.86871" lon="2.41704">
        <ele>59.8</ele>
        <time>2022-01-05T15:18:28Z</time>
      </trkpt>
      <trkpt lat="49.86871" lon="2.41703">
        <ele>59.8</ele>
        <time>2022-01-05T15:18:29Z</time>
      </trkpt>
      <trkpt lat="49.86871" lon="2.41701">
        <ele>59.8</ele>
        <time>2022-01-05T15:18:31Z</time>
      </trkpt>
      <trkpt lat="49.86871" lon="2.41699">
        <ele>59.8</ele>
        <time>2022-01-05T15:18:32Z</time>
      </trkpt>
      <trkpt lat="49.86871" lon="2.41696">
        <ele>59.8</ele>
        <time>2022-01-05T15:18:33Z</time>
      </trkpt>
      <trkpt lat="49.86871" lon="2.41694">
        <ele>59.8</ele>
        <time>2022-01-05T15:18:34Z</time>
      </trkpt>
      <trkpt lat="49.86871" lon="2.41691">
        <ele>59.8</ele>
        <time>2022-01-05T15:18:36Z</time>
      </trkpt>
      <trkpt lat="49.86871" lon="2.41688">
        <ele>59.8</ele>
        <time>2022-01-05T15:18:38Z</time>
      </trkpt>
      <trkpt lat="49.86871" lon="2.41685">
        <ele>59.8</ele>
        <time>2022-01-05T15:18:39Z</time>
      </trkpt>
      <trkpt lat="49.86871" lon="2.41683">
        <ele>59.8</ele>
        <time>2022-01-05T15:18:40Z</time>
      </trkpt>
      <trkpt lat="49.86871" lon="2.41682">
        <ele>59.9</ele>
        <time>2022-01-05T15:18:41Z</time>
      </trkpt>
      <trkpt lat="49.86871" lon="2.41679">
        <ele>59.9</ele>
        <time>2022-01-05T15:18:42Z</time>
      </trkpt>
      <trkpt lat="49.86871" lon="2.41677">
        <ele>59.9</ele>
        <time>2022-01-05T15:18:44Z</time>
      </trkpt>
      <trkpt lat="49.86871" lon="2.41676">
        <ele>59.9</ele>
        <time>2022-01-05T15:18:45Z</time>
      </trkpt>
      <trkpt lat="49.86871" lon="2.41673">
        <ele>59.9</ele>
        <time>2022-01-05T15:18:46Z</time>
      </trkpt>
      <trkpt lat="49.86871" lon="2.41671">
        <ele>59.9</ele>
        <time>2022-01-05T15:18:47Z</time>
      </trkpt>
      <trkpt lat="49.8687" lon="2.4167">
        <ele>59.9</ele>
        <time>2022-01-05T15:18:48Z</time>
      </trkpt>
      <trkpt lat="49.8687" lon="2.41667">
        <ele>59.9</ele>
        <time>2022-01-05T15:18:50Z</time>
      </trkpt>
      <trkpt lat="49.8687" lon="2.41665">
        <ele>59.9</ele>
        <time>2022-01-05T15:18:51Z</time>
      </trkpt>
      <trkpt lat="49.8687" lon="2.41662">
        <ele>59.9</ele>
        <time>2022-01-05T15:18:52Z</time>
      </trkpt>
      <trkpt lat="49.8687" lon="2.4166">
        <ele>59.9</ele>
        <time>2022-01-05T15:18:53Z</time>
      </trkpt>
      <trkpt lat="49.8687" lon="2.41659">
        <ele>59.9</ele>
        <time>2022-01-05T15:18:54Z</time>
      </trkpt>
      <trkpt lat="49.8687" lon="2.41657">
        <ele>59.9</ele>
        <time>2022-01-05T15:18:55Z</time>
      </trkpt>
      <trkpt lat="49.8687" lon="2.41655">
        <ele>59.9</ele>
        <time>2022-01-05T15:18:56Z</time>
      </trkpt>
      <trkpt lat="49.8687" lon="2.41652">
        <ele>59.9</ele>
        <time>2022-01-05T15:18:58Z</time>
      </trkpt>
      <trkpt lat="49.8687" lon="2.4165">
        <ele>59.9</ele>
        <time>2022-01-05T15:18:59Z</time>
      </trkpt>
      <trkpt lat="49.8687" lon="2.41647">
        <ele>59.9</ele>
        <time>2022-01-05T15:19:00Z</time>
      </trkpt>
      <trkpt lat="49.8687" lon="2.41645">
        <ele>59.9</ele>
        <time>2022-01-05T15:19:01Z</time>
      </trkpt>
      <trkpt lat="49.8687" lon="2.41642">
        <ele>59.9</ele>
        <time>2022-01-05T15:19:02Z</time>
      </trkpt>
      <trkpt lat="49.8687" lon="2.4164">
        <ele>59.9</ele>
        <time>2022-01-05T15:19:03Z</time>
      </trkpt>
      <trkpt lat="49.8687" lon="2.41638">
        <ele>59.9</ele>
        <time>2022-01-05T15:19:05Z</time>
      </trkpt>
      <trkpt lat="49.8687" lon="2.41636">
        <ele>59.9</ele>
        <time>2022-01-05T15:19:06Z</time>
      </trkpt>
      <trkpt lat="49.8687" lon="2.41634">
        <ele>59.9</ele>
        <time>2022-01-05T15:19:07Z</time>
      </trkpt>
      <trkpt lat="49.8687" lon="2.41632">
        <ele>59.9</ele>
        <time>2022-01-05T15:19:08Z</time>
      </trkpt>
      <trkpt lat="49.8687" lon="2.41629">
        <ele>59.9</ele>
        <time>2022-01-05T15:19:10Z</time>
      </trkpt>
      <trkpt lat="49.86871" lon="2.41626">
        <ele>59.9</ele>
        <time>2022-01-05T15:19:11Z</time>
      </trkpt>
      <trkpt lat="49.86871" lon="2.41624">
        <ele>59.9</ele>
        <time>2022-01-05T15:19:12Z</time>
      </trkpt>
      <trkpt lat="49.86871" lon="2.41622">
        <ele>59.9</ele>
        <time>2022-01-05T15:19:13Z</time>
      </trkpt>
      <trkpt lat="49.86871" lon="2.41619">
        <ele>59.9</ele>
        <time>2022-01-05T15:19:15Z</time>
      </trkpt>
      <trkpt lat="49.86871" lon="2.41618">
        <ele>59.9</ele>
        <time>2022-01-05T15:19:16Z</time>
      </trkpt>
      <trkpt lat="49.86871" lon="2.41616">
        <ele>59.9</ele>
        <time>2022-01-05T15:19:17Z</time>
      </trkpt>
      <trkpt lat="49.86871" lon="2.41612">
        <ele>59.9</ele>
        <time>2022-01-05T15:19:18Z</time>
      </trkpt>
      <trkpt lat="49.86871" lon="2.41611">
        <ele>59.9</ele>
        <time>2022-01-05T15:19:20Z</time>
      </trkpt>
      <trkpt lat="49.86871" lon="2.41609">
        <ele>59.9</ele>
        <time>2022-01-05T15:19:21Z</time>
      </trkpt>
      <trkpt lat="49.86871" lon="2.41607">
        <ele>59.9</ele>
        <time>2022-01-05T15:19:22Z</time>
      </trkpt>
      <trkpt lat="49.8687" lon="2.41605">
        <ele>59.9</ele>
        <time>2022-01-05T15:19:23Z</time>
      </trkpt>
      <trkpt lat="49.8687" lon="2.41602">
        <ele>60</ele>
        <time>2022-01-05T15:19:24Z</time>
      </trkpt>
      <trkpt lat="49.8687" lon="2.41601">
        <ele>60</ele>
        <time>2022-01-05T15:19:25Z</time>
      </trkpt>
      <trkpt lat="49.8687" lon="2.41599">
        <ele>60</ele>
        <time>2022-01-05T15:19:26Z</time>
      </trkpt>
      <trkpt lat="49.86869" lon="2.41597">
        <ele>60</ele>
        <time>2022-01-05T15:19:27Z</time>
      </trkpt>
      <trkpt lat="49.86869" lon="2.41595">
        <ele>60</ele>
        <time>2022-01-05T15:19:29Z</time>
      </trkpt>
      <trkpt lat="49.86868" lon="2.41593">
        <ele>60</ele>
        <time>2022-01-05T15:19:30Z</time>
      </trkpt>
      <trkpt lat="49.86868" lon="2.4159">
        <ele>60</ele>
        <time>2022-01-05T15:19:32Z</time>
      </trkpt>
      <trkpt lat="49.86868" lon="2.41587">
        <ele>60</ele>
        <time>2022-01-05T15:19:33Z</time>
      </trkpt>
      <trkpt lat="49.86867" lon="2.41585">
        <ele>59.9</ele>
        <time>2022-01-05T15:19:34Z</time>
      </trkpt>
      <trkpt lat="49.86867" lon="2.4158">
        <ele>59.9</ele>
        <time>2022-01-05T15:19:36Z</time>
      </trkpt>
      <trkpt lat="49.86867" lon="2.41579">
        <ele>59.9</ele>
        <time>2022-01-05T15:19:37Z</time>
      </trkpt>
      <trkpt lat="49.86866" lon="2.41574">
        <ele>59.9</ele>
        <time>2022-01-05T15:19:38Z</time>
      </trkpt>
      <trkpt lat="49.86866" lon="2.41573">
        <ele>59.9</ele>
        <time>2022-01-05T15:19:39Z</time>
      </trkpt>
      <trkpt lat="49.86865" lon="2.4157">
        <ele>59.9</ele>
        <time>2022-01-05T15:19:40Z</time>
      </trkpt>
      <trkpt lat="49.86865" lon="2.41569">
        <ele>59.9</ele>
        <time>2022-01-05T15:19:42Z</time>
      </trkpt>
      <trkpt lat="49.86865" lon="2.41568">
        <ele>59.9</ele>
        <time>2022-01-05T15:19:43Z</time>
      </trkpt>
      <trkpt lat="49.86865" lon="2.41566">
        <ele>59.9</ele>
        <time>2022-01-05T15:19:44Z</time>
      </trkpt>
      <trkpt lat="49.86865" lon="2.41564">
        <ele>59.9</ele>
        <time>2022-01-05T15:19:45Z</time>
      </trkpt>
      <trkpt lat="49.86865" lon="2.41562">
        <ele>59.9</ele>
        <time>2022-01-05T15:19:46Z</time>
      </trkpt>
      <trkpt lat="49.86864" lon="2.41558">
        <ele>59.9</ele>
        <time>2022-01-05T15:19:47Z</time>
      </trkpt>
      <trkpt lat="49.86864" lon="2.41557">
        <ele>59.9</ele>
        <time>2022-01-05T15:19:48Z</time>
      </trkpt>
      <trkpt lat="49.86864" lon="2.41555">
        <ele>60</ele>
        <time>2022-01-05T15:19:50Z</time>
      </trkpt>
      <trkpt lat="49.86864" lon="2.41552">
        <ele>60</ele>
        <time>2022-01-05T15:19:51Z</time>
      </trkpt>
      <trkpt lat="49.86864" lon="2.4155">
        <ele>60</ele>
        <time>2022-01-05T15:19:52Z</time>
      </trkpt>
      <trkpt lat="49.86863" lon="2.41548">
        <ele>60</ele>
        <time>2022-01-05T15:19:53Z</time>
      </trkpt>
      <trkpt lat="49.86864" lon="2.41545">
        <ele>60</ele>
        <time>2022-01-05T15:19:55Z</time>
      </trkpt>
      <trkpt lat="49.86864" lon="2.41544">
        <ele>60</ele>
        <time>2022-01-05T15:19:56Z</time>
      </trkpt>
      <trkpt lat="49.86864" lon="2.41542">
        <ele>60</ele>
        <time>2022-01-05T15:19:57Z</time>
      </trkpt>
      <trkpt lat="49.86864" lon="2.41541">
        <ele>60</ele>
        <time>2022-01-05T15:19:58Z</time>
      </trkpt>
      <trkpt lat="49.86865" lon="2.41537">
        <ele>60</ele>
        <time>2022-01-05T15:19:59Z</time>
      </trkpt>
      <trkpt lat="49.86865" lon="2.41534">
        <ele>60</ele>
        <time>2022-01-05T15:20:00Z</time>
      </trkpt>
      <trkpt lat="49.86865" lon="2.41532">
        <ele>60</ele>
        <time>2022-01-05T15:20:02Z</time>
      </trkpt>
      <trkpt lat="49.86865" lon="2.4153">
        <ele>60</ele>
        <time>2022-01-05T15:20:03Z</time>
      </trkpt>
      <trkpt lat="49.86865" lon="2.41529">
        <ele>60</ele>
        <time>2022-01-05T15:20:04Z</time>
      </trkpt>
      <trkpt lat="49.86866" lon="2.41527">
        <ele>60</ele>
        <time>2022-01-05T15:20:05Z</time>
      </trkpt>
      <trkpt lat="49.86865" lon="2.41525">
        <ele>60</ele>
        <time>2022-01-05T15:20:06Z</time>
      </trkpt>
      <trkpt lat="49.86865" lon="2.41523">
        <ele>60</ele>
        <time>2022-01-05T15:20:08Z</time>
      </trkpt>
      <trkpt lat="49.86866" lon="2.41521">
        <ele>60</ele>
        <time>2022-01-05T15:20:09Z</time>
      </trkpt>
      <trkpt lat="49.86866" lon="2.41518">
        <ele>60</ele>
        <time>2022-01-05T15:20:10Z</time>
      </trkpt>
      <trkpt lat="49.86866" lon="2.41516">
        <ele>60</ele>
        <time>2022-01-05T15:20:12Z</time>
      </trkpt>
      <trkpt lat="49.86866" lon="2.41514">
        <ele>60</ele>
        <time>2022-01-05T15:20:13Z</time>
      </trkpt>
      <trkpt lat="49.86866" lon="2.41512">
        <ele>60</ele>
        <time>2022-01-05T15:20:14Z</time>
      </trkpt>
      <trkpt lat="49.86866" lon="2.41511">
        <ele>60</ele>
        <time>2022-01-05T15:20:15Z</time>
      </trkpt>
      <trkpt lat="49.86866" lon="2.41509">
        <ele>60</ele>
        <time>2022-01-05T15:20:16Z</time>
      </trkpt>
      <trkpt lat="49.86866" lon="2.41508">
        <ele>60</ele>
        <time>2022-01-05T15:20:17Z</time>
      </trkpt>
      <trkpt lat="49.86867" lon="2.41505">
        <ele>60</ele>
        <time>2022-01-05T15:20:19Z</time>
      </trkpt>
      <trkpt lat="49.86867" lon="2.41503">
        <ele>60</ele>
        <time>2022-01-05T15:20:20Z</time>
      </trkpt>
      <trkpt lat="49.86867" lon="2.41502">
        <ele>60.1</ele>
        <time>2022-01-05T15:20:21Z</time>
      </trkpt>
      <trkpt lat="49.86868" lon="2.415">
        <ele>60.1</ele>
        <time>2022-01-05T15:20:22Z</time>
      </trkpt>
      <trkpt lat="49.86868" lon="2.41498">
        <ele>60.1</ele>
        <time>2022-01-05T15:20:24Z</time>
      </trkpt>
      <trkpt lat="49.86868" lon="2.41496">
        <ele>60.1</ele>
        <time>2022-01-05T15:20:25Z</time>
      </trkpt>
      <trkpt lat="49.86868" lon="2.41492">
        <ele>60.1</ele>
        <time>2022-01-05T15:20:27Z</time>
      </trkpt>
      <trkpt lat="49.86868" lon="2.4149">
        <ele>60.1</ele>
        <time>2022-01-05T15:20:28Z</time>
      </trkpt>
      <trkpt lat="49.86868" lon="2.41488">
        <ele>60.1</ele>
        <time>2022-01-05T15:20:29Z</time>
      </trkpt>
      <trkpt lat="49.86868" lon="2.41485">
        <ele>60.1</ele>
        <time>2022-01-05T15:20:31Z</time>
      </trkpt>
      <trkpt lat="49.86868" lon="2.41482">
        <ele>60.1</ele>
        <time>2022-01-05T15:20:32Z</time>
      </trkpt>
      <trkpt lat="49.86868" lon="2.4148">
        <ele>60.1</ele>
        <time>2022-01-05T15:20:33Z</time>
      </trkpt>
      <trkpt lat="49.86868" lon="2.41479">
        <ele>60.1</ele>
        <time>2022-01-05T15:20:34Z</time>
      </trkpt>
      <trkpt lat="49.86868" lon="2.41477">
        <ele>60.1</ele>
        <time>2022-01-05T15:20:35Z</time>
      </trkpt>
      <trkpt lat="49.86868" lon="2.41475">
        <ele>60.1</ele>
        <time>2022-01-05T15:20:36Z</time>
      </trkpt>
      <trkpt lat="49.86869" lon="2.41472">
        <ele>60.1</ele>
        <time>2022-01-05T15:20:37Z</time>
      </trkpt>
      <trkpt lat="49.86869" lon="2.4147">
        <ele>60.1</ele>
        <time>2022-01-05T15:20:39Z</time>
      </trkpt>
      <trkpt lat="49.86869" lon="2.41466">
        <ele>60.1</ele>
        <time>2022-01-05T15:20:40Z</time>
      </trkpt>
      <trkpt lat="49.86869" lon="2.41464">
        <ele>60.1</ele>
        <time>2022-01-05T15:20:42Z</time>
      </trkpt>
      <trkpt lat="49.86869" lon="2.41462">
        <ele>60.1</ele>
        <time>2022-01-05T15:20:43Z</time>
      </trkpt>
      <trkpt lat="49.86869" lon="2.41459">
        <ele>60.1</ele>
        <time>2022-01-05T15:20:45Z</time>
      </trkpt>
      <trkpt lat="49.86868" lon="2.41456">
        <ele>60.1</ele>
        <time>2022-01-05T15:20:46Z</time>
      </trkpt>
      <trkpt lat="49.86868" lon="2.41454">
        <ele>60.1</ele>
        <time>2022-01-05T15:20:47Z</time>
      </trkpt>
      <trkpt lat="49.86868" lon="2.41452">
        <ele>60.2</ele>
        <time>2022-01-05T15:20:48Z</time>
      </trkpt>
      <trkpt lat="49.86868" lon="2.4145">
        <ele>60.2</ele>
        <time>2022-01-05T15:20:50Z</time>
      </trkpt>
      <trkpt lat="49.86868" lon="2.41447">
        <ele>60.2</ele>
        <time>2022-01-05T15:20:51Z</time>
      </trkpt>
      <trkpt lat="49.86867" lon="2.41445">
        <ele>60.2</ele>
        <time>2022-01-05T15:20:52Z</time>
      </trkpt>
      <trkpt lat="49.86867" lon="2.41441">
        <ele>60.2</ele>
        <time>2022-01-05T15:20:53Z</time>
      </trkpt>
      <trkpt lat="49.86867" lon="2.4144">
        <ele>60.2</ele>
        <time>2022-01-05T15:20:54Z</time>
      </trkpt>
      <trkpt lat="49.86867" lon="2.41438">
        <ele>60.2</ele>
        <time>2022-01-05T15:20:55Z</time>
      </trkpt>
      <trkpt lat="49.86867" lon="2.41436">
        <ele>60.3</ele>
        <time>2022-01-05T15:20:57Z</time>
      </trkpt>
      <trkpt lat="49.86866" lon="2.41433">
        <ele>60.3</ele>
        <time>2022-01-05T15:20:58Z</time>
      </trkpt>
      <trkpt lat="49.86866" lon="2.41431">
        <ele>60.3</ele>
        <time>2022-01-05T15:20:59Z</time>
      </trkpt>
      <trkpt lat="49.86866" lon="2.41429">
        <ele>60.3</ele>
        <time>2022-01-05T15:21:00Z</time>
      </trkpt>
      <trkpt lat="49.86866" lon="2.41426">
        <ele>60.4</ele>
        <time>2022-01-05T15:21:01Z</time>
      </trkpt>
      <trkpt lat="49.86866" lon="2.41424">
        <ele>60.4</ele>
        <time>2022-01-05T15:21:03Z</time>
      </trkpt>
      <trkpt lat="49.86866" lon="2.41422">
        <ele>60.4</ele>
        <time>2022-01-05T15:21:04Z</time>
      </trkpt>
      <trkpt lat="49.86866" lon="2.4142">
        <ele>60.4</ele>
        <time>2022-01-05T15:21:05Z</time>
      </trkpt>
      <trkpt lat="49.86866" lon="2.41417">
        <ele>60.5</ele>
        <time>2022-01-05T15:21:07Z</time>
      </trkpt>
      <trkpt lat="49.86866" lon="2.41415">
        <ele>60.5</ele>
        <time>2022-01-05T15:21:08Z</time>
      </trkpt>
      <trkpt lat="49.86866" lon="2.41412">
        <ele>60.5</ele>
        <time>2022-01-05T15:21:09Z</time>
      </trkpt>
      <trkpt lat="49.86866" lon="2.41409">
        <ele>60.5</ele>
        <time>2022-01-05T15:21:10Z</time>
      </trkpt>
      <trkpt lat="49.86866" lon="2.41407">
        <ele>60.5</ele>
        <time>2022-01-05T15:21:11Z</time>
      </trkpt>
      <trkpt lat="49.86866" lon="2.41406">
        <ele>60.5</ele>
        <time>2022-01-05T15:21:12Z</time>
      </trkpt>
      <trkpt lat="49.86866" lon="2.41404">
        <ele>60.5</ele>
        <time>2022-01-05T15:21:14Z</time>
      </trkpt>
      <trkpt lat="49.86866" lon="2.41402">
        <ele>60.5</ele>
        <time>2022-01-05T15:21:15Z</time>
      </trkpt>
      <trkpt lat="49.86866" lon="2.41399">
        <ele>60.5</ele>
        <time>2022-01-05T15:21:17Z</time>
      </trkpt>
      <trkpt lat="49.86866" lon="2.41396">
        <ele>60.5</ele>
        <time>2022-01-05T15:21:18Z</time>
      </trkpt>
      <trkpt lat="49.86867" lon="2.41394">
        <ele>60.5</ele>
        <time>2022-01-05T15:21:19Z</time>
      </trkpt>
      <trkpt lat="49.86867" lon="2.41392">
        <ele>60.5</ele>
        <time>2022-01-05T15:21:20Z</time>
      </trkpt>
      <trkpt lat="49.86867" lon="2.4139">
        <ele>60.5</ele>
        <time>2022-01-05T15:21:21Z</time>
      </trkpt>
      <trkpt lat="49.86867" lon="2.41388">
        <ele>60.5</ele>
        <time>2022-01-05T15:21:22Z</time>
      </trkpt>
      <trkpt lat="49.86867" lon="2.41385">
        <ele>60.5</ele>
        <time>2022-01-05T15:21:24Z</time>
      </trkpt>
      <trkpt lat="49.86867" lon="2.41382">
        <ele>60.5</ele>
        <time>2022-01-05T15:21:26Z</time>
      </trkpt>
      <trkpt lat="49.86867" lon="2.4138">
        <ele>60.5</ele>
        <time>2022-01-05T15:21:27Z</time>
      </trkpt>
      <trkpt lat="49.86867" lon="2.41378">
        <ele>60.4</ele>
        <time>2022-01-05T15:21:28Z</time>
      </trkpt>
      <trkpt lat="49.86866" lon="2.41374">
        <ele>60.4</ele>
        <time>2022-01-05T15:21:29Z</time>
      </trkpt>
      <trkpt lat="49.86866" lon="2.41372">
        <ele>60.4</ele>
        <time>2022-01-05T15:21:31Z</time>
      </trkpt>
      <trkpt lat="49.86866" lon="2.4137">
        <ele>60.4</ele>
        <time>2022-01-05T15:21:32Z</time>
      </trkpt>
      <trkpt lat="49.86866" lon="2.41368">
        <ele>60.4</ele>
        <time>2022-01-05T15:21:33Z</time>
      </trkpt>
      <trkpt lat="49.86866" lon="2.41366">
        <ele>60.4</ele>
        <time>2022-01-05T15:21:34Z</time>
      </trkpt>
      <trkpt lat="49.86865" lon="2.41364">
        <ele>60.4</ele>
        <time>2022-01-05T15:21:35Z</time>
      </trkpt>
      <trkpt lat="49.86865" lon="2.41363">
        <ele>60.4</ele>
        <time>2022-01-05T15:21:36Z</time>
      </trkpt>
      <trkpt lat="49.86865" lon="2.4136">
        <ele>60.4</ele>
        <time>2022-01-05T15:21:38Z</time>
      </trkpt>
      <trkpt lat="49.86865" lon="2.41359">
        <ele>60.4</ele>
        <time>2022-01-05T15:21:39Z</time>
      </trkpt>
      <trkpt lat="49.86865" lon="2.41356">
        <ele>60.4</ele>
        <time>2022-01-05T15:21:40Z</time>
      </trkpt>
      <trkpt lat="49.86865" lon="2.41354">
        <ele>60.4</ele>
        <time>2022-01-05T15:21:41Z</time>
      </trkpt>
      <trkpt lat="49.86864" lon="2.41352">
        <ele>60.4</ele>
        <time>2022-01-05T15:21:42Z</time>
      </trkpt>
      <trkpt lat="49.86864" lon="2.41349">
        <ele>60.4</ele>
        <time>2022-01-05T15:21:44Z</time>
      </trkpt>
      <trkpt lat="49.86864" lon="2.41347">
        <ele>60.4</ele>
        <time>2022-01-05T15:21:45Z</time>
      </trkpt>
      <trkpt lat="49.86865" lon="2.41343">
        <ele>60.4</ele>
        <time>2022-01-05T15:21:46Z</time>
      </trkpt>
      <trkpt lat="49.86865" lon="2.41342">
        <ele>60.4</ele>
        <time>2022-01-05T15:21:47Z</time>
      </trkpt>
      <trkpt lat="49.86865" lon="2.41341">
        <ele>60.4</ele>
        <time>2022-01-05T15:21:48Z</time>
      </trkpt>
      <trkpt lat="49.86864" lon="2.41338">
        <ele>60.4</ele>
        <time>2022-01-05T15:21:49Z</time>
      </trkpt>
      <trkpt lat="49.86864" lon="2.41337">
        <ele>60.4</ele>
        <time>2022-01-05T15:21:50Z</time>
      </trkpt>
      <trkpt lat="49.86864" lon="2.41334">
        <ele>60.4</ele>
        <time>2022-01-05T15:21:52Z</time>
      </trkpt>
      <trkpt lat="49.86864" lon="2.41332">
        <ele>60.4</ele>
        <time>2022-01-05T15:21:53Z</time>
      </trkpt>
      <trkpt lat="49.86863" lon="2.41329">
        <ele>60.5</ele>
        <time>2022-01-05T15:21:54Z</time>
      </trkpt>
      <trkpt lat="49.86863" lon="2.41327">
        <ele>60.5</ele>
        <time>2022-01-05T15:21:55Z</time>
      </trkpt>
      <trkpt lat="49.86863" lon="2.41325">
        <ele>60.5</ele>
        <time>2022-01-05T15:21:56Z</time>
      </trkpt>
      <trkpt lat="49.86863" lon="2.41321">
        <ele>60.5</ele>
        <time>2022-01-05T15:21:57Z</time>
      </trkpt>
      <trkpt lat="49.86862" lon="2.4132">
        <ele>60.5</ele>
        <time>2022-01-05T15:21:59Z</time>
      </trkpt>
      <trkpt lat="49.86862" lon="2.41318">
        <ele>60.5</ele>
        <time>2022-01-05T15:22:00Z</time>
      </trkpt>
      <trkpt lat="49.86862" lon="2.41316">
        <ele>60.5</ele>
        <time>2022-01-05T15:22:01Z</time>
      </trkpt>
      <trkpt lat="49.86862" lon="2.41315">
        <ele>60.5</ele>
        <time>2022-01-05T15:22:02Z</time>
      </trkpt>
      <trkpt lat="49.86862" lon="2.41312">
        <ele>60.5</ele>
        <time>2022-01-05T15:22:03Z</time>
      </trkpt>
      <trkpt lat="49.86862" lon="2.4131">
        <ele>60.6</ele>
        <time>2022-01-05T15:22:04Z</time>
      </trkpt>
      <trkpt lat="49.86862" lon="2.41309">
        <ele>60.6</ele>
        <time>2022-01-05T15:22:05Z</time>
      </trkpt>
      <trkpt lat="49.86862" lon="2.41307">
        <ele>60.6</ele>
        <time>2022-01-05T15:22:07Z</time>
      </trkpt>
      <trkpt lat="49.86862" lon="2.41305">
        <ele>60.6</ele>
        <time>2022-01-05T15:22:08Z</time>
      </trkpt>
      <trkpt lat="49.86862" lon="2.41303">
        <ele>60.6</ele>
        <time>2022-01-05T15:22:09Z</time>
      </trkpt>
      <trkpt lat="49.86862" lon="2.41301">
        <ele>60.6</ele>
        <time>2022-01-05T15:22:10Z</time>
      </trkpt>
      <trkpt lat="49.86862" lon="2.41299">
        <ele>60.6</ele>
        <time>2022-01-05T15:22:11Z</time>
      </trkpt>
      <trkpt lat="49.86862" lon="2.41298">
        <ele>60.6</ele>
        <time>2022-01-05T15:22:12Z</time>
      </trkpt>
      <trkpt lat="49.86862" lon="2.41296">
        <ele>60.6</ele>
        <time>2022-01-05T15:22:13Z</time>
      </trkpt>
      <trkpt lat="49.86862" lon="2.41294">
        <ele>60.6</ele>
        <time>2022-01-05T15:22:14Z</time>
      </trkpt>
      <trkpt lat="49.86863" lon="2.41291">
        <ele>60.6</ele>
        <time>2022-01-05T15:22:15Z</time>
      </trkpt>
      <trkpt lat="49.86863" lon="2.4129">
        <ele>60.6</ele>
        <time>2022-01-05T15:22:17Z</time>
      </trkpt>
      <trkpt lat="49.86863" lon="2.41288">
        <ele>60.6</ele>
        <time>2022-01-05T15:22:18Z</time>
      </trkpt>
      <trkpt lat="49.86864" lon="2.41286">
        <ele>60.6</ele>
        <time>2022-01-05T15:22:19Z</time>
      </trkpt>
      <trkpt lat="49.86864" lon="2.41285">
        <ele>60.6</ele>
        <time>2022-01-05T15:22:20Z</time>
      </trkpt>
      <trkpt lat="49.86865" lon="2.41284">
        <ele>60.6</ele>
        <time>2022-01-05T15:22:21Z</time>
      </trkpt>
      <trkpt lat="49.86866" lon="2.41283">
        <ele>60.6</ele>
        <time>2022-01-05T15:22:23Z</time>
      </trkpt>
      <trkpt lat="49.86867" lon="2.41282">
        <ele>60.6</ele>
        <time>2022-01-05T15:22:24Z</time>
      </trkpt>
      <trkpt lat="49.86868" lon="2.41282">
        <ele>60.6</ele>
        <time>2022-01-05T15:22:25Z</time>
      </trkpt>
      <trkpt lat="49.86868" lon="2.4128">
        <ele>60.7</ele>
        <time>2022-01-05T15:22:26Z</time>
      </trkpt>
      <trkpt lat="49.86869" lon="2.41279">
        <ele>60.7</ele>
        <time>2022-01-05T15:22:28Z</time>
      </trkpt>
      <trkpt lat="49.86869" lon="2.41278">
        <ele>60.7</ele>
        <time>2022-01-05T15:22:29Z</time>
      </trkpt>
      <trkpt lat="49.86869" lon="2.41277">
        <ele>60.7</ele>
        <time>2022-01-05T15:22:30Z</time>
      </trkpt>
      <trkpt lat="49.8687" lon="2.41276">
        <ele>60.7</ele>
        <time>2022-01-05T15:22:32Z</time>
      </trkpt>
      <trkpt lat="49.8687" lon="2.41275">
        <ele>60.7</ele>
        <time>2022-01-05T15:22:33Z</time>
      </trkpt>
      <trkpt lat="49.86871" lon="2.41274">
        <ele>60.7</ele>
        <time>2022-01-05T15:22:35Z</time>
      </trkpt>
      <trkpt lat="49.86872" lon="2.41274">
        <ele>60.7</ele>
        <time>2022-01-05T15:22:37Z</time>
      </trkpt>
      <trkpt lat="49.86872" lon="2.41275">
        <ele>60.7</ele>
        <time>2022-01-05T15:22:38Z</time>
      </trkpt>
      <trkpt lat="49.86872" lon="2.41275">
        <ele>60.7</ele>
        <time>2022-01-05T15:22:39Z</time>
      </trkpt>
      <trkpt lat="49.86872" lon="2.41275">
        <ele>60.7</ele>
        <time>2022-01-05T15:22:41Z</time>
      </trkpt>
      <trkpt lat="49.86872" lon="2.41275">
        <ele>60.7</ele>
        <time>2022-01-05T15:22:42Z</time>
      </trkpt>
      <trkpt lat="49.86872" lon="2.41275">
        <ele>60.7</ele>
        <time>2022-01-05T15:22:43Z</time>
      </trkpt>
      <trkpt lat="49.86872" lon="2.41275">
        <ele>60.7</ele>
        <time>2022-01-05T15:22:44Z</time>
      </trkpt>
      <trkpt lat="49.86872" lon="2.41275">
        <ele>60.7</ele>
        <time>2022-01-05T15:22:46Z</time>
      </trkpt>
      <trkpt lat="49.86872" lon="2.41275">
        <ele>60.7</ele>
        <time>2022-01-05T15:22:47Z</time>
      </trkpt>
      <trkpt lat="49.86872" lon="2.41275">
        <ele>60.7</ele>
        <time>2022-01-05T15:22:48Z</time>
      </trkpt>
      <trkpt lat="49.86872" lon="2.41275">
        <ele>60.7</ele>
        <time>2022-01-05T15:22:49Z</time>
      </trkpt>
      <trkpt lat="49.86872" lon="2.41275">
        <ele>60.7</ele>
        <time>2022-01-05T15:22:51Z</time>
      </trkpt>
      <trkpt lat="49.86872" lon="2.41275">
        <ele>60.7</ele>
        <time>2022-01-05T15:22:53Z</time>
      </trkpt>
      <trkpt lat="49.86872" lon="2.41275">
        <ele>60.7</ele>
        <time>2022-01-05T15:22:54Z</time>
      </trkpt>
      <trkpt lat="49.86872" lon="2.41275">
        <ele>60.7</ele>
        <time>2022-01-05T15:22:55Z</time>
      </trkpt>
      <trkpt lat="49.86872" lon="2.41275">
        <ele>60.7</ele>
        <time>2022-01-05T15:22:56Z</time>
      </trkpt>
      <trkpt lat="49.86872" lon="2.41275">
        <ele>60.7</ele>
        <time>2022-01-05T15:22:57Z</time>
      </trkpt>
      <trkpt lat="49.86872" lon="2.41275">
        <ele>60.7</ele>
        <time>2022-01-05T15:22:59Z</time>
      </trkpt>
      <trkpt lat="49.86872" lon="2.41275">
        <ele>60.7</ele>
        <time>2022-01-05T15:23:01Z</time>
      </trkpt>
      <trkpt lat="49.86872" lon="2.41275">
        <ele>60.7</ele>
        <time>2022-01-05T15:23:03Z</time>
      </trkpt>
      <trkpt lat="49.86872" lon="2.41275">
        <ele>60.7</ele>
        <time>2022-01-05T15:23:05Z</time>
      </trkpt>
      <trkpt lat="49.86872" lon="2.41275">
        <ele>60.7</ele>
        <time>2022-01-05T15:23:06Z</time>
      </trkpt>
      <trkpt lat="49.86872" lon="2.41275">
        <ele>60.7</ele>
        <time>2022-01-05T15:23:07Z</time>
      </trkpt>
      <trkpt lat="49.86872" lon="2.41275">
        <ele>60.7</ele>
        <time>2022-01-05T15:23:09Z</time>
      </trkpt>
      <trkpt lat="49.86872" lon="2.41275">
        <ele>60.7</ele>
        <time>2022-01-05T15:23:11Z</time>
      </trkpt>
      <trkpt lat="49.86872" lon="2.41275">
        <ele>60.7</ele>
        <time>2022-01-05T15:23:12Z</time>
      </trkpt>
      <trkpt lat="49.86872" lon="2.41275">
        <ele>60.7</ele>
        <time>2022-01-05T15:23:14Z</time>
      </trkpt>
      <trkpt lat="49.86872" lon="2.41275">
        <ele>60.7</ele>
        <time>2022-01-05T15:23:16Z</time>
      </trkpt>
      <trkpt lat="49.86872" lon="2.41275">
        <ele>60.7</ele>
        <time>2022-01-05T15:23:18Z</time>
      </trkpt>
      <trkpt lat="49.86872" lon="2.41275">
        <ele>60.7</ele>
        <time>2022-01-05T15:23:19Z</time>
      </trkpt>
      <trkpt lat="49.86872" lon="2.41275">
        <ele>60.7</ele>
        <time>2022-01-05T15:23:21Z</time>
      </trkpt>
      <trkpt lat="49.86872" lon="2.41275">
        <ele>60.7</ele>
        <time>2022-01-05T15:23:23Z</time>
      </trkpt>
      <trkpt lat="49.86872" lon="2.41275">
        <ele>60.7</ele>
        <time>2022-01-05T15:23:24Z</time>
      </trkpt>
      <trkpt lat="49.86872" lon="2.41275">
        <ele>60.7</ele>
        <time>2022-01-05T15:23:25Z</time>
      </trkpt>
      <trkpt lat="49.86872" lon="2.41275">
        <ele>60.7</ele>
        <time>2022-01-05T15:23:26Z</time>
      </trkpt>
      <trkpt lat="49.86872" lon="2.41275">
        <ele>60.7</ele>
        <time>2022-01-05T15:23:28Z</time>
      </trkpt>
      <trkpt lat="49.86872" lon="2.41275">
        <ele>60.7</ele>
        <time>2022-01-05T15:23:30Z</time>
      </trkpt>
      <trkpt lat="49.86871" lon="2.41275">
        <ele>60.7</ele>
        <time>2022-01-05T15:23:31Z</time>
      </trkpt>
      <trkpt lat="49.86871" lon="2.41275">
        <ele>60.7</ele>
        <time>2022-01-05T15:23:33Z</time>
      </trkpt>
      <trkpt lat="49.86871" lon="2.41275">
        <ele>60.7</ele>
        <time>2022-01-05T15:23:34Z</time>
      </trkpt>
      <trkpt lat="49.86871" lon="2.41273">
        <ele>60.7</ele>
        <time>2022-01-05T15:23:36Z</time>
      </trkpt>
      <trkpt lat="49.86871" lon="2.41273">
        <ele>60.7</ele>
        <time>2022-01-05T15:23:37Z</time>
      </trkpt>
      <trkpt lat="49.86871" lon="2.41272">
        <ele>60.7</ele>
        <time>2022-01-05T15:23:38Z</time>
      </trkpt>
      <trkpt lat="49.8687" lon="2.41273">
        <ele>60.7</ele>
        <time>2022-01-05T15:23:40Z</time>
      </trkpt>
      <trkpt lat="49.8687" lon="2.41273">
        <ele>60.7</ele>
        <time>2022-01-05T15:23:42Z</time>
      </trkpt>
      <trkpt lat="49.86871" lon="2.41274">
        <ele>60.7</ele>
        <time>2022-01-05T15:23:43Z</time>
      </trkpt>
      <trkpt lat="49.86871" lon="2.41273">
        <ele>60.8</ele>
        <time>2022-01-05T15:23:44Z</time>
      </trkpt>
      <trkpt lat="49.86871" lon="2.41273">
        <ele>60.8</ele>
        <time>2022-01-05T15:23:45Z</time>
      </trkpt>
      <trkpt lat="49.86871" lon="2.41273">
        <ele>60.8</ele>
        <time>2022-01-05T15:23:47Z</time>
      </trkpt>
      <trkpt lat="49.86871" lon="2.41273">
        <ele>60.8</ele>
        <time>2022-01-05T15:23:49Z</time>
      </trkpt>
      <trkpt lat="49.86871" lon="2.41273">
        <ele>60.8</ele>
        <time>2022-01-05T15:23:50Z</time>
      </trkpt>
      <trkpt lat="49.86871" lon="2.41273">
        <ele>60.8</ele>
        <time>2022-01-05T15:23:51Z</time>
      </trkpt>
      <trkpt lat="49.86871" lon="2.41273">
        <ele>60.8</ele>
        <time>2022-01-05T15:23:52Z</time>
      </trkpt>
      <trkpt lat="49.86871" lon="2.41273">
        <ele>60.8</ele>
        <time>2022-01-05T15:23:54Z</time>
      </trkpt>
      <trkpt lat="49.86871" lon="2.41274">
        <ele>60.8</ele>
        <time>2022-01-05T15:23:56Z</time>
      </trkpt>
      <trkpt lat="49.86871" lon="2.41274">
        <ele>60.8</ele>
        <time>2022-01-05T15:23:58Z</time>
      </trkpt>
      <trkpt lat="49.86871" lon="2.41274">
        <ele>60.8</ele>
        <time>2022-01-05T15:23:59Z</time>
      </trkpt>
      <trkpt lat="49.86871" lon="2.41274">
        <ele>60.8</ele>
        <time>2022-01-05T15:24:01Z</time>
      </trkpt>
      <trkpt lat="49.86871" lon="2.41274">
        <ele>60.8</ele>
        <time>2022-01-05T15:24:03Z</time>
      </trkpt>
      <trkpt lat="49.86871" lon="2.41274">
        <ele>60.8</ele>
        <time>2022-01-05T15:24:05Z</time>
      </trkpt>
      <trkpt lat="49.86871" lon="2.41274">
        <ele>60.8</ele>
        <time>2022-01-05T15:24:06Z</time>
      </trkpt>
      <trkpt lat="49.86871" lon="2.41274">
        <ele>60.8</ele>
        <time>2022-01-05T15:24:07Z</time>
      </trkpt>
      <trkpt lat="49.8687" lon="2.41274">
        <ele>60.8</ele>
        <time>2022-01-05T15:24:09Z</time>
      </trkpt>
      <trkpt lat="49.86871" lon="2.41274">
        <ele>60.8</ele>
        <time>2022-01-05T15:24:10Z</time>
      </trkpt>
      <trkpt lat="49.86871" lon="2.41274">
        <ele>60.8</ele>
        <time>2022-01-05T15:24:11Z</time>
      </trkpt>
      <trkpt lat="49.86873" lon="2.41274">
        <ele>60.8</ele>
        <time>2022-01-05T15:24:12Z</time>
      </trkpt>
      <trkpt lat="49.86874" lon="2.41273">
        <ele>60.8</ele>
        <time>2022-01-05T15:24:13Z</time>
      </trkpt>
      <trkpt lat="49.86875" lon="2.41273">
        <ele>60.8</ele>
        <time>2022-01-05T15:24:15Z</time>
      </trkpt>
      <trkpt lat="49.86878" lon="2.41274">
        <ele>60.8</ele>
        <time>2022-01-05T15:24:16Z</time>
      </trkpt>
      <trkpt lat="49.8688" lon="2.41274">
        <ele>60.8</ele>
        <time>2022-01-05T15:24:18Z</time>
      </trkpt>
      <trkpt lat="49.86881" lon="2.41273">
        <ele>60.8</ele>
        <time>2022-01-05T15:24:19Z</time>
      </trkpt>
      <trkpt lat="49.86882" lon="2.41273">
        <ele>60.8</ele>
        <time>2022-01-05T15:24:20Z</time>
      </trkpt>
      <trkpt lat="49.86882" lon="2.41269">
        <ele>60.8</ele>
        <time>2022-01-05T15:24:22Z</time>
      </trkpt>
      <trkpt lat="49.86883" lon="2.41268">
        <ele>60.8</ele>
        <time>2022-01-05T15:24:23Z</time>
      </trkpt>
      <trkpt lat="49.86883" lon="2.41269">
        <ele>60.8</ele>
        <time>2022-01-05T15:24:24Z</time>
      </trkpt>
      <trkpt lat="49.86884" lon="2.4127">
        <ele>60.8</ele>
        <time>2022-01-05T15:24:25Z</time>
      </trkpt>
      <trkpt lat="49.86885" lon="2.41271">
        <ele>60.8</ele>
        <time>2022-01-05T15:24:27Z</time>
      </trkpt>
      <trkpt lat="49.86885" lon="2.41271">
        <ele>60.8</ele>
        <time>2022-01-05T15:24:28Z</time>
      </trkpt>
      <trkpt lat="49.86886" lon="2.41272">
        <ele>60.8</ele>
        <time>2022-01-05T15:24:29Z</time>
      </trkpt>
      <trkpt lat="49.86885" lon="2.41272">
        <ele>60.8</ele>
        <time>2022-01-05T15:24:31Z</time>
      </trkpt>
      <trkpt lat="49.86885" lon="2.41272">
        <ele>60.8</ele>
        <time>2022-01-05T15:24:32Z</time>
      </trkpt>
      <trkpt lat="49.86885" lon="2.41271">
        <ele>60.8</ele>
        <time>2022-01-05T15:24:34Z</time>
      </trkpt>
      <trkpt lat="49.86885" lon="2.41271">
        <ele>60.8</ele>
        <time>2022-01-05T15:24:35Z</time>
      </trkpt>
      <trkpt lat="49.86885" lon="2.41271">
        <ele>60.8</ele>
        <time>2022-01-05T15:24:37Z</time>
      </trkpt>
      <trkpt lat="49.86885" lon="2.41271">
        <ele>60.8</ele>
        <time>2022-01-05T15:24:39Z</time>
      </trkpt>
      <trkpt lat="49.86885" lon="2.41271">
        <ele>60.8</ele>
        <time>2022-01-05T15:24:40Z</time>
      </trkpt>
      <trkpt lat="49.86885" lon="2.41271">
        <ele>60.8</ele>
        <time>2022-01-05T15:24:41Z</time>
      </trkpt>
      <trkpt lat="49.86885" lon="2.41271">
        <ele>60.8</ele>
        <time>2022-01-05T15:24:42Z</time>
      </trkpt>
      <trkpt lat="49.86886" lon="2.41271">
        <ele>60.8</ele>
        <time>2022-01-05T15:24:44Z</time>
      </trkpt>
      <trkpt lat="49.86887" lon="2.4127">
        <ele>60.8</ele>
        <time>2022-01-05T15:24:45Z</time>
      </trkpt>
      <trkpt lat="49.86888" lon="2.4127">
        <ele>60.8</ele>
        <time>2022-01-05T15:24:46Z</time>
      </trkpt>
      <trkpt lat="49.86889" lon="2.41269">
        <ele>60.8</ele>
        <time>2022-01-05T15:24:48Z</time>
      </trkpt>
      <trkpt lat="49.8689" lon="2.41268">
        <ele>60.8</ele>
        <time>2022-01-05T15:24:49Z</time>
      </trkpt>
      <trkpt lat="49.8689" lon="2.41267">
        <ele>60.8</ele>
        <time>2022-01-05T15:24:50Z</time>
      </trkpt>
      <trkpt lat="49.86892" lon="2.41266">
        <ele>60.8</ele>
        <time>2022-01-05T15:24:52Z</time>
      </trkpt>
      <trkpt lat="49.86892" lon="2.41265">
        <ele>60.8</ele>
        <time>2022-01-05T15:24:54Z</time>
      </trkpt>
      <trkpt lat="49.86893" lon="2.41264">
        <ele>60.7</ele>
        <time>2022-01-05T15:24:55Z</time>
      </trkpt>
      <trkpt lat="49.86894" lon="2.41263">
        <ele>60.7</ele>
        <time>2022-01-05T15:24:57Z</time>
      </trkpt>
      <trkpt lat="49.86896" lon="2.41263">
        <ele>60.7</ele>
        <time>2022-01-05T15:24:58Z</time>
      </trkpt>
      <trkpt lat="49.86897" lon="2.41264">
        <ele>60.7</ele>
        <time>2022-01-05T15:25:00Z</time>
      </trkpt>
      <trkpt lat="49.86897" lon="2.41265">
        <ele>60.7</ele>
        <time>2022-01-05T15:25:01Z</time>
      </trkpt>
      <trkpt lat="49.86898" lon="2.41265">
        <ele>60.7</ele>
        <time>2022-01-05T15:25:02Z</time>
      </trkpt>
      <trkpt lat="49.86899" lon="2.41265">
        <ele>60.7</ele>
        <time>2022-01-05T15:25:03Z</time>
      </trkpt>
      <trkpt lat="49.86901" lon="2.41263">
        <ele>60.7</ele>
        <time>2022-01-05T15:25:04Z</time>
      </trkpt>
      <trkpt lat="49.86902" lon="2.41263">
        <ele>60.7</ele>
        <time>2022-01-05T15:25:06Z</time>
      </trkpt>
      <trkpt lat="49.86903" lon="2.41262">
        <ele>60.7</ele>
        <time>2022-01-05T15:25:07Z</time>
      </trkpt>
      <trkpt lat="49.86904" lon="2.41261">
        <ele>60.6</ele>
        <time>2022-01-05T15:25:08Z</time>
      </trkpt>
      <trkpt lat="49.86905" lon="2.4126">
        <ele>60.6</ele>
        <time>2022-01-05T15:25:09Z</time>
      </trkpt>
      <trkpt lat="49.86906" lon="2.41259">
        <ele>60.6</ele>
        <time>2022-01-05T15:25:11Z</time>
      </trkpt>
      <trkpt lat="49.86907" lon="2.41258">
        <ele>60.6</ele>
        <time>2022-01-05T15:25:12Z</time>
      </trkpt>
      <trkpt lat="49.86907" lon="2.41257">
        <ele>60.6</ele>
        <time>2022-01-05T15:25:13Z</time>
      </trkpt>
      <trkpt lat="49.86908" lon="2.41256">
        <ele>60.6</ele>
        <time>2022-01-05T15:25:15Z</time>
      </trkpt>
      <trkpt lat="49.86909" lon="2.41255">
        <ele>60.6</ele>
        <time>2022-01-05T15:25:16Z</time>
      </trkpt>
      <trkpt lat="49.86909" lon="2.41254">
        <ele>60.6</ele>
        <time>2022-01-05T15:25:17Z</time>
      </trkpt>
      <trkpt lat="49.8691" lon="2.41253">
        <ele>60.6</ele>
        <time>2022-01-05T15:25:18Z</time>
      </trkpt>
      <trkpt lat="49.8691" lon="2.41253">
        <ele>60.6</ele>
        <time>2022-01-05T15:25:19Z</time>
      </trkpt>
      <trkpt lat="49.86911" lon="2.41252">
        <ele>60.6</ele>
        <time>2022-01-05T15:25:21Z</time>
      </trkpt>
      <trkpt lat="49.86912" lon="2.41251">
        <ele>60.6</ele>
        <time>2022-01-05T15:25:22Z</time>
      </trkpt>
      <trkpt lat="49.86912" lon="2.41251">
        <ele>60.6</ele>
        <time>2022-01-05T15:25:24Z</time>
      </trkpt>
      <trkpt lat="49.86913" lon="2.41251">
        <ele>60.6</ele>
        <time>2022-01-05T15:25:25Z</time>
      </trkpt>
      <trkpt lat="49.86914" lon="2.4125">
        <ele>60.6</ele>
        <time>2022-01-05T15:25:27Z</time>
      </trkpt>
      <trkpt lat="49.86914" lon="2.41248">
        <ele>60.6</ele>
        <time>2022-01-05T15:25:28Z</time>
      </trkpt>
      <trkpt lat="49.86914" lon="2.41247">
        <ele>60.6</ele>
        <time>2022-01-05T15:25:30Z</time>
      </trkpt>
      <trkpt lat="49.86914" lon="2.41247">
        <ele>60.7</ele>
        <time>2022-01-05T15:25:31Z</time>
      </trkpt>
      <trkpt lat="49.86914" lon="2.41246">
        <ele>60.7</ele>
        <time>2022-01-05T15:25:32Z</time>
      </trkpt>
      <trkpt lat="49.86915" lon="2.41246">
        <ele>60.7</ele>
        <time>2022-01-05T15:25:33Z</time>
      </trkpt>
      <trkpt lat="49.86916" lon="2.41245">
        <ele>60.7</ele>
        <time>2022-01-05T15:25:35Z</time>
      </trkpt>
      <trkpt lat="49.86917" lon="2.41244">
        <ele>60.7</ele>
        <time>2022-01-05T15:25:36Z</time>
      </trkpt>
      <trkpt lat="49.86918" lon="2.41243">
        <ele>60.7</ele>
        <time>2022-01-05T15:25:38Z</time>
      </trkpt>
      <trkpt lat="49.86919" lon="2.41243">
        <ele>60.7</ele>
        <time>2022-01-05T15:25:39Z</time>
      </trkpt>
      <trkpt lat="49.8692" lon="2.41242">
        <ele>60.7</ele>
        <time>2022-01-05T15:25:40Z</time>
      </trkpt>
      <trkpt lat="49.86921" lon="2.41241">
        <ele>60.7</ele>
        <time>2022-01-05T15:25:41Z</time>
      </trkpt>
      <trkpt lat="49.86922" lon="2.41241">
        <ele>60.7</ele>
        <time>2022-01-05T15:25:42Z</time>
      </trkpt>
      <trkpt lat="49.86923" lon="2.4124">
        <ele>60.7</ele>
        <time>2022-01-05T15:25:43Z</time>
      </trkpt>
      <trkpt lat="49.86924" lon="2.41239">
        <ele>60.7</ele>
        <time>2022-01-05T15:25:45Z</time>
      </trkpt>
      <trkpt lat="49.86925" lon="2.41238">
        <ele>60.7</ele>
        <time>2022-01-05T15:25:46Z</time>
      </trkpt>
      <trkpt lat="49.86926" lon="2.41236">
        <ele>60.7</ele>
        <time>2022-01-05T15:25:48Z</time>
      </trkpt>
      <trkpt lat="49.86927" lon="2.41235">
        <ele>60.7</ele>
        <time>2022-01-05T15:25:49Z</time>
      </trkpt>
      <trkpt lat="49.86928" lon="2.41234">
        <ele>60.7</ele>
        <time>2022-01-05T15:25:50Z</time>
      </trkpt>
      <trkpt lat="49.86929" lon="2.41233">
        <ele>60.7</ele>
        <time>2022-01-05T15:25:52Z</time>
      </trkpt>
      <trkpt lat="49.8693" lon="2.41231">
        <ele>60.7</ele>
        <time>2022-01-05T15:25:53Z</time>
      </trkpt>
      <trkpt lat="49.86931" lon="2.41229">
        <ele>60.7</ele>
        <time>2022-01-05T15:25:55Z</time>
      </trkpt>
      <trkpt lat="49.86932" lon="2.41228">
        <ele>60.7</ele>
        <time>2022-01-05T15:25:56Z</time>
      </trkpt>
      <trkpt lat="49.86932" lon="2.41227">
        <ele>60.8</ele>
        <time>2022-01-05T15:25:57Z</time>
      </trkpt>
      <trkpt lat="49.86934" lon="2.41226">
        <ele>60.8</ele>
        <time>2022-01-05T15:25:59Z</time>
      </trkpt>
      <trkpt lat="49.86934" lon="2.41225">
        <ele>60.8</ele>
        <time>2022-01-05T15:26:00Z</time>
      </trkpt>
      <trkpt lat="49.86935" lon="2.41224">
        <ele>60.8</ele>
        <time>2022-01-05T15:26:01Z</time>
      </trkpt>
      <trkpt lat="49.86936" lon="2.41223">
        <ele>60.8</ele>
        <time>2022-01-05T15:26:03Z</time>
      </trkpt>
      <trkpt lat="49.86937" lon="2.41222">
        <ele>60.8</ele>
        <time>2022-01-05T15:26:04Z</time>
      </trkpt>
      <trkpt lat="49.86937" lon="2.41222">
        <ele>60.8</ele>
        <time>2022-01-05T15:26:06Z</time>
      </trkpt>
      <trkpt lat="49.86938" lon="2.41221">
        <ele>60.8</ele>
        <time>2022-01-05T15:26:07Z</time>
      </trkpt>
      <trkpt lat="49.86938" lon="2.41221">
        <ele>60.8</ele>
        <time>2022-01-05T15:26:09Z</time>
      </trkpt>
      <trkpt lat="49.86939" lon="2.4122">
        <ele>60.8</ele>
        <time>2022-01-05T15:26:10Z</time>
      </trkpt>
      <trkpt lat="49.86939" lon="2.41219">
        <ele>60.8</ele>
        <time>2022-01-05T15:26:11Z</time>
      </trkpt>
      <trkpt lat="49.8694" lon="2.41219">
        <ele>60.8</ele>
        <time>2022-01-05T15:26:13Z</time>
      </trkpt>
      <trkpt lat="49.86941" lon="2.41218">
        <ele>60.8</ele>
        <time>2022-01-05T15:26:14Z</time>
      </trkpt>
      <trkpt lat="49.86942" lon="2.41218">
        <ele>60.8</ele>
        <time>2022-01-05T15:26:15Z</time>
      </trkpt>
      <trkpt lat="49.86943" lon="2.41217">
        <ele>60.8</ele>
        <time>2022-01-05T15:26:16Z</time>
      </trkpt>
      <trkpt lat="49.86944" lon="2.41215">
        <ele>60.8</ele>
        <time>2022-01-05T15:26:18Z</time>
      </trkpt>
      <trkpt lat="49.86945" lon="2.41215">
        <ele>60.9</ele>
        <time>2022-01-05T15:26:19Z</time>
      </trkpt>
      <trkpt lat="49.86946" lon="2.41214">
        <ele>60.9</ele>
        <time>2022-01-05T15:26:20Z</time>
      </trkpt>
      <trkpt lat="49.86947" lon="2.41214">
        <ele>60.9</ele>
        <time>2022-01-05T15:26:22Z</time>
      </trkpt>
      <trkpt lat="49.86947" lon="2.41214">
        <ele>60.9</ele>
        <time>2022-01-05T15:26:23Z</time>
      </trkpt>
      <trkpt lat="49.86947" lon="2.41214">
        <ele>60.9</ele>
        <time>2022-01-05T15:26:24Z</time>
      </trkpt>
      <trkpt lat="49.86948" lon="2.41213">
        <ele>60.9</ele>
        <time>2022-01-05T15:26:25Z</time>
      </trkpt>
      <trkpt lat="49.86949" lon="2.41213">
        <ele>60.9</ele>
        <time>2022-01-05T15:26:27Z</time>
      </trkpt>
      <trkpt lat="49.86949" lon="2.41212">
        <ele>60.9</ele>
        <time>2022-01-05T15:26:28Z</time>
      </trkpt>
      <trkpt lat="49.8695" lon="2.41212">
        <ele>60.9</ele>
        <time>2022-01-05T15:26:29Z</time>
      </trkpt>
      <trkpt lat="49.86951" lon="2.41211">
        <ele>60.9</ele>
        <time>2022-01-05T15:26:30Z</time>
      </trkpt>
      <trkpt lat="49.86951" lon="2.41211">
        <ele>60.9</ele>
        <time>2022-01-05T15:26:32Z</time>
      </trkpt>
      <trkpt lat="49.86952" lon="2.4121">
        <ele>60.9</ele>
        <time>2022-01-05T15:26:33Z</time>
      </trkpt>
      <trkpt lat="49.86953" lon="2.41209">
        <ele>60.9</ele>
        <time>2022-01-05T15:26:34Z</time>
      </trkpt>
      <trkpt lat="49.86953" lon="2.41209">
        <ele>60.9</ele>
        <time>2022-01-05T15:26:35Z</time>
      </trkpt>
      <trkpt lat="49.86954" lon="2.41208">
        <ele>60.9</ele>
        <time>2022-01-05T15:26:37Z</time>
      </trkpt>
      <trkpt lat="49.86955" lon="2.41208">
        <ele>60.9</ele>
        <time>2022-01-05T15:26:38Z</time>
      </trkpt>
      <trkpt lat="49.86955" lon="2.41207">
        <ele>60.9</ele>
        <time>2022-01-05T15:26:39Z</time>
      </trkpt>
      <trkpt lat="49.86956" lon="2.41206">
        <ele>61</ele>
        <time>2022-01-05T15:26:40Z</time>
      </trkpt>
      <trkpt lat="49.86957" lon="2.41205">
        <ele>61</ele>
        <time>2022-01-05T15:26:41Z</time>
      </trkpt>
      <trkpt lat="49.86957" lon="2.41204">
        <ele>61</ele>
        <time>2022-01-05T15:26:42Z</time>
      </trkpt>
      <trkpt lat="49.86958" lon="2.41203">
        <ele>61</ele>
        <time>2022-01-05T15:26:44Z</time>
      </trkpt>
      <trkpt lat="49.86959" lon="2.41201">
        <ele>61</ele>
        <time>2022-01-05T15:26:45Z</time>
      </trkpt>
      <trkpt lat="49.8696" lon="2.41201">
        <ele>61</ele>
        <time>2022-01-05T15:26:46Z</time>
      </trkpt>
      <trkpt lat="49.86961" lon="2.41199">
        <ele>61</ele>
        <time>2022-01-05T15:26:47Z</time>
      </trkpt>
      <trkpt lat="49.86962" lon="2.41198">
        <ele>61</ele>
        <time>2022-01-05T15:26:48Z</time>
      </trkpt>
      <trkpt lat="49.86963" lon="2.41198">
        <ele>61</ele>
        <time>2022-01-05T15:26:49Z</time>
      </trkpt>
      <trkpt lat="49.86966" lon="2.41196">
        <ele>61</ele>
        <time>2022-01-05T15:26:50Z</time>
      </trkpt>
      <trkpt lat="49.86967" lon="2.41195">
        <ele>61</ele>
        <time>2022-01-05T15:26:52Z</time>
      </trkpt>
      <trkpt lat="49.86968" lon="2.41195">
        <ele>61</ele>
        <time>2022-01-05T15:26:53Z</time>
      </trkpt>
      <trkpt lat="49.86969" lon="2.41194">
        <ele>61</ele>
        <time>2022-01-05T15:26:54Z</time>
      </trkpt>
      <trkpt lat="49.8697" lon="2.41193">
        <ele>61</ele>
        <time>2022-01-05T15:26:55Z</time>
      </trkpt>
      <trkpt lat="49.86972" lon="2.41192">
        <ele>61</ele>
        <time>2022-01-05T15:26:57Z</time>
      </trkpt>
      <trkpt lat="49.86973" lon="2.41191">
        <ele>61</ele>
        <time>2022-01-05T15:26:58Z</time>
      </trkpt>
      <trkpt lat="49.86973" lon="2.41191">
        <ele>61</ele>
        <time>2022-01-05T15:26:59Z</time>
      </trkpt>
      <trkpt lat="49.86974" lon="2.41191">
        <ele>61</ele>
        <time>2022-01-05T15:27:00Z</time>
      </trkpt>
      <trkpt lat="49.86976" lon="2.4119">
        <ele>61</ele>
        <time>2022-01-05T15:27:02Z</time>
      </trkpt>
      <trkpt lat="49.86977" lon="2.41191">
        <ele>61</ele>
        <time>2022-01-05T15:27:03Z</time>
      </trkpt>
      <trkpt lat="49.86979" lon="2.41191">
        <ele>60.9</ele>
        <time>2022-01-05T15:27:04Z</time>
      </trkpt>
      <trkpt lat="49.8698" lon="2.41191">
        <ele>60.9</ele>
        <time>2022-01-05T15:27:06Z</time>
      </trkpt>
      <trkpt lat="49.86981" lon="2.41191">
        <ele>60.9</ele>
        <time>2022-01-05T15:27:07Z</time>
      </trkpt>
      <trkpt lat="49.86982" lon="2.4119">
        <ele>60.9</ele>
        <time>2022-01-05T15:27:08Z</time>
      </trkpt>
      <trkpt lat="49.86983" lon="2.41189">
        <ele>60.9</ele>
        <time>2022-01-05T15:27:09Z</time>
      </trkpt>
      <trkpt lat="49.86984" lon="2.41188">
        <ele>60.9</ele>
        <time>2022-01-05T15:27:10Z</time>
      </trkpt>
      <trkpt lat="49.86985" lon="2.41187">
        <ele>60.9</ele>
        <time>2022-01-05T15:27:11Z</time>
      </trkpt>
      <trkpt lat="49.86985" lon="2.41187">
        <ele>60.9</ele>
        <time>2022-01-05T15:27:12Z</time>
      </trkpt>
      <trkpt lat="49.86986" lon="2.41186">
        <ele>60.8</ele>
        <time>2022-01-05T15:27:14Z</time>
      </trkpt>
      <trkpt lat="49.86987" lon="2.41185">
        <ele>60.8</ele>
        <time>2022-01-05T15:27:15Z</time>
      </trkpt>
      <trkpt lat="49.86988" lon="2.41184">
        <ele>60.8</ele>
        <time>2022-01-05T15:27:16Z</time>
      </trkpt>
      <trkpt lat="49.86989" lon="2.41183">
        <ele>60.8</ele>
        <time>2022-01-05T15:27:17Z</time>
      </trkpt>
      <trkpt lat="49.86991" lon="2.41183">
        <ele>60.8</ele>
        <time>2022-01-05T15:27:19Z</time>
      </trkpt>
      <trkpt lat="49.86992" lon="2.41183">
        <ele>60.8</ele>
        <time>2022-01-05T15:27:20Z</time>
      </trkpt>
      <trkpt lat="49.86994" lon="2.41182">
        <ele>60.8</ele>
        <time>2022-01-05T15:27:21Z</time>
      </trkpt>
      <trkpt lat="49.86995" lon="2.41181">
        <ele>60.8</ele>
        <time>2022-01-05T15:27:23Z</time>
      </trkpt>
      <trkpt lat="49.86996" lon="2.4118">
        <ele>60.7</ele>
        <time>2022-01-05T15:27:24Z</time>
      </trkpt>
      <trkpt lat="49.86997" lon="2.4118">
        <ele>60.7</ele>
        <time>2022-01-05T15:27:25Z</time>
      </trkpt>
      <trkpt lat="49.86998" lon="2.41179">
        <ele>60.7</ele>
        <time>2022-01-05T15:27:26Z</time>
      </trkpt>
      <trkpt lat="49.86999" lon="2.41178">
        <ele>60.7</ele>
        <time>2022-01-05T15:27:27Z</time>
      </trkpt>
      <trkpt lat="49.87" lon="2.41177">
        <ele>60.7</ele>
        <time>2022-01-05T15:27:28Z</time>
      </trkpt>
      <trkpt lat="49.87001" lon="2.41176">
        <ele>60.7</ele>
        <time>2022-01-05T15:27:30Z</time>
      </trkpt>
      <trkpt lat="49.87002" lon="2.41174">
        <ele>60.7</ele>
        <time>2022-01-05T15:27:31Z</time>
      </trkpt>
      <trkpt lat="49.87003" lon="2.41173">
        <ele>60.7</ele>
        <time>2022-01-05T15:27:32Z</time>
      </trkpt>
      <trkpt lat="49.87004" lon="2.41172">
        <ele>60.7</ele>
        <time>2022-01-05T15:27:33Z</time>
      </trkpt>
      <trkpt lat="49.87005" lon="2.41169">
        <ele>60.6</ele>
        <time>2022-01-05T15:27:35Z</time>
      </trkpt>
      <trkpt lat="49.87006" lon="2.41168">
        <ele>60.6</ele>
        <time>2022-01-05T15:27:37Z</time>
      </trkpt>
      <trkpt lat="49.87007" lon="2.41167">
        <ele>60.6</ele>
        <time>2022-01-05T15:27:38Z</time>
      </trkpt>
      <trkpt lat="49.87008" lon="2.41166">
        <ele>60.6</ele>
        <time>2022-01-05T15:27:39Z</time>
      </trkpt>
      <trkpt lat="49.87008" lon="2.41165">
        <ele>60.6</ele>
        <time>2022-01-05T15:27:40Z</time>
      </trkpt>
      <trkpt lat="49.8701" lon="2.41164">
        <ele>60.6</ele>
        <time>2022-01-05T15:27:42Z</time>
      </trkpt>
      <trkpt lat="49.87011" lon="2.41163">
        <ele>60.6</ele>
        <time>2022-01-05T15:27:43Z</time>
      </trkpt>
      <trkpt lat="49.87013" lon="2.41162">
        <ele>60.6</ele>
        <time>2022-01-05T15:27:45Z</time>
      </trkpt>
      <trkpt lat="49.87014" lon="2.41161">
        <ele>60.6</ele>
        <time>2022-01-05T15:27:46Z</time>
      </trkpt>
      <trkpt lat="49.87015" lon="2.4116">
        <ele>60.5</ele>
        <time>2022-01-05T15:27:47Z</time>
      </trkpt>
      <trkpt lat="49.87017" lon="2.41159">
        <ele>60.5</ele>
        <time>2022-01-05T15:27:49Z</time>
      </trkpt>
      <trkpt lat="49.87019" lon="2.41157">
        <ele>60.5</ele>
        <time>2022-01-05T15:27:50Z</time>
      </trkpt>
      <trkpt lat="49.87021" lon="2.41156">
        <ele>60.5</ele>
        <time>2022-01-05T15:27:52Z</time>
      </trkpt>
      <trkpt lat="49.87022" lon="2.41154">
        <ele>60.5</ele>
        <time>2022-01-05T15:27:53Z</time>
      </trkpt>
      <trkpt lat="49.87024" lon="2.41153">
        <ele>60.4</ele>
        <time>2022-01-05T15:27:54Z</time>
      </trkpt>
      <trkpt lat="49.87025" lon="2.41152">
        <ele>60.4</ele>
        <time>2022-01-05T15:27:55Z</time>
      </trkpt>
      <trkpt lat="49.87026" lon="2.41151">
        <ele>60.4</ele>
        <time>2022-01-05T15:27:56Z</time>
      </trkpt>
      <trkpt lat="49.87028" lon="2.4115">
        <ele>60.4</ele>
        <time>2022-01-05T15:27:58Z</time>
      </trkpt>
      <trkpt lat="49.87029" lon="2.41148">
        <ele>60.4</ele>
        <time>2022-01-05T15:27:59Z</time>
      </trkpt>
      <trkpt lat="49.8703" lon="2.41147">
        <ele>60.3</ele>
        <time>2022-01-05T15:28:00Z</time>
      </trkpt>
      <trkpt lat="49.87031" lon="2.41146">
        <ele>60.3</ele>
        <time>2022-01-05T15:28:01Z</time>
      </trkpt>
      <trkpt lat="49.87032" lon="2.41144">
        <ele>60.3</ele>
        <time>2022-01-05T15:28:02Z</time>
      </trkpt>
      <trkpt lat="49.87034" lon="2.41143">
        <ele>60.3</ele>
        <time>2022-01-05T15:28:04Z</time>
      </trkpt>
      <trkpt lat="49.87035" lon="2.41141">
        <ele>60.3</ele>
        <time>2022-01-05T15:28:05Z</time>
      </trkpt>
      <trkpt lat="49.87036" lon="2.4114">
        <ele>60.3</ele>
        <time>2022-01-05T15:28:06Z</time>
      </trkpt>
      <trkpt lat="49.87037" lon="2.41138">
        <ele>60.2</ele>
        <time>2022-01-05T15:28:07Z</time>
      </trkpt>
      <trkpt lat="49.87039" lon="2.41137">
        <ele>60.2</ele>
        <time>2022-01-05T15:28:08Z</time>
      </trkpt>
      <trkpt lat="49.8704" lon="2.41136">
        <ele>60.2</ele>
        <time>2022-01-05T15:28:10Z</time>
      </trkpt>
      <trkpt lat="49.87041" lon="2.41135">
        <ele>60.2</ele>
        <time>2022-01-05T15:28:11Z</time>
      </trkpt>
      <trkpt lat="49.87042" lon="2.41134">
        <ele>60.2</ele>
        <time>2022-01-05T15:28:12Z</time>
      </trkpt>
      <trkpt lat="49.87043" lon="2.41133">
        <ele>60.2</ele>
        <time>2022-01-05T15:28:13Z</time>
      </trkpt>
      <trkpt lat="49.87045" lon="2.41131">
        <ele>60.1</ele>
        <time>2022-01-05T15:28:15Z</time>
      </trkpt>
      <trkpt lat="49.87046" lon="2.41129">
        <ele>60.1</ele>
        <time>2022-01-05T15:28:17Z</time>
      </trkpt>
      <trkpt lat="49.87047" lon="2.41127">
        <ele>60.1</ele>
        <time>2022-01-05T15:28:18Z</time>
      </trkpt>
      <trkpt lat="49.87049" lon="2.41126">
        <ele>60.1</ele>
        <time>2022-01-05T15:28:19Z</time>
      </trkpt>
      <trkpt lat="49.8705" lon="2.41125">
        <ele>60.1</ele>
        <time>2022-01-05T15:28:20Z</time>
      </trkpt>
      <trkpt lat="49.87051" lon="2.41124">
        <ele>60.1</ele>
        <time>2022-01-05T15:28:21Z</time>
      </trkpt>
      <trkpt lat="49.87052" lon="2.41123">
        <ele>60.1</ele>
        <time>2022-01-05T15:28:23Z</time>
      </trkpt>
      <trkpt lat="49.87053" lon="2.41121">
        <ele>60.1</ele>
        <time>2022-01-05T15:28:24Z</time>
      </trkpt>
      <trkpt lat="49.87054" lon="2.4112">
        <ele>60.1</ele>
        <time>2022-01-05T15:28:25Z</time>
      </trkpt>
      <trkpt lat="49.87055" lon="2.4112">
        <ele>60.1</ele>
        <time>2022-01-05T15:28:26Z</time>
      </trkpt>
      <trkpt lat="49.87055" lon="2.41119">
        <ele>60.1</ele>
        <time>2022-01-05T15:28:28Z</time>
      </trkpt>
      <trkpt lat="49.87056" lon="2.41118">
        <ele>60.1</ele>
        <time>2022-01-05T15:28:29Z</time>
      </trkpt>
      <trkpt lat="49.87057" lon="2.41117">
        <ele>60.1</ele>
        <time>2022-01-05T15:28:30Z</time>
      </trkpt>
      <trkpt lat="49.87058" lon="2.41116">
        <ele>60.1</ele>
        <time>2022-01-05T15:28:32Z</time>
      </trkpt>
      <trkpt lat="49.87059" lon="2.41115">
        <ele>60.1</ele>
        <time>2022-01-05T15:28:33Z</time>
      </trkpt>
      <trkpt lat="49.8706" lon="2.41115">
        <ele>60.1</ele>
        <time>2022-01-05T15:28:34Z</time>
      </trkpt>
      <trkpt lat="49.87061" lon="2.41114">
        <ele>60.1</ele>
        <time>2022-01-05T15:28:36Z</time>
      </trkpt>
      <trkpt lat="49.87061" lon="2.41114">
        <ele>60.1</ele>
        <time>2022-01-05T15:28:37Z</time>
      </trkpt>
      <trkpt lat="49.87062" lon="2.41113">
        <ele>60.1</ele>
        <time>2022-01-05T15:28:38Z</time>
      </trkpt>
      <trkpt lat="49.87063" lon="2.41113">
        <ele>60.1</ele>
        <time>2022-01-05T15:28:39Z</time>
      </trkpt>
      <trkpt lat="49.87064" lon="2.41113">
        <ele>60.1</ele>
        <time>2022-01-05T15:28:40Z</time>
      </trkpt>
      <trkpt lat="49.87065" lon="2.41112">
        <ele>60.1</ele>
        <time>2022-01-05T15:28:41Z</time>
      </trkpt>
      <trkpt lat="49.87065" lon="2.41112">
        <ele>60.1</ele>
        <time>2022-01-05T15:28:43Z</time>
      </trkpt>
      <trkpt lat="49.87066" lon="2.41112">
        <ele>60.1</ele>
        <time>2022-01-05T15:28:44Z</time>
      </trkpt>
      <trkpt lat="49.87067" lon="2.41112">
        <ele>60.1</ele>
        <time>2022-01-05T15:28:45Z</time>
      </trkpt>
      <trkpt lat="49.87068" lon="2.41113">
        <ele>60.1</ele>
        <time>2022-01-05T15:28:47Z</time>
      </trkpt>
      <trkpt lat="49.87069" lon="2.41113">
        <ele>60.1</ele>
        <time>2022-01-05T15:28:48Z</time>
      </trkpt>
      <trkpt lat="49.8707" lon="2.41113">
        <ele>60.1</ele>
        <time>2022-01-05T15:28:49Z</time>
      </trkpt>
      <trkpt lat="49.87071" lon="2.41113">
        <ele>60.1</ele>
        <time>2022-01-05T15:28:50Z</time>
      </trkpt>
      <trkpt lat="49.87072" lon="2.41112">
        <ele>60.1</ele>
        <time>2022-01-05T15:28:51Z</time>
      </trkpt>
      <trkpt lat="49.87073" lon="2.41111">
        <ele>60.1</ele>
        <time>2022-01-05T15:28:53Z</time>
      </trkpt>
      <trkpt lat="49.87074" lon="2.41111">
        <ele>60.1</ele>
        <time>2022-01-05T15:28:54Z</time>
      </trkpt>
      <trkpt lat="49.87075" lon="2.4111">
        <ele>60.1</ele>
        <time>2022-01-05T15:28:55Z</time>
      </trkpt>
      <trkpt lat="49.87076" lon="2.4111">
        <ele>60.1</ele>
        <time>2022-01-05T15:28:56Z</time>
      </trkpt>
      <trkpt lat="49.87077" lon="2.41109">
        <ele>60.1</ele>
        <time>2022-01-05T15:28:57Z</time>
      </trkpt>
      <trkpt lat="49.87078" lon="2.41108">
        <ele>60.1</ele>
        <time>2022-01-05T15:28:59Z</time>
      </trkpt>
      <trkpt lat="49.87078" lon="2.41108">
        <ele>60.1</ele>
        <time>2022-01-05T15:29:00Z</time>
      </trkpt>
      <trkpt lat="49.87079" lon="2.41107">
        <ele>60</ele>
        <time>2022-01-05T15:29:02Z</time>
      </trkpt>
      <trkpt lat="49.87079" lon="2.41107">
        <ele>60</ele>
        <time>2022-01-05T15:29:03Z</time>
      </trkpt>
      <trkpt lat="49.8708" lon="2.41107">
        <ele>60</ele>
        <time>2022-01-05T15:29:05Z</time>
      </trkpt>
      <trkpt lat="49.8708" lon="2.41106">
        <ele>60</ele>
        <time>2022-01-05T15:29:06Z</time>
      </trkpt>
      <trkpt lat="49.87081" lon="2.41106">
        <ele>60</ele>
        <time>2022-01-05T15:29:08Z</time>
      </trkpt>
      <trkpt lat="49.87082" lon="2.41106">
        <ele>60</ele>
        <time>2022-01-05T15:29:09Z</time>
      </trkpt>
      <trkpt lat="49.87082" lon="2.41105">
        <ele>60</ele>
        <time>2022-01-05T15:29:10Z</time>
      </trkpt>
      <trkpt lat="49.87083" lon="2.41105">
        <ele>60</ele>
        <time>2022-01-05T15:29:12Z</time>
      </trkpt>
      <trkpt lat="49.87083" lon="2.41105">
        <ele>60</ele>
        <time>2022-01-05T15:29:13Z</time>
      </trkpt>
      <trkpt lat="49.87084" lon="2.41104">
        <ele>60</ele>
        <time>2022-01-05T15:29:15Z</time>
      </trkpt>
      <trkpt lat="49.87084" lon="2.41104">
        <ele>60</ele>
        <time>2022-01-05T15:29:16Z</time>
      </trkpt>
      <trkpt lat="49.87085" lon="2.41103">
        <ele>60</ele>
        <time>2022-01-05T15:29:18Z</time>
      </trkpt>
      <trkpt lat="49.87085" lon="2.41103">
        <ele>60</ele>
        <time>2022-01-05T15:29:19Z</time>
      </trkpt>
      <trkpt lat="49.87085" lon="2.41103">
        <ele>60</ele>
        <time>2022-01-05T15:29:20Z</time>
      </trkpt>
      <trkpt lat="49.87086" lon="2.41104">
        <ele>60</ele>
        <time>2022-01-05T15:29:22Z</time>
      </trkpt>
      <trkpt lat="49.87086" lon="2.41107">
        <ele>60</ele>
        <time>2022-01-05T15:29:24Z</time>
      </trkpt>
      <trkpt lat="49.87086" lon="2.41109">
        <ele>60</ele>
        <time>2022-01-05T15:29:25Z</time>
      </trkpt>
      <trkpt lat="49.87087" lon="2.4111">
        <ele>60</ele>
        <time>2022-01-05T15:29:27Z</time>
      </trkpt>
      <trkpt lat="49.87087" lon="2.41111">
        <ele>60</ele>
        <time>2022-01-05T15:29:28Z</time>
      </trkpt>
      <trkpt lat="49.87088" lon="2.41111">
        <ele>59.9</ele>
        <time>2022-01-05T15:29:29Z</time>
      </trkpt>
      <trkpt lat="49.87089" lon="2.41111">
        <ele>59.9</ele>
        <time>2022-01-05T15:29:30Z</time>
      </trkpt>
      <trkpt lat="49.8709" lon="2.41111">
        <ele>59.9</ele>
        <time>2022-01-05T15:29:31Z</time>
      </trkpt>
      <trkpt lat="49.87091" lon="2.4111">
        <ele>59.9</ele>
        <time>2022-01-05T15:29:32Z</time>
      </trkpt>
      <trkpt lat="49.87092" lon="2.41109">
        <ele>59.9</ele>
        <time>2022-01-05T15:29:33Z</time>
      </trkpt>
      <trkpt lat="49.87093" lon="2.41108">
        <ele>59.9</ele>
        <time>2022-01-05T15:29:35Z</time>
      </trkpt>
      <trkpt lat="49.87093" lon="2.41107">
        <ele>59.9</ele>
        <time>2022-01-05T15:29:36Z</time>
      </trkpt>
      <trkpt lat="49.87094" lon="2.41106">
        <ele>59.9</ele>
        <time>2022-01-05T15:29:37Z</time>
      </trkpt>
      <trkpt lat="49.87095" lon="2.41104">
        <ele>59.9</ele>
        <time>2022-01-05T15:29:38Z</time>
      </trkpt>
      <trkpt lat="49.87096" lon="2.41103">
        <ele>59.9</ele>
        <time>2022-01-05T15:29:39Z</time>
      </trkpt>
      <trkpt lat="49.87096" lon="2.41102">
        <ele>59.9</ele>
        <time>2022-01-05T15:29:41Z</time>
      </trkpt>
      <trkpt lat="49.87097" lon="2.41101">
        <ele>59.8</ele>
        <time>2022-01-05T15:29:42Z</time>
      </trkpt>
      <trkpt lat="49.87097" lon="2.411">
        <ele>59.8</ele>
        <time>2022-01-05T15:29:43Z</time>
      </trkpt>
      <trkpt lat="49.87098" lon="2.41099">
        <ele>59.8</ele>
        <time>2022-01-05T15:29:44Z</time>
      </trkpt>
      <trkpt lat="49.87099" lon="2.41098">
        <ele>59.8</ele>
        <time>2022-01-05T15:29:45Z</time>
      </trkpt>
      <trkpt lat="49.871" lon="2.41098">
        <ele>59.8</ele>
        <time>2022-01-05T15:29:46Z</time>
      </trkpt>
      <trkpt lat="49.87101" lon="2.41097">
        <ele>59.8</ele>
        <time>2022-01-05T15:29:48Z</time>
      </trkpt>
      <trkpt lat="49.87102" lon="2.41097">
        <ele>59.8</ele>
        <time>2022-01-05T15:29:49Z</time>
      </trkpt>
      <trkpt lat="49.87103" lon="2.41096">
        <ele>59.8</ele>
        <time>2022-01-05T15:29:50Z</time>
      </trkpt>
      <trkpt lat="49.87104" lon="2.41095">
        <ele>59.8</ele>
        <time>2022-01-05T15:29:51Z</time>
      </trkpt>
      <trkpt lat="49.87105" lon="2.41095">
        <ele>59.8</ele>
        <time>2022-01-05T15:29:52Z</time>
      </trkpt>
      <trkpt lat="49.87107" lon="2.41094">
        <ele>59.8</ele>
        <time>2022-01-05T15:29:54Z</time>
      </trkpt>
      <trkpt lat="49.87109" lon="2.41092">
        <ele>59.7</ele>
        <time>2022-01-05T15:29:55Z</time>
      </trkpt>
      <trkpt lat="49.87109" lon="2.41092">
        <ele>59.7</ele>
        <time>2022-01-05T15:29:56Z</time>
      </trkpt>
      <trkpt lat="49.8711" lon="2.41091">
        <ele>59.7</ele>
        <time>2022-01-05T15:29:57Z</time>
      </trkpt>
      <trkpt lat="49.87112" lon="2.4109">
        <ele>59.7</ele>
        <time>2022-01-05T15:29:58Z</time>
      </trkpt>
      <trkpt lat="49.87113" lon="2.41089">
        <ele>59.7</ele>
        <time>2022-01-05T15:29:59Z</time>
      </trkpt>
      <trkpt lat="49.87114" lon="2.41088">
        <ele>59.7</ele>
        <time>2022-01-05T15:30:00Z</time>
      </trkpt>
      <trkpt lat="49.87115" lon="2.41087">
        <ele>59.7</ele>
        <time>2022-01-05T15:30:01Z</time>
      </trkpt>
      <trkpt lat="49.87117" lon="2.41085">
        <ele>59.7</ele>
        <time>2022-01-05T15:30:03Z</time>
      </trkpt>
      <trkpt lat="49.87118" lon="2.41084">
        <ele>59.7</ele>
        <time>2022-01-05T15:30:04Z</time>
      </trkpt>
      <trkpt lat="49.87121" lon="2.41082">
        <ele>59.6</ele>
        <time>2022-01-05T15:30:05Z</time>
      </trkpt>
      <trkpt lat="49.87122" lon="2.41082">
        <ele>59.6</ele>
        <time>2022-01-05T15:30:06Z</time>
      </trkpt>
      <trkpt lat="49.87123" lon="2.41081">
        <ele>59.6</ele>
        <time>2022-01-05T15:30:07Z</time>
      </trkpt>
      <trkpt lat="49.87125" lon="2.4108">
        <ele>59.6</ele>
        <time>2022-01-05T15:30:08Z</time>
      </trkpt>
      <trkpt lat="49.87126" lon="2.41079">
        <ele>59.6</ele>
        <time>2022-01-05T15:30:10Z</time>
      </trkpt>
      <trkpt lat="49.87127" lon="2.41078">
        <ele>59.6</ele>
        <time>2022-01-05T15:30:11Z</time>
      </trkpt>
      <trkpt lat="49.87129" lon="2.41077">
        <ele>59.6</ele>
        <time>2022-01-05T15:30:12Z</time>
      </trkpt>
      <trkpt lat="49.8713" lon="2.41076">
        <ele>59.6</ele>
        <time>2022-01-05T15:30:13Z</time>
      </trkpt>
      <trkpt lat="49.87132" lon="2.41075">
        <ele>59.6</ele>
        <time>2022-01-05T15:30:14Z</time>
      </trkpt>
      <trkpt lat="49.87133" lon="2.41074">
        <ele>59.5</ele>
        <time>2022-01-05T15:30:15Z</time>
      </trkpt>
      <trkpt lat="49.87134" lon="2.41073">
        <ele>59.5</ele>
        <time>2022-01-05T15:30:16Z</time>
      </trkpt>
      <trkpt lat="49.87136" lon="2.41072">
        <ele>59.5</ele>
        <time>2022-01-05T15:30:18Z</time>
      </trkpt>
      <trkpt lat="49.87137" lon="2.41072">
        <ele>59.5</ele>
        <time>2022-01-05T15:30:19Z</time>
      </trkpt>
      <trkpt lat="49.87138" lon="2.41071">
        <ele>59.5</ele>
        <time>2022-01-05T15:30:20Z</time>
      </trkpt>
      <trkpt lat="49.8714" lon="2.4107">
        <ele>59.5</ele>
        <time>2022-01-05T15:30:21Z</time>
      </trkpt>
      <trkpt lat="49.87141" lon="2.4107">
        <ele>59.5</ele>
        <time>2022-01-05T15:30:22Z</time>
      </trkpt>
      <trkpt lat="49.87142" lon="2.41069">
        <ele>59.5</ele>
        <time>2022-01-05T15:30:23Z</time>
      </trkpt>
      <trkpt lat="49.87143" lon="2.41068">
        <ele>59.5</ele>
        <time>2022-01-05T15:30:25Z</time>
      </trkpt>
      <trkpt lat="49.87144" lon="2.41067">
        <ele>59.5</ele>
        <time>2022-01-05T15:30:26Z</time>
      </trkpt>
      <trkpt lat="49.87145" lon="2.41066">
        <ele>59.5</ele>
        <time>2022-01-05T15:30:27Z</time>
      </trkpt>
      <trkpt lat="49.87147" lon="2.41064">
        <ele>59.5</ele>
        <time>2022-01-05T15:30:28Z</time>
      </trkpt>
      <trkpt lat="49.87147" lon="2.41064">
        <ele>59.5</ele>
        <time>2022-01-05T15:30:29Z</time>
      </trkpt>
      <trkpt lat="49.87148" lon="2.41063">
        <ele>59.5</ele>
        <time>2022-01-05T15:30:30Z</time>
      </trkpt>
      <trkpt lat="49.87149" lon="2.41062">
        <ele>59.5</ele>
        <time>2022-01-05T15:30:32Z</time>
      </trkpt>
      <trkpt lat="49.87149" lon="2.41061">
        <ele>59.5</ele>
        <time>2022-01-05T15:30:33Z</time>
      </trkpt>
      <trkpt lat="49.87149" lon="2.41059">
        <ele>59.5</ele>
        <time>2022-01-05T15:30:34Z</time>
      </trkpt>
      <trkpt lat="49.87149" lon="2.41058">
        <ele>59.4</ele>
        <time>2022-01-05T15:30:36Z</time>
      </trkpt>
      <trkpt lat="49.87149" lon="2.41056">
        <ele>59.4</ele>
        <time>2022-01-05T15:30:38Z</time>
      </trkpt>
      <trkpt lat="49.87149" lon="2.41054">
        <ele>59.4</ele>
        <time>2022-01-05T15:30:40Z</time>
      </trkpt>
      <trkpt lat="49.87148" lon="2.41053">
        <ele>59.4</ele>
        <time>2022-01-05T15:30:42Z</time>
      </trkpt>
      <trkpt lat="49.87148" lon="2.41053">
        <ele>59.4</ele>
        <time>2022-01-05T15:30:43Z</time>
      </trkpt>
      <trkpt lat="49.87147" lon="2.41053">
        <ele>59.4</ele>
        <time>2022-01-05T15:30:44Z</time>
      </trkpt>
      <trkpt lat="49.87147" lon="2.41052">
        <ele>59.4</ele>
        <time>2022-01-05T15:30:46Z</time>
      </trkpt>
      <trkpt lat="49.87147" lon="2.41052">
        <ele>59.4</ele>
        <time>2022-01-05T15:30:47Z</time>
      </trkpt>
      <trkpt lat="49.87147" lon="2.41051">
        <ele>59.4</ele>
        <time>2022-01-05T15:30:48Z</time>
      </trkpt>
      <trkpt lat="49.87147" lon="2.41051">
        <ele>59.4</ele>
        <time>2022-01-05T15:30:50Z</time>
      </trkpt>
      <trkpt lat="49.87147" lon="2.4105">
        <ele>59.4</ele>
        <time>2022-01-05T15:30:51Z</time>
      </trkpt>
      <trkpt lat="49.87148" lon="2.4105">
        <ele>59.4</ele>
        <time>2022-01-05T15:30:52Z</time>
      </trkpt>
      <trkpt lat="49.87148" lon="2.4105">
        <ele>59.4</ele>
        <time>2022-01-05T15:30:53Z</time>
      </trkpt>
      <trkpt lat="49.87149" lon="2.41049">
        <ele>59.4</ele>
        <time>2022-01-05T15:30:55Z</time>
      </trkpt>
      <trkpt lat="49.87149" lon="2.41049">
        <ele>59.4</ele>
        <time>2022-01-05T15:30:56Z</time>
      </trkpt>
      <trkpt lat="49.8715" lon="2.4105">
        <ele>59.4</ele>
        <time>2022-01-05T15:30:57Z</time>
      </trkpt>
      <trkpt lat="49.87151" lon="2.4105">
        <ele>59.4</ele>
        <time>2022-01-05T15:30:58Z</time>
      </trkpt>
      <trkpt lat="49.87152" lon="2.41051">
        <ele>59.4</ele>
        <time>2022-01-05T15:30:59Z</time>
      </trkpt>
      <trkpt lat="49.87152" lon="2.41052">
        <ele>59.4</ele>
        <time>2022-01-05T15:31:00Z</time>
      </trkpt>
      <trkpt lat="49.87153" lon="2.41052">
        <ele>59.4</ele>
        <time>2022-01-05T15:31:01Z</time>
      </trkpt>
      <trkpt lat="49.87154" lon="2.41052">
        <ele>59.4</ele>
        <time>2022-01-05T15:31:02Z</time>
      </trkpt>
      <trkpt lat="49.87155" lon="2.41052">
        <ele>59.5</ele>
        <time>2022-01-05T15:31:04Z</time>
      </trkpt>
      <trkpt lat="49.87157" lon="2.41052">
        <ele>59.5</ele>
        <time>2022-01-05T15:31:06Z</time>
      </trkpt>
      <trkpt lat="49.87158" lon="2.41051">
        <ele>59.5</ele>
        <time>2022-01-05T15:31:07Z</time>
      </trkpt>
      <trkpt lat="49.87158" lon="2.4105">
        <ele>59.5</ele>
        <time>2022-01-05T15:31:08Z</time>
      </trkpt>
      <trkpt lat="49.87159" lon="2.41048">
        <ele>59.5</ele>
        <time>2022-01-05T15:31:09Z</time>
      </trkpt>
      <trkpt lat="49.87159" lon="2.41045">
        <ele>59.5</ele>
        <time>2022-01-05T15:31:11Z</time>
      </trkpt>
      <trkpt lat="49.8716" lon="2.41041">
        <ele>59.5</ele>
        <time>2022-01-05T15:31:13Z</time>
      </trkpt>
      <trkpt lat="49.8716" lon="2.41041">
        <ele>59.5</ele>
        <time>2022-01-05T15:31:14Z</time>
      </trkpt>
      <trkpt lat="49.87161" lon="2.41042">
        <ele>59.5</ele>
        <time>2022-01-05T15:31:15Z</time>
      </trkpt>
      <trkpt lat="49.87161" lon="2.41042">
        <ele>59.5</ele>
        <time>2022-01-05T15:31:16Z</time>
      </trkpt>
      <trkpt lat="49.87161" lon="2.41043">
        <ele>59.5</ele>
        <time>2022-01-05T15:31:17Z</time>
      </trkpt>
      <trkpt lat="49.87161" lon="2.41043">
        <ele>59.5</ele>
        <time>2022-01-05T15:31:18Z</time>
      </trkpt>
      <trkpt lat="49.87162" lon="2.41042">
        <ele>59.5</ele>
        <time>2022-01-05T15:31:20Z</time>
      </trkpt>
      <trkpt lat="49.87162" lon="2.41041">
        <ele>59.5</ele>
        <time>2022-01-05T15:31:21Z</time>
      </trkpt>
      <trkpt lat="49.87163" lon="2.4104">
        <ele>59.5</ele>
        <time>2022-01-05T15:31:23Z</time>
      </trkpt>
      <trkpt lat="49.87164" lon="2.41039">
        <ele>59.5</ele>
        <time>2022-01-05T15:31:24Z</time>
      </trkpt>
      <trkpt lat="49.87166" lon="2.41038">
        <ele>59.6</ele>
        <time>2022-01-05T15:31:25Z</time>
      </trkpt>
      <trkpt lat="49.87167" lon="2.41036">
        <ele>59.6</ele>
        <time>2022-01-05T15:31:27Z</time>
      </trkpt>
      <trkpt lat="49.87169" lon="2.41034">
        <ele>59.6</ele>
        <time>2022-01-05T15:31:29Z</time>
      </trkpt>
      <trkpt lat="49.8717" lon="2.41032">
        <ele>59.6</ele>
        <time>2022-01-05T15:31:31Z</time>
      </trkpt>
      <trkpt lat="49.8717" lon="2.41031">
        <ele>59.6</ele>
        <time>2022-01-05T15:31:32Z</time>
      </trkpt>
      <trkpt lat="49.8717" lon="2.41031">
        <ele>59.6</ele>
        <time>2022-01-05T15:31:33Z</time>
      </trkpt>
      <trkpt lat="49.87171" lon="2.41031">
        <ele>59.6</ele>
        <time>2022-01-05T15:31:34Z</time>
      </trkpt>
      <trkpt lat="49.87172" lon="2.41031">
        <ele>59.6</ele>
        <time>2022-01-05T15:31:35Z</time>
      </trkpt>
      <trkpt lat="49.87173" lon="2.4103">
        <ele>59.6</ele>
        <time>2022-01-05T15:31:36Z</time>
      </trkpt>
      <trkpt lat="49.87174" lon="2.4103">
        <ele>59.6</ele>
        <time>2022-01-05T15:31:37Z</time>
      </trkpt>
      <trkpt lat="49.87174" lon="2.4103">
        <ele>59.5</ele>
        <time>2022-01-05T15:31:39Z</time>
      </trkpt>
      <trkpt lat="49.87175" lon="2.4103">
        <ele>59.5</ele>
        <time>2022-01-05T15:31:40Z</time>
      </trkpt>
      <trkpt lat="49.87176" lon="2.41029">
        <ele>59.5</ele>
        <time>2022-01-05T15:31:41Z</time>
      </trkpt>
      <trkpt lat="49.87177" lon="2.41029">
        <ele>59.5</ele>
        <time>2022-01-05T15:31:42Z</time>
      </trkpt>
      <trkpt lat="49.87178" lon="2.41028">
        <ele>59.5</ele>
        <time>2022-01-05T15:31:44Z</time>
      </trkpt>
      <trkpt lat="49.87178" lon="2.41028">
        <ele>59.5</ele>
        <time>2022-01-05T15:31:45Z</time>
      </trkpt>
      <trkpt lat="49.87179" lon="2.41027">
        <ele>59.5</ele>
        <time>2022-01-05T15:31:47Z</time>
      </trkpt>
      <trkpt lat="49.87179" lon="2.41027">
        <ele>59.5</ele>
        <time>2022-01-05T15:31:48Z</time>
      </trkpt>
      <trkpt lat="49.8718" lon="2.41026">
        <ele>59.5</ele>
        <time>2022-01-05T15:31:49Z</time>
      </trkpt>
      <trkpt lat="49.87181" lon="2.41026">
        <ele>59.5</ele>
        <time>2022-01-05T15:31:52Z</time>
      </trkpt>
      <trkpt lat="49.87183" lon="2.41024">
        <ele>59.5</ele>
        <time>2022-01-05T15:31:54Z</time>
      </trkpt>
      <trkpt lat="49.87184" lon="2.41023">
        <ele>59.5</ele>
        <time>2022-01-05T15:31:55Z</time>
      </trkpt>
      <trkpt lat="49.87185" lon="2.41022">
        <ele>59.5</ele>
        <time>2022-01-05T15:31:56Z</time>
      </trkpt>
      <trkpt lat="49.87186" lon="2.4102">
        <ele>59.5</ele>
        <time>2022-01-05T15:31:57Z</time>
      </trkpt>
      <trkpt lat="49.87186" lon="2.41019">
        <ele>59.5</ele>
        <time>2022-01-05T15:31:59Z</time>
      </trkpt>
      <trkpt lat="49.87185" lon="2.41019">
        <ele>59.5</ele>
        <time>2022-01-05T15:32:00Z</time>
      </trkpt>
      <trkpt lat="49.87186" lon="2.41019">
        <ele>59.5</ele>
        <time>2022-01-05T15:32:02Z</time>
      </trkpt>
      <trkpt lat="49.87187" lon="2.41018">
        <ele>59.4</ele>
        <time>2022-01-05T15:32:03Z</time>
      </trkpt>
      <trkpt lat="49.87188" lon="2.41017">
        <ele>59.4</ele>
        <time>2022-01-05T15:32:05Z</time>
      </trkpt>
      <trkpt lat="49.87188" lon="2.41017">
        <ele>59.4</ele>
        <time>2022-01-05T15:32:06Z</time>
      </trkpt>
      <trkpt lat="49.87189" lon="2.41016">
        <ele>59.4</ele>
        <time>2022-01-05T15:32:07Z</time>
      </trkpt>
      <trkpt lat="49.87189" lon="2.41015">
        <ele>59.4</ele>
        <time>2022-01-05T15:32:09Z</time>
      </trkpt>
      <trkpt lat="49.8719" lon="2.41015">
        <ele>59.4</ele>
        <time>2022-01-05T15:32:10Z</time>
      </trkpt>
      <trkpt lat="49.87191" lon="2.41014">
        <ele>59.4</ele>
        <time>2022-01-05T15:32:11Z</time>
      </trkpt>
      <trkpt lat="49.87191" lon="2.41014">
        <ele>59.4</ele>
        <time>2022-01-05T15:32:12Z</time>
      </trkpt>
      <trkpt lat="49.87192" lon="2.41014">
        <ele>59.4</ele>
        <time>2022-01-05T15:32:14Z</time>
      </trkpt>
      <trkpt lat="49.87193" lon="2.41013">
        <ele>59.4</ele>
        <time>2022-01-05T15:32:15Z</time>
      </trkpt>
      <trkpt lat="49.87194" lon="2.41013">
        <ele>59.4</ele>
        <time>2022-01-05T15:32:16Z</time>
      </trkpt>
      <trkpt lat="49.87195" lon="2.41012">
        <ele>59.4</ele>
        <time>2022-01-05T15:32:17Z</time>
      </trkpt>
      <trkpt lat="49.87196" lon="2.41011">
        <ele>59.4</ele>
        <time>2022-01-05T15:32:19Z</time>
      </trkpt>
      <trkpt lat="49.87197" lon="2.4101">
        <ele>59.4</ele>
        <time>2022-01-05T15:32:21Z</time>
      </trkpt>
      <trkpt lat="49.87199" lon="2.41009">
        <ele>59.4</ele>
        <time>2022-01-05T15:32:22Z</time>
      </trkpt>
      <trkpt lat="49.872" lon="2.41008">
        <ele>59.4</ele>
        <time>2022-01-05T15:32:23Z</time>
      </trkpt>
      <trkpt lat="49.87201" lon="2.41007">
        <ele>59.4</ele>
        <time>2022-01-05T15:32:25Z</time>
      </trkpt>
      <trkpt lat="49.87203" lon="2.41005">
        <ele>59.4</ele>
        <time>2022-01-05T15:32:27Z</time>
      </trkpt>
      <trkpt lat="49.87204" lon="2.41004">
        <ele>59.4</ele>
        <time>2022-01-05T15:32:28Z</time>
      </trkpt>
      <trkpt lat="49.87206" lon="2.41002">
        <ele>59.4</ele>
        <time>2022-01-05T15:32:29Z</time>
      </trkpt>
      <trkpt lat="49.87207" lon="2.41001">
        <ele>59.4</ele>
        <time>2022-01-05T15:32:31Z</time>
      </trkpt>
      <trkpt lat="49.87208" lon="2.41">
        <ele>59.4</ele>
        <time>2022-01-05T15:32:32Z</time>
      </trkpt>
      <trkpt lat="49.87209" lon="2.40999">
        <ele>59.4</ele>
        <time>2022-01-05T15:32:33Z</time>
      </trkpt>
      <trkpt lat="49.8721" lon="2.40998">
        <ele>59.4</ele>
        <time>2022-01-05T15:32:34Z</time>
      </trkpt>
      <trkpt lat="49.87212" lon="2.40996">
        <ele>59.4</ele>
        <time>2022-01-05T15:32:35Z</time>
      </trkpt>
      <trkpt lat="49.87213" lon="2.40996">
        <ele>59.4</ele>
        <time>2022-01-05T15:32:36Z</time>
      </trkpt>
      <trkpt lat="49.87214" lon="2.40995">
        <ele>59.4</ele>
        <time>2022-01-05T15:32:38Z</time>
      </trkpt>
      <trkpt lat="49.87216" lon="2.40995">
        <ele>59.4</ele>
        <time>2022-01-05T15:32:39Z</time>
      </trkpt>
      <trkpt lat="49.87219" lon="2.40993">
        <ele>59.4</ele>
        <time>2022-01-05T15:32:41Z</time>
      </trkpt>
      <trkpt lat="49.87221" lon="2.40992">
        <ele>59.4</ele>
        <time>2022-01-05T15:32:42Z</time>
      </trkpt>
      <trkpt lat="49.87223" lon="2.40991">
        <ele>59.5</ele>
        <time>2022-01-05T15:32:44Z</time>
      </trkpt>
      <trkpt lat="49.87224" lon="2.4099">
        <ele>59.5</ele>
        <time>2022-01-05T15:32:46Z</time>
      </trkpt>
      <trkpt lat="49.87225" lon="2.4099">
        <ele>59.5</ele>
        <time>2022-01-05T15:32:48Z</time>
      </trkpt>
      <trkpt lat="49.87226" lon="2.4099">
        <ele>59.5</ele>
        <time>2022-01-05T15:32:49Z</time>
      </trkpt>
      <trkpt lat="49.87227" lon="2.40989">
        <ele>59.5</ele>
        <time>2022-01-05T15:32:50Z</time>
      </trkpt>
      <trkpt lat="49.87227" lon="2.40989">
        <ele>59.5</ele>
        <time>2022-01-05T15:32:52Z</time>
      </trkpt>
      <trkpt lat="49.87228" lon="2.40989">
        <ele>59.5</ele>
        <time>2022-01-05T15:32:53Z</time>
      </trkpt>
      <trkpt lat="49.87229" lon="2.40988">
        <ele>59.5</ele>
        <time>2022-01-05T15:32:54Z</time>
      </trkpt>
      <trkpt lat="49.8723" lon="2.40988">
        <ele>59.5</ele>
        <time>2022-01-05T15:32:55Z</time>
      </trkpt>
      <trkpt lat="49.87231" lon="2.40987">
        <ele>59.5</ele>
        <time>2022-01-05T15:32:56Z</time>
      </trkpt>
      <trkpt lat="49.87232" lon="2.40987">
        <ele>59.5</ele>
        <time>2022-01-05T15:32:58Z</time>
      </trkpt>
      <trkpt lat="49.87233" lon="2.40986">
        <ele>59.6</ele>
        <time>2022-01-05T15:32:59Z</time>
      </trkpt>
      <trkpt lat="49.87235" lon="2.40985">
        <ele>59.6</ele>
        <time>2022-01-05T15:33:01Z</time>
      </trkpt>
      <trkpt lat="49.87236" lon="2.40984">
        <ele>59.6</ele>
        <time>2022-01-05T15:33:02Z</time>
      </trkpt>
      <trkpt lat="49.87237" lon="2.40984">
        <ele>59.6</ele>
        <time>2022-01-05T15:33:03Z</time>
      </trkpt>
      <trkpt lat="49.87238" lon="2.40983">
        <ele>59.6</ele>
        <time>2022-01-05T15:33:04Z</time>
      </trkpt>
      <trkpt lat="49.87239" lon="2.40983">
        <ele>59.6</ele>
        <time>2022-01-05T15:33:06Z</time>
      </trkpt>
      <trkpt lat="49.8724" lon="2.40983">
        <ele>59.6</ele>
        <time>2022-01-05T15:33:07Z</time>
      </trkpt>
      <trkpt lat="49.8724" lon="2.40984">
        <ele>59.6</ele>
        <time>2022-01-05T15:33:08Z</time>
      </trkpt>
      <trkpt lat="49.87241" lon="2.40984">
        <ele>59.6</ele>
        <time>2022-01-05T15:33:09Z</time>
      </trkpt>
      <trkpt lat="49.87242" lon="2.40985">
        <ele>59.6</ele>
        <time>2022-01-05T15:33:11Z</time>
      </trkpt>
      <trkpt lat="49.87243" lon="2.40985">
        <ele>59.6</ele>
        <time>2022-01-05T15:33:13Z</time>
      </trkpt>
      <trkpt lat="49.87244" lon="2.40985">
        <ele>59.6</ele>
        <time>2022-01-05T15:33:14Z</time>
      </trkpt>
      <trkpt lat="49.87244" lon="2.40985">
        <ele>59.7</ele>
        <time>2022-01-05T15:33:15Z</time>
      </trkpt>
      <trkpt lat="49.87245" lon="2.40984">
        <ele>59.7</ele>
        <time>2022-01-05T15:33:16Z</time>
      </trkpt>
      <trkpt lat="49.87246" lon="2.40984">
        <ele>59.7</ele>
        <time>2022-01-05T15:33:18Z</time>
      </trkpt>
      <trkpt lat="49.87246" lon="2.40984">
        <ele>59.7</ele>
        <time>2022-01-05T15:33:19Z</time>
      </trkpt>
      <trkpt lat="49.87247" lon="2.40984">
        <ele>59.7</ele>
        <time>2022-01-05T15:33:20Z</time>
      </trkpt>
      <trkpt lat="49.87248" lon="2.40983">
        <ele>59.7</ele>
        <time>2022-01-05T15:33:21Z</time>
      </trkpt>
      <trkpt lat="49.87249" lon="2.40983">
        <ele>59.7</ele>
        <time>2022-01-05T15:33:23Z</time>
      </trkpt>
      <trkpt lat="49.87249" lon="2.40984">
        <ele>59.7</ele>
        <time>2022-01-05T15:33:25Z</time>
      </trkpt>
      <trkpt lat="49.87249" lon="2.40987">
        <ele>59.6</ele>
        <time>2022-01-05T15:33:26Z</time>
      </trkpt>
      <trkpt lat="49.8725" lon="2.4099">
        <ele>59.6</ele>
        <time>2022-01-05T15:33:28Z</time>
      </trkpt>
      <trkpt lat="49.8725" lon="2.40991">
        <ele>59.6</ele>
        <time>2022-01-05T15:33:29Z</time>
      </trkpt>
      <trkpt lat="49.87251" lon="2.40991">
        <ele>59.6</ele>
        <time>2022-01-05T15:33:30Z</time>
      </trkpt>
      <trkpt lat="49.87252" lon="2.40991">
        <ele>59.6</ele>
        <time>2022-01-05T15:33:31Z</time>
      </trkpt>
      <trkpt lat="49.87252" lon="2.40991">
        <ele>59.6</ele>
        <time>2022-01-05T15:33:33Z</time>
      </trkpt>
      <trkpt lat="49.87253" lon="2.4099">
        <ele>59.6</ele>
        <time>2022-01-05T15:33:34Z</time>
      </trkpt>
      <trkpt lat="49.87254" lon="2.40987">
        <ele>59.6</ele>
        <time>2022-01-05T15:33:35Z</time>
      </trkpt>
      <trkpt lat="49.87255" lon="2.40986">
        <ele>59.6</ele>
        <time>2022-01-05T15:33:36Z</time>
      </trkpt>
      <trkpt lat="49.87255" lon="2.40985">
        <ele>59.6</ele>
        <time>2022-01-05T15:33:37Z</time>
      </trkpt>
      <trkpt lat="49.87256" lon="2.40983">
        <ele>59.6</ele>
        <time>2022-01-05T15:33:38Z</time>
      </trkpt>
      <trkpt lat="49.87257" lon="2.40981">
        <ele>59.6</ele>
        <time>2022-01-05T15:33:39Z</time>
      </trkpt>
      <trkpt lat="49.87258" lon="2.40979">
        <ele>59.5</ele>
        <time>2022-01-05T15:33:41Z</time>
      </trkpt>
      <trkpt lat="49.87259" lon="2.40977">
        <ele>59.5</ele>
        <time>2022-01-05T15:33:42Z</time>
      </trkpt>
      <trkpt lat="49.87259" lon="2.40976">
        <ele>59.5</ele>
        <time>2022-01-05T15:33:43Z</time>
      </trkpt>
      <trkpt lat="49.8726" lon="2.40974">
        <ele>59.5</ele>
        <time>2022-01-05T15:33:44Z</time>
      </trkpt>
      <trkpt lat="49.87261" lon="2.40972">
        <ele>59.5</ele>
        <time>2022-01-05T15:33:45Z</time>
      </trkpt>
      <trkpt lat="49.87262" lon="2.40971">
        <ele>59.4</ele>
        <time>2022-01-05T15:33:46Z</time>
      </trkpt>
      <trkpt lat="49.87263" lon="2.4097">
        <ele>59.4</ele>
        <time>2022-01-05T15:33:48Z</time>
      </trkpt>
      <trkpt lat="49.87265" lon="2.40967">
        <ele>59.3</ele>
        <time>2022-01-05T15:33:49Z</time>
      </trkpt>
      <trkpt lat="49.87265" lon="2.40967">
        <ele>59.3</ele>
        <time>2022-01-05T15:33:50Z</time>
      </trkpt>
      <trkpt lat="49.87266" lon="2.40966">
        <ele>59.3</ele>
        <time>2022-01-05T15:33:51Z</time>
      </trkpt>
      <trkpt lat="49.87267" lon="2.40965">
        <ele>59.3</ele>
        <time>2022-01-05T15:33:52Z</time>
      </trkpt>
      <trkpt lat="49.87268" lon="2.40963">
        <ele>59.2</ele>
        <time>2022-01-05T15:33:53Z</time>
      </trkpt>
      <trkpt lat="49.8727" lon="2.40961">
        <ele>59.2</ele>
        <time>2022-01-05T15:33:54Z</time>
      </trkpt>
      <trkpt lat="49.87271" lon="2.4096">
        <ele>59.1</ele>
        <time>2022-01-05T15:33:56Z</time>
      </trkpt>
      <trkpt lat="49.87272" lon="2.40959">
        <ele>59.1</ele>
        <time>2022-01-05T15:33:57Z</time>
      </trkpt>
      <trkpt lat="49.87272" lon="2.40958">
        <ele>59.1</ele>
        <time>2022-01-05T15:33:58Z</time>
      </trkpt>
      <trkpt lat="49.87273" lon="2.40957">
        <ele>59.1</ele>
        <time>2022-01-05T15:33:59Z</time>
      </trkpt>
      <trkpt lat="49.87275" lon="2.40955">
        <ele>59</ele>
        <time>2022-01-05T15:34:00Z</time>
      </trkpt>
      <trkpt lat="49.87276" lon="2.40955">
        <ele>59</ele>
        <time>2022-01-05T15:34:02Z</time>
      </trkpt>
      <trkpt lat="49.87277" lon="2.40954">
        <ele>59</ele>
        <time>2022-01-05T15:34:03Z</time>
      </trkpt>
      <trkpt lat="49.87278" lon="2.40953">
        <ele>58.9</ele>
        <time>2022-01-05T15:34:04Z</time>
      </trkpt>
      <trkpt lat="49.8728" lon="2.40953">
        <ele>58.9</ele>
        <time>2022-01-05T15:34:05Z</time>
      </trkpt>
      <trkpt lat="49.87282" lon="2.40951">
        <ele>58.8</ele>
        <time>2022-01-05T15:34:06Z</time>
      </trkpt>
      <trkpt lat="49.87283" lon="2.40951">
        <ele>58.8</ele>
        <time>2022-01-05T15:34:07Z</time>
      </trkpt>
      <trkpt lat="49.87283" lon="2.4095">
        <ele>58.8</ele>
        <time>2022-01-05T15:34:08Z</time>
      </trkpt>
      <trkpt lat="49.87285" lon="2.40949">
        <ele>58.8</ele>
        <time>2022-01-05T15:34:10Z</time>
      </trkpt>
      <trkpt lat="49.87286" lon="2.40948">
        <ele>58.7</ele>
        <time>2022-01-05T15:34:11Z</time>
      </trkpt>
      <trkpt lat="49.87287" lon="2.40947">
        <ele>58.7</ele>
        <time>2022-01-05T15:34:12Z</time>
      </trkpt>
      <trkpt lat="49.87288" lon="2.40946">
        <ele>58.7</ele>
        <time>2022-01-05T15:34:13Z</time>
      </trkpt>
      <trkpt lat="49.8729" lon="2.40945">
        <ele>58.6</ele>
        <time>2022-01-05T15:34:14Z</time>
      </trkpt>
      <trkpt lat="49.87291" lon="2.40944">
        <ele>58.6</ele>
        <time>2022-01-05T15:34:15Z</time>
      </trkpt>
      <trkpt lat="49.87292" lon="2.40942">
        <ele>58.6</ele>
        <time>2022-01-05T15:34:17Z</time>
      </trkpt>
      <trkpt lat="49.87293" lon="2.40942">
        <ele>58.5</ele>
        <time>2022-01-05T15:34:18Z</time>
      </trkpt>
      <trkpt lat="49.87294" lon="2.40941">
        <ele>58.5</ele>
        <time>2022-01-05T15:34:19Z</time>
      </trkpt>
      <trkpt lat="49.87295" lon="2.4094">
        <ele>58.5</ele>
        <time>2022-01-05T15:34:20Z</time>
      </trkpt>
      <trkpt lat="49.87296" lon="2.4094">
        <ele>58.5</ele>
        <time>2022-01-05T15:34:21Z</time>
      </trkpt>
      <trkpt lat="49.87297" lon="2.40939">
        <ele>58.4</ele>
        <time>2022-01-05T15:34:22Z</time>
      </trkpt>
      <trkpt lat="49.87299" lon="2.40938">
        <ele>58.4</ele>
        <time>2022-01-05T15:34:24Z</time>
      </trkpt>
      <trkpt lat="49.873" lon="2.40938">
        <ele>58.3</ele>
        <time>2022-01-05T15:34:25Z</time>
      </trkpt>
      <trkpt lat="49.873" lon="2.40937">
        <ele>58.3</ele>
        <time>2022-01-05T15:34:26Z</time>
      </trkpt>
      <trkpt lat="49.87302" lon="2.40936">
        <ele>58.3</ele>
        <time>2022-01-05T15:34:27Z</time>
      </trkpt>
      <trkpt lat="49.87303" lon="2.40935">
        <ele>58.2</ele>
        <time>2022-01-05T15:34:28Z</time>
      </trkpt>
      <trkpt lat="49.87304" lon="2.40935">
        <ele>58.2</ele>
        <time>2022-01-05T15:34:30Z</time>
      </trkpt>
      <trkpt lat="49.87305" lon="2.40934">
        <ele>58.2</ele>
        <time>2022-01-05T15:34:31Z</time>
      </trkpt>
      <trkpt lat="49.87306" lon="2.40933">
        <ele>58.1</ele>
        <time>2022-01-05T15:34:32Z</time>
      </trkpt>
      <trkpt lat="49.87307" lon="2.40932">
        <ele>58.1</ele>
        <time>2022-01-05T15:34:33Z</time>
      </trkpt>
      <trkpt lat="49.87308" lon="2.40931">
        <ele>58.1</ele>
        <time>2022-01-05T15:34:34Z</time>
      </trkpt>
      <trkpt lat="49.87309" lon="2.4093">
        <ele>58</ele>
        <time>2022-01-05T15:34:35Z</time>
      </trkpt>
      <trkpt lat="49.8731" lon="2.40929">
        <ele>58</ele>
        <time>2022-01-05T15:34:37Z</time>
      </trkpt>
      <trkpt lat="49.87311" lon="2.40928">
        <ele>58</ele>
        <time>2022-01-05T15:34:38Z</time>
      </trkpt>
      <trkpt lat="49.87311" lon="2.40927">
        <ele>57.9</ele>
        <time>2022-01-05T15:34:39Z</time>
      </trkpt>
      <trkpt lat="49.87312" lon="2.40926">
        <ele>57.9</ele>
        <time>2022-01-05T15:34:40Z</time>
      </trkpt>
      <trkpt lat="49.87313" lon="2.40925">
        <ele>57.9</ele>
        <time>2022-01-05T15:34:41Z</time>
      </trkpt>
      <trkpt lat="49.87314" lon="2.40924">
        <ele>57.8</ele>
        <time>2022-01-05T15:34:42Z</time>
      </trkpt>
      <trkpt lat="49.87315" lon="2.40923">
        <ele>57.8</ele>
        <time>2022-01-05T15:34:44Z</time>
      </trkpt>
      <trkpt lat="49.87316" lon="2.40922">
        <ele>57.8</ele>
        <time>2022-01-05T15:34:45Z</time>
      </trkpt>
      <trkpt lat="49.87317" lon="2.40921">
        <ele>57.8</ele>
        <time>2022-01-05T15:34:46Z</time>
      </trkpt>
      <trkpt lat="49.87318" lon="2.4092">
        <ele>57.7</ele>
        <time>2022-01-05T15:34:47Z</time>
      </trkpt>
      <trkpt lat="49.87319" lon="2.40918">
        <ele>57.7</ele>
        <time>2022-01-05T15:34:48Z</time>
      </trkpt>
      <trkpt lat="49.8732" lon="2.40917">
        <ele>57.6</ele>
        <time>2022-01-05T15:34:49Z</time>
      </trkpt>
      <trkpt lat="49.87321" lon="2.40916">
        <ele>57.6</ele>
        <time>2022-01-05T15:34:50Z</time>
      </trkpt>
      <trkpt lat="49.87321" lon="2.40915">
        <ele>57.6</ele>
        <time>2022-01-05T15:34:51Z</time>
      </trkpt>
      <trkpt lat="49.87322" lon="2.40913">
        <ele>57.5</ele>
        <time>2022-01-05T15:34:53Z</time>
      </trkpt>
      <trkpt lat="49.87322" lon="2.4091">
        <ele>57.5</ele>
        <time>2022-01-05T15:34:55Z</time>
      </trkpt>
      <trkpt lat="49.87322" lon="2.40906">
        <ele>57.5</ele>
        <time>2022-01-05T15:34:56Z</time>
      </trkpt>
      <trkpt lat="49.87322" lon="2.40905">
        <ele>57.5</ele>
        <time>2022-01-05T15:34:57Z</time>
      </trkpt>
      <trkpt lat="49.87322" lon="2.40904">
        <ele>57.4</ele>
        <time>2022-01-05T15:34:58Z</time>
      </trkpt>
      <trkpt lat="49.87322" lon="2.40902">
        <ele>57.4</ele>
        <time>2022-01-05T15:35:00Z</time>
      </trkpt>
      <trkpt lat="49.87322" lon="2.40901">
        <ele>57.4</ele>
        <time>2022-01-05T15:35:01Z</time>
      </trkpt>
      <trkpt lat="49.87323" lon="2.409">
        <ele>57.4</ele>
        <time>2022-01-05T15:35:02Z</time>
      </trkpt>
      <trkpt lat="49.87324" lon="2.409">
        <ele>57.4</ele>
        <time>2022-01-05T15:35:04Z</time>
      </trkpt>
      <trkpt lat="49.87325" lon="2.40899">
        <ele>57.3</ele>
        <time>2022-01-05T15:35:05Z</time>
      </trkpt>
      <trkpt lat="49.87326" lon="2.40899">
        <ele>57.3</ele>
        <time>2022-01-05T15:35:06Z</time>
      </trkpt>
      <trkpt lat="49.87327" lon="2.40898">
        <ele>57.3</ele>
        <time>2022-01-05T15:35:07Z</time>
      </trkpt>
      <trkpt lat="49.87329" lon="2.40897">
        <ele>57.3</ele>
        <time>2022-01-05T15:35:09Z</time>
      </trkpt>
      <trkpt lat="49.8733" lon="2.40897">
        <ele>57.2</ele>
        <time>2022-01-05T15:35:10Z</time>
      </trkpt>
      <trkpt lat="49.87331" lon="2.40897">
        <ele>57.2</ele>
        <time>2022-01-05T15:35:11Z</time>
      </trkpt>
      <trkpt lat="49.87333" lon="2.40896">
        <ele>57.2</ele>
        <time>2022-01-05T15:35:12Z</time>
      </trkpt>
      <trkpt lat="49.87334" lon="2.40895">
        <ele>57.2</ele>
        <time>2022-01-05T15:35:13Z</time>
      </trkpt>
      <trkpt lat="49.87335" lon="2.40894">
        <ele>57.1</ele>
        <time>2022-01-05T15:35:14Z</time>
      </trkpt>
      <trkpt lat="49.87336" lon="2.40893">
        <ele>57.1</ele>
        <time>2022-01-05T15:35:16Z</time>
      </trkpt>
      <trkpt lat="49.87337" lon="2.40892">
        <ele>57.1</ele>
        <time>2022-01-05T15:35:17Z</time>
      </trkpt>
      <trkpt lat="49.87338" lon="2.40891">
        <ele>57.1</ele>
        <time>2022-01-05T15:35:18Z</time>
      </trkpt>
      <trkpt lat="49.87339" lon="2.4089">
        <ele>57</ele>
        <time>2022-01-05T15:35:19Z</time>
      </trkpt>
      <trkpt lat="49.8734" lon="2.4089">
        <ele>57</ele>
        <time>2022-01-05T15:35:20Z</time>
      </trkpt>
      <trkpt lat="49.87341" lon="2.40889">
        <ele>57</ele>
        <time>2022-01-05T15:35:22Z</time>
      </trkpt>
      <trkpt lat="49.87342" lon="2.40888">
        <ele>57</ele>
        <time>2022-01-05T15:35:23Z</time>
      </trkpt>
      <trkpt lat="49.87343" lon="2.40888">
        <ele>57</ele>
        <time>2022-01-05T15:35:24Z</time>
      </trkpt>
      <trkpt lat="49.87344" lon="2.40887">
        <ele>56.9</ele>
        <time>2022-01-05T15:35:25Z</time>
      </trkpt>
      <trkpt lat="49.87345" lon="2.40886">
        <ele>56.9</ele>
        <time>2022-01-05T15:35:26Z</time>
      </trkpt>
      <trkpt lat="49.87347" lon="2.40885">
        <ele>56.9</ele>
        <time>2022-01-05T15:35:28Z</time>
      </trkpt>
      <trkpt lat="49.87348" lon="2.40885">
        <ele>56.9</ele>
        <time>2022-01-05T15:35:29Z</time>
      </trkpt>
      <trkpt lat="49.87349" lon="2.40883">
        <ele>56.8</ele>
        <time>2022-01-05T15:35:30Z</time>
      </trkpt>
      <trkpt lat="49.8735" lon="2.40883">
        <ele>56.8</ele>
        <time>2022-01-05T15:35:32Z</time>
      </trkpt>
      <trkpt lat="49.87352" lon="2.40882">
        <ele>56.8</ele>
        <time>2022-01-05T15:35:33Z</time>
      </trkpt>
      <trkpt lat="49.87352" lon="2.40881">
        <ele>56.8</ele>
        <time>2022-01-05T15:35:34Z</time>
      </trkpt>
      <trkpt lat="49.87354" lon="2.40881">
        <ele>56.7</ele>
        <time>2022-01-05T15:35:35Z</time>
      </trkpt>
      <trkpt lat="49.87355" lon="2.40882">
        <ele>56.7</ele>
        <time>2022-01-05T15:35:37Z</time>
      </trkpt>
      <trkpt lat="49.87355" lon="2.40884">
        <ele>56.7</ele>
        <time>2022-01-05T15:35:38Z</time>
      </trkpt>
      <trkpt lat="49.87357" lon="2.40884">
        <ele>56.7</ele>
        <time>2022-01-05T15:35:40Z</time>
      </trkpt>
      <trkpt lat="49.87358" lon="2.40883">
        <ele>56.7</ele>
        <time>2022-01-05T15:35:41Z</time>
      </trkpt>
      <trkpt lat="49.87359" lon="2.40882">
        <ele>56.6</ele>
        <time>2022-01-05T15:35:42Z</time>
      </trkpt>
      <trkpt lat="49.87361" lon="2.40881">
        <ele>56.6</ele>
        <time>2022-01-05T15:35:43Z</time>
      </trkpt>
      <trkpt lat="49.87362" lon="2.4088">
        <ele>56.6</ele>
        <time>2022-01-05T15:35:44Z</time>
      </trkpt>
      <trkpt lat="49.87363" lon="2.40879">
        <ele>56.6</ele>
        <time>2022-01-05T15:35:45Z</time>
      </trkpt>
      <trkpt lat="49.87363" lon="2.40878">
        <ele>56.6</ele>
        <time>2022-01-05T15:35:47Z</time>
      </trkpt>
      <trkpt lat="49.87364" lon="2.40878">
        <ele>56.5</ele>
        <time>2022-01-05T15:35:48Z</time>
      </trkpt>
      <trkpt lat="49.87364" lon="2.40877">
        <ele>56.5</ele>
        <time>2022-01-05T15:35:49Z</time>
      </trkpt>
      <trkpt lat="49.87365" lon="2.40876">
        <ele>56.5</ele>
        <time>2022-01-05T15:35:50Z</time>
      </trkpt>
      <trkpt lat="49.87366" lon="2.40875">
        <ele>56.5</ele>
        <time>2022-01-05T15:35:51Z</time>
      </trkpt>
      <trkpt lat="49.87366" lon="2.40875">
        <ele>56.5</ele>
        <time>2022-01-05T15:35:52Z</time>
      </trkpt>
      <trkpt lat="49.87367" lon="2.40875">
        <ele>56.5</ele>
        <time>2022-01-05T15:35:53Z</time>
      </trkpt>
      <trkpt lat="49.87367" lon="2.40874">
        <ele>56.5</ele>
        <time>2022-01-05T15:35:54Z</time>
      </trkpt>
      <trkpt lat="49.87369" lon="2.40873">
        <ele>56.5</ele>
        <time>2022-01-05T15:35:56Z</time>
      </trkpt>
      <trkpt lat="49.87369" lon="2.40873">
        <ele>56.4</ele>
        <time>2022-01-05T15:35:57Z</time>
      </trkpt>
      <trkpt lat="49.8737" lon="2.40873">
        <ele>56.4</ele>
        <time>2022-01-05T15:35:58Z</time>
      </trkpt>
      <trkpt lat="49.87371" lon="2.40872">
        <ele>56.4</ele>
        <time>2022-01-05T15:35:59Z</time>
      </trkpt>
      <trkpt lat="49.87372" lon="2.40871">
        <ele>56.4</ele>
        <time>2022-01-05T15:36:00Z</time>
      </trkpt>
      <trkpt lat="49.87373" lon="2.40871">
        <ele>56.4</ele>
        <time>2022-01-05T15:36:01Z</time>
      </trkpt>
      <trkpt lat="49.87374" lon="2.40869">
        <ele>56.4</ele>
        <time>2022-01-05T15:36:03Z</time>
      </trkpt>
      <trkpt lat="49.87375" lon="2.40868">
        <ele>56.4</ele>
        <time>2022-01-05T15:36:04Z</time>
      </trkpt>
      <trkpt lat="49.87376" lon="2.40867">
        <ele>56.3</ele>
        <time>2022-01-05T15:36:05Z</time>
      </trkpt>
      <trkpt lat="49.87377" lon="2.40866">
        <ele>56.3</ele>
        <time>2022-01-05T15:36:07Z</time>
      </trkpt>
      <trkpt lat="49.87379" lon="2.40864">
        <ele>56.3</ele>
        <time>2022-01-05T15:36:08Z</time>
      </trkpt>
      <trkpt lat="49.8738" lon="2.40863">
        <ele>56.3</ele>
        <time>2022-01-05T15:36:09Z</time>
      </trkpt>
      <trkpt lat="49.87381" lon="2.40863">
        <ele>56.3</ele>
        <time>2022-01-05T15:36:10Z</time>
      </trkpt>
      <trkpt lat="49.87382" lon="2.40861">
        <ele>56.2</ele>
        <time>2022-01-05T15:36:12Z</time>
      </trkpt>
      <trkpt lat="49.87383" lon="2.4086">
        <ele>56.2</ele>
        <time>2022-01-05T15:36:13Z</time>
      </trkpt>
      <trkpt lat="49.87385" lon="2.40859">
        <ele>56.2</ele>
        <time>2022-01-05T15:36:14Z</time>
      </trkpt>
      <trkpt lat="49.87386" lon="2.40858">
        <ele>56.2</ele>
        <time>2022-01-05T15:36:15Z</time>
      </trkpt>
      <trkpt lat="49.87387" lon="2.40857">
        <ele>56.2</ele>
        <time>2022-01-05T15:36:17Z</time>
      </trkpt>
      <trkpt lat="49.87388" lon="2.40856">
        <ele>56.1</ele>
        <time>2022-01-05T15:36:18Z</time>
      </trkpt>
      <trkpt lat="49.87389" lon="2.40855">
        <ele>56.1</ele>
        <time>2022-01-05T15:36:19Z</time>
      </trkpt>
      <trkpt lat="49.8739" lon="2.40854">
        <ele>56.1</ele>
        <time>2022-01-05T15:36:20Z</time>
      </trkpt>
      <trkpt lat="49.87391" lon="2.40853">
        <ele>56.1</ele>
        <time>2022-01-05T15:36:22Z</time>
      </trkpt>
      <trkpt lat="49.87392" lon="2.40851">
        <ele>56.1</ele>
        <time>2022-01-05T15:36:23Z</time>
      </trkpt>
      <trkpt lat="49.87393" lon="2.4085">
        <ele>56</ele>
        <time>2022-01-05T15:36:24Z</time>
      </trkpt>
      <trkpt lat="49.87395" lon="2.40848">
        <ele>56</ele>
        <time>2022-01-05T15:36:25Z</time>
      </trkpt>
      <trkpt lat="49.87396" lon="2.40847">
        <ele>56</ele>
        <time>2022-01-05T15:36:27Z</time>
      </trkpt>
      <trkpt lat="49.87397" lon="2.40847">
        <ele>56</ele>
        <time>2022-01-05T15:36:28Z</time>
      </trkpt>
      <trkpt lat="49.87397" lon="2.40846">
        <ele>56</ele>
        <time>2022-01-05T15:36:29Z</time>
      </trkpt>
      <trkpt lat="49.87398" lon="2.40845">
        <ele>56</ele>
        <time>2022-01-05T15:36:30Z</time>
      </trkpt>
      <trkpt lat="49.87399" lon="2.40844">
        <ele>56</ele>
        <time>2022-01-05T15:36:31Z</time>
      </trkpt>
      <trkpt lat="49.87402" lon="2.40841">
        <ele>55.9</ele>
        <time>2022-01-05T15:36:33Z</time>
      </trkpt>
      <trkpt lat="49.87402" lon="2.4084">
        <ele>55.9</ele>
        <time>2022-01-05T15:36:34Z</time>
      </trkpt>
      <trkpt lat="49.87404" lon="2.40838">
        <ele>55.9</ele>
        <time>2022-01-05T15:36:35Z</time>
      </trkpt>
      <trkpt lat="49.87405" lon="2.40837">
        <ele>55.9</ele>
        <time>2022-01-05T15:36:36Z</time>
      </trkpt>
      <trkpt lat="49.87406" lon="2.40836">
        <ele>55.8</ele>
        <time>2022-01-05T15:36:38Z</time>
      </trkpt>
      <trkpt lat="49.87408" lon="2.40835">
        <ele>55.8</ele>
        <time>2022-01-05T15:36:39Z</time>
      </trkpt>
      <trkpt lat="49.87409" lon="2.40834">
        <ele>55.8</ele>
        <time>2022-01-05T15:36:40Z</time>
      </trkpt>
      <trkpt lat="49.8741" lon="2.40833">
        <ele>55.8</ele>
        <time>2022-01-05T15:36:42Z</time>
      </trkpt>
      <trkpt lat="49.87411" lon="2.40832">
        <ele>55.8</ele>
        <time>2022-01-05T15:36:43Z</time>
      </trkpt>
      <trkpt lat="49.87413" lon="2.40832">
        <ele>55.7</ele>
        <time>2022-01-05T15:36:44Z</time>
      </trkpt>
      <trkpt lat="49.87414" lon="2.40831">
        <ele>55.7</ele>
        <time>2022-01-05T15:36:45Z</time>
      </trkpt>
      <trkpt lat="49.87415" lon="2.40831">
        <ele>55.7</ele>
        <time>2022-01-05T15:36:46Z</time>
      </trkpt>
      <trkpt lat="49.87417" lon="2.40829">
        <ele>55.7</ele>
        <time>2022-01-05T15:36:48Z</time>
      </trkpt>
      <trkpt lat="49.87418" lon="2.40829">
        <ele>55.7</ele>
        <time>2022-01-05T15:36:49Z</time>
      </trkpt>
      <trkpt lat="49.87419" lon="2.40828">
        <ele>55.7</ele>
        <time>2022-01-05T15:36:50Z</time>
      </trkpt>
      <trkpt lat="49.8742" lon="2.40827">
        <ele>55.6</ele>
        <time>2022-01-05T15:36:51Z</time>
      </trkpt>
      <trkpt lat="49.87421" lon="2.40826">
        <ele>55.6</ele>
        <time>2022-01-05T15:36:52Z</time>
      </trkpt>
      <trkpt lat="49.87422" lon="2.40825">
        <ele>55.6</ele>
        <time>2022-01-05T15:36:53Z</time>
      </trkpt>
      <trkpt lat="49.87424" lon="2.40824">
        <ele>55.6</ele>
        <time>2022-01-05T15:36:55Z</time>
      </trkpt>
      <trkpt lat="49.87425" lon="2.40824">
        <ele>55.6</ele>
        <time>2022-01-05T15:36:56Z</time>
      </trkpt>
      <trkpt lat="49.87427" lon="2.40823">
        <ele>55.5</ele>
        <time>2022-01-05T15:36:57Z</time>
      </trkpt>
      <trkpt lat="49.87429" lon="2.4082">
        <ele>55.5</ele>
        <time>2022-01-05T15:36:58Z</time>
      </trkpt>
      <trkpt lat="49.8743" lon="2.40819">
        <ele>55.5</ele>
        <time>2022-01-05T15:37:00Z</time>
      </trkpt>
      <trkpt lat="49.87431" lon="2.40818">
        <ele>55.5</ele>
        <time>2022-01-05T15:37:02Z</time>
      </trkpt>
      <trkpt lat="49.87433" lon="2.40816">
        <ele>55.4</ele>
        <time>2022-01-05T15:37:03Z</time>
      </trkpt>
      <trkpt lat="49.87434" lon="2.40815">
        <ele>55.4</ele>
        <time>2022-01-05T15:37:04Z</time>
      </trkpt>
      <trkpt lat="49.87435" lon="2.40814">
        <ele>55.4</ele>
        <time>2022-01-05T15:37:05Z</time>
      </trkpt>
      <trkpt lat="49.87436" lon="2.40812">
        <ele>55.4</ele>
        <time>2022-01-05T15:37:07Z</time>
      </trkpt>
      <trkpt lat="49.87438" lon="2.4081">
        <ele>55.4</ele>
        <time>2022-01-05T15:37:09Z</time>
      </trkpt>
      <trkpt lat="49.87439" lon="2.40809">
        <ele>55.4</ele>
        <time>2022-01-05T15:37:10Z</time>
      </trkpt>
      <trkpt lat="49.8744" lon="2.40808">
        <ele>55.3</ele>
        <time>2022-01-05T15:37:11Z</time>
      </trkpt>
      <trkpt lat="49.87441" lon="2.40807">
        <ele>55.3</ele>
        <time>2022-01-05T15:37:12Z</time>
      </trkpt>
      <trkpt lat="49.87442" lon="2.40805">
        <ele>55.3</ele>
        <time>2022-01-05T15:37:13Z</time>
      </trkpt>
      <trkpt lat="49.87443" lon="2.40804">
        <ele>55.3</ele>
        <time>2022-01-05T15:37:15Z</time>
      </trkpt>
      <trkpt lat="49.87445" lon="2.40802">
        <ele>55.3</ele>
        <time>2022-01-05T15:37:16Z</time>
      </trkpt>
      <trkpt lat="49.87446" lon="2.40801">
        <ele>55.2</ele>
        <time>2022-01-05T15:37:18Z</time>
      </trkpt>
      <trkpt lat="49.87448" lon="2.40799">
        <ele>55.2</ele>
        <time>2022-01-05T15:37:20Z</time>
      </trkpt>
      <trkpt lat="49.8745" lon="2.40797">
        <ele>55.2</ele>
        <time>2022-01-05T15:37:21Z</time>
      </trkpt>
      <trkpt lat="49.87451" lon="2.40796">
        <ele>55.2</ele>
        <time>2022-01-05T15:37:22Z</time>
      </trkpt>
      <trkpt lat="49.87452" lon="2.40796">
        <ele>55.2</ele>
        <time>2022-01-05T15:37:23Z</time>
      </trkpt>
      <trkpt lat="49.87454" lon="2.40794">
        <ele>55.1</ele>
        <time>2022-01-05T15:37:24Z</time>
      </trkpt>
      <trkpt lat="49.87454" lon="2.40793">
        <ele>55.1</ele>
        <time>2022-01-05T15:37:26Z</time>
      </trkpt>
      <trkpt lat="49.87455" lon="2.40793">
        <ele>55.1</ele>
        <time>2022-01-05T15:37:27Z</time>
      </trkpt>
      <trkpt lat="49.87456" lon="2.40792">
        <ele>55.1</ele>
        <time>2022-01-05T15:37:28Z</time>
      </trkpt>
      <trkpt lat="49.87457" lon="2.40791">
        <ele>55.1</ele>
        <time>2022-01-05T15:37:29Z</time>
      </trkpt>
      <trkpt lat="49.87458" lon="2.40791">
        <ele>55.1</ele>
        <time>2022-01-05T15:37:30Z</time>
      </trkpt>
      <trkpt lat="49.87459" lon="2.4079">
        <ele>55.1</ele>
        <time>2022-01-05T15:37:31Z</time>
      </trkpt>
      <trkpt lat="49.8746" lon="2.40789">
        <ele>55.1</ele>
        <time>2022-01-05T15:37:32Z</time>
      </trkpt>
      <trkpt lat="49.87461" lon="2.40788">
        <ele>55</ele>
        <time>2022-01-05T15:37:33Z</time>
      </trkpt>
      <trkpt lat="49.87464" lon="2.40787">
        <ele>55</ele>
        <time>2022-01-05T15:37:35Z</time>
      </trkpt>
      <trkpt lat="49.87465" lon="2.40786">
        <ele>55</ele>
        <time>2022-01-05T15:37:37Z</time>
      </trkpt>
      <trkpt lat="49.87466" lon="2.40785">
        <ele>55</ele>
        <time>2022-01-05T15:37:38Z</time>
      </trkpt>
      <trkpt lat="49.87467" lon="2.40784">
        <ele>55</ele>
        <time>2022-01-05T15:37:39Z</time>
      </trkpt>
      <trkpt lat="49.87468" lon="2.40783">
        <ele>54.9</ele>
        <time>2022-01-05T15:37:40Z</time>
      </trkpt>
      <trkpt lat="49.87471" lon="2.40782">
        <ele>54.9</ele>
        <time>2022-01-05T15:37:42Z</time>
      </trkpt>
      <trkpt lat="49.87472" lon="2.40781">
        <ele>54.9</ele>
        <time>2022-01-05T15:37:43Z</time>
      </trkpt>
      <trkpt lat="49.87473" lon="2.4078">
        <ele>54.9</ele>
        <time>2022-01-05T15:37:44Z</time>
      </trkpt>
      <trkpt lat="49.87474" lon="2.40779">
        <ele>54.8</ele>
        <time>2022-01-05T15:37:46Z</time>
      </trkpt>
      <trkpt lat="49.87476" lon="2.40777">
        <ele>54.8</ele>
        <time>2022-01-05T15:37:48Z</time>
      </trkpt>
      <trkpt lat="49.87478" lon="2.40775">
        <ele>54.8</ele>
        <time>2022-01-05T15:37:49Z</time>
      </trkpt>
      <trkpt lat="49.87478" lon="2.40775">
        <ele>54.8</ele>
        <time>2022-01-05T15:37:50Z</time>
      </trkpt>
      <trkpt lat="49.87479" lon="2.40774">
        <ele>54.8</ele>
        <time>2022-01-05T15:37:51Z</time>
      </trkpt>
      <trkpt lat="49.87481" lon="2.40773">
        <ele>54.7</ele>
        <time>2022-01-05T15:37:52Z</time>
      </trkpt>
      <trkpt lat="49.87483" lon="2.40772">
        <ele>54.7</ele>
        <time>2022-01-05T15:37:54Z</time>
      </trkpt>
      <trkpt lat="49.87484" lon="2.40771">
        <ele>54.7</ele>
        <time>2022-01-05T15:37:55Z</time>
      </trkpt>
      <trkpt lat="49.87485" lon="2.4077">
        <ele>54.7</ele>
        <time>2022-01-05T15:37:56Z</time>
      </trkpt>
      <trkpt lat="49.87486" lon="2.40769">
        <ele>54.7</ele>
        <time>2022-01-05T15:37:57Z</time>
      </trkpt>
      <trkpt lat="49.87488" lon="2.40767">
        <ele>54.7</ele>
        <time>2022-01-05T15:37:58Z</time>
      </trkpt>
      <trkpt lat="49.87489" lon="2.40766">
        <ele>54.6</ele>
        <time>2022-01-05T15:38:00Z</time>
      </trkpt>
      <trkpt lat="49.87489" lon="2.40766">
        <ele>54.6</ele>
        <time>2022-01-05T15:38:01Z</time>
      </trkpt>
      <trkpt lat="49.87491" lon="2.40764">
        <ele>54.6</ele>
        <time>2022-01-05T15:38:02Z</time>
      </trkpt>
      <trkpt lat="49.87492" lon="2.40764">
        <ele>54.6</ele>
        <time>2022-01-05T15:38:03Z</time>
      </trkpt>
      <trkpt lat="49.87493" lon="2.40763">
        <ele>54.6</ele>
        <time>2022-01-05T15:38:04Z</time>
      </trkpt>
      <trkpt lat="49.87495" lon="2.40762">
        <ele>54.6</ele>
        <time>2022-01-05T15:38:05Z</time>
      </trkpt>
      <trkpt lat="49.87496" lon="2.40761">
        <ele>54.6</ele>
        <time>2022-01-05T15:38:06Z</time>
      </trkpt>
      <trkpt lat="49.87496" lon="2.40761">
        <ele>54.5</ele>
        <time>2022-01-05T15:38:07Z</time>
      </trkpt>
      <trkpt lat="49.87498" lon="2.4076">
        <ele>54.5</ele>
        <time>2022-01-05T15:38:08Z</time>
      </trkpt>
      <trkpt lat="49.87499" lon="2.40759">
        <ele>54.5</ele>
        <time>2022-01-05T15:38:09Z</time>
      </trkpt>
      <trkpt lat="49.875" lon="2.40758">
        <ele>54.5</ele>
        <time>2022-01-05T15:38:11Z</time>
      </trkpt>
      <trkpt lat="49.87502" lon="2.40758">
        <ele>54.5</ele>
        <time>2022-01-05T15:38:12Z</time>
      </trkpt>
      <trkpt lat="49.87503" lon="2.40757">
        <ele>54.5</ele>
        <time>2022-01-05T15:38:13Z</time>
      </trkpt>
      <trkpt lat="49.87504" lon="2.40757">
        <ele>54.5</ele>
        <time>2022-01-05T15:38:14Z</time>
      </trkpt>
      <trkpt lat="49.87506" lon="2.40756">
        <ele>54.4</ele>
        <time>2022-01-05T15:38:16Z</time>
      </trkpt>
      <trkpt lat="49.87507" lon="2.40755">
        <ele>54.4</ele>
        <time>2022-01-05T15:38:17Z</time>
      </trkpt>
      <trkpt lat="49.87508" lon="2.40753">
        <ele>54.4</ele>
        <time>2022-01-05T15:38:18Z</time>
      </trkpt>
      <trkpt lat="49.8751" lon="2.40752">
        <ele>54.4</ele>
        <time>2022-01-05T15:38:19Z</time>
      </trkpt>
      <trkpt lat="49.87512" lon="2.4075">
        <ele>54.3</ele>
        <time>2022-01-05T15:38:20Z</time>
      </trkpt>
      <trkpt lat="49.87513" lon="2.4075">
        <ele>54.3</ele>
        <time>2022-01-05T15:38:22Z</time>
      </trkpt>
      <trkpt lat="49.87514" lon="2.40749">
        <ele>54.3</ele>
        <time>2022-01-05T15:38:23Z</time>
      </trkpt>
      <trkpt lat="49.87515" lon="2.40748">
        <ele>54.3</ele>
        <time>2022-01-05T15:38:24Z</time>
      </trkpt>
      <trkpt lat="49.87516" lon="2.40748">
        <ele>54.3</ele>
        <time>2022-01-05T15:38:25Z</time>
      </trkpt>
      <trkpt lat="49.87517" lon="2.40746">
        <ele>54.3</ele>
        <time>2022-01-05T15:38:27Z</time>
      </trkpt>
      <trkpt lat="49.87519" lon="2.40745">
        <ele>54.3</ele>
        <time>2022-01-05T15:38:28Z</time>
      </trkpt>
      <trkpt lat="49.8752" lon="2.40744">
        <ele>54.2</ele>
        <time>2022-01-05T15:38:30Z</time>
      </trkpt>
      <trkpt lat="49.87521" lon="2.40743">
        <ele>54.2</ele>
        <time>2022-01-05T15:38:31Z</time>
      </trkpt>
      <trkpt lat="49.87523" lon="2.40741">
        <ele>54.2</ele>
        <time>2022-01-05T15:38:32Z</time>
      </trkpt>
      <trkpt lat="49.87524" lon="2.4074">
        <ele>54.2</ele>
        <time>2022-01-05T15:38:34Z</time>
      </trkpt>
      <trkpt lat="49.87525" lon="2.4074">
        <ele>54.2</ele>
        <time>2022-01-05T15:38:35Z</time>
      </trkpt>
      <trkpt lat="49.87526" lon="2.40739">
        <ele>54.2</ele>
        <time>2022-01-05T15:38:36Z</time>
      </trkpt>
      <trkpt lat="49.87527" lon="2.40738">
        <ele>54.2</ele>
        <time>2022-01-05T15:38:37Z</time>
      </trkpt>
      <trkpt lat="49.87529" lon="2.40738">
        <ele>54.1</ele>
        <time>2022-01-05T15:38:38Z</time>
      </trkpt>
      <trkpt lat="49.8753" lon="2.40737">
        <ele>54.1</ele>
        <time>2022-01-05T15:38:39Z</time>
      </trkpt>
      <trkpt lat="49.87531" lon="2.40737">
        <ele>54.1</ele>
        <time>2022-01-05T15:38:40Z</time>
      </trkpt>
      <trkpt lat="49.87532" lon="2.40737">
        <ele>54.1</ele>
        <time>2022-01-05T15:38:41Z</time>
      </trkpt>
      <trkpt lat="49.87533" lon="2.40736">
        <ele>54.1</ele>
        <time>2022-01-05T15:38:43Z</time>
      </trkpt>
      <trkpt lat="49.87534" lon="2.40736">
        <ele>54.1</ele>
        <time>2022-01-05T15:38:44Z</time>
      </trkpt>
      <trkpt lat="49.87534" lon="2.40735">
        <ele>54.1</ele>
        <time>2022-01-05T15:38:45Z</time>
      </trkpt>
      <trkpt lat="49.87535" lon="2.40734">
        <ele>54.1</ele>
        <time>2022-01-05T15:38:46Z</time>
      </trkpt>
      <trkpt lat="49.87536" lon="2.40734">
        <ele>54.1</ele>
        <time>2022-01-05T15:38:47Z</time>
      </trkpt>
      <trkpt lat="49.87538" lon="2.40732">
        <ele>54</ele>
        <time>2022-01-05T15:38:49Z</time>
      </trkpt>
      <trkpt lat="49.87539" lon="2.40731">
        <ele>54</ele>
        <time>2022-01-05T15:38:50Z</time>
      </trkpt>
      <trkpt lat="49.8754" lon="2.40731">
        <ele>54</ele>
        <time>2022-01-05T15:38:51Z</time>
      </trkpt>
      <trkpt lat="49.8754" lon="2.4073">
        <ele>54</ele>
        <time>2022-01-05T15:38:52Z</time>
      </trkpt>
      <trkpt lat="49.87541" lon="2.40729">
        <ele>54</ele>
        <time>2022-01-05T15:38:54Z</time>
      </trkpt>
      <trkpt lat="49.87542" lon="2.40729">
        <ele>54</ele>
        <time>2022-01-05T15:38:55Z</time>
      </trkpt>
      <trkpt lat="49.87543" lon="2.40728">
        <ele>54</ele>
        <time>2022-01-05T15:38:56Z</time>
      </trkpt>
      <trkpt lat="49.87543" lon="2.40728">
        <ele>54</ele>
        <time>2022-01-05T15:38:57Z</time>
      </trkpt>
      <trkpt lat="49.87544" lon="2.40727">
        <ele>54</ele>
        <time>2022-01-05T15:38:58Z</time>
      </trkpt>
      <trkpt lat="49.87545" lon="2.40727">
        <ele>54</ele>
        <time>2022-01-05T15:38:59Z</time>
      </trkpt>
      <trkpt lat="49.87547" lon="2.40726">
        <ele>54</ele>
        <time>2022-01-05T15:39:01Z</time>
      </trkpt>
      <trkpt lat="49.87548" lon="2.40725">
        <ele>53.9</ele>
        <time>2022-01-05T15:39:02Z</time>
      </trkpt>
      <trkpt lat="49.87549" lon="2.40725">
        <ele>53.9</ele>
        <time>2022-01-05T15:39:03Z</time>
      </trkpt>
      <trkpt lat="49.87549" lon="2.40724">
        <ele>53.9</ele>
        <time>2022-01-05T15:39:04Z</time>
      </trkpt>
      <trkpt lat="49.87551" lon="2.40723">
        <ele>53.9</ele>
        <time>2022-01-05T15:39:05Z</time>
      </trkpt>
      <trkpt lat="49.87552" lon="2.40723">
        <ele>53.9</ele>
        <time>2022-01-05T15:39:06Z</time>
      </trkpt>
      <trkpt lat="49.87552" lon="2.40722">
        <ele>53.9</ele>
        <time>2022-01-05T15:39:07Z</time>
      </trkpt>
      <trkpt lat="49.87553" lon="2.40721">
        <ele>53.9</ele>
        <time>2022-01-05T15:39:08Z</time>
      </trkpt>
      <trkpt lat="49.87554" lon="2.40721">
        <ele>53.9</ele>
        <time>2022-01-05T15:39:09Z</time>
      </trkpt>
      <trkpt lat="49.87555" lon="2.4072">
        <ele>53.9</ele>
        <time>2022-01-05T15:39:11Z</time>
      </trkpt>
      <trkpt lat="49.87555" lon="2.4072">
        <ele>53.9</ele>
        <time>2022-01-05T15:39:12Z</time>
      </trkpt>
      <trkpt lat="49.87556" lon="2.40719">
        <ele>53.8</ele>
        <time>2022-01-05T15:39:13Z</time>
      </trkpt>
      <trkpt lat="49.87557" lon="2.40719">
        <ele>53.8</ele>
        <time>2022-01-05T15:39:14Z</time>
      </trkpt>
      <trkpt lat="49.87558" lon="2.40718">
        <ele>53.8</ele>
        <time>2022-01-05T15:39:15Z</time>
      </trkpt>
      <trkpt lat="49.87559" lon="2.40717">
        <ele>53.8</ele>
        <time>2022-01-05T15:39:17Z</time>
      </trkpt>
      <trkpt lat="49.8756" lon="2.40716">
        <ele>53.8</ele>
        <time>2022-01-05T15:39:18Z</time>
      </trkpt>
      <trkpt lat="49.8756" lon="2.40715">
        <ele>53.8</ele>
        <time>2022-01-05T15:39:19Z</time>
      </trkpt>
      <trkpt lat="49.87561" lon="2.40714">
        <ele>53.8</ele>
        <time>2022-01-05T15:39:20Z</time>
      </trkpt>
      <trkpt lat="49.87562" lon="2.40712">
        <ele>53.8</ele>
        <time>2022-01-05T15:39:22Z</time>
      </trkpt>
      <trkpt lat="49.87562" lon="2.4071">
        <ele>53.7</ele>
        <time>2022-01-05T15:39:24Z</time>
      </trkpt>
      <trkpt lat="49.8756" lon="2.4071">
        <ele>53.7</ele>
        <time>2022-01-05T15:39:26Z</time>
      </trkpt>
      <trkpt lat="49.8756" lon="2.40712">
        <ele>53.7</ele>
        <time>2022-01-05T15:39:28Z</time>
      </trkpt>
      <trkpt lat="49.8756" lon="2.40713">
        <ele>53.7</ele>
        <time>2022-01-05T15:39:30Z</time>
      </trkpt>
      <trkpt lat="49.8756" lon="2.40713">
        <ele>53.7</ele>
        <time>2022-01-05T15:39:32Z</time>
      </trkpt>
      <trkpt lat="49.8756" lon="2.40713">
        <ele>53.7</ele>
        <time>2022-01-05T15:39:33Z</time>
      </trkpt>
      <trkpt lat="49.8756" lon="2.40714">
        <ele>53.7</ele>
        <time>2022-01-05T15:39:34Z</time>
      </trkpt>
      <trkpt lat="49.8756" lon="2.40714">
        <ele>53.7</ele>
        <time>2022-01-05T15:39:36Z</time>
      </trkpt>
      <trkpt lat="49.8756" lon="2.40714">
        <ele>53.7</ele>
        <time>2022-01-05T15:39:38Z</time>
      </trkpt>
      <trkpt lat="49.8756" lon="2.40714">
        <ele>53.7</ele>
        <time>2022-01-05T15:39:40Z</time>
      </trkpt>
      <trkpt lat="49.8756" lon="2.40714">
        <ele>53.7</ele>
        <time>2022-01-05T15:39:42Z</time>
      </trkpt>
      <trkpt lat="49.8756" lon="2.40714">
        <ele>53.7</ele>
        <time>2022-01-05T15:39:43Z</time>
      </trkpt>
      <trkpt lat="49.8756" lon="2.40715">
        <ele>53.7</ele>
        <time>2022-01-05T15:39:45Z</time>
      </trkpt>
      <trkpt lat="49.87559" lon="2.40715">
        <ele>53.7</ele>
        <time>2022-01-05T15:39:47Z</time>
      </trkpt>
      <trkpt lat="49.87559" lon="2.40715">
        <ele>53.7</ele>
        <time>2022-01-05T15:39:48Z</time>
      </trkpt>
      <trkpt lat="49.87559" lon="2.40715">
        <ele>53.7</ele>
        <time>2022-01-05T15:39:49Z</time>
      </trkpt>
      <trkpt lat="49.87559" lon="2.40715">
        <ele>53.7</ele>
        <time>2022-01-05T15:39:51Z</time>
      </trkpt>
      <trkpt lat="49.87559" lon="2.40715">
        <ele>53.7</ele>
        <time>2022-01-05T15:39:52Z</time>
      </trkpt>
      <trkpt lat="49.87559" lon="2.40715">
        <ele>53.7</ele>
        <time>2022-01-05T15:39:54Z</time>
      </trkpt>
      <trkpt lat="49.87559" lon="2.40715">
        <ele>53.7</ele>
        <time>2022-01-05T15:39:55Z</time>
      </trkpt>
      <trkpt lat="49.87559" lon="2.40715">
        <ele>53.7</ele>
        <time>2022-01-05T15:39:57Z</time>
      </trkpt>
      <trkpt lat="49.87559" lon="2.40715">
        <ele>53.7</ele>
        <time>2022-01-05T15:39:59Z</time>
      </trkpt>
      <trkpt lat="49.87559" lon="2.40715">
        <ele>53.7</ele>
        <time>2022-01-05T15:40:00Z</time>
      </trkpt>
      <trkpt lat="49.87559" lon="2.40715">
        <ele>53.7</ele>
        <time>2022-01-05T15:40:01Z</time>
      </trkpt>
      <trkpt lat="49.87559" lon="2.40715">
        <ele>53.7</ele>
        <time>2022-01-05T15:40:03Z</time>
      </trkpt>
      <trkpt lat="49.87559" lon="2.40715">
        <ele>53.7</ele>
        <time>2022-01-05T15:40:05Z</time>
      </trkpt>
      <trkpt lat="49.87559" lon="2.40715">
        <ele>53.7</ele>
        <time>2022-01-05T15:40:06Z</time>
      </trkpt>
      <trkpt lat="49.87559" lon="2.40715">
        <ele>53.7</ele>
        <time>2022-01-05T15:40:08Z</time>
      </trkpt>
      <trkpt lat="49.87559" lon="2.40715">
        <ele>53.7</ele>
        <time>2022-01-05T15:40:10Z</time>
      </trkpt>
      <trkpt lat="49.87559" lon="2.40715">
        <ele>53.7</ele>
        <time>2022-01-05T15:40:12Z</time>
      </trkpt>
      <trkpt lat="49.87559" lon="2.40715">
        <ele>53.7</ele>
        <time>2022-01-05T15:40:13Z</time>
      </trkpt>
      <trkpt lat="49.87559" lon="2.40715">
        <ele>53.7</ele>
        <time>2022-01-05T15:40:14Z</time>
      </trkpt>
      <trkpt lat="49.87559" lon="2.40715">
        <ele>53.7</ele>
        <time>2022-01-05T15:40:16Z</time>
      </trkpt>
      <trkpt lat="49.87559" lon="2.40715">
        <ele>53.7</ele>
        <time>2022-01-05T15:40:18Z</time>
      </trkpt>
      <trkpt lat="49.87559" lon="2.40715">
        <ele>53.7</ele>
        <time>2022-01-05T15:40:20Z</time>
      </trkpt>
      <trkpt lat="49.87559" lon="2.40715">
        <ele>53.7</ele>
        <time>2022-01-05T15:40:21Z</time>
      </trkpt>
      <trkpt lat="49.87559" lon="2.40715">
        <ele>53.7</ele>
        <time>2022-01-05T15:40:22Z</time>
      </trkpt>
      <trkpt lat="49.87559" lon="2.40715">
        <ele>53.7</ele>
        <time>2022-01-05T15:40:24Z</time>
      </trkpt>
      <trkpt lat="49.87559" lon="2.40713">
        <ele>53.6</ele>
        <time>2022-01-05T15:40:25Z</time>
      </trkpt>
      <trkpt lat="49.87559" lon="2.40712">
        <ele>53.6</ele>
        <time>2022-01-05T15:40:27Z</time>
      </trkpt>
      <trkpt lat="49.87559" lon="2.4071">
        <ele>53.6</ele>
        <time>2022-01-05T15:40:29Z</time>
      </trkpt>
      <trkpt lat="49.87558" lon="2.40709">
        <ele>53.6</ele>
        <time>2022-01-05T15:40:30Z</time>
      </trkpt>
      <trkpt lat="49.87557" lon="2.40707">
        <ele>53.6</ele>
        <time>2022-01-05T15:40:32Z</time>
      </trkpt>
      <trkpt lat="49.87557" lon="2.40706">
        <ele>53.4</ele>
        <time>2022-01-05T15:40:33Z</time>
      </trkpt>
      <trkpt lat="49.87557" lon="2.40706">
        <ele>53.4</ele>
        <time>2022-01-05T15:40:34Z</time>
      </trkpt>
      <trkpt lat="49.87557" lon="2.40705">
        <ele>53.4</ele>
        <time>2022-01-05T15:40:35Z</time>
      </trkpt>
      <trkpt lat="49.87557" lon="2.40705">
        <ele>53.4</ele>
        <time>2022-01-05T15:40:36Z</time>
      </trkpt>
      <trkpt lat="49.87557" lon="2.40705">
        <ele>53.4</ele>
        <time>2022-01-05T15:40:38Z</time>
      </trkpt>
      <trkpt lat="49.87556" lon="2.40705">
        <ele>53.5</ele>
        <time>2022-01-05T15:40:40Z</time>
      </trkpt>
      <trkpt lat="49.87556" lon="2.40705">
        <ele>53.5</ele>
        <time>2022-01-05T15:40:41Z</time>
      </trkpt>
      <trkpt lat="49.87556" lon="2.40705">
        <ele>53.5</ele>
        <time>2022-01-05T15:40:43Z</time>
      </trkpt>
      <trkpt lat="49.87556" lon="2.40704">
        <ele>53.5</ele>
        <time>2022-01-05T15:40:44Z</time>
      </trkpt>
      <trkpt lat="49.87556" lon="2.40704">
        <ele>53.5</ele>
        <time>2022-01-05T15:40:46Z</time>
      </trkpt>
      <trkpt lat="49.87556" lon="2.40704">
        <ele>53.5</ele>
        <time>2022-01-05T15:40:47Z</time>
      </trkpt>
      <trkpt lat="49.87555" lon="2.40704">
        <ele>53.5</ele>
        <time>2022-01-05T15:40:49Z</time>
      </trkpt>
      <trkpt lat="49.87555" lon="2.40704">
        <ele>53.5</ele>
        <time>2022-01-05T15:40:50Z</time>
      </trkpt>
      <trkpt lat="49.87555" lon="2.40704">
        <ele>53.5</ele>
        <time>2022-01-05T15:40:51Z</time>
      </trkpt>
      <trkpt lat="49.87555" lon="2.40704">
        <ele>53.5</ele>
        <time>2022-01-05T15:40:52Z</time>
      </trkpt>
      <trkpt lat="49.87555" lon="2.40704">
        <ele>53.5</ele>
        <time>2022-01-05T15:40:53Z</time>
      </trkpt>
      <trkpt lat="49.87555" lon="2.40704">
        <ele>53.5</ele>
        <time>2022-01-05T15:40:55Z</time>
      </trkpt>
      <trkpt lat="49.87555" lon="2.40704">
        <ele>53.5</ele>
        <time>2022-01-05T15:40:56Z</time>
      </trkpt>
      <trkpt lat="49.87555" lon="2.40704">
        <ele>53.5</ele>
        <time>2022-01-05T15:40:58Z</time>
      </trkpt>
      <trkpt lat="49.87555" lon="2.40704">
        <ele>53.5</ele>
        <time>2022-01-05T15:41:00Z</time>
      </trkpt>
      <trkpt lat="49.87555" lon="2.40704">
        <ele>53.5</ele>
        <time>2022-01-05T15:41:01Z</time>
      </trkpt>
      <trkpt lat="49.87555" lon="2.40704">
        <ele>53.5</ele>
        <time>2022-01-05T15:41:03Z</time>
      </trkpt>
      <trkpt lat="49.87555" lon="2.40704">
        <ele>53.5</ele>
        <time>2022-01-05T15:41:05Z</time>
      </trkpt>
      <trkpt lat="49.87555" lon="2.40704">
        <ele>53.5</ele>
        <time>2022-01-05T15:41:07Z</time>
      </trkpt>
      <trkpt lat="49.87555" lon="2.40704">
        <ele>53.5</ele>
        <time>2022-01-05T15:41:09Z</time>
      </trkpt>
      <trkpt lat="49.87555" lon="2.40704">
        <ele>53.5</ele>
        <time>2022-01-05T15:41:10Z</time>
      </trkpt>
      <trkpt lat="49.87555" lon="2.40704">
        <ele>53.5</ele>
        <time>2022-01-05T15:41:12Z</time>
      </trkpt>
      <trkpt lat="49.87555" lon="2.40704">
        <ele>53.5</ele>
        <time>2022-01-05T15:41:13Z</time>
      </trkpt>
      <trkpt lat="49.87555" lon="2.40704">
        <ele>53.5</ele>
        <time>2022-01-05T15:41:15Z</time>
      </trkpt>
      <trkpt lat="49.87555" lon="2.40704">
        <ele>53.5</ele>
        <time>2022-01-05T15:41:16Z</time>
      </trkpt>
      <trkpt lat="49.87555" lon="2.40704">
        <ele>53.5</ele>
        <time>2022-01-05T15:41:18Z</time>
      </trkpt>
      <trkpt lat="49.87555" lon="2.40704">
        <ele>53.5</ele>
        <time>2022-01-05T15:41:20Z</time>
      </trkpt>
      <trkpt lat="49.87555" lon="2.40704">
        <ele>53.5</ele>
        <time>2022-01-05T15:41:21Z</time>
      </trkpt>
      <trkpt lat="49.87555" lon="2.40704">
        <ele>53.5</ele>
        <time>2022-01-05T15:41:23Z</time>
      </trkpt>
      <trkpt lat="49.87555" lon="2.40704">
        <ele>53.5</ele>
        <time>2022-01-05T15:41:25Z</time>
      </trkpt>
      <trkpt lat="49.87555" lon="2.40704">
        <ele>53.5</ele>
        <time>2022-01-05T15:41:27Z</time>
      </trkpt>
      <trkpt lat="49.87555" lon="2.40704">
        <ele>53.5</ele>
        <time>2022-01-05T15:41:28Z</time>
      </trkpt>
      <trkpt lat="49.87555" lon="2.40704">
        <ele>53.5</ele>
        <time>2022-01-05T15:41:30Z</time>
      </trkpt>
      <trkpt lat="49.87555" lon="2.40704">
        <ele>53.5</ele>
        <time>2022-01-05T15:41:31Z</time>
      </trkpt>
      <trkpt lat="49.87555" lon="2.40704">
        <ele>53.5</ele>
        <time>2022-01-05T15:41:33Z</time>
      </trkpt>
      <trkpt lat="49.87555" lon="2.40704">
        <ele>53.5</ele>
        <time>2022-01-05T15:41:35Z</time>
      </trkpt>
      <trkpt lat="49.87555" lon="2.40704">
        <ele>53.5</ele>
        <time>2022-01-05T15:41:37Z</time>
      </trkpt>
      <trkpt lat="49.87555" lon="2.40704">
        <ele>53.5</ele>
        <time>2022-01-05T15:41:38Z</time>
      </trkpt>
      <trkpt lat="49.87555" lon="2.40704">
        <ele>53.5</ele>
        <time>2022-01-05T15:41:40Z</time>
      </trkpt>
      <trkpt lat="49.87555" lon="2.40704">
        <ele>53.5</ele>
        <time>2022-01-05T15:41:42Z</time>
      </trkpt>
      <trkpt lat="49.87555" lon="2.40704">
        <ele>53.5</ele>
        <time>2022-01-05T15:41:44Z</time>
      </trkpt>
      <trkpt lat="49.87555" lon="2.40704">
        <ele>53.5</ele>
        <time>2022-01-05T15:41:45Z</time>
      </trkpt>
      <trkpt lat="49.87555" lon="2.40704">
        <ele>53.5</ele>
        <time>2022-01-05T15:41:47Z</time>
      </trkpt>
      <trkpt lat="49.87555" lon="2.40704">
        <ele>53.5</ele>
        <time>2022-01-05T15:41:49Z</time>
      </trkpt>
      <trkpt lat="49.87555" lon="2.40704">
        <ele>53.5</ele>
        <time>2022-01-05T15:41:51Z</time>
      </trkpt>
      <trkpt lat="49.87555" lon="2.40704">
        <ele>53.5</ele>
        <time>2022-01-05T15:41:52Z</time>
      </trkpt>
      <trkpt lat="49.87555" lon="2.40704">
        <ele>53.5</ele>
        <time>2022-01-05T15:41:54Z</time>
      </trkpt>
      <trkpt lat="49.87555" lon="2.40704">
        <ele>53.5</ele>
        <time>2022-01-05T15:41:56Z</time>
      </trkpt>
      <trkpt lat="49.87555" lon="2.40704">
        <ele>53.5</ele>
        <time>2022-01-05T15:41:58Z</time>
      </trkpt>
      <trkpt lat="49.87555" lon="2.40704">
        <ele>53.5</ele>
        <time>2022-01-05T15:41:59Z</time>
      </trkpt>
      <trkpt lat="49.87555" lon="2.40704">
        <ele>53.5</ele>
        <time>2022-01-05T15:42:01Z</time>
      </trkpt>
      <trkpt lat="49.87555" lon="2.40704">
        <ele>53.5</ele>
        <time>2022-01-05T15:42:03Z</time>
      </trkpt>
      <trkpt lat="49.87555" lon="2.40704">
        <ele>53.5</ele>
        <time>2022-01-05T15:42:04Z</time>
      </trkpt>
      <trkpt lat="49.87555" lon="2.40704">
        <ele>53.5</ele>
        <time>2022-01-05T15:42:05Z</time>
      </trkpt>
      <trkpt lat="49.87555" lon="2.40704">
        <ele>53.5</ele>
        <time>2022-01-05T15:42:07Z</time>
      </trkpt>
      <trkpt lat="49.87555" lon="2.40704">
        <ele>53.5</ele>
        <time>2022-01-05T15:42:09Z</time>
      </trkpt>
      <trkpt lat="49.87555" lon="2.40704">
        <ele>53.5</ele>
        <time>2022-01-05T15:42:11Z</time>
      </trkpt>
      <trkpt lat="49.87555" lon="2.40704">
        <ele>53.5</ele>
        <time>2022-01-05T15:42:13Z</time>
      </trkpt>
      <trkpt lat="49.87555" lon="2.40704">
        <ele>53.5</ele>
        <time>2022-01-05T15:42:14Z</time>
      </trkpt>
      <trkpt lat="49.87555" lon="2.40704">
        <ele>53.5</ele>
        <time>2022-01-05T15:42:15Z</time>
      </trkpt>
      <trkpt lat="49.87555" lon="2.40704">
        <ele>53.5</ele>
        <time>2022-01-05T15:42:17Z</time>
      </trkpt>
      <trkpt lat="49.87555" lon="2.40704">
        <ele>53.5</ele>
        <time>2022-01-05T15:42:18Z</time>
      </trkpt>
      <trkpt lat="49.87555" lon="2.40704">
        <ele>53.5</ele>
        <time>2022-01-05T15:42:20Z</time>
      </trkpt>
      <trkpt lat="49.87555" lon="2.40704">
        <ele>53.5</ele>
        <time>2022-01-05T15:42:21Z</time>
      </trkpt>
      <trkpt lat="49.87555" lon="2.40704">
        <ele>53.5</ele>
        <time>2022-01-05T15:42:23Z</time>
      </trkpt>
      <trkpt lat="49.87555" lon="2.40704">
        <ele>53.5</ele>
        <time>2022-01-05T15:42:25Z</time>
      </trkpt>
      <trkpt lat="49.87555" lon="2.40704">
        <ele>53.5</ele>
        <time>2022-01-05T15:42:26Z</time>
      </trkpt>
      <trkpt lat="49.87555" lon="2.40704">
        <ele>53.5</ele>
        <time>2022-01-05T15:42:28Z</time>
      </trkpt>
      <trkpt lat="49.87555" lon="2.40704">
        <ele>53.5</ele>
        <time>2022-01-05T15:42:30Z</time>
      </trkpt>
      <trkpt lat="49.87555" lon="2.40704">
        <ele>53.5</ele>
        <time>2022-01-05T15:42:31Z</time>
      </trkpt>
      <trkpt lat="49.87555" lon="2.40704">
        <ele>53.5</ele>
        <time>2022-01-05T15:42:33Z</time>
      </trkpt>
      <trkpt lat="49.87555" lon="2.40704">
        <ele>53.5</ele>
        <time>2022-01-05T15:42:34Z</time>
      </trkpt>
      <trkpt lat="49.87555" lon="2.40704">
        <ele>53.5</ele>
        <time>2022-01-05T15:42:35Z</time>
      </trkpt>
      <trkpt lat="49.87555" lon="2.40704">
        <ele>53.5</ele>
        <time>2022-01-05T15:42:36Z</time>
      </trkpt>
      <trkpt lat="49.87555" lon="2.40704">
        <ele>53.5</ele>
        <time>2022-01-05T15:42:38Z</time>
      </trkpt>
      <trkpt lat="49.87555" lon="2.40704">
        <ele>53.5</ele>
        <time>2022-01-05T15:42:40Z</time>
      </trkpt>
      <trkpt lat="49.87557" lon="2.40709">
        <ele>53.6</ele>
        <time>2022-01-05T15:42:42Z</time>
      </trkpt>
      <trkpt lat="49.87557" lon="2.40709">
        <ele>53.6</ele>
        <time>2022-01-05T15:42:43Z</time>
      </trkpt>
      <trkpt lat="49.87556" lon="2.40707">
        <ele>53.6</ele>
        <time>2022-01-05T15:42:44Z</time>
      </trkpt>
      <trkpt lat="49.87555" lon="2.40707">
        <ele>53.6</ele>
        <time>2022-01-05T15:42:46Z</time>
      </trkpt>
      <trkpt lat="49.87555" lon="2.40707">
        <ele>53.6</ele>
        <time>2022-01-05T15:42:47Z</time>
      </trkpt>
      <trkpt lat="49.87555" lon="2.40707">
        <ele>53.6</ele>
        <time>2022-01-05T15:42:48Z</time>
      </trkpt>
      <trkpt lat="49.87555" lon="2.40706">
        <ele>53.6</ele>
        <time>2022-01-05T15:42:49Z</time>
      </trkpt>
      <trkpt lat="49.87555" lon="2.40706">
        <ele>53.6</ele>
        <time>2022-01-05T15:42:51Z</time>
      </trkpt>
      <trkpt lat="49.87555" lon="2.40704">
        <ele>53.7</ele>
        <time>2022-01-05T15:42:52Z</time>
      </trkpt>
      <trkpt lat="49.87555" lon="2.40701">
        <ele>53.7</ele>
        <time>2022-01-05T15:42:53Z</time>
      </trkpt>
      <trkpt lat="49.87556" lon="2.40699">
        <ele>53.7</ele>
        <time>2022-01-05T15:42:55Z</time>
      </trkpt>
      <trkpt lat="49.87556" lon="2.40696">
        <ele>53.7</ele>
        <time>2022-01-05T15:42:56Z</time>
      </trkpt>
      <trkpt lat="49.87556" lon="2.40693">
        <ele>53.8</ele>
        <time>2022-01-05T15:42:57Z</time>
      </trkpt>
      <trkpt lat="49.87557" lon="2.40691">
        <ele>53.8</ele>
        <time>2022-01-05T15:42:58Z</time>
      </trkpt>
      <trkpt lat="49.87557" lon="2.40688">
        <ele>53.8</ele>
        <time>2022-01-05T15:42:59Z</time>
      </trkpt>
      <trkpt lat="49.87558" lon="2.40685">
        <ele>53.9</ele>
        <time>2022-01-05T15:43:01Z</time>
      </trkpt>
      <trkpt lat="49.87558" lon="2.40683">
        <ele>53.9</ele>
        <time>2022-01-05T15:43:02Z</time>
      </trkpt>
      <trkpt lat="49.87559" lon="2.40681">
        <ele>53.9</ele>
        <time>2022-01-05T15:43:03Z</time>
      </trkpt>
      <trkpt lat="49.87559" lon="2.40679">
        <ele>53.9</ele>
        <time>2022-01-05T15:43:05Z</time>
      </trkpt>
      <trkpt lat="49.87559" lon="2.40677">
        <ele>53.9</ele>
        <time>2022-01-05T15:43:06Z</time>
      </trkpt>
      <trkpt lat="49.87559" lon="2.40674">
        <ele>54</ele>
        <time>2022-01-05T15:43:07Z</time>
      </trkpt>
      <trkpt lat="49.87558" lon="2.40672">
        <ele>54</ele>
        <time>2022-01-05T15:43:08Z</time>
      </trkpt>
      <trkpt lat="49.87558" lon="2.40671">
        <ele>54</ele>
        <time>2022-01-05T15:43:10Z</time>
      </trkpt>
      <trkpt lat="49.87559" lon="2.4067">
        <ele>54</ele>
        <time>2022-01-05T15:43:11Z</time>
      </trkpt>
      <trkpt lat="49.87559" lon="2.40667">
        <ele>54</ele>
        <time>2022-01-05T15:43:12Z</time>
      </trkpt>
      <trkpt lat="49.87558" lon="2.40663">
        <ele>54.1</ele>
        <time>2022-01-05T15:43:13Z</time>
      </trkpt>
      <trkpt lat="49.87558" lon="2.40661">
        <ele>54.1</ele>
        <time>2022-01-05T15:43:15Z</time>
      </trkpt>
      <trkpt lat="49.87558" lon="2.40659">
        <ele>54.1</ele>
        <time>2022-01-05T15:43:16Z</time>
      </trkpt>
      <trkpt lat="49.87558" lon="2.40657">
        <ele>54.1</ele>
        <time>2022-01-05T15:43:17Z</time>
      </trkpt>
      <trkpt lat="49.87558" lon="2.40655">
        <ele>54.1</ele>
        <time>2022-01-05T15:43:18Z</time>
      </trkpt>
      <trkpt lat="49.87559" lon="2.40652">
        <ele>54.2</ele>
        <time>2022-01-05T15:43:19Z</time>
      </trkpt>
      <trkpt lat="49.87559" lon="2.4065">
        <ele>54.2</ele>
        <time>2022-01-05T15:43:21Z</time>
      </trkpt>
      <trkpt lat="49.87559" lon="2.40647">
        <ele>54.2</ele>
        <time>2022-01-05T15:43:22Z</time>
      </trkpt>
      <trkpt lat="49.87559" lon="2.40644">
        <ele>54.2</ele>
        <time>2022-01-05T15:43:23Z</time>
      </trkpt>
      <trkpt lat="49.87559" lon="2.40642">
        <ele>54.3</ele>
        <time>2022-01-05T15:43:24Z</time>
      </trkpt>
      <trkpt lat="49.87559" lon="2.40639">
        <ele>54.3</ele>
        <time>2022-01-05T15:43:25Z</time>
      </trkpt>
      <trkpt lat="49.87559" lon="2.40637">
        <ele>54.3</ele>
        <time>2022-01-05T15:43:27Z</time>
      </trkpt>
      <trkpt lat="49.87559" lon="2.40635">
        <ele>54.3</ele>
        <time>2022-01-05T15:43:28Z</time>
      </trkpt>
      <trkpt lat="49.8756" lon="2.40632">
        <ele>54.3</ele>
        <time>2022-01-05T15:43:29Z</time>
      </trkpt>
      <trkpt lat="49.8756" lon="2.4063">
        <ele>54.4</ele>
        <time>2022-01-05T15:43:30Z</time>
      </trkpt>
      <trkpt lat="49.8756" lon="2.40628">
        <ele>54.4</ele>
        <time>2022-01-05T15:43:31Z</time>
      </trkpt>
      <trkpt lat="49.8756" lon="2.40626">
        <ele>54.4</ele>
        <time>2022-01-05T15:43:32Z</time>
      </trkpt>
      <trkpt lat="49.8756" lon="2.40624">
        <ele>54.4</ele>
        <time>2022-01-05T15:43:33Z</time>
      </trkpt>
      <trkpt lat="49.8756" lon="2.40622">
        <ele>54.4</ele>
        <time>2022-01-05T15:43:34Z</time>
      </trkpt>
      <trkpt lat="49.8756" lon="2.40619">
        <ele>54.4</ele>
        <time>2022-01-05T15:43:35Z</time>
      </trkpt>
      <trkpt lat="49.8756" lon="2.40616">
        <ele>54.4</ele>
        <time>2022-01-05T15:43:36Z</time>
      </trkpt>
      <trkpt lat="49.8756" lon="2.40614">
        <ele>54.5</ele>
        <time>2022-01-05T15:43:38Z</time>
      </trkpt>
      <trkpt lat="49.87559" lon="2.40612">
        <ele>54.5</ele>
        <time>2022-01-05T15:43:39Z</time>
      </trkpt>
      <trkpt lat="49.87559" lon="2.40611">
        <ele>54.5</ele>
        <time>2022-01-05T15:43:40Z</time>
      </trkpt>
      <trkpt lat="49.87559" lon="2.40609">
        <ele>54.5</ele>
        <time>2022-01-05T15:43:41Z</time>
      </trkpt>
      <trkpt lat="49.87559" lon="2.40607">
        <ele>54.5</ele>
        <time>2022-01-05T15:43:42Z</time>
      </trkpt>
      <trkpt lat="49.87559" lon="2.40604">
        <ele>54.5</ele>
        <time>2022-01-05T15:43:43Z</time>
      </trkpt>
      <trkpt lat="49.87558" lon="2.40602">
        <ele>54.5</ele>
        <time>2022-01-05T15:43:45Z</time>
      </trkpt>
      <trkpt lat="49.87558" lon="2.406">
        <ele>54.5</ele>
        <time>2022-01-05T15:43:46Z</time>
      </trkpt>
      <trkpt lat="49.87557" lon="2.40596">
        <ele>54.5</ele>
        <time>2022-01-05T15:43:47Z</time>
      </trkpt>
      <trkpt lat="49.87557" lon="2.40594">
        <ele>54.6</ele>
        <time>2022-01-05T15:43:48Z</time>
      </trkpt>
      <trkpt lat="49.87557" lon="2.40593">
        <ele>54.6</ele>
        <time>2022-01-05T15:43:49Z</time>
      </trkpt>
      <trkpt lat="49.87556" lon="2.40589">
        <ele>54.6</ele>
        <time>2022-01-05T15:43:50Z</time>
      </trkpt>
      <trkpt lat="49.87555" lon="2.40588">
        <ele>54.6</ele>
        <time>2022-01-05T15:43:52Z</time>
      </trkpt>
      <trkpt lat="49.87555" lon="2.40586">
        <ele>54.6</ele>
        <time>2022-01-05T15:43:53Z</time>
      </trkpt>
      <trkpt lat="49.87555" lon="2.40585">
        <ele>54.6</ele>
        <time>2022-01-05T15:43:54Z</time>
      </trkpt>
      <trkpt lat="49.87554" lon="2.40583">
        <ele>54.6</ele>
        <time>2022-01-05T15:43:55Z</time>
      </trkpt>
      <trkpt lat="49.87553" lon="2.40579">
        <ele>54.6</ele>
        <time>2022-01-05T15:43:56Z</time>
      </trkpt>
      <trkpt lat="49.87553" lon="2.40578">
        <ele>54.7</ele>
        <time>2022-01-05T15:43:57Z</time>
      </trkpt>
      <trkpt lat="49.87552" lon="2.40576">
        <ele>54.7</ele>
        <time>2022-01-05T15:43:59Z</time>
      </trkpt>
      <trkpt lat="49.87551" lon="2.40573">
        <ele>54.7</ele>
        <time>2022-01-05T15:44:00Z</time>
      </trkpt>
      <trkpt lat="49.8755" lon="2.40571">
        <ele>54.7</ele>
        <time>2022-01-05T15:44:02Z</time>
      </trkpt>
      <trkpt lat="49.87549" lon="2.40569">
        <ele>54.7</ele>
        <time>2022-01-05T15:44:03Z</time>
      </trkpt>
      <trkpt lat="49.87548" lon="2.40565">
        <ele>54.7</ele>
        <time>2022-01-05T15:44:04Z</time>
      </trkpt>
      <trkpt lat="49.87547" lon="2.40564">
        <ele>54.7</ele>
        <time>2022-01-05T15:44:05Z</time>
      </trkpt>
      <trkpt lat="49.87547" lon="2.40562">
        <ele>54.7</ele>
        <time>2022-01-05T15:44:06Z</time>
      </trkpt>
      <trkpt lat="49.87546" lon="2.4056">
        <ele>54.7</ele>
        <time>2022-01-05T15:44:07Z</time>
      </trkpt>
      <trkpt lat="49.87545" lon="2.40558">
        <ele>54.7</ele>
        <time>2022-01-05T15:44:09Z</time>
      </trkpt>
      <trkpt lat="49.87545" lon="2.40556">
        <ele>54.7</ele>
        <time>2022-01-05T15:44:10Z</time>
      </trkpt>
      <trkpt lat="49.87544" lon="2.40554">
        <ele>54.7</ele>
        <time>2022-01-05T15:44:11Z</time>
      </trkpt>
      <trkpt lat="49.87544" lon="2.40552">
        <ele>54.7</ele>
        <time>2022-01-05T15:44:12Z</time>
      </trkpt>
      <trkpt lat="49.87543" lon="2.40549">
        <ele>54.7</ele>
        <time>2022-01-05T15:44:14Z</time>
      </trkpt>
      <trkpt lat="49.87543" lon="2.40547">
        <ele>54.7</ele>
        <time>2022-01-05T15:44:15Z</time>
      </trkpt>
      <trkpt lat="49.87542" lon="2.40544">
        <ele>54.7</ele>
        <time>2022-01-05T15:44:16Z</time>
      </trkpt>
      <trkpt lat="49.87542" lon="2.40542">
        <ele>54.7</ele>
        <time>2022-01-05T15:44:17Z</time>
      </trkpt>
      <trkpt lat="49.87541" lon="2.4054">
        <ele>54.6</ele>
        <time>2022-01-05T15:44:18Z</time>
      </trkpt>
      <trkpt lat="49.87541" lon="2.40538">
        <ele>54.6</ele>
        <time>2022-01-05T15:44:19Z</time>
      </trkpt>
      <trkpt lat="49.87541" lon="2.40536">
        <ele>54.6</ele>
        <time>2022-01-05T15:44:21Z</time>
      </trkpt>
      <trkpt lat="49.8754" lon="2.40534">
        <ele>54.6</ele>
        <time>2022-01-05T15:44:22Z</time>
      </trkpt>
      <trkpt lat="49.8754" lon="2.40531">
        <ele>54.6</ele>
        <time>2022-01-05T15:44:23Z</time>
      </trkpt>
      <trkpt lat="49.8754" lon="2.40528">
        <ele>54.5</ele>
        <time>2022-01-05T15:44:25Z</time>
      </trkpt>
      <trkpt lat="49.87539" lon="2.40525">
        <ele>54.5</ele>
        <time>2022-01-05T15:44:26Z</time>
      </trkpt>
      <trkpt lat="49.87539" lon="2.40523">
        <ele>54.5</ele>
        <time>2022-01-05T15:44:28Z</time>
      </trkpt>
      <trkpt lat="49.87539" lon="2.40519">
        <ele>54.4</ele>
        <time>2022-01-05T15:44:29Z</time>
      </trkpt>
      <trkpt lat="49.87538" lon="2.40518">
        <ele>54.4</ele>
        <time>2022-01-05T15:44:30Z</time>
      </trkpt>
      <trkpt lat="49.87538" lon="2.40516">
        <ele>54.4</ele>
        <time>2022-01-05T15:44:31Z</time>
      </trkpt>
      <trkpt lat="49.87538" lon="2.40512">
        <ele>54.3</ele>
        <time>2022-01-05T15:44:33Z</time>
      </trkpt>
      <trkpt lat="49.87537" lon="2.4051">
        <ele>54.3</ele>
        <time>2022-01-05T15:44:34Z</time>
      </trkpt>
      <trkpt lat="49.87537" lon="2.40507">
        <ele>54.2</ele>
        <time>2022-01-05T15:44:36Z</time>
      </trkpt>
      <trkpt lat="49.87537" lon="2.40506">
        <ele>54.2</ele>
        <time>2022-01-05T15:44:37Z</time>
      </trkpt>
      <trkpt lat="49.87537" lon="2.40504">
        <ele>54.2</ele>
        <time>2022-01-05T15:44:38Z</time>
      </trkpt>
      <trkpt lat="49.87537" lon="2.40502">
        <ele>54.2</ele>
        <time>2022-01-05T15:44:39Z</time>
      </trkpt>
      <trkpt lat="49.87536" lon="2.405">
        <ele>54.1</ele>
        <time>2022-01-05T15:44:40Z</time>
      </trkpt>
      <trkpt lat="49.87536" lon="2.40495">
        <ele>54.1</ele>
        <time>2022-01-05T15:44:42Z</time>
      </trkpt>
      <trkpt lat="49.87536" lon="2.40494">
        <ele>54</ele>
        <time>2022-01-05T15:44:43Z</time>
      </trkpt>
      <trkpt lat="49.87535" lon="2.40492">
        <ele>54</ele>
        <time>2022-01-05T15:44:44Z</time>
      </trkpt>
      <trkpt lat="49.87534" lon="2.40488">
        <ele>53.9</ele>
        <time>2022-01-05T15:44:46Z</time>
      </trkpt>
      <trkpt lat="49.87534" lon="2.40486">
        <ele>53.9</ele>
        <time>2022-01-05T15:44:47Z</time>
      </trkpt>
      <trkpt lat="49.87533" lon="2.40482">
        <ele>53.8</ele>
        <time>2022-01-05T15:44:49Z</time>
      </trkpt>
      <trkpt lat="49.87533" lon="2.40479">
        <ele>53.7</ele>
        <time>2022-01-05T15:44:50Z</time>
      </trkpt>
      <trkpt lat="49.87532" lon="2.40478">
        <ele>53.7</ele>
        <time>2022-01-05T15:44:51Z</time>
      </trkpt>
      <trkpt lat="49.87532" lon="2.40476">
        <ele>53.7</ele>
        <time>2022-01-05T15:44:52Z</time>
      </trkpt>
      <trkpt lat="49.87531" lon="2.40474">
        <ele>53.6</ele>
        <time>2022-01-05T15:44:53Z</time>
      </trkpt>
      <trkpt lat="49.87531" lon="2.40472">
        <ele>53.6</ele>
        <time>2022-01-05T15:44:54Z</time>
      </trkpt>
      <trkpt lat="49.87529" lon="2.40466">
        <ele>53.4</ele>
        <time>2022-01-05T15:44:56Z</time>
      </trkpt>
      <trkpt lat="49.87528" lon="2.40463">
        <ele>53.4</ele>
        <time>2022-01-05T15:44:57Z</time>
      </trkpt>
      <trkpt lat="49.87528" lon="2.40461">
        <ele>53.3</ele>
        <time>2022-01-05T15:45:00Z</time>
      </trkpt>
      <trkpt lat="49.87527" lon="2.40459">
        <ele>53.3</ele>
        <time>2022-01-05T15:45:01Z</time>
      </trkpt>
      <trkpt lat="49.87526" lon="2.40457">
        <ele>53.2</ele>
        <time>2022-01-05T15:45:02Z</time>
      </trkpt>
      <trkpt lat="49.87525" lon="2.40455">
        <ele>53.1</ele>
        <time>2022-01-05T15:45:04Z</time>
      </trkpt>
      <trkpt lat="49.87524" lon="2.40451">
        <ele>53</ele>
        <time>2022-01-05T15:45:06Z</time>
      </trkpt>
      <trkpt lat="49.87523" lon="2.40449">
        <ele>53</ele>
        <time>2022-01-05T15:45:07Z</time>
      </trkpt>
      <trkpt lat="49.87522" lon="2.40445">
        <ele>52.9</ele>
        <time>2022-01-05T15:45:09Z</time>
      </trkpt>
      <trkpt lat="49.87522" lon="2.40443">
        <ele>52.8</ele>
        <time>2022-01-05T15:45:10Z</time>
      </trkpt>
      <trkpt lat="49.87521" lon="2.40439">
        <ele>52.7</ele>
        <time>2022-01-05T15:45:12Z</time>
      </trkpt>
      <trkpt lat="49.8752" lon="2.40437">
        <ele>52.7</ele>
        <time>2022-01-05T15:45:13Z</time>
      </trkpt>
      <trkpt lat="49.87519" lon="2.40435">
        <ele>52.6</ele>
        <time>2022-01-05T15:45:14Z</time>
      </trkpt>
      <trkpt lat="49.87518" lon="2.40431">
        <ele>52.5</ele>
        <time>2022-01-05T15:45:16Z</time>
      </trkpt>
      <trkpt lat="49.87518" lon="2.40429">
        <ele>52.5</ele>
        <time>2022-01-05T15:45:17Z</time>
      </trkpt>
      <trkpt lat="49.87517" lon="2.40427">
        <ele>52.4</ele>
        <time>2022-01-05T15:45:18Z</time>
      </trkpt>
      <trkpt lat="49.87516" lon="2.40425">
        <ele>52.4</ele>
        <time>2022-01-05T15:45:19Z</time>
      </trkpt>
      <trkpt lat="49.87516" lon="2.40424">
        <ele>52.3</ele>
        <time>2022-01-05T15:45:20Z</time>
      </trkpt>
      <trkpt lat="49.87516" lon="2.40423">
        <ele>52.3</ele>
        <time>2022-01-05T15:45:21Z</time>
      </trkpt>
      <trkpt lat="49.87515" lon="2.40419">
        <ele>52.2</ele>
        <time>2022-01-05T15:45:23Z</time>
      </trkpt>
      <trkpt lat="49.87514" lon="2.40416">
        <ele>52.1</ele>
        <time>2022-01-05T15:45:24Z</time>
      </trkpt>
      <trkpt lat="49.87513" lon="2.40415">
        <ele>52.1</ele>
        <time>2022-01-05T15:45:25Z</time>
      </trkpt>
      <trkpt lat="49.87513" lon="2.40413">
        <ele>52</ele>
        <time>2022-01-05T15:45:27Z</time>
      </trkpt>
      <trkpt lat="49.87512" lon="2.40411">
        <ele>52</ele>
        <time>2022-01-05T15:45:29Z</time>
      </trkpt>
      <trkpt lat="49.87511" lon="2.40409">
        <ele>51.9</ele>
        <time>2022-01-05T15:45:30Z</time>
      </trkpt>
      <trkpt lat="49.87511" lon="2.40407">
        <ele>51.9</ele>
        <time>2022-01-05T15:45:32Z</time>
      </trkpt>
      <trkpt lat="49.8751" lon="2.40403">
        <ele>51.8</ele>
        <time>2022-01-05T15:45:34Z</time>
      </trkpt>
      <trkpt lat="49.8751" lon="2.40401">
        <ele>51.8</ele>
        <time>2022-01-05T15:45:35Z</time>
      </trkpt>
      <trkpt lat="49.87509" lon="2.40398">
        <ele>51.7</ele>
        <time>2022-01-05T15:45:36Z</time>
      </trkpt>
      <trkpt lat="49.87509" lon="2.40397">
        <ele>51.7</ele>
        <time>2022-01-05T15:45:37Z</time>
      </trkpt>
      <trkpt lat="49.87509" lon="2.40395">
        <ele>51.6</ele>
        <time>2022-01-05T15:45:39Z</time>
      </trkpt>
      <trkpt lat="49.87508" lon="2.40392">
        <ele>51.6</ele>
        <time>2022-01-05T15:45:41Z</time>
      </trkpt>
      <trkpt lat="49.87507" lon="2.40388">
        <ele>51.5</ele>
        <time>2022-01-05T15:45:42Z</time>
      </trkpt>
      <trkpt lat="49.87507" lon="2.40385">
        <ele>51.4</ele>
        <time>2022-01-05T15:45:44Z</time>
      </trkpt>
      <trkpt lat="49.87507" lon="2.40383">
        <ele>51.4</ele>
        <time>2022-01-05T15:45:46Z</time>
      </trkpt>
      <trkpt lat="49.87506" lon="2.40381">
        <ele>51.4</ele>
        <time>2022-01-05T15:45:47Z</time>
      </trkpt>
      <trkpt lat="49.87506" lon="2.40379">
        <ele>51.4</ele>
        <time>2022-01-05T15:45:48Z</time>
      </trkpt>
      <trkpt lat="49.87506" lon="2.40376">
        <ele>51.3</ele>
        <time>2022-01-05T15:45:50Z</time>
      </trkpt>
      <trkpt lat="49.87506" lon="2.40373">
        <ele>51.3</ele>
        <time>2022-01-05T15:45:51Z</time>
      </trkpt>
      <trkpt lat="49.87506" lon="2.40371">
        <ele>51.3</ele>
        <time>2022-01-05T15:45:52Z</time>
      </trkpt>
      <trkpt lat="49.87506" lon="2.40368">
        <ele>51.2</ele>
        <time>2022-01-05T15:45:53Z</time>
      </trkpt>
      <trkpt lat="49.87506" lon="2.40367">
        <ele>51.2</ele>
        <time>2022-01-05T15:45:54Z</time>
      </trkpt>
      <trkpt lat="49.87507" lon="2.40366">
        <ele>51.2</ele>
        <time>2022-01-05T15:45:55Z</time>
      </trkpt>
      <trkpt lat="49.87507" lon="2.40364">
        <ele>51.2</ele>
        <time>2022-01-05T15:45:56Z</time>
      </trkpt>
      <trkpt lat="49.87507" lon="2.40362">
        <ele>51.2</ele>
        <time>2022-01-05T15:45:58Z</time>
      </trkpt>
      <trkpt lat="49.87507" lon="2.40361">
        <ele>51.2</ele>
        <time>2022-01-05T15:45:59Z</time>
      </trkpt>
      <trkpt lat="49.87507" lon="2.40358">
        <ele>51.2</ele>
        <time>2022-01-05T15:46:00Z</time>
      </trkpt>
      <trkpt lat="49.87507" lon="2.40356">
        <ele>51.2</ele>
        <time>2022-01-05T15:46:01Z</time>
      </trkpt>
      <trkpt lat="49.87507" lon="2.40355">
        <ele>51.2</ele>
        <time>2022-01-05T15:46:02Z</time>
      </trkpt>
      <trkpt lat="49.87507" lon="2.40353">
        <ele>51.2</ele>
        <time>2022-01-05T15:46:03Z</time>
      </trkpt>
      <trkpt lat="49.87507" lon="2.40351">
        <ele>51.2</ele>
        <time>2022-01-05T15:46:04Z</time>
      </trkpt>
      <trkpt lat="49.87507" lon="2.4035">
        <ele>51.2</ele>
        <time>2022-01-05T15:46:05Z</time>
      </trkpt>
      <trkpt lat="49.87507" lon="2.40348">
        <ele>51.2</ele>
        <time>2022-01-05T15:46:06Z</time>
      </trkpt>
      <trkpt lat="49.87507" lon="2.40346">
        <ele>51.2</ele>
        <time>2022-01-05T15:46:07Z</time>
      </trkpt>
      <trkpt lat="49.87507" lon="2.40345">
        <ele>51.2</ele>
        <time>2022-01-05T15:46:08Z</time>
      </trkpt>
      <trkpt lat="49.87506" lon="2.40341">
        <ele>51.1</ele>
        <time>2022-01-05T15:46:09Z</time>
      </trkpt>
      <trkpt lat="49.87506" lon="2.40339">
        <ele>51.1</ele>
        <time>2022-01-05T15:46:12Z</time>
      </trkpt>
      <trkpt lat="49.87506" lon="2.40336">
        <ele>51.1</ele>
        <time>2022-01-05T15:46:14Z</time>
      </trkpt>
      <trkpt lat="49.87506" lon="2.40334">
        <ele>51.1</ele>
        <time>2022-01-05T15:46:15Z</time>
      </trkpt>
      <trkpt lat="49.87505" lon="2.40329">
        <ele>51.1</ele>
        <time>2022-01-05T15:46:17Z</time>
      </trkpt>
      <trkpt lat="49.87505" lon="2.40328">
        <ele>51.1</ele>
        <time>2022-01-05T15:46:18Z</time>
      </trkpt>
      <trkpt lat="49.87505" lon="2.40325">
        <ele>51.1</ele>
        <time>2022-01-05T15:46:19Z</time>
      </trkpt>
      <trkpt lat="49.87505" lon="2.40323">
        <ele>51.1</ele>
        <time>2022-01-05T15:46:20Z</time>
      </trkpt>
      <trkpt lat="49.87504" lon="2.40319">
        <ele>51.1</ele>
        <time>2022-01-05T15:46:22Z</time>
      </trkpt>
      <trkpt lat="49.87504" lon="2.40317">
        <ele>51.1</ele>
        <time>2022-01-05T15:46:23Z</time>
      </trkpt>
      <trkpt lat="49.87504" lon="2.40313">
        <ele>51.1</ele>
        <time>2022-01-05T15:46:24Z</time>
      </trkpt>
      <trkpt lat="49.87504" lon="2.40311">
        <ele>51.1</ele>
        <time>2022-01-05T15:46:25Z</time>
      </trkpt>
      <trkpt lat="49.87504" lon="2.40308">
        <ele>51.1</ele>
        <time>2022-01-05T15:46:26Z</time>
      </trkpt>
      <trkpt lat="49.87504" lon="2.40307">
        <ele>51.1</ele>
        <time>2022-01-05T15:46:27Z</time>
      </trkpt>
      <trkpt lat="49.87503" lon="2.40305">
        <ele>51.1</ele>
        <time>2022-01-05T15:46:28Z</time>
      </trkpt>
      <trkpt lat="49.87503" lon="2.40301">
        <ele>51.1</ele>
        <time>2022-01-05T15:46:31Z</time>
      </trkpt>
      <trkpt lat="49.87504" lon="2.40299">
        <ele>51.1</ele>
        <time>2022-01-05T15:46:32Z</time>
      </trkpt>
      <trkpt lat="49.87504" lon="2.40296">
        <ele>51.1</ele>
        <time>2022-01-05T15:46:33Z</time>
      </trkpt>
      <trkpt lat="49.87504" lon="2.40292">
        <ele>51.1</ele>
        <time>2022-01-05T15:46:35Z</time>
      </trkpt>
      <trkpt lat="49.87504" lon="2.40291">
        <ele>51.1</ele>
        <time>2022-01-05T15:46:36Z</time>
      </trkpt>
      <trkpt lat="49.87504" lon="2.40288">
        <ele>51.1</ele>
        <time>2022-01-05T15:46:37Z</time>
      </trkpt>
      <trkpt lat="49.87505" lon="2.40286">
        <ele>51.1</ele>
        <time>2022-01-05T15:46:38Z</time>
      </trkpt>
      <trkpt lat="49.87505" lon="2.40283">
        <ele>51.1</ele>
        <time>2022-01-05T15:46:39Z</time>
      </trkpt>
      <trkpt lat="49.87505" lon="2.40281">
        <ele>51.1</ele>
        <time>2022-01-05T15:46:40Z</time>
      </trkpt>
      <trkpt lat="49.87505" lon="2.40279">
        <ele>51.1</ele>
        <time>2022-01-05T15:46:41Z</time>
      </trkpt>
      <trkpt lat="49.87505" lon="2.40277">
        <ele>51.2</ele>
        <time>2022-01-05T15:46:43Z</time>
      </trkpt>
      <trkpt lat="49.87505" lon="2.40274">
        <ele>51.2</ele>
        <time>2022-01-05T15:46:44Z</time>
      </trkpt>
      <trkpt lat="49.87504" lon="2.40273">
        <ele>51.2</ele>
        <time>2022-01-05T15:46:45Z</time>
      </trkpt>
      <trkpt lat="49.87504" lon="2.40271">
        <ele>51.2</ele>
        <time>2022-01-05T15:46:46Z</time>
      </trkpt>
      <trkpt lat="49.87502" lon="2.4027">
        <ele>51.2</ele>
        <time>2022-01-05T15:46:47Z</time>
      </trkpt>
      <trkpt lat="49.875" lon="2.40266">
        <ele>51.2</ele>
        <time>2022-01-05T15:46:49Z</time>
      </trkpt>
      <trkpt lat="49.87499" lon="2.40265">
        <ele>51.2</ele>
        <time>2022-01-05T15:46:50Z</time>
      </trkpt>
      <trkpt lat="49.87498" lon="2.40263">
        <ele>51.2</ele>
        <time>2022-01-05T15:46:51Z</time>
      </trkpt>
      <trkpt lat="49.87498" lon="2.40261">
        <ele>51.2</ele>
        <time>2022-01-05T15:46:52Z</time>
      </trkpt>
      <trkpt lat="49.87499" lon="2.40257">
        <ele>51.2</ele>
        <time>2022-01-05T15:46:54Z</time>
      </trkpt>
      <trkpt lat="49.87499" lon="2.40256">
        <ele>51.2</ele>
        <time>2022-01-05T15:46:55Z</time>
      </trkpt>
      <trkpt lat="49.875" lon="2.40255">
        <ele>51.2</ele>
        <time>2022-01-05T15:46:56Z</time>
      </trkpt>
      <trkpt lat="49.87501" lon="2.40253">
        <ele>51.2</ele>
        <time>2022-01-05T15:46:57Z</time>
      </trkpt>
      <trkpt lat="49.87501" lon="2.40251">
        <ele>51.2</ele>
        <time>2022-01-05T15:46:58Z</time>
      </trkpt>
      <trkpt lat="49.87502" lon="2.40249">
        <ele>51.2</ele>
        <time>2022-01-05T15:47:00Z</time>
      </trkpt>
      <trkpt lat="49.87502" lon="2.40247">
        <ele>51.2</ele>
        <time>2022-01-05T15:47:01Z</time>
      </trkpt>
      <trkpt lat="49.87503" lon="2.40245">
        <ele>51.3</ele>
        <time>2022-01-05T15:47:02Z</time>
      </trkpt>
      <trkpt lat="49.87503" lon="2.40243">
        <ele>51.3</ele>
        <time>2022-01-05T15:47:03Z</time>
      </trkpt>
      <trkpt lat="49.87503" lon="2.40241">
        <ele>51.3</ele>
        <time>2022-01-05T15:47:04Z</time>
      </trkpt>
      <trkpt lat="49.87504" lon="2.40239">
        <ele>51.3</ele>
        <time>2022-01-05T15:47:05Z</time>
      </trkpt>
      <trkpt lat="49.87504" lon="2.40237">
        <ele>51.3</ele>
        <time>2022-01-05T15:47:06Z</time>
      </trkpt>
      <trkpt lat="49.87505" lon="2.40235">
        <ele>51.3</ele>
        <time>2022-01-05T15:47:08Z</time>
      </trkpt>
      <trkpt lat="49.87505" lon="2.40233">
        <ele>51.3</ele>
        <time>2022-01-05T15:47:09Z</time>
      </trkpt>
      <trkpt lat="49.87506" lon="2.40231">
        <ele>51.3</ele>
        <time>2022-01-05T15:47:10Z</time>
      </trkpt>
      <trkpt lat="49.87506" lon="2.40227">
        <ele>51.3</ele>
        <time>2022-01-05T15:47:11Z</time>
      </trkpt>
      <trkpt lat="49.87506" lon="2.40226">
        <ele>51.3</ele>
        <time>2022-01-05T15:47:12Z</time>
      </trkpt>
      <trkpt lat="49.87507" lon="2.40225">
        <ele>51.3</ele>
        <time>2022-01-05T15:47:13Z</time>
      </trkpt>
      <trkpt lat="49.87507" lon="2.40222">
        <ele>51.3</ele>
        <time>2022-01-05T15:47:14Z</time>
      </trkpt>
      <trkpt lat="49.87507" lon="2.4022">
        <ele>51.4</ele>
        <time>2022-01-05T15:47:15Z</time>
      </trkpt>
      <trkpt lat="49.87507" lon="2.40218">
        <ele>51.4</ele>
        <time>2022-01-05T15:47:16Z</time>
      </trkpt>
      <trkpt lat="49.87507" lon="2.40216">
        <ele>51.4</ele>
        <time>2022-01-05T15:47:17Z</time>
      </trkpt>
      <trkpt lat="49.87507" lon="2.40214">
        <ele>51.4</ele>
        <time>2022-01-05T15:47:18Z</time>
      </trkpt>
      <trkpt lat="49.87507" lon="2.40211">
        <ele>51.4</ele>
        <time>2022-01-05T15:47:20Z</time>
      </trkpt>
      <trkpt lat="49.87506" lon="2.40209">
        <ele>51.4</ele>
        <time>2022-01-05T15:47:21Z</time>
      </trkpt>
      <trkpt lat="49.87506" lon="2.40207">
        <ele>51.4</ele>
        <time>2022-01-05T15:47:22Z</time>
      </trkpt>
      <trkpt lat="49.87506" lon="2.40205">
        <ele>51.4</ele>
        <time>2022-01-05T15:47:23Z</time>
      </trkpt>
      <trkpt lat="49.87506" lon="2.40203">
        <ele>51.5</ele>
        <time>2022-01-05T15:47:24Z</time>
      </trkpt>
      <trkpt lat="49.87506" lon="2.40201">
        <ele>51.5</ele>
        <time>2022-01-05T15:47:26Z</time>
      </trkpt>
      <trkpt lat="49.87506" lon="2.40199">
        <ele>51.5</ele>
        <time>2022-01-05T15:47:27Z</time>
      </trkpt>
      <trkpt lat="49.87505" lon="2.40195">
        <ele>51.5</ele>
        <time>2022-01-05T15:47:29Z</time>
      </trkpt>
      <trkpt lat="49.87505" lon="2.40193">
        <ele>51.5</ele>
        <time>2022-01-05T15:47:30Z</time>
      </trkpt>
      <trkpt lat="49.87505" lon="2.4019">
        <ele>51.6</ele>
        <time>2022-01-05T15:47:32Z</time>
      </trkpt>
      <trkpt lat="49.87504" lon="2.40187">
        <ele>51.6</ele>
        <time>2022-01-05T15:47:33Z</time>
      </trkpt>
      <trkpt lat="49.87504" lon="2.40184">
        <ele>51.6</ele>
        <time>2022-01-05T15:47:34Z</time>
      </trkpt>
      <trkpt lat="49.87504" lon="2.40181">
        <ele>51.7</ele>
        <time>2022-01-05T15:47:36Z</time>
      </trkpt>
      <trkpt lat="49.87504" lon="2.4018">
        <ele>51.7</ele>
        <time>2022-01-05T15:47:37Z</time>
      </trkpt>
      <trkpt lat="49.87504" lon="2.40178">
        <ele>51.7</ele>
        <time>2022-01-05T15:47:38Z</time>
      </trkpt>
      <trkpt lat="49.87504" lon="2.40175">
        <ele>51.7</ele>
        <time>2022-01-05T15:47:39Z</time>
      </trkpt>
      <trkpt lat="49.87505" lon="2.40174">
        <ele>51.7</ele>
        <time>2022-01-05T15:47:40Z</time>
      </trkpt>
      <trkpt lat="49.87505" lon="2.40173">
        <ele>51.7</ele>
        <time>2022-01-05T15:47:41Z</time>
      </trkpt>
      <trkpt lat="49.87505" lon="2.40169">
        <ele>51.8</ele>
        <time>2022-01-05T15:47:42Z</time>
      </trkpt>
      <trkpt lat="49.87505" lon="2.40168">
        <ele>51.8</ele>
        <time>2022-01-05T15:47:43Z</time>
      </trkpt>
      <trkpt lat="49.87505" lon="2.40167">
        <ele>51.8</ele>
        <time>2022-01-05T15:47:44Z</time>
      </trkpt>
      <trkpt lat="49.87505" lon="2.40165">
        <ele>51.8</ele>
        <time>2022-01-05T15:47:45Z</time>
      </trkpt>
      <trkpt lat="49.87505" lon="2.40163">
        <ele>51.8</ele>
        <time>2022-01-05T15:47:46Z</time>
      </trkpt>
      <trkpt lat="49.87505" lon="2.40161">
        <ele>51.8</ele>
        <time>2022-01-05T15:47:47Z</time>
      </trkpt>
      <trkpt lat="49.87506" lon="2.40158">
        <ele>51.9</ele>
        <time>2022-01-05T15:47:49Z</time>
      </trkpt>
      <trkpt lat="49.87506" lon="2.40157">
        <ele>51.9</ele>
        <time>2022-01-05T15:47:50Z</time>
      </trkpt>
      <trkpt lat="49.87506" lon="2.40155">
        <ele>51.9</ele>
        <time>2022-01-05T15:47:51Z</time>
      </trkpt>
      <trkpt lat="49.87506" lon="2.40153">
        <ele>51.9</ele>
        <time>2022-01-05T15:47:52Z</time>
      </trkpt>
      <trkpt lat="49.87506" lon="2.40151">
        <ele>52</ele>
        <time>2022-01-05T15:47:53Z</time>
      </trkpt>
      <trkpt lat="49.87506" lon="2.40147">
        <ele>52</ele>
        <time>2022-01-05T15:47:54Z</time>
      </trkpt>
      <trkpt lat="49.87506" lon="2.40146">
        <ele>52</ele>
        <time>2022-01-05T15:47:55Z</time>
      </trkpt>
      <trkpt lat="49.87506" lon="2.40145">
        <ele>52</ele>
        <time>2022-01-05T15:47:56Z</time>
      </trkpt>
      <trkpt lat="49.87506" lon="2.40143">
        <ele>52</ele>
        <time>2022-01-05T15:47:58Z</time>
      </trkpt>
      <trkpt lat="49.87507" lon="2.40141">
        <ele>52</ele>
        <time>2022-01-05T15:47:59Z</time>
      </trkpt>
      <trkpt lat="49.87507" lon="2.40139">
        <ele>52.1</ele>
        <time>2022-01-05T15:48:00Z</time>
      </trkpt>
      <trkpt lat="49.87507" lon="2.40136">
        <ele>52.1</ele>
        <time>2022-01-05T15:48:01Z</time>
      </trkpt>
      <trkpt lat="49.87507" lon="2.40135">
        <ele>52.1</ele>
        <time>2022-01-05T15:48:02Z</time>
      </trkpt>
      <trkpt lat="49.87507" lon="2.40133">
        <ele>52.1</ele>
        <time>2022-01-05T15:48:03Z</time>
      </trkpt>
      <trkpt lat="49.87506" lon="2.4013">
        <ele>52.2</ele>
        <time>2022-01-05T15:48:04Z</time>
      </trkpt>
      <trkpt lat="49.87505" lon="2.40129">
        <ele>52.2</ele>
        <time>2022-01-05T15:48:06Z</time>
      </trkpt>
      <trkpt lat="49.87505" lon="2.40128">
        <ele>52.2</ele>
        <time>2022-01-05T15:48:07Z</time>
      </trkpt>
      <trkpt lat="49.87504" lon="2.40125">
        <ele>52.2</ele>
        <time>2022-01-05T15:48:08Z</time>
      </trkpt>
      <trkpt lat="49.87503" lon="2.40124">
        <ele>52.2</ele>
        <time>2022-01-05T15:48:09Z</time>
      </trkpt>
      <trkpt lat="49.87503" lon="2.40123">
        <ele>52.2</ele>
        <time>2022-01-05T15:48:10Z</time>
      </trkpt>
      <trkpt lat="49.87502" lon="2.40122">
        <ele>52.3</ele>
        <time>2022-01-05T15:48:11Z</time>
      </trkpt>
      <trkpt lat="49.87501" lon="2.4012">
        <ele>52.3</ele>
        <time>2022-01-05T15:48:12Z</time>
      </trkpt>
      <trkpt lat="49.875" lon="2.40118">
        <ele>52.3</ele>
        <time>2022-01-05T15:48:14Z</time>
      </trkpt>
      <trkpt lat="49.875" lon="2.40115">
        <ele>52.3</ele>
        <time>2022-01-05T15:48:15Z</time>
      </trkpt>
      <trkpt lat="49.875" lon="2.40113">
        <ele>52.3</ele>
        <time>2022-01-05T15:48:16Z</time>
      </trkpt>
      <trkpt lat="49.875" lon="2.40112">
        <ele>52.4</ele>
        <time>2022-01-05T15:48:17Z</time>
      </trkpt>
      <trkpt lat="49.875" lon="2.40111">
        <ele>52.4</ele>
        <time>2022-01-05T15:48:19Z</time>
      </trkpt>
      <trkpt lat="49.875" lon="2.40109">
        <ele>52.4</ele>
        <time>2022-01-05T15:48:20Z</time>
      </trkpt>
      <trkpt lat="49.875" lon="2.40107">
        <ele>52.4</ele>
        <time>2022-01-05T15:48:21Z</time>
      </trkpt>
      <trkpt lat="49.87501" lon="2.40104">
        <ele>52.5</ele>
        <time>2022-01-05T15:48:22Z</time>
      </trkpt>
      <trkpt lat="49.87501" lon="2.40103">
        <ele>52.5</ele>
        <time>2022-01-05T15:48:23Z</time>
      </trkpt>
      <trkpt lat="49.87501" lon="2.40102">
        <ele>52.5</ele>
        <time>2022-01-05T15:48:24Z</time>
      </trkpt>
      <trkpt lat="49.87501" lon="2.401">
        <ele>52.5</ele>
        <time>2022-01-05T15:48:25Z</time>
      </trkpt>
      <trkpt lat="49.87501" lon="2.40097">
        <ele>52.5</ele>
        <time>2022-01-05T15:48:27Z</time>
      </trkpt>
      <trkpt lat="49.87501" lon="2.40095">
        <ele>52.6</ele>
        <time>2022-01-05T15:48:28Z</time>
      </trkpt>
      <trkpt lat="49.87501" lon="2.40092">
        <ele>52.6</ele>
        <time>2022-01-05T15:48:30Z</time>
      </trkpt>
      <trkpt lat="49.87501" lon="2.40089">
        <ele>52.6</ele>
        <time>2022-01-05T15:48:31Z</time>
      </trkpt>
      <trkpt lat="49.87501" lon="2.40087">
        <ele>52.7</ele>
        <time>2022-01-05T15:48:32Z</time>
      </trkpt>
      <trkpt lat="49.87501" lon="2.40085">
        <ele>52.7</ele>
        <time>2022-01-05T15:48:34Z</time>
      </trkpt>
      <trkpt lat="49.87501" lon="2.40082">
        <ele>52.8</ele>
        <time>2022-01-05T15:48:35Z</time>
      </trkpt>
      <trkpt lat="49.87501" lon="2.40079">
        <ele>52.8</ele>
        <time>2022-01-05T15:48:37Z</time>
      </trkpt>
      <trkpt lat="49.87501" lon="2.40078">
        <ele>52.8</ele>
        <time>2022-01-05T15:48:38Z</time>
      </trkpt>
      <trkpt lat="49.87502" lon="2.40076">
        <ele>52.8</ele>
        <time>2022-01-05T15:48:39Z</time>
      </trkpt>
      <trkpt lat="49.87502" lon="2.40074">
        <ele>52.9</ele>
        <time>2022-01-05T15:48:40Z</time>
      </trkpt>
      <trkpt lat="49.87502" lon="2.40072">
        <ele>52.9</ele>
        <time>2022-01-05T15:48:41Z</time>
      </trkpt>
      <trkpt lat="49.87502" lon="2.40068">
        <ele>53</ele>
        <time>2022-01-05T15:48:42Z</time>
      </trkpt>
      <trkpt lat="49.87503" lon="2.40067">
        <ele>53</ele>
        <time>2022-01-05T15:48:43Z</time>
      </trkpt>
      <trkpt lat="49.87503" lon="2.40066">
        <ele>53</ele>
        <time>2022-01-05T15:48:44Z</time>
      </trkpt>
      <trkpt lat="49.87503" lon="2.40062">
        <ele>53</ele>
        <time>2022-01-05T15:48:45Z</time>
      </trkpt>
      <trkpt lat="49.87503" lon="2.40061">
        <ele>53.1</ele>
        <time>2022-01-05T15:48:46Z</time>
      </trkpt>
      <trkpt lat="49.87503" lon="2.40059">
        <ele>53.1</ele>
        <time>2022-01-05T15:48:47Z</time>
      </trkpt>
      <trkpt lat="49.87503" lon="2.40057">
        <ele>53.1</ele>
        <time>2022-01-05T15:48:49Z</time>
      </trkpt>
      <trkpt lat="49.87503" lon="2.40055">
        <ele>53.2</ele>
        <time>2022-01-05T15:48:50Z</time>
      </trkpt>
      <trkpt lat="49.87504" lon="2.40053">
        <ele>53.2</ele>
        <time>2022-01-05T15:48:51Z</time>
      </trkpt>
      <trkpt lat="49.87504" lon="2.4005">
        <ele>53.2</ele>
        <time>2022-01-05T15:48:52Z</time>
      </trkpt>
      <trkpt lat="49.87504" lon="2.40046">
        <ele>53.3</ele>
        <time>2022-01-05T15:48:54Z</time>
      </trkpt>
      <trkpt lat="49.87504" lon="2.40045">
        <ele>53.3</ele>
        <time>2022-01-05T15:48:55Z</time>
      </trkpt>
      <trkpt lat="49.87504" lon="2.40044">
        <ele>53.3</ele>
        <time>2022-01-05T15:48:56Z</time>
      </trkpt>
      <trkpt lat="49.87505" lon="2.40042">
        <ele>53.4</ele>
        <time>2022-01-05T15:48:57Z</time>
      </trkpt>
      <trkpt lat="49.87505" lon="2.4004">
        <ele>53.4</ele>
        <time>2022-01-05T15:48:58Z</time>
      </trkpt>
      <trkpt lat="49.87506" lon="2.40038">
        <ele>53.4</ele>
        <time>2022-01-05T15:48:59Z</time>
      </trkpt>
      <trkpt lat="49.87506" lon="2.40036">
        <ele>53.5</ele>
        <time>2022-01-05T15:49:00Z</time>
      </trkpt>
      <trkpt lat="49.87506" lon="2.40034">
        <ele>53.5</ele>
        <time>2022-01-05T15:49:01Z</time>
      </trkpt>
      <trkpt lat="49.87507" lon="2.40032">
        <ele>53.5</ele>
        <time>2022-01-05T15:49:02Z</time>
      </trkpt>
      <trkpt lat="49.87507" lon="2.4003">
        <ele>53.5</ele>
        <time>2022-01-05T15:49:04Z</time>
      </trkpt>
      <trkpt lat="49.87507" lon="2.40028">
        <ele>53.6</ele>
        <time>2022-01-05T15:49:05Z</time>
      </trkpt>
      <trkpt lat="49.87508" lon="2.40027">
        <ele>53.6</ele>
        <time>2022-01-05T15:49:06Z</time>
      </trkpt>
      <trkpt lat="49.87508" lon="2.40025">
        <ele>53.6</ele>
        <time>2022-01-05T15:49:07Z</time>
      </trkpt>
      <trkpt lat="49.87508" lon="2.40022">
        <ele>53.7</ele>
        <time>2022-01-05T15:49:08Z</time>
      </trkpt>
      <trkpt lat="49.87508" lon="2.40021">
        <ele>53.7</ele>
        <time>2022-01-05T15:49:09Z</time>
      </trkpt>
      <trkpt lat="49.87508" lon="2.40019">
        <ele>53.7</ele>
        <time>2022-01-05T15:49:10Z</time>
      </trkpt>
      <trkpt lat="49.87508" lon="2.40018">
        <ele>53.7</ele>
        <time>2022-01-05T15:49:11Z</time>
      </trkpt>
      <trkpt lat="49.87508" lon="2.40016">
        <ele>53.8</ele>
        <time>2022-01-05T15:49:12Z</time>
      </trkpt>
      <trkpt lat="49.87509" lon="2.40014">
        <ele>53.8</ele>
        <time>2022-01-05T15:49:14Z</time>
      </trkpt>
      <trkpt lat="49.87509" lon="2.40012">
        <ele>53.8</ele>
        <time>2022-01-05T15:49:15Z</time>
      </trkpt>
      <trkpt lat="49.87508" lon="2.4001">
        <ele>53.8</ele>
        <time>2022-01-05T15:49:16Z</time>
      </trkpt>
      <trkpt lat="49.87509" lon="2.40008">
        <ele>53.9</ele>
        <time>2022-01-05T15:49:17Z</time>
      </trkpt>
      <trkpt lat="49.87509" lon="2.40005">
        <ele>53.9</ele>
        <time>2022-01-05T15:49:18Z</time>
      </trkpt>
      <trkpt lat="49.87509" lon="2.40004">
        <ele>53.9</ele>
        <time>2022-01-05T15:49:19Z</time>
      </trkpt>
      <trkpt lat="49.87509" lon="2.40002">
        <ele>53.9</ele>
        <time>2022-01-05T15:49:20Z</time>
      </trkpt>
      <trkpt lat="49.87508" lon="2.40001">
        <ele>54</ele>
        <time>2022-01-05T15:49:21Z</time>
      </trkpt>
      <trkpt lat="49.87508" lon="2.39999">
        <ele>54</ele>
        <time>2022-01-05T15:49:23Z</time>
      </trkpt>
      <trkpt lat="49.87508" lon="2.39997">
        <ele>54</ele>
        <time>2022-01-05T15:49:24Z</time>
      </trkpt>
      <trkpt lat="49.87508" lon="2.39996">
        <ele>54</ele>
        <time>2022-01-05T15:49:25Z</time>
      </trkpt>
      <trkpt lat="49.87508" lon="2.39993">
        <ele>54.1</ele>
        <time>2022-01-05T15:49:27Z</time>
      </trkpt>
      <trkpt lat="49.87508" lon="2.39989">
        <ele>54.1</ele>
        <time>2022-01-05T15:49:29Z</time>
      </trkpt>
      <trkpt lat="49.87509" lon="2.39988">
        <ele>54.2</ele>
        <time>2022-01-05T15:49:30Z</time>
      </trkpt>
      <trkpt lat="49.87509" lon="2.39985">
        <ele>54.2</ele>
        <time>2022-01-05T15:49:31Z</time>
      </trkpt>
      <trkpt lat="49.87509" lon="2.39983">
        <ele>54.2</ele>
        <time>2022-01-05T15:49:32Z</time>
      </trkpt>
      <trkpt lat="49.87509" lon="2.39979">
        <ele>54.3</ele>
        <time>2022-01-05T15:49:34Z</time>
      </trkpt>
      <trkpt lat="49.87509" lon="2.39978">
        <ele>54.3</ele>
        <time>2022-01-05T15:49:35Z</time>
      </trkpt>
      <trkpt lat="49.8751" lon="2.39977">
        <ele>54.3</ele>
        <time>2022-01-05T15:49:36Z</time>
      </trkpt>
      <trkpt lat="49.8751" lon="2.39975">
        <ele>54.3</ele>
        <time>2022-01-05T15:49:37Z</time>
      </trkpt>
      <trkpt lat="49.8751" lon="2.39972">
        <ele>54.3</ele>
        <time>2022-01-05T15:49:38Z</time>
      </trkpt>
      <trkpt lat="49.87511" lon="2.3997">
        <ele>54.4</ele>
        <time>2022-01-05T15:49:39Z</time>
      </trkpt>
      <trkpt lat="49.87512" lon="2.39968">
        <ele>54.4</ele>
        <time>2022-01-05T15:49:41Z</time>
      </trkpt>
      <trkpt lat="49.87512" lon="2.39966">
        <ele>54.4</ele>
        <time>2022-01-05T15:49:42Z</time>
      </trkpt>
      <trkpt lat="49.87514" lon="2.39963">
        <ele>54.4</ele>
        <time>2022-01-05T15:49:43Z</time>
      </trkpt>
      <trkpt lat="49.87515" lon="2.39961">
        <ele>54.5</ele>
        <time>2022-01-05T15:49:44Z</time>
      </trkpt>
      <trkpt lat="49.87515" lon="2.3996">
        <ele>54.5</ele>
        <time>2022-01-05T15:49:46Z</time>
      </trkpt>
      <trkpt lat="49.87516" lon="2.39959">
        <ele>54.5</ele>
        <time>2022-01-05T15:49:47Z</time>
      </trkpt>
      <trkpt lat="49.87517" lon="2.39957">
        <ele>54.5</ele>
        <time>2022-01-05T15:49:48Z</time>
      </trkpt>
      <trkpt lat="49.87517" lon="2.39956">
        <ele>54.5</ele>
        <time>2022-01-05T15:49:49Z</time>
      </trkpt>
      <trkpt lat="49.87518" lon="2.39954">
        <ele>54.6</ele>
        <time>2022-01-05T15:49:50Z</time>
      </trkpt>
      <trkpt lat="49.87519" lon="2.39951">
        <ele>54.6</ele>
        <time>2022-01-05T15:49:51Z</time>
      </trkpt>
      <trkpt lat="49.87519" lon="2.3995">
        <ele>54.6</ele>
        <time>2022-01-05T15:49:52Z</time>
      </trkpt>
      <trkpt lat="49.87519" lon="2.39948">
        <ele>54.6</ele>
        <time>2022-01-05T15:49:53Z</time>
      </trkpt>
      <trkpt lat="49.8752" lon="2.39947">
        <ele>54.7</ele>
        <time>2022-01-05T15:49:54Z</time>
      </trkpt>
      <trkpt lat="49.8752" lon="2.39945">
        <ele>54.7</ele>
        <time>2022-01-05T15:49:55Z</time>
      </trkpt>
      <trkpt lat="49.8752" lon="2.39943">
        <ele>54.7</ele>
        <time>2022-01-05T15:49:56Z</time>
      </trkpt>
      <trkpt lat="49.87521" lon="2.39942">
        <ele>54.7</ele>
        <time>2022-01-05T15:49:58Z</time>
      </trkpt>
      <trkpt lat="49.87521" lon="2.3994">
        <ele>54.7</ele>
        <time>2022-01-05T15:49:59Z</time>
      </trkpt>
      <trkpt lat="49.87521" lon="2.39938">
        <ele>54.8</ele>
        <time>2022-01-05T15:50:00Z</time>
      </trkpt>
      <trkpt lat="49.87522" lon="2.39937">
        <ele>54.8</ele>
        <time>2022-01-05T15:50:01Z</time>
      </trkpt>
      <trkpt lat="49.87522" lon="2.39935">
        <ele>54.8</ele>
        <time>2022-01-05T15:50:02Z</time>
      </trkpt>
      <trkpt lat="49.87522" lon="2.39933">
        <ele>54.8</ele>
        <time>2022-01-05T15:50:03Z</time>
      </trkpt>
      <trkpt lat="49.87523" lon="2.39931">
        <ele>54.9</ele>
        <time>2022-01-05T15:50:04Z</time>
      </trkpt>
      <trkpt lat="49.87523" lon="2.3993">
        <ele>54.9</ele>
        <time>2022-01-05T15:50:05Z</time>
      </trkpt>
      <trkpt lat="49.87523" lon="2.39928">
        <ele>54.9</ele>
        <time>2022-01-05T15:50:06Z</time>
      </trkpt>
      <trkpt lat="49.87523" lon="2.39926">
        <ele>54.9</ele>
        <time>2022-01-05T15:50:07Z</time>
      </trkpt>
      <trkpt lat="49.87523" lon="2.39924">
        <ele>54.9</ele>
        <time>2022-01-05T15:50:09Z</time>
      </trkpt>
      <trkpt lat="49.87524" lon="2.39922">
        <ele>55</ele>
        <time>2022-01-05T15:50:10Z</time>
      </trkpt>
      <trkpt lat="49.87524" lon="2.3992">
        <ele>55</ele>
        <time>2022-01-05T15:50:11Z</time>
      </trkpt>
      <trkpt lat="49.87525" lon="2.39918">
        <ele>55</ele>
        <time>2022-01-05T15:50:12Z</time>
      </trkpt>
      <trkpt lat="49.87525" lon="2.39917">
        <ele>55</ele>
        <time>2022-01-05T15:50:13Z</time>
      </trkpt>
      <trkpt lat="49.87525" lon="2.39915">
        <ele>55.1</ele>
        <time>2022-01-05T15:50:15Z</time>
      </trkpt>
      <trkpt lat="49.87526" lon="2.39913">
        <ele>55.1</ele>
        <time>2022-01-05T15:50:16Z</time>
      </trkpt>
      <trkpt lat="49.87526" lon="2.3991">
        <ele>55.1</ele>
        <time>2022-01-05T15:50:17Z</time>
      </trkpt>
      <trkpt lat="49.87526" lon="2.39908">
        <ele>55.2</ele>
        <time>2022-01-05T15:50:18Z</time>
      </trkpt>
      <trkpt lat="49.87527" lon="2.39907">
        <ele>55.2</ele>
        <time>2022-01-05T15:50:20Z</time>
      </trkpt>
      <trkpt lat="49.87527" lon="2.39905">
        <ele>55.2</ele>
        <time>2022-01-05T15:50:21Z</time>
      </trkpt>
      <trkpt lat="49.87527" lon="2.39903">
        <ele>55.2</ele>
        <time>2022-01-05T15:50:22Z</time>
      </trkpt>
      <trkpt lat="49.87527" lon="2.399">
        <ele>55.3</ele>
        <time>2022-01-05T15:50:23Z</time>
      </trkpt>
      <trkpt lat="49.87527" lon="2.39899">
        <ele>55.3</ele>
        <time>2022-01-05T15:50:24Z</time>
      </trkpt>
      <trkpt lat="49.87527" lon="2.39898">
        <ele>55.3</ele>
        <time>2022-01-05T15:50:26Z</time>
      </trkpt>
      <trkpt lat="49.87526" lon="2.39897">
        <ele>55.3</ele>
        <time>2022-01-05T15:50:27Z</time>
      </trkpt>
      <trkpt lat="49.87526" lon="2.39896">
        <ele>55.3</ele>
        <time>2022-01-05T15:50:29Z</time>
      </trkpt>
      <trkpt lat="49.87526" lon="2.39895">
        <ele>55.4</ele>
        <time>2022-01-05T15:50:30Z</time>
      </trkpt>
      <trkpt lat="49.87526" lon="2.39894">
        <ele>55.4</ele>
        <time>2022-01-05T15:50:31Z</time>
      </trkpt>
      <trkpt lat="49.87525" lon="2.39892">
        <ele>55.4</ele>
        <time>2022-01-05T15:50:32Z</time>
      </trkpt>
      <trkpt lat="49.87524" lon="2.39891">
        <ele>55.4</ele>
        <time>2022-01-05T15:50:34Z</time>
      </trkpt>
      <trkpt lat="49.87524" lon="2.3989">
        <ele>55.4</ele>
        <time>2022-01-05T15:50:35Z</time>
      </trkpt>
      <trkpt lat="49.87523" lon="2.39887">
        <ele>55.4</ele>
        <time>2022-01-05T15:50:36Z</time>
      </trkpt>
      <trkpt lat="49.87523" lon="2.39886">
        <ele>55.4</ele>
        <time>2022-01-05T15:50:38Z</time>
      </trkpt>
      <trkpt lat="49.87523" lon="2.39885">
        <ele>55.4</ele>
        <time>2022-01-05T15:50:39Z</time>
      </trkpt>
      <trkpt lat="49.87522" lon="2.39883">
        <ele>55.4</ele>
        <time>2022-01-05T15:50:40Z</time>
      </trkpt>
      <trkpt lat="49.87522" lon="2.39881">
        <ele>55.4</ele>
        <time>2022-01-05T15:50:41Z</time>
      </trkpt>
      <trkpt lat="49.87521" lon="2.3988">
        <ele>55.5</ele>
        <time>2022-01-05T15:50:43Z</time>
      </trkpt>
      <trkpt lat="49.8752" lon="2.39878">
        <ele>55.5</ele>
        <time>2022-01-05T15:50:44Z</time>
      </trkpt>
      <trkpt lat="49.8752" lon="2.39877">
        <ele>55.5</ele>
        <time>2022-01-05T15:50:45Z</time>
      </trkpt>
      <trkpt lat="49.87519" lon="2.39875">
        <ele>55.5</ele>
        <time>2022-01-05T15:50:46Z</time>
      </trkpt>
      <trkpt lat="49.87518" lon="2.39873">
        <ele>55.5</ele>
        <time>2022-01-05T15:50:47Z</time>
      </trkpt>
      <trkpt lat="49.87517" lon="2.39871">
        <ele>55.5</ele>
        <time>2022-01-05T15:50:48Z</time>
      </trkpt>
      <trkpt lat="49.87517" lon="2.3987">
        <ele>55.5</ele>
        <time>2022-01-05T15:50:49Z</time>
      </trkpt>
      <trkpt lat="49.87516" lon="2.39868">
        <ele>55.5</ele>
        <time>2022-01-05T15:50:51Z</time>
      </trkpt>
      <trkpt lat="49.87515" lon="2.39867">
        <ele>55.5</ele>
        <time>2022-01-05T15:50:52Z</time>
      </trkpt>
      <trkpt lat="49.87515" lon="2.39865">
        <ele>55.5</ele>
        <time>2022-01-05T15:50:53Z</time>
      </trkpt>
      <trkpt lat="49.87514" lon="2.39864">
        <ele>55.5</ele>
        <time>2022-01-05T15:50:54Z</time>
      </trkpt>
      <trkpt lat="49.87514" lon="2.39862">
        <ele>55.5</ele>
        <time>2022-01-05T15:50:55Z</time>
      </trkpt>
      <trkpt lat="49.87513" lon="2.3986">
        <ele>55.5</ele>
        <time>2022-01-05T15:50:56Z</time>
      </trkpt>
      <trkpt lat="49.87513" lon="2.39858">
        <ele>55.5</ele>
        <time>2022-01-05T15:50:57Z</time>
      </trkpt>
      <trkpt lat="49.87512" lon="2.39856">
        <ele>55.5</ele>
        <time>2022-01-05T15:50:59Z</time>
      </trkpt>
      <trkpt lat="49.87511" lon="2.39853">
        <ele>55.5</ele>
        <time>2022-01-05T15:51:00Z</time>
      </trkpt>
      <trkpt lat="49.87511" lon="2.39852">
        <ele>55.5</ele>
        <time>2022-01-05T15:51:01Z</time>
      </trkpt>
      <trkpt lat="49.8751" lon="2.39851">
        <ele>55.5</ele>
        <time>2022-01-05T15:51:02Z</time>
      </trkpt>
      <trkpt lat="49.87509" lon="2.3985">
        <ele>55.5</ele>
        <time>2022-01-05T15:51:03Z</time>
      </trkpt>
      <trkpt lat="49.87508" lon="2.39849">
        <ele>55.6</ele>
        <time>2022-01-05T15:51:04Z</time>
      </trkpt>
      <trkpt lat="49.87508" lon="2.39847">
        <ele>55.6</ele>
        <time>2022-01-05T15:51:06Z</time>
      </trkpt>
      <trkpt lat="49.87506" lon="2.39845">
        <ele>55.6</ele>
        <time>2022-01-05T15:51:07Z</time>
      </trkpt>
      <trkpt lat="49.87506" lon="2.39844">
        <ele>55.6</ele>
        <time>2022-01-05T15:51:08Z</time>
      </trkpt>
      <trkpt lat="49.87505" lon="2.39843">
        <ele>55.6</ele>
        <time>2022-01-05T15:51:09Z</time>
      </trkpt>
      <trkpt lat="49.87504" lon="2.39841">
        <ele>55.6</ele>
        <time>2022-01-05T15:51:10Z</time>
      </trkpt>
      <trkpt lat="49.87503" lon="2.3984">
        <ele>55.6</ele>
        <time>2022-01-05T15:51:11Z</time>
      </trkpt>
      <trkpt lat="49.87503" lon="2.39838">
        <ele>55.6</ele>
        <time>2022-01-05T15:51:13Z</time>
      </trkpt>
      <trkpt lat="49.87503" lon="2.39837">
        <ele>55.6</ele>
        <time>2022-01-05T15:51:14Z</time>
      </trkpt>
      <trkpt lat="49.87503" lon="2.39835">
        <ele>55.7</ele>
        <time>2022-01-05T15:51:15Z</time>
      </trkpt>
      <trkpt lat="49.87503" lon="2.39833">
        <ele>55.7</ele>
        <time>2022-01-05T15:51:16Z</time>
      </trkpt>
      <trkpt lat="49.87503" lon="2.3983">
        <ele>55.7</ele>
        <time>2022-01-05T15:51:17Z</time>
      </trkpt>
      <trkpt lat="49.87503" lon="2.39828">
        <ele>55.7</ele>
        <time>2022-01-05T15:51:18Z</time>
      </trkpt>
      <trkpt lat="49.87502" lon="2.39827">
        <ele>55.7</ele>
        <time>2022-01-05T15:51:20Z</time>
      </trkpt>
      <trkpt lat="49.87502" lon="2.39825">
        <ele>55.7</ele>
        <time>2022-01-05T15:51:22Z</time>
      </trkpt>
      <trkpt lat="49.87501" lon="2.39824">
        <ele>55.8</ele>
        <time>2022-01-05T15:51:23Z</time>
      </trkpt>
      <trkpt lat="49.87501" lon="2.39822">
        <ele>55.8</ele>
        <time>2022-01-05T15:51:24Z</time>
      </trkpt>
      <trkpt lat="49.875" lon="2.39821">
        <ele>55.8</ele>
        <time>2022-01-05T15:51:26Z</time>
      </trkpt>
      <trkpt lat="49.87499" lon="2.3982">
        <ele>55.8</ele>
        <time>2022-01-05T15:51:27Z</time>
      </trkpt>
      <trkpt lat="49.87498" lon="2.39819">
        <ele>55.8</ele>
        <time>2022-01-05T15:51:28Z</time>
      </trkpt>
      <trkpt lat="49.87497" lon="2.39818">
        <ele>55.8</ele>
        <time>2022-01-05T15:51:29Z</time>
      </trkpt>
      <trkpt lat="49.87496" lon="2.39817">
        <ele>55.8</ele>
        <time>2022-01-05T15:51:31Z</time>
      </trkpt>
      <trkpt lat="49.87495" lon="2.39816">
        <ele>55.8</ele>
        <time>2022-01-05T15:51:32Z</time>
      </trkpt>
      <trkpt lat="49.87495" lon="2.39816">
        <ele>55.8</ele>
        <time>2022-01-05T15:51:33Z</time>
      </trkpt>
      <trkpt lat="49.87494" lon="2.39816">
        <ele>55.8</ele>
        <time>2022-01-05T15:51:34Z</time>
      </trkpt>
      <trkpt lat="49.87493" lon="2.39815">
        <ele>55.9</ele>
        <time>2022-01-05T15:51:35Z</time>
      </trkpt>
      <trkpt lat="49.87491" lon="2.39814">
        <ele>55.9</ele>
        <time>2022-01-05T15:51:36Z</time>
      </trkpt>
      <trkpt lat="49.8749" lon="2.39814">
        <ele>55.9</ele>
        <time>2022-01-05T15:51:37Z</time>
      </trkpt>
      <trkpt lat="49.87489" lon="2.39814">
        <ele>55.9</ele>
        <time>2022-01-05T15:51:39Z</time>
      </trkpt>
      <trkpt lat="49.87488" lon="2.39813">
        <ele>55.9</ele>
        <time>2022-01-05T15:51:40Z</time>
      </trkpt>
      <trkpt lat="49.87487" lon="2.39813">
        <ele>55.9</ele>
        <time>2022-01-05T15:51:41Z</time>
      </trkpt>
      <trkpt lat="49.87486" lon="2.39813">
        <ele>55.9</ele>
        <time>2022-01-05T15:51:42Z</time>
      </trkpt>
      <trkpt lat="49.87485" lon="2.39812">
        <ele>55.9</ele>
        <time>2022-01-05T15:51:43Z</time>
      </trkpt>
      <trkpt lat="49.87484" lon="2.39812">
        <ele>55.9</ele>
        <time>2022-01-05T15:51:45Z</time>
      </trkpt>
      <trkpt lat="49.87485" lon="2.3981">
        <ele>55.9</ele>
        <time>2022-01-05T15:51:47Z</time>
      </trkpt>
      <trkpt lat="49.87485" lon="2.39809">
        <ele>55.9</ele>
        <time>2022-01-05T15:51:48Z</time>
      </trkpt>
      <trkpt lat="49.87486" lon="2.3981">
        <ele>55.9</ele>
        <time>2022-01-05T15:51:49Z</time>
      </trkpt>
      <trkpt lat="49.87486" lon="2.39811">
        <ele>55.9</ele>
        <time>2022-01-05T15:51:50Z</time>
      </trkpt>
      <trkpt lat="49.87486" lon="2.39812">
        <ele>55.9</ele>
        <time>2022-01-05T15:51:52Z</time>
      </trkpt>
      <trkpt lat="49.87486" lon="2.39813">
        <ele>55.9</ele>
        <time>2022-01-05T15:51:53Z</time>
      </trkpt>
      <trkpt lat="49.87485" lon="2.39813">
        <ele>55.9</ele>
        <time>2022-01-05T15:51:55Z</time>
      </trkpt>
      <trkpt lat="49.87484" lon="2.39813">
        <ele>55.9</ele>
        <time>2022-01-05T15:51:56Z</time>
      </trkpt>
      <trkpt lat="49.87484" lon="2.39813">
        <ele>55.9</ele>
        <time>2022-01-05T15:51:57Z</time>
      </trkpt>
      <trkpt lat="49.87483" lon="2.39813">
        <ele>55.9</ele>
        <time>2022-01-05T15:51:58Z</time>
      </trkpt>
      <trkpt lat="49.87483" lon="2.39813">
        <ele>55.9</ele>
        <time>2022-01-05T15:51:59Z</time>
      </trkpt>
      <trkpt lat="49.87481" lon="2.39813">
        <ele>55.9</ele>
        <time>2022-01-05T15:52:01Z</time>
      </trkpt>
      <trkpt lat="49.87481" lon="2.39813">
        <ele>55.9</ele>
        <time>2022-01-05T15:52:03Z</time>
      </trkpt>
      <trkpt lat="49.87481" lon="2.39813">
        <ele>55.9</ele>
        <time>2022-01-05T15:52:04Z</time>
      </trkpt>
      <trkpt lat="49.87481" lon="2.39813">
        <ele>55.9</ele>
        <time>2022-01-05T15:52:06Z</time>
      </trkpt>
      <trkpt lat="49.8748" lon="2.39813">
        <ele>55.9</ele>
        <time>2022-01-05T15:52:08Z</time>
      </trkpt>
      <trkpt lat="49.8748" lon="2.39813">
        <ele>55.9</ele>
        <time>2022-01-05T15:52:09Z</time>
      </trkpt>
      <trkpt lat="49.8748" lon="2.39812">
        <ele>55.9</ele>
        <time>2022-01-05T15:52:10Z</time>
      </trkpt>
      <trkpt lat="49.8748" lon="2.39812">
        <ele>55.9</ele>
        <time>2022-01-05T15:52:12Z</time>
      </trkpt>
      <trkpt lat="49.87479" lon="2.39812">
        <ele>55.9</ele>
        <time>2022-01-05T15:52:13Z</time>
      </trkpt>
      <trkpt lat="49.87479" lon="2.39812">
        <ele>55.9</ele>
        <time>2022-01-05T15:52:15Z</time>
      </trkpt>
      <trkpt lat="49.87479" lon="2.39812">
        <ele>55.9</ele>
        <time>2022-01-05T15:52:16Z</time>
      </trkpt>
      <trkpt lat="49.87479" lon="2.39812">
        <ele>55.9</ele>
        <time>2022-01-05T15:52:17Z</time>
      </trkpt>
      <trkpt lat="49.87479" lon="2.39811">
        <ele>55.9</ele>
        <time>2022-01-05T15:52:18Z</time>
      </trkpt>
      <trkpt lat="49.87478" lon="2.39811">
        <ele>55.9</ele>
        <time>2022-01-05T15:52:20Z</time>
      </trkpt>
      <trkpt lat="49.87478" lon="2.39811">
        <ele>55.9</ele>
        <time>2022-01-05T15:52:21Z</time>
      </trkpt>
      <trkpt lat="49.87478" lon="2.39811">
        <ele>56</ele>
        <time>2022-01-05T15:52:22Z</time>
      </trkpt>
      <trkpt lat="49.87478" lon="2.39811">
        <ele>56</ele>
        <time>2022-01-05T15:52:23Z</time>
      </trkpt>
      <trkpt lat="49.87477" lon="2.39808">
        <ele>56</ele>
        <time>2022-01-05T15:52:25Z</time>
      </trkpt>
      <trkpt lat="49.87477" lon="2.39806">
        <ele>56.1</ele>
        <time>2022-01-05T15:52:26Z</time>
      </trkpt>
      <trkpt lat="49.87476" lon="2.39805">
        <ele>56.1</ele>
        <time>2022-01-05T15:52:27Z</time>
      </trkpt>
      <trkpt lat="49.87475" lon="2.39803">
        <ele>56.1</ele>
        <time>2022-01-05T15:52:29Z</time>
      </trkpt>
      <trkpt lat="49.87475" lon="2.39803">
        <ele>56.1</ele>
        <time>2022-01-05T15:52:30Z</time>
      </trkpt>
      <trkpt lat="49.87474" lon="2.39804">
        <ele>56.1</ele>
        <time>2022-01-05T15:52:31Z</time>
      </trkpt>
      <trkpt lat="49.87474" lon="2.39806">
        <ele>56.1</ele>
        <time>2022-01-05T15:52:32Z</time>
      </trkpt>
      <trkpt lat="49.87474" lon="2.39807">
        <ele>56</ele>
        <time>2022-01-05T15:52:33Z</time>
      </trkpt>
      <trkpt lat="49.87473" lon="2.39809">
        <ele>56</ele>
        <time>2022-01-05T15:52:35Z</time>
      </trkpt>
      <trkpt lat="49.87472" lon="2.39809">
        <ele>56</ele>
        <time>2022-01-05T15:52:36Z</time>
      </trkpt>
      <trkpt lat="49.87471" lon="2.3981">
        <ele>56</ele>
        <time>2022-01-05T15:52:37Z</time>
      </trkpt>
      <trkpt lat="49.8747" lon="2.3981">
        <ele>56</ele>
        <time>2022-01-05T15:52:38Z</time>
      </trkpt>
      <trkpt lat="49.87469" lon="2.3981">
        <ele>56.1</ele>
        <time>2022-01-05T15:52:39Z</time>
      </trkpt>
      <trkpt lat="49.87469" lon="2.3981">
        <ele>56.1</ele>
        <time>2022-01-05T15:52:40Z</time>
      </trkpt>
      <trkpt lat="49.87467" lon="2.3981">
        <ele>56.1</ele>
        <time>2022-01-05T15:52:42Z</time>
      </trkpt>
      <trkpt lat="49.87466" lon="2.39811">
        <ele>56.1</ele>
        <time>2022-01-05T15:52:43Z</time>
      </trkpt>
      <trkpt lat="49.87464" lon="2.3981">
        <ele>56.2</ele>
        <time>2022-01-05T15:52:44Z</time>
      </trkpt>
      <trkpt lat="49.87463" lon="2.3981">
        <ele>56.2</ele>
        <time>2022-01-05T15:52:45Z</time>
      </trkpt>
      <trkpt lat="49.87462" lon="2.39809">
        <ele>56.2</ele>
        <time>2022-01-05T15:52:46Z</time>
      </trkpt>
      <trkpt lat="49.87461" lon="2.39808">
        <ele>56.2</ele>
        <time>2022-01-05T15:52:47Z</time>
      </trkpt>
      <trkpt lat="49.8746" lon="2.39808">
        <ele>56.2</ele>
        <time>2022-01-05T15:52:49Z</time>
      </trkpt>
      <trkpt lat="49.87459" lon="2.39807">
        <ele>56.2</ele>
        <time>2022-01-05T15:52:50Z</time>
      </trkpt>
      <trkpt lat="49.87458" lon="2.39805">
        <ele>56.3</ele>
        <time>2022-01-05T15:52:51Z</time>
      </trkpt>
      <trkpt lat="49.87457" lon="2.39804">
        <ele>56.3</ele>
        <time>2022-01-05T15:52:52Z</time>
      </trkpt>
      <trkpt lat="49.87456" lon="2.39803">
        <ele>56.3</ele>
        <time>2022-01-05T15:52:53Z</time>
      </trkpt>
      <trkpt lat="49.87455" lon="2.39802">
        <ele>56.4</ele>
        <time>2022-01-05T15:52:55Z</time>
      </trkpt>
      <trkpt lat="49.87454" lon="2.39801">
        <ele>56.4</ele>
        <time>2022-01-05T15:52:56Z</time>
      </trkpt>
      <trkpt lat="49.87454" lon="2.39799">
        <ele>56.4</ele>
        <time>2022-01-05T15:52:57Z</time>
      </trkpt>
      <trkpt lat="49.87452" lon="2.39797">
        <ele>56.5</ele>
        <time>2022-01-05T15:52:58Z</time>
      </trkpt>
      <trkpt lat="49.87452" lon="2.39796">
        <ele>56.5</ele>
        <time>2022-01-05T15:52:59Z</time>
      </trkpt>
      <trkpt lat="49.87452" lon="2.39795">
        <ele>56.5</ele>
        <time>2022-01-05T15:53:00Z</time>
      </trkpt>
      <trkpt lat="49.87451" lon="2.39793">
        <ele>56.6</ele>
        <time>2022-01-05T15:53:02Z</time>
      </trkpt>
      <trkpt lat="49.87451" lon="2.39791">
        <ele>56.6</ele>
        <time>2022-01-05T15:53:03Z</time>
      </trkpt>
      <trkpt lat="49.87451" lon="2.39789">
        <ele>56.7</ele>
        <time>2022-01-05T15:53:04Z</time>
      </trkpt>
      <trkpt lat="49.87451" lon="2.39788">
        <ele>56.7</ele>
        <time>2022-01-05T15:53:05Z</time>
      </trkpt>
      <trkpt lat="49.87452" lon="2.39786">
        <ele>56.7</ele>
        <time>2022-01-05T15:53:06Z</time>
      </trkpt>
      <trkpt lat="49.87452" lon="2.39784">
        <ele>56.7</ele>
        <time>2022-01-05T15:53:07Z</time>
      </trkpt>
      <trkpt lat="49.87453" lon="2.39783">
        <ele>56.7</ele>
        <time>2022-01-05T15:53:09Z</time>
      </trkpt>
      <trkpt lat="49.87454" lon="2.39782">
        <ele>56.7</ele>
        <time>2022-01-05T15:53:10Z</time>
      </trkpt>
      <trkpt lat="49.87454" lon="2.39781">
        <ele>56.7</ele>
        <time>2022-01-05T15:53:11Z</time>
      </trkpt>
      <trkpt lat="49.87455" lon="2.39779">
        <ele>56.7</ele>
        <time>2022-01-05T15:53:13Z</time>
      </trkpt>
      <trkpt lat="49.87456" lon="2.39778">
        <ele>56.7</ele>
        <time>2022-01-05T15:53:14Z</time>
      </trkpt>
      <trkpt lat="49.87457" lon="2.39776">
        <ele>56.7</ele>
        <time>2022-01-05T15:53:16Z</time>
      </trkpt>
      <trkpt lat="49.87457" lon="2.39775">
        <ele>56.7</ele>
        <time>2022-01-05T15:53:18Z</time>
      </trkpt>
      <trkpt lat="49.87457" lon="2.39775">
        <ele>56.7</ele>
        <time>2022-01-05T15:53:19Z</time>
      </trkpt>
      <trkpt lat="49.87457" lon="2.39775">
        <ele>56.7</ele>
        <time>2022-01-05T15:53:20Z</time>
      </trkpt>
      <trkpt lat="49.87457" lon="2.39775">
        <ele>56.7</ele>
        <time>2022-01-05T15:53:22Z</time>
      </trkpt>
      <trkpt lat="49.87457" lon="2.39774">
        <ele>56.7</ele>
        <time>2022-01-05T15:53:23Z</time>
      </trkpt>
      <trkpt lat="49.87458" lon="2.39773">
        <ele>56.7</ele>
        <time>2022-01-05T15:53:24Z</time>
      </trkpt>
      <trkpt lat="49.87457" lon="2.39772">
        <ele>56.8</ele>
        <time>2022-01-05T15:53:25Z</time>
      </trkpt>
      <trkpt lat="49.87457" lon="2.39771">
        <ele>56.8</ele>
        <time>2022-01-05T15:53:27Z</time>
      </trkpt>
      <trkpt lat="49.87457" lon="2.3977">
        <ele>56.8</ele>
        <time>2022-01-05T15:53:28Z</time>
      </trkpt>
      <trkpt lat="49.87458" lon="2.39768">
        <ele>56.8</ele>
        <time>2022-01-05T15:53:30Z</time>
      </trkpt>
      <trkpt lat="49.87458" lon="2.39767">
        <ele>56.8</ele>
        <time>2022-01-05T15:53:31Z</time>
      </trkpt>
      <trkpt lat="49.87458" lon="2.39767">
        <ele>56.8</ele>
        <time>2022-01-05T15:53:32Z</time>
      </trkpt>
      <trkpt lat="49.87457" lon="2.39766">
        <ele>56.8</ele>
        <time>2022-01-05T15:53:33Z</time>
      </trkpt>
      <trkpt lat="49.87457" lon="2.39765">
        <ele>56.8</ele>
        <time>2022-01-05T15:53:34Z</time>
      </trkpt>
      <trkpt lat="49.87456" lon="2.39764">
        <ele>56.8</ele>
        <time>2022-01-05T15:53:36Z</time>
      </trkpt>
      <trkpt lat="49.87455" lon="2.39763">
        <ele>56.9</ele>
        <time>2022-01-05T15:53:38Z</time>
      </trkpt>
      <trkpt lat="49.87454" lon="2.39764">
        <ele>56.9</ele>
        <time>2022-01-05T15:53:40Z</time>
      </trkpt>
      <trkpt lat="49.87453" lon="2.39765">
        <ele>56.9</ele>
        <time>2022-01-05T15:53:41Z</time>
      </trkpt>
      <trkpt lat="49.87451" lon="2.39764">
        <ele>56.9</ele>
        <time>2022-01-05T15:53:43Z</time>
      </trkpt>
      <trkpt lat="49.87451" lon="2.39764">
        <ele>57</ele>
        <time>2022-01-05T15:53:45Z</time>
      </trkpt>
      <trkpt lat="49.8745" lon="2.39763">
        <ele>57.1</ele>
        <time>2022-01-05T15:53:46Z</time>
      </trkpt>
      <trkpt lat="49.8745" lon="2.39763">
        <ele>57.1</ele>
        <time>2022-01-05T15:53:47Z</time>
      </trkpt>
      <trkpt lat="49.8745" lon="2.39762">
        <ele>57.1</ele>
        <time>2022-01-05T15:53:49Z</time>
      </trkpt>
      <trkpt lat="49.8745" lon="2.39762">
        <ele>57.1</ele>
        <time>2022-01-05T15:53:50Z</time>
      </trkpt>
      <trkpt lat="49.87451" lon="2.39762">
        <ele>57</ele>
        <time>2022-01-05T15:53:52Z</time>
      </trkpt>
      <trkpt lat="49.87451" lon="2.39761">
        <ele>57</ele>
        <time>2022-01-05T15:53:53Z</time>
      </trkpt>
      <trkpt lat="49.87451" lon="2.39762">
        <ele>57</ele>
        <time>2022-01-05T15:53:55Z</time>
      </trkpt>
      <trkpt lat="49.87451" lon="2.39762">
        <ele>57</ele>
        <time>2022-01-05T15:53:57Z</time>
      </trkpt>
      <trkpt lat="49.87452" lon="2.39762">
        <ele>57</ele>
        <time>2022-01-05T15:53:58Z</time>
      </trkpt>
      <trkpt lat="49.87452" lon="2.39763">
        <ele>57</ele>
        <time>2022-01-05T15:54:00Z</time>
      </trkpt>
      <trkpt lat="49.87452" lon="2.39763">
        <ele>57</ele>
        <time>2022-01-05T15:54:01Z</time>
      </trkpt>
      <trkpt lat="49.87452" lon="2.39765">
        <ele>56.9</ele>
        <time>2022-01-05T15:54:03Z</time>
      </trkpt>
      <trkpt lat="49.87452" lon="2.39766">
        <ele>56.9</ele>
        <time>2022-01-05T15:54:04Z</time>
      </trkpt>
      <trkpt lat="49.87452" lon="2.39766">
        <ele>56.9</ele>
        <time>2022-01-05T15:54:06Z</time>
      </trkpt>
      <trkpt lat="49.87452" lon="2.39767">
        <ele>56.9</ele>
        <time>2022-01-05T15:54:08Z</time>
      </trkpt>
      <trkpt lat="49.87452" lon="2.39767">
        <ele>56.9</ele>
        <time>2022-01-05T15:54:10Z</time>
      </trkpt>
      <trkpt lat="49.87452" lon="2.39767">
        <ele>56.9</ele>
        <time>2022-01-05T15:54:11Z</time>
      </trkpt>
      <trkpt lat="49.87452" lon="2.39767">
        <ele>56.9</ele>
        <time>2022-01-05T15:54:12Z</time>
      </trkpt>
      <trkpt lat="49.87452" lon="2.39767">
        <ele>56.9</ele>
        <time>2022-01-05T15:54:13Z</time>
      </trkpt>
      <trkpt lat="49.87452" lon="2.39767">
        <ele>56.9</ele>
        <time>2022-01-05T15:54:15Z</time>
      </trkpt>
      <trkpt lat="49.87452" lon="2.39767">
        <ele>56.9</ele>
        <time>2022-01-05T15:54:16Z</time>
      </trkpt>
      <trkpt lat="49.87452" lon="2.39767">
        <ele>56.9</ele>
        <time>2022-01-05T15:54:18Z</time>
      </trkpt>
      <trkpt lat="49.87452" lon="2.39767">
        <ele>56.9</ele>
        <time>2022-01-05T15:54:19Z</time>
      </trkpt>
      <trkpt lat="49.87452" lon="2.39767">
        <ele>56.9</ele>
        <time>2022-01-05T15:54:21Z</time>
      </trkpt>
      <trkpt lat="49.87452" lon="2.39767">
        <ele>56.9</ele>
        <time>2022-01-05T15:54:23Z</time>
      </trkpt>
      <trkpt lat="49.87452" lon="2.39767">
        <ele>56.9</ele>
        <time>2022-01-05T15:54:24Z</time>
      </trkpt>
      <trkpt lat="49.87452" lon="2.39767">
        <ele>56.9</ele>
        <time>2022-01-05T15:54:26Z</time>
      </trkpt>
      <trkpt lat="49.87452" lon="2.39767">
        <ele>56.9</ele>
        <time>2022-01-05T15:54:27Z</time>
      </trkpt>
      <trkpt lat="49.87452" lon="2.39767">
        <ele>56.9</ele>
        <time>2022-01-05T15:54:28Z</time>
      </trkpt>
      <trkpt lat="49.87452" lon="2.39767">
        <ele>56.9</ele>
        <time>2022-01-05T15:54:30Z</time>
      </trkpt>
      <trkpt lat="49.87452" lon="2.39767">
        <ele>56.9</ele>
        <time>2022-01-05T15:54:32Z</time>
      </trkpt>
      <trkpt lat="49.87452" lon="2.39767">
        <ele>56.9</ele>
        <time>2022-01-05T15:54:33Z</time>
      </trkpt>
      <trkpt lat="49.87452" lon="2.39767">
        <ele>56.9</ele>
        <time>2022-01-05T15:54:34Z</time>
      </trkpt>
      <trkpt lat="49.87452" lon="2.39767">
        <ele>56.9</ele>
        <time>2022-01-05T15:54:36Z</time>
      </trkpt>
      <trkpt lat="49.87452" lon="2.39767">
        <ele>56.9</ele>
        <time>2022-01-05T15:54:37Z</time>
      </trkpt>
      <trkpt lat="49.87452" lon="2.39767">
        <ele>56.9</ele>
        <time>2022-01-05T15:54:38Z</time>
      </trkpt>
      <trkpt lat="49.87452" lon="2.39767">
        <ele>56.9</ele>
        <time>2022-01-05T15:54:40Z</time>
      </trkpt>
      <trkpt lat="49.87452" lon="2.39767">
        <ele>56.9</ele>
        <time>2022-01-05T15:54:41Z</time>
      </trkpt>
      <trkpt lat="49.87452" lon="2.39767">
        <ele>56.9</ele>
        <time>2022-01-05T15:54:43Z</time>
      </trkpt>
      <trkpt lat="49.87452" lon="2.39767">
        <ele>56.9</ele>
        <time>2022-01-05T15:54:45Z</time>
      </trkpt>
      <trkpt lat="49.87452" lon="2.39767">
        <ele>56.9</ele>
        <time>2022-01-05T15:54:47Z</time>
      </trkpt>
      <trkpt lat="49.87452" lon="2.39767">
        <ele>56.9</ele>
        <time>2022-01-05T15:54:49Z</time>
      </trkpt>
      <trkpt lat="49.87452" lon="2.39767">
        <ele>56.9</ele>
        <time>2022-01-05T15:54:51Z</time>
      </trkpt>
      <trkpt lat="49.87452" lon="2.39767">
        <ele>56.9</ele>
        <time>2022-01-05T15:54:53Z</time>
      </trkpt>
      <trkpt lat="49.87452" lon="2.39767">
        <ele>56.9</ele>
        <time>2022-01-05T15:54:54Z</time>
      </trkpt>
      <trkpt lat="49.87452" lon="2.39767">
        <ele>56.9</ele>
        <time>2022-01-05T15:54:56Z</time>
      </trkpt>
      <trkpt lat="49.87452" lon="2.39767">
        <ele>56.9</ele>
        <time>2022-01-05T15:54:57Z</time>
      </trkpt>
      <trkpt lat="49.87452" lon="2.39767">
        <ele>56.9</ele>
        <time>2022-01-05T15:54:58Z</time>
      </trkpt>
      <trkpt lat="49.87452" lon="2.39767">
        <ele>56.9</ele>
        <time>2022-01-05T15:55:00Z</time>
      </trkpt>
      <trkpt lat="49.87451" lon="2.39769">
        <ele>56.9</ele>
        <time>2022-01-05T15:55:01Z</time>
      </trkpt>
      <trkpt lat="49.87451" lon="2.39771">
        <ele>56.9</ele>
        <time>2022-01-05T15:55:02Z</time>
      </trkpt>
      <trkpt lat="49.8745" lon="2.3977">
        <ele>56.9</ele>
        <time>2022-01-05T15:55:04Z</time>
      </trkpt>
      <trkpt lat="49.8745" lon="2.39769">
        <ele>56.9</ele>
        <time>2022-01-05T15:55:06Z</time>
      </trkpt>
      <trkpt lat="49.87449" lon="2.39769">
        <ele>56.9</ele>
        <time>2022-01-05T15:55:08Z</time>
      </trkpt>
      <trkpt lat="49.87449" lon="2.39769">
        <ele>56.9</ele>
        <time>2022-01-05T15:55:09Z</time>
      </trkpt>
      <trkpt lat="49.87449" lon="2.39768">
        <ele>56.9</ele>
        <time>2022-01-05T15:55:10Z</time>
      </trkpt>
      <trkpt lat="49.8745" lon="2.39767">
        <ele>57</ele>
        <time>2022-01-05T15:55:11Z</time>
      </trkpt>
      <trkpt lat="49.8745" lon="2.39767">
        <ele>57</ele>
        <time>2022-01-05T15:55:12Z</time>
      </trkpt>
      <trkpt lat="49.8745" lon="2.39767">
        <ele>57</ele>
        <time>2022-01-05T15:55:14Z</time>
      </trkpt>
      <trkpt lat="49.87451" lon="2.39767">
        <ele>56.9</ele>
        <time>2022-01-05T15:55:16Z</time>
      </trkpt>
      <trkpt lat="49.87451" lon="2.39766">
        <ele>56.9</ele>
        <time>2022-01-05T15:55:18Z</time>
      </trkpt>
      <trkpt lat="49.87451" lon="2.39766">
        <ele>56.9</ele>
        <time>2022-01-05T15:55:19Z</time>
      </trkpt>
      <trkpt lat="49.87452" lon="2.39765">
        <ele>56.9</ele>
        <time>2022-01-05T15:55:21Z</time>
      </trkpt>
      <trkpt lat="49.87452" lon="2.39765">
        <ele>56.9</ele>
        <time>2022-01-05T15:55:22Z</time>
      </trkpt>
      <trkpt lat="49.87452" lon="2.39764">
        <ele>56.9</ele>
        <time>2022-01-05T15:55:24Z</time>
      </trkpt>
      <trkpt lat="49.87452" lon="2.39764">
        <ele>56.9</ele>
        <time>2022-01-05T15:55:26Z</time>
      </trkpt>
      <trkpt lat="49.87451" lon="2.39765">
        <ele>56.9</ele>
        <time>2022-01-05T15:55:27Z</time>
      </trkpt>
      <trkpt lat="49.87451" lon="2.39765">
        <ele>56.9</ele>
        <time>2022-01-05T15:55:29Z</time>
      </trkpt>
      <trkpt lat="49.87451" lon="2.39765">
        <ele>56.9</ele>
        <time>2022-01-05T15:55:30Z</time>
      </trkpt>
      <trkpt lat="49.87451" lon="2.39765">
        <ele>56.9</ele>
        <time>2022-01-05T15:55:32Z</time>
      </trkpt>
      <trkpt lat="49.8745" lon="2.39766">
        <ele>57</ele>
        <time>2022-01-05T15:55:33Z</time>
      </trkpt>
      <trkpt lat="49.8745" lon="2.39766">
        <ele>57</ele>
        <time>2022-01-05T15:55:35Z</time>
      </trkpt>
      <trkpt lat="49.8745" lon="2.39767">
        <ele>57</ele>
        <time>2022-01-05T15:55:36Z</time>
      </trkpt>
      <trkpt lat="49.8745" lon="2.39768">
        <ele>57</ele>
        <time>2022-01-05T15:55:38Z</time>
      </trkpt>
      <trkpt lat="49.8745" lon="2.39768">
        <ele>56.9</ele>
        <time>2022-01-05T15:55:40Z</time>
      </trkpt>
      <trkpt lat="49.8745" lon="2.39768">
        <ele>56.9</ele>
        <time>2022-01-05T15:55:41Z</time>
      </trkpt>
      <trkpt lat="49.8745" lon="2.39768">
        <ele>56.9</ele>
        <time>2022-01-05T15:55:43Z</time>
      </trkpt>
      <trkpt lat="49.8745" lon="2.39768">
        <ele>56.9</ele>
        <time>2022-01-05T15:55:44Z</time>
      </trkpt>
      <trkpt lat="49.8745" lon="2.39768">
        <ele>56.9</ele>
        <time>2022-01-05T15:55:46Z</time>
      </trkpt>
      <trkpt lat="49.8745" lon="2.39768">
        <ele>56.9</ele>
        <time>2022-01-05T15:55:47Z</time>
      </trkpt>
      <trkpt lat="49.8745" lon="2.39768">
        <ele>56.9</ele>
        <time>2022-01-05T15:55:48Z</time>
      </trkpt>
      <trkpt lat="49.8745" lon="2.39768">
        <ele>56.9</ele>
        <time>2022-01-05T15:55:50Z</time>
      </trkpt>
      <trkpt lat="49.8745" lon="2.39768">
        <ele>56.9</ele>
        <time>2022-01-05T15:55:51Z</time>
      </trkpt>
      <trkpt lat="49.8745" lon="2.39768">
        <ele>56.9</ele>
        <time>2022-01-05T15:55:53Z</time>
      </trkpt>
      <trkpt lat="49.8745" lon="2.39768">
        <ele>56.9</ele>
        <time>2022-01-05T15:55:55Z</time>
      </trkpt>
      <trkpt lat="49.8745" lon="2.39768">
        <ele>56.9</ele>
        <time>2022-01-05T15:55:57Z</time>
      </trkpt>
      <trkpt lat="49.8745" lon="2.39768">
        <ele>56.9</ele>
        <time>2022-01-05T15:55:58Z</time>
      </trkpt>
      <trkpt lat="49.87451" lon="2.39769">
        <ele>56.9</ele>
        <time>2022-01-05T15:55:59Z</time>
      </trkpt>
      <trkpt lat="49.87451" lon="2.39769">
        <ele>56.9</ele>
        <time>2022-01-05T15:56:00Z</time>
      </trkpt>
      <trkpt lat="49.87451" lon="2.39769">
        <ele>56.9</ele>
        <time>2022-01-05T15:56:01Z</time>
      </trkpt>
      <trkpt lat="49.8745" lon="2.39768">
        <ele>56.9</ele>
        <time>2022-01-05T15:56:02Z</time>
      </trkpt>
      <trkpt lat="49.87451" lon="2.39769">
        <ele>56.9</ele>
        <time>2022-01-05T15:56:04Z</time>
      </trkpt>
      <trkpt lat="49.87451" lon="2.39769">
        <ele>56.9</ele>
        <time>2022-01-05T15:56:05Z</time>
      </trkpt>
      <trkpt lat="49.87451" lon="2.39769">
        <ele>56.9</ele>
        <time>2022-01-05T15:56:06Z</time>
      </trkpt>
      <trkpt lat="49.87451" lon="2.39772">
        <ele>56.9</ele>
        <time>2022-01-05T15:56:08Z</time>
      </trkpt>
      <trkpt lat="49.87451" lon="2.39773">
        <ele>56.8</ele>
        <time>2022-01-05T15:56:09Z</time>
      </trkpt>
      <trkpt lat="49.87451" lon="2.39773">
        <ele>56.8</ele>
        <time>2022-01-05T15:56:10Z</time>
      </trkpt>
      <trkpt lat="49.87451" lon="2.39773">
        <ele>56.8</ele>
        <time>2022-01-05T15:56:11Z</time>
      </trkpt>
      <trkpt lat="49.87451" lon="2.39773">
        <ele>56.8</ele>
        <time>2022-01-05T15:56:12Z</time>
      </trkpt>
      <trkpt lat="49.87451" lon="2.39773">
        <ele>56.8</ele>
        <time>2022-01-05T15:56:14Z</time>
      </trkpt>
      <trkpt lat="49.87451" lon="2.39773">
        <ele>56.8</ele>
        <time>2022-01-05T15:56:15Z</time>
      </trkpt>
      <trkpt lat="49.87451" lon="2.39774">
        <ele>56.8</ele>
        <time>2022-01-05T15:56:17Z</time>
      </trkpt>
      <trkpt lat="49.87451" lon="2.39774">
        <ele>56.8</ele>
        <time>2022-01-05T15:56:18Z</time>
      </trkpt>
      <trkpt lat="49.87451" lon="2.39774">
        <ele>56.8</ele>
        <time>2022-01-05T15:56:19Z</time>
      </trkpt>
      <trkpt lat="49.87451" lon="2.39774">
        <ele>56.8</ele>
        <time>2022-01-05T15:56:20Z</time>
      </trkpt>
      <trkpt lat="49.87451" lon="2.39774">
        <ele>56.8</ele>
        <time>2022-01-05T15:56:22Z</time>
      </trkpt>
      <trkpt lat="49.87451" lon="2.39774">
        <ele>56.8</ele>
        <time>2022-01-05T15:56:23Z</time>
      </trkpt>
      <trkpt lat="49.87451" lon="2.39774">
        <ele>56.8</ele>
        <time>2022-01-05T15:56:25Z</time>
      </trkpt>
      <trkpt lat="49.87451" lon="2.39774">
        <ele>56.8</ele>
        <time>2022-01-05T15:56:27Z</time>
      </trkpt>
      <trkpt lat="49.87451" lon="2.39774">
        <ele>56.8</ele>
        <time>2022-01-05T15:56:28Z</time>
      </trkpt>
      <trkpt lat="49.87451" lon="2.39774">
        <ele>56.8</ele>
        <time>2022-01-05T15:56:29Z</time>
      </trkpt>
      <trkpt lat="49.87451" lon="2.39774">
        <ele>56.8</ele>
        <time>2022-01-05T15:56:31Z</time>
      </trkpt>
      <trkpt lat="49.87451" lon="2.39774">
        <ele>56.8</ele>
        <time>2022-01-05T15:56:32Z</time>
      </trkpt>
      <trkpt lat="49.87451" lon="2.39774">
        <ele>56.8</ele>
        <time>2022-01-05T15:56:33Z</time>
      </trkpt>
      <trkpt lat="49.87451" lon="2.39774">
        <ele>56.8</ele>
        <time>2022-01-05T15:56:34Z</time>
      </trkpt>
      <trkpt lat="49.87451" lon="2.39774">
        <ele>56.8</ele>
        <time>2022-01-05T15:56:35Z</time>
      </trkpt>
      <trkpt lat="49.87451" lon="2.39774">
        <ele>56.8</ele>
        <time>2022-01-05T15:56:37Z</time>
      </trkpt>
      <trkpt lat="49.87451" lon="2.39773">
        <ele>56.8</ele>
        <time>2022-01-05T15:56:38Z</time>
      </trkpt>
      <trkpt lat="49.87451" lon="2.39773">
        <ele>56.8</ele>
        <time>2022-01-05T15:56:40Z</time>
      </trkpt>
      <trkpt lat="49.8745" lon="2.39773">
        <ele>56.9</ele>
        <time>2022-01-05T15:56:41Z</time>
      </trkpt>
      <trkpt lat="49.8745" lon="2.39774">
        <ele>56.9</ele>
        <time>2022-01-05T15:56:42Z</time>
      </trkpt>
      <trkpt lat="49.8745" lon="2.39775">
        <ele>56.9</ele>
        <time>2022-01-05T15:56:43Z</time>
      </trkpt>
      <trkpt lat="49.8745" lon="2.39775">
        <ele>56.9</ele>
        <time>2022-01-05T15:56:45Z</time>
      </trkpt>
      <trkpt lat="49.8745" lon="2.39775">
        <ele>56.9</ele>
        <time>2022-01-05T15:56:47Z</time>
      </trkpt>
      <trkpt lat="49.8745" lon="2.39775">
        <ele>56.9</ele>
        <time>2022-01-05T15:56:48Z</time>
      </trkpt>
      <trkpt lat="49.8745" lon="2.39774">
        <ele>56.9</ele>
        <time>2022-01-05T15:56:49Z</time>
      </trkpt>
      <trkpt lat="49.8745" lon="2.39774">
        <ele>56.9</ele>
        <time>2022-01-05T15:56:50Z</time>
      </trkpt>
      <trkpt lat="49.8745" lon="2.39774">
        <ele>56.9</ele>
        <time>2022-01-05T15:56:52Z</time>
      </trkpt>
      <trkpt lat="49.8745" lon="2.39774">
        <ele>56.9</ele>
        <time>2022-01-05T15:56:54Z</time>
      </trkpt>
      <trkpt lat="49.87449" lon="2.39774">
        <ele>56.9</ele>
        <time>2022-01-05T15:56:55Z</time>
      </trkpt>
      <trkpt lat="49.87449" lon="2.39773">
        <ele>56.9</ele>
        <time>2022-01-05T15:56:56Z</time>
      </trkpt>
      <trkpt lat="49.87449" lon="2.39773">
        <ele>56.9</ele>
        <time>2022-01-05T15:56:58Z</time>
      </trkpt>
      <trkpt lat="49.87449" lon="2.39772">
        <ele>56.9</ele>
        <time>2022-01-05T15:57:00Z</time>
      </trkpt>
      <trkpt lat="49.87448" lon="2.39772">
        <ele>56.9</ele>
        <time>2022-01-05T15:57:01Z</time>
      </trkpt>
      <trkpt lat="49.87448" lon="2.39772">
        <ele>56.9</ele>
        <time>2022-01-05T15:57:03Z</time>
      </trkpt>
      <trkpt lat="49.87448" lon="2.39772">
        <ele>57</ele>
        <time>2022-01-05T15:57:05Z</time>
      </trkpt>
      <trkpt lat="49.87447" lon="2.39772">
        <ele>57</ele>
        <time>2022-01-05T15:57:06Z</time>
      </trkpt>
      <trkpt lat="49.87447" lon="2.39773">
        <ele>56.9</ele>
        <time>2022-01-05T15:57:08Z</time>
      </trkpt>
      <trkpt lat="49.87447" lon="2.39773">
        <ele>56.9</ele>
        <time>2022-01-05T15:57:09Z</time>
      </trkpt>
      <trkpt lat="49.87447" lon="2.39773">
        <ele>56.9</ele>
        <time>2022-01-05T15:57:11Z</time>
      </trkpt>
      <trkpt lat="49.87447" lon="2.39773">
        <ele>56.9</ele>
        <time>2022-01-05T15:57:13Z</time>
      </trkpt>
      <trkpt lat="49.87447" lon="2.39773">
        <ele>56.9</ele>
        <time>2022-01-05T15:57:14Z</time>
      </trkpt>
      <trkpt lat="49.87447" lon="2.39773">
        <ele>56.9</ele>
        <time>2022-01-05T15:57:16Z</time>
      </trkpt>
      <trkpt lat="49.87446" lon="2.39773">
        <ele>56.9</ele>
        <time>2022-01-05T15:57:18Z</time>
      </trkpt>
      <trkpt lat="49.87446" lon="2.39773">
        <ele>56.9</ele>
        <time>2022-01-05T15:57:20Z</time>
      </trkpt>
      <trkpt lat="49.87446" lon="2.39773">
        <ele>56.9</ele>
        <time>2022-01-05T15:57:21Z</time>
      </trkpt>
      <trkpt lat="49.87446" lon="2.39773">
        <ele>56.9</ele>
        <time>2022-01-05T15:57:22Z</time>
      </trkpt>
      <trkpt lat="49.87446" lon="2.39773">
        <ele>56.9</ele>
        <time>2022-01-05T15:57:24Z</time>
      </trkpt>
      <trkpt lat="49.87446" lon="2.39774">
        <ele>56.9</ele>
        <time>2022-01-05T15:57:25Z</time>
      </trkpt>
      <trkpt lat="49.87446" lon="2.39774">
        <ele>56.9</ele>
        <time>2022-01-05T15:57:27Z</time>
      </trkpt>
      <trkpt lat="49.87445" lon="2.39774">
        <ele>56.9</ele>
        <time>2022-01-05T15:57:29Z</time>
      </trkpt>
      <trkpt lat="49.87445" lon="2.39773">
        <ele>56.9</ele>
        <time>2022-01-05T15:57:30Z</time>
      </trkpt>
      <trkpt lat="49.87445" lon="2.39773">
        <ele>56.9</ele>
        <time>2022-01-05T15:57:31Z</time>
      </trkpt>
      <trkpt lat="49.87445" lon="2.39773">
        <ele>56.9</ele>
        <time>2022-01-05T15:57:33Z</time>
      </trkpt>
      <trkpt lat="49.87446" lon="2.39773">
        <ele>56.9</ele>
        <time>2022-01-05T15:57:35Z</time>
      </trkpt>
      <trkpt lat="49.87446" lon="2.39774">
        <ele>56.9</ele>
        <time>2022-01-05T15:57:37Z</time>
      </trkpt>
      <trkpt lat="49.87446" lon="2.39774">
        <ele>56.9</ele>
        <time>2022-01-05T15:57:39Z</time>
      </trkpt>
      <trkpt lat="49.87446" lon="2.39774">
        <ele>56.9</ele>
        <time>2022-01-05T15:57:40Z</time>
      </trkpt>
      <trkpt lat="49.87446" lon="2.39774">
        <ele>56.9</ele>
        <time>2022-01-05T15:57:41Z</time>
      </trkpt>
      <trkpt lat="49.87446" lon="2.39774">
        <ele>56.9</ele>
        <time>2022-01-05T15:57:43Z</time>
      </trkpt>
      <trkpt lat="49.87446" lon="2.39774">
        <ele>56.9</ele>
        <time>2022-01-05T15:57:44Z</time>
      </trkpt>
      <trkpt lat="49.87446" lon="2.39774">
        <ele>56.9</ele>
        <time>2022-01-05T15:57:45Z</time>
      </trkpt>
      <trkpt lat="49.87446" lon="2.39774">
        <ele>56.9</ele>
        <time>2022-01-05T15:57:47Z</time>
      </trkpt>
      <trkpt lat="49.87446" lon="2.39774">
        <ele>56.9</ele>
        <time>2022-01-05T15:57:49Z</time>
      </trkpt>
      <trkpt lat="49.87446" lon="2.39776">
        <ele>56.9</ele>
        <time>2022-01-05T15:57:51Z</time>
      </trkpt>
      <trkpt lat="49.87446" lon="2.39776">
        <ele>56.9</ele>
        <time>2022-01-05T15:57:52Z</time>
      </trkpt>
      <trkpt lat="49.87447" lon="2.39776">
        <ele>56.9</ele>
        <time>2022-01-05T15:57:53Z</time>
      </trkpt>
      <trkpt lat="49.87447" lon="2.39776">
        <ele>56.9</ele>
        <time>2022-01-05T15:57:55Z</time>
      </trkpt>
      <trkpt lat="49.87447" lon="2.39776">
        <ele>56.9</ele>
        <time>2022-01-05T15:57:56Z</time>
      </trkpt>
      <trkpt lat="49.87447" lon="2.39776">
        <ele>56.9</ele>
        <time>2022-01-05T15:57:57Z</time>
      </trkpt>
      <trkpt lat="49.87447" lon="2.39776">
        <ele>56.9</ele>
        <time>2022-01-05T15:57:59Z</time>
      </trkpt>
      <trkpt lat="49.87447" lon="2.39776">
        <ele>56.9</ele>
        <time>2022-01-05T15:58:00Z</time>
      </trkpt>
      <trkpt lat="49.87446" lon="2.39775">
        <ele>56.9</ele>
        <time>2022-01-05T15:58:02Z</time>
      </trkpt>
      <trkpt lat="49.87446" lon="2.39774">
        <ele>56.9</ele>
        <time>2022-01-05T15:58:04Z</time>
      </trkpt>
      <trkpt lat="49.87446" lon="2.39774">
        <ele>56.9</ele>
        <time>2022-01-05T15:58:05Z</time>
      </trkpt>
      <trkpt lat="49.87446" lon="2.39773">
        <ele>56.9</ele>
        <time>2022-01-05T15:58:06Z</time>
      </trkpt>
      <trkpt lat="49.87446" lon="2.39774">
        <ele>56.9</ele>
        <time>2022-01-05T15:58:08Z</time>
      </trkpt>
      <trkpt lat="49.87447" lon="2.39774">
        <ele>56.9</ele>
        <time>2022-01-05T15:58:10Z</time>
      </trkpt>
    </trkseg>
  </trk>
</gpx>